<?xml version="1.0" encoding="UTF-8"?>
<gpx version="1.1" creator="https://www.youtrack.es" xsi:schemaLocation="http://www.topografix.com/GPX/1/1 http://www.topografix.com/GPX/1/1/gpx.xsd http://www.garmin.com/xmlschemas/GpxExtensions/v3 http://www.garmin.com/xmlschemas/GpxExtensionsv3.xsd http://www.garmin.com/xmlschemas/TrackPointExtension/v1 http://www.garmin.com/xmlschemas/TrackPointExtensionv1.xsd" xmlns:gpxtpx="http://www.garmin.com/xmlschemas/TrackPointExtension/v1" xmlns:gpxx="http://www.garmin.com/xmlschemas/GpxExtensions/v3" xmlns:xsi="http://www.w3.org/2001/XMLSchema-instance">
  <metadata>
    <link href="https://www.youtrack.es">
      <text>YouTrack.es</text>
    </link>
    <time>2026-05-08T03:05:04Z</time>
  </metadata>
  <trk>
    <src>https://www.youtrack.es</src>
    <link href="https://www.youtrack.es/ruta/1119-porto-da-cruz-natura-2018">
      <text>YouTrack.es</text>
    </link>
    <trkseg>
      <trkpt lat="32.7739194966852664947509765625" lon="-16.82868696749210357666015625">
        <ele>20.200000762939453125</ele>
        <time>2018-06-24T08:48:34.000Z</time>
      </trkpt>
      <trkpt lat="32.7737401239573955535888671875" lon="-16.82858772575855255126953125">
        <ele>20.3999996185302734375</ele>
        <time>2018-06-24T08:48:45.000Z</time>
      </trkpt>
      <trkpt lat="32.77356200851500034332275390625" lon="-16.82848756201565265655517578125">
        <ele>21.3999996185302734375</ele>
        <time>2018-06-24T08:48:53.000Z</time>
      </trkpt>
      <trkpt lat="32.77352638542652130126953125" lon="-16.82845185510814189910888671875">
        <ele>21.6000003814697265625</ele>
        <time>2018-06-24T08:48:55.000Z</time>
      </trkpt>
      <trkpt lat="32.77352093718945980072021484375" lon="-16.8282898329198360443115234375">
        <ele>21.6000003814697265625</ele>
        <time>2018-06-24T08:49:01.000Z</time>
      </trkpt>
      <trkpt lat="32.7737019024789333343505859375" lon="-16.828267872333526611328125">
        <ele>22.200000762939453125</ele>
        <time>2018-06-24T08:49:10.000Z</time>
      </trkpt>
      <trkpt lat="32.77391119860112667083740234375" lon="-16.8282566405832767486572265625">
        <ele>22.200000762939453125</ele>
        <time>2018-06-24T08:49:17.000Z</time>
      </trkpt>
      <trkpt lat="32.7739711292088031768798828125" lon="-16.82825236581265926361083984375">
        <ele>22.3999996185302734375</ele>
        <time>2018-06-24T08:49:19.000Z</time>
      </trkpt>
      <trkpt lat="32.77417522855103015899658203125" lon="-16.82823694311082363128662109375">
        <ele>22.799999237060546875</ele>
        <time>2018-06-24T08:49:26.000Z</time>
      </trkpt>
      <trkpt lat="32.77436365373432636260986328125" lon="-16.82821892201900482177734375">
        <ele>23.200000762939453125</ele>
        <time>2018-06-24T08:49:33.000Z</time>
      </trkpt>
      <trkpt lat="32.7745628915727138519287109375" lon="-16.82820148766040802001953125">
        <ele>23.3999996185302734375</ele>
        <time>2018-06-24T08:49:40.000Z</time>
      </trkpt>
      <trkpt lat="32.7746168710291385650634765625" lon="-16.82818698696792125701904296875">
        <ele>23.6000003814697265625</ele>
        <time>2018-06-24T08:49:42.000Z</time>
      </trkpt>
      <trkpt lat="32.77480387128889560699462890625" lon="-16.8281131424009799957275390625">
        <ele>23.6000003814697265625</ele>
        <time>2018-06-24T08:49:49.000Z</time>
      </trkpt>
      <trkpt lat="32.77498357929289340972900390625" lon="-16.8280306644737720489501953125">
        <ele>23.799999237060546875</ele>
        <time>2018-06-24T08:49:56.000Z</time>
      </trkpt>
      <trkpt lat="32.77516194619238376617431640625" lon="-16.8279646150767803192138671875">
        <ele>24</ele>
        <time>2018-06-24T08:50:03.000Z</time>
      </trkpt>
      <trkpt lat="32.775357663631439208984375" lon="-16.82789144106209278106689453125">
        <ele>24.200000762939453125</ele>
        <time>2018-06-24T08:50:10.000Z</time>
      </trkpt>
      <trkpt lat="32.7755385451018810272216796875" lon="-16.8278067000210285186767578125">
        <ele>24.3999996185302734375</ele>
        <time>2018-06-24T08:50:17.000Z</time>
      </trkpt>
      <trkpt lat="32.77570299804210662841796875" lon="-16.82770804502069950103759765625">
        <ele>24.3999996185302734375</ele>
        <time>2018-06-24T08:50:24.000Z</time>
      </trkpt>
      <trkpt lat="32.77572018094360828399658203125" lon="-16.82768709026277065277099609375">
        <ele>24.6000003814697265625</ele>
        <time>2018-06-24T08:50:25.000Z</time>
      </trkpt>
      <trkpt lat="32.77580701746046543121337890625" lon="-16.82749698869884014129638671875">
        <ele>24.799999237060546875</ele>
        <time>2018-06-24T08:50:32.000Z</time>
      </trkpt>
      <trkpt lat="32.77585831470787525177001953125" lon="-16.82727285660803318023681640625">
        <ele>25</ele>
        <time>2018-06-24T08:50:39.000Z</time>
      </trkpt>
      <trkpt lat="32.77590827085077762603759765625" lon="-16.8270462937653064727783203125">
        <ele>25.3999996185302734375</ele>
        <time>2018-06-24T08:50:46.000Z</time>
      </trkpt>
      <trkpt lat="32.77595353312790393829345703125" lon="-16.82681738398969173431396484375">
        <ele>25.3999996185302734375</ele>
        <time>2018-06-24T08:50:53.000Z</time>
      </trkpt>
      <trkpt lat="32.77596225030720233917236328125" lon="-16.82675175368785858154296875">
        <ele>25.6000003814697265625</ele>
        <time>2018-06-24T08:50:55.000Z</time>
      </trkpt>
      <trkpt lat="32.775984294712543487548828125" lon="-16.82650758884847164154052734375">
        <ele>25.799999237060546875</ele>
        <time>2018-06-24T08:51:02.000Z</time>
      </trkpt>
      <trkpt lat="32.77591279707849025726318359375" lon="-16.82628446258604526519775390625">
        <ele>25.200000762939453125</ele>
        <time>2018-06-24T08:51:09.000Z</time>
      </trkpt>
      <trkpt lat="32.7757957018911838531494140625" lon="-16.82622847147285938262939453125">
        <ele>24.3999996185302734375</ele>
        <time>2018-06-24T08:51:13.000Z</time>
      </trkpt>
      <trkpt lat="32.77563703246414661407470703125" lon="-16.82632067240774631500244140625">
        <ele>23.3999996185302734375</ele>
        <time>2018-06-24T08:51:19.000Z</time>
      </trkpt>
      <trkpt lat="32.77555145323276519775390625" lon="-16.82652720250189304351806640625">
        <ele>22</ele>
        <time>2018-06-24T08:51:25.000Z</time>
      </trkpt>
      <trkpt lat="32.77547375299036502838134765625" lon="-16.826722919940948486328125">
        <ele>22.3999996185302734375</ele>
        <time>2018-06-24T08:51:31.000Z</time>
      </trkpt>
      <trkpt lat="32.77545648626983165740966796875" lon="-16.82680070400238037109375">
        <ele>23.200000762939453125</ele>
        <time>2018-06-24T08:51:34.000Z</time>
      </trkpt>
      <trkpt lat="32.77537903748452663421630859375" lon="-16.82691000401973724365234375">
        <ele>22.799999237060546875</ele>
        <time>2018-06-24T08:51:39.000Z</time>
      </trkpt>
      <trkpt lat="32.77533176355063915252685546875" lon="-16.8268867023289203643798828125">
        <ele>22.200000762939453125</ele>
        <time>2018-06-24T08:51:41.000Z</time>
      </trkpt>
      <trkpt lat="32.77524769306182861328125" lon="-16.8268476426601409912109375">
        <ele>21</ele>
        <time>2018-06-24T08:51:44.000Z</time>
      </trkpt>
      <trkpt lat="32.77522028423845767974853515625" lon="-16.82685962878167629241943359375">
        <ele>20.799999237060546875</ele>
        <time>2018-06-24T08:51:45.000Z</time>
      </trkpt>
      <trkpt lat="32.7750309370458126068115234375" lon="-16.82691746391355991363525390625">
        <ele>20.6000003814697265625</ele>
        <time>2018-06-24T08:51:52.000Z</time>
      </trkpt>
      <trkpt lat="32.7749058790504932403564453125" lon="-16.82676139287650585174560546875">
        <ele>20.6000003814697265625</ele>
        <time>2018-06-24T08:51:59.000Z</time>
      </trkpt>
      <trkpt lat="32.774790041148662567138671875" lon="-16.826583780348300933837890625">
        <ele>20.6000003814697265625</ele>
        <time>2018-06-24T08:52:06.000Z</time>
      </trkpt>
      <trkpt lat="32.77458845637738704681396484375" lon="-16.82656508870422840118408203125">
        <ele>20.799999237060546875</ele>
        <time>2018-06-24T08:52:13.000Z</time>
      </trkpt>
      <trkpt lat="32.7744056470692157745361328125" lon="-16.8266697786748409271240234375">
        <ele>20.799999237060546875</ele>
        <time>2018-06-24T08:52:20.000Z</time>
      </trkpt>
      <trkpt lat="32.77423960156738758087158203125" lon="-16.82680347003042697906494140625">
        <ele>20.799999237060546875</ele>
        <time>2018-06-24T08:52:27.000Z</time>
      </trkpt>
      <trkpt lat="32.77410951443016529083251953125" lon="-16.82698133401572704315185546875">
        <ele>20.799999237060546875</ele>
        <time>2018-06-24T08:52:34.000Z</time>
      </trkpt>
      <trkpt lat="32.77396081946790218353271484375" lon="-16.82712784968316555023193359375">
        <ele>20.6000003814697265625</ele>
        <time>2018-06-24T08:52:41.000Z</time>
      </trkpt>
      <trkpt lat="32.77380290441215038299560546875" lon="-16.827259026467800140380859375">
        <ele>20.6000003814697265625</ele>
        <time>2018-06-24T08:52:48.000Z</time>
      </trkpt>
      <trkpt lat="32.77362034656107425689697265625" lon="-16.82737343944609165191650390625">
        <ele>20.6000003814697265625</ele>
        <time>2018-06-24T08:52:55.000Z</time>
      </trkpt>
      <trkpt lat="32.7734615094959735870361328125" lon="-16.82752012275159358978271484375">
        <ele>20.799999237060546875</ele>
        <time>2018-06-24T08:53:02.000Z</time>
      </trkpt>
      <trkpt lat="32.7733750082552433013916015625" lon="-16.82766772806644439697265625">
        <ele>21</ele>
        <time>2018-06-24T08:53:08.000Z</time>
      </trkpt>
      <trkpt lat="32.77332899160683155059814453125" lon="-16.82764970697462558746337890625">
        <ele>19.799999237060546875</ele>
        <time>2018-06-24T08:53:12.000Z</time>
      </trkpt>
      <trkpt lat="32.77331843040883541107177734375" lon="-16.8276182748377323150634765625">
        <ele>18.799999237060546875</ele>
        <time>2018-06-24T08:53:14.000Z</time>
      </trkpt>
      <trkpt lat="32.773311138153076171875" lon="-16.82760327123105525970458984375">
        <ele>18.3999996185302734375</ele>
        <time>2018-06-24T08:53:15.000Z</time>
      </trkpt>
      <trkpt lat="32.7732935361564159393310546875" lon="-16.8275959789752960205078125">
        <ele>17.799999237060546875</ele>
        <time>2018-06-24T08:53:16.000Z</time>
      </trkpt>
      <trkpt lat="32.77326352894306182861328125" lon="-16.82758650742471218109130859375">
        <ele>17</ele>
        <time>2018-06-24T08:53:18.000Z</time>
      </trkpt>
      <trkpt lat="32.7730806358158588409423828125" lon="-16.82759170420467853546142578125">
        <ele>16.3999996185302734375</ele>
        <time>2018-06-24T08:53:25.000Z</time>
      </trkpt>
      <trkpt lat="32.77288910932838916778564453125" lon="-16.82763780467212200164794921875">
        <ele>16.6000003814697265625</ele>
        <time>2018-06-24T08:53:32.000Z</time>
      </trkpt>
      <trkpt lat="32.7727047912776470184326171875" lon="-16.827568151056766510009765625">
        <ele>16.799999237060546875</ele>
        <time>2018-06-24T08:53:39.000Z</time>
      </trkpt>
      <trkpt lat="32.7725301124155521392822265625" lon="-16.827455498278141021728515625">
        <ele>17.200000762939453125</ele>
        <time>2018-06-24T08:53:46.000Z</time>
      </trkpt>
      <trkpt lat="32.77236306108534336090087890625" lon="-16.82732105255126953125">
        <ele>17.6000003814697265625</ele>
        <time>2018-06-24T08:53:53.000Z</time>
      </trkpt>
      <trkpt lat="32.77222149074077606201171875" lon="-16.827223487198352813720703125">
        <ele>18.200000762939453125</ele>
        <time>2018-06-24T08:53:59.000Z</time>
      </trkpt>
      <trkpt lat="32.7720453031361103057861328125" lon="-16.82722290046513080596923828125">
        <ele>18.3999996185302734375</ele>
        <time>2018-06-24T08:54:07.000Z</time>
      </trkpt>
      <trkpt lat="32.77202728204429149627685546875" lon="-16.82724393904209136962890625">
        <ele>18.3999996185302734375</ele>
        <time>2018-06-24T08:54:08.000Z</time>
      </trkpt>
      <trkpt lat="32.771960981190204620361328125" lon="-16.8273304402828216552734375">
        <ele>19.200000762939453125</ele>
        <time>2018-06-24T08:54:12.000Z</time>
      </trkpt>
      <trkpt lat="32.7718997932970523834228515625" lon="-16.827405206859111785888671875">
        <ele>20.3999996185302734375</ele>
        <time>2018-06-24T08:54:16.000Z</time>
      </trkpt>
      <trkpt lat="32.77183567173779010772705078125" lon="-16.82747720740735530853271484375">
        <ele>21.6000003814697265625</ele>
        <time>2018-06-24T08:54:20.000Z</time>
      </trkpt>
      <trkpt lat="32.7718005515635013580322265625" lon="-16.82753403671085834503173828125">
        <ele>22.6000003814697265625</ele>
        <time>2018-06-24T08:54:23.000Z</time>
      </trkpt>
      <trkpt lat="32.77174162678420543670654296875" lon="-16.8275958113372325897216796875">
        <ele>23.799999237060546875</ele>
        <time>2018-06-24T08:54:27.000Z</time>
      </trkpt>
      <trkpt lat="32.77167540974915027618408203125" lon="-16.82765909470617771148681640625">
        <ele>25.200000762939453125</ele>
        <time>2018-06-24T08:54:31.000Z</time>
      </trkpt>
      <trkpt lat="32.77162143029272556304931640625" lon="-16.82771039195358753204345703125">
        <ele>26.3999996185302734375</ele>
        <time>2018-06-24T08:54:34.000Z</time>
      </trkpt>
      <trkpt lat="32.77154817245900630950927734375" lon="-16.827768646180629730224609375">
        <ele>27.6000003814697265625</ele>
        <time>2018-06-24T08:54:38.000Z</time>
      </trkpt>
      <trkpt lat="32.77149050496518611907958984375" lon="-16.82782354764640331268310546875">
        <ele>28.6000003814697265625</ele>
        <time>2018-06-24T08:54:41.000Z</time>
      </trkpt>
      <trkpt lat="32.7714314125478267669677734375" lon="-16.82788440026342868804931640625">
        <ele>29.799999237060546875</ele>
        <time>2018-06-24T08:54:44.000Z</time>
      </trkpt>
      <trkpt lat="32.77141070924699306488037109375" lon="-16.8279312551021575927734375">
        <ele>30.3999996185302734375</ele>
        <time>2018-06-24T08:54:46.000Z</time>
      </trkpt>
      <trkpt lat="32.77143468149006366729736328125" lon="-16.8279840610921382904052734375">
        <ele>30.799999237060546875</ele>
        <time>2018-06-24T08:54:48.000Z</time>
      </trkpt>
      <trkpt lat="32.771567367017269134521484375" lon="-16.828136444091796875">
        <ele>30.6000003814697265625</ele>
        <time>2018-06-24T08:54:54.000Z</time>
      </trkpt>
      <trkpt lat="32.7716915868222713470458984375" lon="-16.82830047793686389923095703125">
        <ele>30.6000003814697265625</ele>
        <time>2018-06-24T08:55:00.000Z</time>
      </trkpt>
      <trkpt lat="32.7717941813170909881591796875" lon="-16.828482784330844879150390625">
        <ele>30.799999237060546875</ele>
        <time>2018-06-24T08:55:06.000Z</time>
      </trkpt>
      <trkpt lat="32.77193575166165828704833984375" lon="-16.82863407768309116363525390625">
        <ele>31.6000003814697265625</ele>
        <time>2018-06-24T08:55:13.000Z</time>
      </trkpt>
      <trkpt lat="32.77210473082959651947021484375" lon="-16.82851186953485012054443359375">
        <ele>30.799999237060546875</ele>
        <time>2018-06-24T08:55:19.000Z</time>
      </trkpt>
      <trkpt lat="32.772144041955471038818359375" lon="-16.82839536108076572418212890625">
        <ele>29.799999237060546875</ele>
        <time>2018-06-24T08:55:22.000Z</time>
      </trkpt>
      <trkpt lat="32.77219022624194622039794921875" lon="-16.8282439000904560089111328125">
        <ele>28.3999996185302734375</ele>
        <time>2018-06-24T08:55:26.000Z</time>
      </trkpt>
      <trkpt lat="32.77231696061789989471435546875" lon="-16.82811439968645572662353515625">
        <ele>27.3999996185302734375</ele>
        <time>2018-06-24T08:55:32.000Z</time>
      </trkpt>
      <trkpt lat="32.772504799067974090576171875" lon="-16.82806067168712615966796875">
        <ele>26.3999996185302734375</ele>
        <time>2018-06-24T08:55:39.000Z</time>
      </trkpt>
      <trkpt lat="32.77253665030002593994140625" lon="-16.82805589400231838226318359375">
        <ele>26.200000762939453125</ele>
        <time>2018-06-24T08:55:40.000Z</time>
      </trkpt>
      <trkpt lat="32.772686518728733062744140625" lon="-16.82808958925306797027587890625">
        <ele>25</ele>
        <time>2018-06-24T08:55:46.000Z</time>
      </trkpt>
      <trkpt lat="32.77275533415377140045166015625" lon="-16.82816754095256328582763671875">
        <ele>23.6000003814697265625</ele>
        <time>2018-06-24T08:55:49.000Z</time>
      </trkpt>
      <trkpt lat="32.77290838770568370819091796875" lon="-16.82828589342534542083740234375">
        <ele>23.200000762939453125</ele>
        <time>2018-06-24T08:55:55.000Z</time>
      </trkpt>
      <trkpt lat="32.77301232330501079559326171875" lon="-16.82850281707942485809326171875">
        <ele>23.200000762939453125</ele>
        <time>2018-06-24T08:56:01.000Z</time>
      </trkpt>
      <trkpt lat="32.7730283327400684356689453125" lon="-16.82871839962899684906005859375">
        <ele>23.200000762939453125</ele>
        <time>2018-06-24T08:56:10.000Z</time>
      </trkpt>
      <trkpt lat="32.77288726530969142913818359375" lon="-16.82886793278157711029052734375">
        <ele>24.200000762939453125</ele>
        <time>2018-06-24T08:56:17.000Z</time>
      </trkpt>
      <trkpt lat="32.77286052703857421875" lon="-16.82896063663065433502197265625">
        <ele>24.6000003814697265625</ele>
        <time>2018-06-24T08:56:20.000Z</time>
      </trkpt>
      <trkpt lat="32.77280487120151519775390625" lon="-16.82914000935852527618408203125">
        <ele>25.799999237060546875</ele>
        <time>2018-06-24T08:56:26.000Z</time>
      </trkpt>
      <trkpt lat="32.7727889455854892730712890625" lon="-16.8292591162025928497314453125">
        <ele>27</ele>
        <time>2018-06-24T08:56:30.000Z</time>
      </trkpt>
      <trkpt lat="32.7727986685931682586669921875" lon="-16.8293969146907329559326171875">
        <ele>28.200000762939453125</ele>
        <time>2018-06-24T08:56:35.000Z</time>
      </trkpt>
      <trkpt lat="32.7728040330111980438232421875" lon="-16.8295099027454853057861328125">
        <ele>29.200000762939453125</ele>
        <time>2018-06-24T08:56:39.000Z</time>
      </trkpt>
      <trkpt lat="32.772775031626224517822265625" lon="-16.82972506619989871978759765625">
        <ele>30.200000762939453125</ele>
        <time>2018-06-24T08:56:47.000Z</time>
      </trkpt>
      <trkpt lat="32.77278282679617404937744140625" lon="-16.8298116512596607208251953125">
        <ele>30.3999996185302734375</ele>
        <time>2018-06-24T08:56:50.000Z</time>
      </trkpt>
      <trkpt lat="32.77280193753540515899658203125" lon="-16.8299494497478008270263671875">
        <ele>31.3999996185302734375</ele>
        <time>2018-06-24T08:56:55.000Z</time>
      </trkpt>
      <trkpt lat="32.772811241447925567626953125" lon="-16.83001440949738025665283203125">
        <ele>32.59999847412109375</ele>
        <time>2018-06-24T08:56:58.000Z</time>
      </trkpt>
      <trkpt lat="32.77281434275209903717041015625" lon="-16.8300701491534709930419921875">
        <ele>33.799999237060546875</ele>
        <time>2018-06-24T08:57:01.000Z</time>
      </trkpt>
      <trkpt lat="32.7728087268769741058349609375" lon="-16.83012873865664005279541015625">
        <ele>34.799999237060546875</ele>
        <time>2018-06-24T08:57:04.000Z</time>
      </trkpt>
      <trkpt lat="32.77278735302388668060302734375" lon="-16.83018255047500133514404296875">
        <ele>35.799999237060546875</ele>
        <time>2018-06-24T08:57:07.000Z</time>
      </trkpt>
      <trkpt lat="32.77276061475276947021484375" lon="-16.83022253215312957763671875">
        <ele>36.799999237060546875</ele>
        <time>2018-06-24T08:57:10.000Z</time>
      </trkpt>
      <trkpt lat="32.77271325699985027313232421875" lon="-16.83025664649903774261474609375">
        <ele>38</ele>
        <time>2018-06-24T08:57:14.000Z</time>
      </trkpt>
      <trkpt lat="32.77267989702522754669189453125" lon="-16.8302823789417743682861328125">
        <ele>39.200000762939453125</ele>
        <time>2018-06-24T08:57:17.000Z</time>
      </trkpt>
      <trkpt lat="32.7726296894252300262451171875" lon="-16.83031506836414337158203125">
        <ele>40.59999847412109375</ele>
        <time>2018-06-24T08:57:21.000Z</time>
      </trkpt>
      <trkpt lat="32.77256472967565059661865234375" lon="-16.8303769268095493316650390625">
        <ele>41.799999237060546875</ele>
        <time>2018-06-24T08:57:26.000Z</time>
      </trkpt>
      <trkpt lat="32.7725307829678058624267578125" lon="-16.83042830787599086761474609375">
        <ele>42.799999237060546875</ele>
        <time>2018-06-24T08:57:29.000Z</time>
      </trkpt>
      <trkpt lat="32.77250035665929317474365234375" lon="-16.83047063648700714111328125">
        <ele>43.799999237060546875</ele>
        <time>2018-06-24T08:57:32.000Z</time>
      </trkpt>
      <trkpt lat="32.77248711325228214263916015625" lon="-16.8305127136409282684326171875">
        <ele>44.799999237060546875</ele>
        <time>2018-06-24T08:57:35.000Z</time>
      </trkpt>
      <trkpt lat="32.77250421233475208282470703125" lon="-16.83058085851371288299560546875">
        <ele>46.200000762939453125</ele>
        <time>2018-06-24T08:57:39.000Z</time>
      </trkpt>
      <trkpt lat="32.77254058979451656341552734375" lon="-16.83064372278749942779541015625">
        <ele>47.200000762939453125</ele>
        <time>2018-06-24T08:57:43.000Z</time>
      </trkpt>
      <trkpt lat="32.772586606442928314208984375" lon="-16.83069552294909954071044921875">
        <ele>48.40000152587890625</ele>
        <time>2018-06-24T08:57:47.000Z</time>
      </trkpt>
      <trkpt lat="32.77260999195277690887451171875" lon="-16.83075570501387119293212890625">
        <ele>49.59999847412109375</ele>
        <time>2018-06-24T08:57:51.000Z</time>
      </trkpt>
      <trkpt lat="32.77262960560619831085205078125" lon="-16.8308070860803127288818359375">
        <ele>50.799999237060546875</ele>
        <time>2018-06-24T08:57:54.000Z</time>
      </trkpt>
      <trkpt lat="32.77264117263257503509521484375" lon="-16.8308795057237148284912109375">
        <ele>52</ele>
        <time>2018-06-24T08:57:58.000Z</time>
      </trkpt>
      <trkpt lat="32.77263396419584751129150390625" lon="-16.8309569545090198516845703125">
        <ele>53</ele>
        <time>2018-06-24T08:58:02.000Z</time>
      </trkpt>
      <trkpt lat="32.77260999195277690887451171875" lon="-16.83103666640818119049072265625">
        <ele>54</ele>
        <time>2018-06-24T08:58:06.000Z</time>
      </trkpt>
      <trkpt lat="32.77259834110736846923828125" lon="-16.83109617792069911956787109375">
        <ele>55.200000762939453125</ele>
        <time>2018-06-24T08:58:09.000Z</time>
      </trkpt>
      <trkpt lat="32.77258568443357944488525390625" lon="-16.83117312379181385040283203125">
        <ele>56.200000762939453125</ele>
        <time>2018-06-24T08:58:13.000Z</time>
      </trkpt>
      <trkpt lat="32.77257579378783702850341796875" lon="-16.831259541213512420654296875">
        <ele>57.40000152587890625</ele>
        <time>2018-06-24T08:58:18.000Z</time>
      </trkpt>
      <trkpt lat="32.77256238274276256561279296875" lon="-16.83134394697844982147216796875">
        <ele>58.40000152587890625</ele>
        <time>2018-06-24T08:58:23.000Z</time>
      </trkpt>
      <trkpt lat="32.77253539301455020904541015625" lon="-16.8314337171614170074462890625">
        <ele>59.59999847412109375</ele>
        <time>2018-06-24T08:58:28.000Z</time>
      </trkpt>
      <trkpt lat="32.7724942378699779510498046875" lon="-16.83150974102318286895751953125">
        <ele>61</ele>
        <time>2018-06-24T08:58:33.000Z</time>
      </trkpt>
      <trkpt lat="32.77244620956480503082275390625" lon="-16.83157914318144321441650390625">
        <ele>62.200000762939453125</ele>
        <time>2018-06-24T08:58:38.000Z</time>
      </trkpt>
      <trkpt lat="32.77241536416113376617431640625" lon="-16.8316171132028102874755859375">
        <ele>63.40000152587890625</ele>
        <time>2018-06-24T08:58:41.000Z</time>
      </trkpt>
      <trkpt lat="32.77235426008701324462890625" lon="-16.8316751159727573394775390625">
        <ele>64.40000152587890625</ele>
        <time>2018-06-24T08:58:46.000Z</time>
      </trkpt>
      <trkpt lat="32.7723549306392669677734375" lon="-16.831769160926342010498046875">
        <ele>65.8000030517578125</ele>
        <time>2018-06-24T08:58:51.000Z</time>
      </trkpt>
      <trkpt lat="32.77237831614911556243896484375" lon="-16.831861697137355804443359375">
        <ele>67</ele>
        <time>2018-06-24T08:58:56.000Z</time>
      </trkpt>
      <trkpt lat="32.7724112570285797119140625" lon="-16.83195867575705051422119140625">
        <ele>68.1999969482421875</ele>
        <time>2018-06-24T08:59:01.000Z</time>
      </trkpt>
      <trkpt lat="32.772422991693019866943359375" lon="-16.83203914202749729156494140625">
        <ele>69.1999969482421875</ele>
        <time>2018-06-24T08:59:05.000Z</time>
      </trkpt>
      <trkpt lat="32.77243011631071567535400390625" lon="-16.83211843483150005340576171875">
        <ele>70.40000152587890625</ele>
        <time>2018-06-24T08:59:09.000Z</time>
      </trkpt>
      <trkpt lat="32.772435061633586883544921875" lon="-16.83218934573233127593994140625">
        <ele>71.59999847412109375</ele>
        <time>2018-06-24T08:59:13.000Z</time>
      </trkpt>
      <trkpt lat="32.77243330143392086029052734375" lon="-16.83225640095770359039306640625">
        <ele>72.8000030517578125</ele>
        <time>2018-06-24T08:59:17.000Z</time>
      </trkpt>
      <trkpt lat="32.7724308706820011138916015625" lon="-16.83232865296304225921630859375">
        <ele>73.8000030517578125</ele>
        <time>2018-06-24T08:59:21.000Z</time>
      </trkpt>
      <trkpt lat="32.7724288590252399444580078125" lon="-16.83239512145519256591796875">
        <ele>75</ele>
        <time>2018-06-24T08:59:25.000Z</time>
      </trkpt>
      <trkpt lat="32.772425003349781036376953125" lon="-16.83245974592864513397216796875">
        <ele>76.40000152587890625</ele>
        <time>2018-06-24T08:59:29.000Z</time>
      </trkpt>
      <trkpt lat="32.77241670526564121246337890625" lon="-16.8325285613536834716796875">
        <ele>77.59999847412109375</ele>
        <time>2018-06-24T08:59:33.000Z</time>
      </trkpt>
      <trkpt lat="32.77240656316280364990234375" lon="-16.83259771205484867095947265625">
        <ele>78.59999847412109375</ele>
        <time>2018-06-24T08:59:37.000Z</time>
      </trkpt>
      <trkpt lat="32.772396169602870941162109375" lon="-16.83266795240342617034912109375">
        <ele>79.8000030517578125</ele>
        <time>2018-06-24T08:59:41.000Z</time>
      </trkpt>
      <trkpt lat="32.77237412519752979278564453125" lon="-16.83273567818105220794677734375">
        <ele>81</ele>
        <time>2018-06-24T08:59:45.000Z</time>
      </trkpt>
      <trkpt lat="32.772326432168483734130859375" lon="-16.832809187471866607666015625">
        <ele>82</ele>
        <time>2018-06-24T08:59:50.000Z</time>
      </trkpt>
      <trkpt lat="32.772246636450290679931640625" lon="-16.8328988738358020782470703125">
        <ele>83.1999969482421875</ele>
        <time>2018-06-24T08:59:56.000Z</time>
      </trkpt>
      <trkpt lat="32.7721913158893585205078125" lon="-16.83301848359405994415283203125">
        <ele>84.1999969482421875</ele>
        <time>2018-06-24T09:00:02.000Z</time>
      </trkpt>
      <trkpt lat="32.77213926427066326141357421875" lon="-16.83322526514530181884765625">
        <ele>85</ele>
        <time>2018-06-24T09:00:10.000Z</time>
      </trkpt>
      <trkpt lat="32.77212501503527164459228515625" lon="-16.83334085159003734588623046875">
        <ele>85.40000152587890625</ele>
        <time>2018-06-24T09:00:14.000Z</time>
      </trkpt>
      <trkpt lat="32.7720684371888637542724609375" lon="-16.83355056680738925933837890625">
        <ele>85.59999847412109375</ele>
        <time>2018-06-24T09:00:22.000Z</time>
      </trkpt>
      <trkpt lat="32.77198637835681438446044921875" lon="-16.83374963700771331787109375">
        <ele>86.1999969482421875</ele>
        <time>2018-06-24T09:00:30.000Z</time>
      </trkpt>
      <trkpt lat="32.7719755657017230987548828125" lon="-16.83377386070787906646728515625">
        <ele>86.40000152587890625</ele>
        <time>2018-06-24T09:00:31.000Z</time>
      </trkpt>
      <trkpt lat="32.77192301116883754730224609375" lon="-16.83400168083608150482177734375">
        <ele>87.40000152587890625</ele>
        <time>2018-06-24T09:00:39.000Z</time>
      </trkpt>
      <trkpt lat="32.7719081752002239227294921875" lon="-16.834236122667789459228515625">
        <ele>87.40000152587890625</ele>
        <time>2018-06-24T09:00:47.000Z</time>
      </trkpt>
      <trkpt lat="32.77191580273211002349853515625" lon="-16.834473498165607452392578125">
        <ele>87.1999969482421875</ele>
        <time>2018-06-24T09:00:55.000Z</time>
      </trkpt>
      <trkpt lat="32.771913707256317138671875" lon="-16.83469737879931926727294921875">
        <ele>87.40000152587890625</ele>
        <time>2018-06-24T09:01:02.000Z</time>
      </trkpt>
      <trkpt lat="32.771889902651309967041015625" lon="-16.83481422252953052520751953125">
        <ele>88</ele>
        <time>2018-06-24T09:01:06.000Z</time>
      </trkpt>
      <trkpt lat="32.7718739770352840423583984375" lon="-16.8348686210811138153076171875">
        <ele>88.59999847412109375</ele>
        <time>2018-06-24T09:01:08.000Z</time>
      </trkpt>
      <trkpt lat="32.77183097787201404571533203125" lon="-16.8349762447178363800048828125">
        <ele>89.59999847412109375</ele>
        <time>2018-06-24T09:01:12.000Z</time>
      </trkpt>
      <trkpt lat="32.7717660181224346160888671875" lon="-16.8350825272500514984130859375">
        <ele>90.59999847412109375</ele>
        <time>2018-06-24T09:01:17.000Z</time>
      </trkpt>
      <trkpt lat="32.77165277861058712005615234375" lon="-16.83527715504169464111328125">
        <ele>91.1999969482421875</ele>
        <time>2018-06-24T09:01:26.000Z</time>
      </trkpt>
      <trkpt lat="32.77153492905199527740478515625" lon="-16.83545141480863094329833984375">
        <ele>90.1999969482421875</ele>
        <time>2018-06-24T09:01:33.000Z</time>
      </trkpt>
      <trkpt lat="32.7714776806533336639404296875" lon="-16.8355703540146350860595703125">
        <ele>89.40000152587890625</ele>
        <time>2018-06-24T09:01:37.000Z</time>
      </trkpt>
      <trkpt lat="32.77144708670675754547119140625" lon="-16.83573958463966846466064453125">
        <ele>88.1999969482421875</ele>
        <time>2018-06-24T09:01:42.000Z</time>
      </trkpt>
      <trkpt lat="32.77140534482896327972412109375" lon="-16.8358469568192958831787109375">
        <ele>86.59999847412109375</ele>
        <time>2018-06-24T09:01:45.000Z</time>
      </trkpt>
      <trkpt lat="32.77132923714816570281982421875" lon="-16.836052648723125457763671875">
        <ele>85.8000030517578125</ele>
        <time>2018-06-24T09:01:51.000Z</time>
      </trkpt>
      <trkpt lat="32.77124248445034027099609375" lon="-16.8362496234476566314697265625">
        <ele>86.59999847412109375</ele>
        <time>2018-06-24T09:01:59.000Z</time>
      </trkpt>
      <trkpt lat="32.77113444171845912933349609375" lon="-16.83639387600123882293701171875">
        <ele>87.8000030517578125</ele>
        <time>2018-06-24T09:02:06.000Z</time>
      </trkpt>
      <trkpt lat="32.77106051333248615264892578125" lon="-16.8364940397441387176513671875">
        <ele>88.8000030517578125</ele>
        <time>2018-06-24T09:02:11.000Z</time>
      </trkpt>
      <trkpt lat="32.770996056497097015380859375" lon="-16.8366026692092418670654296875">
        <ele>90.1999969482421875</ele>
        <time>2018-06-24T09:02:16.000Z</time>
      </trkpt>
      <trkpt lat="32.77098004706203937530517578125" lon="-16.8366833031177520751953125">
        <ele>91.40000152587890625</ele>
        <time>2018-06-24T09:02:20.000Z</time>
      </trkpt>
      <trkpt lat="32.7709569968283176422119140625" lon="-16.83675848878920078277587890625">
        <ele>92.59999847412109375</ele>
        <time>2018-06-24T09:02:24.000Z</time>
      </trkpt>
      <trkpt lat="32.77094735763967037200927734375" lon="-16.83680023066699504852294921875">
        <ele>93.8000030517578125</ele>
        <time>2018-06-24T09:02:27.000Z</time>
      </trkpt>
      <trkpt lat="32.7709348686039447784423828125" lon="-16.836847253143787384033203125">
        <ele>94.8000030517578125</ele>
        <time>2018-06-24T09:02:30.000Z</time>
      </trkpt>
      <trkpt lat="32.77091986499726772308349609375" lon="-16.83688991703093051910400390625">
        <ele>96</ele>
        <time>2018-06-24T09:02:33.000Z</time>
      </trkpt>
      <trkpt lat="32.770910561084747314453125" lon="-16.83693635277450084686279296875">
        <ele>97.1999969482421875</ele>
        <time>2018-06-24T09:02:36.000Z</time>
      </trkpt>
      <trkpt lat="32.7709036879241466522216796875" lon="-16.8369818665087223052978515625">
        <ele>98.40000152587890625</ele>
        <time>2018-06-24T09:02:39.000Z</time>
      </trkpt>
      <trkpt lat="32.770904190838336944580078125" lon="-16.83703743852674961090087890625">
        <ele>99.59999847412109375</ele>
        <time>2018-06-24T09:02:43.000Z</time>
      </trkpt>
      <trkpt lat="32.77090779505670070648193359375" lon="-16.83707750402390956878662109375">
        <ele>100.8000030517578125</ele>
        <time>2018-06-24T09:02:46.000Z</time>
      </trkpt>
      <trkpt lat="32.77090393938124179840087890625" lon="-16.837119497358798980712890625">
        <ele>101.8000030517578125</ele>
        <time>2018-06-24T09:02:49.000Z</time>
      </trkpt>
      <trkpt lat="32.77089245617389678955078125" lon="-16.83718613348901271820068359375">
        <ele>103.1999969482421875</ele>
        <time>2018-06-24T09:02:53.000Z</time>
      </trkpt>
      <trkpt lat="32.77089555747807025909423828125" lon="-16.83725059032440185546875">
        <ele>104.40000152587890625</ele>
        <time>2018-06-24T09:02:57.000Z</time>
      </trkpt>
      <trkpt lat="32.770909555256366729736328125" lon="-16.83730616234242916107177734375">
        <ele>105.40000152587890625</ele>
        <time>2018-06-24T09:03:00.000Z</time>
      </trkpt>
      <trkpt lat="32.77093126438558101654052734375" lon="-16.8373882211744785308837890625">
        <ele>106.59999847412109375</ele>
        <time>2018-06-24T09:03:04.000Z</time>
      </trkpt>
      <trkpt lat="32.7709620259702205657958984375" lon="-16.83747950010001659393310546875">
        <ele>107.59999847412109375</ele>
        <time>2018-06-24T09:03:09.000Z</time>
      </trkpt>
      <trkpt lat="32.7710701525211334228515625" lon="-16.83767027221620082855224609375">
        <ele>108</ele>
        <time>2018-06-24T09:03:19.000Z</time>
      </trkpt>
      <trkpt lat="32.77101189829409122467041015625" lon="-16.83787127025425434112548828125">
        <ele>106.8000030517578125</ele>
        <time>2018-06-24T09:03:27.000Z</time>
      </trkpt>
      <trkpt lat="32.7709204517304897308349609375" lon="-16.837905384600162506103515625">
        <ele>108.8000030517578125</ele>
        <time>2018-06-24T09:03:33.000Z</time>
      </trkpt>
      <trkpt lat="32.7708597667515277862548828125" lon="-16.83794586919248104095458984375">
        <ele>109.8000030517578125</ele>
        <time>2018-06-24T09:03:37.000Z</time>
      </trkpt>
      <trkpt lat="32.77080553583800792694091796875" lon="-16.8380363099277019500732421875">
        <ele>111</ele>
        <time>2018-06-24T09:03:42.000Z</time>
      </trkpt>
      <trkpt lat="32.770788855850696563720703125" lon="-16.83811518363654613494873046875">
        <ele>112</ele>
        <time>2018-06-24T09:03:46.000Z</time>
      </trkpt>
      <trkpt lat="32.770790196955204010009765625" lon="-16.838195063173770904541015625">
        <ele>113.1999969482421875</ele>
        <time>2018-06-24T09:03:50.000Z</time>
      </trkpt>
      <trkpt lat="32.77081190608441829681396484375" lon="-16.83829464018344879150390625">
        <ele>114.59999847412109375</ele>
        <time>2018-06-24T09:03:55.000Z</time>
      </trkpt>
      <trkpt lat="32.7708312682807445526123046875" lon="-16.83837535791099071502685546875">
        <ele>115.8000030517578125</ele>
        <time>2018-06-24T09:03:59.000Z</time>
      </trkpt>
      <trkpt lat="32.7708490379154682159423828125" lon="-16.8384611047804355621337890625">
        <ele>117</ele>
        <time>2018-06-24T09:04:03.000Z</time>
      </trkpt>
      <trkpt lat="32.770864963531494140625" lon="-16.83854467235505580902099609375">
        <ele>118.40000152587890625</ele>
        <time>2018-06-24T09:04:07.000Z</time>
      </trkpt>
      <trkpt lat="32.770882733166217803955078125" lon="-16.838625557720661163330078125">
        <ele>119.40000152587890625</ele>
        <time>2018-06-24T09:04:11.000Z</time>
      </trkpt>
      <trkpt lat="32.77089874260127544403076171875" lon="-16.83870292268693447113037109375">
        <ele>120.59999847412109375</ele>
        <time>2018-06-24T09:04:15.000Z</time>
      </trkpt>
      <trkpt lat="32.77092942036688327789306640625" lon="-16.838767714798450469970703125">
        <ele>121.8000030517578125</ele>
        <time>2018-06-24T09:04:19.000Z</time>
      </trkpt>
      <trkpt lat="32.7709606848657131195068359375" lon="-16.83883032761514186859130859375">
        <ele>122.8000030517578125</ele>
        <time>2018-06-24T09:04:23.000Z</time>
      </trkpt>
      <trkpt lat="32.771015502512454986572265625" lon="-16.83891481719911098480224609375">
        <ele>124</ele>
        <time>2018-06-24T09:04:28.000Z</time>
      </trkpt>
      <trkpt lat="32.77108934707939624786376953125" lon="-16.83901690877974033355712890625">
        <ele>125</ele>
        <time>2018-06-24T09:04:34.000Z</time>
      </trkpt>
      <trkpt lat="32.77113611809909343719482421875" lon="-16.83911799453198909759521484375">
        <ele>126.1999969482421875</ele>
        <time>2018-06-24T09:04:40.000Z</time>
      </trkpt>
      <trkpt lat="32.77115120552480220794677734375" lon="-16.83917515911161899566650390625">
        <ele>127.40000152587890625</ele>
        <time>2018-06-24T09:04:44.000Z</time>
      </trkpt>
      <trkpt lat="32.77117316611111164093017578125" lon="-16.83922863565385341644287109375">
        <ele>128.399993896484375</ele>
        <time>2018-06-24T09:04:48.000Z</time>
      </trkpt>
      <trkpt lat="32.7711950428783893585205078125" lon="-16.83931614272296428680419921875">
        <ele>129.399993896484375</ele>
        <time>2018-06-24T09:04:53.000Z</time>
      </trkpt>
      <trkpt lat="32.771225385367870330810546875" lon="-16.8393871374428272247314453125">
        <ele>130.600006103515625</ele>
        <time>2018-06-24T09:04:57.000Z</time>
      </trkpt>
      <trkpt lat="32.77125262655317783355712890625" lon="-16.83944153599441051483154296875">
        <ele>131.8000030517578125</ele>
        <time>2018-06-24T09:05:01.000Z</time>
      </trkpt>
      <trkpt lat="32.7712523750960826873779296875" lon="-16.83950004167854785919189453125">
        <ele>133</ele>
        <time>2018-06-24T09:05:05.000Z</time>
      </trkpt>
      <trkpt lat="32.77124173007905483245849609375" lon="-16.83955703862011432647705078125">
        <ele>134.1999969482421875</ele>
        <time>2018-06-24T09:05:09.000Z</time>
      </trkpt>
      <trkpt lat="32.77123737148940563201904296875" lon="-16.839607916772365570068359375">
        <ele>135.399993896484375</ele>
        <time>2018-06-24T09:05:13.000Z</time>
      </trkpt>
      <trkpt lat="32.77124256826937198638916015625" lon="-16.839662902057170867919921875">
        <ele>136.8000030517578125</ele>
        <time>2018-06-24T09:05:17.000Z</time>
      </trkpt>
      <trkpt lat="32.7712175063788890838623046875" lon="-16.8396981060504913330078125">
        <ele>137.8000030517578125</ele>
        <time>2018-06-24T09:05:20.000Z</time>
      </trkpt>
      <trkpt lat="32.771176435053348541259765625" lon="-16.8397383391857147216796875">
        <ele>139</ele>
        <time>2018-06-24T09:05:24.000Z</time>
      </trkpt>
      <trkpt lat="32.7711440809071063995361328125" lon="-16.83977521955966949462890625">
        <ele>140.1999969482421875</ele>
        <time>2018-06-24T09:05:28.000Z</time>
      </trkpt>
      <trkpt lat="32.7711343578994274139404296875" lon="-16.83981603942811489105224609375">
        <ele>141.399993896484375</ele>
        <time>2018-06-24T09:05:32.000Z</time>
      </trkpt>
      <trkpt lat="32.771146595478057861328125" lon="-16.839843951165676116943359375">
        <ele>141.8000030517578125</ele>
        <time>2018-06-24T09:05:34.000Z</time>
      </trkpt>
      <trkpt lat="32.77116880752146244049072265625" lon="-16.83986163698136806488037109375">
        <ele>142.399993896484375</ele>
        <time>2018-06-24T09:05:36.000Z</time>
      </trkpt>
      <trkpt lat="32.7711782790720462799072265625" lon="-16.8398612178862094879150390625">
        <ele>142.600006103515625</ele>
        <time>2018-06-24T09:05:37.000Z</time>
      </trkpt>
      <trkpt lat="32.7712335996329784393310546875" lon="-16.8398253433406352996826171875">
        <ele>143.8000030517578125</ele>
        <time>2018-06-24T09:05:42.000Z</time>
      </trkpt>
      <trkpt lat="32.77129621244966983795166015625" lon="-16.83980061672627925872802734375">
        <ele>145</ele>
        <time>2018-06-24T09:05:47.000Z</time>
      </trkpt>
      <trkpt lat="32.77137751691043376922607421875" lon="-16.83977253735065460205078125">
        <ele>146.1999969482421875</ele>
        <time>2018-06-24T09:05:52.000Z</time>
      </trkpt>
      <trkpt lat="32.77147944085299968719482421875" lon="-16.8397297896444797515869140625">
        <ele>147.1999969482421875</ele>
        <time>2018-06-24T09:05:58.000Z</time>
      </trkpt>
      <trkpt lat="32.7716292254626750946044921875" lon="-16.83967606164515018463134765625">
        <ele>148.399993896484375</ele>
        <time>2018-06-24T09:06:06.000Z</time>
      </trkpt>
      <trkpt lat="32.771728970110416412353515625" lon="-16.839644797146320343017578125">
        <ele>149.600006103515625</ele>
        <time>2018-06-24T09:06:11.000Z</time>
      </trkpt>
      <trkpt lat="32.7717888168990612030029296875" lon="-16.83961353264749050140380859375">
        <ele>150.1999969482421875</ele>
        <time>2018-06-24T09:06:15.000Z</time>
      </trkpt>
      <trkpt lat="32.7718005515635013580322265625" lon="-16.83961353264749050140380859375">
        <ele>150.600006103515625</ele>
        <time>2018-06-24T09:06:16.000Z</time>
      </trkpt>
      <trkpt lat="32.77183634229004383087158203125" lon="-16.83961319737136363983154296875">
        <ele>152</ele>
        <time>2018-06-24T09:06:19.000Z</time>
      </trkpt>
      <trkpt lat="32.7718451432883739471435546875" lon="-16.83961152099072933197021484375">
        <ele>152.1999969482421875</ele>
        <time>2018-06-24T09:06:20.000Z</time>
      </trkpt>
      <trkpt lat="32.7718669362366199493408203125" lon="-16.83959458954632282257080078125">
        <ele>153.399993896484375</ele>
        <time>2018-06-24T09:06:24.000Z</time>
      </trkpt>
      <trkpt lat="32.77189283631742000579833984375" lon="-16.8395671807229518890380859375">
        <ele>154.8000030517578125</ele>
        <time>2018-06-24T09:06:28.000Z</time>
      </trkpt>
      <trkpt lat="32.771910689771175384521484375" lon="-16.839556284248828887939453125">
        <ele>156.1999969482421875</ele>
        <time>2018-06-24T09:06:31.000Z</time>
      </trkpt>
      <trkpt lat="32.7719292975962162017822265625" lon="-16.839538179337978363037109375">
        <ele>157.600006103515625</ele>
        <time>2018-06-24T09:06:34.000Z</time>
      </trkpt>
      <trkpt lat="32.77195385657250881195068359375" lon="-16.83951093815267086029052734375">
        <ele>159</ele>
        <time>2018-06-24T09:06:37.000Z</time>
      </trkpt>
      <trkpt lat="32.771972380578517913818359375" lon="-16.839499287307262420654296875">
        <ele>160</ele>
        <time>2018-06-24T09:06:39.000Z</time>
      </trkpt>
      <trkpt lat="32.7719874680042266845703125" lon="-16.839492581784725189208984375">
        <ele>160.399993896484375</ele>
        <time>2018-06-24T09:06:40.000Z</time>
      </trkpt>
      <trkpt lat="32.77202426455914974212646484375" lon="-16.83948679827153682708740234375">
        <ele>161.8000030517578125</ele>
        <time>2018-06-24T09:06:43.000Z</time>
      </trkpt>
      <trkpt lat="32.77205594815313816070556640625" lon="-16.839474476873874664306640625">
        <ele>163.1999969482421875</ele>
        <time>2018-06-24T09:06:46.000Z</time>
      </trkpt>
      <trkpt lat="32.772096432745456695556640625" lon="-16.839490570127964019775390625">
        <ele>164.399993896484375</ele>
        <time>2018-06-24T09:06:50.000Z</time>
      </trkpt>
      <trkpt lat="32.77213633060455322265625" lon="-16.83952669613063335418701171875">
        <ele>165.600006103515625</ele>
        <time>2018-06-24T09:06:54.000Z</time>
      </trkpt>
      <trkpt lat="32.77216658927500247955322265625" lon="-16.83955670334398746490478515625">
        <ele>166.8000030517578125</ele>
        <time>2018-06-24T09:06:57.000Z</time>
      </trkpt>
      <trkpt lat="32.7721985243260860443115234375" lon="-16.83958821929991245269775390625">
        <ele>168</ele>
        <time>2018-06-24T09:07:01.000Z</time>
      </trkpt>
      <trkpt lat="32.772213779389858245849609375" lon="-16.8396134488284587860107421875">
        <ele>169.1999969482421875</ele>
        <time>2018-06-24T09:07:04.000Z</time>
      </trkpt>
      <trkpt lat="32.7722256816923618316650390625" lon="-16.83963348157703876495361328125">
        <ele>170.1999969482421875</ele>
        <time>2018-06-24T09:07:07.000Z</time>
      </trkpt>
      <trkpt lat="32.77225074358284473419189453125" lon="-16.83967321179807186126708984375">
        <ele>171.399993896484375</ele>
        <time>2018-06-24T09:07:11.000Z</time>
      </trkpt>
      <trkpt lat="32.7722702734172344207763671875" lon="-16.83969517238438129425048828125">
        <ele>172.600006103515625</ele>
        <time>2018-06-24T09:07:14.000Z</time>
      </trkpt>
      <trkpt lat="32.7722823433578014373779296875" lon="-16.83971579186618328094482421875">
        <ele>173.8000030517578125</ele>
        <time>2018-06-24T09:07:17.000Z</time>
      </trkpt>
      <trkpt lat="32.77230002917349338531494140625" lon="-16.83973624370992183685302734375">
        <ele>175</ele>
        <time>2018-06-24T09:07:20.000Z</time>
      </trkpt>
      <trkpt lat="32.7723133563995361328125" lon="-16.839760132133960723876953125">
        <ele>176.399993896484375</ele>
        <time>2018-06-24T09:07:23.000Z</time>
      </trkpt>
      <trkpt lat="32.772323749959468841552734375" lon="-16.8397904746234416961669921875">
        <ele>177.8000030517578125</ele>
        <time>2018-06-24T09:07:26.000Z</time>
      </trkpt>
      <trkpt lat="32.77233338914811611175537109375" lon="-16.839822828769683837890625">
        <ele>179.1999969482421875</ele>
        <time>2018-06-24T09:07:29.000Z</time>
      </trkpt>
      <trkpt lat="32.772337831556797027587890625" lon="-16.8398333899676799774169921875">
        <ele>179.8000030517578125</ele>
        <time>2018-06-24T09:07:31.000Z</time>
      </trkpt>
      <trkpt lat="32.77233506552875041961669921875" lon="-16.83985040523111820220947265625">
        <ele>180.1999969482421875</ele>
        <time>2018-06-24T09:07:35.000Z</time>
      </trkpt>
      <trkpt lat="32.77236825786530971527099609375" lon="-16.83993883430957794189453125">
        <ele>181.600006103515625</ele>
        <time>2018-06-24T09:07:43.000Z</time>
      </trkpt>
      <trkpt lat="32.77237647213041782379150390625" lon="-16.83996423147618770599365234375">
        <ele>183</ele>
        <time>2018-06-24T09:07:46.000Z</time>
      </trkpt>
      <trkpt lat="32.77238468639552593231201171875" lon="-16.8399904668331146240234375">
        <ele>184.399993896484375</ele>
        <time>2018-06-24T09:07:49.000Z</time>
      </trkpt>
      <trkpt lat="32.77239524759352207183837890625" lon="-16.8400107510387897491455078125">
        <ele>185.600006103515625</ele>
        <time>2018-06-24T09:07:52.000Z</time>
      </trkpt>
      <trkpt lat="32.77239910326898097991943359375" lon="-16.8400442786514759063720703125">
        <ele>187</ele>
        <time>2018-06-24T09:07:56.000Z</time>
      </trkpt>
      <trkpt lat="32.7724110893905162811279296875" lon="-16.8400667421519756317138671875">
        <ele>188.1999969482421875</ele>
        <time>2018-06-24T09:07:59.000Z</time>
      </trkpt>
      <trkpt lat="32.77243279851973056793212890625" lon="-16.8401016108691692352294921875">
        <ele>189.600006103515625</ele>
        <time>2018-06-24T09:08:03.000Z</time>
      </trkpt>
      <trkpt lat="32.77244201861321926116943359375" lon="-16.84011317789554595947265625">
        <ele>190.1999969482421875</ele>
        <time>2018-06-24T09:08:05.000Z</time>
      </trkpt>
      <trkpt lat="32.772443778812885284423828125" lon="-16.84011946432292461395263671875">
        <ele>190.600006103515625</ele>
        <time>2018-06-24T09:08:06.000Z</time>
      </trkpt>
      <trkpt lat="32.77244972996413707733154296875" lon="-16.84014880098402500152587890625">
        <ele>192</ele>
        <time>2018-06-24T09:08:10.000Z</time>
      </trkpt>
      <trkpt lat="32.77246154844760894775390625" lon="-16.8401703424751758575439453125">
        <ele>193</ele>
        <time>2018-06-24T09:08:13.000Z</time>
      </trkpt>
      <trkpt lat="32.77248007245361804962158203125" lon="-16.8401901237666606903076171875">
        <ele>194.1999969482421875</ele>
        <time>2018-06-24T09:08:16.000Z</time>
      </trkpt>
      <trkpt lat="32.77250035665929317474365234375" lon="-16.84021049179136753082275390625">
        <ele>195.1999969482421875</ele>
        <time>2018-06-24T09:08:19.000Z</time>
      </trkpt>
      <trkpt lat="32.7725284360349178314208984375" lon="-16.84023262001574039459228515625">
        <ele>196.600006103515625</ele>
        <time>2018-06-24T09:08:23.000Z</time>
      </trkpt>
      <trkpt lat="32.77253639884293079376220703125" lon="-16.8402551673352718353271484375">
        <ele>197.600006103515625</ele>
        <time>2018-06-24T09:08:26.000Z</time>
      </trkpt>
      <trkpt lat="32.772541679441928863525390625" lon="-16.84029280208051204681396484375">
        <ele>198.8000030517578125</ele>
        <time>2018-06-24T09:08:30.000Z</time>
      </trkpt>
      <trkpt lat="32.7725633047521114349365234375" lon="-16.840324737131595611572265625">
        <ele>199.8000030517578125</ele>
        <time>2018-06-24T09:08:34.000Z</time>
      </trkpt>
      <trkpt lat="32.77257042936980724334716796875" lon="-16.8403257429599761962890625">
        <ele>200</ele>
        <time>2018-06-24T09:08:35.000Z</time>
      </trkpt>
      <trkpt lat="32.77260630391538143157958984375" lon="-16.840330101549625396728515625">
        <ele>201</ele>
        <time>2018-06-24T09:08:39.000Z</time>
      </trkpt>
      <trkpt lat="32.77262876741588115692138671875" lon="-16.84032901190221309661865234375">
        <ele>201.8000030517578125</ele>
        <time>2018-06-24T09:08:41.000Z</time>
      </trkpt>
      <trkpt lat="32.77263999916613101959228515625" lon="-16.840329430997371673583984375">
        <ele>202.1999969482421875</ele>
        <time>2018-06-24T09:08:42.000Z</time>
      </trkpt>
      <trkpt lat="32.77265693061053752899169921875" lon="-16.8403306044638156890869140625">
        <ele>202.8000030517578125</ele>
        <time>2018-06-24T09:08:44.000Z</time>
      </trkpt>
      <trkpt lat="32.77266413904726505279541015625" lon="-16.84032985009253025054931640625">
        <ele>203.399993896484375</ele>
        <time>2018-06-24T09:08:45.000Z</time>
      </trkpt>
      <trkpt lat="32.77267067693173885345458984375" lon="-16.84032968245446681976318359375">
        <ele>203.600006103515625</ele>
        <time>2018-06-24T09:08:46.000Z</time>
      </trkpt>
      <trkpt lat="32.7726880274713039398193359375" lon="-16.84032507240772247314453125">
        <ele>204.399993896484375</ele>
        <time>2018-06-24T09:08:48.000Z</time>
      </trkpt>
      <trkpt lat="32.77272046543657779693603515625" lon="-16.84031157754361629486083984375">
        <ele>205.8000030517578125</ele>
        <time>2018-06-24T09:08:52.000Z</time>
      </trkpt>
      <trkpt lat="32.7727384865283966064453125" lon="-16.84029984287917613983154296875">
        <ele>207</ele>
        <time>2018-06-24T09:08:56.000Z</time>
      </trkpt>
      <trkpt lat="32.7727507241070270538330078125" lon="-16.84029690921306610107421875">
        <ele>208.1999969482421875</ele>
        <time>2018-06-24T09:08:59.000Z</time>
      </trkpt>
      <trkpt lat="32.772772349417209625244140625" lon="-16.84029447846114635467529296875">
        <ele>209.1999969482421875</ele>
        <time>2018-06-24T09:09:02.000Z</time>
      </trkpt>
      <trkpt lat="32.77279539965093135833740234375" lon="-16.8402937240898609161376953125">
        <ele>210.399993896484375</ele>
        <time>2018-06-24T09:09:05.000Z</time>
      </trkpt>
      <trkpt lat="32.7728140912950038909912109375" lon="-16.8402927182614803314208984375">
        <ele>211.600006103515625</ele>
        <time>2018-06-24T09:09:08.000Z</time>
      </trkpt>
      <trkpt lat="32.77283999137580394744873046875" lon="-16.8402913771569728851318359375">
        <ele>212.8000030517578125</ele>
        <time>2018-06-24T09:09:12.000Z</time>
      </trkpt>
      <trkpt lat="32.77286346070468425750732421875" lon="-16.84028626419603824615478515625">
        <ele>214.1999969482421875</ele>
        <time>2018-06-24T09:09:16.000Z</time>
      </trkpt>
      <trkpt lat="32.772879302501678466796875" lon="-16.840281151235103607177734375">
        <ele>215.399993896484375</ele>
        <time>2018-06-24T09:09:19.000Z</time>
      </trkpt>
      <trkpt lat="32.7729036100208759307861328125" lon="-16.84029020369052886962890625">
        <ele>216.600006103515625</ele>
        <time>2018-06-24T09:09:22.000Z</time>
      </trkpt>
      <trkpt lat="32.7729260735213756561279296875" lon="-16.8402980826795101165771484375">
        <ele>217.600006103515625</ele>
        <time>2018-06-24T09:09:25.000Z</time>
      </trkpt>
      <trkpt lat="32.77294895611703395843505859375" lon="-16.8402957357466220855712890625">
        <ele>219</ele>
        <time>2018-06-24T09:09:29.000Z</time>
      </trkpt>
      <trkpt lat="32.77296890504658222198486328125" lon="-16.8402964062988758087158203125">
        <ele>220</ele>
        <time>2018-06-24T09:09:32.000Z</time>
      </trkpt>
      <trkpt lat="32.77299807406961917877197265625" lon="-16.8402967415750026702880859375">
        <ele>221</ele>
        <time>2018-06-24T09:09:35.000Z</time>
      </trkpt>
      <trkpt lat="32.773008383810520172119140625" lon="-16.840295232832431793212890625">
        <ele>221.399993896484375</ele>
        <time>2018-06-24T09:09:36.000Z</time>
      </trkpt>
      <trkpt lat="32.7730678953230381011962890625" lon="-16.8402588553726673126220703125">
        <ele>222</ele>
        <time>2018-06-24T09:09:42.000Z</time>
      </trkpt>
      <trkpt lat="32.77307585813105106353759765625" lon="-16.84025877155363559722900390625">
        <ele>222</ele>
        <time>2018-06-24T09:09:43.000Z</time>
      </trkpt>
      <trkpt lat="32.77307334356009960174560546875" lon="-16.84027100913226604461669921875">
        <ele>223.1999969482421875</ele>
        <time>2018-06-24T09:09:48.000Z</time>
      </trkpt>
      <trkpt lat="32.773076109588146209716796875" lon="-16.84031836688518524169921875">
        <ele>224.399993896484375</ele>
        <time>2018-06-24T09:09:54.000Z</time>
      </trkpt>
      <trkpt lat="32.77313704602420330047607421875" lon="-16.84034862555563449859619140625">
        <ele>225.600006103515625</ele>
        <time>2018-06-24T09:10:18.000Z</time>
      </trkpt>
      <trkpt lat="32.7732145786285400390625" lon="-16.8403684906661510467529296875">
        <ele>226.8000030517578125</ele>
        <time>2018-06-24T09:10:23.000Z</time>
      </trkpt>
      <trkpt lat="32.77326277457177639007568359375" lon="-16.84038248844444751739501953125">
        <ele>227.1999969482421875</ele>
        <time>2018-06-24T09:10:26.000Z</time>
      </trkpt>
      <trkpt lat="32.77335111983120441436767578125" lon="-16.8405696563422679901123046875">
        <ele>227.399993896484375</ele>
        <time>2018-06-24T09:10:34.000Z</time>
      </trkpt>
      <trkpt lat="32.773479111492633819580078125" lon="-16.84074793942272663116455078125">
        <ele>227.8000030517578125</ele>
        <time>2018-06-24T09:10:42.000Z</time>
      </trkpt>
      <trkpt lat="32.77352982200682163238525390625" lon="-16.84084449894726276397705078125">
        <ele>227.8000030517578125</ele>
        <time>2018-06-24T09:10:46.000Z</time>
      </trkpt>
      <trkpt lat="32.77359838597476482391357421875" lon="-16.8409703113138675689697265625">
        <ele>228.1999969482421875</ele>
        <time>2018-06-24T09:10:53.000Z</time>
      </trkpt>
      <trkpt lat="32.77346477843821048736572265625" lon="-16.84111624024808406829833984375">
        <ele>228.600006103515625</ele>
        <time>2018-06-24T09:11:00.000Z</time>
      </trkpt>
      <trkpt lat="32.7734534628689289093017578125" lon="-16.841240711510181427001953125">
        <ele>229</ele>
        <time>2018-06-24T09:11:04.000Z</time>
      </trkpt>
      <trkpt lat="32.7734836377203464508056640625" lon="-16.84137490577995777130126953125">
        <ele>230</ele>
        <time>2018-06-24T09:11:09.000Z</time>
      </trkpt>
      <trkpt lat="32.77347902767360210418701171875" lon="-16.84156936593353748321533203125">
        <ele>231.1999969482421875</ele>
        <time>2018-06-24T09:11:16.000Z</time>
      </trkpt>
      <trkpt lat="32.77355463244020938873291015625" lon="-16.84176466427743434906005859375">
        <ele>231.600006103515625</ele>
        <time>2018-06-24T09:11:23.000Z</time>
      </trkpt>
      <trkpt lat="32.77359067462384700775146484375" lon="-16.84184261597692966461181640625">
        <ele>231.8000030517578125</ele>
        <time>2018-06-24T09:11:26.000Z</time>
      </trkpt>
      <trkpt lat="32.77369963936507701873779296875" lon="-16.8419932387769222259521484375">
        <ele>231.600006103515625</ele>
        <time>2018-06-24T09:11:34.000Z</time>
      </trkpt>
      <trkpt lat="32.77367801405489444732666015625" lon="-16.842030622065067291259765625">
        <ele>231.8000030517578125</ele>
        <time>2018-06-24T09:11:36.000Z</time>
      </trkpt>
      <trkpt lat="32.77364213950932025909423828125" lon="-16.84209206141531467437744140625">
        <ele>232.1999969482421875</ele>
        <time>2018-06-24T09:11:39.000Z</time>
      </trkpt>
      <trkpt lat="32.77355764992535114288330078125" lon="-16.84231401421129703521728515625">
        <ele>232.399993896484375</ele>
        <time>2018-06-24T09:11:47.000Z</time>
      </trkpt>
      <trkpt lat="32.773380540311336517333984375" lon="-16.842402108013629913330078125">
        <ele>232.600006103515625</ele>
        <time>2018-06-24T09:11:54.000Z</time>
      </trkpt>
      <trkpt lat="32.773284651339054107666015625" lon="-16.84259849600493907928466796875">
        <ele>233.1999969482421875</ele>
        <time>2018-06-24T09:12:02.000Z</time>
      </trkpt>
      <trkpt lat="32.77332697995007038116455078125" lon="-16.8428242206573486328125">
        <ele>233.399993896484375</ele>
        <time>2018-06-24T09:12:09.000Z</time>
      </trkpt>
      <trkpt lat="32.77326294220983982086181640625" lon="-16.84303636662662029266357421875">
        <ele>233.600006103515625</ele>
        <time>2018-06-24T09:12:17.000Z</time>
      </trkpt>
      <trkpt lat="32.77308977209031581878662109375" lon="-16.8431650288403034210205078125">
        <ele>233.600006103515625</ele>
        <time>2018-06-24T09:12:24.000Z</time>
      </trkpt>
      <trkpt lat="32.7729059569537639617919921875" lon="-16.8432220257818698883056640625">
        <ele>233.600006103515625</ele>
        <time>2018-06-24T09:12:31.000Z</time>
      </trkpt>
      <trkpt lat="32.7727966569364070892333984375" lon="-16.8434040807187557220458984375">
        <ele>233.600006103515625</ele>
        <time>2018-06-24T09:12:38.000Z</time>
      </trkpt>
      <trkpt lat="32.77271325699985027313232421875" lon="-16.84357046149671077728271484375">
        <ele>234.600006103515625</ele>
        <time>2018-06-24T09:12:46.000Z</time>
      </trkpt>
      <trkpt lat="32.77271593920886516571044921875" lon="-16.84357482008635997772216796875">
        <ele>235</ele>
        <time>2018-06-24T09:12:47.000Z</time>
      </trkpt>
      <trkpt lat="32.77271677739918231964111328125" lon="-16.8435874767601490020751953125">
        <ele>235.8000030517578125</ele>
        <time>2018-06-24T09:12:49.000Z</time>
      </trkpt>
      <trkpt lat="32.7727223932743072509765625" lon="-16.8436059169471263885498046875">
        <ele>237.1999969482421875</ele>
        <time>2018-06-24T09:12:52.000Z</time>
      </trkpt>
      <trkpt lat="32.77273203246295452117919921875" lon="-16.843626201152801513671875">
        <ele>238.600006103515625</ele>
        <time>2018-06-24T09:12:55.000Z</time>
      </trkpt>
      <trkpt lat="32.772746868431568145751953125" lon="-16.8436448089778423309326171875">
        <ele>239.600006103515625</ele>
        <time>2018-06-24T09:12:57.000Z</time>
      </trkpt>
      <trkpt lat="32.77276329696178436279296875" lon="-16.84367355890572071075439453125">
        <ele>241</ele>
        <time>2018-06-24T09:13:00.000Z</time>
      </trkpt>
      <trkpt lat="32.77278752066195011138916015625" lon="-16.8436833657324314117431640625">
        <ele>242.1999969482421875</ele>
        <time>2018-06-24T09:13:03.000Z</time>
      </trkpt>
      <trkpt lat="32.772815264761447906494140625" lon="-16.84364832937717437744140625">
        <ele>243.1999969482421875</ele>
        <time>2018-06-24T09:13:06.000Z</time>
      </trkpt>
      <trkpt lat="32.772865556180477142333984375" lon="-16.8435744009912014007568359375">
        <ele>244.600006103515625</ele>
        <time>2018-06-24T09:13:11.000Z</time>
      </trkpt>
      <trkpt lat="32.7728918753564357757568359375" lon="-16.84353710152208805084228515625">
        <ele>245.600006103515625</ele>
        <time>2018-06-24T09:13:14.000Z</time>
      </trkpt>
      <trkpt lat="32.7729200385510921478271484375" lon="-16.84349946677684783935546875">
        <ele>246.8000030517578125</ele>
        <time>2018-06-24T09:13:17.000Z</time>
      </trkpt>
      <trkpt lat="32.772950716316699981689453125" lon="-16.8434701301157474517822265625">
        <ele>248</ele>
        <time>2018-06-24T09:13:20.000Z</time>
      </trkpt>
      <trkpt lat="32.773001678287982940673828125" lon="-16.8434577248990535736083984375">
        <ele>249.1999969482421875</ele>
        <time>2018-06-24T09:13:23.000Z</time>
      </trkpt>
      <trkpt lat="32.77318708598613739013671875" lon="-16.8433941900730133056640625">
        <ele>248.8000030517578125</ele>
        <time>2018-06-24T09:13:31.000Z</time>
      </trkpt>
      <trkpt lat="32.77326093055307865142822265625" lon="-16.84335202910006046295166015625">
        <ele>247.8000030517578125</ele>
        <time>2018-06-24T09:13:34.000Z</time>
      </trkpt>
      <trkpt lat="32.77334139682352542877197265625" lon="-16.84329151175916194915771484375">
        <ele>246.600006103515625</ele>
        <time>2018-06-24T09:13:37.000Z</time>
      </trkpt>
      <trkpt lat="32.77347533963620662689208984375" lon="-16.8431395478546619415283203125">
        <ele>247.1999969482421875</ele>
        <time>2018-06-24T09:13:44.000Z</time>
      </trkpt>
      <trkpt lat="32.7735104598104953765869140625" lon="-16.8430825509130954742431640625">
        <ele>247.8000030517578125</ele>
        <time>2018-06-24T09:13:47.000Z</time>
      </trkpt>
      <trkpt lat="32.77355253696441650390625" lon="-16.843015663325786590576171875">
        <ele>249.1999969482421875</ele>
        <time>2018-06-24T09:13:51.000Z</time>
      </trkpt>
      <trkpt lat="32.77357173152267932891845703125" lon="-16.84297635219991207122802734375">
        <ele>250.1999969482421875</ele>
        <time>2018-06-24T09:13:54.000Z</time>
      </trkpt>
      <trkpt lat="32.7735899202525615692138671875" lon="-16.84295824728906154632568359375">
        <ele>250.600006103515625</ele>
        <time>2018-06-24T09:13:56.000Z</time>
      </trkpt>
      <trkpt lat="32.773613221943378448486328125" lon="-16.8429507873952388763427734375">
        <ele>251.600006103515625</ele>
        <time>2018-06-24T09:13:58.000Z</time>
      </trkpt>
      <trkpt lat="32.77364683337509632110595703125" lon="-16.8429001607000827789306640625">
        <ele>253</ele>
        <time>2018-06-24T09:14:02.000Z</time>
      </trkpt>
      <trkpt lat="32.7736542932689189910888671875" lon="-16.8428512103855609893798828125">
        <ele>254.1999969482421875</ele>
        <time>2018-06-24T09:14:05.000Z</time>
      </trkpt>
      <trkpt lat="32.7736576460301876068115234375" lon="-16.84281944297254085540771484375">
        <ele>254.8000030517578125</ele>
        <time>2018-06-24T09:14:07.000Z</time>
      </trkpt>
      <trkpt lat="32.77365873567759990692138671875" lon="-16.84280502609908580780029296875">
        <ele>255.1999969482421875</ele>
        <time>2018-06-24T09:14:08.000Z</time>
      </trkpt>
      <trkpt lat="32.77366544120013713836669921875" lon="-16.84275859035551548004150390625">
        <ele>256.399993896484375</ele>
        <time>2018-06-24T09:14:11.000Z</time>
      </trkpt>
      <trkpt lat="32.77367466129362583160400390625" lon="-16.84271064586937427520751953125">
        <ele>257.600006103515625</ele>
        <time>2018-06-24T09:14:14.000Z</time>
      </trkpt>
      <trkpt lat="32.77368203736841678619384765625" lon="-16.84269840829074382781982421875">
        <ele>257.79998779296875</ele>
        <time>2018-06-24T09:14:15.000Z</time>
      </trkpt>
      <trkpt lat="32.77370919473469257354736328125" lon="-16.84267024509608745574951171875">
        <ele>259</ele>
        <time>2018-06-24T09:14:18.000Z</time>
      </trkpt>
      <trkpt lat="32.77371958829462528228759765625" lon="-16.84266521595418453216552734375">
        <ele>259.20001220703125</ele>
        <time>2018-06-24T09:14:19.000Z</time>
      </trkpt>
      <trkpt lat="32.7737485058605670928955078125" lon="-16.842655241489410400390625">
        <ele>260.20001220703125</ele>
        <time>2018-06-24T09:14:22.000Z</time>
      </trkpt>
      <trkpt lat="32.77378211729228496551513671875" lon="-16.84263822622597217559814453125">
        <ele>261</ele>
        <time>2018-06-24T09:14:25.000Z</time>
      </trkpt>
      <trkpt lat="32.773792929947376251220703125" lon="-16.84263118542730808258056640625">
        <ele>261.20001220703125</ele>
        <time>2018-06-24T09:14:26.000Z</time>
      </trkpt>
      <trkpt lat="32.77383081614971160888671875" lon="-16.84260436333715915679931640625">
        <ele>262.399993896484375</ele>
        <time>2018-06-24T09:14:30.000Z</time>
      </trkpt>
      <trkpt lat="32.7738527767360210418701171875" lon="-16.84259145520627498626708984375">
        <ele>263.399993896484375</ele>
        <time>2018-06-24T09:14:33.000Z</time>
      </trkpt>
      <trkpt lat="32.7738569676876068115234375" lon="-16.84258391149342060089111328125">
        <ele>264</ele>
        <time>2018-06-24T09:14:34.000Z</time>
      </trkpt>
      <trkpt lat="32.773861326277256011962890625" lon="-16.842567734420299530029296875">
        <ele>264.600006103515625</ele>
        <time>2018-06-24T09:14:36.000Z</time>
      </trkpt>
      <trkpt lat="32.773874737322330474853515625" lon="-16.84255264699459075927734375">
        <ele>265.600006103515625</ele>
        <time>2018-06-24T09:14:39.000Z</time>
      </trkpt>
      <trkpt lat="32.7739121206104755401611328125" lon="-16.84254636056721210479736328125">
        <ele>266.79998779296875</ele>
        <time>2018-06-24T09:14:43.000Z</time>
      </trkpt>
      <trkpt lat="32.77392628602683544158935546875" lon="-16.8425370566546916961669921875">
        <ele>267.79998779296875</ele>
        <time>2018-06-24T09:14:46.000Z</time>
      </trkpt>
      <trkpt lat="32.77393408119678497314453125" lon="-16.84252641163766384124755859375">
        <ele>268.79998779296875</ele>
        <time>2018-06-24T09:14:49.000Z</time>
      </trkpt>
      <trkpt lat="32.773929722607135772705078125" lon="-16.8424944765865802764892578125">
        <ele>269.79998779296875</ele>
        <time>2018-06-24T09:14:53.000Z</time>
      </trkpt>
      <trkpt lat="32.77393810451030731201171875" lon="-16.842463128268718719482421875">
        <ele>270.600006103515625</ele>
        <time>2018-06-24T09:14:56.000Z</time>
      </trkpt>
      <trkpt lat="32.773939110338687896728515625" lon="-16.84245407581329345703125">
        <ele>271</ele>
        <time>2018-06-24T09:14:57.000Z</time>
      </trkpt>
      <trkpt lat="32.77396450750529766082763671875" lon="-16.8424264155328273773193359375">
        <ele>272.20001220703125</ele>
        <time>2018-06-24T09:15:01.000Z</time>
      </trkpt>
      <trkpt lat="32.77399652637541294097900390625" lon="-16.84240470640361309051513671875">
        <ele>273.399993896484375</ele>
        <time>2018-06-24T09:15:05.000Z</time>
      </trkpt>
      <trkpt lat="32.7740311436355113983154296875" lon="-16.842394731938838958740234375">
        <ele>274</ele>
        <time>2018-06-24T09:15:08.000Z</time>
      </trkpt>
      <trkpt lat="32.77404447086155414581298828125" lon="-16.842394731938838958740234375">
        <ele>274.79998779296875</ele>
        <time>2018-06-24T09:15:10.000Z</time>
      </trkpt>
      <trkpt lat="32.77406760491430759429931640625" lon="-16.84238978661596775054931640625">
        <ele>275.79998779296875</ele>
        <time>2018-06-24T09:15:13.000Z</time>
      </trkpt>
      <trkpt lat="32.774125523865222930908203125" lon="-16.8423776328563690185546875">
        <ele>277</ele>
        <time>2018-06-24T09:15:17.000Z</time>
      </trkpt>
      <trkpt lat="32.77418646030128002166748046875" lon="-16.84237319044768810272216796875">
        <ele>278.20001220703125</ele>
        <time>2018-06-24T09:15:21.000Z</time>
      </trkpt>
      <trkpt lat="32.77423180639743804931640625" lon="-16.8423707596957683563232421875">
        <ele>279.20001220703125</ele>
        <time>2018-06-24T09:15:24.000Z</time>
      </trkpt>
      <trkpt lat="32.77427799068391323089599609375" lon="-16.8423737771809101104736328125">
        <ele>280.399993896484375</ele>
        <time>2018-06-24T09:15:27.000Z</time>
      </trkpt>
      <trkpt lat="32.77433934621512889862060546875" lon="-16.8423774652183055877685546875">
        <ele>281.600006103515625</ele>
        <time>2018-06-24T09:15:32.000Z</time>
      </trkpt>
      <trkpt lat="32.77436180971562862396240234375" lon="-16.8423841707408428192138671875">
        <ele>282.399993896484375</ele>
        <time>2018-06-24T09:15:35.000Z</time>
      </trkpt>
      <trkpt lat="32.774370945990085601806640625" lon="-16.84238458983600139617919921875">
        <ele>282.79998779296875</ele>
        <time>2018-06-24T09:15:36.000Z</time>
      </trkpt>
      <trkpt lat="32.77440003119409084320068359375" lon="-16.84238928370177745819091796875">
        <ele>283.79998779296875</ele>
        <time>2018-06-24T09:15:39.000Z</time>
      </trkpt>
      <trkpt lat="32.77440941892564296722412109375" lon="-16.84238978661596775054931640625">
        <ele>284.20001220703125</ele>
        <time>2018-06-24T09:15:40.000Z</time>
      </trkpt>
      <trkpt lat="32.774438001215457916259765625" lon="-16.84237235225737094879150390625">
        <ele>285.20001220703125</ele>
        <time>2018-06-24T09:15:44.000Z</time>
      </trkpt>
      <trkpt lat="32.7744462154805660247802734375" lon="-16.8423669040203094482421875">
        <ele>285.600006103515625</ele>
        <time>2018-06-24T09:15:45.000Z</time>
      </trkpt>
      <trkpt lat="32.774457447230815887451171875" lon="-16.84232591651380062103271484375">
        <ele>286.399993896484375</ele>
        <time>2018-06-24T09:15:49.000Z</time>
      </trkpt>
      <trkpt lat="32.7744626440107822418212890625" lon="-16.84225701726973056793212890625">
        <ele>287.600006103515625</ele>
        <time>2018-06-24T09:15:53.000Z</time>
      </trkpt>
      <trkpt lat="32.77453095652163028717041015625" lon="-16.84205568395555019378662109375">
        <ele>288.600006103515625</ele>
        <time>2018-06-24T09:16:03.000Z</time>
      </trkpt>
      <trkpt lat="32.7745944075286388397216796875" lon="-16.84195325709879398345947265625">
        <ele>289.600006103515625</ele>
        <time>2018-06-24T09:16:09.000Z</time>
      </trkpt>
      <trkpt lat="32.77462936006486415863037109375" lon="-16.84192023240029811859130859375">
        <ele>290.79998779296875</ele>
        <time>2018-06-24T09:16:12.000Z</time>
      </trkpt>
      <trkpt lat="32.7746711857616901397705078125" lon="-16.84189257211983203887939453125">
        <ele>292</ele>
        <time>2018-06-24T09:16:15.000Z</time>
      </trkpt>
      <trkpt lat="32.77478777803480625152587890625" lon="-16.84185795485973358154296875">
        <ele>292.79998779296875</ele>
        <time>2018-06-24T09:16:22.000Z</time>
      </trkpt>
      <trkpt lat="32.7748520672321319580078125" lon="-16.841876395046710968017578125">
        <ele>293.20001220703125</ele>
        <time>2018-06-24T09:16:26.000Z</time>
      </trkpt>
      <trkpt lat="32.7749028615653514862060546875" lon="-16.841879077255725860595703125">
        <ele>294.399993896484375</ele>
        <time>2018-06-24T09:16:30.000Z</time>
      </trkpt>
      <trkpt lat="32.774936221539974212646484375" lon="-16.84189173392951488494873046875">
        <ele>295.399993896484375</ele>
        <time>2018-06-24T09:16:33.000Z</time>
      </trkpt>
      <trkpt lat="32.77496673166751861572265625" lon="-16.84190179221332073211669921875">
        <ele>296.600006103515625</ele>
        <time>2018-06-24T09:16:36.000Z</time>
      </trkpt>
      <trkpt lat="32.77498274110257625579833984375" lon="-16.84190765954554080963134765625">
        <ele>297.20001220703125</ele>
        <time>2018-06-24T09:16:38.000Z</time>
      </trkpt>
      <trkpt lat="32.77499799616634845733642578125" lon="-16.8419288657605648040771484375">
        <ele>297.79998779296875</ele>
        <time>2018-06-24T09:16:40.000Z</time>
      </trkpt>
      <trkpt lat="32.77501392178237438201904296875" lon="-16.8419818393886089324951171875">
        <ele>299</ele>
        <time>2018-06-24T09:16:44.000Z</time>
      </trkpt>
      <trkpt lat="32.775022722780704498291015625" lon="-16.841982342302799224853515625">
        <ele>299.20001220703125</ele>
        <time>2018-06-24T09:16:45.000Z</time>
      </trkpt>
      <trkpt lat="32.775028087198734283447265625" lon="-16.8419779837131500244140625">
        <ele>300</ele>
        <time>2018-06-24T09:16:47.000Z</time>
      </trkpt>
      <trkpt lat="32.77503672055900096893310546875" lon="-16.8419322185218334197998046875">
        <ele>301.20001220703125</ele>
        <time>2018-06-24T09:16:51.000Z</time>
      </trkpt>
      <trkpt lat="32.77505457401275634765625" lon="-16.84190581552684307098388671875">
        <ele>302</ele>
        <time>2018-06-24T09:16:54.000Z</time>
      </trkpt>
      <trkpt lat="32.7750594355165958404541015625" lon="-16.84189424850046634674072265625">
        <ele>302.20001220703125</ele>
        <time>2018-06-24T09:16:55.000Z</time>
      </trkpt>
      <trkpt lat="32.77506404556334018707275390625" lon="-16.8418836034834384918212890625">
        <ele>302.600006103515625</ele>
        <time>2018-06-24T09:16:56.000Z</time>
      </trkpt>
      <trkpt lat="32.77507963590323925018310546875" lon="-16.8418668396770954132080078125">
        <ele>303.399993896484375</ele>
        <time>2018-06-24T09:16:59.000Z</time>
      </trkpt>
      <trkpt lat="32.7751077152788639068603515625" lon="-16.8418546020984649658203125">
        <ele>304.600006103515625</ele>
        <time>2018-06-24T09:17:02.000Z</time>
      </trkpt>
      <trkpt lat="32.77512154541909694671630859375" lon="-16.8418465554714202880859375">
        <ele>304.79998779296875</ele>
        <time>2018-06-24T09:17:03.000Z</time>
      </trkpt>
      <trkpt lat="32.77515314519405364990234375" lon="-16.84180070646107196807861328125">
        <ele>305.79998779296875</ele>
        <time>2018-06-24T09:17:08.000Z</time>
      </trkpt>
      <trkpt lat="32.7751766145229339599609375" lon="-16.8417987786233425140380859375">
        <ele>307.20001220703125</ele>
        <time>2018-06-24T09:17:12.000Z</time>
      </trkpt>
      <trkpt lat="32.77521978132426738739013671875" lon="-16.84180472977459430694580078125">
        <ele>308</ele>
        <time>2018-06-24T09:17:15.000Z</time>
      </trkpt>
      <trkpt lat="32.77523319236934185028076171875" lon="-16.8418036401271820068359375">
        <ele>308.20001220703125</ele>
        <time>2018-06-24T09:17:16.000Z</time>
      </trkpt>
      <trkpt lat="32.77523973025381565093994140625" lon="-16.84176432900130748748779296875">
        <ele>309.399993896484375</ele>
        <time>2018-06-24T09:17:20.000Z</time>
      </trkpt>
      <trkpt lat="32.77523268945515155792236328125" lon="-16.84175611473619937896728515625">
        <ele>309.600006103515625</ele>
        <time>2018-06-24T09:17:21.000Z</time>
      </trkpt>
      <trkpt lat="32.7752210386097431182861328125" lon="-16.8417421169579029083251953125">
        <ele>310.399993896484375</ele>
        <time>2018-06-24T09:17:24.000Z</time>
      </trkpt>
      <trkpt lat="32.7752208709716796875" lon="-16.84172493405640125274658203125">
        <ele>311.600006103515625</ele>
        <time>2018-06-24T09:17:27.000Z</time>
      </trkpt>
      <trkpt lat="32.77523227035999298095703125" lon="-16.8417015485465526580810546875">
        <ele>312.600006103515625</ele>
        <time>2018-06-24T09:17:30.000Z</time>
      </trkpt>
      <trkpt lat="32.77523822151124477386474609375" lon="-16.84167866595089435577392578125">
        <ele>313.600006103515625</ele>
        <time>2018-06-24T09:17:33.000Z</time>
      </trkpt>
      <trkpt lat="32.77524542994797229766845703125" lon="-16.8416378460824489593505859375">
        <ele>315</ele>
        <time>2018-06-24T09:17:37.000Z</time>
      </trkpt>
      <trkpt lat="32.77525582350790500640869140625" lon="-16.84161362238228321075439453125">
        <ele>315.600006103515625</ele>
        <time>2018-06-24T09:17:39.000Z</time>
      </trkpt>
      <trkpt lat="32.77526319958269596099853515625" lon="-16.84159367345273494720458984375">
        <ele>316.20001220703125</ele>
        <time>2018-06-24T09:17:41.000Z</time>
      </trkpt>
      <trkpt lat="32.7752528898417949676513671875" lon="-16.84156668372452259063720703125">
        <ele>316.79998779296875</ele>
        <time>2018-06-24T09:17:43.000Z</time>
      </trkpt>
      <trkpt lat="32.775244005024433135986328125" lon="-16.8415496684610843658447265625">
        <ele>317.600006103515625</ele>
        <time>2018-06-24T09:17:45.000Z</time>
      </trkpt>
      <trkpt lat="32.77523537166416645050048828125" lon="-16.8415005505084991455078125">
        <ele>318.79998779296875</ele>
        <time>2018-06-24T09:17:49.000Z</time>
      </trkpt>
      <trkpt lat="32.77524157427251338958740234375" lon="-16.84144916944205760955810546875">
        <ele>320</ele>
        <time>2018-06-24T09:17:52.000Z</time>
      </trkpt>
      <trkpt lat="32.77526806108653545379638671875" lon="-16.84139016084372997283935546875">
        <ele>321.20001220703125</ele>
        <time>2018-06-24T09:17:57.000Z</time>
      </trkpt>
      <trkpt lat="32.77528700418770313262939453125" lon="-16.841352693736553192138671875">
        <ele>322.399993896484375</ele>
        <time>2018-06-24T09:18:01.000Z</time>
      </trkpt>
      <trkpt lat="32.7753078751266002655029296875" lon="-16.84131388552486896514892578125">
        <ele>323.600006103515625</ele>
        <time>2018-06-24T09:18:05.000Z</time>
      </trkpt>
      <trkpt lat="32.77532220818102359771728515625" lon="-16.84129536151885986328125">
        <ele>324.79998779296875</ele>
        <time>2018-06-24T09:18:08.000Z</time>
      </trkpt>
      <trkpt lat="32.77534215711057186126708984375" lon="-16.84126560576260089874267578125">
        <ele>326.20001220703125</ele>
        <time>2018-06-24T09:18:12.000Z</time>
      </trkpt>
      <trkpt lat="32.77536772191524505615234375" lon="-16.84125320054590702056884765625">
        <ele>327.20001220703125</ele>
        <time>2018-06-24T09:18:15.000Z</time>
      </trkpt>
      <trkpt lat="32.7753950469195842742919921875" lon="-16.84121632017195224761962890625">
        <ele>328.20001220703125</ele>
        <time>2018-06-24T09:18:19.000Z</time>
      </trkpt>
      <trkpt lat="32.7754101343452930450439453125" lon="-16.84116032905876636505126953125">
        <ele>329.399993896484375</ele>
        <time>2018-06-24T09:18:24.000Z</time>
      </trkpt>
      <trkpt lat="32.7754379622638225555419921875" lon="-16.8411386199295520782470703125">
        <ele>330.600006103515625</ele>
        <time>2018-06-24T09:18:28.000Z</time>
      </trkpt>
      <trkpt lat="32.7754698134958744049072265625" lon="-16.8411124683916568756103515625">
        <ele>331.79998779296875</ele>
        <time>2018-06-24T09:18:32.000Z</time>
      </trkpt>
      <trkpt lat="32.77550493367016315460205078125" lon="-16.8410873226821422576904296875">
        <ele>333.20001220703125</ele>
        <time>2018-06-24T09:18:36.000Z</time>
      </trkpt>
      <trkpt lat="32.77551247738301753997802734375" lon="-16.84104901738464832305908203125">
        <ele>334.399993896484375</ele>
        <time>2018-06-24T09:18:40.000Z</time>
      </trkpt>
      <trkpt lat="32.77550593949854373931884765625" lon="-16.8410249613225460052490234375">
        <ele>335.600006103515625</ele>
        <time>2018-06-24T09:18:43.000Z</time>
      </trkpt>
      <trkpt lat="32.775506861507892608642578125" lon="-16.84101515449583530426025390625">
        <ele>335.79998779296875</ele>
        <time>2018-06-24T09:18:44.000Z</time>
      </trkpt>
      <trkpt lat="32.77551256120204925537109375" lon="-16.841000653803348541259765625">
        <ele>336.600006103515625</ele>
        <time>2018-06-24T09:18:46.000Z</time>
      </trkpt>
      <trkpt lat="32.7755217812955379486083984375" lon="-16.84099688194692134857177734375">
        <ele>336.79998779296875</ele>
        <time>2018-06-24T09:18:47.000Z</time>
      </trkpt>
      <trkpt lat="32.775540389120578765869140625" lon="-16.84097274206578731536865234375">
        <ele>338</ele>
        <time>2018-06-24T09:18:51.000Z</time>
      </trkpt>
      <trkpt lat="32.77557601220905780792236328125" lon="-16.84095748700201511383056640625">
        <ele>339.20001220703125</ele>
        <time>2018-06-24T09:18:55.000Z</time>
      </trkpt>
      <trkpt lat="32.7755923569202423095703125" lon="-16.8409444950520992279052734375">
        <ele>340.20001220703125</ele>
        <time>2018-06-24T09:18:58.000Z</time>
      </trkpt>
      <trkpt lat="32.7756032533943653106689453125" lon="-16.8409401364624500274658203125">
        <ele>340.399993896484375</ele>
        <time>2018-06-24T09:18:59.000Z</time>
      </trkpt>
      <trkpt lat="32.77563150040805339813232421875" lon="-16.840927563607692718505859375">
        <ele>341.399993896484375</ele>
        <time>2018-06-24T09:19:03.000Z</time>
      </trkpt>
      <trkpt lat="32.77566142380237579345703125" lon="-16.8409099616110324859619140625">
        <ele>342.79998779296875</ele>
        <time>2018-06-24T09:19:07.000Z</time>
      </trkpt>
      <trkpt lat="32.77568279765546321868896484375" lon="-16.84089948423206806182861328125">
        <ele>343.79998779296875</ele>
        <time>2018-06-24T09:19:10.000Z</time>
      </trkpt>
      <trkpt lat="32.77567810378968715667724609375" lon="-16.8408717401325702667236328125">
        <ele>345</ele>
        <time>2018-06-24T09:19:14.000Z</time>
      </trkpt>
      <trkpt lat="32.77570157311856746673583984375" lon="-16.8408192694187164306640625">
        <ele>346.20001220703125</ele>
        <time>2018-06-24T09:19:19.000Z</time>
      </trkpt>
      <trkpt lat="32.7757038362324237823486328125" lon="-16.840804852545261383056640625">
        <ele>346.399993896484375</ele>
        <time>2018-06-24T09:19:20.000Z</time>
      </trkpt>
      <trkpt lat="32.7757157385349273681640625" lon="-16.84077962301671504974365234375">
        <ele>347.399993896484375</ele>
        <time>2018-06-24T09:19:23.000Z</time>
      </trkpt>
      <trkpt lat="32.77573090977966785430908203125" lon="-16.8407510407269001007080078125">
        <ele>348.600006103515625</ele>
        <time>2018-06-24T09:19:27.000Z</time>
      </trkpt>
      <trkpt lat="32.77573862113058567047119140625" lon="-16.84073570184409618377685546875">
        <ele>349.600006103515625</ele>
        <time>2018-06-24T09:19:30.000Z</time>
      </trkpt>
      <trkpt lat="32.77576426975429058074951171875" lon="-16.84070703573524951934814453125">
        <ele>350.600006103515625</ele>
        <time>2018-06-24T09:19:34.000Z</time>
      </trkpt>
      <trkpt lat="32.77577416040003299713134765625" lon="-16.84070167131721973419189453125">
        <ele>350.79998779296875</ele>
        <time>2018-06-24T09:19:35.000Z</time>
      </trkpt>
      <trkpt lat="32.77580349706113338470458984375" lon="-16.84069060720503330230712890625">
        <ele>351.600006103515625</ele>
        <time>2018-06-24T09:19:38.000Z</time>
      </trkpt>
      <trkpt lat="32.77581322006881237030029296875" lon="-16.84068691916763782501220703125">
        <ele>351.79998779296875</ele>
        <time>2018-06-24T09:19:39.000Z</time>
      </trkpt>
      <trkpt lat="32.77585781179368495941162109375" lon="-16.84066579677164554595947265625">
        <ele>353</ele>
        <time>2018-06-24T09:19:43.000Z</time>
      </trkpt>
      <trkpt lat="32.77589636854827404022216796875" lon="-16.8406424112617969512939453125">
        <ele>354.20001220703125</ele>
        <time>2018-06-24T09:19:47.000Z</time>
      </trkpt>
      <trkpt lat="32.7759019844233989715576171875" lon="-16.8406246416270732879638671875">
        <ele>355.20001220703125</ele>
        <time>2018-06-24T09:19:50.000Z</time>
      </trkpt>
      <trkpt lat="32.77590282261371612548828125" lon="-16.84060947038233280181884765625">
        <ele>356.600006103515625</ele>
        <time>2018-06-24T09:19:53.000Z</time>
      </trkpt>
      <trkpt lat="32.7759244479238986968994140625" lon="-16.84058348648250102996826171875">
        <ele>358</ele>
        <time>2018-06-24T09:19:58.000Z</time>
      </trkpt>
      <trkpt lat="32.77596342377364635467529296875" lon="-16.8405703268945217132568359375">
        <ele>359</ele>
        <time>2018-06-24T09:20:03.000Z</time>
      </trkpt>
      <trkpt lat="32.775996364653110504150390625" lon="-16.8405629508197307586669921875">
        <ele>360</ele>
        <time>2018-06-24T09:20:07.000Z</time>
      </trkpt>
      <trkpt lat="32.77600097469985485076904296875" lon="-16.84053470380604267120361328125">
        <ele>361.399993896484375</ele>
        <time>2018-06-24T09:20:12.000Z</time>
      </trkpt>
      <trkpt lat="32.77601287700235843658447265625" lon="-16.84052498079836368560791015625">
        <ele>362.79998779296875</ele>
        <time>2018-06-24T09:20:15.000Z</time>
      </trkpt>
      <trkpt lat="32.776033915579319000244140625" lon="-16.84052933938801288604736328125">
        <ele>363.79998779296875</ele>
        <time>2018-06-24T09:20:18.000Z</time>
      </trkpt>
      <trkpt lat="32.77605411596596240997314453125" lon="-16.84049061499536037445068359375">
        <ele>365.20001220703125</ele>
        <time>2018-06-24T09:20:24.000Z</time>
      </trkpt>
      <trkpt lat="32.77604120783507823944091796875" lon="-16.84047033078968524932861328125">
        <ele>366.399993896484375</ele>
        <time>2018-06-24T09:20:27.000Z</time>
      </trkpt>
      <trkpt lat="32.7760109491646289825439453125" lon="-16.84047183953225612640380859375">
        <ele>367.600006103515625</ele>
        <time>2018-06-24T09:20:31.000Z</time>
      </trkpt>
      <trkpt lat="32.77602595277130603790283203125" lon="-16.84045339934527873992919921875">
        <ele>368.600006103515625</ele>
        <time>2018-06-24T09:20:35.000Z</time>
      </trkpt>
      <trkpt lat="32.7760357595980167388916015625" lon="-16.8404251523315906524658203125">
        <ele>369.79998779296875</ele>
        <time>2018-06-24T09:20:39.000Z</time>
      </trkpt>
      <trkpt lat="32.77604405768215656280517578125" lon="-16.84041752479970455169677734375">
        <ele>370.79998779296875</ele>
        <time>2018-06-24T09:20:42.000Z</time>
      </trkpt>
      <trkpt lat="32.776073478162288665771484375" lon="-16.840393804013729095458984375">
        <ele>372</ele>
        <time>2018-06-24T09:20:46.000Z</time>
      </trkpt>
      <trkpt lat="32.77609786950051784515380859375" lon="-16.84040009044110774993896484375">
        <ele>373.399993896484375</ele>
        <time>2018-06-24T09:20:50.000Z</time>
      </trkpt>
      <trkpt lat="32.77612335048615932464599609375" lon="-16.84038768522441387176513671875">
        <ele>374.399993896484375</ele>
        <time>2018-06-24T09:20:54.000Z</time>
      </trkpt>
      <trkpt lat="32.77612335048615932464599609375" lon="-16.84035985730588436126708984375">
        <ele>375.399993896484375</ele>
        <time>2018-06-24T09:20:58.000Z</time>
      </trkpt>
      <trkpt lat="32.77611203491687774658203125" lon="-16.840334795415401458740234375">
        <ele>376.600006103515625</ele>
        <time>2018-06-24T09:21:01.000Z</time>
      </trkpt>
      <trkpt lat="32.77610524557530879974365234375" lon="-16.8403205461800098419189453125">
        <ele>377.20001220703125</ele>
        <time>2018-06-24T09:21:03.000Z</time>
      </trkpt>
      <trkpt lat="32.77610172517597675323486328125" lon="-16.84030738659203052520751953125">
        <ele>377.79998779296875</ele>
        <time>2018-06-24T09:21:05.000Z</time>
      </trkpt>
      <trkpt lat="32.776108682155609130859375" lon="-16.84028685092926025390625">
        <ele>378.79998779296875</ele>
        <time>2018-06-24T09:21:09.000Z</time>
      </trkpt>
      <trkpt lat="32.77612234465777873992919921875" lon="-16.84029263444244861602783203125">
        <ele>380</ele>
        <time>2018-06-24T09:21:13.000Z</time>
      </trkpt>
      <trkpt lat="32.77613407932221889495849609375" lon="-16.84029196389019489288330078125">
        <ele>381</ele>
        <time>2018-06-24T09:21:17.000Z</time>
      </trkpt>
      <trkpt lat="32.77616391889750957489013671875" lon="-16.840289868414402008056640625">
        <ele>382.20001220703125</ele>
        <time>2018-06-24T09:21:22.000Z</time>
      </trkpt>
      <trkpt lat="32.77615495026111602783203125" lon="-16.8402856774628162384033203125">
        <ele>383.399993896484375</ele>
        <time>2018-06-24T09:21:26.000Z</time>
      </trkpt>
      <trkpt lat="32.7761423774063587188720703125" lon="-16.8402640521526336669921875">
        <ele>384.399993896484375</ele>
        <time>2018-06-24T09:21:30.000Z</time>
      </trkpt>
      <trkpt lat="32.7761502563953399658203125" lon="-16.8402226455509662628173828125">
        <ele>385.20001220703125</ele>
        <time>2018-06-24T09:21:33.000Z</time>
      </trkpt>
      <trkpt lat="32.77616140432655811309814453125" lon="-16.8402058817446231842041015625">
        <ele>385.600006103515625</ele>
        <time>2018-06-24T09:21:35.000Z</time>
      </trkpt>
      <trkpt lat="32.776165343821048736572265625" lon="-16.8402031995356082916259765625">
        <ele>386</ele>
        <time>2018-06-24T09:21:36.000Z</time>
      </trkpt>
      <trkpt lat="32.77617665939033031463623046875" lon="-16.8401968292891979217529296875">
        <ele>386.79998779296875</ele>
        <time>2018-06-24T09:21:38.000Z</time>
      </trkpt>
      <trkpt lat="32.77619426138699054718017578125" lon="-16.8401948176324367523193359375">
        <ele>388</ele>
        <time>2018-06-24T09:21:41.000Z</time>
      </trkpt>
      <trkpt lat="32.77621261775493621826171875" lon="-16.84020043350756168365478515625">
        <ele>389.20001220703125</ele>
        <time>2018-06-24T09:21:45.000Z</time>
      </trkpt>
      <trkpt lat="32.77621395885944366455078125" lon="-16.84018517844378948211669921875">
        <ele>390.20001220703125</ele>
        <time>2018-06-24T09:21:48.000Z</time>
      </trkpt>
      <trkpt lat="32.77621219865977764129638671875" lon="-16.8401532433927059173583984375">
        <ele>391.399993896484375</ele>
        <time>2018-06-24T09:21:53.000Z</time>
      </trkpt>
      <trkpt lat="32.776223681867122650146484375" lon="-16.8401254154741764068603515625">
        <ele>392.600006103515625</ele>
        <time>2018-06-24T09:21:57.000Z</time>
      </trkpt>
      <trkpt lat="32.77623482979834079742431640625" lon="-16.84010487981140613555908203125">
        <ele>393.79998779296875</ele>
        <time>2018-06-24T09:22:01.000Z</time>
      </trkpt>
      <trkpt lat="32.776250503957271575927734375" lon="-16.840104125440120697021484375">
        <ele>395</ele>
        <time>2018-06-24T09:22:04.000Z</time>
      </trkpt>
      <trkpt lat="32.77626450173556804656982421875" lon="-16.84011594392359256744384765625">
        <ele>396</ele>
        <time>2018-06-24T09:22:08.000Z</time>
      </trkpt>
      <trkpt lat="32.77628839015960693359375" lon="-16.8401468731462955474853515625">
        <ele>397.20001220703125</ele>
        <time>2018-06-24T09:22:14.000Z</time>
      </trkpt>
      <trkpt lat="32.77628864161670207977294921875" lon="-16.84011586010456085205078125">
        <ele>398.600006103515625</ele>
        <time>2018-06-24T09:22:18.000Z</time>
      </trkpt>
      <trkpt lat="32.776312194764614105224609375" lon="-16.84009700082242488861083984375">
        <ele>399.600006103515625</ele>
        <time>2018-06-24T09:22:22.000Z</time>
      </trkpt>
      <trkpt lat="32.77634538710117340087890625" lon="-16.84009918011724948883056640625">
        <ele>400.79998779296875</ele>
        <time>2018-06-24T09:22:26.000Z</time>
      </trkpt>
      <trkpt lat="32.7763871289789676666259765625" lon="-16.840096749365329742431640625">
        <ele>402</ele>
        <time>2018-06-24T09:22:31.000Z</time>
      </trkpt>
      <trkpt lat="32.77639911510050296783447265625" lon="-16.84009213931858539581298828125">
        <ele>402.79998779296875</ele>
        <time>2018-06-24T09:22:33.000Z</time>
      </trkpt>
      <trkpt lat="32.7763965167105197906494140625" lon="-16.84008945710957050323486328125">
        <ele>403.20001220703125</ele>
        <time>2018-06-24T09:22:34.000Z</time>
      </trkpt>
      <trkpt lat="32.776365838944911956787109375" lon="-16.84006565250456333160400390625">
        <ele>404.20001220703125</ele>
        <time>2018-06-24T09:22:39.000Z</time>
      </trkpt>
      <trkpt lat="32.776361815631389617919921875" lon="-16.84003966860473155975341796875">
        <ele>405.600006103515625</ele>
        <time>2018-06-24T09:22:43.000Z</time>
      </trkpt>
      <trkpt lat="32.77636349201202392578125" lon="-16.8399909697473049163818359375">
        <ele>406.79998779296875</ele>
        <time>2018-06-24T09:22:48.000Z</time>
      </trkpt>
      <trkpt lat="32.77637623250484466552734375" lon="-16.8400097452104091644287109375">
        <ele>408</ele>
        <time>2018-06-24T09:22:52.000Z</time>
      </trkpt>
      <trkpt lat="32.77640515007078647613525390625" lon="-16.840009577572345733642578125">
        <ele>409.20001220703125</ele>
        <time>2018-06-24T09:22:56.000Z</time>
      </trkpt>
      <trkpt lat="32.7764253504574298858642578125" lon="-16.83999993838369846343994140625">
        <ele>410.20001220703125</ele>
        <time>2018-06-24T09:22:59.000Z</time>
      </trkpt>
      <trkpt lat="32.776442281901836395263671875" lon="-16.839996166527271270751953125">
        <ele>411.399993896484375</ele>
        <time>2018-06-24T09:23:02.000Z</time>
      </trkpt>
      <trkpt lat="32.776457369327545166015625" lon="-16.83999272994697093963623046875">
        <ele>412.600006103515625</ele>
        <time>2018-06-24T09:23:06.000Z</time>
      </trkpt>
      <trkpt lat="32.776473797857761383056640625" lon="-16.8399983458220958709716796875">
        <ele>413.600006103515625</ele>
        <time>2018-06-24T09:23:09.000Z</time>
      </trkpt>
      <trkpt lat="32.7764981053769588470458984375" lon="-16.84000597335398197174072265625">
        <ele>414.600006103515625</ele>
        <time>2018-06-24T09:23:13.000Z</time>
      </trkpt>
      <trkpt lat="32.7765182219445705413818359375" lon="-16.83999826200306415557861328125">
        <ele>415.79998779296875</ele>
        <time>2018-06-24T09:23:18.000Z</time>
      </trkpt>
      <trkpt lat="32.77653045952320098876953125" lon="-16.83997948653995990753173828125">
        <ele>417</ele>
        <time>2018-06-24T09:23:22.000Z</time>
      </trkpt>
      <trkpt lat="32.776541523635387420654296875" lon="-16.83997378684580326080322265625">
        <ele>418.20001220703125</ele>
        <time>2018-06-24T09:23:27.000Z</time>
      </trkpt>
      <trkpt lat="32.7765594609081745147705078125" lon="-16.8399748764932155609130859375">
        <ele>419.399993896484375</ele>
        <time>2018-06-24T09:23:31.000Z</time>
      </trkpt>
      <trkpt lat="32.7765862829983234405517578125" lon="-16.8399561010301113128662109375">
        <ele>420.399993896484375</ele>
        <time>2018-06-24T09:23:35.000Z</time>
      </trkpt>
      <trkpt lat="32.776607237756252288818359375" lon="-16.83995886705815792083740234375">
        <ele>421.399993896484375</ele>
        <time>2018-06-24T09:23:39.000Z</time>
      </trkpt>
      <trkpt lat="32.776615954935550689697265625" lon="-16.8399353139102458953857421875">
        <ele>422.600006103515625</ele>
        <time>2018-06-24T09:23:44.000Z</time>
      </trkpt>
      <trkpt lat="32.776615619659423828125" lon="-16.8399100005626678466796875">
        <ele>423.600006103515625</ele>
        <time>2018-06-24T09:23:48.000Z</time>
      </trkpt>
      <trkpt lat="32.77661184780299663543701171875" lon="-16.839880160987377166748046875">
        <ele>424.79998779296875</ele>
        <time>2018-06-24T09:23:53.000Z</time>
      </trkpt>
      <trkpt lat="32.77663246728479862213134765625" lon="-16.83986666612327098846435546875">
        <ele>426</ele>
        <time>2018-06-24T09:23:57.000Z</time>
      </trkpt>
      <trkpt lat="32.776645459234714508056640625" lon="-16.83987186290323734283447265625">
        <ele>427</ele>
        <time>2018-06-24T09:24:01.000Z</time>
      </trkpt>
      <trkpt lat="32.77665895409882068634033203125" lon="-16.8398454599082469940185546875">
        <ele>428.399993896484375</ele>
        <time>2018-06-24T09:24:06.000Z</time>
      </trkpt>
      <trkpt lat="32.7766556851565837860107421875" lon="-16.83981821872293949127197265625">
        <ele>429.600006103515625</ele>
        <time>2018-06-24T09:24:11.000Z</time>
      </trkpt>
      <trkpt lat="32.77668426744639873504638671875" lon="-16.83981670998036861419677734375">
        <ele>430.600006103515625</ele>
        <time>2018-06-24T09:24:15.000Z</time>
      </trkpt>
      <trkpt lat="32.77670991607010364532470703125" lon="-16.83982023037970066070556640625">
        <ele>431.79998779296875</ele>
        <time>2018-06-24T09:24:19.000Z</time>
      </trkpt>
      <trkpt lat="32.776722572743892669677734375" lon="-16.839823834598064422607421875">
        <ele>433</ele>
        <time>2018-06-24T09:24:22.000Z</time>
      </trkpt>
      <trkpt lat="32.77673053555190563201904296875" lon="-16.83983900584280490875244140625">
        <ele>434.20001220703125</ele>
        <time>2018-06-24T09:24:26.000Z</time>
      </trkpt>
      <trkpt lat="32.77674729935824871063232421875" lon="-16.8398518301546573638916015625">
        <ele>435.20001220703125</ele>
        <time>2018-06-24T09:24:30.000Z</time>
      </trkpt>
      <trkpt lat="32.776776216924190521240234375" lon="-16.8398702703416347503662109375">
        <ele>436.399993896484375</ele>
        <time>2018-06-24T09:24:35.000Z</time>
      </trkpt>
      <trkpt lat="32.776786275207996368408203125" lon="-16.839865408837795257568359375">
        <ele>437.79998779296875</ele>
        <time>2018-06-24T09:24:39.000Z</time>
      </trkpt>
      <trkpt lat="32.77678568847477436065673828125" lon="-16.83985191397368907928466796875">
        <ele>439</ele>
        <time>2018-06-24T09:24:44.000Z</time>
      </trkpt>
      <trkpt lat="32.77680211700499057769775390625" lon="-16.83985493145883083343505859375">
        <ele>440</ele>
        <time>2018-06-24T09:24:48.000Z</time>
      </trkpt>
      <trkpt lat="32.77681879699230194091796875" lon="-16.83986146934330463409423828125">
        <ele>441.20001220703125</ele>
        <time>2018-06-24T09:24:52.000Z</time>
      </trkpt>
      <trkpt lat="32.7768149413168430328369140625" lon="-16.83984235860407352447509765625">
        <ele>442.399993896484375</ele>
        <time>2018-06-24T09:24:57.000Z</time>
      </trkpt>
      <trkpt lat="32.7768092416226863861083984375" lon="-16.8398313783109188079833984375">
        <ele>443.399993896484375</ele>
        <time>2018-06-24T09:25:01.000Z</time>
      </trkpt>
      <trkpt lat="32.77680228464305400848388671875" lon="-16.83980698697268962860107421875">
        <ele>444.600006103515625</ele>
        <time>2018-06-24T09:25:05.000Z</time>
      </trkpt>
      <trkpt lat="32.7768028713762760162353515625" lon="-16.83977966196835041046142578125">
        <ele>445.600006103515625</ele>
        <time>2018-06-24T09:25:09.000Z</time>
      </trkpt>
      <trkpt lat="32.77678619138896465301513671875" lon="-16.83974705636501312255859375">
        <ele>446.79998779296875</ele>
        <time>2018-06-24T09:25:13.000Z</time>
      </trkpt>
      <trkpt lat="32.77679088525474071502685546875" lon="-16.839725933969020843505859375">
        <ele>447.399993896484375</ele>
        <time>2018-06-24T09:25:16.000Z</time>
      </trkpt>
      <trkpt lat="32.77679331600666046142578125" lon="-16.8397173844277858734130859375">
        <ele>448.20001220703125</ele>
        <time>2018-06-24T09:25:18.000Z</time>
      </trkpt>
      <trkpt lat="32.77679859660565853118896484375" lon="-16.83970673941075801849365234375">
        <ele>449.399993896484375</ele>
        <time>2018-06-24T09:25:22.000Z</time>
      </trkpt>
      <trkpt lat="32.776817120611667633056640625" lon="-16.839699111878871917724609375">
        <ele>450.600006103515625</ele>
        <time>2018-06-24T09:25:26.000Z</time>
      </trkpt>
      <trkpt lat="32.7768360637128353118896484375" lon="-16.8397167138755321502685546875">
        <ele>451.79998779296875</ele>
        <time>2018-06-24T09:25:30.000Z</time>
      </trkpt>
      <trkpt lat="32.77685089968144893646240234375" lon="-16.83968863449990749359130859375">
        <ele>453.20001220703125</ele>
        <time>2018-06-24T09:25:35.000Z</time>
      </trkpt>
      <trkpt lat="32.77684335596859455108642578125" lon="-16.8396610580384731292724609375">
        <ele>454.399993896484375</ele>
        <time>2018-06-24T09:25:39.000Z</time>
      </trkpt>
      <trkpt lat="32.776851318776607513427734375" lon="-16.83963431976735591888427734375">
        <ele>455.600006103515625</ele>
        <time>2018-06-24T09:25:43.000Z</time>
      </trkpt>
      <trkpt lat="32.77685726992785930633544921875" lon="-16.83963515795767307281494140625">
        <ele>457</ele>
        <time>2018-06-24T09:25:47.000Z</time>
      </trkpt>
      <trkpt lat="32.77686179615557193756103515625" lon="-16.83964923955500125885009765625">
        <ele>458.20001220703125</ele>
        <time>2018-06-24T09:25:52.000Z</time>
      </trkpt>
      <trkpt lat="32.7768689207732677459716796875" lon="-16.8396349065005779266357421875">
        <ele>459.399993896484375</ele>
        <time>2018-06-24T09:25:56.000Z</time>
      </trkpt>
      <trkpt lat="32.77686716057360172271728515625" lon="-16.839617304503917694091796875">
        <ele>460.79998779296875</ele>
        <time>2018-06-24T09:26:01.000Z</time>
      </trkpt>
      <trkpt lat="32.776881493628025054931640625" lon="-16.83960448019206523895263671875">
        <ele>461.79998779296875</ele>
        <time>2018-06-24T09:26:05.000Z</time>
      </trkpt>
      <trkpt lat="32.7769058011472225189208984375" lon="-16.8396322242915630340576171875">
        <ele>462.79998779296875</ele>
        <time>2018-06-24T09:26:10.000Z</time>
      </trkpt>
      <trkpt lat="32.776923067867755889892578125" lon="-16.83963968418538570404052734375">
        <ele>464.20001220703125</ele>
        <time>2018-06-24T09:26:14.000Z</time>
      </trkpt>
      <trkpt lat="32.77695282362401485443115234375" lon="-16.8396520055830478668212890625">
        <ele>465.20001220703125</ele>
        <time>2018-06-24T09:26:18.000Z</time>
      </trkpt>
      <trkpt lat="32.7769741974771022796630859375" lon="-16.83965410105884075164794921875">
        <ele>466.399993896484375</ele>
        <time>2018-06-24T09:26:22.000Z</time>
      </trkpt>
      <trkpt lat="32.776983417570590972900390625" lon="-16.8396417796611785888671875">
        <ele>467.399993896484375</ele>
        <time>2018-06-24T09:26:25.000Z</time>
      </trkpt>
      <trkpt lat="32.7769886143505573272705078125" lon="-16.83962509967386722564697265625">
        <ele>468.399993896484375</ele>
        <time>2018-06-24T09:26:28.000Z</time>
      </trkpt>
      <trkpt lat="32.77700864709913730621337890625" lon="-16.839629709720611572265625">
        <ele>469.79998779296875</ele>
        <time>2018-06-24T09:26:32.000Z</time>
      </trkpt>
      <trkpt lat="32.77704100124537944793701171875" lon="-16.8396369181573390960693359375">
        <ele>470.399993896484375</ele>
        <time>2018-06-24T09:26:36.000Z</time>
      </trkpt>
      <trkpt lat="32.77705173008143901824951171875" lon="-16.8396332301199436187744140625">
        <ele>471</ele>
        <time>2018-06-24T09:26:38.000Z</time>
      </trkpt>
      <trkpt lat="32.7770814858376979827880859375" lon="-16.83962560258805751800537109375">
        <ele>472.20001220703125</ele>
        <time>2018-06-24T09:26:42.000Z</time>
      </trkpt>
      <trkpt lat="32.7771126665174961090087890625" lon="-16.83960012160241603851318359375">
        <ele>473.399993896484375</ele>
        <time>2018-06-24T09:26:46.000Z</time>
      </trkpt>
      <trkpt lat="32.7771307714283466339111328125" lon="-16.83959006331861019134521484375">
        <ele>474.600006103515625</ele>
        <time>2018-06-24T09:26:50.000Z</time>
      </trkpt>
      <trkpt lat="32.77714979834854602813720703125" lon="-16.83958687819540500640869140625">
        <ele>475.79998779296875</ele>
        <time>2018-06-24T09:26:54.000Z</time>
      </trkpt>
      <trkpt lat="32.77717662043869495391845703125" lon="-16.83959106914699077606201171875">
        <ele>476.79998779296875</ele>
        <time>2018-06-24T09:26:58.000Z</time>
      </trkpt>
      <trkpt lat="32.77717687189579010009765625" lon="-16.8396042287349700927734375">
        <ele>478.20001220703125</ele>
        <time>2018-06-24T09:27:02.000Z</time>
      </trkpt>
      <trkpt lat="32.7771842479705810546875" lon="-16.83961269445717334747314453125">
        <ele>479</ele>
        <time>2018-06-24T09:27:08.000Z</time>
      </trkpt>
      <trkpt lat="32.77718500234186649322509765625" lon="-16.83959559537470340728759765625">
        <ele>480.600006103515625</ele>
        <time>2018-06-24T09:27:12.000Z</time>
      </trkpt>
      <trkpt lat="32.77718248777091503143310546875" lon="-16.83957849629223346710205078125">
        <ele>481.600006103515625</ele>
        <time>2018-06-24T09:27:16.000Z</time>
      </trkpt>
      <trkpt lat="32.77718667872250080108642578125" lon="-16.839568354189395904541015625">
        <ele>482.399993896484375</ele>
        <time>2018-06-24T09:27:19.000Z</time>
      </trkpt>
      <trkpt lat="32.7771917916834354400634765625" lon="-16.839544884860515594482421875">
        <ele>483.600006103515625</ele>
        <time>2018-06-24T09:27:22.000Z</time>
      </trkpt>
      <trkpt lat="32.7771820686757564544677734375" lon="-16.83952703140676021575927734375">
        <ele>485</ele>
        <time>2018-06-24T09:27:26.000Z</time>
      </trkpt>
      <trkpt lat="32.77718584053218364715576171875" lon="-16.83949149213731288909912109375">
        <ele>485.79998779296875</ele>
        <time>2018-06-24T09:27:30.000Z</time>
      </trkpt>
      <trkpt lat="32.77718701399862766265869140625" lon="-16.83948311023414134979248046875">
        <ele>486.399993896484375</ele>
        <time>2018-06-24T09:27:31.000Z</time>
      </trkpt>
      <trkpt lat="32.77717963792383670806884765625" lon="-16.839463077485561370849609375">
        <ele>487</ele>
        <time>2018-06-24T09:27:33.000Z</time>
      </trkpt>
      <trkpt lat="32.77717796154320240020751953125" lon="-16.83945846743881702423095703125">
        <ele>487</ele>
        <time>2018-06-24T09:27:34.000Z</time>
      </trkpt>
      <trkpt lat="32.7771820686757564544677734375" lon="-16.839446984231472015380859375">
        <ele>488.20001220703125</ele>
        <time>2018-06-24T09:27:37.000Z</time>
      </trkpt>
      <trkpt lat="32.77720528654754161834716796875" lon="-16.83942854404449462890625">
        <ele>489.399993896484375</ele>
        <time>2018-06-24T09:27:41.000Z</time>
      </trkpt>
      <trkpt lat="32.77721098624169826507568359375" lon="-16.839423514902591705322265625">
        <ele>490</ele>
        <time>2018-06-24T09:27:43.000Z</time>
      </trkpt>
      <trkpt lat="32.77722691185772418975830078125" lon="-16.839432232081890106201171875">
        <ele>490.600006103515625</ele>
        <time>2018-06-24T09:27:45.000Z</time>
      </trkpt>
      <trkpt lat="32.7772474475204944610595703125" lon="-16.83944656513631343841552734375">
        <ele>491.600006103515625</ele>
        <time>2018-06-24T09:27:48.000Z</time>
      </trkpt>
      <trkpt lat="32.7772595174610614776611328125" lon="-16.839461065828800201416015625">
        <ele>492.79998779296875</ele>
        <time>2018-06-24T09:27:53.000Z</time>
      </trkpt>
      <trkpt lat="32.77726982720196247100830078125" lon="-16.8394754827022552490234375">
        <ele>494</ele>
        <time>2018-06-24T09:27:57.000Z</time>
      </trkpt>
      <trkpt lat="32.7772806398570537567138671875" lon="-16.83950926177203655242919921875">
        <ele>495</ele>
        <time>2018-06-24T09:28:01.000Z</time>
      </trkpt>
      <trkpt lat="32.7772843278944492340087890625" lon="-16.83952183462679386138916015625">
        <ele>496</ele>
        <time>2018-06-24T09:28:05.000Z</time>
      </trkpt>
      <trkpt lat="32.77728038839995861053466796875" lon="-16.839508004486560821533203125">
        <ele>497.399993896484375</ele>
        <time>2018-06-24T09:28:10.000Z</time>
      </trkpt>
      <trkpt lat="32.777299247682094573974609375" lon="-16.83950507082045078277587890625">
        <ele>498.600006103515625</ele>
        <time>2018-06-24T09:28:14.000Z</time>
      </trkpt>
      <trkpt lat="32.777321040630340576171875" lon="-16.8395024724304676055908203125">
        <ele>499.600006103515625</ele>
        <time>2018-06-24T09:28:18.000Z</time>
      </trkpt>
      <trkpt lat="32.77734727598726749420166015625" lon="-16.8394877202808856964111328125">
        <ele>501</ele>
        <time>2018-06-24T09:28:22.000Z</time>
      </trkpt>
      <trkpt lat="32.777342833578586578369140625" lon="-16.8394674360752105712890625">
        <ele>502</ele>
        <time>2018-06-24T09:28:26.000Z</time>
      </trkpt>
      <trkpt lat="32.77734325267374515533447265625" lon="-16.839428208768367767333984375">
        <ele>502.600006103515625</ele>
        <time>2018-06-24T09:28:30.000Z</time>
      </trkpt>
      <trkpt lat="32.7773466892540454864501953125" lon="-16.83940012939274311065673828125">
        <ele>503.20001220703125</ele>
        <time>2018-06-24T09:28:33.000Z</time>
      </trkpt>
      <trkpt lat="32.7773438394069671630859375" lon="-16.8393958546221256256103515625">
        <ele>503.399993896484375</ele>
        <time>2018-06-24T09:28:34.000Z</time>
      </trkpt>
      <trkpt lat="32.7773470245301723480224609375" lon="-16.83938001282513141632080078125">
        <ele>504.399993896484375</ele>
        <time>2018-06-24T09:28:36.000Z</time>
      </trkpt>
      <trkpt lat="32.7773426659405231475830078125" lon="-16.8393623270094394683837890625">
        <ele>505.600006103515625</ele>
        <time>2018-06-24T09:28:40.000Z</time>
      </trkpt>
      <trkpt lat="32.77734057046473026275634765625" lon="-16.83936484158039093017578125">
        <ele>507</ele>
        <time>2018-06-24T09:28:45.000Z</time>
      </trkpt>
      <trkpt lat="32.77734241448342800140380859375" lon="-16.8393681943416595458984375">
        <ele>508</ele>
        <time>2018-06-24T09:28:49.000Z</time>
      </trkpt>
      <trkpt lat="32.7773376367986202239990234375" lon="-16.83939023874700069427490234375">
        <ele>509</ele>
        <time>2018-06-24T09:28:53.000Z</time>
      </trkpt>
      <trkpt lat="32.77733302675187587738037109375" lon="-16.83942309580743312835693359375">
        <ele>510.600006103515625</ele>
        <time>2018-06-24T09:28:58.000Z</time>
      </trkpt>
      <trkpt lat="32.77733319438993930816650390625" lon="-16.8394548632204532623291015625">
        <ele>511.79998779296875</ele>
        <time>2018-06-24T09:29:02.000Z</time>
      </trkpt>
      <trkpt lat="32.77733101509511470794677734375" lon="-16.83951563201844692230224609375">
        <ele>512.79998779296875</ele>
        <time>2018-06-24T09:29:07.000Z</time>
      </trkpt>
      <trkpt lat="32.77733537368476390838623046875" lon="-16.83953725732862949371337890625">
        <ele>513</ele>
        <time>2018-06-24T09:29:09.000Z</time>
      </trkpt>
      <trkpt lat="32.77733922936022281646728515625" lon="-16.83957003057003021240234375">
        <ele>513.5999755859375</ele>
        <time>2018-06-24T09:29:12.000Z</time>
      </trkpt>
      <trkpt lat="32.77736127376556396484375" lon="-16.839622668921947479248046875">
        <ele>514.5999755859375</ele>
        <time>2018-06-24T09:29:16.000Z</time>
      </trkpt>
      <trkpt lat="32.7773875929415225982666015625" lon="-16.83968402445316314697265625">
        <ele>516</ele>
        <time>2018-06-24T09:29:21.000Z</time>
      </trkpt>
      <trkpt lat="32.777436710894107818603515625" lon="-16.83977765031158924102783203125">
        <ele>517.20001220703125</ele>
        <time>2018-06-24T09:29:29.000Z</time>
      </trkpt>
      <trkpt lat="32.77745448052883148193359375" lon="-16.8398317135870456695556640625">
        <ele>518.20001220703125</ele>
        <time>2018-06-24T09:29:34.000Z</time>
      </trkpt>
      <trkpt lat="32.7774630300700664520263671875" lon="-16.83983548544347286224365234375">
        <ele>519.4000244140625</ele>
        <time>2018-06-24T09:29:37.000Z</time>
      </trkpt>
      <trkpt lat="32.777471579611301422119140625" lon="-16.8398290313780307769775390625">
        <ele>520.79998779296875</ele>
        <time>2018-06-24T09:29:41.000Z</time>
      </trkpt>
      <trkpt lat="32.777465879917144775390625" lon="-16.83982752263545989990234375">
        <ele>521.5999755859375</ele>
        <time>2018-06-24T09:29:45.000Z</time>
      </trkpt>
      <trkpt lat="32.77746663428843021392822265625" lon="-16.83982492424547672271728515625">
        <ele>522.79998779296875</ele>
        <time>2018-06-24T09:29:47.000Z</time>
      </trkpt>
      <trkpt lat="32.7774603478610515594482421875" lon="-16.8398119322955608367919921875">
        <ele>524</ele>
        <time>2018-06-24T09:29:50.000Z</time>
      </trkpt>
      <trkpt lat="32.77744886465370655059814453125" lon="-16.8397302925586700439453125">
        <ele>524.5999755859375</ele>
        <time>2018-06-24T09:29:56.000Z</time>
      </trkpt>
      <trkpt lat="32.77744534425437450408935546875" lon="-16.83971461839973926544189453125">
        <ele>525</ele>
        <time>2018-06-24T09:29:57.000Z</time>
      </trkpt>
      <trkpt lat="32.77744467370212078094482421875" lon="-16.8396724574267864227294921875">
        <ele>526</ele>
        <time>2018-06-24T09:30:01.000Z</time>
      </trkpt>
      <trkpt lat="32.777460180222988128662109375" lon="-16.83961990289390087127685546875">
        <ele>527</ele>
        <time>2018-06-24T09:30:05.000Z</time>
      </trkpt>
      <trkpt lat="32.77747727930545806884765625" lon="-16.83957950212061405181884765625">
        <ele>528.4000244140625</ele>
        <time>2018-06-24T09:30:10.000Z</time>
      </trkpt>
      <trkpt lat="32.7774935401976108551025390625" lon="-16.83958184905350208282470703125">
        <ele>529.4000244140625</ele>
        <time>2018-06-24T09:30:14.000Z</time>
      </trkpt>
      <trkpt lat="32.77751441113650798797607421875" lon="-16.8396010436117649078369140625">
        <ele>530.5999755859375</ele>
        <time>2018-06-24T09:30:18.000Z</time>
      </trkpt>
      <trkpt lat="32.777530252933502197265625" lon="-16.83959593065083026885986328125">
        <ele>532</ele>
        <time>2018-06-24T09:30:22.000Z</time>
      </trkpt>
      <trkpt lat="32.7775538899004459381103515625" lon="-16.8395698629319667816162109375">
        <ele>533.20001220703125</ele>
        <time>2018-06-24T09:30:26.000Z</time>
      </trkpt>
      <trkpt lat="32.77758934535086154937744140625" lon="-16.83954681269824504852294921875">
        <ele>534.20001220703125</ele>
        <time>2018-06-24T09:30:30.000Z</time>
      </trkpt>
      <trkpt lat="32.77760200202465057373046875" lon="-16.8395232595503330230712890625">
        <ele>535.5999755859375</ele>
        <time>2018-06-24T09:30:34.000Z</time>
      </trkpt>
      <trkpt lat="32.777643240988254547119140625" lon="-16.83951714076101779937744140625">
        <ele>536.79998779296875</ele>
        <time>2018-06-24T09:30:41.000Z</time>
      </trkpt>
      <trkpt lat="32.77766930870711803436279296875" lon="-16.83956223540008068084716796875">
        <ele>538.20001220703125</ele>
        <time>2018-06-24T09:30:50.000Z</time>
      </trkpt>
      <trkpt lat="32.7776809595525264739990234375" lon="-16.8395906500518321990966796875">
        <ele>539.20001220703125</ele>
        <time>2018-06-24T09:30:53.000Z</time>
      </trkpt>
      <trkpt lat="32.7776863239705562591552734375" lon="-16.83961034752428531646728515625">
        <ele>539.79998779296875</ele>
        <time>2018-06-24T09:30:55.000Z</time>
      </trkpt>
      <trkpt lat="32.77768992818892002105712890625" lon="-16.83962224982678890228271484375">
        <ele>540.20001220703125</ele>
        <time>2018-06-24T09:30:56.000Z</time>
      </trkpt>
      <trkpt lat="32.77772362343966960906982421875" lon="-16.83967321179807186126708984375">
        <ele>541.4000244140625</ele>
        <time>2018-06-24T09:31:02.000Z</time>
      </trkpt>
      <trkpt lat="32.7777449972927570343017578125" lon="-16.83970724232494831085205078125">
        <ele>542.5999755859375</ele>
        <time>2018-06-24T09:31:05.000Z</time>
      </trkpt>
      <trkpt lat="32.77784817852079868316650390625" lon="-16.8398360721766948699951171875">
        <ele>541.5999755859375</ele>
        <time>2018-06-24T09:31:15.000Z</time>
      </trkpt>
      <trkpt lat="32.77791691012680530548095703125" lon="-16.83989432640373706817626953125">
        <ele>540.79998779296875</ele>
        <time>2018-06-24T09:31:20.000Z</time>
      </trkpt>
      <trkpt lat="32.77797793038189411163330078125" lon="-16.839982084929943084716796875">
        <ele>541.5999755859375</ele>
        <time>2018-06-24T09:31:28.000Z</time>
      </trkpt>
      <trkpt lat="32.7779753319919109344482421875" lon="-16.84000161476433277130126953125">
        <ele>543</ele>
        <time>2018-06-24T09:31:31.000Z</time>
      </trkpt>
      <trkpt lat="32.77799787931144237518310546875" lon="-16.8400509841740131378173828125">
        <ele>544.5999755859375</ele>
        <time>2018-06-24T09:31:35.000Z</time>
      </trkpt>
      <trkpt lat="32.778104245662689208984375" lon="-16.84014645405113697052001953125">
        <ele>545.5999755859375</ele>
        <time>2018-06-24T09:31:43.000Z</time>
      </trkpt>
      <trkpt lat="32.7781285531818866729736328125" lon="-16.84016942046582698822021484375">
        <ele>546.5999755859375</ele>
        <time>2018-06-24T09:31:46.000Z</time>
      </trkpt>
      <trkpt lat="32.77813919819891452789306640625" lon="-16.8401991762220859527587890625">
        <ele>548</ele>
        <time>2018-06-24T09:31:49.000Z</time>
      </trkpt>
      <trkpt lat="32.7781563811004161834716796875" lon="-16.84021635912358760833740234375">
        <ele>549</ele>
        <time>2018-06-24T09:31:53.000Z</time>
      </trkpt>
      <trkpt lat="32.778181694447994232177734375" lon="-16.84024938382208347320556640625">
        <ele>550.4000244140625</ele>
        <time>2018-06-24T09:31:57.000Z</time>
      </trkpt>
      <trkpt lat="32.7782006375491619110107421875" lon="-16.84027905575931072235107421875">
        <ele>551.4000244140625</ele>
        <time>2018-06-24T09:32:01.000Z</time>
      </trkpt>
      <trkpt lat="32.77820843271911144256591796875" lon="-16.84029380790889263153076171875">
        <ele>552</ele>
        <time>2018-06-24T09:32:03.000Z</time>
      </trkpt>
      <trkpt lat="32.77822159230709075927734375" lon="-16.84031124226748943328857421875">
        <ele>552.5999755859375</ele>
        <time>2018-06-24T09:32:05.000Z</time>
      </trkpt>
      <trkpt lat="32.7782395295798778533935546875" lon="-16.8403339572250843048095703125">
        <ele>553.5999755859375</ele>
        <time>2018-06-24T09:32:08.000Z</time>
      </trkpt>
      <trkpt lat="32.7782458998262882232666015625" lon="-16.8403473682701587677001953125">
        <ele>553.79998779296875</ele>
        <time>2018-06-24T09:32:09.000Z</time>
      </trkpt>
      <trkpt lat="32.77833868749439716339111328125" lon="-16.8404127471148967742919921875">
        <ele>555</ele>
        <time>2018-06-24T09:32:16.000Z</time>
      </trkpt>
      <trkpt lat="32.7783709578216075897216796875" lon="-16.8404516391456127166748046875">
        <ele>556.20001220703125</ele>
        <time>2018-06-24T09:32:19.000Z</time>
      </trkpt>
      <trkpt lat="32.77844312600791454315185546875" lon="-16.840517520904541015625">
        <ele>557.4000244140625</ele>
        <time>2018-06-24T09:32:24.000Z</time>
      </trkpt>
      <trkpt lat="32.77848134748637676239013671875" lon="-16.84055783785879611968994140625">
        <ele>558.79998779296875</ele>
        <time>2018-06-24T09:32:27.000Z</time>
      </trkpt>
      <trkpt lat="32.77851822786033153533935546875" lon="-16.84058725833892822265625">
        <ele>559.79998779296875</ele>
        <time>2018-06-24T09:32:30.000Z</time>
      </trkpt>
      <trkpt lat="32.77862115763127803802490234375" lon="-16.84059605933725833892822265625">
        <ele>560.79998779296875</ele>
        <time>2018-06-24T09:32:37.000Z</time>
      </trkpt>
      <trkpt lat="32.77865468524396419525146484375" lon="-16.84059572406113147735595703125">
        <ele>561.4000244140625</ele>
        <time>2018-06-24T09:32:40.000Z</time>
      </trkpt>
      <trkpt lat="32.77867312543094158172607421875" lon="-16.84058516286313533782958984375">
        <ele>561.79998779296875</ele>
        <time>2018-06-24T09:32:43.000Z</time>
      </trkpt>
      <trkpt lat="32.77870765887200832366943359375" lon="-16.84058231301605701446533203125">
        <ele>563.20001220703125</ele>
        <time>2018-06-24T09:32:48.000Z</time>
      </trkpt>
      <trkpt lat="32.77874168939888477325439453125" lon="-16.84059220366179943084716796875">
        <ele>564.4000244140625</ele>
        <time>2018-06-24T09:32:52.000Z</time>
      </trkpt>
      <trkpt lat="32.7787588723003864288330078125" lon="-16.8405944667756557464599609375">
        <ele>565</ele>
        <time>2018-06-24T09:32:54.000Z</time>
      </trkpt>
      <trkpt lat="32.77877949178218841552734375" lon="-16.84059907682240009307861328125">
        <ele>565.79998779296875</ele>
        <time>2018-06-24T09:32:56.000Z</time>
      </trkpt>
      <trkpt lat="32.7787997759878635406494140625" lon="-16.84059823863208293914794921875">
        <ele>566.4000244140625</ele>
        <time>2018-06-24T09:32:58.000Z</time>
      </trkpt>
      <trkpt lat="32.7788115106523036956787109375" lon="-16.8405966460704803466796875">
        <ele>566.79998779296875</ele>
        <time>2018-06-24T09:32:59.000Z</time>
      </trkpt>
      <trkpt lat="32.7788312919437885284423828125" lon="-16.84059287421405315399169921875">
        <ele>567.4000244140625</ele>
        <time>2018-06-24T09:33:01.000Z</time>
      </trkpt>
      <trkpt lat="32.7788453735411167144775390625" lon="-16.840595304965972900390625">
        <ele>567.79998779296875</ele>
        <time>2018-06-24T09:33:03.000Z</time>
      </trkpt>
      <trkpt lat="32.77885735966265201568603515625" lon="-16.8406045250594615936279296875">
        <ele>569</ele>
        <time>2018-06-24T09:33:07.000Z</time>
      </trkpt>
      <trkpt lat="32.7788807451725006103515625" lon="-16.840604357421398162841796875">
        <ele>570.20001220703125</ele>
        <time>2018-06-24T09:33:11.000Z</time>
      </trkpt>
      <trkpt lat="32.7789030410349369049072265625" lon="-16.84059237129986286163330078125">
        <ele>571.4000244140625</ele>
        <time>2018-06-24T09:33:16.000Z</time>
      </trkpt>
      <trkpt lat="32.77891553007066249847412109375" lon="-16.84061248786747455596923828125">
        <ele>572.79998779296875</ele>
        <time>2018-06-24T09:33:19.000Z</time>
      </trkpt>
      <trkpt lat="32.7789385803043842315673828125" lon="-16.84063025750219821929931640625">
        <ele>573.79998779296875</ele>
        <time>2018-06-24T09:33:22.000Z</time>
      </trkpt>
      <trkpt lat="32.7789652347564697265625" lon="-16.84062950313091278076171875">
        <ele>575.20001220703125</ele>
        <time>2018-06-24T09:33:25.000Z</time>
      </trkpt>
      <trkpt lat="32.7790121734142303466796875" lon="-16.840639896690845489501953125">
        <ele>576.4000244140625</ele>
        <time>2018-06-24T09:33:29.000Z</time>
      </trkpt>
      <trkpt lat="32.7790309488773345947265625" lon="-16.84065925888717174530029296875">
        <ele>577.4000244140625</ele>
        <time>2018-06-24T09:33:32.000Z</time>
      </trkpt>
      <trkpt lat="32.77903907932341098785400390625" lon="-16.8406642042100429534912109375">
        <ele>578</ele>
        <time>2018-06-24T09:33:33.000Z</time>
      </trkpt>
      <trkpt lat="32.77906908653676509857177734375" lon="-16.840688847005367279052734375">
        <ele>578.4000244140625</ele>
        <time>2018-06-24T09:33:36.000Z</time>
      </trkpt>
      <trkpt lat="32.77908786199986934661865234375" lon="-16.8407012522220611572265625">
        <ele>579</ele>
        <time>2018-06-24T09:33:38.000Z</time>
      </trkpt>
      <trkpt lat="32.779104709625244140625" lon="-16.840710304677486419677734375">
        <ele>579.79998779296875</ele>
        <time>2018-06-24T09:33:40.000Z</time>
      </trkpt>
      <trkpt lat="32.77912256307899951934814453125" lon="-16.84073519892990589141845703125">
        <ele>581</ele>
        <time>2018-06-24T09:33:44.000Z</time>
      </trkpt>
      <trkpt lat="32.77913748286664485931396484375" lon="-16.84075783006846904754638671875">
        <ele>581.79998779296875</ele>
        <time>2018-06-24T09:33:47.000Z</time>
      </trkpt>
      <trkpt lat="32.77915776707231998443603515625" lon="-16.840785406529903411865234375">
        <ele>582.79998779296875</ele>
        <time>2018-06-24T09:33:50.000Z</time>
      </trkpt>
      <trkpt lat="32.77916438877582550048828125" lon="-16.840793453156948089599609375">
        <ele>582.79998779296875</ele>
        <time>2018-06-24T09:33:51.000Z</time>
      </trkpt>
      <trkpt lat="32.77920001186430454254150390625" lon="-16.84082455001771450042724609375">
        <ele>583</ele>
        <time>2018-06-24T09:33:54.000Z</time>
      </trkpt>
      <trkpt lat="32.77928399853408336639404296875" lon="-16.84093636460602283477783203125">
        <ele>584</ele>
        <time>2018-06-24T09:34:02.000Z</time>
      </trkpt>
      <trkpt lat="32.77930394746363162994384765625" lon="-16.8409753404557704925537109375">
        <ele>585.4000244140625</ele>
        <time>2018-06-24T09:34:06.000Z</time>
      </trkpt>
      <trkpt lat="32.77931434102356433868408203125" lon="-16.84100769460201263427734375">
        <ele>586.5999755859375</ele>
        <time>2018-06-24T09:34:10.000Z</time>
      </trkpt>
      <trkpt lat="32.7793233096599578857421875" lon="-16.84108187444508075714111328125">
        <ele>587.5999755859375</ele>
        <time>2018-06-24T09:34:16.000Z</time>
      </trkpt>
      <trkpt lat="32.7793244831264019012451171875" lon="-16.841095201671123504638671875">
        <ele>587.79998779296875</ele>
        <time>2018-06-24T09:34:17.000Z</time>
      </trkpt>
      <trkpt lat="32.77936027385294437408447265625" lon="-16.8411818705499172210693359375">
        <ele>587.20001220703125</ele>
        <time>2018-06-24T09:38:29.000Z</time>
      </trkpt>
      <trkpt lat="32.7793804742395877838134765625" lon="-16.84119653888046741485595703125">
        <ele>586.20001220703125</ele>
        <time>2018-06-24T09:38:33.000Z</time>
      </trkpt>
      <trkpt lat="32.779393382370471954345703125" lon="-16.8412066809833049774169921875">
        <ele>585.20001220703125</ele>
        <time>2018-06-24T09:38:35.000Z</time>
      </trkpt>
      <trkpt lat="32.7794037759304046630859375" lon="-16.84121296741068363189697265625">
        <ele>583.79998779296875</ele>
        <time>2018-06-24T09:38:37.000Z</time>
      </trkpt>
      <trkpt lat="32.7794183604419231414794921875" lon="-16.841228641569614410400390625">
        <ele>582.79998779296875</ele>
        <time>2018-06-24T09:38:39.000Z</time>
      </trkpt>
      <trkpt lat="32.779428251087665557861328125" lon="-16.84124465100467205047607421875">
        <ele>581.4000244140625</ele>
        <time>2018-06-24T09:38:41.000Z</time>
      </trkpt>
      <trkpt lat="32.77943386696279048919677734375" lon="-16.84126325882971286773681640625">
        <ele>580.20001220703125</ele>
        <time>2018-06-24T09:38:43.000Z</time>
      </trkpt>
      <trkpt lat="32.77942699380218982696533203125" lon="-16.841287650167942047119140625">
        <ele>578.79998779296875</ele>
        <time>2018-06-24T09:38:45.000Z</time>
      </trkpt>
      <trkpt lat="32.77941022999584674835205078125" lon="-16.84131572954356670379638671875">
        <ele>577.5999755859375</ele>
        <time>2018-06-24T09:38:47.000Z</time>
      </trkpt>
      <trkpt lat="32.77938642539083957672119140625" lon="-16.8413464911282062530517578125">
        <ele>576.5999755859375</ele>
        <time>2018-06-24T09:38:49.000Z</time>
      </trkpt>
      <trkpt lat="32.77937184087932109832763671875" lon="-16.8413718044757843017578125">
        <ele>575.20001220703125</ele>
        <time>2018-06-24T09:38:51.000Z</time>
      </trkpt>
      <trkpt lat="32.77936513535678386688232421875" lon="-16.84139284305274486541748046875">
        <ele>574.20001220703125</ele>
        <time>2018-06-24T09:38:53.000Z</time>
      </trkpt>
      <trkpt lat="32.779363878071308135986328125" lon="-16.84141002595424652099609375">
        <ele>573</ele>
        <time>2018-06-24T09:38:55.000Z</time>
      </trkpt>
      <trkpt lat="32.77936463244259357452392578125" lon="-16.84142419137060642242431640625">
        <ele>572.20001220703125</ele>
        <time>2018-06-24T09:38:57.000Z</time>
      </trkpt>
      <trkpt lat="32.779357843101024627685546875" lon="-16.84145084582269191741943359375">
        <ele>570.5999755859375</ele>
        <time>2018-06-24T09:38:59.000Z</time>
      </trkpt>
      <trkpt lat="32.77934820391237735748291015625" lon="-16.8414698727428913116455078125">
        <ele>569.79998779296875</ele>
        <time>2018-06-24T09:39:01.000Z</time>
      </trkpt>
      <trkpt lat="32.77935088612139225006103515625" lon="-16.84149862267076969146728515625">
        <ele>568.20001220703125</ele>
        <time>2018-06-24T09:39:03.000Z</time>
      </trkpt>
      <trkpt lat="32.77934703044593334197998046875" lon="-16.84152527712285518646240234375">
        <ele>567</ele>
        <time>2018-06-24T09:39:05.000Z</time>
      </trkpt>
      <trkpt lat="32.77933211065828800201416015625" lon="-16.84154924936592578887939453125">
        <ele>565.79998779296875</ele>
        <time>2018-06-24T09:39:07.000Z</time>
      </trkpt>
      <trkpt lat="32.77933068573474884033203125" lon="-16.84157154522836208343505859375">
        <ele>564.4000244140625</ele>
        <time>2018-06-24T09:39:09.000Z</time>
      </trkpt>
      <trkpt lat="32.77931886725127696990966796875" lon="-16.8416056595742702484130859375">
        <ele>563</ele>
        <time>2018-06-24T09:39:11.000Z</time>
      </trkpt>
      <trkpt lat="32.7793167717754840850830078125" lon="-16.84164161793887615203857421875">
        <ele>561.79998779296875</ele>
        <time>2018-06-24T09:39:13.000Z</time>
      </trkpt>
      <trkpt lat="32.7793072164058685302734375" lon="-16.84167849831283092498779296875">
        <ele>560.79998779296875</ele>
        <time>2018-06-24T09:39:15.000Z</time>
      </trkpt>
      <trkpt lat="32.7792870998382568359375" lon="-16.8417468108236789703369140625">
        <ele>559.20001220703125</ele>
        <time>2018-06-24T09:39:18.000Z</time>
      </trkpt>
      <trkpt lat="32.7792758680880069732666015625" lon="-16.84180087409913539886474609375">
        <ele>558.20001220703125</ele>
        <time>2018-06-24T09:39:20.000Z</time>
      </trkpt>
      <trkpt lat="32.7792403288185596466064453125" lon="-16.84193842113018035888671875">
        <ele>557</ele>
        <time>2018-06-24T09:39:25.000Z</time>
      </trkpt>
      <trkpt lat="32.77922951616346836090087890625" lon="-16.8419851921498775482177734375">
        <ele>556</ele>
        <time>2018-06-24T09:39:27.000Z</time>
      </trkpt>
      <trkpt lat="32.779231779277324676513671875" lon="-16.8420039676129817962646484375">
        <ele>555.4000244140625</ele>
        <time>2018-06-24T09:39:28.000Z</time>
      </trkpt>
      <trkpt lat="32.77923521585762500762939453125" lon="-16.842023245990276336669921875">
        <ele>554.79998779296875</ele>
        <time>2018-06-24T09:39:29.000Z</time>
      </trkpt>
      <trkpt lat="32.7792373113334178924560546875" lon="-16.84207387268543243408203125">
        <ele>553.5999755859375</ele>
        <time>2018-06-24T09:39:31.000Z</time>
      </trkpt>
      <trkpt lat="32.77923974208533763885498046875" lon="-16.84212642721831798553466796875">
        <ele>552.20001220703125</ele>
        <time>2018-06-24T09:39:33.000Z</time>
      </trkpt>
      <trkpt lat="32.77925181202590465545654296875" lon="-16.84217520989477634429931640625">
        <ele>550.79998779296875</ele>
        <time>2018-06-24T09:39:35.000Z</time>
      </trkpt>
      <trkpt lat="32.779253907501697540283203125" lon="-16.84222851879894733428955078125">
        <ele>549.4000244140625</ele>
        <time>2018-06-24T09:39:37.000Z</time>
      </trkpt>
      <trkpt lat="32.779247872531414031982421875" lon="-16.84226891957223415374755859375">
        <ele>548.4000244140625</ele>
        <time>2018-06-24T09:39:39.000Z</time>
      </trkpt>
      <trkpt lat="32.77924343012273311614990234375" lon="-16.8422810733318328857421875">
        <ele>548.20001220703125</ele>
        <time>2018-06-24T09:39:40.000Z</time>
      </trkpt>
      <trkpt lat="32.7792544104158878326416015625" lon="-16.84231569059193134307861328125">
        <ele>547.20001220703125</ele>
        <time>2018-06-24T09:39:43.000Z</time>
      </trkpt>
      <trkpt lat="32.77926404960453510284423828125" lon="-16.842321641743183135986328125">
        <ele>546.5999755859375</ele>
        <time>2018-06-24T09:39:44.000Z</time>
      </trkpt>
      <trkpt lat="32.77927930466830730438232421875" lon="-16.842334382236003875732421875">
        <ele>545.79998779296875</ele>
        <time>2018-06-24T09:39:46.000Z</time>
      </trkpt>
      <trkpt lat="32.779286764562129974365234375" lon="-16.842347122728824615478515625">
        <ele>545.4000244140625</ele>
        <time>2018-06-24T09:39:47.000Z</time>
      </trkpt>
      <trkpt lat="32.77929313480854034423828125" lon="-16.8423603661358356475830078125">
        <ele>544.79998779296875</ele>
        <time>2018-06-24T09:39:48.000Z</time>
      </trkpt>
      <trkpt lat="32.7793043665587902069091796875" lon="-16.84239263646304607391357421875">
        <ele>543.5999755859375</ele>
        <time>2018-06-24T09:39:50.000Z</time>
      </trkpt>
      <trkpt lat="32.77932842262089252471923828125" lon="-16.84241711162030696868896484375">
        <ele>542.20001220703125</ele>
        <time>2018-06-24T09:39:52.000Z</time>
      </trkpt>
      <trkpt lat="32.77934166602790355682373046875" lon="-16.8424458615481853485107421875">
        <ele>540.79998779296875</ele>
        <time>2018-06-24T09:39:54.000Z</time>
      </trkpt>
      <trkpt lat="32.779362536966800689697265625" lon="-16.84247595258057117462158203125">
        <ele>539.4000244140625</ele>
        <time>2018-06-24T09:39:56.000Z</time>
      </trkpt>
      <trkpt lat="32.77937385253608226776123046875" lon="-16.842508055269718170166015625">
        <ele>538</ele>
        <time>2018-06-24T09:39:58.000Z</time>
      </trkpt>
      <trkpt lat="32.7793952263891696929931640625" lon="-16.8425427563488483428955078125">
        <ele>536.79998779296875</ele>
        <time>2018-06-24T09:40:00.000Z</time>
      </trkpt>
      <trkpt lat="32.77942129410803318023681640625" lon="-16.8425685726106166839599609375">
        <ele>536</ele>
        <time>2018-06-24T09:40:03.000Z</time>
      </trkpt>
      <trkpt lat="32.77942456305027008056640625" lon="-16.84257552959024906158447265625">
        <ele>535.5999755859375</ele>
        <time>2018-06-24T09:40:04.000Z</time>
      </trkpt>
      <trkpt lat="32.7794290892779827117919921875" lon="-16.842614002525806427001953125">
        <ele>534.5999755859375</ele>
        <time>2018-06-24T09:40:06.000Z</time>
      </trkpt>
      <trkpt lat="32.77942766435444355010986328125" lon="-16.842638812959194183349609375">
        <ele>533.5999755859375</ele>
        <time>2018-06-24T09:40:08.000Z</time>
      </trkpt>
      <trkpt lat="32.77943252585828304290771484375" lon="-16.84265046380460262298583984375">
        <ele>533.20001220703125</ele>
        <time>2018-06-24T09:40:09.000Z</time>
      </trkpt>
      <trkpt lat="32.779442332684993743896484375" lon="-16.8426812253892421722412109375">
        <ele>531.5999755859375</ele>
        <time>2018-06-24T09:40:11.000Z</time>
      </trkpt>
      <trkpt lat="32.7794616110622882843017578125" lon="-16.8427209556102752685546875">
        <ele>530.20001220703125</ele>
        <time>2018-06-24T09:40:13.000Z</time>
      </trkpt>
      <trkpt lat="32.77948700822889804840087890625" lon="-16.842777617275714874267578125">
        <ele>529</ele>
        <time>2018-06-24T09:40:15.000Z</time>
      </trkpt>
      <trkpt lat="32.7795325219631195068359375" lon="-16.8429484404623508453369140625">
        <ele>528.20001220703125</ele>
        <time>2018-06-24T09:40:22.000Z</time>
      </trkpt>
      <trkpt lat="32.7795352041721343994140625" lon="-16.8429635278880596160888671875">
        <ele>527.79998779296875</ele>
        <time>2018-06-24T09:40:23.000Z</time>
      </trkpt>
      <trkpt lat="32.77955993078649044036865234375" lon="-16.842982470989227294921875">
        <ele>527</ele>
        <time>2018-06-24T09:40:25.000Z</time>
      </trkpt>
      <trkpt lat="32.77957250364124774932861328125" lon="-16.842988841235637664794921875">
        <ele>526.79998779296875</ele>
        <time>2018-06-24T09:40:26.000Z</time>
      </trkpt>
      <trkpt lat="32.779594548046588897705078125" lon="-16.8430004082620143890380859375">
        <ele>525.4000244140625</ele>
        <time>2018-06-24T09:40:28.000Z</time>
      </trkpt>
      <trkpt lat="32.77961357496678829193115234375" lon="-16.84300862252712249755859375">
        <ele>524.4000244140625</ele>
        <time>2018-06-24T09:40:30.000Z</time>
      </trkpt>
      <trkpt lat="32.7796342782676219940185546875" lon="-16.84302329085767269134521484375">
        <ele>523</ele>
        <time>2018-06-24T09:40:32.000Z</time>
      </trkpt>
      <trkpt lat="32.7796611003577709197998046875" lon="-16.843046844005584716796875">
        <ele>521.79998779296875</ele>
        <time>2018-06-24T09:40:34.000Z</time>
      </trkpt>
      <trkpt lat="32.77968817390501499176025390625" lon="-16.843051873147487640380859375">
        <ele>520.5999755859375</ele>
        <time>2018-06-24T09:40:36.000Z</time>
      </trkpt>
      <trkpt lat="32.77970761992037296295166015625" lon="-16.8430443294346332550048828125">
        <ele>519.4000244140625</ele>
        <time>2018-06-24T09:40:38.000Z</time>
      </trkpt>
      <trkpt lat="32.77971717528998851776123046875" lon="-16.8430470116436481475830078125">
        <ele>519</ele>
        <time>2018-06-24T09:40:39.000Z</time>
      </trkpt>
      <trkpt lat="32.7797308377921581268310546875" lon="-16.84305296279489994049072265625">
        <ele>518</ele>
        <time>2018-06-24T09:40:41.000Z</time>
      </trkpt>
      <trkpt lat="32.7797519601881504058837890625" lon="-16.8430610932409763336181640625">
        <ele>516.5999755859375</ele>
        <time>2018-06-24T09:40:44.000Z</time>
      </trkpt>
      <trkpt lat="32.7797603420913219451904296875" lon="-16.84305782429873943328857421875">
        <ele>516.4000244140625</ele>
        <time>2018-06-24T09:40:45.000Z</time>
      </trkpt>
      <trkpt lat="32.77977014891803264617919921875" lon="-16.843053884804248809814453125">
        <ele>515.4000244140625</ele>
        <time>2018-06-24T09:40:47.000Z</time>
      </trkpt>
      <trkpt lat="32.77977869845926761627197265625" lon="-16.8430577404797077178955078125">
        <ele>514</ele>
        <time>2018-06-24T09:40:49.000Z</time>
      </trkpt>
      <trkpt lat="32.77978590689599514007568359375" lon="-16.84306972660124301910400390625">
        <ele>513</ele>
        <time>2018-06-24T09:40:51.000Z</time>
      </trkpt>
      <trkpt lat="32.77980543673038482666015625" lon="-16.8430704809725284576416015625">
        <ele>511.79998779296875</ele>
        <time>2018-06-24T09:40:54.000Z</time>
      </trkpt>
      <trkpt lat="32.77982823550701141357421875" lon="-16.84307291172444820404052734375">
        <ele>510.399993896484375</ele>
        <time>2018-06-24T09:40:57.000Z</time>
      </trkpt>
      <trkpt lat="32.77984005399048328399658203125" lon="-16.84309705160558223724365234375">
        <ele>509.20001220703125</ele>
        <time>2018-06-24T09:41:00.000Z</time>
      </trkpt>
      <trkpt lat="32.7798652835190296173095703125" lon="-16.843105517327785491943359375">
        <ele>507.600006103515625</ele>
        <time>2018-06-24T09:41:03.000Z</time>
      </trkpt>
      <trkpt lat="32.77987877838313579559326171875" lon="-16.843112893402576446533203125">
        <ele>506.399993896484375</ele>
        <time>2018-06-24T09:41:05.000Z</time>
      </trkpt>
      <trkpt lat="32.77989202179014682769775390625" lon="-16.843134351074695587158203125">
        <ele>505</ele>
        <time>2018-06-24T09:41:08.000Z</time>
      </trkpt>
      <trkpt lat="32.779910378158092498779296875" lon="-16.84314633719623088836669921875">
        <ele>504</ele>
        <time>2018-06-24T09:41:11.000Z</time>
      </trkpt>
      <trkpt lat="32.7799470908939838409423828125" lon="-16.843137703835964202880859375">
        <ele>502.600006103515625</ele>
        <time>2018-06-24T09:41:16.000Z</time>
      </trkpt>
      <trkpt lat="32.77995052747428417205810546875" lon="-16.84313334524631500244140625">
        <ele>502.20001220703125</ele>
        <time>2018-06-24T09:41:17.000Z</time>
      </trkpt>
      <trkpt lat="32.779962681233882904052734375" lon="-16.84312923811376094818115234375">
        <ele>501.399993896484375</ele>
        <time>2018-06-24T09:41:19.000Z</time>
      </trkpt>
      <trkpt lat="32.779974080622196197509765625" lon="-16.8431335128843784332275390625">
        <ele>500</ele>
        <time>2018-06-24T09:41:22.000Z</time>
      </trkpt>
      <trkpt lat="32.7799906767904758453369140625" lon="-16.84314365498721599578857421875">
        <ele>498.600006103515625</ele>
        <time>2018-06-24T09:41:24.000Z</time>
      </trkpt>
      <trkpt lat="32.7800071053206920623779296875" lon="-16.8431455828249454498291015625">
        <ele>497.399993896484375</ele>
        <time>2018-06-24T09:41:27.000Z</time>
      </trkpt>
      <trkpt lat="32.78001724742352962493896484375" lon="-16.8431365303695201873779296875">
        <ele>496.399993896484375</ele>
        <time>2018-06-24T09:41:29.000Z</time>
      </trkpt>
      <trkpt lat="32.78004323132336139678955078125" lon="-16.8431340157985687255859375">
        <ele>495</ele>
        <time>2018-06-24T09:41:32.000Z</time>
      </trkpt>
      <trkpt lat="32.7800671197474002838134765625" lon="-16.8431442417204380035400390625">
        <ele>493.600006103515625</ele>
        <time>2018-06-24T09:41:35.000Z</time>
      </trkpt>
      <trkpt lat="32.78009335510432720184326171875" lon="-16.8431527912616729736328125">
        <ele>492.20001220703125</ele>
        <time>2018-06-24T09:41:37.000Z</time>
      </trkpt>
      <trkpt lat="32.78010475449264049530029296875" lon="-16.8431568145751953125">
        <ele>491.600006103515625</ele>
        <time>2018-06-24T09:41:38.000Z</time>
      </trkpt>
      <trkpt lat="32.7801306545734405517578125" lon="-16.84316092170774936676025390625">
        <ele>490.399993896484375</ele>
        <time>2018-06-24T09:41:40.000Z</time>
      </trkpt>
      <trkpt lat="32.78016217052936553955078125" lon="-16.84317014180123805999755859375">
        <ele>489.399993896484375</ele>
        <time>2018-06-24T09:41:42.000Z</time>
      </trkpt>
      <trkpt lat="32.78019594959914684295654296875" lon="-16.84318942017853260040283203125">
        <ele>488.20001220703125</ele>
        <time>2018-06-24T09:41:44.000Z</time>
      </trkpt>
      <trkpt lat="32.780244648456573486328125" lon="-16.84322378598153591156005859375">
        <ele>486.600006103515625</ele>
        <time>2018-06-24T09:41:47.000Z</time>
      </trkpt>
      <trkpt lat="32.78030072338879108428955078125" lon="-16.843266449868679046630859375">
        <ele>485.399993896484375</ele>
        <time>2018-06-24T09:41:50.000Z</time>
      </trkpt>
      <trkpt lat="32.78044355101883411407470703125" lon="-16.8433980457484722137451171875">
        <ele>485.600006103515625</ele>
        <time>2018-06-24T09:41:58.000Z</time>
      </trkpt>
      <trkpt lat="32.7805142104625701904296875" lon="-16.8434597365558147430419921875">
        <ele>484</ele>
        <time>2018-06-24T09:42:02.000Z</time>
      </trkpt>
      <trkpt lat="32.78055352158844470977783203125" lon="-16.8434765003621578216552734375">
        <ele>482.79998779296875</ele>
        <time>2018-06-24T09:42:04.000Z</time>
      </trkpt>
      <trkpt lat="32.78059911914169788360595703125" lon="-16.84350860305130481719970703125">
        <ele>482</ele>
        <time>2018-06-24T09:42:06.000Z</time>
      </trkpt>
      <trkpt lat="32.7806595526635646820068359375" lon="-16.8435398675501346588134765625">
        <ele>480.79998779296875</ele>
        <time>2018-06-24T09:42:09.000Z</time>
      </trkpt>
      <trkpt lat="32.780735827982425689697265625" lon="-16.84356878511607646942138671875">
        <ele>480.600006103515625</ele>
        <time>2018-06-24T09:42:13.000Z</time>
      </trkpt>
      <trkpt lat="32.7807624824345111846923828125" lon="-16.843559481203556060791015625">
        <ele>479.399993896484375</ele>
        <time>2018-06-24T09:42:15.000Z</time>
      </trkpt>
      <trkpt lat="32.78077413327991962432861328125" lon="-16.8435425497591495513916015625">
        <ele>478.20001220703125</ele>
        <time>2018-06-24T09:42:17.000Z</time>
      </trkpt>
      <trkpt lat="32.78079709969460964202880859375" lon="-16.84353031218051910400390625">
        <ele>477</ele>
        <time>2018-06-24T09:42:19.000Z</time>
      </trkpt>
      <trkpt lat="32.78084923513233661651611328125" lon="-16.8435314856469631195068359375">
        <ele>475</ele>
        <time>2018-06-24T09:42:22.000Z</time>
      </trkpt>
      <trkpt lat="32.78088326565921306610107421875" lon="-16.8435368500649929046630859375">
        <ele>474</ele>
        <time>2018-06-24T09:42:24.000Z</time>
      </trkpt>
      <trkpt lat="32.7809143625199794769287109375" lon="-16.84354447759687900543212890625">
        <ele>472.79998779296875</ele>
        <time>2018-06-24T09:42:26.000Z</time>
      </trkpt>
      <trkpt lat="32.78094395063817501068115234375" lon="-16.84354732744395732879638671875">
        <ele>471.20001220703125</ele>
        <time>2018-06-24T09:42:28.000Z</time>
      </trkpt>
      <trkpt lat="32.7809804119169712066650390625" lon="-16.8435489200055599212646484375">
        <ele>469.79998779296875</ele>
        <time>2018-06-24T09:42:30.000Z</time>
      </trkpt>
      <trkpt lat="32.78101301752030849456787109375" lon="-16.84355554170906543731689453125">
        <ele>468.600006103515625</ele>
        <time>2018-06-24T09:42:32.000Z</time>
      </trkpt>
      <trkpt lat="32.78104688040912151336669921875" lon="-16.8435606546700000762939453125">
        <ele>467</ele>
        <time>2018-06-24T09:42:34.000Z</time>
      </trkpt>
      <trkpt lat="32.78108543716371059417724609375" lon="-16.84356627054512500762939453125">
        <ele>465.600006103515625</ele>
        <time>2018-06-24T09:42:36.000Z</time>
      </trkpt>
      <trkpt lat="32.7811148576438426971435546875" lon="-16.843566186726093292236328125">
        <ele>464.399993896484375</ele>
        <time>2018-06-24T09:42:38.000Z</time>
      </trkpt>
      <trkpt lat="32.78113690204918384552001953125" lon="-16.843564845621585845947265625">
        <ele>463.20001220703125</ele>
        <time>2018-06-24T09:42:40.000Z</time>
      </trkpt>
      <trkpt lat="32.78115601278841495513916015625" lon="-16.8435685336589813232421875">
        <ele>462.600006103515625</ele>
        <time>2018-06-24T09:42:41.000Z</time>
      </trkpt>
      <trkpt lat="32.78117260895669460296630859375" lon="-16.84357197023928165435791015625">
        <ele>461.79998779296875</ele>
        <time>2018-06-24T09:42:42.000Z</time>
      </trkpt>
      <trkpt lat="32.781200520694255828857421875" lon="-16.843561492860317230224609375">
        <ele>460.79998779296875</ele>
        <time>2018-06-24T09:42:44.000Z</time>
      </trkpt>
      <trkpt lat="32.78120999224483966827392578125" lon="-16.84353676624596118927001953125">
        <ele>459.600006103515625</ele>
        <time>2018-06-24T09:42:46.000Z</time>
      </trkpt>
      <trkpt lat="32.78124016709625720977783203125" lon="-16.8435304798185825347900390625">
        <ele>458</ele>
        <time>2018-06-24T09:42:49.000Z</time>
      </trkpt>
      <trkpt lat="32.78127034194767475128173828125" lon="-16.84353441931307315826416015625">
        <ele>457</ele>
        <time>2018-06-24T09:42:51.000Z</time>
      </trkpt>
      <trkpt lat="32.78129875659942626953125" lon="-16.8435288034379482269287109375">
        <ele>455.79998779296875</ele>
        <time>2018-06-24T09:42:53.000Z</time>
      </trkpt>
      <trkpt lat="32.78131644241511821746826171875" lon="-16.84350625611841678619384765625">
        <ele>454.600006103515625</ele>
        <time>2018-06-24T09:42:55.000Z</time>
      </trkpt>
      <trkpt lat="32.78133672662079334259033203125" lon="-16.8434956111013889312744140625">
        <ele>453.399993896484375</ele>
        <time>2018-06-24T09:42:57.000Z</time>
      </trkpt>
      <trkpt lat="32.781365811824798583984375" lon="-16.8434895761311054229736328125">
        <ele>452.20001220703125</ele>
        <time>2018-06-24T09:42:59.000Z</time>
      </trkpt>
      <trkpt lat="32.781382910907268524169921875" lon="-16.843492425978183746337890625">
        <ele>451.399993896484375</ele>
        <time>2018-06-24T09:43:00.000Z</time>
      </trkpt>
      <trkpt lat="32.78139556758105754852294921875" lon="-16.8434959463775157928466796875">
        <ele>451</ele>
        <time>2018-06-24T09:43:01.000Z</time>
      </trkpt>
      <trkpt lat="32.78143932111561298370361328125" lon="-16.8435100279748439788818359375">
        <ele>449.399993896484375</ele>
        <time>2018-06-24T09:43:04.000Z</time>
      </trkpt>
      <trkpt lat="32.78147435747087001800537109375" lon="-16.84350349009037017822265625">
        <ele>448.399993896484375</ele>
        <time>2018-06-24T09:43:06.000Z</time>
      </trkpt>
      <trkpt lat="32.781518362462520599365234375" lon="-16.8435070104897022247314453125">
        <ele>447.20001220703125</ele>
        <time>2018-06-24T09:43:08.000Z</time>
      </trkpt>
      <trkpt lat="32.78158642351627349853515625" lon="-16.8434992991387844085693359375">
        <ele>445.79998779296875</ele>
        <time>2018-06-24T09:43:11.000Z</time>
      </trkpt>
      <trkpt lat="32.7816291712224483489990234375" lon="-16.84349368326365947723388671875">
        <ele>444.79998779296875</ele>
        <time>2018-06-24T09:43:13.000Z</time>
      </trkpt>
      <trkpt lat="32.78166697360575199127197265625" lon="-16.8434875644743442535400390625">
        <ele>443.79998779296875</ele>
        <time>2018-06-24T09:43:15.000Z</time>
      </trkpt>
      <trkpt lat="32.78171860612928867340087890625" lon="-16.84348882175981998443603515625">
        <ele>442.79998779296875</ele>
        <time>2018-06-24T09:43:17.000Z</time>
      </trkpt>
      <trkpt lat="32.78190636076033115386962890625" lon="-16.8434895761311054229736328125">
        <ele>441.600006103515625</ele>
        <time>2018-06-24T09:43:24.000Z</time>
      </trkpt>
      <trkpt lat="32.7820345200598239898681640625" lon="-16.843447498977184295654296875">
        <ele>440.600006103515625</ele>
        <time>2018-06-24T09:43:29.000Z</time>
      </trkpt>
      <trkpt lat="32.78222185559570789337158203125" lon="-16.84344959445297718048095703125">
        <ele>440.600006103515625</ele>
        <time>2018-06-24T09:43:37.000Z</time>
      </trkpt>
      <trkpt lat="32.7823000587522983551025390625" lon="-16.84342696331441402435302734375">
        <ele>439</ele>
        <time>2018-06-24T09:43:41.000Z</time>
      </trkpt>
      <trkpt lat="32.78231590054929256439208984375" lon="-16.843422688543796539306640625">
        <ele>438.600006103515625</ele>
        <time>2018-06-24T09:43:42.000Z</time>
      </trkpt>
      <trkpt lat="32.78233031742274761199951171875" lon="-16.84342780150473117828369140625">
        <ele>438</ele>
        <time>2018-06-24T09:43:43.000Z</time>
      </trkpt>
      <trkpt lat="32.782358564436435699462890625" lon="-16.84344582259654998779296875">
        <ele>436.79998779296875</ele>
        <time>2018-06-24T09:43:45.000Z</time>
      </trkpt>
      <trkpt lat="32.78238278813660144805908203125" lon="-16.84345831163227558135986328125">
        <ele>435.399993896484375</ele>
        <time>2018-06-24T09:43:47.000Z</time>
      </trkpt>
      <trkpt lat="32.782406844198703765869140625" lon="-16.8434721417725086212158203125">
        <ele>434.20001220703125</ele>
        <time>2018-06-24T09:43:49.000Z</time>
      </trkpt>
      <trkpt lat="32.78242654167115688323974609375" lon="-16.8434872291982173919677734375">
        <ele>432.79998779296875</ele>
        <time>2018-06-24T09:43:51.000Z</time>
      </trkpt>
      <trkpt lat="32.7824596501886844635009765625" lon="-16.84350885450839996337890625">
        <ele>431.399993896484375</ele>
        <time>2018-06-24T09:43:53.000Z</time>
      </trkpt>
      <trkpt lat="32.78249979950487613677978515625" lon="-16.84353743679821491241455078125">
        <ele>430.20001220703125</ele>
        <time>2018-06-24T09:43:55.000Z</time>
      </trkpt>
      <trkpt lat="32.7825956046581268310546875" lon="-16.8435931764543056488037109375">
        <ele>429.20001220703125</ele>
        <time>2018-06-24T09:43:59.000Z</time>
      </trkpt>
      <trkpt lat="32.78276785276830196380615234375" lon="-16.84366534464061260223388671875">
        <ele>430</ele>
        <time>2018-06-24T09:44:07.000Z</time>
      </trkpt>
      <trkpt lat="32.78278428129851818084716796875" lon="-16.84367020614445209503173828125">
        <ele>430.399993896484375</ele>
        <time>2018-06-24T09:44:08.000Z</time>
      </trkpt>
      <trkpt lat="32.78282937593758106231689453125" lon="-16.8436796776950359344482421875">
        <ele>431.600006103515625</ele>
        <time>2018-06-24T09:44:11.000Z</time>
      </trkpt>
      <trkpt lat="32.78286323882639408111572265625" lon="-16.84368831105530261993408203125">
        <ele>432.399993896484375</ele>
        <time>2018-06-24T09:44:13.000Z</time>
      </trkpt>
      <trkpt lat="32.78299315832555294036865234375" lon="-16.84384169988334178924560546875">
        <ele>430.399993896484375</ele>
        <time>2018-06-24T09:44:21.000Z</time>
      </trkpt>
      <trkpt lat="32.78305359184741973876953125" lon="-16.84389098547399044036865234375">
        <ele>429</ele>
        <time>2018-06-24T09:44:24.000Z</time>
      </trkpt>
      <trkpt lat="32.78309005312621593475341796875" lon="-16.84391512535512447357177734375">
        <ele>427.79998779296875</ele>
        <time>2018-06-24T09:44:26.000Z</time>
      </trkpt>
      <trkpt lat="32.7831293642520904541015625" lon="-16.8439344875514507293701171875">
        <ele>426.600006103515625</ele>
        <time>2018-06-24T09:44:28.000Z</time>
      </trkpt>
      <trkpt lat="32.783173620700836181640625" lon="-16.84397782199084758758544921875">
        <ele>425.399993896484375</ele>
        <time>2018-06-24T09:44:31.000Z</time>
      </trkpt>
      <trkpt lat="32.7831999398767948150634765625" lon="-16.843996010720729827880859375">
        <ele>424.399993896484375</ele>
        <time>2018-06-24T09:44:33.000Z</time>
      </trkpt>
      <trkpt lat="32.7832210622727870941162109375" lon="-16.84399609453976154327392578125">
        <ele>423.399993896484375</ele>
        <time>2018-06-24T09:44:34.000Z</time>
      </trkpt>
      <trkpt lat="32.78326104395091533660888671875" lon="-16.84400833211839199066162109375">
        <ele>422</ele>
        <time>2018-06-24T09:44:36.000Z</time>
      </trkpt>
      <trkpt lat="32.7833078987896442413330078125" lon="-16.844032891094684600830078125">
        <ele>420.79998779296875</ele>
        <time>2018-06-24T09:44:38.000Z</time>
      </trkpt>
      <trkpt lat="32.78335676528513431549072265625" lon="-16.8440628983080387115478515625">
        <ele>419.399993896484375</ele>
        <time>2018-06-24T09:44:40.000Z</time>
      </trkpt>
      <trkpt lat="32.78341032564640045166015625" lon="-16.84409759938716888427734375">
        <ele>418.20001220703125</ele>
        <time>2018-06-24T09:44:42.000Z</time>
      </trkpt>
      <trkpt lat="32.78347344137728214263916015625" lon="-16.84414051473140716552734375">
        <ele>416.79998779296875</ele>
        <time>2018-06-24T09:44:45.000Z</time>
      </trkpt>
      <trkpt lat="32.78366790153086185455322265625" lon="-16.84415794909000396728515625">
        <ele>417</ele>
        <time>2018-06-24T09:44:53.000Z</time>
      </trkpt>
      <trkpt lat="32.7837611921131610870361328125" lon="-16.84415124356746673583984375">
        <ele>418</ele>
        <time>2018-06-24T09:44:57.000Z</time>
      </trkpt>
      <trkpt lat="32.78393427841365337371826171875" lon="-16.84408779256045818328857421875">
        <ele>418.79998779296875</ele>
        <time>2018-06-24T09:45:06.000Z</time>
      </trkpt>
      <trkpt lat="32.78395154513418674468994140625" lon="-16.8440736271440982818603515625">
        <ele>419</ele>
        <time>2018-06-24T09:45:07.000Z</time>
      </trkpt>
      <trkpt lat="32.7840196900069713592529296875" lon="-16.843979917466640472412109375">
        <ele>418</ele>
        <time>2018-06-24T09:45:11.000Z</time>
      </trkpt>
      <trkpt lat="32.7840823866426944732666015625" lon="-16.843927614390850067138671875">
        <ele>417</ele>
        <time>2018-06-24T09:45:14.000Z</time>
      </trkpt>
      <trkpt lat="32.7841075323522090911865234375" lon="-16.8438805080950260162353515625">
        <ele>415.399993896484375</ele>
        <time>2018-06-24T09:45:17.000Z</time>
      </trkpt>
      <trkpt lat="32.78411331586539745330810546875" lon="-16.84385091997683048248291015625">
        <ele>413.79998779296875</ele>
        <time>2018-06-24T09:45:19.000Z</time>
      </trkpt>
      <trkpt lat="32.784116081893444061279296875" lon="-16.8438421189785003662109375">
        <ele>413.20001220703125</ele>
        <time>2018-06-24T09:45:20.000Z</time>
      </trkpt>
      <trkpt lat="32.78412111103534698486328125" lon="-16.8438328988850116729736328125">
        <ele>412.79998779296875</ele>
        <time>2018-06-24T09:45:21.000Z</time>
      </trkpt>
      <trkpt lat="32.7841373719274997711181640625" lon="-16.8437973596155643463134765625">
        <ele>411.600006103515625</ele>
        <time>2018-06-24T09:45:25.000Z</time>
      </trkpt>
      <trkpt lat="32.7841393835842609405517578125" lon="-16.84377917088568210601806640625">
        <ele>410.20001220703125</ele>
        <time>2018-06-24T09:45:28.000Z</time>
      </trkpt>
      <trkpt lat="32.78413712047040462493896484375" lon="-16.8437561206519603729248046875">
        <ele>408.600006103515625</ele>
        <time>2018-06-24T09:45:31.000Z</time>
      </trkpt>
      <trkpt lat="32.78413158841431140899658203125" lon="-16.8437363393604755401611328125">
        <ele>407.399993896484375</ele>
        <time>2018-06-24T09:45:33.000Z</time>
      </trkpt>
      <trkpt lat="32.78413007967174053192138671875" lon="-16.84370574541389942169189453125">
        <ele>406</ele>
        <time>2018-06-24T09:45:35.000Z</time>
      </trkpt>
      <trkpt lat="32.78413854539394378662109375" lon="-16.8436806835234165191650390625">
        <ele>404.600006103515625</ele>
        <time>2018-06-24T09:45:38.000Z</time>
      </trkpt>
      <trkpt lat="32.78415329754352569580078125" lon="-16.8436666019260883331298828125">
        <ele>403.399993896484375</ele>
        <time>2018-06-24T09:45:40.000Z</time>
      </trkpt>
      <trkpt lat="32.7841672115027904510498046875" lon="-16.84364497661590576171875">
        <ele>402</ele>
        <time>2018-06-24T09:45:43.000Z</time>
      </trkpt>
      <trkpt lat="32.78416209854185581207275390625" lon="-16.8436213396489620208740234375">
        <ele>401</ele>
        <time>2018-06-24T09:45:45.000Z</time>
      </trkpt>
      <trkpt lat="32.7841608412563800811767578125" lon="-16.84360080398619174957275390625">
        <ele>399.399993896484375</ele>
        <time>2018-06-24T09:45:48.000Z</time>
      </trkpt>
      <trkpt lat="32.7841566503047943115234375" lon="-16.84356861747801303863525390625">
        <ele>398.399993896484375</ele>
        <time>2018-06-24T09:45:50.000Z</time>
      </trkpt>
      <trkpt lat="32.7841363660991191864013671875" lon="-16.843542046844959259033203125">
        <ele>397.20001220703125</ele>
        <time>2018-06-24T09:45:53.000Z</time>
      </trkpt>
      <trkpt lat="32.7841239608824253082275390625" lon="-16.84352352283895015716552734375">
        <ele>396</ele>
        <time>2018-06-24T09:45:55.000Z</time>
      </trkpt>
      <trkpt lat="32.78411482460796833038330078125" lon="-16.84350240044295787811279296875">
        <ele>395</ele>
        <time>2018-06-24T09:45:57.000Z</time>
      </trkpt>
      <trkpt lat="32.78410744853317737579345703125" lon="-16.84347976930439472198486328125">
        <ele>393.600006103515625</ele>
        <time>2018-06-24T09:45:59.000Z</time>
      </trkpt>
      <trkpt lat="32.78412647545337677001953125" lon="-16.8434567190706729888916015625">
        <ele>392.600006103515625</ele>
        <time>2018-06-24T09:46:01.000Z</time>
      </trkpt>
      <trkpt lat="32.784136869013309478759765625" lon="-16.84343417175114154815673828125">
        <ele>391.399993896484375</ele>
        <time>2018-06-24T09:46:03.000Z</time>
      </trkpt>
      <trkpt lat="32.78415857814252376556396484375" lon="-16.843422688543796539306640625">
        <ele>390.399993896484375</ele>
        <time>2018-06-24T09:46:05.000Z</time>
      </trkpt>
      <trkpt lat="32.784173749387264251708984375" lon="-16.84339888393878936767578125">
        <ele>389</ele>
        <time>2018-06-24T09:46:07.000Z</time>
      </trkpt>
      <trkpt lat="32.78418489731848239898681640625" lon="-16.84338069520890712738037109375">
        <ele>387.79998779296875</ele>
        <time>2018-06-24T09:46:09.000Z</time>
      </trkpt>
      <trkpt lat="32.7841990627348423004150390625" lon="-16.84336627833545207977294921875">
        <ele>386.600006103515625</ele>
        <time>2018-06-24T09:46:11.000Z</time>
      </trkpt>
      <trkpt lat="32.78421339578926563262939453125" lon="-16.843357644975185394287109375">
        <ele>385.399993896484375</ele>
        <time>2018-06-24T09:46:13.000Z</time>
      </trkpt>
      <trkpt lat="32.78422060422599315643310546875" lon="-16.8433306552469730377197265625">
        <ele>383.79998779296875</ele>
        <time>2018-06-24T09:46:15.000Z</time>
      </trkpt>
      <trkpt lat="32.7842248789966106414794921875" lon="-16.843306683003902435302734375">
        <ele>382.600006103515625</ele>
        <time>2018-06-24T09:46:17.000Z</time>
      </trkpt>
      <trkpt lat="32.78421490453183650970458984375" lon="-16.8432894162833690643310546875">
        <ele>381.600006103515625</ele>
        <time>2018-06-24T09:46:19.000Z</time>
      </trkpt>
      <trkpt lat="32.78423133306205272674560546875" lon="-16.84326988644897937774658203125">
        <ele>380.399993896484375</ele>
        <time>2018-06-24T09:46:21.000Z</time>
      </trkpt>
      <trkpt lat="32.7842483483254909515380859375" lon="-16.8432605825364589691162109375">
        <ele>379.399993896484375</ele>
        <time>2018-06-24T09:46:23.000Z</time>
      </trkpt>
      <trkpt lat="32.7842701412737369537353515625" lon="-16.84325002133846282958984375">
        <ele>378.20001220703125</ele>
        <time>2018-06-24T09:46:26.000Z</time>
      </trkpt>
      <trkpt lat="32.7843014895915985107421875" lon="-16.84323635883629322052001953125">
        <ele>376.600006103515625</ele>
        <time>2018-06-24T09:46:29.000Z</time>
      </trkpt>
      <trkpt lat="32.7843177504837512969970703125" lon="-16.84322185814380645751953125">
        <ele>375.399993896484375</ele>
        <time>2018-06-24T09:46:31.000Z</time>
      </trkpt>
      <trkpt lat="32.78432990424335002899169921875" lon="-16.84319880791008472442626953125">
        <ele>374</ele>
        <time>2018-06-24T09:46:33.000Z</time>
      </trkpt>
      <trkpt lat="32.78434331528842449188232421875" lon="-16.8431781046092510223388671875">
        <ele>372.600006103515625</ele>
        <time>2018-06-24T09:46:35.000Z</time>
      </trkpt>
      <trkpt lat="32.78436359949409961700439453125" lon="-16.843159161508083343505859375">
        <ele>370.79998779296875</ele>
        <time>2018-06-24T09:46:37.000Z</time>
      </trkpt>
      <trkpt lat="32.78438790701329708099365234375" lon="-16.8431492708623409271240234375">
        <ele>369.399993896484375</ele>
        <time>2018-06-24T09:46:39.000Z</time>
      </trkpt>
      <trkpt lat="32.7844220213592052459716796875" lon="-16.84315153397619724273681640625">
        <ele>367.600006103515625</ele>
        <time>2018-06-24T09:46:42.000Z</time>
      </trkpt>
      <trkpt lat="32.78445496223866939544677734375" lon="-16.84315186925232410430908203125">
        <ele>366.600006103515625</ele>
        <time>2018-06-24T09:46:44.000Z</time>
      </trkpt>
      <trkpt lat="32.7844863943755626678466796875" lon="-16.8431693874299526214599609375">
        <ele>365.399993896484375</ele>
        <time>2018-06-24T09:46:47.000Z</time>
      </trkpt>
      <trkpt lat="32.78451732359826564788818359375" lon="-16.843170560896396636962890625">
        <ele>364</ele>
        <time>2018-06-24T09:46:49.000Z</time>
      </trkpt>
      <trkpt lat="32.7845467440783977508544921875" lon="-16.84316821396350860595703125">
        <ele>362.79998779296875</ele>
        <time>2018-06-24T09:46:51.000Z</time>
      </trkpt>
      <trkpt lat="32.7845702134072780609130859375" lon="-16.843161843717098236083984375">
        <ele>361.600006103515625</ele>
        <time>2018-06-24T09:46:53.000Z</time>
      </trkpt>
      <trkpt lat="32.78459359891712665557861328125" lon="-16.8431499414145946502685546875">
        <ele>360.20001220703125</ele>
        <time>2018-06-24T09:46:55.000Z</time>
      </trkpt>
      <trkpt lat="32.78461991809308528900146484375" lon="-16.8431459181010723114013671875">
        <ele>359.20001220703125</ele>
        <time>2018-06-24T09:46:57.000Z</time>
      </trkpt>
      <trkpt lat="32.78464841656386852264404296875" lon="-16.84312789700925350189208984375">
        <ele>358</ele>
        <time>2018-06-24T09:46:59.000Z</time>
      </trkpt>
      <trkpt lat="32.7846858836710453033447265625" lon="-16.8431201018393039703369140625">
        <ele>356.600006103515625</ele>
        <time>2018-06-24T09:47:01.000Z</time>
      </trkpt>
      <trkpt lat="32.78471949510276317596435546875" lon="-16.8431150726974010467529296875">
        <ele>355.20001220703125</ele>
        <time>2018-06-24T09:47:03.000Z</time>
      </trkpt>
      <trkpt lat="32.7847519330680370330810546875" lon="-16.8431026674807071685791015625">
        <ele>354</ele>
        <time>2018-06-24T09:47:05.000Z</time>
      </trkpt>
      <trkpt lat="32.78477934189140796661376953125" lon="-16.84310249984264373779296875">
        <ele>353.20001220703125</ele>
        <time>2018-06-24T09:47:07.000Z</time>
      </trkpt>
      <trkpt lat="32.78479258529841899871826171875" lon="-16.84310392476618289947509765625">
        <ele>352.79998779296875</ele>
        <time>2018-06-24T09:47:08.000Z</time>
      </trkpt>
      <trkpt lat="32.78480398468673229217529296875" lon="-16.84309981763362884521484375">
        <ele>352.399993896484375</ele>
        <time>2018-06-24T09:47:09.000Z</time>
      </trkpt>
      <trkpt lat="32.7848166413605213165283203125" lon="-16.84309135191142559051513671875">
        <ele>351.600006103515625</ele>
        <time>2018-06-24T09:47:10.000Z</time>
      </trkpt>
      <trkpt lat="32.78484824113547801971435546875" lon="-16.8430875800549983978271484375">
        <ele>350.600006103515625</ele>
        <time>2018-06-24T09:47:12.000Z</time>
      </trkpt>
      <trkpt lat="32.78486886061728000640869140625" lon="-16.84309001080691814422607421875">
        <ele>350</ele>
        <time>2018-06-24T09:47:13.000Z</time>
      </trkpt>
      <trkpt lat="32.784926109015941619873046875" lon="-16.84310962446033954620361328125">
        <ele>348.79998779296875</ele>
        <time>2018-06-24T09:47:16.000Z</time>
      </trkpt>
      <trkpt lat="32.78495117090642452239990234375" lon="-16.84312622062861919403076171875">
        <ele>347.79998779296875</ele>
        <time>2018-06-24T09:47:18.000Z</time>
      </trkpt>
      <trkpt lat="32.78497564606368541717529296875" lon="-16.84313468635082244873046875">
        <ele>346.600006103515625</ele>
        <time>2018-06-24T09:47:20.000Z</time>
      </trkpt>
      <trkpt lat="32.7849966846406459808349609375" lon="-16.8431361950933933258056640625">
        <ele>345.600006103515625</ele>
        <time>2018-06-24T09:47:22.000Z</time>
      </trkpt>
      <trkpt lat="32.78503783978521823883056640625" lon="-16.84316284954547882080078125">
        <ele>344.399993896484375</ele>
        <time>2018-06-24T09:47:27.000Z</time>
      </trkpt>
      <trkpt lat="32.78504513204097747802734375" lon="-16.84316628612577915191650390625">
        <ele>343.79998779296875</ele>
        <time>2018-06-24T09:47:28.000Z</time>
      </trkpt>
      <trkpt lat="32.7850523404777050018310546875" lon="-16.84316016733646392822265625">
        <ele>343.20001220703125</ele>
        <time>2018-06-24T09:47:29.000Z</time>
      </trkpt>
      <trkpt lat="32.78506784699857234954833984375" lon="-16.84315253980457782745361328125">
        <ele>342.20001220703125</ele>
        <time>2018-06-24T09:47:31.000Z</time>
      </trkpt>
      <trkpt lat="32.78508008457720279693603515625" lon="-16.8431469239294528961181640625">
        <ele>341.79998779296875</ele>
        <time>2018-06-24T09:47:32.000Z</time>
      </trkpt>
      <trkpt lat="32.7850979380309581756591796875" lon="-16.843135692179203033447265625">
        <ele>340.399993896484375</ele>
        <time>2018-06-24T09:47:34.000Z</time>
      </trkpt>
      <trkpt lat="32.78513096272945404052734375" lon="-16.84311926364898681640625">
        <ele>339</ele>
        <time>2018-06-24T09:47:36.000Z</time>
      </trkpt>
      <trkpt lat="32.78519843704998493194580078125" lon="-16.8430905975401401519775390625">
        <ele>337.79998779296875</ele>
        <time>2018-06-24T09:47:39.000Z</time>
      </trkpt>
      <trkpt lat="32.7852525003254413604736328125" lon="-16.84310895390808582305908203125">
        <ele>336.600006103515625</ele>
        <time>2018-06-24T09:47:42.000Z</time>
      </trkpt>
      <trkpt lat="32.78530807234346866607666015625" lon="-16.84313124977052211761474609375">
        <ele>335.600006103515625</ele>
        <time>2018-06-24T09:47:46.000Z</time>
      </trkpt>
      <trkpt lat="32.785333804786205291748046875" lon="-16.8431227840483188629150390625">
        <ele>334.399993896484375</ele>
        <time>2018-06-24T09:47:48.000Z</time>
      </trkpt>
      <trkpt lat="32.78535953722894191741943359375" lon="-16.84309973381459712982177734375">
        <ele>332.600006103515625</ele>
        <time>2018-06-24T09:47:50.000Z</time>
      </trkpt>
      <trkpt lat="32.78539189137518405914306640625" lon="-16.84308213181793689727783203125">
        <ele>331.20001220703125</ele>
        <time>2018-06-24T09:47:52.000Z</time>
      </trkpt>
      <trkpt lat="32.785443104803562164306640625" lon="-16.84305078350007534027099609375">
        <ele>330</ele>
        <time>2018-06-24T09:47:55.000Z</time>
      </trkpt>
      <trkpt lat="32.78547428548336029052734375" lon="-16.84303033165633678436279296875">
        <ele>328.79998779296875</ele>
        <time>2018-06-24T09:47:57.000Z</time>
      </trkpt>
      <trkpt lat="32.78554880060255527496337890625" lon="-16.84304072521626949310302734375">
        <ele>328.20001220703125</ele>
        <time>2018-06-24T09:48:02.000Z</time>
      </trkpt>
      <trkpt lat="32.785701937973499298095703125" lon="-16.842991523444652557373046875">
        <ele>327.79998779296875</ele>
        <time>2018-06-24T09:48:09.000Z</time>
      </trkpt>
      <trkpt lat="32.78578408062458038330078125" lon="-16.842970736324787139892578125">
        <ele>328</ele>
        <time>2018-06-24T09:48:13.000Z</time>
      </trkpt>
      <trkpt lat="32.78587670065462589263916015625" lon="-16.842876188457012176513671875">
        <ele>326.20001220703125</ele>
        <time>2018-06-24T09:48:21.000Z</time>
      </trkpt>
      <trkpt lat="32.78590352274477481842041015625" lon="-16.84285582043230533599853515625">
        <ele>325.20001220703125</ele>
        <time>2018-06-24T09:48:23.000Z</time>
      </trkpt>
      <trkpt lat="32.7859220467507839202880859375" lon="-16.8428495340049266815185546875">
        <ele>324.79998779296875</ele>
        <time>2018-06-24T09:48:24.000Z</time>
      </trkpt>
      <trkpt lat="32.786011733114719390869140625" lon="-16.842869482934474945068359375">
        <ele>323.79998779296875</ele>
        <time>2018-06-24T09:48:28.000Z</time>
      </trkpt>
      <trkpt lat="32.7860913611948490142822265625" lon="-16.84290460310876369476318359375">
        <ele>322.600006103515625</ele>
        <time>2018-06-24T09:48:32.000Z</time>
      </trkpt>
      <trkpt lat="32.78620812110602855682373046875" lon="-16.8429437465965747833251953125">
        <ele>321</ele>
        <time>2018-06-24T09:48:38.000Z</time>
      </trkpt>
      <trkpt lat="32.786255143582820892333984375" lon="-16.84294936247169971466064453125">
        <ele>320</ele>
        <time>2018-06-24T09:48:40.000Z</time>
      </trkpt>
      <trkpt lat="32.78638078831136226654052734375" lon="-16.84298171661794185638427734375">
        <ele>318.79998779296875</ele>
        <time>2018-06-24T09:48:45.000Z</time>
      </trkpt>
      <trkpt lat="32.786438204348087310791015625" lon="-16.84301373548805713653564453125">
        <ele>317.600006103515625</ele>
        <time>2018-06-24T09:48:48.000Z</time>
      </trkpt>
      <trkpt lat="32.78652847744524478912353515625" lon="-16.84310358949005603790283203125">
        <ele>316.399993896484375</ele>
        <time>2018-06-24T09:48:55.000Z</time>
      </trkpt>
      <trkpt lat="32.7865768410265445709228515625" lon="-16.84315036050975322723388671875">
        <ele>315</ele>
        <time>2018-06-24T09:48:58.000Z</time>
      </trkpt>
      <trkpt lat="32.78658748604357242584228515625" lon="-16.84322479180991649627685546875">
        <ele>314</ele>
        <time>2018-06-24T09:49:01.000Z</time>
      </trkpt>
      <trkpt lat="32.78657256625592708587646484375" lon="-16.84324197471141815185546875">
        <ele>313.79998779296875</ele>
        <time>2018-06-24T09:49:02.000Z</time>
      </trkpt>
      <trkpt lat="32.78652696870267391204833984375" lon="-16.843279860913753509521484375">
        <ele>312.79998779296875</ele>
        <time>2018-06-24T09:49:07.000Z</time>
      </trkpt>
      <trkpt lat="32.78652705252170562744140625" lon="-16.8432840518653392791748046875">
        <ele>312.399993896484375</ele>
        <time>2018-06-24T09:49:08.000Z</time>
      </trkpt>
      <trkpt lat="32.7865258790552616119384765625" lon="-16.84331079013645648956298828125">
        <ele>311</ele>
        <time>2018-06-24T09:49:11.000Z</time>
      </trkpt>
      <trkpt lat="32.7865577302873134613037109375" lon="-16.84331213124096393585205078125">
        <ele>309.79998779296875</ele>
        <time>2018-06-24T09:49:14.000Z</time>
      </trkpt>
      <trkpt lat="32.7865721471607685089111328125" lon="-16.84331531636416912078857421875">
        <ele>308.600006103515625</ele>
        <time>2018-06-24T09:49:16.000Z</time>
      </trkpt>
      <trkpt lat="32.78657508082687854766845703125" lon="-16.84333258308470249176025390625">
        <ele>307.399993896484375</ele>
        <time>2018-06-24T09:49:18.000Z</time>
      </trkpt>
      <trkpt lat="32.78658815659582614898681640625" lon="-16.8433678708970546722412109375">
        <ele>306.20001220703125</ele>
        <time>2018-06-24T09:49:21.000Z</time>
      </trkpt>
      <trkpt lat="32.7865949459373950958251953125" lon="-16.8434050865471363067626953125">
        <ele>304.79998779296875</ele>
        <time>2018-06-24T09:49:24.000Z</time>
      </trkpt>
      <trkpt lat="32.78659352101385593414306640625" lon="-16.84342780150473117828369140625">
        <ele>303.79998779296875</ele>
        <time>2018-06-24T09:49:26.000Z</time>
      </trkpt>
      <trkpt lat="32.78658933006227016448974609375" lon="-16.84343752451241016387939453125">
        <ele>303.600006103515625</ele>
        <time>2018-06-24T09:49:27.000Z</time>
      </trkpt>
      <trkpt lat="32.7865545451641082763671875" lon="-16.843476332724094390869140625">
        <ele>302.20001220703125</ele>
        <time>2018-06-24T09:49:30.000Z</time>
      </trkpt>
      <trkpt lat="32.78646326623857021331787109375" lon="-16.84367758221924304962158203125">
        <ele>301.399993896484375</ele>
        <time>2018-06-24T09:49:38.000Z</time>
      </trkpt>
      <trkpt lat="32.7864195965230464935302734375" lon="-16.84373172931373119354248046875">
        <ele>301</ele>
        <time>2018-06-24T09:49:42.000Z</time>
      </trkpt>
      <trkpt lat="32.78641398064792156219482421875" lon="-16.84374832548201084136962890625">
        <ele>300</ele>
        <time>2018-06-24T09:49:44.000Z</time>
      </trkpt>
      <trkpt lat="32.7864145673811435699462890625" lon="-16.843782104551792144775390625">
        <ele>298.399993896484375</ele>
        <time>2018-06-24T09:49:47.000Z</time>
      </trkpt>
      <trkpt lat="32.78643107973039150238037109375" lon="-16.84378646314144134521484375">
        <ele>297.20001220703125</ele>
        <time>2018-06-24T09:49:49.000Z</time>
      </trkpt>
      <trkpt lat="32.78644968755543231964111328125" lon="-16.8437777459621429443359375">
        <ele>296.399993896484375</ele>
        <time>2018-06-24T09:49:51.000Z</time>
      </trkpt>
      <trkpt lat="32.78645689599215984344482421875" lon="-16.8437772430479526519775390625">
        <ele>296.20001220703125</ele>
        <time>2018-06-24T09:49:52.000Z</time>
      </trkpt>
      <trkpt lat="32.7864601649343967437744140625" lon="-16.8437816016376018524169921875">
        <ele>295.79998779296875</ele>
        <time>2018-06-24T09:49:53.000Z</time>
      </trkpt>
      <trkpt lat="32.78647768311202526092529296875" lon="-16.8437795899808406829833984375">
        <ele>294.79998779296875</ele>
        <time>2018-06-24T09:49:55.000Z</time>
      </trkpt>
      <trkpt lat="32.78648522682487964630126953125" lon="-16.84377917088568210601806640625">
        <ele>294.20001220703125</ele>
        <time>2018-06-24T09:49:56.000Z</time>
      </trkpt>
      <trkpt lat="32.78649478219449520111083984375" lon="-16.84379182755947113037109375">
        <ele>293.20001220703125</ele>
        <time>2018-06-24T09:49:58.000Z</time>
      </trkpt>
      <trkpt lat="32.786526381969451904296875" lon="-16.84380590915679931640625">
        <ele>291.79998779296875</ele>
        <time>2018-06-24T09:50:01.000Z</time>
      </trkpt>
      <trkpt lat="32.78653535060584545135498046875" lon="-16.843810938298702239990234375">
        <ele>291.20001220703125</ele>
        <time>2018-06-24T09:50:02.000Z</time>
      </trkpt>
      <trkpt lat="32.7865470014512538909912109375" lon="-16.84382267296314239501953125">
        <ele>290.399993896484375</ele>
        <time>2018-06-24T09:50:04.000Z</time>
      </trkpt>
      <trkpt lat="32.78655798174440860748291015625" lon="-16.84384656138718128204345703125">
        <ele>288.79998779296875</ele>
        <time>2018-06-24T09:50:07.000Z</time>
      </trkpt>
      <trkpt lat="32.7865644358098506927490234375" lon="-16.84387388639152050018310546875">
        <ele>287.600006103515625</ele>
        <time>2018-06-24T09:50:09.000Z</time>
      </trkpt>
      <trkpt lat="32.78656217269599437713623046875" lon="-16.84390657581388950347900390625">
        <ele>286.399993896484375</ele>
        <time>2018-06-24T09:50:11.000Z</time>
      </trkpt>
      <trkpt lat="32.786550857126712799072265625" lon="-16.84395141899585723876953125">
        <ele>285</ele>
        <time>2018-06-24T09:50:14.000Z</time>
      </trkpt>
      <trkpt lat="32.78655563481152057647705078125" lon="-16.8439727090299129486083984375">
        <ele>284.20001220703125</ele>
        <time>2018-06-24T09:50:16.000Z</time>
      </trkpt>
      <trkpt lat="32.78656485490500926971435546875" lon="-16.84398184530436992645263671875">
        <ele>283.600006103515625</ele>
        <time>2018-06-24T09:50:17.000Z</time>
      </trkpt>
      <trkpt lat="32.7865744940936565399169921875" lon="-16.84397346340119838714599609375">
        <ele>282.399993896484375</ele>
        <time>2018-06-24T09:50:19.000Z</time>
      </trkpt>
      <trkpt lat="32.78658731840550899505615234375" lon="-16.84396726079285144805908203125">
        <ele>281.20001220703125</ele>
        <time>2018-06-24T09:50:21.000Z</time>
      </trkpt>
      <trkpt lat="32.78660877607762813568115234375" lon="-16.8439686857163906097412109375">
        <ele>280.20001220703125</ele>
        <time>2018-06-24T09:50:23.000Z</time>
      </trkpt>
      <trkpt lat="32.78663140721619129180908203125" lon="-16.84396089054644107818603515625">
        <ele>278.79998779296875</ele>
        <time>2018-06-24T09:50:25.000Z</time>
      </trkpt>
      <trkpt lat="32.786639370024204254150390625" lon="-16.84396575205028057098388671875">
        <ele>278.79998779296875</ele>
        <time>2018-06-24T09:50:26.000Z</time>
      </trkpt>
      <trkpt lat="32.7866167388856410980224609375" lon="-16.84403448365628719329833984375">
        <ele>277.600006103515625</ele>
        <time>2018-06-24T09:50:30.000Z</time>
      </trkpt>
      <trkpt lat="32.78661129064857959747314453125" lon="-16.84408511035144329071044921875">
        <ele>276.79998779296875</ele>
        <time>2018-06-24T09:50:33.000Z</time>
      </trkpt>
      <trkpt lat="32.7866194210946559906005859375" lon="-16.8440893851220607757568359375">
        <ele>276.20001220703125</ele>
        <time>2018-06-24T09:50:34.000Z</time>
      </trkpt>
      <trkpt lat="32.7866385318338871002197265625" lon="-16.84407136403024196624755859375">
        <ele>274.79998779296875</ele>
        <time>2018-06-24T09:50:36.000Z</time>
      </trkpt>
      <trkpt lat="32.78665957041084766387939453125" lon="-16.84405074454843997955322265625">
        <ele>273.79998779296875</ele>
        <time>2018-06-24T09:50:38.000Z</time>
      </trkpt>
      <trkpt lat="32.78667851351201534271240234375" lon="-16.844042949378490447998046875">
        <ele>272.600006103515625</ele>
        <time>2018-06-24T09:50:40.000Z</time>
      </trkpt>
      <trkpt lat="32.7867022342979907989501953125" lon="-16.84403733350336551666259765625">
        <ele>271.600006103515625</ele>
        <time>2018-06-24T09:50:42.000Z</time>
      </trkpt>
      <trkpt lat="32.7867196686565876007080078125" lon="-16.84403683058917522430419921875">
        <ele>270.79998779296875</ele>
        <time>2018-06-24T09:50:44.000Z</time>
      </trkpt>
      <trkpt lat="32.7867267094552516937255859375" lon="-16.844036579132080078125">
        <ele>270.20001220703125</ele>
        <time>2018-06-24T09:50:45.000Z</time>
      </trkpt>
      <trkpt lat="32.78674020431935787200927734375" lon="-16.8440233357250690460205078125">
        <ele>269</ele>
        <time>2018-06-24T09:50:47.000Z</time>
      </trkpt>
      <trkpt lat="32.786757051944732666015625" lon="-16.84400506317615509033203125">
        <ele>267.79998779296875</ele>
        <time>2018-06-24T09:50:50.000Z</time>
      </trkpt>
      <trkpt lat="32.7867639251053333282470703125" lon="-16.844002045691013336181640625">
        <ele>267.20001220703125</ele>
        <time>2018-06-24T09:50:51.000Z</time>
      </trkpt>
      <trkpt lat="32.7867718040943145751953125" lon="-16.84399743564426898956298828125">
        <ele>266.600006103515625</ele>
        <time>2018-06-24T09:50:52.000Z</time>
      </trkpt>
      <trkpt lat="32.786786891520023345947265625" lon="-16.84400833211839199066162109375">
        <ele>265.399993896484375</ele>
        <time>2018-06-24T09:50:54.000Z</time>
      </trkpt>
      <trkpt lat="32.78680407442152500152587890625" lon="-16.8440400995314121246337890625">
        <ele>264</ele>
        <time>2018-06-24T09:50:57.000Z</time>
      </trkpt>
      <trkpt lat="32.78679770417511463165283203125" lon="-16.8440763093531131744384765625">
        <ele>263</ele>
        <time>2018-06-24T09:51:00.000Z</time>
      </trkpt>
      <trkpt lat="32.7867907471954822540283203125" lon="-16.84409483335912227630615234375">
        <ele>262.600006103515625</ele>
        <time>2018-06-24T09:51:01.000Z</time>
      </trkpt>
      <trkpt lat="32.78677113354206085205078125" lon="-16.844162642955780029296875">
        <ele>261.79998779296875</ele>
        <time>2018-06-24T09:51:04.000Z</time>
      </trkpt>
      <trkpt lat="32.7867723070085048675537109375" lon="-16.84417965821921825408935546875">
        <ele>261.600006103515625</ele>
        <time>2018-06-24T09:51:05.000Z</time>
      </trkpt>
      <trkpt lat="32.78680206276476383209228515625" lon="-16.8441996909677982330322265625">
        <ele>260.399993896484375</ele>
        <time>2018-06-24T09:51:08.000Z</time>
      </trkpt>
      <trkpt lat="32.78682201169431209564208984375" lon="-16.84418552555143833160400390625">
        <ele>259</ele>
        <time>2018-06-24T09:51:11.000Z</time>
      </trkpt>
      <trkpt lat="32.78682452626526355743408203125" lon="-16.84421603567898273468017578125">
        <ele>258</ele>
        <time>2018-06-24T09:51:14.000Z</time>
      </trkpt>
      <trkpt lat="32.78682100586593151092529296875" lon="-16.84427060186862945556640625">
        <ele>256.79998779296875</ele>
        <time>2018-06-24T09:51:17.000Z</time>
      </trkpt>
      <trkpt lat="32.78680943883955478668212890625" lon="-16.844328604638576507568359375">
        <ele>255.8000030517578125</ele>
        <time>2018-06-24T09:51:20.000Z</time>
      </trkpt>
      <trkpt lat="32.78678110800683498382568359375" lon="-16.84444536454975605010986328125">
        <ele>255</ele>
        <time>2018-06-24T09:51:26.000Z</time>
      </trkpt>
      <trkpt lat="32.786787562072277069091796875" lon="-16.84445299208164215087890625">
        <ele>254.399993896484375</ele>
        <time>2018-06-24T09:51:27.000Z</time>
      </trkpt>
      <trkpt lat="32.7867977879941463470458984375" lon="-16.84446933679282665252685546875">
        <ele>253.399993896484375</ele>
        <time>2018-06-24T09:51:29.000Z</time>
      </trkpt>
      <trkpt lat="32.78679871000349521636962890625" lon="-16.8444751203060150146484375">
        <ele>253.1999969482421875</ele>
        <time>2018-06-24T09:51:30.000Z</time>
      </trkpt>
      <trkpt lat="32.78681614436209201812744140625" lon="-16.84449766762554645538330078125">
        <ele>251.8000030517578125</ele>
        <time>2018-06-24T09:51:34.000Z</time>
      </trkpt>
      <trkpt lat="32.78683844022452831268310546875" lon="-16.8445202149450778961181640625">
        <ele>250.600006103515625</ele>
        <time>2018-06-24T09:51:37.000Z</time>
      </trkpt>
      <trkpt lat="32.78684732504189014434814453125" lon="-16.8445260822772979736328125">
        <ele>250.399993896484375</ele>
        <time>2018-06-24T09:51:38.000Z</time>
      </trkpt>
      <trkpt lat="32.78686475940048694610595703125" lon="-16.84451426379382610321044921875">
        <ele>249.399993896484375</ele>
        <time>2018-06-24T09:51:40.000Z</time>
      </trkpt>
      <trkpt lat="32.7868866361677646636962890625" lon="-16.844510994851589202880859375">
        <ele>248.1999969482421875</ele>
        <time>2018-06-24T09:51:42.000Z</time>
      </trkpt>
      <trkpt lat="32.7868950180709362030029296875" lon="-16.844506971538066864013671875">
        <ele>247.8000030517578125</ele>
        <time>2018-06-24T09:51:43.000Z</time>
      </trkpt>
      <trkpt lat="32.78691329061985015869140625" lon="-16.8444866873323917388916015625">
        <ele>246.8000030517578125</ele>
        <time>2018-06-24T09:51:45.000Z</time>
      </trkpt>
      <trkpt lat="32.78693349100649356842041015625" lon="-16.844458021223545074462890625">
        <ele>245.600006103515625</ele>
        <time>2018-06-24T09:51:48.000Z</time>
      </trkpt>
      <trkpt lat="32.7869617380201816558837890625" lon="-16.8444555066525936126708984375">
        <ele>244.399993896484375</ele>
        <time>2018-06-24T09:51:51.000Z</time>
      </trkpt>
      <trkpt lat="32.7869634144008159637451171875" lon="-16.84449314139783382415771484375">
        <ele>243.600006103515625</ele>
        <time>2018-06-24T09:51:55.000Z</time>
      </trkpt>
      <trkpt lat="32.786965928971767425537109375" lon="-16.8445004336535930633544921875">
        <ele>243.1999969482421875</ele>
        <time>2018-06-24T09:51:56.000Z</time>
      </trkpt>
      <trkpt lat="32.78697305358946323394775390625" lon="-16.8445165269076824188232421875">
        <ele>241.399993896484375</ele>
        <time>2018-06-24T09:51:59.000Z</time>
      </trkpt>
      <trkpt lat="32.78698436915874481201171875" lon="-16.84450135566294193267822265625">
        <ele>240.1999969482421875</ele>
        <time>2018-06-24T09:52:01.000Z</time>
      </trkpt>
      <trkpt lat="32.78700624592602252960205078125" lon="-16.844498254358768463134765625">
        <ele>239</ele>
        <time>2018-06-24T09:52:04.000Z</time>
      </trkpt>
      <trkpt lat="32.78703541494905948638916015625" lon="-16.8444903753697872161865234375">
        <ele>237.399993896484375</ele>
        <time>2018-06-24T09:52:07.000Z</time>
      </trkpt>
      <trkpt lat="32.787051759660243988037109375" lon="-16.8444705940783023834228515625">
        <ele>236.399993896484375</ele>
        <time>2018-06-24T09:52:09.000Z</time>
      </trkpt>
      <trkpt lat="32.78706139884889125823974609375" lon="-16.8444659002125263214111328125">
        <ele>235.8000030517578125</ele>
        <time>2018-06-24T09:52:10.000Z</time>
      </trkpt>
      <trkpt lat="32.7870710380375385284423828125" lon="-16.844461373984813690185546875">
        <ele>235.1999969482421875</ele>
        <time>2018-06-24T09:52:11.000Z</time>
      </trkpt>
      <trkpt lat="32.7870764024555683135986328125" lon="-16.84445961378514766693115234375">
        <ele>234.600006103515625</ele>
        <time>2018-06-24T09:52:12.000Z</time>
      </trkpt>
      <trkpt lat="32.78708402998745441436767578125" lon="-16.84446908533573150634765625">
        <ele>234.1999969482421875</ele>
        <time>2018-06-24T09:52:13.000Z</time>
      </trkpt>
      <trkpt lat="32.7870938368141651153564453125" lon="-16.8444590270519256591796875">
        <ele>233.600006103515625</ele>
        <time>2018-06-24T09:52:15.000Z</time>
      </trkpt>
      <trkpt lat="32.787102721631526947021484375" lon="-16.84443949721753597259521484375">
        <ele>232.8000030517578125</ele>
        <time>2018-06-24T09:52:17.000Z</time>
      </trkpt>
      <trkpt lat="32.787113450467586517333984375" lon="-16.844425164163112640380859375">
        <ele>231.8000030517578125</ele>
        <time>2018-06-24T09:52:19.000Z</time>
      </trkpt>
      <trkpt lat="32.7871370874345302581787109375" lon="-16.8444256670773029327392578125">
        <ele>230.600006103515625</ele>
        <time>2018-06-24T09:52:22.000Z</time>
      </trkpt>
      <trkpt lat="32.78716416098177433013916015625" lon="-16.84442482888698577880859375">
        <ele>229</ele>
        <time>2018-06-24T09:52:25.000Z</time>
      </trkpt>
      <trkpt lat="32.7871823497116565704345703125" lon="-16.8444239906966686248779296875">
        <ele>227.8000030517578125</ele>
        <time>2018-06-24T09:52:27.000Z</time>
      </trkpt>
      <trkpt lat="32.7871997840702533721923828125" lon="-16.844425499439239501953125">
        <ele>226.399993896484375</ele>
        <time>2018-06-24T09:52:29.000Z</time>
      </trkpt>
      <trkpt lat="32.7872162126004695892333984375" lon="-16.84446615166962146759033203125">
        <ele>225.1999969482421875</ele>
        <time>2018-06-24T09:52:32.000Z</time>
      </trkpt>
      <trkpt lat="32.78723021037876605987548828125" lon="-16.8445011042058467864990234375">
        <ele>223.600006103515625</ele>
        <time>2018-06-24T09:52:35.000Z</time>
      </trkpt>
      <trkpt lat="32.78722979128360748291015625" lon="-16.84460713528096675872802734375">
        <ele>222.1999969482421875</ele>
        <time>2018-06-24T09:52:40.000Z</time>
      </trkpt>
      <trkpt lat="32.78722308576107025146484375" lon="-16.844630353152751922607421875">
        <ele>221.8000030517578125</ele>
        <time>2018-06-24T09:52:41.000Z</time>
      </trkpt>
      <trkpt lat="32.78718394227325916290283203125" lon="-16.8446995876729488372802734375">
        <ele>221</ele>
        <time>2018-06-24T09:52:45.000Z</time>
      </trkpt>
      <trkpt lat="32.7871835231781005859375" lon="-16.84471140615642070770263671875">
        <ele>220.1999969482421875</ele>
        <time>2018-06-24T09:52:47.000Z</time>
      </trkpt>
      <trkpt lat="32.78718478046357631683349609375" lon="-16.84471978805959224700927734375">
        <ele>219.600006103515625</ele>
        <time>2018-06-24T09:52:48.000Z</time>
      </trkpt>
      <trkpt lat="32.787190563976764678955078125" lon="-16.84474174864590167999267578125">
        <ele>218.399993896484375</ele>
        <time>2018-06-24T09:52:50.000Z</time>
      </trkpt>
      <trkpt lat="32.78720942325890064239501953125" lon="-16.84480863623321056365966796875">
        <ele>217</ele>
        <time>2018-06-24T09:52:54.000Z</time>
      </trkpt>
      <trkpt lat="32.78720573522150516510009765625" lon="-16.8449201993644237518310546875">
        <ele>216</ele>
        <time>2018-06-24T09:53:00.000Z</time>
      </trkpt>
      <trkpt lat="32.78719517402350902557373046875" lon="-16.84500125236809253692626953125">
        <ele>214.8000030517578125</ele>
        <time>2018-06-24T09:53:05.000Z</time>
      </trkpt>
      <trkpt lat="32.78718763031065464019775390625" lon="-16.8450603447854518890380859375">
        <ele>213.399993896484375</ele>
        <time>2018-06-24T09:53:09.000Z</time>
      </trkpt>
      <trkpt lat="32.78718561865389347076416015625" lon="-16.8450885079801082611083984375">
        <ele>212.399993896484375</ele>
        <time>2018-06-24T09:53:11.000Z</time>
      </trkpt>
      <trkpt lat="32.7871687710285186767578125" lon="-16.845124550163745880126953125">
        <ele>211.399993896484375</ele>
        <time>2018-06-24T09:53:14.000Z</time>
      </trkpt>
      <trkpt lat="32.7871702797710895538330078125" lon="-16.845135278999805450439453125">
        <ele>210.8000030517578125</ele>
        <time>2018-06-24T09:53:15.000Z</time>
      </trkpt>
      <trkpt lat="32.78716919012367725372314453125" lon="-16.84514659456908702850341796875">
        <ele>210.399993896484375</ele>
        <time>2018-06-24T09:53:16.000Z</time>
      </trkpt>
      <trkpt lat="32.7871634066104888916015625" lon="-16.845190264284610748291015625">
        <ele>209.600006103515625</ele>
        <time>2018-06-24T09:53:19.000Z</time>
      </trkpt>
      <trkpt lat="32.787170447409152984619140625" lon="-16.845282800495624542236328125">
        <ele>208.1999969482421875</ele>
        <time>2018-06-24T09:53:23.000Z</time>
      </trkpt>
      <trkpt lat="32.7871595509350299835205078125" lon="-16.84535262174904346466064453125">
        <ele>207</ele>
        <time>2018-06-24T09:53:26.000Z</time>
      </trkpt>
      <trkpt lat="32.78713323175907135009765625" lon="-16.84540425427258014678955078125">
        <ele>205.8000030517578125</ele>
        <time>2018-06-24T09:53:29.000Z</time>
      </trkpt>
      <trkpt lat="32.78715125285089015960693359375" lon="-16.8454261310398578643798828125">
        <ele>204.8000030517578125</ele>
        <time>2018-06-24T09:53:32.000Z</time>
      </trkpt>
      <trkpt lat="32.78715603053569793701171875" lon="-16.84544901363551616668701171875">
        <ele>203.600006103515625</ele>
        <time>2018-06-24T09:53:34.000Z</time>
      </trkpt>
      <trkpt lat="32.7871625684201717376708984375" lon="-16.8454794399440288543701171875">
        <ele>202.399993896484375</ele>
        <time>2018-06-24T09:53:36.000Z</time>
      </trkpt>
      <trkpt lat="32.78716365806758403778076171875" lon="-16.84552210383117198944091796875">
        <ele>200.8000030517578125</ele>
        <time>2018-06-24T09:53:38.000Z</time>
      </trkpt>
      <trkpt lat="32.7871555276215076446533203125" lon="-16.8455696292221546173095703125">
        <ele>199.8000030517578125</ele>
        <time>2018-06-24T09:53:40.000Z</time>
      </trkpt>
      <trkpt lat="32.78714261949062347412109375" lon="-16.84558899141848087310791015625">
        <ele>199.399993896484375</ele>
        <time>2018-06-24T09:53:41.000Z</time>
      </trkpt>
      <trkpt lat="32.7871266938745975494384765625" lon="-16.84562486596405506134033203125">
        <ele>199</ele>
        <time>2018-06-24T09:53:43.000Z</time>
      </trkpt>
      <trkpt lat="32.78712543658912181854248046875" lon="-16.8456407077610492706298828125">
        <ele>198.8000030517578125</ele>
        <time>2018-06-24T09:53:44.000Z</time>
      </trkpt>
      <trkpt lat="32.78712023980915546417236328125" lon="-16.845671720802783966064453125">
        <ele>197.600006103515625</ele>
        <time>2018-06-24T09:53:46.000Z</time>
      </trkpt>
      <trkpt lat="32.78711177408695220947265625" lon="-16.8457003869116306304931640625">
        <ele>196.600006103515625</ele>
        <time>2018-06-24T09:53:48.000Z</time>
      </trkpt>
      <trkpt lat="32.78711336664855480194091796875" lon="-16.845713295042514801025390625">
        <ele>196</ele>
        <time>2018-06-24T09:53:49.000Z</time>
      </trkpt>
      <trkpt lat="32.78711177408695220947265625" lon="-16.84572712518274784088134765625">
        <ele>195</ele>
        <time>2018-06-24T09:53:50.000Z</time>
      </trkpt>
      <trkpt lat="32.787105739116668701171875" lon="-16.845758222043514251708984375">
        <ele>193.600006103515625</ele>
        <time>2018-06-24T09:53:52.000Z</time>
      </trkpt>
      <trkpt lat="32.78709878213703632354736328125" lon="-16.8457825295627117156982421875">
        <ele>192.600006103515625</ele>
        <time>2018-06-24T09:53:54.000Z</time>
      </trkpt>
      <trkpt lat="32.787100709974765777587890625" lon="-16.84581312350928783416748046875">
        <ele>191.1999969482421875</ele>
        <time>2018-06-24T09:53:56.000Z</time>
      </trkpt>
      <trkpt lat="32.7871189825236797332763671875" lon="-16.845860145986080169677734375">
        <ele>190</ele>
        <time>2018-06-24T09:53:58.000Z</time>
      </trkpt>
      <trkpt lat="32.7871320582926273345947265625" lon="-16.84590406715869903564453125">
        <ele>189</ele>
        <time>2018-06-24T09:54:00.000Z</time>
      </trkpt>
      <trkpt lat="32.787124849855899810791015625" lon="-16.84592963196337223052978515625">
        <ele>188.399993896484375</ele>
        <time>2018-06-24T09:54:02.000Z</time>
      </trkpt>
      <trkpt lat="32.78711688704788684844970703125" lon="-16.8459421209990978240966796875">
        <ele>187.8000030517578125</ele>
        <time>2018-06-24T09:54:03.000Z</time>
      </trkpt>
      <trkpt lat="32.7871072478592395782470703125" lon="-16.8459743075072765350341796875">
        <ele>186.8000030517578125</ele>
        <time>2018-06-24T09:54:05.000Z</time>
      </trkpt>
      <trkpt lat="32.78709006495773792266845703125" lon="-16.84616558253765106201171875">
        <ele>185.600006103515625</ele>
        <time>2018-06-24T09:54:14.000Z</time>
      </trkpt>
      <trkpt lat="32.78710112906992435455322265625" lon="-16.846204139292240142822265625">
        <ele>184.1999969482421875</ele>
        <time>2018-06-24T09:54:16.000Z</time>
      </trkpt>
      <trkpt lat="32.78710934333503246307373046875" lon="-16.84625317342579364776611328125">
        <ele>183</ele>
        <time>2018-06-24T09:54:18.000Z</time>
      </trkpt>
      <trkpt lat="32.78710783459246158599853515625" lon="-16.84630497358739376068115234375">
        <ele>181.8000030517578125</ele>
        <time>2018-06-24T09:54:20.000Z</time>
      </trkpt>
      <trkpt lat="32.78710548765957355499267578125" lon="-16.84636264108121395111083984375">
        <ele>180.600006103515625</ele>
        <time>2018-06-24T09:54:22.000Z</time>
      </trkpt>
      <trkpt lat="32.7871178090572357177734375" lon="-16.8464252538979053497314453125">
        <ele>179.399993896484375</ele>
        <time>2018-06-24T09:54:24.000Z</time>
      </trkpt>
      <trkpt lat="32.78712996281683444976806640625" lon="-16.84648401103913784027099609375">
        <ele>178</ele>
        <time>2018-06-24T09:54:26.000Z</time>
      </trkpt>
      <trkpt lat="32.78713733889162540435791015625" lon="-16.846541427075862884521484375">
        <ele>176.600006103515625</ele>
        <time>2018-06-24T09:54:28.000Z</time>
      </trkpt>
      <trkpt lat="32.78716382570564746856689453125" lon="-16.8465888686478137969970703125">
        <ele>175.1999969482421875</ele>
        <time>2018-06-24T09:54:30.000Z</time>
      </trkpt>
      <trkpt lat="32.78719249181449413299560546875" lon="-16.8466289341449737548828125">
        <ele>173.600006103515625</ele>
        <time>2018-06-24T09:54:32.000Z</time>
      </trkpt>
      <trkpt lat="32.7872115187346935272216796875" lon="-16.8466636352241039276123046875">
        <ele>172.1999969482421875</ele>
        <time>2018-06-24T09:54:34.000Z</time>
      </trkpt>
      <trkpt lat="32.787227444350719451904296875" lon="-16.8466924689710140228271484375">
        <ele>170.8000030517578125</ele>
        <time>2018-06-24T09:54:36.000Z</time>
      </trkpt>
      <trkpt lat="32.7872430346906185150146484375" lon="-16.84671116061508655548095703125">
        <ele>169.600006103515625</ele>
        <time>2018-06-24T09:54:38.000Z</time>
      </trkpt>
      <trkpt lat="32.7872551046311855316162109375" lon="-16.8467281758785247802734375">
        <ele>168.8000030517578125</ele>
        <time>2018-06-24T09:54:40.000Z</time>
      </trkpt>
      <trkpt lat="32.78727362863719463348388671875" lon="-16.8467451073229312896728515625">
        <ele>168.399993896484375</ele>
        <time>2018-06-24T09:54:42.000Z</time>
      </trkpt>
      <trkpt lat="32.787286452949047088623046875" lon="-16.846745274960994720458984375">
        <ele>167.399993896484375</ele>
        <time>2018-06-24T09:54:44.000Z</time>
      </trkpt>
      <trkpt lat="32.78728217817842960357666015625" lon="-16.8467558361589908599853515625">
        <ele>167</ele>
        <time>2018-06-24T09:54:45.000Z</time>
      </trkpt>
      <trkpt lat="32.78718427754938602447509765625" lon="-16.84684820473194122314453125">
        <ele>165.8000030517578125</ele>
        <time>2018-06-24T09:54:51.000Z</time>
      </trkpt>
      <trkpt lat="32.7871230058372020721435546875" lon="-16.84690260328352451324462890625">
        <ele>164.8000030517578125</ele>
        <time>2018-06-24T09:54:54.000Z</time>
      </trkpt>
      <trkpt lat="32.787063159048557281494140625" lon="-16.8469603545963764190673828125">
        <ele>163.399993896484375</ele>
        <time>2018-06-24T09:54:57.000Z</time>
      </trkpt>
      <trkpt lat="32.78704379685223102569580078125" lon="-16.84701072983443737030029296875">
        <ele>161.600006103515625</ele>
        <time>2018-06-24T09:54:59.000Z</time>
      </trkpt>
      <trkpt lat="32.78704128228127956390380859375" lon="-16.84707074426114559173583984375">
        <ele>160.1999969482421875</ele>
        <time>2018-06-24T09:55:01.000Z</time>
      </trkpt>
      <trkpt lat="32.7870395220816135406494140625" lon="-16.84713545255362987518310546875">
        <ele>158.399993896484375</ele>
        <time>2018-06-24T09:55:03.000Z</time>
      </trkpt>
      <trkpt lat="32.78704228810966014862060546875" lon="-16.84720359742641448974609375">
        <ele>156.399993896484375</ele>
        <time>2018-06-24T09:55:05.000Z</time>
      </trkpt>
      <trkpt lat="32.78704966418445110321044921875" lon="-16.8472741730511188507080078125">
        <ele>154.399993896484375</ele>
        <time>2018-06-24T09:55:07.000Z</time>
      </trkpt>
      <trkpt lat="32.7870546095073223114013671875" lon="-16.8473424017429351806640625">
        <ele>152.600006103515625</ele>
        <time>2018-06-24T09:55:09.000Z</time>
      </trkpt>
      <trkpt lat="32.7870549447834491729736328125" lon="-16.8474067747592926025390625">
        <ele>151</ele>
        <time>2018-06-24T09:55:11.000Z</time>
      </trkpt>
      <trkpt lat="32.78702803887426853179931640625" lon="-16.84745463542640209197998046875">
        <ele>149.600006103515625</ele>
        <time>2018-06-24T09:55:13.000Z</time>
      </trkpt>
      <trkpt lat="32.78683148324489593505859375" lon="-16.84746368788182735443115234375">
        <ele>150.399993896484375</ele>
        <time>2018-06-24T09:55:22.000Z</time>
      </trkpt>
      <trkpt lat="32.78680893592536449432373046875" lon="-16.84746117331087589263916015625">
        <ele>150.600006103515625</ele>
        <time>2018-06-24T09:55:23.000Z</time>
      </trkpt>
      <trkpt lat="32.78665152378380298614501953125" lon="-16.84745279140770435333251953125">
        <ele>151.600006103515625</ele>
        <time>2018-06-24T09:55:30.000Z</time>
      </trkpt>
      <trkpt lat="32.78647064231336116790771484375" lon="-16.847488246858119964599609375">
        <ele>152.8000030517578125</ele>
        <time>2018-06-24T09:55:38.000Z</time>
      </trkpt>
      <trkpt lat="32.78628028929233551025390625" lon="-16.8475564755499362945556640625">
        <ele>153.600006103515625</ele>
        <time>2018-06-24T09:55:46.000Z</time>
      </trkpt>
      <trkpt lat="32.7862139046192169189453125" lon="-16.84758388437330722808837890625">
        <ele>153.8000030517578125</ele>
        <time>2018-06-24T09:55:49.000Z</time>
      </trkpt>
      <trkpt lat="32.7860326878726482391357421875" lon="-16.84760081581771373748779296875">
        <ele>154.399993896484375</ele>
        <time>2018-06-24T09:55:56.000Z</time>
      </trkpt>
      <trkpt lat="32.7858573384582996368408203125" lon="-16.84754985384643077850341796875">
        <ele>154.399993896484375</ele>
        <time>2018-06-24T09:56:04.000Z</time>
      </trkpt>
      <trkpt lat="32.7856605313718318939208984375" lon="-16.84746938757598400115966796875">
        <ele>153.8000030517578125</ele>
        <time>2018-06-24T09:56:12.000Z</time>
      </trkpt>
      <trkpt lat="32.78548727743327617645263671875" lon="-16.8475772626698017120361328125">
        <ele>153</ele>
        <time>2018-06-24T09:56:19.000Z</time>
      </trkpt>
      <trkpt lat="32.78544218279421329498291015625" lon="-16.8476205132901668548583984375">
        <ele>152.600006103515625</ele>
        <time>2018-06-24T09:56:21.000Z</time>
      </trkpt>
      <trkpt lat="32.7852655760943889617919921875" lon="-16.84772956185042858123779296875">
        <ele>152.1999969482421875</ele>
        <time>2018-06-24T09:56:28.000Z</time>
      </trkpt>
      <trkpt lat="32.785120569169521331787109375" lon="-16.84776023961603641510009765625">
        <ele>151.600006103515625</ele>
        <time>2018-06-24T09:56:33.000Z</time>
      </trkpt>
      <trkpt lat="32.78491630218923091888427734375" lon="-16.8478010594844818115234375">
        <ele>150.399993896484375</ele>
        <time>2018-06-24T09:56:40.000Z</time>
      </trkpt>
      <trkpt lat="32.7847583033144474029541015625" lon="-16.84792754240334033966064453125">
        <ele>150.600006103515625</ele>
        <time>2018-06-24T09:56:47.000Z</time>
      </trkpt>
      <trkpt lat="32.784671299159526824951171875" lon="-16.84813172556459903717041015625">
        <ele>151.399993896484375</ele>
        <time>2018-06-24T09:56:54.000Z</time>
      </trkpt>
      <trkpt lat="32.78464456088840961456298828125" lon="-16.84818704612553119659423828125">
        <ele>151.600006103515625</ele>
        <time>2018-06-24T09:56:56.000Z</time>
      </trkpt>
      <trkpt lat="32.784509360790252685546875" lon="-16.84836256317794322967529296875">
        <ele>152.600006103515625</ele>
        <time>2018-06-24T09:57:04.000Z</time>
      </trkpt>
      <trkpt lat="32.7844364382326602935791015625" lon="-16.84840698726475238800048828125">
        <ele>153</ele>
        <time>2018-06-24T09:57:08.000Z</time>
      </trkpt>
      <trkpt lat="32.7844126336276531219482421875" lon="-16.8484020419418811798095703125">
        <ele>153.1999969482421875</ele>
        <time>2018-06-24T09:57:10.000Z</time>
      </trkpt>
      <trkpt lat="32.78439176268875598907470703125" lon="-16.848384104669094085693359375">
        <ele>153.8000030517578125</ele>
        <time>2018-06-24T09:57:12.000Z</time>
      </trkpt>
      <trkpt lat="32.78437734581530094146728515625" lon="-16.84834831394255161285400390625">
        <ele>155.1999969482421875</ele>
        <time>2018-06-24T09:57:15.000Z</time>
      </trkpt>
      <trkpt lat="32.7843868173658847808837890625" lon="-16.84831663034856319427490234375">
        <ele>156.600006103515625</ele>
        <time>2018-06-24T09:57:18.000Z</time>
      </trkpt>
      <trkpt lat="32.78439595364034175872802734375" lon="-16.848288215696811676025390625">
        <ele>158</ele>
        <time>2018-06-24T09:57:21.000Z</time>
      </trkpt>
      <trkpt lat="32.78439276851713657379150390625" lon="-16.84826231561601161956787109375">
        <ele>158.8000030517578125</ele>
        <time>2018-06-24T09:57:23.000Z</time>
      </trkpt>
      <trkpt lat="32.7843837998807430267333984375" lon="-16.84825426898896694183349609375">
        <ele>159</ele>
        <time>2018-06-24T09:57:24.000Z</time>
      </trkpt>
      <trkpt lat="32.7843415550887584686279296875" lon="-16.84823784045875072479248046875">
        <ele>159.1999969482421875</ele>
        <time>2018-06-24T09:57:28.000Z</time>
      </trkpt>
      <trkpt lat="32.7843361906707286834716796875" lon="-16.84822141192853450775146484375">
        <ele>159.8000030517578125</ele>
        <time>2018-06-24T09:57:30.000Z</time>
      </trkpt>
      <trkpt lat="32.7843348495662212371826171875" lon="-16.848212778568267822265625">
        <ele>160.1999969482421875</ele>
        <time>2018-06-24T09:57:31.000Z</time>
      </trkpt>
      <trkpt lat="32.78433091007173061370849609375" lon="-16.848179586231708526611328125">
        <ele>161.600006103515625</ele>
        <time>2018-06-24T09:57:34.000Z</time>
      </trkpt>
      <trkpt lat="32.78432604856789112091064453125" lon="-16.84814865700900554656982421875">
        <ele>162.8000030517578125</ele>
        <time>2018-06-24T09:57:37.000Z</time>
      </trkpt>
      <trkpt lat="32.784323282539844512939453125" lon="-16.84811823070049285888671875">
        <ele>164.1999969482421875</ele>
        <time>2018-06-24T09:57:40.000Z</time>
      </trkpt>
      <trkpt lat="32.78431867249310016632080078125" lon="-16.84810859151184558868408203125">
        <ele>164.600006103515625</ele>
        <time>2018-06-24T09:57:41.000Z</time>
      </trkpt>
      <trkpt lat="32.78421557508409023284912109375" lon="-16.84805025346577167510986328125">
        <ele>163.1999969482421875</ele>
        <time>2018-06-24T09:57:48.000Z</time>
      </trkpt>
      <trkpt lat="32.78415463864803314208984375" lon="-16.84802091680467128753662109375">
        <ele>161.8000030517578125</ele>
        <time>2018-06-24T09:57:51.000Z</time>
      </trkpt>
      <trkpt lat="32.7840900979936122894287109375" lon="-16.84798319824039936065673828125">
        <ele>160.600006103515625</ele>
        <time>2018-06-24T09:57:54.000Z</time>
      </trkpt>
      <trkpt lat="32.7839978970587253570556640625" lon="-16.847931481897830963134765625">
        <ele>159.399993896484375</ele>
        <time>2018-06-24T09:57:58.000Z</time>
      </trkpt>
      <trkpt lat="32.7838721685111522674560546875" lon="-16.8478464893996715545654296875">
        <ele>158.399993896484375</ele>
        <time>2018-06-24T09:58:04.000Z</time>
      </trkpt>
      <trkpt lat="32.78382497839629650115966796875" lon="-16.84783123433589935302734375">
        <ele>157.399993896484375</ele>
        <time>2018-06-24T09:58:06.000Z</time>
      </trkpt>
      <trkpt lat="32.783758677542209625244140625" lon="-16.84780717827379703521728515625">
        <ele>155.8000030517578125</ele>
        <time>2018-06-24T09:58:09.000Z</time>
      </trkpt>
      <trkpt lat="32.7837176062166690826416015625" lon="-16.8478015623986721038818359375">
        <ele>154.8000030517578125</ele>
        <time>2018-06-24T09:58:11.000Z</time>
      </trkpt>
      <trkpt lat="32.78367393650114536285400390625" lon="-16.84778697788715362548828125">
        <ele>153.8000030517578125</ele>
        <time>2018-06-24T09:58:13.000Z</time>
      </trkpt>
      <trkpt lat="32.7836106531322002410888671875" lon="-16.8477398715913295745849609375">
        <ele>152.600006103515625</ele>
        <time>2018-06-24T09:58:16.000Z</time>
      </trkpt>
      <trkpt lat="32.783572934567928314208984375" lon="-16.84766200371086597442626953125">
        <ele>151.1999969482421875</ele>
        <time>2018-06-24T09:58:19.000Z</time>
      </trkpt>
      <trkpt lat="32.7835650555789470672607421875" lon="-16.84758790768682956695556640625">
        <ele>149.600006103515625</ele>
        <time>2018-06-24T09:58:22.000Z</time>
      </trkpt>
      <trkpt lat="32.78358642943203449249267578125" lon="-16.84754231013357639312744140625">
        <ele>148.1999969482421875</ele>
        <time>2018-06-24T09:58:24.000Z</time>
      </trkpt>
      <trkpt lat="32.78361551463603973388671875" lon="-16.8475035019218921661376953125">
        <ele>146.8000030517578125</ele>
        <time>2018-06-24T09:58:26.000Z</time>
      </trkpt>
      <trkpt lat="32.78364610858261585235595703125" lon="-16.84746620245277881622314453125">
        <ele>145.600006103515625</ele>
        <time>2018-06-24T09:58:28.000Z</time>
      </trkpt>
      <trkpt lat="32.78365616686642169952392578125" lon="-16.84743158519268035888671875">
        <ele>144.1999969482421875</ele>
        <time>2018-06-24T09:58:30.000Z</time>
      </trkpt>
      <trkpt lat="32.7836455218493938446044921875" lon="-16.847392357885837554931640625">
        <ele>142.600006103515625</ele>
        <time>2018-06-24T09:58:32.000Z</time>
      </trkpt>
      <trkpt lat="32.7836282551288604736328125" lon="-16.8473584949970245361328125">
        <ele>140.8000030517578125</ele>
        <time>2018-06-24T09:58:34.000Z</time>
      </trkpt>
      <trkpt lat="32.78361685574054718017578125" lon="-16.84732002206146717071533203125">
        <ele>139.1999969482421875</ele>
        <time>2018-06-24T09:58:36.000Z</time>
      </trkpt>
      <trkpt lat="32.78361258096992969512939453125" lon="-16.84729906730353832244873046875">
        <ele>138</ele>
        <time>2018-06-24T09:58:37.000Z</time>
      </trkpt>
      <trkpt lat="32.78360771946609020233154296875" lon="-16.84728230349719524383544921875">
        <ele>137</ele>
        <time>2018-06-24T09:58:38.000Z</time>
      </trkpt>
      <trkpt lat="32.78359447605907917022705078125" lon="-16.84725179336965084075927734375">
        <ele>135.1999969482421875</ele>
        <time>2018-06-24T09:58:40.000Z</time>
      </trkpt>
      <trkpt lat="32.7835798077285289764404296875" lon="-16.84722103178501129150390625">
        <ele>133.399993896484375</ele>
        <time>2018-06-24T09:58:42.000Z</time>
      </trkpt>
      <trkpt lat="32.7835617028176784515380859375" lon="-16.847182475030422210693359375">
        <ele>131.600006103515625</ele>
        <time>2018-06-24T09:58:44.000Z</time>
      </trkpt>
      <trkpt lat="32.7835362218320369720458984375" lon="-16.847144253551959991455078125">
        <ele>129.8000030517578125</ele>
        <time>2018-06-24T09:58:46.000Z</time>
      </trkpt>
      <trkpt lat="32.78351803310215473175048828125" lon="-16.847087927162647247314453125">
        <ele>128</ele>
        <time>2018-06-24T09:58:48.000Z</time>
      </trkpt>
      <trkpt lat="32.7835070528090000152587890625" lon="-16.847047694027423858642578125">
        <ele>126.40000152587890625</ele>
        <time>2018-06-24T09:58:50.000Z</time>
      </trkpt>
      <trkpt lat="32.78348743915557861328125" lon="-16.84700033627450466156005859375">
        <ele>125.1999969482421875</ele>
        <time>2018-06-24T09:58:52.000Z</time>
      </trkpt>
      <trkpt lat="32.78344091959297657012939453125" lon="-16.846945770084857940673828125">
        <ele>123.59999847412109375</ele>
        <time>2018-06-24T09:58:54.000Z</time>
      </trkpt>
      <trkpt lat="32.783401273190975189208984375" lon="-16.84690721333026885986328125">
        <ele>122.40000152587890625</ele>
        <time>2018-06-24T09:58:56.000Z</time>
      </trkpt>
      <trkpt lat="32.78336447663605213165283203125" lon="-16.8468829058110713958740234375">
        <ele>121</ele>
        <time>2018-06-24T09:58:58.000Z</time>
      </trkpt>
      <trkpt lat="32.7833466231822967529296875" lon="-16.84687293134629726409912109375">
        <ele>119.59999847412109375</ele>
        <time>2018-06-24T09:59:00.000Z</time>
      </trkpt>
      <trkpt lat="32.783373109996318817138671875" lon="-16.84689925052225589752197265625">
        <ele>118.1999969482421875</ele>
        <time>2018-06-24T09:59:02.000Z</time>
      </trkpt>
      <trkpt lat="32.78340504504740238189697265625" lon="-16.84692892245948314666748046875">
        <ele>117.1999969482421875</ele>
        <time>2018-06-24T09:59:04.000Z</time>
      </trkpt>
      <trkpt lat="32.783415354788303375244140625" lon="-16.84696362353861331939697265625">
        <ele>116</ele>
        <time>2018-06-24T09:59:06.000Z</time>
      </trkpt>
      <trkpt lat="32.7834202162921428680419921875" lon="-16.8470049463212490081787109375">
        <ele>114.59999847412109375</ele>
        <time>2018-06-24T09:59:08.000Z</time>
      </trkpt>
      <trkpt lat="32.78342415578663349151611328125" lon="-16.84706387110054492950439453125">
        <ele>113.40000152587890625</ele>
        <time>2018-06-24T09:59:10.000Z</time>
      </trkpt>
      <trkpt lat="32.783419378101825714111328125" lon="-16.84708113782107830047607421875">
        <ele>112.40000152587890625</ele>
        <time>2018-06-24T09:59:12.000Z</time>
      </trkpt>
      <trkpt lat="32.78340789489448070526123046875" lon="-16.84707753360271453857421875">
        <ele>112</ele>
        <time>2018-06-24T09:59:13.000Z</time>
      </trkpt>
      <trkpt lat="32.78338140808045864105224609375" lon="-16.847065798938274383544921875">
        <ele>110.40000152587890625</ele>
        <time>2018-06-24T09:59:15.000Z</time>
      </trkpt>
      <trkpt lat="32.7833528257906436920166015625" lon="-16.84705632738769054412841796875">
        <ele>108.8000030517578125</ele>
        <time>2018-06-24T09:59:17.000Z</time>
      </trkpt>
      <trkpt lat="32.78332424350082874298095703125" lon="-16.8470455147325992584228515625">
        <ele>107</ele>
        <time>2018-06-24T09:59:19.000Z</time>
      </trkpt>
      <trkpt lat="32.783291973173618316650390625" lon="-16.847038306295871734619140625">
        <ele>105.59999847412109375</ele>
        <time>2018-06-24T09:59:21.000Z</time>
      </trkpt>
      <trkpt lat="32.78324000537395477294921875" lon="-16.847028248012065887451171875">
        <ele>104</ele>
        <time>2018-06-24T09:59:24.000Z</time>
      </trkpt>
      <trkpt lat="32.78320052661001682281494140625" lon="-16.84702514670789241790771484375">
        <ele>102.40000152587890625</ele>
        <time>2018-06-24T09:59:26.000Z</time>
      </trkpt>
      <trkpt lat="32.7831633947789669036865234375" lon="-16.84702363796532154083251953125">
        <ele>101</ele>
        <time>2018-06-24T09:59:28.000Z</time>
      </trkpt>
      <trkpt lat="32.783125340938568115234375" lon="-16.847027242183685302734375">
        <ele>99.59999847412109375</ele>
        <time>2018-06-24T09:59:30.000Z</time>
      </trkpt>
      <trkpt lat="32.78308309614658355712890625" lon="-16.84703336097300052642822265625">
        <ele>98</ele>
        <time>2018-06-24T09:59:32.000Z</time>
      </trkpt>
      <trkpt lat="32.783039845526218414306640625" lon="-16.847036965191364288330078125">
        <ele>96.59999847412109375</ele>
        <time>2018-06-24T09:59:34.000Z</time>
      </trkpt>
      <trkpt lat="32.78303087688982486724853515625" lon="-16.84704274870455265045166015625">
        <ele>96</ele>
        <time>2018-06-24T09:59:35.000Z</time>
      </trkpt>
      <trkpt lat="32.7830336429178714752197265625" lon="-16.84705146588385105133056640625">
        <ele>95.40000152587890625</ele>
        <time>2018-06-24T09:59:36.000Z</time>
      </trkpt>
      <trkpt lat="32.78305828571319580078125" lon="-16.84707024134695529937744140625">
        <ele>94</ele>
        <time>2018-06-24T09:59:38.000Z</time>
      </trkpt>
      <trkpt lat="32.783070020377635955810546875" lon="-16.84709320776164531707763671875">
        <ele>92.8000030517578125</ele>
        <time>2018-06-24T09:59:40.000Z</time>
      </trkpt>
      <trkpt lat="32.78305820189416408538818359375" lon="-16.8471028469502925872802734375">
        <ele>91.59999847412109375</ele>
        <time>2018-06-24T09:59:42.000Z</time>
      </trkpt>
      <trkpt lat="32.78304512612521648406982421875" lon="-16.84710578061640262603759765625">
        <ele>91</ele>
        <time>2018-06-24T09:59:43.000Z</time>
      </trkpt>
      <trkpt lat="32.78303272090852260589599609375" lon="-16.84710812754929065704345703125">
        <ele>90.1999969482421875</ele>
        <time>2018-06-24T09:59:44.000Z</time>
      </trkpt>
      <trkpt lat="32.78299994766712188720703125" lon="-16.847108714282512664794921875">
        <ele>88.59999847412109375</ele>
        <time>2018-06-24T09:59:46.000Z</time>
      </trkpt>
      <trkpt lat="32.78296750970184803009033203125" lon="-16.84710343368351459503173828125">
        <ele>87.1999969482421875</ele>
        <time>2018-06-24T09:59:48.000Z</time>
      </trkpt>
      <trkpt lat="32.78293347917497158050537109375" lon="-16.8471058644354343414306640625">
        <ele>85.59999847412109375</ele>
        <time>2018-06-24T09:59:50.000Z</time>
      </trkpt>
      <trkpt lat="32.78290338814258575439453125" lon="-16.84711240231990814208984375">
        <ele>84.1999969482421875</ele>
        <time>2018-06-24T09:59:52.000Z</time>
      </trkpt>
      <trkpt lat="32.78287530876696109771728515625" lon="-16.84712019748985767364501953125">
        <ele>82.40000152587890625</ele>
        <time>2018-06-24T09:59:54.000Z</time>
      </trkpt>
      <trkpt lat="32.7828556112945079803466796875" lon="-16.84713059104979038238525390625">
        <ele>81</ele>
        <time>2018-06-24T09:59:56.000Z</time>
      </trkpt>
      <trkpt lat="32.78282552026212215423583984375" lon="-16.84713880531489849090576171875">
        <ele>79.59999847412109375</ele>
        <time>2018-06-24T09:59:58.000Z</time>
      </trkpt>
      <trkpt lat="32.782789729535579681396484375" lon="-16.84714215807616710662841796875">
        <ele>78</ele>
        <time>2018-06-24T10:00:00.000Z</time>
      </trkpt>
      <trkpt lat="32.78276215307414531707763671875" lon="-16.84715271927416324615478515625">
        <ele>76.8000030517578125</ele>
        <time>2018-06-24T10:00:02.000Z</time>
      </trkpt>
      <trkpt lat="32.7827339060604572296142578125" lon="-16.84716579504311084747314453125">
        <ele>75.40000152587890625</ele>
        <time>2018-06-24T10:00:04.000Z</time>
      </trkpt>
      <trkpt lat="32.7827090956270694732666015625" lon="-16.8471745960414409637451171875">
        <ele>73.8000030517578125</ele>
        <time>2018-06-24T10:00:06.000Z</time>
      </trkpt>
      <trkpt lat="32.78270230628550052642822265625" lon="-16.8471846543252468109130859375">
        <ele>73</ele>
        <time>2018-06-24T10:00:07.000Z</time>
      </trkpt>
      <trkpt lat="32.782705239951610565185546875" lon="-16.84719680808484554290771484375">
        <ele>72.40000152587890625</ele>
        <time>2018-06-24T10:00:08.000Z</time>
      </trkpt>
      <trkpt lat="32.78271965682506561279296875" lon="-16.84721256606280803680419921875">
        <ele>71.1999969482421875</ele>
        <time>2018-06-24T10:00:10.000Z</time>
      </trkpt>
      <trkpt lat="32.782722674310207366943359375" lon="-16.847220696508884429931640625">
        <ele>70.59999847412109375</ele>
        <time>2018-06-24T10:00:12.000Z</time>
      </trkpt>
      <trkpt lat="32.7827121131122112274169921875" lon="-16.84722748585045337677001953125">
        <ele>70</ele>
        <time>2018-06-24T10:00:13.000Z</time>
      </trkpt>
      <trkpt lat="32.78269895352423191070556640625" lon="-16.8472446687519550323486328125">
        <ele>68.59999847412109375</ele>
        <time>2018-06-24T10:00:15.000Z</time>
      </trkpt>
      <trkpt lat="32.7827101014554500579833984375" lon="-16.847274340689182281494140625">
        <ele>67</ele>
        <time>2018-06-24T10:00:18.000Z</time>
      </trkpt>
      <trkpt lat="32.78272694908082485198974609375" lon="-16.8472952954471111297607421875">
        <ele>65.40000152587890625</ele>
        <time>2018-06-24T10:00:20.000Z</time>
      </trkpt>
      <trkpt lat="32.7827456407248973846435546875" lon="-16.847317256033420562744140625">
        <ele>63.799999237060546875</ele>
        <time>2018-06-24T10:00:22.000Z</time>
      </trkpt>
      <trkpt lat="32.7827587164938449859619140625" lon="-16.8473303318023681640625">
        <ele>62.40000152587890625</ele>
        <time>2018-06-24T10:00:24.000Z</time>
      </trkpt>
      <trkpt lat="32.7827587164938449859619140625" lon="-16.84733561240136623382568359375">
        <ele>62.40000152587890625</ele>
        <time>2018-06-24T10:00:25.000Z</time>
      </trkpt>
      <trkpt lat="32.78266207315027713775634765625" lon="-16.847303844988346099853515625">
        <ele>63</ele>
        <time>2018-06-24T10:00:33.000Z</time>
      </trkpt>
      <trkpt lat="32.78262184001505374908447265625" lon="-16.84726369567215442657470703125">
        <ele>63.59999847412109375</ele>
        <time>2018-06-24T10:00:36.000Z</time>
      </trkpt>
      <trkpt lat="32.7824797667562961578369140625" lon="-16.84716797433793544769287109375">
        <ele>64.8000030517578125</ele>
        <time>2018-06-24T10:00:44.000Z</time>
      </trkpt>
      <trkpt lat="32.7823791839182376861572265625" lon="-16.8471977300941944122314453125">
        <ele>63.799999237060546875</ele>
        <time>2018-06-24T10:00:48.000Z</time>
      </trkpt>
      <trkpt lat="32.7823168225586414337158203125" lon="-16.84722312726080417633056640625">
        <ele>62</ele>
        <time>2018-06-24T10:00:50.000Z</time>
      </trkpt>
      <trkpt lat="32.78226678259670734405517578125" lon="-16.84723385609686374664306640625">
        <ele>60.799999237060546875</ele>
        <time>2018-06-24T10:00:52.000Z</time>
      </trkpt>
      <trkpt lat="32.78216980397701263427734375" lon="-16.84721474535763263702392578125">
        <ele>59.799999237060546875</ele>
        <time>2018-06-24T10:00:56.000Z</time>
      </trkpt>
      <trkpt lat="32.78207902796566486358642578125" lon="-16.84721290133893489837646484375">
        <ele>58.40000152587890625</ele>
        <time>2018-06-24T10:00:59.000Z</time>
      </trkpt>
      <trkpt lat="32.78202228248119354248046875" lon="-16.84723176062107086181640625">
        <ele>57.200000762939453125</ele>
        <time>2018-06-24T10:01:01.000Z</time>
      </trkpt>
      <trkpt lat="32.7819708175957202911376953125" lon="-16.84727207757532596588134765625">
        <ele>55.59999847412109375</ele>
        <time>2018-06-24T10:01:03.000Z</time>
      </trkpt>
      <trkpt lat="32.7819118089973926544189453125" lon="-16.8473066948354244232177734375">
        <ele>54.59999847412109375</ele>
        <time>2018-06-24T10:01:05.000Z</time>
      </trkpt>
      <trkpt lat="32.78172179125249385833740234375" lon="-16.8473288230597972869873046875">
        <ele>55.799999237060546875</ele>
        <time>2018-06-24T10:01:15.000Z</time>
      </trkpt>
      <trkpt lat="32.78161115013062953948974609375" lon="-16.84732429683208465576171875">
        <ele>57</ele>
        <time>2018-06-24T10:01:21.000Z</time>
      </trkpt>
      <trkpt lat="32.7814377285540103912353515625" lon="-16.847300827503204345703125">
        <ele>58</ele>
        <time>2018-06-24T10:01:29.000Z</time>
      </trkpt>
      <trkpt lat="32.7812506444752216339111328125" lon="-16.847205273807048797607421875">
        <ele>57.59999847412109375</ele>
        <time>2018-06-24T10:01:37.000Z</time>
      </trkpt>
      <trkpt lat="32.78105392120778560638427734375" lon="-16.84716797433793544769287109375">
        <ele>57.59999847412109375</ele>
        <time>2018-06-24T10:01:45.000Z</time>
      </trkpt>
      <trkpt lat="32.78088242746889591217041015625" lon="-16.84713360853493213653564453125">
        <ele>59.200000762939453125</ele>
        <time>2018-06-24T10:01:53.000Z</time>
      </trkpt>
      <trkpt lat="32.78077497147023677825927734375" lon="-16.8471521325409412384033203125">
        <ele>60.40000152587890625</ele>
        <time>2018-06-24T10:01:58.000Z</time>
      </trkpt>
      <trkpt lat="32.78075418435037136077880859375" lon="-16.84715406037867069244384765625">
        <ele>60.59999847412109375</ele>
        <time>2018-06-24T10:01:59.000Z</time>
      </trkpt>
      <trkpt lat="32.78071747161448001861572265625" lon="-16.8471581675112247467041015625">
        <ele>61.59999847412109375</ele>
        <time>2018-06-24T10:02:02.000Z</time>
      </trkpt>
      <trkpt lat="32.7807073295116424560546875" lon="-16.8471568264067173004150390625">
        <ele>62</ele>
        <time>2018-06-24T10:02:03.000Z</time>
      </trkpt>
      <trkpt lat="32.780696935951709747314453125" lon="-16.8471492826938629150390625">
        <ele>62.59999847412109375</ele>
        <time>2018-06-24T10:02:05.000Z</time>
      </trkpt>
      <trkpt lat="32.780690900981426239013671875" lon="-16.84713293798267841339111328125">
        <ele>63.59999847412109375</ele>
        <time>2018-06-24T10:02:08.000Z</time>
      </trkpt>
      <trkpt lat="32.78067790903151035308837890625" lon="-16.84711332432925701141357421875">
        <ele>64.8000030517578125</ele>
        <time>2018-06-24T10:02:11.000Z</time>
      </trkpt>
      <trkpt lat="32.78064907528460025787353515625" lon="-16.8471370451152324676513671875">
        <ele>65.8000030517578125</ele>
        <time>2018-06-24T10:02:14.000Z</time>
      </trkpt>
      <trkpt lat="32.78063348494470119476318359375" lon="-16.84713813476264476776123046875">
        <ele>66.1999969482421875</ele>
        <time>2018-06-24T10:02:15.000Z</time>
      </trkpt>
      <trkpt lat="32.7805314771831035614013671875" lon="-16.8471524678170680999755859375">
        <ele>67.40000152587890625</ele>
        <time>2018-06-24T10:02:21.000Z</time>
      </trkpt>
      <trkpt lat="32.78033492155373096466064453125" lon="-16.84719018638134002685546875">
        <ele>68.40000152587890625</ele>
        <time>2018-06-24T10:02:30.000Z</time>
      </trkpt>
      <trkpt lat="32.7802397869527339935302734375" lon="-16.847198568284511566162109375">
        <ele>69.59999847412109375</ele>
        <time>2018-06-24T10:02:35.000Z</time>
      </trkpt>
      <trkpt lat="32.78018203563988208770751953125" lon="-16.84712137095630168914794921875">
        <ele>70.40000152587890625</ele>
        <time>2018-06-24T10:02:39.000Z</time>
      </trkpt>
      <trkpt lat="32.7801492623984813690185546875" lon="-16.8470723368227481842041015625">
        <ele>70.8000030517578125</ele>
        <time>2018-06-24T10:02:41.000Z</time>
      </trkpt>
      <trkpt lat="32.78006737120449542999267578125" lon="-16.84700737707316875457763671875">
        <ele>72.1999969482421875</ele>
        <time>2018-06-24T10:02:46.000Z</time>
      </trkpt>
      <trkpt lat="32.78003669343888759613037109375" lon="-16.84697426855564117431640625">
        <ele>73.1999969482421875</ele>
        <time>2018-06-24T10:02:49.000Z</time>
      </trkpt>
      <trkpt lat="32.77993326075375080108642578125" lon="-16.84694836847484111785888671875">
        <ele>74.40000152587890625</ele>
        <time>2018-06-24T10:02:55.000Z</time>
      </trkpt>
      <trkpt lat="32.779744751751422882080078125" lon="-16.8469563312828540802001953125">
        <ele>74.1999969482421875</ele>
        <time>2018-06-24T10:03:03.000Z</time>
      </trkpt>
      <trkpt lat="32.77956278063356876373291015625" lon="-16.84701743535697460174560546875">
        <ele>74.1999969482421875</ele>
        <time>2018-06-24T10:03:11.000Z</time>
      </trkpt>
      <trkpt lat="32.7793811447918415069580078125" lon="-16.84706051833927631378173828125">
        <ele>74.1999969482421875</ele>
        <time>2018-06-24T10:03:19.000Z</time>
      </trkpt>
      <trkpt lat="32.77919967658817768096923828125" lon="-16.8471305072307586669921875">
        <ele>74.59999847412109375</ele>
        <time>2018-06-24T10:03:26.000Z</time>
      </trkpt>
      <trkpt lat="32.77902198024094104766845703125" lon="-16.847194544970989227294921875">
        <ele>74.8000030517578125</ele>
        <time>2018-06-24T10:03:33.000Z</time>
      </trkpt>
      <trkpt lat="32.77882701717317104339599609375" lon="-16.8472082912921905517578125">
        <ele>74.59999847412109375</ele>
        <time>2018-06-24T10:03:41.000Z</time>
      </trkpt>
      <trkpt lat="32.778629958629608154296875" lon="-16.84722078032791614532470703125">
        <ele>74.40000152587890625</ele>
        <time>2018-06-24T10:03:49.000Z</time>
      </trkpt>
      <trkpt lat="32.778454609215259552001953125" lon="-16.84712204150855541229248046875">
        <ele>74.59999847412109375</ele>
        <time>2018-06-24T10:03:57.000Z</time>
      </trkpt>
      <trkpt lat="32.77831722982227802276611328125" lon="-16.84710544534027576446533203125">
        <ele>75.59999847412109375</ele>
        <time>2018-06-24T10:04:03.000Z</time>
      </trkpt>
      <trkpt lat="32.7781305648386478424072265625" lon="-16.84711508452892303466796875">
        <ele>75.59999847412109375</ele>
        <time>2018-06-24T10:04:11.000Z</time>
      </trkpt>
      <trkpt lat="32.77793987654149532318115234375" lon="-16.84715607203543186187744140625">
        <ele>75.59999847412109375</ele>
        <time>2018-06-24T10:04:18.000Z</time>
      </trkpt>
      <trkpt lat="32.7777671255171298980712890625" lon="-16.8472735024988651275634765625">
        <ele>75.8000030517578125</ele>
        <time>2018-06-24T10:04:25.000Z</time>
      </trkpt>
      <trkpt lat="32.77758716605603694915771484375" lon="-16.84727475978434085845947265625">
        <ele>76</ele>
        <time>2018-06-24T10:04:31.000Z</time>
      </trkpt>
      <trkpt lat="32.7774358727037906646728515625" lon="-16.84715330600738525390625">
        <ele>76.8000030517578125</ele>
        <time>2018-06-24T10:04:39.000Z</time>
      </trkpt>
      <trkpt lat="32.7773973159492015838623046875" lon="-16.84710142202675342559814453125">
        <ele>78</ele>
        <time>2018-06-24T10:04:42.000Z</time>
      </trkpt>
      <trkpt lat="32.777205370366573333740234375" lon="-16.84709765017032623291015625">
        <ele>76.8000030517578125</ele>
        <time>2018-06-24T10:04:50.000Z</time>
      </trkpt>
      <trkpt lat="32.7770756185054779052734375" lon="-16.84716613031923770904541015625">
        <ele>75.8000030517578125</ele>
        <time>2018-06-24T10:04:55.000Z</time>
      </trkpt>
      <trkpt lat="32.77688710950314998626708984375" lon="-16.8472061119973659515380859375">
        <ele>76.8000030517578125</ele>
        <time>2018-06-24T10:05:04.000Z</time>
      </trkpt>
      <trkpt lat="32.7767177112400531768798828125" lon="-16.8473271466791629791259765625">
        <ele>77</ele>
        <time>2018-06-24T10:05:12.000Z</time>
      </trkpt>
      <trkpt lat="32.7765537612140178680419921875" lon="-16.84743518941104412078857421875">
        <ele>76.1999969482421875</ele>
        <time>2018-06-24T10:05:19.000Z</time>
      </trkpt>
      <trkpt lat="32.77637916617095470428466796875" lon="-16.84753476642072200775146484375">
        <ele>77.40000152587890625</ele>
        <time>2018-06-24T10:05:27.000Z</time>
      </trkpt>
      <trkpt lat="32.77621529996395111083984375" lon="-16.84766250662505626678466796875">
        <ele>77.59999847412109375</ele>
        <time>2018-06-24T10:05:35.000Z</time>
      </trkpt>
      <trkpt lat="32.77603584341704845428466796875" lon="-16.84774146415293216705322265625">
        <ele>77.40000152587890625</ele>
        <time>2018-06-24T10:05:43.000Z</time>
      </trkpt>
      <trkpt lat="32.7759217657148838043212890625" lon="-16.84773542918264865875244140625">
        <ele>78</ele>
        <time>2018-06-24T10:05:48.000Z</time>
      </trkpt>
      <trkpt lat="32.7757202647626399993896484375" lon="-16.84768044389784336090087890625">
        <ele>78</ele>
        <time>2018-06-24T10:05:56.000Z</time>
      </trkpt>
      <trkpt lat="32.77553963474929332733154296875" lon="-16.84768597595393657684326171875">
        <ele>77.8000030517578125</ele>
        <time>2018-06-24T10:06:03.000Z</time>
      </trkpt>
      <trkpt lat="32.775352634489536285400390625" lon="-16.84766166843473911285400390625">
        <ele>78.1999969482421875</ele>
        <time>2018-06-24T10:06:11.000Z</time>
      </trkpt>
      <trkpt lat="32.77516194619238376617431640625" lon="-16.84766401536762714385986328125">
        <ele>78</ele>
        <time>2018-06-24T10:06:19.000Z</time>
      </trkpt>
      <trkpt lat="32.774969078600406646728515625" lon="-16.84758891351521015167236328125">
        <ele>78.40000152587890625</ele>
        <time>2018-06-24T10:06:27.000Z</time>
      </trkpt>
      <trkpt lat="32.77477897703647613525390625" lon="-16.84752990491688251495361328125">
        <ele>78.59999847412109375</ele>
        <time>2018-06-24T10:06:35.000Z</time>
      </trkpt>
      <trkpt lat="32.7745944075286388397216796875" lon="-16.84750928543508052825927734375">
        <ele>78.8000030517578125</ele>
        <time>2018-06-24T10:06:42.000Z</time>
      </trkpt>
      <trkpt lat="32.7744733728468418121337890625" lon="-16.847519762814044952392578125">
        <ele>79</ele>
        <time>2018-06-24T10:06:47.000Z</time>
      </trkpt>
      <trkpt lat="32.7742889709770679473876953125" lon="-16.8475569784641265869140625">
        <ele>79</ele>
        <time>2018-06-24T10:06:54.000Z</time>
      </trkpt>
      <trkpt lat="32.77409861795604228973388671875" lon="-16.84763484634459018707275390625">
        <ele>79.40000152587890625</ele>
        <time>2018-06-24T10:07:02.000Z</time>
      </trkpt>
      <trkpt lat="32.774031646549701690673828125" lon="-16.847672648727893829345703125">
        <ele>80.1999969482421875</ele>
        <time>2018-06-24T10:07:06.000Z</time>
      </trkpt>
      <trkpt lat="32.773979008197784423828125" lon="-16.84765714220702648162841796875">
        <ele>81.40000152587890625</ele>
        <time>2018-06-24T10:07:10.000Z</time>
      </trkpt>
      <trkpt lat="32.773929052054882049560546875" lon="-16.84763669036328792572021484375">
        <ele>82.59999847412109375</ele>
        <time>2018-06-24T10:07:14.000Z</time>
      </trkpt>
      <trkpt lat="32.77388714253902435302734375" lon="-16.847611628472805023193359375">
        <ele>83.8000030517578125</ele>
        <time>2018-06-24T10:07:18.000Z</time>
      </trkpt>
      <trkpt lat="32.77386057190597057342529296875" lon="-16.847574748098850250244140625">
        <ele>85</ele>
        <time>2018-06-24T10:07:22.000Z</time>
      </trkpt>
      <trkpt lat="32.773858644068241119384765625" lon="-16.84755974449217319488525390625">
        <ele>85.59999847412109375</ele>
        <time>2018-06-24T10:07:24.000Z</time>
      </trkpt>
      <trkpt lat="32.7738514356315135955810546875" lon="-16.84753979556262493133544921875">
        <ele>86.1999969482421875</ele>
        <time>2018-06-24T10:07:26.000Z</time>
      </trkpt>
      <trkpt lat="32.773845233023166656494140625" lon="-16.84750693850219249725341796875">
        <ele>87.1999969482421875</ele>
        <time>2018-06-24T10:07:29.000Z</time>
      </trkpt>
      <trkpt lat="32.773827128112316131591796875" lon="-16.8474589101970195770263671875">
        <ele>88.40000152587890625</ele>
        <time>2018-06-24T10:07:33.000Z</time>
      </trkpt>
      <trkpt lat="32.7738115377724170684814453125" lon="-16.84740987606346607208251953125">
        <ele>89.59999847412109375</ele>
        <time>2018-06-24T10:07:37.000Z</time>
      </trkpt>
      <trkpt lat="32.7738031558692455291748046875" lon="-16.84737131930887699127197265625">
        <ele>90.59999847412109375</ele>
        <time>2018-06-24T10:07:40.000Z</time>
      </trkpt>
      <trkpt lat="32.7737847156822681427001953125" lon="-16.847325302660465240478515625">
        <ele>91.59999847412109375</ele>
        <time>2018-06-24T10:07:43.000Z</time>
      </trkpt>
      <trkpt lat="32.7737592346966266632080078125" lon="-16.8472731672227382659912109375">
        <ele>92.8000030517578125</ele>
        <time>2018-06-24T10:07:47.000Z</time>
      </trkpt>
      <trkpt lat="32.7737414650619029998779296875" lon="-16.84722966514527797698974609375">
        <ele>94</ele>
        <time>2018-06-24T10:07:51.000Z</time>
      </trkpt>
      <trkpt lat="32.77371807955205440521240234375" lon="-16.84717484749853610992431640625">
        <ele>95.40000152587890625</ele>
        <time>2018-06-24T10:07:55.000Z</time>
      </trkpt>
      <trkpt lat="32.77370248921215534210205078125" lon="-16.84714199043810367584228515625">
        <ele>96.40000152587890625</ele>
        <time>2018-06-24T10:07:58.000Z</time>
      </trkpt>
      <trkpt lat="32.77368471957743167877197265625" lon="-16.8471078760921955108642578125">
        <ele>97.8000030517578125</ele>
        <time>2018-06-24T10:08:01.000Z</time>
      </trkpt>
      <trkpt lat="32.77368589304387569427490234375" lon="-16.84710125438868999481201171875">
        <ele>98.1999969482421875</ele>
        <time>2018-06-24T10:08:02.000Z</time>
      </trkpt>
      <trkpt lat="32.773686982691287994384765625" lon="-16.84708314947783946990966796875">
        <ele>99</ele>
        <time>2018-06-24T10:08:04.000Z</time>
      </trkpt>
      <trkpt lat="32.773686982691287994384765625" lon="-16.84706747531890869140625">
        <ele>99.59999847412109375</ele>
        <time>2018-06-24T10:08:06.000Z</time>
      </trkpt>
      <trkpt lat="32.77367851696908473968505859375" lon="-16.847044341266155242919921875">
        <ele>100</ele>
        <time>2018-06-24T10:08:08.000Z</time>
      </trkpt>
      <trkpt lat="32.77366326190531253814697265625" lon="-16.8469402380287647247314453125">
        <ele>101</ele>
        <time>2018-06-24T10:08:13.000Z</time>
      </trkpt>
      <trkpt lat="32.77364113368093967437744140625" lon="-16.84683538042008876800537109375">
        <ele>102.1999969482421875</ele>
        <time>2018-06-24T10:08:18.000Z</time>
      </trkpt>
      <trkpt lat="32.7736504375934600830078125" lon="-16.84674468822777271270751953125">
        <ele>103.1999969482421875</ele>
        <time>2018-06-24T10:08:22.000Z</time>
      </trkpt>
      <trkpt lat="32.77366192080080509185791015625" lon="-16.8465710990130901336669921875">
        <ele>104.40000152587890625</ele>
        <time>2018-06-24T10:08:30.000Z</time>
      </trkpt>
      <trkpt lat="32.77363912202417850494384765625" lon="-16.8465690873563289642333984375">
        <ele>104.8000030517578125</ele>
        <time>2018-06-24T10:08:32.000Z</time>
      </trkpt>
      <trkpt lat="32.773615904152393341064453125" lon="-16.846580319106578826904296875">
        <ele>105.40000152587890625</ele>
        <time>2018-06-24T10:08:34.000Z</time>
      </trkpt>
      <trkpt lat="32.77357709594070911407470703125" lon="-16.8466063030064105987548828125">
        <ele>106.8000030517578125</ele>
        <time>2018-06-24T10:08:38.000Z</time>
      </trkpt>
      <trkpt lat="32.77354859746992588043212890625" lon="-16.8466291017830371856689453125">
        <ele>108</ele>
        <time>2018-06-24T10:08:41.000Z</time>
      </trkpt>
      <trkpt lat="32.77351926080882549285888671875" lon="-16.8466515652835369110107421875">
        <ele>109</ele>
        <time>2018-06-24T10:08:44.000Z</time>
      </trkpt>
      <trkpt lat="32.77349260635673999786376953125" lon="-16.84667788445949554443359375">
        <ele>110</ele>
        <time>2018-06-24T10:08:47.000Z</time>
      </trkpt>
      <trkpt lat="32.77344650588929653167724609375" lon="-16.846699006855487823486328125">
        <ele>111.1999969482421875</ele>
        <time>2018-06-24T10:08:51.000Z</time>
      </trkpt>
      <trkpt lat="32.7733981423079967498779296875" lon="-16.8467115797102451324462890625">
        <ele>112.40000152587890625</ele>
        <time>2018-06-24T10:08:55.000Z</time>
      </trkpt>
      <trkpt lat="32.77334676124155521392822265625" lon="-16.84672842733561992645263671875">
        <ele>113.59999847412109375</ele>
        <time>2018-06-24T10:08:59.000Z</time>
      </trkpt>
      <trkpt lat="32.773298732936382293701171875" lon="-16.84673882089555263519287109375">
        <ele>114.59999847412109375</ele>
        <time>2018-06-24T10:09:03.000Z</time>
      </trkpt>
      <trkpt lat="32.77325925417244434356689453125" lon="-16.8467665649950504302978515625">
        <ele>115.8000030517578125</ele>
        <time>2018-06-24T10:09:07.000Z</time>
      </trkpt>
      <trkpt lat="32.77321994304656982421875" lon="-16.84678659774363040924072265625">
        <ele>117.1999969482421875</ele>
        <time>2018-06-24T10:09:11.000Z</time>
      </trkpt>
      <trkpt lat="32.77317493222653865814208984375" lon="-16.84680067934095859527587890625">
        <ele>118.1999969482421875</ele>
        <time>2018-06-24T10:09:15.000Z</time>
      </trkpt>
      <trkpt lat="32.77315883897244930267333984375" lon="-16.84681090526282787322998046875">
        <ele>118.8000030517578125</ele>
        <time>2018-06-24T10:09:17.000Z</time>
      </trkpt>
      <trkpt lat="32.7731393091380596160888671875" lon="-16.84681727550923824310302734375">
        <ele>119.40000152587890625</ele>
        <time>2018-06-24T10:09:19.000Z</time>
      </trkpt>
      <trkpt lat="32.77309723198413848876953125" lon="-16.84683135710656642913818359375">
        <ele>120.59999847412109375</ele>
        <time>2018-06-24T10:09:23.000Z</time>
      </trkpt>
      <trkpt lat="32.77305490337312221527099609375" lon="-16.84684627689421176910400390625">
        <ele>121.8000030517578125</ele>
        <time>2018-06-24T10:09:27.000Z</time>
      </trkpt>
      <trkpt lat="32.7730149216949939727783203125" lon="-16.84686555527150630950927734375">
        <ele>123.1999969482421875</ele>
        <time>2018-06-24T10:09:31.000Z</time>
      </trkpt>
      <trkpt lat="32.772980891168117523193359375" lon="-16.8468694947659969329833984375">
        <ele>124.59999847412109375</ele>
        <time>2018-06-24T10:09:34.000Z</time>
      </trkpt>
      <trkpt lat="32.77294929139316082000732421875" lon="-16.84684946201741695404052734375">
        <ele>125.8000030517578125</ele>
        <time>2018-06-24T10:09:38.000Z</time>
      </trkpt>
      <trkpt lat="32.7729300968348979949951171875" lon="-16.8468212150037288665771484375">
        <ele>127</ele>
        <time>2018-06-24T10:09:41.000Z</time>
      </trkpt>
      <trkpt lat="32.77292062528431415557861328125" lon="-16.8467930518090724945068359375">
        <ele>128</ele>
        <time>2018-06-24T10:09:44.000Z</time>
      </trkpt>
      <trkpt lat="32.77291308157145977020263671875" lon="-16.8467622064054012298583984375">
        <ele>129.1999969482421875</ele>
        <time>2018-06-24T10:09:47.000Z</time>
      </trkpt>
      <trkpt lat="32.77290151454508304595947265625" lon="-16.8467327021062374114990234375">
        <ele>130.1999969482421875</ele>
        <time>2018-06-24T10:09:50.000Z</time>
      </trkpt>
      <trkpt lat="32.7728834934532642364501953125" lon="-16.8466907925903797149658203125">
        <ele>131.399993896484375</ele>
        <time>2018-06-24T10:09:54.000Z</time>
      </trkpt>
      <trkpt lat="32.7728643827140331268310546875" lon="-16.846643351018428802490234375">
        <ele>132.600006103515625</ele>
        <time>2018-06-24T10:09:58.000Z</time>
      </trkpt>
      <trkpt lat="32.7728355489671230316162109375" lon="-16.846594400703907012939453125">
        <ele>134</ele>
        <time>2018-06-24T10:10:02.000Z</time>
      </trkpt>
      <trkpt lat="32.77281048707664012908935546875" lon="-16.84654913842678070068359375">
        <ele>135</ele>
        <time>2018-06-24T10:10:06.000Z</time>
      </trkpt>
      <trkpt lat="32.77277997694909572601318359375" lon="-16.84651418589055538177490234375">
        <ele>136.399993896484375</ele>
        <time>2018-06-24T10:10:10.000Z</time>
      </trkpt>
      <trkpt lat="32.77275860309600830078125" lon="-16.84647663496434688568115234375">
        <ele>137.600006103515625</ele>
        <time>2018-06-24T10:10:14.000Z</time>
      </trkpt>
      <trkpt lat="32.772737480700016021728515625" lon="-16.84643908403813838958740234375">
        <ele>138.600006103515625</ele>
        <time>2018-06-24T10:10:18.000Z</time>
      </trkpt>
      <trkpt lat="32.77271610684692859649658203125" lon="-16.84641008265316486358642578125">
        <ele>139.8000030517578125</ele>
        <time>2018-06-24T10:10:21.000Z</time>
      </trkpt>
      <trkpt lat="32.77269490063190460205078125" lon="-16.846388876438140869140625">
        <ele>140.8000030517578125</ele>
        <time>2018-06-24T10:10:24.000Z</time>
      </trkpt>
      <trkpt lat="32.77266346849501132965087890625" lon="-16.8463484756648540496826171875">
        <ele>142.1999969482421875</ele>
        <time>2018-06-24T10:10:28.000Z</time>
      </trkpt>
      <trkpt lat="32.7726306952536106109619140625" lon="-16.84631167910993099212646484375">
        <ele>143.600006103515625</ele>
        <time>2018-06-24T10:10:32.000Z</time>
      </trkpt>
      <trkpt lat="32.77259574271738529205322265625" lon="-16.8462740443646907806396484375">
        <ele>144.600006103515625</ele>
        <time>2018-06-24T10:10:36.000Z</time>
      </trkpt>
      <trkpt lat="32.7725683338940143585205078125" lon="-16.8462338112294673919677734375">
        <ele>145.600006103515625</ele>
        <time>2018-06-24T10:10:40.000Z</time>
      </trkpt>
      <trkpt lat="32.772551067173480987548828125" lon="-16.84618997387588024139404296875">
        <ele>146.8000030517578125</ele>
        <time>2018-06-24T10:10:44.000Z</time>
      </trkpt>
      <trkpt lat="32.772534303367137908935546875" lon="-16.84615175239741802215576171875">
        <ele>147.8000030517578125</ele>
        <time>2018-06-24T10:10:48.000Z</time>
      </trkpt>
      <trkpt lat="32.7725123427808284759521484375" lon="-16.84610481373965740203857421875">
        <ele>149</ele>
        <time>2018-06-24T10:10:52.000Z</time>
      </trkpt>
      <trkpt lat="32.77248929254710674285888671875" lon="-16.846035830676555633544921875">
        <ele>150.1999969482421875</ele>
        <time>2018-06-24T10:10:57.000Z</time>
      </trkpt>
      <trkpt lat="32.77246448211371898651123046875" lon="-16.846007667481899261474609375">
        <ele>151.1999969482421875</ele>
        <time>2018-06-24T10:11:01.000Z</time>
      </trkpt>
      <trkpt lat="32.7724255062639713287353515625" lon="-16.845982857048511505126953125">
        <ele>152.399993896484375</ele>
        <time>2018-06-24T10:11:05.000Z</time>
      </trkpt>
      <trkpt lat="32.77238636277616024017333984375" lon="-16.8459422886371612548828125">
        <ele>153.399993896484375</ele>
        <time>2018-06-24T10:11:09.000Z</time>
      </trkpt>
      <trkpt lat="32.7723629772663116455078125" lon="-16.84590783901512622833251953125">
        <ele>154.8000030517578125</ele>
        <time>2018-06-24T10:11:13.000Z</time>
      </trkpt>
      <trkpt lat="32.77233171276748180389404296875" lon="-16.8458703719079494476318359375">
        <ele>156</ele>
        <time>2018-06-24T10:11:17.000Z</time>
      </trkpt>
      <trkpt lat="32.7723078243434429168701171875" lon="-16.84582301415503025054931640625">
        <ele>157</ele>
        <time>2018-06-24T10:11:21.000Z</time>
      </trkpt>
      <trkpt lat="32.77226650156080722808837890625" lon="-16.84578512795269489288330078125">
        <ele>158.1999969482421875</ele>
        <time>2018-06-24T10:11:25.000Z</time>
      </trkpt>
      <trkpt lat="32.77221067808568477630615234375" lon="-16.84575445018708705902099609375">
        <ele>159.399993896484375</ele>
        <time>2018-06-24T10:11:30.000Z</time>
      </trkpt>
      <trkpt lat="32.77212970890104770660400390625" lon="-16.8457406200468540191650390625">
        <ele>160.600006103515625</ele>
        <time>2018-06-24T10:11:35.000Z</time>
      </trkpt>
      <trkpt lat="32.7720545232295989990234375" lon="-16.845727376639842987060546875">
        <ele>161.600006103515625</ele>
        <time>2018-06-24T10:11:40.000Z</time>
      </trkpt>
      <trkpt lat="32.77200481854379177093505859375" lon="-16.84573433361947536468505859375">
        <ele>162.8000030517578125</ele>
        <time>2018-06-24T10:11:44.000Z</time>
      </trkpt>
      <trkpt lat="32.77194790542125701904296875" lon="-16.84575813822448253631591796875">
        <ele>164.1999969482421875</ele>
        <time>2018-06-24T10:11:49.000Z</time>
      </trkpt>
      <trkpt lat="32.77189903892576694488525390625" lon="-16.8457593955099582672119140625">
        <ele>165.1999969482421875</ele>
        <time>2018-06-24T10:11:53.000Z</time>
      </trkpt>
      <trkpt lat="32.7718525193631649017333984375" lon="-16.8457563780248165130615234375">
        <ele>166.399993896484375</ele>
        <time>2018-06-24T10:11:57.000Z</time>
      </trkpt>
      <trkpt lat="32.77181446552276611328125" lon="-16.84574690647423267364501953125">
        <ele>167.399993896484375</ele>
        <time>2018-06-24T10:12:01.000Z</time>
      </trkpt>
      <trkpt lat="32.771772556006908416748046875" lon="-16.845727376639842987060546875">
        <ele>168.399993896484375</ele>
        <time>2018-06-24T10:12:05.000Z</time>
      </trkpt>
      <trkpt lat="32.77172788046300411224365234375" lon="-16.845714636147022247314453125">
        <ele>169.8000030517578125</ele>
        <time>2018-06-24T10:12:09.000Z</time>
      </trkpt>
      <trkpt lat="32.7716949395835399627685546875" lon="-16.84569753706455230712890625">
        <ele>171.1999969482421875</ele>
        <time>2018-06-24T10:12:13.000Z</time>
      </trkpt>
      <trkpt lat="32.77166895568370819091796875" lon="-16.84567633084952831268310546875">
        <ele>172.399993896484375</ele>
        <time>2018-06-24T10:12:17.000Z</time>
      </trkpt>
      <trkpt lat="32.77165076695382595062255859375" lon="-16.84564816765487194061279296875">
        <ele>173.600006103515625</ele>
        <time>2018-06-24T10:12:21.000Z</time>
      </trkpt>
      <trkpt lat="32.77165445499122142791748046875" lon="-16.84562922455370426177978515625">
        <ele>174.1999969482421875</ele>
        <time>2018-06-24T10:12:23.000Z</time>
      </trkpt>
      <trkpt lat="32.77166149578988552093505859375" lon="-16.84561581350862979888916015625">
        <ele>174.8000030517578125</ele>
        <time>2018-06-24T10:12:25.000Z</time>
      </trkpt>
      <trkpt lat="32.7716899104416370391845703125" lon="-16.8455927632749080657958984375">
        <ele>176</ele>
        <time>2018-06-24T10:12:29.000Z</time>
      </trkpt>
      <trkpt lat="32.77172318659722805023193359375" lon="-16.8455748260021209716796875">
        <ele>177.1999969482421875</ele>
        <time>2018-06-24T10:12:33.000Z</time>
      </trkpt>
      <trkpt lat="32.77176559902727603912353515625" lon="-16.84555663727223873138427734375">
        <ele>178.399993896484375</ele>
        <time>2018-06-24T10:12:37.000Z</time>
      </trkpt>
      <trkpt lat="32.77180264703929424285888671875" lon="-16.84554473496973514556884765625">
        <ele>179.399993896484375</ele>
        <time>2018-06-24T10:12:41.000Z</time>
      </trkpt>
      <trkpt lat="32.77185847051441669464111328125" lon="-16.84551724232733249664306640625">
        <ele>180.600006103515625</ele>
        <time>2018-06-24T10:12:46.000Z</time>
      </trkpt>
      <trkpt lat="32.77191932313144207000732421875" lon="-16.84549276717007160186767578125">
        <ele>181.8000030517578125</ele>
        <time>2018-06-24T10:12:51.000Z</time>
      </trkpt>
      <trkpt lat="32.77196156792342662811279296875" lon="-16.84548187069594860076904296875">
        <ele>182.8000030517578125</ele>
        <time>2018-06-24T10:12:55.000Z</time>
      </trkpt>
      <trkpt lat="32.77200280688703060150146484375" lon="-16.8454707227647304534912109375">
        <ele>184</ele>
        <time>2018-06-24T10:12:59.000Z</time>
      </trkpt>
      <trkpt lat="32.7720406092703342437744140625" lon="-16.845454461872577667236328125">
        <ele>185.1999969482421875</ele>
        <time>2018-06-24T10:13:03.000Z</time>
      </trkpt>
      <trkpt lat="32.772066593170166015625" lon="-16.8454459123313426971435546875">
        <ele>186.399993896484375</ele>
        <time>2018-06-24T10:13:07.000Z</time>
      </trkpt>
      <trkpt lat="32.77209115214645862579345703125" lon="-16.84543811716139316558837890625">
        <ele>187.8000030517578125</ele>
        <time>2018-06-24T10:13:11.000Z</time>
      </trkpt>
      <trkpt lat="32.77212484739720821380615234375" lon="-16.8454274721443653106689453125">
        <ele>188.8000030517578125</ele>
        <time>2018-06-24T10:13:15.000Z</time>
      </trkpt>
      <trkpt lat="32.7721663378179073333740234375" lon="-16.84541313908994197845458984375">
        <ele>190</ele>
        <time>2018-06-24T10:13:19.000Z</time>
      </trkpt>
      <trkpt lat="32.77221201919019222259521484375" lon="-16.84539905749261379241943359375">
        <ele>191</ele>
        <time>2018-06-24T10:13:23.000Z</time>
      </trkpt>
      <trkpt lat="32.77226985432207584381103515625" lon="-16.845386065542697906494140625">
        <ele>192.1999969482421875</ele>
        <time>2018-06-24T10:13:28.000Z</time>
      </trkpt>
      <trkpt lat="32.77231629006564617156982421875" lon="-16.84538313187658786773681640625">
        <ele>193.1999969482421875</ele>
        <time>2018-06-24T10:13:33.000Z</time>
      </trkpt>
      <trkpt lat="32.77238049544394016265869140625" lon="-16.845388747751712799072265625">
        <ele>194.399993896484375</ele>
        <time>2018-06-24T10:13:39.000Z</time>
      </trkpt>
      <trkpt lat="32.77243011631071567535400390625" lon="-16.84536837972700595855712890625">
        <ele>195.600006103515625</ele>
        <time>2018-06-24T10:13:45.000Z</time>
      </trkpt>
      <trkpt lat="32.77247303165495395660400390625" lon="-16.84534080326557159423828125">
        <ele>196.8000030517578125</ele>
        <time>2018-06-24T10:13:50.000Z</time>
      </trkpt>
      <trkpt lat="32.77250102721154689788818359375" lon="-16.84532730840146541595458984375">
        <ele>198</ele>
        <time>2018-06-24T10:13:54.000Z</time>
      </trkpt>
      <trkpt lat="32.772525250911712646484375" lon="-16.84531004168093204498291015625">
        <ele>199.1999969482421875</ele>
        <time>2018-06-24T10:13:58.000Z</time>
      </trkpt>
      <trkpt lat="32.7725103311240673065185546875" lon="-16.845288835465908050537109375">
        <ele>199.600006103515625</ele>
        <time>2018-06-24T10:14:00.000Z</time>
      </trkpt>
      <trkpt lat="32.77248962782323360443115234375" lon="-16.845280788838863372802734375">
        <ele>200.1999969482421875</ele>
        <time>2018-06-24T10:14:02.000Z</time>
      </trkpt>
      <trkpt lat="32.77247898280620574951171875" lon="-16.84527718462049961090087890625">
        <ele>200.399993896484375</ele>
        <time>2018-06-24T10:14:03.000Z</time>
      </trkpt>
      <trkpt lat="32.7723913080990314483642578125" lon="-16.8452159129083156585693359375">
        <ele>201.1999969482421875</ele>
        <time>2018-06-24T10:14:11.000Z</time>
      </trkpt>
      <trkpt lat="32.77233556844294071197509765625" lon="-16.8451854027807712554931640625">
        <ele>202.1999969482421875</ele>
        <time>2018-06-24T10:14:17.000Z</time>
      </trkpt>
      <trkpt lat="32.77232467196881771087646484375" lon="-16.8451615981757640838623046875">
        <ele>203.399993896484375</ele>
        <time>2018-06-24T10:14:20.000Z</time>
      </trkpt>
      <trkpt lat="32.77232584543526172637939453125" lon="-16.8451327644288539886474609375">
        <ele>204.600006103515625</ele>
        <time>2018-06-24T10:14:24.000Z</time>
      </trkpt>
      <trkpt lat="32.7723254263401031494140625" lon="-16.8451069481670856475830078125">
        <ele>205.8000030517578125</ele>
        <time>2018-06-24T10:14:27.000Z</time>
      </trkpt>
      <trkpt lat="32.77235065586864948272705078125" lon="-16.84507300145924091339111328125">
        <ele>206.8000030517578125</ele>
        <time>2018-06-24T10:14:31.000Z</time>
      </trkpt>
      <trkpt lat="32.77238242328166961669921875" lon="-16.84505539946258068084716796875">
        <ele>208</ele>
        <time>2018-06-24T10:14:35.000Z</time>
      </trkpt>
      <trkpt lat="32.77241016738116741180419921875" lon="-16.84505875222384929656982421875">
        <ele>209</ele>
        <time>2018-06-24T10:14:39.000Z</time>
      </trkpt>
      <trkpt lat="32.77244101278483867645263671875" lon="-16.84505942277610301971435546875">
        <ele>210.1999969482421875</ele>
        <time>2018-06-24T10:14:43.000Z</time>
      </trkpt>
      <trkpt lat="32.772463224828243255615234375" lon="-16.84504265896975994110107421875">
        <ele>211.1999969482421875</ele>
        <time>2018-06-24T10:14:47.000Z</time>
      </trkpt>
      <trkpt lat="32.77244419790804386138916015625" lon="-16.845011897385120391845703125">
        <ele>212.399993896484375</ele>
        <time>2018-06-24T10:14:51.000Z</time>
      </trkpt>
      <trkpt lat="32.77241863310337066650390625" lon="-16.84498582966625690460205078125">
        <ele>213.399993896484375</ele>
        <time>2018-06-24T10:14:54.000Z</time>
      </trkpt>
      <trkpt lat="32.77235685847699642181396484375" lon="-16.84495246969163417816162109375">
        <ele>214.600006103515625</ele>
        <time>2018-06-24T10:14:59.000Z</time>
      </trkpt>
      <trkpt lat="32.77231662534177303314208984375" lon="-16.84492128901183605194091796875">
        <ele>215.8000030517578125</ele>
        <time>2018-06-24T10:15:03.000Z</time>
      </trkpt>
      <trkpt lat="32.7722732909023761749267578125" lon="-16.84490586631000041961669921875">
        <ele>216.8000030517578125</ele>
        <time>2018-06-24T10:15:07.000Z</time>
      </trkpt>
      <trkpt lat="32.77222995646297931671142578125" lon="-16.844889186322689056396484375">
        <ele>218</ele>
        <time>2018-06-24T10:15:11.000Z</time>
      </trkpt>
      <trkpt lat="32.77218955568969249725341796875" lon="-16.8448734283447265625">
        <ele>219.1999969482421875</ele>
        <time>2018-06-24T10:15:15.000Z</time>
      </trkpt>
      <trkpt lat="32.77214772999286651611328125" lon="-16.84485339559614658355712890625">
        <ele>220.1999969482421875</ele>
        <time>2018-06-24T10:15:19.000Z</time>
      </trkpt>
      <trkpt lat="32.7721056528389453887939453125" lon="-16.8448263220489025115966796875">
        <ele>221.399993896484375</ele>
        <time>2018-06-24T10:15:23.000Z</time>
      </trkpt>
      <trkpt lat="32.7720657549798488616943359375" lon="-16.84481064788997173309326171875">
        <ele>222.399993896484375</ele>
        <time>2018-06-24T10:15:27.000Z</time>
      </trkpt>
      <trkpt lat="32.7720288746058940887451171875" lon="-16.84479388408362865447998046875">
        <ele>223.600006103515625</ele>
        <time>2018-06-24T10:15:31.000Z</time>
      </trkpt>
      <trkpt lat="32.771995179355144500732421875" lon="-16.844777204096317291259765625">
        <ele>224.600006103515625</ele>
        <time>2018-06-24T10:15:35.000Z</time>
      </trkpt>
      <trkpt lat="32.7719531022012233734130859375" lon="-16.844751052558422088623046875">
        <ele>225.8000030517578125</ele>
        <time>2018-06-24T10:15:39.000Z</time>
      </trkpt>
      <trkpt lat="32.771902643144130706787109375" lon="-16.84472582302987575531005859375">
        <ele>226.8000030517578125</ele>
        <time>2018-06-24T10:15:43.000Z</time>
      </trkpt>
      <trkpt lat="32.77186249382793903350830078125" lon="-16.84467159211635589599609375">
        <ele>227.8000030517578125</ele>
        <time>2018-06-24T10:15:47.000Z</time>
      </trkpt>
      <trkpt lat="32.771801054477691650390625" lon="-16.84460311196744441986083984375">
        <ele>228.8000030517578125</ele>
        <time>2018-06-24T10:15:52.000Z</time>
      </trkpt>
      <trkpt lat="32.771708853542804718017578125" lon="-16.84449397958815097808837890625">
        <ele>230</ele>
        <time>2018-06-24T10:15:59.000Z</time>
      </trkpt>
      <trkpt lat="32.77159544639289379119873046875" lon="-16.84432064183056354522705078125">
        <ele>231</ele>
        <time>2018-06-24T10:16:08.000Z</time>
      </trkpt>
      <trkpt lat="32.771461419761180877685546875" lon="-16.84414328075945377349853515625">
        <ele>232</ele>
        <time>2018-06-24T10:16:17.000Z</time>
      </trkpt>
      <trkpt lat="32.7713700570166110992431640625" lon="-16.8439955078065395355224609375">
        <ele>233.1999969482421875</ele>
        <time>2018-06-24T10:16:24.000Z</time>
      </trkpt>
      <trkpt lat="32.771248184144496917724609375" lon="-16.84381973929703235626220703125">
        <ele>234.1999969482421875</ele>
        <time>2018-06-24T10:16:32.000Z</time>
      </trkpt>
      <trkpt lat="32.771071828901767730712890625" lon="-16.843771040439605712890625">
        <ele>233.600006103515625</ele>
        <time>2018-06-24T10:16:41.000Z</time>
      </trkpt>
      <trkpt lat="32.770918942987918853759765625" lon="-16.84376290999352931976318359375">
        <ele>233.399993896484375</ele>
        <time>2018-06-24T10:16:48.000Z</time>
      </trkpt>
      <trkpt lat="32.77088935486972332000732421875" lon="-16.8437380157411098480224609375">
        <ele>232.8000030517578125</ele>
        <time>2018-06-24T10:17:13.000Z</time>
      </trkpt>
      <trkpt lat="32.77084149420261383056640625" lon="-16.84374815784394741058349609375">
        <ele>233.8000030517578125</ele>
        <time>2018-06-24T10:17:17.000Z</time>
      </trkpt>
      <trkpt lat="32.77080595493316650390625" lon="-16.84375695884227752685546875">
        <ele>234.1999969482421875</ele>
        <time>2018-06-24T10:17:19.000Z</time>
      </trkpt>
      <trkpt lat="32.770723141729831695556640625" lon="-16.843763329088687896728515625">
        <ele>235.399993896484375</ele>
        <time>2018-06-24T10:17:23.000Z</time>
      </trkpt>
      <trkpt lat="32.77064510621130466461181640625" lon="-16.8437670171260833740234375">
        <ele>236.399993896484375</ele>
        <time>2018-06-24T10:17:27.000Z</time>
      </trkpt>
      <trkpt lat="32.77053010649979114532470703125" lon="-16.84377682395279407501220703125">
        <ele>237.399993896484375</ele>
        <time>2018-06-24T10:17:33.000Z</time>
      </trkpt>
      <trkpt lat="32.77033112011849880218505859375" lon="-16.84377850033342838287353515625">
        <ele>238.399993896484375</ele>
        <time>2018-06-24T10:17:43.000Z</time>
      </trkpt>
      <trkpt lat="32.770307064056396484375" lon="-16.843778751790523529052734375">
        <ele>238.399993896484375</ele>
        <time>2018-06-24T10:17:44.000Z</time>
      </trkpt>
      <trkpt lat="32.7702183835208415985107421875" lon="-16.843779422342777252197265625">
        <ele>239.600006103515625</ele>
        <time>2018-06-24T10:17:48.000Z</time>
      </trkpt>
      <trkpt lat="32.77003004215657711029052734375" lon="-16.8437715433537960052490234375">
        <ele>240.399993896484375</ele>
        <time>2018-06-24T10:17:57.000Z</time>
      </trkpt>
      <trkpt lat="32.7699786610901355743408203125" lon="-16.84375972487032413482666015625">
        <ele>240.600006103515625</ele>
        <time>2018-06-24T10:18:00.000Z</time>
      </trkpt>
      <trkpt lat="32.76993247680366039276123046875" lon="-16.84373550117015838623046875">
        <ele>242</ele>
        <time>2018-06-24T10:18:04.000Z</time>
      </trkpt>
      <trkpt lat="32.769878245890140533447265625" lon="-16.84370390139520168304443359375">
        <ele>243.1999969482421875</ele>
        <time>2018-06-24T10:18:09.000Z</time>
      </trkpt>
      <trkpt lat="32.76981714181602001190185546875" lon="-16.84365880675613880157470703125">
        <ele>244.399993896484375</ele>
        <time>2018-06-24T10:18:14.000Z</time>
      </trkpt>
      <trkpt lat="32.769770957529544830322265625" lon="-16.843635253608226776123046875">
        <ele>245.399993896484375</ele>
        <time>2018-06-24T10:18:18.000Z</time>
      </trkpt>
      <trkpt lat="32.76972728781402111053466796875" lon="-16.84360030107200145721435546875">
        <ele>246.600006103515625</ele>
        <time>2018-06-24T10:18:22.000Z</time>
      </trkpt>
      <trkpt lat="32.769687138497829437255859375" lon="-16.84358370490372180938720703125">
        <ele>247.8000030517578125</ele>
        <time>2018-06-24T10:18:26.000Z</time>
      </trkpt>
      <trkpt lat="32.769625447690486907958984375" lon="-16.8435730598866939544677734375">
        <ele>249</ele>
        <time>2018-06-24T10:18:31.000Z</time>
      </trkpt>
      <trkpt lat="32.76955126784741878509521484375" lon="-16.8435438908636569976806640625">
        <ele>250</ele>
        <time>2018-06-24T10:18:37.000Z</time>
      </trkpt>
      <trkpt lat="32.7694770880043506622314453125" lon="-16.84350483119487762451171875">
        <ele>251.1999969482421875</ele>
        <time>2018-06-24T10:18:43.000Z</time>
      </trkpt>
      <trkpt lat="32.76936653070151805877685546875" lon="-16.84344775043427944183349609375">
        <ele>252.1999969482421875</ele>
        <time>2018-06-24T10:18:50.000Z</time>
      </trkpt>
      <trkpt lat="32.76919838972389698028564453125" lon="-16.84333945624530315399169921875">
        <ele>253.1999969482421875</ele>
        <time>2018-06-24T10:18:59.000Z</time>
      </trkpt>
      <trkpt lat="32.7691753394901752471923828125" lon="-16.8433356843888759613037109375">
        <ele>253.399993896484375</ele>
        <time>2018-06-24T10:19:00.000Z</time>
      </trkpt>
      <trkpt lat="32.76899118907749652862548828125" lon="-16.84329402633011341094970703125">
        <ele>253.600006103515625</ele>
        <time>2018-06-24T10:19:08.000Z</time>
      </trkpt>
      <trkpt lat="32.76880033314228057861328125" lon="-16.8432947807013988494873046875">
        <ele>254.1999969482421875</ele>
        <time>2018-06-24T10:19:16.000Z</time>
      </trkpt>
      <trkpt lat="32.76871089823544025421142578125" lon="-16.843330152332782745361328125">
        <ele>254.399993896484375</ele>
        <time>2018-06-24T10:19:20.000Z</time>
      </trkpt>
      <trkpt lat="32.7685285918414592742919921875" lon="-16.84335370548069477081298828125">
        <ele>255</ele>
        <time>2018-06-24T10:19:28.000Z</time>
      </trkpt>
      <trkpt lat="32.7683247439563274383544921875" lon="-16.843341886997222900390625">
        <ele>255.1999969482421875</ele>
        <time>2018-06-24T10:19:36.000Z</time>
      </trkpt>
      <trkpt lat="32.7681331336498260498046875" lon="-16.843349598348140716552734375">
        <ele>255.1999969482421875</ele>
        <time>2018-06-24T10:19:43.000Z</time>
      </trkpt>
      <trkpt lat="32.7679894678294658660888671875" lon="-16.8433366902172565460205078125">
        <ele>255.600006103515625</ele>
        <time>2018-06-24T10:19:49.000Z</time>
      </trkpt>
      <trkpt lat="32.76793775148689746856689453125" lon="-16.84332218952476978302001953125">
        <ele>256.600006103515625</ele>
        <time>2018-06-24T10:19:52.000Z</time>
      </trkpt>
      <trkpt lat="32.7678878791630268096923828125" lon="-16.84330592863261699676513671875">
        <ele>258</ele>
        <time>2018-06-24T10:19:55.000Z</time>
      </trkpt>
      <trkpt lat="32.767810933291912078857421875" lon="-16.8432934395968914031982421875">
        <ele>259</ele>
        <time>2018-06-24T10:19:59.000Z</time>
      </trkpt>
      <trkpt lat="32.767682187259197235107421875" lon="-16.84332755394279956817626953125">
        <ele>260</ele>
        <time>2018-06-24T10:20:05.000Z</time>
      </trkpt>
      <trkpt lat="32.76749619282782077789306640625" lon="-16.84339276514947414398193359375">
        <ele>260</ele>
        <time>2018-06-24T10:20:13.000Z</time>
      </trkpt>
      <trkpt lat="32.7673581428825855255126953125" lon="-16.8435281328856945037841796875">
        <ele>259.79998779296875</ele>
        <time>2018-06-24T10:20:20.000Z</time>
      </trkpt>
      <trkpt lat="32.7672907523810863494873046875" lon="-16.84373072348535060882568359375">
        <ele>260.20001220703125</ele>
        <time>2018-06-24T10:20:27.000Z</time>
      </trkpt>
      <trkpt lat="32.767280526459217071533203125" lon="-16.84375486336648464202880859375">
        <ele>260.20001220703125</ele>
        <time>2018-06-24T10:20:28.000Z</time>
      </trkpt>
      <trkpt lat="32.76723735965788364410400390625" lon="-16.84385863132774829864501953125">
        <ele>261</ele>
        <time>2018-06-24T10:20:34.000Z</time>
      </trkpt>
      <trkpt lat="32.76722277514636516571044921875" lon="-16.84392317198216915130615234375">
        <ele>262</ele>
        <time>2018-06-24T10:20:38.000Z</time>
      </trkpt>
      <trkpt lat="32.76721514761447906494140625" lon="-16.84399441815912723541259765625">
        <ele>263.399993896484375</ele>
        <time>2018-06-24T10:20:42.000Z</time>
      </trkpt>
      <trkpt lat="32.76720684953033924102783203125" lon="-16.8440595455467700958251953125">
        <ele>264.600006103515625</ele>
        <time>2018-06-24T10:20:46.000Z</time>
      </trkpt>
      <trkpt lat="32.76719444431364536285400390625" lon="-16.844114363193511962890625">
        <ele>265.79998779296875</ele>
        <time>2018-06-24T10:20:50.000Z</time>
      </trkpt>
      <trkpt lat="32.767182290554046630859375" lon="-16.84416876174509525299072265625">
        <ele>266.79998779296875</ele>
        <time>2018-06-24T10:20:54.000Z</time>
      </trkpt>
      <trkpt lat="32.7671653591096401214599609375" lon="-16.844228021800518035888671875">
        <ele>268</ele>
        <time>2018-06-24T10:20:58.000Z</time>
      </trkpt>
      <trkpt lat="32.76715756393969058990478515625" lon="-16.844276301562786102294921875">
        <ele>269.20001220703125</ele>
        <time>2018-06-24T10:21:02.000Z</time>
      </trkpt>
      <trkpt lat="32.76713996194303035736083984375" lon="-16.844319216907024383544921875">
        <ele>270.20001220703125</ele>
        <time>2018-06-24T10:21:05.000Z</time>
      </trkpt>
      <trkpt lat="32.7670835517346858978271484375" lon="-16.84440881945192813873291015625">
        <ele>271.20001220703125</ele>
        <time>2018-06-24T10:21:12.000Z</time>
      </trkpt>
      <trkpt lat="32.76702295057475566864013671875" lon="-16.84445810504257678985595703125">
        <ele>272.600006103515625</ele>
        <time>2018-06-24T10:21:17.000Z</time>
      </trkpt>
      <trkpt lat="32.7669621817767620086669921875" lon="-16.84450102038681507110595703125">
        <ele>273.600006103515625</ele>
        <time>2018-06-24T10:21:22.000Z</time>
      </trkpt>
      <trkpt lat="32.76691247709095478057861328125" lon="-16.844537146389484405517578125">
        <ele>274.600006103515625</ele>
        <time>2018-06-24T10:21:26.000Z</time>
      </trkpt>
      <trkpt lat="32.7668590843677520751953125" lon="-16.8445850908756256103515625">
        <ele>276</ele>
        <time>2018-06-24T10:21:31.000Z</time>
      </trkpt>
      <trkpt lat="32.766809798777103424072265625" lon="-16.84465256519615650177001953125">
        <ele>277</ele>
        <time>2018-06-24T10:21:37.000Z</time>
      </trkpt>
      <trkpt lat="32.766746096312999725341796875" lon="-16.84474225156009197235107421875">
        <ele>278.20001220703125</ele>
        <time>2018-06-24T10:21:44.000Z</time>
      </trkpt>
      <trkpt lat="32.76671147905290126800537109375" lon="-16.84479505755007266998291015625">
        <ele>279.399993896484375</ele>
        <time>2018-06-24T10:21:48.000Z</time>
      </trkpt>
      <trkpt lat="32.76668608188629150390625" lon="-16.8448484502732753753662109375">
        <ele>280.399993896484375</ele>
        <time>2018-06-24T10:21:52.000Z</time>
      </trkpt>
      <trkpt lat="32.76665498502552509307861328125" lon="-16.8448987416923046112060546875">
        <ele>281.600006103515625</ele>
        <time>2018-06-24T10:21:56.000Z</time>
      </trkpt>
      <trkpt lat="32.76660494506359100341796875" lon="-16.84494526125490665435791015625">
        <ele>282.79998779296875</ele>
        <time>2018-06-24T10:22:01.000Z</time>
      </trkpt>
      <trkpt lat="32.76656948961317539215087890625" lon="-16.8449889309704303741455078125">
        <ele>283.79998779296875</ele>
        <time>2018-06-24T10:22:05.000Z</time>
      </trkpt>
      <trkpt lat="32.76653344742953777313232421875" lon="-16.845053136348724365234375">
        <ele>285</ele>
        <time>2018-06-24T10:22:10.000Z</time>
      </trkpt>
      <trkpt lat="32.76651383377611637115478515625" lon="-16.84511843137443065643310546875">
        <ele>286.399993896484375</ele>
        <time>2018-06-24T10:22:15.000Z</time>
      </trkpt>
      <trkpt lat="32.76649069972336292266845703125" lon="-16.8451609276235103607177734375">
        <ele>287.600006103515625</ele>
        <time>2018-06-24T10:22:19.000Z</time>
      </trkpt>
      <trkpt lat="32.76645968668162822723388671875" lon="-16.84520660899579524993896484375">
        <ele>288.79998779296875</ele>
        <time>2018-06-24T10:22:23.000Z</time>
      </trkpt>
      <trkpt lat="32.7663935534656047821044921875" lon="-16.84526838362216949462890625">
        <ele>290</ele>
        <time>2018-06-24T10:22:29.000Z</time>
      </trkpt>
      <trkpt lat="32.7663348801434040069580078125" lon="-16.84531490318477153778076171875">
        <ele>291</ele>
        <time>2018-06-24T10:22:34.000Z</time>
      </trkpt>
      <trkpt lat="32.7662745304405689239501953125" lon="-16.84536770917475223541259765625">
        <ele>292</ele>
        <time>2018-06-24T10:22:39.000Z</time>
      </trkpt>
      <trkpt lat="32.76622851379215717315673828125" lon="-16.8454093672335147857666015625">
        <ele>293.20001220703125</ele>
        <time>2018-06-24T10:22:43.000Z</time>
      </trkpt>
      <trkpt lat="32.76616179384291172027587890625" lon="-16.84544633142650127410888671875">
        <ele>294.20001220703125</ele>
        <time>2018-06-24T10:22:48.000Z</time>
      </trkpt>
      <trkpt lat="32.7660515718162059783935546875" lon="-16.84549679048359394073486328125">
        <ele>295.399993896484375</ele>
        <time>2018-06-24T10:22:56.000Z</time>
      </trkpt>
      <trkpt lat="32.76597487740218639373779296875" lon="-16.84552411548793315887451171875">
        <ele>296.600006103515625</ele>
        <time>2018-06-24T10:23:02.000Z</time>
      </trkpt>
      <trkpt lat="32.76589876972138881683349609375" lon="-16.84554456733167171478271484375">
        <ele>298</ele>
        <time>2018-06-24T10:23:08.000Z</time>
      </trkpt>
      <trkpt lat="32.7658551000058650970458984375" lon="-16.84554599225521087646484375">
        <ele>299.20001220703125</ele>
        <time>2018-06-24T10:23:12.000Z</time>
      </trkpt>
      <trkpt lat="32.76582299731671810150146484375" lon="-16.8455505184829235076904296875">
        <ele>300.399993896484375</ele>
        <time>2018-06-24T10:23:15.000Z</time>
      </trkpt>
      <trkpt lat="32.7657967619597911834716796875" lon="-16.84556015767157077789306640625">
        <ele>301.399993896484375</ele>
        <time>2018-06-24T10:23:18.000Z</time>
      </trkpt>
      <trkpt lat="32.76575870811939239501953125" lon="-16.84558647684752941131591796875">
        <ele>302.79998779296875</ele>
        <time>2018-06-24T10:23:22.000Z</time>
      </trkpt>
      <trkpt lat="32.7657360769808292388916015625" lon="-16.8456138856709003448486328125">
        <ele>303.79998779296875</ele>
        <time>2018-06-24T10:23:25.000Z</time>
      </trkpt>
      <trkpt lat="32.7657005377113819122314453125" lon="-16.845643222332000732421875">
        <ele>305</ele>
        <time>2018-06-24T10:23:29.000Z</time>
      </trkpt>
      <trkpt lat="32.76566541753709316253662109375" lon="-16.845665685832500457763671875">
        <ele>306</ele>
        <time>2018-06-24T10:23:33.000Z</time>
      </trkpt>
      <trkpt lat="32.765629291534423828125" lon="-16.845682449638843536376953125">
        <ele>307.20001220703125</ele>
        <time>2018-06-24T10:23:37.000Z</time>
      </trkpt>
      <trkpt lat="32.76559819467365741729736328125" lon="-16.8457003869116306304931640625">
        <ele>308.399993896484375</ele>
        <time>2018-06-24T10:23:41.000Z</time>
      </trkpt>
      <trkpt lat="32.76557371951639652252197265625" lon="-16.84571673162281513214111328125">
        <ele>309.399993896484375</ele>
        <time>2018-06-24T10:23:44.000Z</time>
      </trkpt>
      <trkpt lat="32.765540778636932373046875" lon="-16.84572595171630382537841796875">
        <ele>310.600006103515625</ele>
        <time>2018-06-24T10:23:48.000Z</time>
      </trkpt>
      <trkpt lat="32.76551663875579833984375" lon="-16.8457386083900928497314453125">
        <ele>311.600006103515625</ele>
        <time>2018-06-24T10:23:51.000Z</time>
      </trkpt>
      <trkpt lat="32.765476405620574951171875" lon="-16.84574740938842296600341796875">
        <ele>312.79998779296875</ele>
        <time>2018-06-24T10:23:55.000Z</time>
      </trkpt>
      <trkpt lat="32.765434496104717254638671875" lon="-16.845752857625484466552734375">
        <ele>314</ele>
        <time>2018-06-24T10:23:59.000Z</time>
      </trkpt>
      <trkpt lat="32.7653890661895275115966796875" lon="-16.8457607366144657135009765625">
        <ele>315.20001220703125</ele>
        <time>2018-06-24T10:24:03.000Z</time>
      </trkpt>
      <trkpt lat="32.7653307281434535980224609375" lon="-16.8457593955099582672119140625">
        <ele>316.399993896484375</ele>
        <time>2018-06-24T10:24:08.000Z</time>
      </trkpt>
      <trkpt lat="32.76524732820689678192138671875" lon="-16.84571899473667144775390625">
        <ele>317.399993896484375</ele>
        <time>2018-06-24T10:24:15.000Z</time>
      </trkpt>
      <trkpt lat="32.76518630795180797576904296875" lon="-16.84568404220044612884521484375">
        <ele>318.600006103515625</ele>
        <time>2018-06-24T10:24:20.000Z</time>
      </trkpt>
      <trkpt lat="32.76512243784964084625244140625" lon="-16.84565152041614055633544921875">
        <ele>319.79998779296875</ele>
        <time>2018-06-24T10:24:25.000Z</time>
      </trkpt>
      <trkpt lat="32.7650692127645015716552734375" lon="-16.8456350080668926239013671875">
        <ele>320.79998779296875</ele>
        <time>2018-06-24T10:24:29.000Z</time>
      </trkpt>
      <trkpt lat="32.76500727050006389617919921875" lon="-16.84561966918408870697021484375">
        <ele>321.79998779296875</ele>
        <time>2018-06-24T10:24:34.000Z</time>
      </trkpt>
      <trkpt lat="32.76495672762393951416015625" lon="-16.84561497531831264495849609375">
        <ele>323</ele>
        <time>2018-06-24T10:24:38.000Z</time>
      </trkpt>
      <trkpt lat="32.76491909287869930267333984375" lon="-16.8456058390438556671142578125">
        <ele>324.20001220703125</ele>
        <time>2018-06-24T10:24:42.000Z</time>
      </trkpt>
      <trkpt lat="32.76487760245800018310546875" lon="-16.8456001393496990203857421875">
        <ele>325.20001220703125</ele>
        <time>2018-06-24T10:24:46.000Z</time>
      </trkpt>
      <trkpt lat="32.76482890360057353973388671875" lon="-16.84559787623584270477294921875">
        <ele>326.399993896484375</ele>
        <time>2018-06-24T10:24:51.000Z</time>
      </trkpt>
      <trkpt lat="32.7647983096539974212646484375" lon="-16.84558899141848087310791015625">
        <ele>327.600006103515625</ele>
        <time>2018-06-24T10:24:55.000Z</time>
      </trkpt>
      <trkpt lat="32.764769308269023895263671875" lon="-16.845586560666561126708984375">
        <ele>328.79998779296875</ele>
        <time>2018-06-24T10:24:59.000Z</time>
      </trkpt>
      <trkpt lat="32.76474617421627044677734375" lon="-16.84558731503784656524658203125">
        <ele>329.79998779296875</ele>
        <time>2018-06-24T10:25:03.000Z</time>
      </trkpt>
      <trkpt lat="32.76471591554582118988037109375" lon="-16.84559284709393978118896484375">
        <ele>331</ele>
        <time>2018-06-24T10:25:07.000Z</time>
      </trkpt>
      <trkpt lat="32.764684818685054779052734375" lon="-16.845587231218814849853515625">
        <ele>332</ele>
        <time>2018-06-24T10:25:11.000Z</time>
      </trkpt>
      <trkpt lat="32.764657326042652130126953125" lon="-16.8455994687974452972412109375">
        <ele>333.20001220703125</ele>
        <time>2018-06-24T10:25:15.000Z</time>
      </trkpt>
      <trkpt lat="32.76462614536285400390625" lon="-16.845614053308963775634765625">
        <ele>334.399993896484375</ele>
        <time>2018-06-24T10:25:19.000Z</time>
      </trkpt>
      <trkpt lat="32.76460041292011737823486328125" lon="-16.84562536887824535369873046875">
        <ele>335.399993896484375</ele>
        <time>2018-06-24T10:25:22.000Z</time>
      </trkpt>
      <trkpt lat="32.76456001214683055877685546875" lon="-16.8456390313804149627685546875">
        <ele>336.600006103515625</ele>
        <time>2018-06-24T10:25:26.000Z</time>
      </trkpt>
      <trkpt lat="32.76451642625033855438232421875" lon="-16.84564196504652500152587890625">
        <ele>337.600006103515625</ele>
        <time>2018-06-24T10:25:30.000Z</time>
      </trkpt>
      <trkpt lat="32.76447652839124202728271484375" lon="-16.8456433899700641632080078125">
        <ele>338.600006103515625</ele>
        <time>2018-06-24T10:25:34.000Z</time>
      </trkpt>
      <trkpt lat="32.76444434188306331634521484375" lon="-16.84565537609159946441650390625">
        <ele>339.600006103515625</ele>
        <time>2018-06-24T10:25:38.000Z</time>
      </trkpt>
      <trkpt lat="32.76441517286002635955810546875" lon="-16.845667362213134765625">
        <ele>341</ele>
        <time>2018-06-24T10:25:42.000Z</time>
      </trkpt>
      <trkpt lat="32.76438214816153049468994140625" lon="-16.84567498974502086639404296875">
        <ele>342.20001220703125</ele>
        <time>2018-06-24T10:25:46.000Z</time>
      </trkpt>
      <trkpt lat="32.7643517218530178070068359375" lon="-16.84568823315203189849853515625">
        <ele>343.399993896484375</ele>
        <time>2018-06-24T10:25:50.000Z</time>
      </trkpt>
      <trkpt lat="32.7643195353448390960693359375" lon="-16.8457037396728992462158203125">
        <ele>344.600006103515625</ele>
        <time>2018-06-24T10:25:54.000Z</time>
      </trkpt>
      <trkpt lat="32.76428617537021636962890625" lon="-16.845712959766387939453125">
        <ele>345.600006103515625</ele>
        <time>2018-06-24T10:25:58.000Z</time>
      </trkpt>
      <trkpt lat="32.7642565034329891204833984375" lon="-16.84572176076471805572509765625">
        <ele>346.79998779296875</ele>
        <time>2018-06-24T10:26:02.000Z</time>
      </trkpt>
      <trkpt lat="32.76421853341162204742431640625" lon="-16.845732070505619049072265625">
        <ele>348</ele>
        <time>2018-06-24T10:26:07.000Z</time>
      </trkpt>
      <trkpt lat="32.76419171132147312164306640625" lon="-16.84574640356004238128662109375">
        <ele>349.20001220703125</ele>
        <time>2018-06-24T10:26:11.000Z</time>
      </trkpt>
      <trkpt lat="32.76415449567139148712158203125" lon="-16.8457503430545330047607421875">
        <ele>350.399993896484375</ele>
        <time>2018-06-24T10:26:15.000Z</time>
      </trkpt>
      <trkpt lat="32.764122225344181060791015625" lon="-16.845760904252529144287109375">
        <ele>351.399993896484375</ele>
        <time>2018-06-24T10:26:19.000Z</time>
      </trkpt>
      <trkpt lat="32.7640704251825809478759765625" lon="-16.845761239528656005859375">
        <ele>352.600006103515625</ele>
        <time>2018-06-24T10:26:24.000Z</time>
      </trkpt>
      <trkpt lat="32.76402859948575496673583984375" lon="-16.845750510692596435546875">
        <ele>354</ele>
        <time>2018-06-24T10:26:28.000Z</time>
      </trkpt>
      <trkpt lat="32.76396833360195159912109375" lon="-16.84572930447757244110107421875">
        <ele>355.20001220703125</ele>
        <time>2018-06-24T10:26:33.000Z</time>
      </trkpt>
      <trkpt lat="32.76390655897557735443115234375" lon="-16.84570549987256526947021484375">
        <ele>356.399993896484375</ele>
        <time>2018-06-24T10:26:38.000Z</time>
      </trkpt>
      <trkpt lat="32.7638612128794193267822265625" lon="-16.84568203054368495941162109375">
        <ele>357.399993896484375</ele>
        <time>2018-06-24T10:26:42.000Z</time>
      </trkpt>
      <trkpt lat="32.76380128227174282073974609375" lon="-16.8456242792308330535888671875">
        <ele>358.600006103515625</ele>
        <time>2018-06-24T10:26:47.000Z</time>
      </trkpt>
      <trkpt lat="32.7637324668467044830322265625" lon="-16.8455270491540431976318359375">
        <ele>359.600006103515625</ele>
        <time>2018-06-24T10:26:53.000Z</time>
      </trkpt>
      <trkpt lat="32.7636771462857723236083984375" lon="-16.84545747935771942138671875">
        <ele>360.79998779296875</ele>
        <time>2018-06-24T10:26:59.000Z</time>
      </trkpt>
      <trkpt lat="32.76363548822700977325439453125" lon="-16.84541380964219570159912109375">
        <ele>362</ele>
        <time>2018-06-24T10:27:03.000Z</time>
      </trkpt>
      <trkpt lat="32.7635899744927883148193359375" lon="-16.845367960631847381591796875">
        <ele>363</ele>
        <time>2018-06-24T10:27:08.000Z</time>
      </trkpt>
      <trkpt lat="32.7635785751044750213623046875" lon="-16.8453651107847690582275390625">
        <ele>363.20001220703125</ele>
        <time>2018-06-24T10:27:09.000Z</time>
      </trkpt>
      <trkpt lat="32.7635219134390354156494140625" lon="-16.84535957872867584228515625">
        <ele>364.20001220703125</ele>
        <time>2018-06-24T10:27:14.000Z</time>
      </trkpt>
      <trkpt lat="32.76346315629780292510986328125" lon="-16.84534625150263309478759765625">
        <ele>365.399993896484375</ele>
        <time>2018-06-24T10:27:20.000Z</time>
      </trkpt>
      <trkpt lat="32.76340766809880733489990234375" lon="-16.8453439883887767791748046875">
        <ele>366.600006103515625</ele>
        <time>2018-06-24T10:27:25.000Z</time>
      </trkpt>
      <trkpt lat="32.76339693926274776458740234375" lon="-16.8453483469784259796142578125">
        <ele>367</ele>
        <time>2018-06-24T10:27:26.000Z</time>
      </trkpt>
      <trkpt lat="32.76338134892284870147705078125" lon="-16.8453629314899444580078125">
        <ele>367.600006103515625</ele>
        <time>2018-06-24T10:27:28.000Z</time>
      </trkpt>
      <trkpt lat="32.76333642192184925079345703125" lon="-16.8453731574118137359619140625">
        <ele>368.600006103515625</ele>
        <time>2018-06-24T10:27:31.000Z</time>
      </trkpt>
      <trkpt lat="32.76332619599997997283935546875" lon="-16.84537894092500209808349609375">
        <ele>369</ele>
        <time>2018-06-24T10:27:32.000Z</time>
      </trkpt>
      <trkpt lat="32.76331848464906215667724609375" lon="-16.8453817069530487060546875">
        <ele>369.399993896484375</ele>
        <time>2018-06-24T10:27:33.000Z</time>
      </trkpt>
      <trkpt lat="32.7633105218410491943359375" lon="-16.84538765810430049896240234375">
        <ele>370</ele>
        <time>2018-06-24T10:27:35.000Z</time>
      </trkpt>
      <trkpt lat="32.763303481042385101318359375" lon="-16.84539419598877429962158203125">
        <ele>370.399993896484375</ele>
        <time>2018-06-24T10:27:36.000Z</time>
      </trkpt>
      <trkpt lat="32.7632676064968109130859375" lon="-16.84540760703384876251220703125">
        <ele>371.399993896484375</ele>
        <time>2018-06-24T10:27:40.000Z</time>
      </trkpt>
      <trkpt lat="32.7632422931492328643798828125" lon="-16.845424287021160125732421875">
        <ele>372.399993896484375</ele>
        <time>2018-06-24T10:27:43.000Z</time>
      </trkpt>
      <trkpt lat="32.7632312290370464324951171875" lon="-16.8454314954578876495361328125">
        <ele>372.600006103515625</ele>
        <time>2018-06-24T10:27:44.000Z</time>
      </trkpt>
      <trkpt lat="32.76318454183638095855712890625" lon="-16.84544515796005725860595703125">
        <ele>373.79998779296875</ele>
        <time>2018-06-24T10:27:48.000Z</time>
      </trkpt>
      <trkpt lat="32.7631319873034954071044921875" lon="-16.8454720638692378997802734375">
        <ele>375</ele>
        <time>2018-06-24T10:27:54.000Z</time>
      </trkpt>
      <trkpt lat="32.76310826651751995086669921875" lon="-16.845470555126667022705078125">
        <ele>375.79998779296875</ele>
        <time>2018-06-24T10:27:57.000Z</time>
      </trkpt>
      <trkpt lat="32.76310172863304615020751953125" lon="-16.84547181241214275360107421875">
        <ele>376.20001220703125</ele>
        <time>2018-06-24T10:27:58.000Z</time>
      </trkpt>
      <trkpt lat="32.7630716376006603240966796875" lon="-16.84546644799411296844482421875">
        <ele>377.20001220703125</ele>
        <time>2018-06-24T10:28:01.000Z</time>
      </trkpt>
      <trkpt lat="32.7630471624433994293212890625" lon="-16.8454636819660663604736328125">
        <ele>378.20001220703125</ele>
        <time>2018-06-24T10:28:05.000Z</time>
      </trkpt>
      <trkpt lat="32.76301883161067962646484375" lon="-16.8454388715326786041259765625">
        <ele>379.399993896484375</ele>
        <time>2018-06-24T10:28:09.000Z</time>
      </trkpt>
      <trkpt lat="32.76301556266844272613525390625" lon="-16.84539721347391605377197265625">
        <ele>380.600006103515625</ele>
        <time>2018-06-24T10:28:13.000Z</time>
      </trkpt>
      <trkpt lat="32.76303484104573726654052734375" lon="-16.8453748337924480438232421875">
        <ele>381.79998779296875</ele>
        <time>2018-06-24T10:28:17.000Z</time>
      </trkpt>
      <trkpt lat="32.76304473169147968292236328125" lon="-16.84536184184253215789794921875">
        <ele>382.79998779296875</ele>
        <time>2018-06-24T10:28:21.000Z</time>
      </trkpt>
      <trkpt lat="32.763046659529209136962890625" lon="-16.84532026760280132293701171875">
        <ele>384</ele>
        <time>2018-06-24T10:28:25.000Z</time>
      </trkpt>
      <trkpt lat="32.76303919963538646697998046875" lon="-16.845266036689281463623046875">
        <ele>385</ele>
        <time>2018-06-24T10:28:30.000Z</time>
      </trkpt>
      <trkpt lat="32.7630344219505786895751953125" lon="-16.84524063952267169952392578125">
        <ele>385.79998779296875</ele>
        <time>2018-06-24T10:28:33.000Z</time>
      </trkpt>
      <trkpt lat="32.763031907379627227783203125" lon="-16.84523242525756359100341796875">
        <ele>386.20001220703125</ele>
        <time>2018-06-24T10:28:34.000Z</time>
      </trkpt>
      <trkpt lat="32.7630485035479068756103515625" lon="-16.84522278606891632080078125">
        <ele>387.20001220703125</ele>
        <time>2018-06-24T10:28:37.000Z</time>
      </trkpt>
      <trkpt lat="32.76303500868380069732666015625" lon="-16.845203340053558349609375">
        <ele>388.20001220703125</ele>
        <time>2018-06-24T10:28:41.000Z</time>
      </trkpt>
      <trkpt lat="32.76300349272787570953369140625" lon="-16.8451817147433757781982421875">
        <ele>389.399993896484375</ele>
        <time>2018-06-24T10:28:45.000Z</time>
      </trkpt>
      <trkpt lat="32.76299594901502132415771484375" lon="-16.84517911635339260101318359375">
        <ele>389.600006103515625</ele>
        <time>2018-06-24T10:28:46.000Z</time>
      </trkpt>
      <trkpt lat="32.762980274856090545654296875" lon="-16.84518464840948581695556640625">
        <ele>390.399993896484375</ele>
        <time>2018-06-24T10:28:48.000Z</time>
      </trkpt>
      <trkpt lat="32.76297868229448795318603515625" lon="-16.84519168920814990997314453125">
        <ele>390.600006103515625</ele>
        <time>2018-06-24T10:28:49.000Z</time>
      </trkpt>
      <trkpt lat="32.76296946220099925994873046875" lon="-16.8452199362218379974365234375">
        <ele>391.20001220703125</ele>
        <time>2018-06-24T10:28:51.000Z</time>
      </trkpt>
      <trkpt lat="32.7629425562918186187744140625" lon="-16.84526578523218631744384765625">
        <ele>391.79998779296875</ele>
        <time>2018-06-24T10:28:54.000Z</time>
      </trkpt>
      <trkpt lat="32.7628835476934909820556640625" lon="-16.8453238718211650848388671875">
        <ele>393</ele>
        <time>2018-06-24T10:28:58.000Z</time>
      </trkpt>
      <trkpt lat="32.76282571256160736083984375" lon="-16.84537005610764026641845703125">
        <ele>394.20001220703125</ele>
        <time>2018-06-24T10:29:04.000Z</time>
      </trkpt>
      <trkpt lat="32.7627980522811412811279296875" lon="-16.84539520181715488433837890625">
        <ele>395.20001220703125</ele>
        <time>2018-06-24T10:29:08.000Z</time>
      </trkpt>
      <trkpt lat="32.76275941170752048492431640625" lon="-16.84540810994803905487060546875">
        <ele>396.20001220703125</ele>
        <time>2018-06-24T10:29:12.000Z</time>
      </trkpt>
      <trkpt lat="32.7627413906157016754150390625" lon="-16.8454237841069698333740234375">
        <ele>397.20001220703125</ele>
        <time>2018-06-24T10:29:15.000Z</time>
      </trkpt>
      <trkpt lat="32.7627370320260524749755859375" lon="-16.8454273045063018798828125">
        <ele>397.600006103515625</ele>
        <time>2018-06-24T10:29:16.000Z</time>
      </trkpt>
      <trkpt lat="32.76271867565810680389404296875" lon="-16.8454594910144805908203125">
        <ele>398.79998779296875</ele>
        <time>2018-06-24T10:29:20.000Z</time>
      </trkpt>
      <trkpt lat="32.7626726590096950531005859375" lon="-16.84550567530095577239990234375">
        <ele>400</ele>
        <time>2018-06-24T10:29:25.000Z</time>
      </trkpt>
      <trkpt lat="32.762624211609363555908203125" lon="-16.84552361257374286651611328125">
        <ele>401.20001220703125</ele>
        <time>2018-06-24T10:29:30.000Z</time>
      </trkpt>
      <trkpt lat="32.76261038146913051605224609375" lon="-16.8455263786017894744873046875">
        <ele>401.79998779296875</ele>
        <time>2018-06-24T10:29:32.000Z</time>
      </trkpt>
      <trkpt lat="32.76259101927280426025390625" lon="-16.845530569553375244140625">
        <ele>402.20001220703125</ele>
        <time>2018-06-24T10:29:34.000Z</time>
      </trkpt>
      <trkpt lat="32.762559168040752410888671875" lon="-16.845543645322322845458984375">
        <ele>403.399993896484375</ele>
        <time>2018-06-24T10:29:38.000Z</time>
      </trkpt>
      <trkpt lat="32.76252237148582935333251953125" lon="-16.8455558829009532928466796875">
        <ele>404.399993896484375</ele>
        <time>2018-06-24T10:29:43.000Z</time>
      </trkpt>
      <trkpt lat="32.7625157497823238372802734375" lon="-16.84555898420512676239013671875">
        <ele>404.600006103515625</ele>
        <time>2018-06-24T10:29:44.000Z</time>
      </trkpt>
      <trkpt lat="32.76248616166412830352783203125" lon="-16.84556568972766399383544921875">
        <ele>405.79998779296875</ele>
        <time>2018-06-24T10:29:48.000Z</time>
      </trkpt>
      <trkpt lat="32.7624832279980182647705078125" lon="-16.84557239525020122528076171875">
        <ele>406</ele>
        <time>2018-06-24T10:29:49.000Z</time>
      </trkpt>
      <trkpt lat="32.7624520473182201385498046875" lon="-16.84559427201747894287109375">
        <ele>407</ele>
        <time>2018-06-24T10:29:52.000Z</time>
      </trkpt>
      <trkpt lat="32.7623759396374225616455078125" lon="-16.84568018652498722076416015625">
        <ele>408.20001220703125</ele>
        <time>2018-06-24T10:29:59.000Z</time>
      </trkpt>
      <trkpt lat="32.76232640258967876434326171875" lon="-16.8457023985683917999267578125">
        <ele>409.399993896484375</ele>
        <time>2018-06-24T10:30:04.000Z</time>
      </trkpt>
      <trkpt lat="32.7623236365616321563720703125" lon="-16.8457062542438507080078125">
        <ele>409.600006103515625</ele>
        <time>2018-06-24T10:30:05.000Z</time>
      </trkpt>
      <trkpt lat="32.76231030933558940887451171875" lon="-16.84571069665253162384033203125">
        <ele>410.399993896484375</ele>
        <time>2018-06-24T10:30:08.000Z</time>
      </trkpt>
      <trkpt lat="32.762269489467144012451171875" lon="-16.84571455232799053192138671875">
        <ele>411.600006103515625</ele>
        <time>2018-06-24T10:30:12.000Z</time>
      </trkpt>
      <trkpt lat="32.76223269291222095489501953125" lon="-16.84571765363216400146484375">
        <ele>412.600006103515625</ele>
        <time>2018-06-24T10:30:16.000Z</time>
      </trkpt>
      <trkpt lat="32.7621999196708202362060546875" lon="-16.845718659460544586181640625">
        <ele>413</ele>
        <time>2018-06-24T10:30:18.000Z</time>
      </trkpt>
      <trkpt lat="32.76216345839202404022216796875" lon="-16.84572008438408374786376953125">
        <ele>413.79998779296875</ele>
        <time>2018-06-24T10:30:21.000Z</time>
      </trkpt>
      <trkpt lat="32.76214971207082271575927734375" lon="-16.845718324184417724609375">
        <ele>414</ele>
        <time>2018-06-24T10:30:22.000Z</time>
      </trkpt>
      <trkpt lat="32.762121297419071197509765625" lon="-16.84571488760411739349365234375">
        <ele>414.600006103515625</ele>
        <time>2018-06-24T10:30:24.000Z</time>
      </trkpt>
      <trkpt lat="32.76208986528217792510986328125" lon="-16.8457067571580410003662109375">
        <ele>415</ele>
        <time>2018-06-24T10:30:26.000Z</time>
      </trkpt>
      <trkpt lat="32.762051559984683990478515625" lon="-16.84572301805019378662109375">
        <ele>416.20001220703125</ele>
        <time>2018-06-24T10:30:30.000Z</time>
      </trkpt>
      <trkpt lat="32.76203203015029430389404296875" lon="-16.84574992395937442779541015625">
        <ele>417.20001220703125</ele>
        <time>2018-06-24T10:30:34.000Z</time>
      </trkpt>
      <trkpt lat="32.7620123326778411865234375" lon="-16.84576400555670261383056640625">
        <ele>417.79998779296875</ele>
        <time>2018-06-24T10:30:36.000Z</time>
      </trkpt>
      <trkpt lat="32.76199045591056346893310546875" lon="-16.8457771651446819305419921875">
        <ele>418.399993896484375</ele>
        <time>2018-06-24T10:30:38.000Z</time>
      </trkpt>
      <trkpt lat="32.76197788305580615997314453125" lon="-16.8457813560962677001953125">
        <ele>418.600006103515625</ele>
        <time>2018-06-24T10:30:39.000Z</time>
      </trkpt>
      <trkpt lat="32.7619427628815174102783203125" lon="-16.84582603164017200469970703125">
        <ele>419.600006103515625</ele>
        <time>2018-06-24T10:30:44.000Z</time>
      </trkpt>
      <trkpt lat="32.76192876510322093963623046875" lon="-16.84585000388324260711669921875">
        <ele>420.399993896484375</ele>
        <time>2018-06-24T10:30:47.000Z</time>
      </trkpt>
      <trkpt lat="32.76192239485681056976318359375" lon="-16.8458566255867481231689453125">
        <ele>420.600006103515625</ele>
        <time>2018-06-24T10:30:48.000Z</time>
      </trkpt>
      <trkpt lat="32.76189641095697879791259765625" lon="-16.84589291922748088836669921875">
        <ele>421.79998779296875</ele>
        <time>2018-06-24T10:30:53.000Z</time>
      </trkpt>
      <trkpt lat="32.7618753723800182342529296875" lon="-16.84591504745185375213623046875">
        <ele>423</ele>
        <time>2018-06-24T10:30:57.000Z</time>
      </trkpt>
      <trkpt lat="32.76184058748185634613037109375" lon="-16.8459330685436725616455078125">
        <ele>424</ele>
        <time>2018-06-24T10:31:01.000Z</time>
      </trkpt>
      <trkpt lat="32.7618063054978847503662109375" lon="-16.8459367565810680389404296875">
        <ele>425</ele>
        <time>2018-06-24T10:31:05.000Z</time>
      </trkpt>
      <trkpt lat="32.76179515756666660308837890625" lon="-16.84594455175101757049560546875">
        <ele>426.20001220703125</ele>
        <time>2018-06-24T10:31:09.000Z</time>
      </trkpt>
      <trkpt lat="32.76178501546382904052734375" lon="-16.84598361141979694366455078125">
        <ele>427.399993896484375</ele>
        <time>2018-06-24T10:31:14.000Z</time>
      </trkpt>
      <trkpt lat="32.76176950894296169281005859375" lon="-16.8460125289857387542724609375">
        <ele>428.399993896484375</ele>
        <time>2018-06-24T10:31:17.000Z</time>
      </trkpt>
      <trkpt lat="32.7617184631526470184326171875" lon="-16.8460336513817310333251953125">
        <ele>429.399993896484375</ele>
        <time>2018-06-24T10:31:21.000Z</time>
      </trkpt>
      <trkpt lat="32.76170547120273113250732421875" lon="-16.84604899026453495025634765625">
        <ele>429.79998779296875</ele>
        <time>2018-06-24T10:31:23.000Z</time>
      </trkpt>
      <trkpt lat="32.76169071905314922332763671875" lon="-16.84606759808957576751708984375">
        <ele>430.600006103515625</ele>
        <time>2018-06-24T10:31:26.000Z</time>
      </trkpt>
      <trkpt lat="32.76164981536567211151123046875" lon="-16.8460980243980884552001953125">
        <ele>431.79998779296875</ele>
        <time>2018-06-24T10:31:31.000Z</time>
      </trkpt>
      <trkpt lat="32.76162542402744293212890625" lon="-16.84611235745251178741455078125">
        <ele>432.399993896484375</ele>
        <time>2018-06-24T10:31:34.000Z</time>
      </trkpt>
      <trkpt lat="32.76161067187786102294921875" lon="-16.846124343574047088623046875">
        <ele>433</ele>
        <time>2018-06-24T10:31:36.000Z</time>
      </trkpt>
      <trkpt lat="32.76159985922276973724365234375" lon="-16.8461496569216251373291015625">
        <ele>434</ele>
        <time>2018-06-24T10:31:40.000Z</time>
      </trkpt>
      <trkpt lat="32.7615823410451412200927734375" lon="-16.846183352172374725341796875">
        <ele>435</ele>
        <time>2018-06-24T10:31:44.000Z</time>
      </trkpt>
      <trkpt lat="32.76155761443078517913818359375" lon="-16.8461997807025909423828125">
        <ele>435.399993896484375</ele>
        <time>2018-06-24T10:31:46.000Z</time>
      </trkpt>
      <trkpt lat="32.761529199779033660888671875" lon="-16.84623858891427516937255859375">
        <ele>436.20001220703125</ele>
        <time>2018-06-24T10:31:50.000Z</time>
      </trkpt>
      <trkpt lat="32.76150698773562908172607421875" lon="-16.84627781622111797332763671875">
        <ele>437.399993896484375</ele>
        <time>2018-06-24T10:31:55.000Z</time>
      </trkpt>
      <trkpt lat="32.76150472462177276611328125" lon="-16.84628603048622608184814453125">
        <ele>437.600006103515625</ele>
        <time>2018-06-24T10:31:56.000Z</time>
      </trkpt>
      <trkpt lat="32.76149843819439411163330078125" lon="-16.846301369369029998779296875">
        <ele>438.79998779296875</ele>
        <time>2018-06-24T10:31:59.000Z</time>
      </trkpt>
      <trkpt lat="32.761488966643810272216796875" lon="-16.84634084813296794891357421875">
        <ele>439.79998779296875</ele>
        <time>2018-06-24T10:32:03.000Z</time>
      </trkpt>
      <trkpt lat="32.761483602225780487060546875" lon="-16.8463870324194431304931640625">
        <ele>440.20001220703125</ele>
        <time>2018-06-24T10:32:06.000Z</time>
      </trkpt>
      <trkpt lat="32.76146155782043933868408203125" lon="-16.846422739326953887939453125">
        <ele>441</ele>
        <time>2018-06-24T10:32:09.000Z</time>
      </trkpt>
      <trkpt lat="32.76144328527152538299560546875" lon="-16.84648971073329448699951171875">
        <ele>442.20001220703125</ele>
        <time>2018-06-24T10:32:14.000Z</time>
      </trkpt>
      <trkpt lat="32.761448733508586883544921875" lon="-16.846556179225444793701171875">
        <ele>443.399993896484375</ele>
        <time>2018-06-24T10:32:19.000Z</time>
      </trkpt>
      <trkpt lat="32.76146088726818561553955078125" lon="-16.84660303406417369842529296875">
        <ele>444.399993896484375</ele>
        <time>2018-06-24T10:32:23.000Z</time>
      </trkpt>
      <trkpt lat="32.76145149953663349151611328125" lon="-16.8466611206531524658203125">
        <ele>445.399993896484375</ele>
        <time>2018-06-24T10:32:28.000Z</time>
      </trkpt>
      <trkpt lat="32.76140975765883922576904296875" lon="-16.84669724665582180023193359375">
        <ele>446.600006103515625</ele>
        <time>2018-06-24T10:32:32.000Z</time>
      </trkpt>
      <trkpt lat="32.76139584369957447052001953125" lon="-16.84674493968486785888671875">
        <ele>447.600006103515625</ele>
        <time>2018-06-24T10:32:36.000Z</time>
      </trkpt>
      <trkpt lat="32.76137195527553558349609375" lon="-16.84676706790924072265625">
        <ele>448.20001220703125</ele>
        <time>2018-06-24T10:32:38.000Z</time>
      </trkpt>
      <trkpt lat="32.76134781539440155029296875" lon="-16.846819035708904266357421875">
        <ele>448.79998779296875</ele>
        <time>2018-06-24T10:32:41.000Z</time>
      </trkpt>
      <trkpt lat="32.76132359169423580169677734375" lon="-16.846869327127933502197265625">
        <ele>449.79998779296875</ele>
        <time>2018-06-24T10:32:45.000Z</time>
      </trkpt>
      <trkpt lat="32.76131101883947849273681640625" lon="-16.84696630574762821197509765625">
        <ele>451</ele>
        <time>2018-06-24T10:32:51.000Z</time>
      </trkpt>
      <trkpt lat="32.76133851148188114166259765625" lon="-16.84705196879804134368896484375">
        <ele>452</ele>
        <time>2018-06-24T10:32:56.000Z</time>
      </trkpt>
      <trkpt lat="32.76135225780308246612548828125" lon="-16.8470728397369384765625">
        <ele>452.20001220703125</ele>
        <time>2018-06-24T10:32:57.000Z</time>
      </trkpt>
      <trkpt lat="32.761394083499908447265625" lon="-16.847126483917236328125">
        <ele>453.20001220703125</ele>
        <time>2018-06-24T10:33:01.000Z</time>
      </trkpt>
      <trkpt lat="32.7613954246044158935546875" lon="-16.8471519649028778076171875">
        <ele>453.79998779296875</ele>
        <time>2018-06-24T10:33:03.000Z</time>
      </trkpt>
      <trkpt lat="32.761398442089557647705078125" lon="-16.84717677533626556396484375">
        <ele>454.399993896484375</ele>
        <time>2018-06-24T10:33:05.000Z</time>
      </trkpt>
      <trkpt lat="32.76139802299439907073974609375" lon="-16.84718674980103969573974609375">
        <ele>454.79998779296875</ele>
        <time>2018-06-24T10:33:06.000Z</time>
      </trkpt>
      <trkpt lat="32.76141545735299587249755859375" lon="-16.84721742756664752960205078125">
        <ele>455.600006103515625</ele>
        <time>2018-06-24T10:33:09.000Z</time>
      </trkpt>
      <trkpt lat="32.7614254318177700042724609375" lon="-16.84726662933826446533203125">
        <ele>456.79998779296875</ele>
        <time>2018-06-24T10:33:14.000Z</time>
      </trkpt>
      <trkpt lat="32.7614723704755306243896484375" lon="-16.84730711393058300018310546875">
        <ele>457.600006103515625</ele>
        <time>2018-06-24T10:33:18.000Z</time>
      </trkpt>
      <trkpt lat="32.76149525307118892669677734375" lon="-16.8473418988287448883056640625">
        <ele>457.79998779296875</ele>
        <time>2018-06-24T10:33:20.000Z</time>
      </trkpt>
      <trkpt lat="32.76154319755733013153076171875" lon="-16.8474173359572887420654296875">
        <ele>459</ele>
        <time>2018-06-24T10:33:25.000Z</time>
      </trkpt>
      <trkpt lat="32.76158276014029979705810546875" lon="-16.84747491963207721710205078125">
        <ele>460</ele>
        <time>2018-06-24T10:33:29.000Z</time>
      </trkpt>
      <trkpt lat="32.7615706063807010650634765625" lon="-16.84758606366813182830810546875">
        <ele>461.20001220703125</ele>
        <time>2018-06-24T10:33:36.000Z</time>
      </trkpt>
      <trkpt lat="32.7615739591419696807861328125" lon="-16.8476211838424205780029296875">
        <ele>461.600006103515625</ele>
        <time>2018-06-24T10:33:38.000Z</time>
      </trkpt>
      <trkpt lat="32.76158108375966548919677734375" lon="-16.847667284309864044189453125">
        <ele>462.20001220703125</ele>
        <time>2018-06-24T10:33:41.000Z</time>
      </trkpt>
      <trkpt lat="32.76157379150390625" lon="-16.8476758338510990142822265625">
        <ele>462.600006103515625</ele>
        <time>2018-06-24T10:33:42.000Z</time>
      </trkpt>
      <trkpt lat="32.7615645714104175567626953125" lon="-16.8477098643779754638671875">
        <ele>463.600006103515625</ele>
        <time>2018-06-24T10:33:45.000Z</time>
      </trkpt>
      <trkpt lat="32.76157270185649394989013671875" lon="-16.84779703617095947265625">
        <ele>464.600006103515625</ele>
        <time>2018-06-24T10:33:51.000Z</time>
      </trkpt>
      <trkpt lat="32.76158510707318782806396484375" lon="-16.84785881079733371734619140625">
        <ele>465.79998779296875</ele>
        <time>2018-06-24T10:33:56.000Z</time>
      </trkpt>
      <trkpt lat="32.7615912258625030517578125" lon="-16.8479370139539241790771484375">
        <ele>466.600006103515625</ele>
        <time>2018-06-24T10:34:02.000Z</time>
      </trkpt>
      <trkpt lat="32.76158988475799560546875" lon="-16.84796861372888088226318359375">
        <ele>468</ele>
        <time>2018-06-24T10:34:06.000Z</time>
      </trkpt>
      <trkpt lat="32.761594913899898529052734375" lon="-16.8480134569108486175537109375">
        <ele>469.20001220703125</ele>
        <time>2018-06-24T10:34:10.000Z</time>
      </trkpt>
      <trkpt lat="32.76159591972827911376953125" lon="-16.84804304502904415130615234375">
        <ele>470.399993896484375</ele>
        <time>2018-06-24T10:34:13.000Z</time>
      </trkpt>
      <trkpt lat="32.761591561138629913330078125" lon="-16.848062910139560699462890625">
        <ele>471</ele>
        <time>2018-06-24T10:34:15.000Z</time>
      </trkpt>
      <trkpt lat="32.76158963330090045928955078125" lon="-16.8480746448040008544921875">
        <ele>471.600006103515625</ele>
        <time>2018-06-24T10:34:16.000Z</time>
      </trkpt>
      <trkpt lat="32.76160790584981441497802734375" lon="-16.84811680577695369720458984375">
        <ele>472.399993896484375</ele>
        <time>2018-06-24T10:34:20.000Z</time>
      </trkpt>
      <trkpt lat="32.76161008514463901519775390625" lon="-16.84812887571752071380615234375">
        <ele>472.79998779296875</ele>
        <time>2018-06-24T10:34:21.000Z</time>
      </trkpt>
      <trkpt lat="32.76162316091358661651611328125" lon="-16.84814530424773693084716796875">
        <ele>473.20001220703125</ele>
        <time>2018-06-24T10:34:22.000Z</time>
      </trkpt>
      <trkpt lat="32.7616544254124164581298828125" lon="-16.848185956478118896484375">
        <ele>473.600006103515625</ele>
        <time>2018-06-24T10:34:25.000Z</time>
      </trkpt>
      <trkpt lat="32.7616524137556552886962890625" lon="-16.848208419978618621826171875">
        <ele>474</ele>
        <time>2018-06-24T10:34:27.000Z</time>
      </trkpt>
      <trkpt lat="32.76165635325014591217041015625" lon="-16.8482551909983158111572265625">
        <ele>475</ele>
        <time>2018-06-24T10:34:32.000Z</time>
      </trkpt>
      <trkpt lat="32.7616524137556552886962890625" lon="-16.84827488847076892852783203125">
        <ele>475.600006103515625</ele>
        <time>2018-06-24T10:34:34.000Z</time>
      </trkpt>
      <trkpt lat="32.76164160110056400299072265625" lon="-16.84829500503838062286376953125">
        <ele>476.20001220703125</ele>
        <time>2018-06-24T10:34:36.000Z</time>
      </trkpt>
      <trkpt lat="32.76161829940974712371826171875" lon="-16.84832878410816192626953125">
        <ele>477.399993896484375</ele>
        <time>2018-06-24T10:34:40.000Z</time>
      </trkpt>
      <trkpt lat="32.761581838130950927734375" lon="-16.84834755957126617431640625">
        <ele>478.20001220703125</ele>
        <time>2018-06-24T10:34:45.000Z</time>
      </trkpt>
      <trkpt lat="32.76154336519539356231689453125" lon="-16.84834747575223445892333984375">
        <ele>479.600006103515625</ele>
        <time>2018-06-24T10:34:49.000Z</time>
      </trkpt>
      <trkpt lat="32.76148770935833454132080078125" lon="-16.8483410216867923736572265625">
        <ele>480.600006103515625</ele>
        <time>2018-06-24T10:34:54.000Z</time>
      </trkpt>
      <trkpt lat="32.76144412346184253692626953125" lon="-16.8483388423919677734375">
        <ele>481.600006103515625</ele>
        <time>2018-06-24T10:34:58.000Z</time>
      </trkpt>
      <trkpt lat="32.7614056505262851715087890625" lon="-16.8483453802764415740966796875">
        <ele>482.79998779296875</ele>
        <time>2018-06-24T10:35:02.000Z</time>
      </trkpt>
      <trkpt lat="32.761364243924617767333984375" lon="-16.84836138971149921417236328125">
        <ele>484</ele>
        <time>2018-06-24T10:35:06.000Z</time>
      </trkpt>
      <trkpt lat="32.76134588755667209625244140625" lon="-16.84836289845407009124755859375">
        <ele>484.399993896484375</ele>
        <time>2018-06-24T10:35:08.000Z</time>
      </trkpt>
      <trkpt lat="32.7613178081810474395751953125" lon="-16.84836474247276782989501953125">
        <ele>485</ele>
        <time>2018-06-24T10:35:10.000Z</time>
      </trkpt>
      <trkpt lat="32.7612668462097644805908203125" lon="-16.8483705259859561920166015625">
        <ele>486</ele>
        <time>2018-06-24T10:35:15.000Z</time>
      </trkpt>
      <trkpt lat="32.76121370494365692138671875" lon="-16.84839072637259960174560546875">
        <ele>487</ele>
        <time>2018-06-24T10:35:20.000Z</time>
      </trkpt>
      <trkpt lat="32.7611567080020904541015625" lon="-16.84844009578227996826171875">
        <ele>488.20001220703125</ele>
        <time>2018-06-24T10:35:26.000Z</time>
      </trkpt>
      <trkpt lat="32.761077918112277984619140625" lon="-16.84850924648344516754150390625">
        <ele>489.399993896484375</ele>
        <time>2018-06-24T10:35:33.000Z</time>
      </trkpt>
      <trkpt lat="32.7610512636601924896240234375" lon="-16.84855685569345951080322265625">
        <ele>490.79998779296875</ele>
        <time>2018-06-24T10:35:38.000Z</time>
      </trkpt>
      <trkpt lat="32.76102066971361637115478515625" lon="-16.84860312379896640777587890625">
        <ele>491.79998779296875</ele>
        <time>2018-06-24T10:35:42.000Z</time>
      </trkpt>
      <trkpt lat="32.76100323535501956939697265625" lon="-16.848648302257061004638671875">
        <ele>493</ele>
        <time>2018-06-24T10:35:46.000Z</time>
      </trkpt>
      <trkpt lat="32.7609583921730518341064453125" lon="-16.848743855953216552734375">
        <ele>494.20001220703125</ele>
        <time>2018-06-24T10:35:52.000Z</time>
      </trkpt>
      <trkpt lat="32.7608816139400005340576171875" lon="-16.848811917006969451904296875">
        <ele>495.399993896484375</ele>
        <time>2018-06-24T10:35:58.000Z</time>
      </trkpt>
      <trkpt lat="32.76081942021846771240234375" lon="-16.8488818220794200897216796875">
        <ele>496.399993896484375</ele>
        <time>2018-06-24T10:36:03.000Z</time>
      </trkpt>
      <trkpt lat="32.760728560388088226318359375" lon="-16.8490313552320003509521484375">
        <ele>497.600006103515625</ele>
        <time>2018-06-24T10:36:11.000Z</time>
      </trkpt>
      <trkpt lat="32.76067365892231464385986328125" lon="-16.84911592863500118255615234375">
        <ele>498.600006103515625</ele>
        <time>2018-06-24T10:36:16.000Z</time>
      </trkpt>
      <trkpt lat="32.76049579493701457977294921875" lon="-16.84907552786171436309814453125">
        <ele>499.399993896484375</ele>
        <time>2018-06-24T10:36:26.000Z</time>
      </trkpt>
      <trkpt lat="32.76042639277875423431396484375" lon="-16.84905054979026317596435546875">
        <ele>499.79998779296875</ele>
        <time>2018-06-24T10:36:30.000Z</time>
      </trkpt>
      <trkpt lat="32.760290019214153289794921875" lon="-16.84904283843934535980224609375">
        <ele>500.79998779296875</ele>
        <time>2018-06-24T10:36:38.000Z</time>
      </trkpt>
      <trkpt lat="32.76009866036474704742431640625" lon="-16.8490819819271564483642578125">
        <ele>501.399993896484375</ele>
        <time>2018-06-24T10:36:47.000Z</time>
      </trkpt>
      <trkpt lat="32.7599150128662586212158203125" lon="-16.84913168661296367645263671875">
        <ele>502</ele>
        <time>2018-06-24T10:36:55.000Z</time>
      </trkpt>
      <trkpt lat="32.75989196263253688812255859375" lon="-16.84912984259426593780517578125">
        <ele>501.79998779296875</ele>
        <time>2018-06-24T10:36:56.000Z</time>
      </trkpt>
      <trkpt lat="32.75970102287828922271728515625" lon="-16.84921047650277614593505859375">
        <ele>502.600006103515625</ele>
        <time>2018-06-24T10:37:05.000Z</time>
      </trkpt>
      <trkpt lat="32.7596179582178592681884765625" lon="-16.849262528121471405029296875">
        <ele>503</ele>
        <time>2018-06-24T10:37:09.000Z</time>
      </trkpt>
      <trkpt lat="32.759440429508686065673828125" lon="-16.8493280746042728424072265625">
        <ele>504.20001220703125</ele>
        <time>2018-06-24T10:37:17.000Z</time>
      </trkpt>
      <trkpt lat="32.75929634459316730499267578125" lon="-16.849364452064037322998046875">
        <ele>505.20001220703125</ele>
        <time>2018-06-24T10:37:25.000Z</time>
      </trkpt>
      <trkpt lat="32.75928393937647342681884765625" lon="-16.84937643818557262420654296875">
        <ele>505.600006103515625</ele>
        <time>2018-06-24T10:37:27.000Z</time>
      </trkpt>
      <trkpt lat="32.7592362463474273681640625" lon="-16.84941239655017852783203125">
        <ele>506.399993896484375</ele>
        <time>2018-06-24T10:37:31.000Z</time>
      </trkpt>
      <trkpt lat="32.75917732156813144683837890625" lon="-16.84945288114249706268310546875">
        <ele>507.399993896484375</ele>
        <time>2018-06-24T10:37:36.000Z</time>
      </trkpt>
      <trkpt lat="32.75916592217981815338134765625" lon="-16.849455647170543670654296875">
        <ele>507.600006103515625</ele>
        <time>2018-06-24T10:37:37.000Z</time>
      </trkpt>
      <trkpt lat="32.759108506143093109130859375" lon="-16.849499233067035675048828125">
        <ele>508.600006103515625</ele>
        <time>2018-06-24T10:37:42.000Z</time>
      </trkpt>
      <trkpt lat="32.75905343703925609588623046875" lon="-16.84956436045467853546142578125">
        <ele>509.79998779296875</ele>
        <time>2018-06-24T10:37:48.000Z</time>
      </trkpt>
      <trkpt lat="32.75902661494910717010498046875" lon="-16.84961020946502685546875">
        <ele>510.79998779296875</ele>
        <time>2018-06-24T10:37:52.000Z</time>
      </trkpt>
      <trkpt lat="32.75902292691171169281005859375" lon="-16.849623285233974456787109375">
        <ele>510.79998779296875</ele>
        <time>2018-06-24T10:37:53.000Z</time>
      </trkpt>
      <trkpt lat="32.75900951586663722991943359375" lon="-16.84966041706502437591552734375">
        <ele>511.79998779296875</ele>
        <time>2018-06-24T10:37:56.000Z</time>
      </trkpt>
      <trkpt lat="32.7590033970773220062255859375" lon="-16.84966829605400562286376953125">
        <ele>512.20001220703125</ele>
        <time>2018-06-24T10:37:57.000Z</time>
      </trkpt>
      <trkpt lat="32.75898613035678863525390625" lon="-16.8497052602469921112060546875">
        <ele>512.79998779296875</ele>
        <time>2018-06-24T10:38:00.000Z</time>
      </trkpt>
      <trkpt lat="32.75897900573909282684326171875" lon="-16.8497364409267902374267578125">
        <ele>513.79998779296875</ele>
        <time>2018-06-24T10:38:03.000Z</time>
      </trkpt>
      <trkpt lat="32.758977077901363372802734375" lon="-16.8497464992105960845947265625">
        <ele>514</ele>
        <time>2018-06-24T10:38:04.000Z</time>
      </trkpt>
      <trkpt lat="32.75896391831338405609130859375" lon="-16.849792264401912689208984375">
        <ele>515</ele>
        <time>2018-06-24T10:38:08.000Z</time>
      </trkpt>
      <trkpt lat="32.75895955972373485565185546875" lon="-16.849825792014598846435546875">
        <ele>516.20001220703125</ele>
        <time>2018-06-24T10:38:12.000Z</time>
      </trkpt>
      <trkpt lat="32.7589363418519496917724609375" lon="-16.84984381310641765594482421875">
        <ele>517.20001220703125</ele>
        <time>2018-06-24T10:38:16.000Z</time>
      </trkpt>
      <trkpt lat="32.7589182369410991668701171875" lon="-16.84987147338688373565673828125">
        <ele>518.20001220703125</ele>
        <time>2018-06-24T10:38:21.000Z</time>
      </trkpt>
      <trkpt lat="32.75891010649502277374267578125" lon="-16.8499017320573329925537109375">
        <ele>519.20001220703125</ele>
        <time>2018-06-24T10:38:25.000Z</time>
      </trkpt>
      <trkpt lat="32.758916057646274566650390625" lon="-16.84993182308971881866455078125">
        <ele>520.20001220703125</ele>
        <time>2018-06-24T10:38:30.000Z</time>
      </trkpt>
      <trkpt lat="32.7589098550379276275634765625" lon="-16.84995395131409168243408203125">
        <ele>521.5999755859375</ele>
        <time>2018-06-24T10:38:35.000Z</time>
      </trkpt>
      <trkpt lat="32.75891245342791080474853515625" lon="-16.8499910831451416015625">
        <ele>522.79998779296875</ele>
        <time>2018-06-24T10:38:40.000Z</time>
      </trkpt>
      <trkpt lat="32.7589282952249050140380859375" lon="-16.850031651556491851806640625">
        <ele>524</ele>
        <time>2018-06-24T10:38:44.000Z</time>
      </trkpt>
      <trkpt lat="32.75892921723425388336181640625" lon="-16.85006760992109775543212890625">
        <ele>525</ele>
        <time>2018-06-24T10:38:48.000Z</time>
      </trkpt>
      <trkpt lat="32.75892452336847782135009765625" lon="-16.85007934458553791046142578125">
        <ele>525.20001220703125</ele>
        <time>2018-06-24T10:38:49.000Z</time>
      </trkpt>
      <trkpt lat="32.7589142136275768280029296875" lon="-16.85010013170540332794189453125">
        <ele>526</ele>
        <time>2018-06-24T10:38:51.000Z</time>
      </trkpt>
      <trkpt lat="32.758898623287677764892578125" lon="-16.850113458931446075439453125">
        <ele>526.4000244140625</ele>
        <time>2018-06-24T10:38:54.000Z</time>
      </trkpt>
      <trkpt lat="32.75888345204293727874755859375" lon="-16.85012041591107845306396484375">
        <ele>527</ele>
        <time>2018-06-24T10:38:57.000Z</time>
      </trkpt>
      <trkpt lat="32.75884263217449188232421875" lon="-16.850112788379192352294921875">
        <ele>528</ele>
        <time>2018-06-24T10:39:03.000Z</time>
      </trkpt>
      <trkpt lat="32.75880700908601284027099609375" lon="-16.8500985391438007354736328125">
        <ele>529</ele>
        <time>2018-06-24T10:39:08.000Z</time>
      </trkpt>
      <trkpt lat="32.75878203101456165313720703125" lon="-16.8500931747257709503173828125">
        <ele>530</ele>
        <time>2018-06-24T10:39:12.000Z</time>
      </trkpt>
      <trkpt lat="32.7587559632956981658935546875" lon="-16.8500834517180919647216796875">
        <ele>531.4000244140625</ele>
        <time>2018-06-24T10:39:16.000Z</time>
      </trkpt>
      <trkpt lat="32.75871413759887218475341796875" lon="-16.85006618499755859375">
        <ele>532.5999755859375</ele>
        <time>2018-06-24T10:39:21.000Z</time>
      </trkpt>
      <trkpt lat="32.7586805261671543121337890625" lon="-16.85005956329405307769775390625">
        <ele>533.5999755859375</ele>
        <time>2018-06-24T10:39:25.000Z</time>
      </trkpt>
      <trkpt lat="32.75863702408969402313232421875" lon="-16.8500640057027339935302734375">
        <ele>534.5999755859375</ele>
        <time>2018-06-24T10:39:29.000Z</time>
      </trkpt>
      <trkpt lat="32.75859695859253406524658203125" lon="-16.85006760992109775543212890625">
        <ele>535.5999755859375</ele>
        <time>2018-06-24T10:39:32.000Z</time>
      </trkpt>
      <trkpt lat="32.75858203880488872528076171875" lon="-16.850065849721431732177734375">
        <ele>535.79998779296875</ele>
        <time>2018-06-24T10:39:34.000Z</time>
      </trkpt>
      <trkpt lat="32.75854549370706081390380859375" lon="-16.85005285777151584625244140625">
        <ele>537.20001220703125</ele>
        <time>2018-06-24T10:39:39.000Z</time>
      </trkpt>
      <trkpt lat="32.7585040032863616943359375" lon="-16.850042380392551422119140625">
        <ele>538.20001220703125</ele>
        <time>2018-06-24T10:39:44.000Z</time>
      </trkpt>
      <trkpt lat="32.75849889032542705535888671875" lon="-16.85004263184964656829833984375">
        <ele>538.4000244140625</ele>
        <time>2018-06-24T10:39:45.000Z</time>
      </trkpt>
      <trkpt lat="32.758478857576847076416015625" lon="-16.8500487506389617919921875">
        <ele>539.4000244140625</ele>
        <time>2018-06-24T10:39:49.000Z</time>
      </trkpt>
      <trkpt lat="32.7584669552743434906005859375" lon="-16.8500599823892116546630859375">
        <ele>540.79998779296875</ele>
        <time>2018-06-24T10:39:53.000Z</time>
      </trkpt>
      <trkpt lat="32.75843552313745021820068359375" lon="-16.85008269734680652618408203125">
        <ele>541.5999755859375</ele>
        <time>2018-06-24T10:39:57.000Z</time>
      </trkpt>
      <trkpt lat="32.75841758586466312408447265625" lon="-16.85009024105966091156005859375">
        <ele>542.20001220703125</ele>
        <time>2018-06-24T10:39:59.000Z</time>
      </trkpt>
      <trkpt lat="32.75840199552476406097412109375" lon="-16.850096024572849273681640625">
        <ele>542.5999755859375</ele>
        <time>2018-06-24T10:40:01.000Z</time>
      </trkpt>
      <trkpt lat="32.7583925239741802215576171875" lon="-16.85009912587702274322509765625">
        <ele>542.79998779296875</ele>
        <time>2018-06-24T10:40:02.000Z</time>
      </trkpt>
      <trkpt lat="32.75838489644229412078857421875" lon="-16.8501002155244350433349609375">
        <ele>543</ele>
        <time>2018-06-24T10:40:03.000Z</time>
      </trkpt>
      <trkpt lat="32.75836788117885589599609375" lon="-16.85009895823895931243896484375">
        <ele>543.5999755859375</ele>
        <time>2018-06-24T10:40:05.000Z</time>
      </trkpt>
      <trkpt lat="32.7583579905331134796142578125" lon="-16.8501072563230991363525390625">
        <ele>544</ele>
        <time>2018-06-24T10:40:07.000Z</time>
      </trkpt>
      <trkpt lat="32.75833435356616973876953125" lon="-16.85011588968336582183837890625">
        <ele>545.20001220703125</ele>
        <time>2018-06-24T10:40:12.000Z</time>
      </trkpt>
      <trkpt lat="32.7583154104650020599365234375" lon="-16.85011119581758975982666015625">
        <ele>546.4000244140625</ele>
        <time>2018-06-24T10:40:17.000Z</time>
      </trkpt>
      <trkpt lat="32.75830543600022792816162109375" lon="-16.8500800989568233489990234375">
        <ele>547.5999755859375</ele>
        <time>2018-06-24T10:40:22.000Z</time>
      </trkpt>
      <trkpt lat="32.75831113569438457489013671875" lon="-16.85004984028637409210205078125">
        <ele>548</ele>
        <time>2018-06-24T10:40:25.000Z</time>
      </trkpt>
      <trkpt lat="32.7583221159875392913818359375" lon="-16.85002125799655914306640625">
        <ele>548.5999755859375</ele>
        <time>2018-06-24T10:40:28.000Z</time>
      </trkpt>
      <trkpt lat="32.7583408914506435394287109375" lon="-16.84998446144163608551025390625">
        <ele>549.79998779296875</ele>
        <time>2018-06-24T10:40:33.000Z</time>
      </trkpt>
      <trkpt lat="32.7583740837872028350830078125" lon="-16.8499334156513214111328125">
        <ele>551.20001220703125</ele>
        <time>2018-06-24T10:40:40.000Z</time>
      </trkpt>
      <trkpt lat="32.75838171131908893585205078125" lon="-16.8499134667217731475830078125">
        <ele>551.79998779296875</ele>
        <time>2018-06-24T10:40:43.000Z</time>
      </trkpt>
      <trkpt lat="32.75838665664196014404296875" lon="-16.8498977087438106536865234375">
        <ele>552.4000244140625</ele>
        <time>2018-06-24T10:40:45.000Z</time>
      </trkpt>
      <trkpt lat="32.75840031914412975311279296875" lon="-16.84986510314047336578369140625">
        <ele>553.5999755859375</ele>
        <time>2018-06-24T10:40:49.000Z</time>
      </trkpt>
      <trkpt lat="32.75840945541858673095703125" lon="-16.8498299829661846160888671875">
        <ele>554.4000244140625</ele>
        <time>2018-06-24T10:40:52.000Z</time>
      </trkpt>
      <trkpt lat="32.75840568356215953826904296875" lon="-16.849817745387554168701171875">
        <ele>554.4000244140625</ele>
        <time>2018-06-24T10:40:53.000Z</time>
      </trkpt>
      <trkpt lat="32.75840501300990581512451171875" lon="-16.8498105369508266448974609375">
        <ele>554.5999755859375</ele>
        <time>2018-06-24T10:40:54.000Z</time>
      </trkpt>
      <trkpt lat="32.75838741101324558258056640625" lon="-16.8497937731444835662841796875">
        <ele>555.79998779296875</ele>
        <time>2018-06-24T10:40:58.000Z</time>
      </trkpt>
      <trkpt lat="32.7583442442119121551513671875" lon="-16.8497914262115955352783203125">
        <ele>556.5999755859375</ele>
        <time>2018-06-24T10:41:03.000Z</time>
      </trkpt>
      <trkpt lat="32.758295126259326934814453125" lon="-16.84979938901960849761962890625">
        <ele>557.79998779296875</ele>
        <time>2018-06-24T10:41:08.000Z</time>
      </trkpt>
      <trkpt lat="32.75825581513345241546630859375" lon="-16.84981984086334705352783203125">
        <ele>558.79998779296875</ele>
        <time>2018-06-24T10:41:13.000Z</time>
      </trkpt>
      <trkpt lat="32.75821725837886333465576171875" lon="-16.84985102154314517974853515625">
        <ele>560.20001220703125</ele>
        <time>2018-06-24T10:41:18.000Z</time>
      </trkpt>
      <trkpt lat="32.75816612876951694488525390625" lon="-16.84987901709973812103271484375">
        <ele>561</ele>
        <time>2018-06-24T10:41:23.000Z</time>
      </trkpt>
      <trkpt lat="32.75811935774981975555419921875" lon="-16.8499065935611724853515625">
        <ele>562.4000244140625</ele>
        <time>2018-06-24T10:41:28.000Z</time>
      </trkpt>
      <trkpt lat="32.75808314792811870574951171875" lon="-16.8499345891177654266357421875">
        <ele>563.5999755859375</ele>
        <time>2018-06-24T10:41:33.000Z</time>
      </trkpt>
      <trkpt lat="32.75806202553212642669677734375" lon="-16.849946491420269012451171875">
        <ele>564.4000244140625</ele>
        <time>2018-06-24T10:41:37.000Z</time>
      </trkpt>
      <trkpt lat="32.7580344490706920623779296875" lon="-16.84996920637786388397216796875">
        <ele>565.79998779296875</ele>
        <time>2018-06-24T10:41:42.000Z</time>
      </trkpt>
      <trkpt lat="32.75801039300858974456787109375" lon="-16.84999804012477397918701171875">
        <ele>566.79998779296875</ele>
        <time>2018-06-24T10:41:47.000Z</time>
      </trkpt>
      <trkpt lat="32.757974602282047271728515625" lon="-16.85002050362527370452880859375">
        <ele>568</ele>
        <time>2018-06-24T10:41:52.000Z</time>
      </trkpt>
      <trkpt lat="32.75794115848839282989501953125" lon="-16.85004212893545627593994140625">
        <ele>569.20001220703125</ele>
        <time>2018-06-24T10:41:56.000Z</time>
      </trkpt>
      <trkpt lat="32.7579167671501636505126953125" lon="-16.85005746781826019287109375">
        <ele>569.5999755859375</ele>
        <time>2018-06-24T10:41:59.000Z</time>
      </trkpt>
      <trkpt lat="32.757899500429630279541015625" lon="-16.8500754050910472869873046875">
        <ele>570.20001220703125</ele>
        <time>2018-06-24T10:42:01.000Z</time>
      </trkpt>
      <trkpt lat="32.75789170525968074798583984375" lon="-16.85008504427969455718994140625">
        <ele>570.4000244140625</ele>
        <time>2018-06-24T10:42:02.000Z</time>
      </trkpt>
      <trkpt lat="32.75787075050175189971923828125" lon="-16.8501186557114124298095703125">
        <ele>571.20001220703125</ele>
        <time>2018-06-24T10:42:06.000Z</time>
      </trkpt>
      <trkpt lat="32.75785365141928195953369140625" lon="-16.8501404486596584320068359375">
        <ele>572.5999755859375</ele>
        <time>2018-06-24T10:42:10.000Z</time>
      </trkpt>
      <trkpt lat="32.7578272484242916107177734375" lon="-16.85015042312443256378173828125">
        <ele>573.79998779296875</ele>
        <time>2018-06-24T10:42:14.000Z</time>
      </trkpt>
      <trkpt lat="32.7578208781778812408447265625" lon="-16.85019702650606632232666015625">
        <ele>574.5999755859375</ele>
        <time>2018-06-24T10:42:19.000Z</time>
      </trkpt>
      <trkpt lat="32.75780520401895046234130859375" lon="-16.85025083832442760467529296875">
        <ele>575.5999755859375</ele>
        <time>2018-06-24T10:42:25.000Z</time>
      </trkpt>
      <trkpt lat="32.757802940905094146728515625" lon="-16.85026994906365871429443359375">
        <ele>576.20001220703125</ele>
        <time>2018-06-24T10:42:27.000Z</time>
      </trkpt>
      <trkpt lat="32.7577997557818889617919921875" lon="-16.85028671287000179290771484375">
        <ele>576.79998779296875</ele>
        <time>2018-06-24T10:42:29.000Z</time>
      </trkpt>
      <trkpt lat="32.75778592564165592193603515625" lon="-16.8503033928573131561279296875">
        <ele>577.4000244140625</ele>
        <time>2018-06-24T10:42:31.000Z</time>
      </trkpt>
      <trkpt lat="32.75777737610042095184326171875" lon="-16.8503174744546413421630859375">
        <ele>578</ele>
        <time>2018-06-24T10:42:33.000Z</time>
      </trkpt>
      <trkpt lat="32.7577744424343109130859375" lon="-16.85032426379621028900146484375">
        <ele>578.20001220703125</ele>
        <time>2018-06-24T10:42:34.000Z</time>
      </trkpt>
      <trkpt lat="32.7577595226466655731201171875" lon="-16.8503486551344394683837890625">
        <ele>578.79998779296875</ele>
        <time>2018-06-24T10:42:37.000Z</time>
      </trkpt>
      <trkpt lat="32.757739238440990447998046875" lon="-16.85038008727133274078369140625">
        <ele>580</ele>
        <time>2018-06-24T10:42:41.000Z</time>
      </trkpt>
      <trkpt lat="32.75771635584533214569091796875" lon="-16.850416548550128936767578125">
        <ele>581.20001220703125</ele>
        <time>2018-06-24T10:42:45.000Z</time>
      </trkpt>
      <trkpt lat="32.7576857618987560272216796875" lon="-16.85043825767934322357177734375">
        <ele>582.20001220703125</ele>
        <time>2018-06-24T10:42:49.000Z</time>
      </trkpt>
      <trkpt lat="32.7576562575995922088623046875" lon="-16.85045619495213031768798828125">
        <ele>583</ele>
        <time>2018-06-24T10:42:52.000Z</time>
      </trkpt>
      <trkpt lat="32.7576456964015960693359375" lon="-16.85046105645596981048583984375">
        <ele>583.20001220703125</ele>
        <time>2018-06-24T10:42:53.000Z</time>
      </trkpt>
      <trkpt lat="32.75763521902263164520263671875" lon="-16.85046575032174587249755859375">
        <ele>583.5999755859375</ele>
        <time>2018-06-24T10:42:54.000Z</time>
      </trkpt>
      <trkpt lat="32.7575892023742198944091796875" lon="-16.85047010891139507293701171875">
        <ele>584.5999755859375</ele>
        <time>2018-06-24T10:42:58.000Z</time>
      </trkpt>
      <trkpt lat="32.757538743317127227783203125" lon="-16.85046910308301448822021484375">
        <ele>585.4000244140625</ele>
        <time>2018-06-24T10:43:02.000Z</time>
      </trkpt>
      <trkpt lat="32.75746523402631282806396484375" lon="-16.85042819939553737640380859375">
        <ele>586.5999755859375</ele>
        <time>2018-06-24T10:43:08.000Z</time>
      </trkpt>
      <trkpt lat="32.7573913894593715667724609375" lon="-16.850342787802219390869140625">
        <ele>587.79998779296875</ele>
        <time>2018-06-24T10:43:14.000Z</time>
      </trkpt>
      <trkpt lat="32.75734218768775463104248046875" lon="-16.85027313418686389923095703125">
        <ele>588.79998779296875</ele>
        <time>2018-06-24T10:43:19.000Z</time>
      </trkpt>
      <trkpt lat="32.75729231536388397216796875" lon="-16.8501935899257659912109375">
        <ele>589.79998779296875</ele>
        <time>2018-06-24T10:43:24.000Z</time>
      </trkpt>
      <trkpt lat="32.75724914856255054473876953125" lon="-16.85006777755916118621826171875">
        <ele>591.20001220703125</ele>
        <time>2018-06-24T10:43:31.000Z</time>
      </trkpt>
      <trkpt lat="32.7572435326874256134033203125" lon="-16.84999502263963222503662109375">
        <ele>592.4000244140625</ele>
        <time>2018-06-24T10:43:36.000Z</time>
      </trkpt>
      <trkpt lat="32.75719977915287017822265625" lon="-16.8499292246997356414794921875">
        <ele>593.4000244140625</ele>
        <time>2018-06-24T10:43:42.000Z</time>
      </trkpt>
      <trkpt lat="32.757147140800952911376953125" lon="-16.84988287277519702911376953125">
        <ele>594.5999755859375</ele>
        <time>2018-06-24T10:43:48.000Z</time>
      </trkpt>
      <trkpt lat="32.75709911249577999114990234375" lon="-16.8498246185481548309326171875">
        <ele>595.79998779296875</ele>
        <time>2018-06-24T10:43:53.000Z</time>
      </trkpt>
      <trkpt lat="32.75706742890179157257080078125" lon="-16.84978329576551914215087890625">
        <ele>597</ele>
        <time>2018-06-24T10:43:57.000Z</time>
      </trkpt>
      <trkpt lat="32.75703884661197662353515625" lon="-16.8497528694570064544677734375">
        <ele>598.4000244140625</ele>
        <time>2018-06-24T10:44:01.000Z</time>
      </trkpt>
      <trkpt lat="32.75696902535855770111083984375" lon="-16.84970450587570667266845703125">
        <ele>599.79998779296875</ele>
        <time>2018-06-24T10:44:07.000Z</time>
      </trkpt>
      <trkpt lat="32.7569327317178249359130859375" lon="-16.84966594912111759185791015625">
        <ele>600.79998779296875</ele>
        <time>2018-06-24T10:44:11.000Z</time>
      </trkpt>
      <trkpt lat="32.75688084773719310760498046875" lon="-16.84961515478789806365966796875">
        <ele>601.5999755859375</ele>
        <time>2018-06-24T10:44:16.000Z</time>
      </trkpt>
      <trkpt lat="32.756846062839031219482421875" lon="-16.84954726137220859527587890625">
        <ele>602.79998779296875</ele>
        <time>2018-06-24T10:44:21.000Z</time>
      </trkpt>
      <trkpt lat="32.75669845752418041229248046875" lon="-16.8494031764566898345947265625">
        <ele>603.5999755859375</ele>
        <time>2018-06-24T10:44:31.000Z</time>
      </trkpt>
      <trkpt lat="32.7566521055996417999267578125" lon="-16.84936570934951305389404296875">
        <ele>604</ele>
        <time>2018-06-24T10:44:34.000Z</time>
      </trkpt>
      <trkpt lat="32.75647717528045177459716796875" lon="-16.84926579706370830535888671875">
        <ele>604.5999755859375</ele>
        <time>2018-06-24T10:44:44.000Z</time>
      </trkpt>
      <trkpt lat="32.75629042647778987884521484375" lon="-16.8492087163031101226806640625">
        <ele>605</ele>
        <time>2018-06-24T10:44:53.000Z</time>
      </trkpt>
      <trkpt lat="32.75624759495258331298828125" lon="-16.8492092192173004150390625">
        <ele>605</ele>
        <time>2018-06-24T10:44:55.000Z</time>
      </trkpt>
      <trkpt lat="32.75607886724174022674560546875" lon="-16.84922204352915287017822265625">
        <ele>606.20001220703125</ele>
        <time>2018-06-24T10:45:04.000Z</time>
      </trkpt>
      <trkpt lat="32.75598767213523387908935546875" lon="-16.849212236702442169189453125">
        <ele>607.4000244140625</ele>
        <time>2018-06-24T10:45:09.000Z</time>
      </trkpt>
      <trkpt lat="32.75588641874492168426513671875" lon="-16.84920075349509716033935546875">
        <ele>608.4000244140625</ele>
        <time>2018-06-24T10:45:14.000Z</time>
      </trkpt>
      <trkpt lat="32.755716852843761444091796875" lon="-16.84919086284935474395751953125">
        <ele>609.5999755859375</ele>
        <time>2018-06-24T10:45:24.000Z</time>
      </trkpt>
      <trkpt lat="32.755669243633747100830078125" lon="-16.849215589463710784912109375">
        <ele>610.79998779296875</ele>
        <time>2018-06-24T10:45:29.000Z</time>
      </trkpt>
      <trkpt lat="32.75563529692590236663818359375" lon="-16.84922740794718265533447265625">
        <ele>612</ele>
        <time>2018-06-24T10:45:33.000Z</time>
      </trkpt>
      <trkpt lat="32.75560042820870876312255859375" lon="-16.8492253124713897705078125">
        <ele>613</ele>
        <time>2018-06-24T10:45:36.000Z</time>
      </trkpt>
      <trkpt lat="32.7555886097252368927001953125" lon="-16.8492306768894195556640625">
        <ele>613.4000244140625</ele>
        <time>2018-06-24T10:45:37.000Z</time>
      </trkpt>
      <trkpt lat="32.7555544115602970123291015625" lon="-16.84924350120127201080322265625">
        <ele>614.4000244140625</ele>
        <time>2018-06-24T10:45:41.000Z</time>
      </trkpt>
      <trkpt lat="32.75551560334861278533935546875" lon="-16.84924584813416004180908203125">
        <ele>615.4000244140625</ele>
        <time>2018-06-24T10:45:45.000Z</time>
      </trkpt>
      <trkpt lat="32.75548056699335575103759765625" lon="-16.84924383647739887237548828125">
        <ele>616.4000244140625</ele>
        <time>2018-06-24T10:45:49.000Z</time>
      </trkpt>
      <trkpt lat="32.7554736100137233734130859375" lon="-16.8492395617067813873291015625">
        <ele>616.79998779296875</ele>
        <time>2018-06-24T10:45:50.000Z</time>
      </trkpt>
      <trkpt lat="32.75545022450387477874755859375" lon="-16.84923243708908557891845703125">
        <ele>617.5999755859375</ele>
        <time>2018-06-24T10:45:53.000Z</time>
      </trkpt>
      <trkpt lat="32.75541384704411029815673828125" lon="-16.84921517036855220794677734375">
        <ele>618.79998779296875</ele>
        <time>2018-06-24T10:45:57.000Z</time>
      </trkpt>
      <trkpt lat="32.7553918026387691497802734375" lon="-16.84920930303633213043212890625">
        <ele>620</ele>
        <time>2018-06-24T10:46:01.000Z</time>
      </trkpt>
      <trkpt lat="32.755360789597034454345703125" lon="-16.84922070242464542388916015625">
        <ele>621</ele>
        <time>2018-06-24T10:46:05.000Z</time>
      </trkpt>
      <trkpt lat="32.75532491505146026611328125" lon="-16.84924299828708171844482421875">
        <ele>622.4000244140625</ele>
        <time>2018-06-24T10:46:10.000Z</time>
      </trkpt>
      <trkpt lat="32.7553069777786731719970703125" lon="-16.8492466025054454803466796875">
        <ele>623.4000244140625</ele>
        <time>2018-06-24T10:46:13.000Z</time>
      </trkpt>
      <trkpt lat="32.75528744794428348541259765625" lon="-16.849237047135829925537109375">
        <ele>624.5999755859375</ele>
        <time>2018-06-24T10:46:17.000Z</time>
      </trkpt>
      <trkpt lat="32.75526934303343296051025390625" lon="-16.849210225045680999755859375">
        <ele>625.5999755859375</ele>
        <time>2018-06-24T10:46:22.000Z</time>
      </trkpt>
      <trkpt lat="32.75526498444378376007080078125" lon="-16.84916487894952297210693359375">
        <ele>626.5999755859375</ele>
        <time>2018-06-24T10:46:27.000Z</time>
      </trkpt>
      <trkpt lat="32.75522106327116489410400390625" lon="-16.84913202188909053802490234375">
        <ele>627.79998779296875</ele>
        <time>2018-06-24T10:46:34.000Z</time>
      </trkpt>
      <trkpt lat="32.75519239716231822967529296875" lon="-16.84912540018558502197265625">
        <ele>629</ele>
        <time>2018-06-24T10:46:38.000Z</time>
      </trkpt>
      <trkpt lat="32.75515518151223659515380859375" lon="-16.8491064570844173431396484375">
        <ele>630</ele>
        <time>2018-06-24T10:46:42.000Z</time>
      </trkpt>
      <trkpt lat="32.75512802414596080780029296875" lon="-16.84908877126872539520263671875">
        <ele>630.4000244140625</ele>
        <time>2018-06-24T10:46:44.000Z</time>
      </trkpt>
      <trkpt lat="32.75510120205581188201904296875" lon="-16.8490725941956043243408203125">
        <ele>631</ele>
        <time>2018-06-24T10:46:46.000Z</time>
      </trkpt>
      <trkpt lat="32.75507278740406036376953125" lon="-16.84905968606472015380859375">
        <ele>631.20001220703125</ele>
        <time>2018-06-24T10:46:48.000Z</time>
      </trkpt>
      <trkpt lat="32.75502140633761882781982421875" lon="-16.8490323610603809356689453125">
        <ele>632.5999755859375</ele>
        <time>2018-06-24T10:46:53.000Z</time>
      </trkpt>
      <trkpt lat="32.75499232113361358642578125" lon="-16.84901048429310321807861328125">
        <ele>633.79998779296875</ele>
        <time>2018-06-24T10:46:57.000Z</time>
      </trkpt>
      <trkpt lat="32.754967175424098968505859375" lon="-16.84898986481130123138427734375">
        <ele>634.79998779296875</ele>
        <time>2018-06-24T10:47:01.000Z</time>
      </trkpt>
      <trkpt lat="32.75493540801107883453369140625" lon="-16.84897310100495815277099609375">
        <ele>636</ele>
        <time>2018-06-24T10:47:05.000Z</time>
      </trkpt>
      <trkpt lat="32.75490338914096355438232421875" lon="-16.84895482845604419708251953125">
        <ele>637</ele>
        <time>2018-06-24T10:47:09.000Z</time>
      </trkpt>
      <trkpt lat="32.75486902333796024322509765625" lon="-16.84894778765738010406494140625">
        <ele>638.4000244140625</ele>
        <time>2018-06-24T10:47:13.000Z</time>
      </trkpt>
      <trkpt lat="32.754834406077861785888671875" lon="-16.84894611127674579620361328125">
        <ele>639.4000244140625</ele>
        <time>2018-06-24T10:47:17.000Z</time>
      </trkpt>
      <trkpt lat="32.75479643605649471282958984375" lon="-16.848947368562221527099609375">
        <ele>640.5999755859375</ele>
        <time>2018-06-24T10:47:21.000Z</time>
      </trkpt>
      <trkpt lat="32.75477782823145389556884765625" lon="-16.8489545769989490509033203125">
        <ele>640.79998779296875</ele>
        <time>2018-06-24T10:47:23.000Z</time>
      </trkpt>
      <trkpt lat="32.75475519709289073944091796875" lon="-16.8489589355885982513427734375">
        <ele>641.4000244140625</ele>
        <time>2018-06-24T10:47:26.000Z</time>
      </trkpt>
      <trkpt lat="32.75471630506217479705810546875" lon="-16.84899388812482357025146484375">
        <ele>642.79998779296875</ele>
        <time>2018-06-24T10:47:31.000Z</time>
      </trkpt>
      <trkpt lat="32.75468981824815273284912109375" lon="-16.84902640990912914276123046875">
        <ele>643.79998779296875</ele>
        <time>2018-06-24T10:47:35.000Z</time>
      </trkpt>
      <trkpt lat="32.754666097462177276611328125" lon="-16.84905834496021270751953125">
        <ele>644.79998779296875</ele>
        <time>2018-06-24T10:47:39.000Z</time>
      </trkpt>
      <trkpt lat="32.75454263202846050262451171875" lon="-16.84904283843934535980224609375">
        <ele>646</ele>
        <time>2018-06-24T10:47:50.000Z</time>
      </trkpt>
      <trkpt lat="32.7544801868498325347900390625" lon="-16.84902523644268512725830078125">
        <ele>646.79998779296875</ele>
        <time>2018-06-24T10:47:57.000Z</time>
      </trkpt>
      <trkpt lat="32.75444305501878261566162109375" lon="-16.8490283377468585968017578125">
        <ele>648</ele>
        <time>2018-06-24T10:48:01.000Z</time>
      </trkpt>
      <trkpt lat="32.7544161491096019744873046875" lon="-16.84902724809944629669189453125">
        <ele>649.20001220703125</ele>
        <time>2018-06-24T10:48:05.000Z</time>
      </trkpt>
      <trkpt lat="32.7543728984892368316650390625" lon="-16.84900310821831226348876953125">
        <ele>650.4000244140625</ele>
        <time>2018-06-24T10:48:10.000Z</time>
      </trkpt>
      <trkpt lat="32.75432134978473186492919921875" lon="-16.84893588535487651824951171875">
        <ele>651.4000244140625</ele>
        <time>2018-06-24T10:48:16.000Z</time>
      </trkpt>
      <trkpt lat="32.75428195483982563018798828125" lon="-16.84890101663768291473388671875">
        <ele>652.5999755859375</ele>
        <time>2018-06-24T10:48:20.000Z</time>
      </trkpt>
      <trkpt lat="32.7542438171803951263427734375" lon="-16.848871596157550811767578125">
        <ele>653.79998779296875</ele>
        <time>2018-06-24T10:48:24.000Z</time>
      </trkpt>
      <trkpt lat="32.75418204255402088165283203125" lon="-16.84887134470045566558837890625">
        <ele>654.79998779296875</ele>
        <time>2018-06-24T10:48:29.000Z</time>
      </trkpt>
      <trkpt lat="32.75406771339476108551025390625" lon="-16.84885525144636631011962890625">
        <ele>656</ele>
        <time>2018-06-24T10:48:36.000Z</time>
      </trkpt>
      <trkpt lat="32.75398255325853824615478515625" lon="-16.84881560504436492919921875">
        <ele>657</ele>
        <time>2018-06-24T10:48:41.000Z</time>
      </trkpt>
      <trkpt lat="32.75393108837306499481201171875" lon="-16.84878878295421600341796875">
        <ele>658.20001220703125</ele>
        <time>2018-06-24T10:48:46.000Z</time>
      </trkpt>
      <trkpt lat="32.7538901008665561676025390625" lon="-16.84876196086406707763671875">
        <ele>659.4000244140625</ele>
        <time>2018-06-24T10:48:51.000Z</time>
      </trkpt>
      <trkpt lat="32.75386805646121501922607421875" lon="-16.848767660558223724365234375">
        <ele>660.5999755859375</ele>
        <time>2018-06-24T10:48:55.000Z</time>
      </trkpt>
      <trkpt lat="32.75384291075170040130615234375" lon="-16.84877428226172924041748046875">
        <ele>661.5999755859375</ele>
        <time>2018-06-24T10:48:59.000Z</time>
      </trkpt>
      <trkpt lat="32.75383897125720977783203125" lon="-16.8487631343305110931396484375">
        <ele>663</ele>
        <time>2018-06-24T10:49:03.000Z</time>
      </trkpt>
      <trkpt lat="32.75383033789694309234619140625" lon="-16.84873321093618869781494140625">
        <ele>663.79998779296875</ele>
        <time>2018-06-24T10:49:08.000Z</time>
      </trkpt>
      <trkpt lat="32.75372556410729885101318359375" lon="-16.84859541244804859161376953125">
        <ele>665</ele>
        <time>2018-06-24T10:49:16.000Z</time>
      </trkpt>
      <trkpt lat="32.7536681480705738067626953125" lon="-16.8485750444233417510986328125">
        <ele>666.20001220703125</ele>
        <time>2018-06-24T10:49:20.000Z</time>
      </trkpt>
      <trkpt lat="32.75360888801515102386474609375" lon="-16.84858485125005245208740234375">
        <ele>667</ele>
        <time>2018-06-24T10:49:25.000Z</time>
      </trkpt>
      <trkpt lat="32.7535514719784259796142578125" lon="-16.84862340800464153289794921875">
        <ele>668.20001220703125</ele>
        <time>2018-06-24T10:49:30.000Z</time>
      </trkpt>
      <trkpt lat="32.75349422357976436614990234375" lon="-16.8486642278730869293212890625">
        <ele>669.20001220703125</ele>
        <time>2018-06-24T10:49:35.000Z</time>
      </trkpt>
      <trkpt lat="32.7533891983330249786376953125" lon="-16.84877746738493442535400390625">
        <ele>670.5999755859375</ele>
        <time>2018-06-24T10:49:43.000Z</time>
      </trkpt>
      <trkpt lat="32.75334083475172519683837890625" lon="-16.84885986149311065673828125">
        <ele>671.5999755859375</ele>
        <time>2018-06-24T10:49:48.000Z</time>
      </trkpt>
      <trkpt lat="32.75321342982351779937744140625" lon="-16.84903026558458805084228515625">
        <ele>672.4000244140625</ele>
        <time>2018-06-24T10:49:59.000Z</time>
      </trkpt>
      <trkpt lat="32.7531803213059902191162109375" lon="-16.84905792586505413055419921875">
        <ele>672.79998779296875</ele>
        <time>2018-06-24T10:50:01.000Z</time>
      </trkpt>
      <trkpt lat="32.75312089361250400543212890625" lon="-16.84911140240728855133056640625">
        <ele>673.20001220703125</ele>
        <time>2018-06-24T10:50:06.000Z</time>
      </trkpt>
      <trkpt lat="32.7531048841774463653564453125" lon="-16.849129088222980499267578125">
        <ele>673.79998779296875</ele>
        <time>2018-06-24T10:50:08.000Z</time>
      </trkpt>
      <trkpt lat="32.75306423194706439971923828125" lon="-16.84917309321463108062744140625">
        <ele>675.20001220703125</ele>
        <time>2018-06-24T10:50:12.000Z</time>
      </trkpt>
      <trkpt lat="32.753044702112674713134765625" lon="-16.849211566150188446044921875">
        <ele>676</ele>
        <time>2018-06-24T10:50:16.000Z</time>
      </trkpt>
      <trkpt lat="32.75301746092736721038818359375" lon="-16.84922732412815093994140625">
        <ele>676.79998779296875</ele>
        <time>2018-06-24T10:50:20.000Z</time>
      </trkpt>
      <trkpt lat="32.75301259942352771759033203125" lon="-16.8492372147738933563232421875">
        <ele>677.20001220703125</ele>
        <time>2018-06-24T10:50:21.000Z</time>
      </trkpt>
      <trkpt lat="32.75300187058746814727783203125" lon="-16.849251799285411834716796875">
        <ele>677.79998779296875</ele>
        <time>2018-06-24T10:50:23.000Z</time>
      </trkpt>
      <trkpt lat="32.75297974236309528350830078125" lon="-16.84925909154117107391357421875">
        <ele>678.4000244140625</ele>
        <time>2018-06-24T10:50:25.000Z</time>
      </trkpt>
      <trkpt lat="32.7529154531657695770263671875" lon="-16.84926948510110378265380859375">
        <ele>679.5999755859375</ele>
        <time>2018-06-24T10:50:30.000Z</time>
      </trkpt>
      <trkpt lat="32.75289055891335010528564453125" lon="-16.84927761554718017578125">
        <ele>680.4000244140625</ele>
        <time>2018-06-24T10:50:33.000Z</time>
      </trkpt>
      <trkpt lat="32.7528457157313823699951171875" lon="-16.84928205795586109161376953125">
        <ele>680.5999755859375</ele>
        <time>2018-06-24T10:50:36.000Z</time>
      </trkpt>
      <trkpt lat="32.7527716197073459625244140625" lon="-16.84935078956186771392822265625">
        <ele>681.79998779296875</ele>
        <time>2018-06-24T10:50:42.000Z</time>
      </trkpt>
      <trkpt lat="32.75276566855609416961669921875" lon="-16.8493676371872425079345703125">
        <ele>682</ele>
        <time>2018-06-24T10:50:43.000Z</time>
      </trkpt>
      <trkpt lat="32.752742283046245574951171875" lon="-16.84941080398857593536376953125">
        <ele>682.79998779296875</ele>
        <time>2018-06-24T10:50:46.000Z</time>
      </trkpt>
      <trkpt lat="32.7527211606502532958984375" lon="-16.8494346924126148223876953125">
        <ele>683.4000244140625</ele>
        <time>2018-06-24T10:50:48.000Z</time>
      </trkpt>
      <trkpt lat="32.7526525966823101043701171875" lon="-16.84947014786303043365478515625">
        <ele>684</ele>
        <time>2018-06-24T10:50:52.000Z</time>
      </trkpt>
      <trkpt lat="32.75254941545426845550537109375" lon="-16.8495661206543445587158203125">
        <ele>685</ele>
        <time>2018-06-24T10:50:59.000Z</time>
      </trkpt>
      <trkpt lat="32.75245000608265399932861328125" lon="-16.8496571481227874755859375">
        <ele>686</ele>
        <time>2018-06-24T10:51:06.000Z</time>
      </trkpt>
      <trkpt lat="32.75242636911571025848388671875" lon="-16.84964968822896480560302734375">
        <ele>686.20001220703125</ele>
        <time>2018-06-24T10:51:08.000Z</time>
      </trkpt>
      <trkpt lat="32.75238596834242343902587890625" lon="-16.849599815905094146728515625">
        <ele>687.5999755859375</ele>
        <time>2018-06-24T10:51:15.000Z</time>
      </trkpt>
      <trkpt lat="32.75236987508833408355712890625" lon="-16.849581040441989898681640625">
        <ele>688.5999755859375</ele>
        <time>2018-06-24T10:51:19.000Z</time>
      </trkpt>
      <trkpt lat="32.752323187887668609619140625" lon="-16.8495369516313076019287109375">
        <ele>689.20001220703125</ele>
        <time>2018-06-24T10:51:24.000Z</time>
      </trkpt>
      <trkpt lat="32.75227717123925685882568359375" lon="-16.8495242111384868621826171875">
        <ele>689.79998779296875</ele>
        <time>2018-06-24T10:51:27.000Z</time>
      </trkpt>
      <trkpt lat="32.75224112905561923980712890625" lon="-16.84950619004666805267333984375">
        <ele>691</ele>
        <time>2018-06-24T10:51:31.000Z</time>
      </trkpt>
      <trkpt lat="32.75222805328667163848876953125" lon="-16.84949814341962337493896484375">
        <ele>691.20001220703125</ele>
        <time>2018-06-24T10:51:32.000Z</time>
      </trkpt>
      <trkpt lat="32.752201147377490997314453125" lon="-16.84948992915451526641845703125">
        <ele>691.5999755859375</ele>
        <time>2018-06-24T10:51:34.000Z</time>
      </trkpt>
      <trkpt lat="32.75218245573341846466064453125" lon="-16.84948456473648548126220703125">
        <ele>692.20001220703125</ele>
        <time>2018-06-24T10:51:36.000Z</time>
      </trkpt>
      <trkpt lat="32.75213920511305332183837890625" lon="-16.849457658827304840087890625">
        <ele>693.4000244140625</ele>
        <time>2018-06-24T10:51:41.000Z</time>
      </trkpt>
      <trkpt lat="32.7521081082522869110107421875" lon="-16.849430166184902191162109375">
        <ele>694.5999755859375</ele>
        <time>2018-06-24T10:51:45.000Z</time>
      </trkpt>
      <trkpt lat="32.75209193117916584014892578125" lon="-16.84940778650343418121337890625">
        <ele>695.5999755859375</ele>
        <time>2018-06-24T10:51:48.000Z</time>
      </trkpt>
      <trkpt lat="32.75207986123859882354736328125" lon="-16.849398314952850341796875">
        <ele>696.20001220703125</ele>
        <time>2018-06-24T10:51:50.000Z</time>
      </trkpt>
      <trkpt lat="32.752067036926746368408203125" lon="-16.84938901104032993316650390625">
        <ele>696.4000244140625</ele>
        <time>2018-06-24T10:51:52.000Z</time>
      </trkpt>
      <trkpt lat="32.752064354717731475830078125" lon="-16.84938733465969562530517578125">
        <ele>696.5999755859375</ele>
        <time>2018-06-24T10:51:53.000Z</time>
      </trkpt>
      <trkpt lat="32.75203744880855083465576171875" lon="-16.84939152561128139495849609375">
        <ele>697.4000244140625</ele>
        <time>2018-06-24T10:51:56.000Z</time>
      </trkpt>
      <trkpt lat="32.75202990509569644927978515625" lon="-16.84939353726804256439208984375">
        <ele>697.79998779296875</ele>
        <time>2018-06-24T10:51:57.000Z</time>
      </trkpt>
      <trkpt lat="32.7520236186683177947998046875" lon="-16.8493927828967571258544921875">
        <ele>698</ele>
        <time>2018-06-24T10:51:58.000Z</time>
      </trkpt>
      <trkpt lat="32.75200626812875270843505859375" lon="-16.84939504601061344146728515625">
        <ele>699</ele>
        <time>2018-06-24T10:52:01.000Z</time>
      </trkpt>
      <trkpt lat="32.751981206238269805908203125" lon="-16.84937627054750919342041015625">
        <ele>700</ele>
        <time>2018-06-24T10:52:06.000Z</time>
      </trkpt>
      <trkpt lat="32.75194876827299594879150390625" lon="-16.849355064332485198974609375">
        <ele>700.79998779296875</ele>
        <time>2018-06-24T10:52:12.000Z</time>
      </trkpt>
      <trkpt lat="32.7519270591437816619873046875" lon="-16.84936101548373699188232421875">
        <ele>702</ele>
        <time>2018-06-24T10:52:17.000Z</time>
      </trkpt>
      <trkpt lat="32.75193669833242893218994140625" lon="-16.8493693135678768157958984375">
        <ele>703.20001220703125</ele>
        <time>2018-06-24T10:52:22.000Z</time>
      </trkpt>
      <trkpt lat="32.75194323621690273284912109375" lon="-16.849366128444671630859375">
        <ele>704.5999755859375</ele>
        <time>2018-06-24T10:52:26.000Z</time>
      </trkpt>
      <trkpt lat="32.7519441582262516021728515625" lon="-16.8493701517581939697265625">
        <ele>705.5999755859375</ele>
        <time>2018-06-24T10:52:31.000Z</time>
      </trkpt>
      <trkpt lat="32.75197542272508144378662109375" lon="-16.84936604462563991546630859375">
        <ele>706.79998779296875</ele>
        <time>2018-06-24T10:52:35.000Z</time>
      </trkpt>
      <trkpt lat="32.75198548100888729095458984375" lon="-16.8493813835084438323974609375">
        <ele>708</ele>
        <time>2018-06-24T10:52:39.000Z</time>
      </trkpt>
      <trkpt lat="32.75200593285262584686279296875" lon="-16.84941776096820831298828125">
        <ele>709</ele>
        <time>2018-06-24T10:52:44.000Z</time>
      </trkpt>
      <trkpt lat="32.75202018208801746368408203125" lon="-16.8494584970176219940185546875">
        <ele>710</ele>
        <time>2018-06-24T10:52:49.000Z</time>
      </trkpt>
      <trkpt lat="32.7520373649895191192626953125" lon="-16.84951155446469783782958984375">
        <ele>711</ele>
        <time>2018-06-24T10:52:53.000Z</time>
      </trkpt>
      <trkpt lat="32.7520467527210712432861328125" lon="-16.8495218642055988311767578125">
        <ele>711.20001220703125</ele>
        <time>2018-06-24T10:52:54.000Z</time>
      </trkpt>
      <trkpt lat="32.75205421261489391326904296875" lon="-16.84953234158456325531005859375">
        <ele>711.20001220703125</ele>
        <time>2018-06-24T10:52:55.000Z</time>
      </trkpt>
      <trkpt lat="32.7520786039531230926513671875" lon="-16.849599815905094146728515625">
        <ele>712</ele>
        <time>2018-06-24T10:53:00.000Z</time>
      </trkpt>
      <trkpt lat="32.752075754106044769287109375" lon="-16.84960979036986827850341796875">
        <ele>712.20001220703125</ele>
        <time>2018-06-24T10:53:01.000Z</time>
      </trkpt>
      <trkpt lat="32.75207583792507648468017578125" lon="-16.84961817227303981781005859375">
        <ele>712.5999755859375</ele>
        <time>2018-06-24T10:53:02.000Z</time>
      </trkpt>
      <trkpt lat="32.75207650847733020782470703125" lon="-16.8496365286409854888916015625">
        <ele>713.20001220703125</ele>
        <time>2018-06-24T10:53:04.000Z</time>
      </trkpt>
      <trkpt lat="32.75207332335412502288818359375" lon="-16.8496464192867279052734375">
        <ele>713.5999755859375</ele>
        <time>2018-06-24T10:53:05.000Z</time>
      </trkpt>
      <trkpt lat="32.75208036415278911590576171875" lon="-16.84967382811009883880615234375">
        <ele>714.79998779296875</ele>
        <time>2018-06-24T10:53:09.000Z</time>
      </trkpt>
      <trkpt lat="32.752105928957462310791015625" lon="-16.84970433823764324188232421875">
        <ele>715.79998779296875</ele>
        <time>2018-06-24T10:53:13.000Z</time>
      </trkpt>
      <trkpt lat="32.75214783847332000732421875" lon="-16.84972009621560573577880859375">
        <ele>717.20001220703125</ele>
        <time>2018-06-24T10:53:17.000Z</time>
      </trkpt>
      <trkpt lat="32.75215731002390384674072265625" lon="-16.84972696937620639801025390625">
        <ele>717.5999755859375</ele>
        <time>2018-06-24T10:53:18.000Z</time>
      </trkpt>
      <trkpt lat="32.752160243690013885498046875" lon="-16.84974272735416889190673828125">
        <ele>718.4000244140625</ele>
        <time>2018-06-24T10:53:20.000Z</time>
      </trkpt>
      <trkpt lat="32.7521516941487789154052734375" lon="-16.84976636432111263275146484375">
        <ele>718.5999755859375</ele>
        <time>2018-06-24T10:53:22.000Z</time>
      </trkpt>
      <trkpt lat="32.75214473716914653778076171875" lon="-16.84977675788104534149169921875">
        <ele>719.20001220703125</ele>
        <time>2018-06-24T10:53:24.000Z</time>
      </trkpt>
      <trkpt lat="32.7521443180739879608154296875" lon="-16.84978061355650424957275390625">
        <ele>719.4000244140625</ele>
        <time>2018-06-24T10:53:25.000Z</time>
      </trkpt>
      <trkpt lat="32.75211841799318790435791015625" lon="-16.84979192912578582763671875">
        <ele>720.4000244140625</ele>
        <time>2018-06-24T10:53:30.000Z</time>
      </trkpt>
      <trkpt lat="32.75207340717315673828125" lon="-16.84981313534080982208251953125">
        <ele>721.4000244140625</ele>
        <time>2018-06-24T10:53:35.000Z</time>
      </trkpt>
      <trkpt lat="32.75204968638718128204345703125" lon="-16.8498165719211101531982421875">
        <ele>721.79998779296875</ele>
        <time>2018-06-24T10:53:37.000Z</time>
      </trkpt>
      <trkpt lat="32.75196754373610019683837890625" lon="-16.8498293124139308929443359375">
        <ele>722.79998779296875</ele>
        <time>2018-06-24T10:53:43.000Z</time>
      </trkpt>
      <trkpt lat="32.75181734003126621246337890625" lon="-16.84981095604598522186279296875">
        <ele>723.79998779296875</ele>
        <time>2018-06-24T10:53:52.000Z</time>
      </trkpt>
      <trkpt lat="32.75180242024362087249755859375" lon="-16.8498169071972370147705078125">
        <ele>724.4000244140625</ele>
        <time>2018-06-24T10:53:54.000Z</time>
      </trkpt>
      <trkpt lat="32.75178381241858005523681640625" lon="-16.84983618557453155517578125">
        <ele>725</ele>
        <time>2018-06-24T10:53:56.000Z</time>
      </trkpt>
      <trkpt lat="32.75177056901156902313232421875" lon="-16.8498423881828784942626953125">
        <ele>725.20001220703125</ele>
        <time>2018-06-24T10:53:57.000Z</time>
      </trkpt>
      <trkpt lat="32.75170661509037017822265625" lon="-16.84986409731209278106689453125">
        <ele>726</ele>
        <time>2018-06-24T10:54:02.000Z</time>
      </trkpt>
      <trkpt lat="32.75169446133077144622802734375" lon="-16.84987214393913745880126953125">
        <ele>726</ele>
        <time>2018-06-24T10:54:03.000Z</time>
      </trkpt>
      <trkpt lat="32.75163159705698490142822265625" lon="-16.8499241955578327178955078125">
        <ele>727.4000244140625</ele>
        <time>2018-06-24T10:54:09.000Z</time>
      </trkpt>
      <trkpt lat="32.75160091929137706756591796875" lon="-16.84993199072778224945068359375">
        <ele>728.5999755859375</ele>
        <time>2018-06-24T10:54:13.000Z</time>
      </trkpt>
      <trkpt lat="32.751568146049976348876953125" lon="-16.84994154609739780426025390625">
        <ele>729.5999755859375</ele>
        <time>2018-06-24T10:54:17.000Z</time>
      </trkpt>
      <trkpt lat="32.75153956376016139984130859375" lon="-16.84994070790708065032958984375">
        <ele>730.5999755859375</ele>
        <time>2018-06-24T10:54:20.000Z</time>
      </trkpt>
      <trkpt lat="32.7515217103064060211181640625" lon="-16.84995344839990139007568359375">
        <ele>731.5999755859375</ele>
        <time>2018-06-24T10:54:23.000Z</time>
      </trkpt>
      <trkpt lat="32.7515186928212642669677734375" lon="-16.849961914122104644775390625">
        <ele>731.79998779296875</ele>
        <time>2018-06-24T10:54:24.000Z</time>
      </trkpt>
      <trkpt lat="32.75151609443128108978271484375" lon="-16.84996920637786388397216796875">
        <ele>732</ele>
        <time>2018-06-24T10:54:25.000Z</time>
      </trkpt>
      <trkpt lat="32.7515076287090778350830078125" lon="-16.84998027049005031585693359375">
        <ele>732.79998779296875</ele>
        <time>2018-06-24T10:54:27.000Z</time>
      </trkpt>
      <trkpt lat="32.75148558430373668670654296875" lon="-16.84999217279255390167236328125">
        <ele>734.20001220703125</ele>
        <time>2018-06-24T10:54:31.000Z</time>
      </trkpt>
      <trkpt lat="32.75147133506834506988525390625" lon="-16.8500217609107494354248046875">
        <ele>735</ele>
        <time>2018-06-24T10:54:34.000Z</time>
      </trkpt>
      <trkpt lat="32.751469910144805908203125" lon="-16.85003140009939670562744140625">
        <ele>735.20001220703125</ele>
        <time>2018-06-24T10:54:35.000Z</time>
      </trkpt>
      <trkpt lat="32.751424312591552734375" lon="-16.85002167709171772003173828125">
        <ele>736.4000244140625</ele>
        <time>2018-06-24T10:54:41.000Z</time>
      </trkpt>
      <trkpt lat="32.75138198398053646087646484375" lon="-16.850008852779865264892578125">
        <ele>737.20001220703125</ele>
        <time>2018-06-24T10:54:46.000Z</time>
      </trkpt>
      <trkpt lat="32.75135658681392669677734375" lon="-16.85001312755048274993896484375">
        <ele>738.5999755859375</ele>
        <time>2018-06-24T10:54:51.000Z</time>
      </trkpt>
      <trkpt lat="32.7513371407985687255859375" lon="-16.85002796351909637451171875">
        <ele>739.5999755859375</ele>
        <time>2018-06-24T10:54:55.000Z</time>
      </trkpt>
      <trkpt lat="32.7513158507645130157470703125" lon="-16.850030981004238128662109375">
        <ele>740.79998779296875</ele>
        <time>2018-06-24T10:54:59.000Z</time>
      </trkpt>
      <trkpt lat="32.75128684937953948974609375" lon="-16.850049756467342376708984375">
        <ele>741.5999755859375</ele>
        <time>2018-06-24T10:55:04.000Z</time>
      </trkpt>
      <trkpt lat="32.751260697841644287109375" lon="-16.8500700406730175018310546875">
        <ele>743</ele>
        <time>2018-06-24T10:55:09.000Z</time>
      </trkpt>
      <trkpt lat="32.75122138671576976776123046875" lon="-16.8500844575464725494384765625">
        <ele>744.4000244140625</ele>
        <time>2018-06-24T10:55:14.000Z</time>
      </trkpt>
      <trkpt lat="32.751195318996906280517578125" lon="-16.85009895823895931243896484375">
        <ele>745.4000244140625</ele>
        <time>2018-06-24T10:55:18.000Z</time>
      </trkpt>
      <trkpt lat="32.75116070173680782318115234375" lon="-16.85010440647602081298828125">
        <ele>746.4000244140625</ele>
        <time>2018-06-24T10:55:22.000Z</time>
      </trkpt>
      <trkpt lat="32.75113019160926342010498046875" lon="-16.85011672787368297576904296875">
        <ele>747.5999755859375</ele>
        <time>2018-06-24T10:55:26.000Z</time>
      </trkpt>
      <trkpt lat="32.7511116676032543182373046875" lon="-16.85013013891875743865966796875">
        <ele>748.20001220703125</ele>
        <time>2018-06-24T10:55:29.000Z</time>
      </trkpt>
      <trkpt lat="32.7511150203645229339599609375" lon="-16.85013248585164546966552734375">
        <ele>748.5999755859375</ele>
        <time>2018-06-24T10:55:30.000Z</time>
      </trkpt>
      <trkpt lat="32.751115523278713226318359375" lon="-16.850136257708072662353515625">
        <ele>748.79998779296875</ele>
        <time>2018-06-24T10:55:31.000Z</time>
      </trkpt>
      <trkpt lat="32.7511016093194484710693359375" lon="-16.8501667678356170654296875">
        <ele>749.5999755859375</ele>
        <time>2018-06-24T10:55:36.000Z</time>
      </trkpt>
      <trkpt lat="32.75109104812145233154296875" lon="-16.85017707757651805877685546875">
        <ele>750.20001220703125</ele>
        <time>2018-06-24T10:55:38.000Z</time>
      </trkpt>
      <trkpt lat="32.75107135064899921417236328125" lon="-16.85017523355782032012939453125">
        <ele>750.79998779296875</ele>
        <time>2018-06-24T10:55:40.000Z</time>
      </trkpt>
      <trkpt lat="32.75099608115851879119873046875" lon="-16.8502081744372844696044921875">
        <ele>751.79998779296875</ele>
        <time>2018-06-24T10:55:47.000Z</time>
      </trkpt>
      <trkpt lat="32.7509758807718753814697265625" lon="-16.85022183693945407867431640625">
        <ele>752.4000244140625</ele>
        <time>2018-06-24T10:55:50.000Z</time>
      </trkpt>
      <trkpt lat="32.7509638108313083648681640625" lon="-16.8502041511237621307373046875">
        <ele>752.79998779296875</ele>
        <time>2018-06-24T10:55:52.000Z</time>
      </trkpt>
      <trkpt lat="32.75095232762396335601806640625" lon="-16.85016467235982418060302734375">
        <ele>754.20001220703125</ele>
        <time>2018-06-24T10:55:56.000Z</time>
      </trkpt>
      <trkpt lat="32.75096096098423004150390625" lon="-16.850129552185535430908203125">
        <ele>755.20001220703125</ele>
        <time>2018-06-24T10:56:00.000Z</time>
      </trkpt>
      <trkpt lat="32.7510010264813899993896484375" lon="-16.85007481835782527923583984375">
        <ele>756.20001220703125</ele>
        <time>2018-06-24T10:56:06.000Z</time>
      </trkpt>
      <trkpt lat="32.7510100789368152618408203125" lon="-16.8500673584640026092529296875">
        <ele>756.4000244140625</ele>
        <time>2018-06-24T10:56:07.000Z</time>
      </trkpt>
      <trkpt lat="32.75108342058956623077392578125" lon="-16.85001094825565814971923828125">
        <ele>757.5999755859375</ele>
        <time>2018-06-24T10:56:13.000Z</time>
      </trkpt>
      <trkpt lat="32.75108191184699535369873046875" lon="-16.8500053323805332183837890625">
        <ele>757.79998779296875</ele>
        <time>2018-06-24T10:56:14.000Z</time>
      </trkpt>
      <trkpt lat="32.75106632150709629058837890625" lon="-16.84999602846801280975341796875">
        <ele>758.5999755859375</ele>
        <time>2018-06-24T10:56:17.000Z</time>
      </trkpt>
      <trkpt lat="32.75102910585701465606689453125" lon="-16.85001061297953128814697265625">
        <ele>759.5999755859375</ele>
        <time>2018-06-24T10:56:22.000Z</time>
      </trkpt>
      <trkpt lat="32.750986106693744659423828125" lon="-16.85004497878253459930419921875">
        <ele>760.79998779296875</ele>
        <time>2018-06-24T10:56:27.000Z</time>
      </trkpt>
      <trkpt lat="32.75097847916185855865478515625" lon="-16.850056461989879608154296875">
        <ele>760.79998779296875</ele>
        <time>2018-06-24T10:56:28.000Z</time>
      </trkpt>
      <trkpt lat="32.750943191349506378173828125" lon="-16.85010147280991077423095703125">
        <ele>762</ele>
        <time>2018-06-24T10:56:32.000Z</time>
      </trkpt>
      <trkpt lat="32.75088694877922534942626953125" lon="-16.8501399457454681396484375">
        <ele>763</ele>
        <time>2018-06-24T10:56:37.000Z</time>
      </trkpt>
      <trkpt lat="32.7508384175598621368408203125" lon="-16.85018864460289478302001953125">
        <ele>764</ele>
        <time>2018-06-24T10:56:43.000Z</time>
      </trkpt>
      <trkpt lat="32.75083162821829319000244140625" lon="-16.85019920580089092254638671875">
        <ele>764.20001220703125</ele>
        <time>2018-06-24T10:56:44.000Z</time>
      </trkpt>
      <trkpt lat="32.7508162893354892730712890625" lon="-16.850216053426265716552734375">
        <ele>765.20001220703125</ele>
        <time>2018-06-24T10:56:47.000Z</time>
      </trkpt>
      <trkpt lat="32.750810422003269195556640625" lon="-16.850217394530773162841796875">
        <ele>765.5999755859375</ele>
        <time>2018-06-24T10:56:48.000Z</time>
      </trkpt>
      <trkpt lat="32.7507841028273105621337890625" lon="-16.85024597682058811187744140625">
        <ele>766.5999755859375</ele>
        <time>2018-06-24T10:56:52.000Z</time>
      </trkpt>
      <trkpt lat="32.75074680335819721221923828125" lon="-16.8502698652446269989013671875">
        <ele>767.79998779296875</ele>
        <time>2018-06-24T10:56:57.000Z</time>
      </trkpt>
      <trkpt lat="32.75072517804801464080810546875" lon="-16.850304901599884033203125">
        <ele>768.20001220703125</ele>
        <time>2018-06-24T10:57:00.000Z</time>
      </trkpt>
      <trkpt lat="32.75070221163332462310791015625" lon="-16.85035762377083301544189453125">
        <ele>768.79998779296875</ele>
        <time>2018-06-24T10:57:04.000Z</time>
      </trkpt>
      <trkpt lat="32.75067455135285854339599609375" lon="-16.8503848649561405181884765625">
        <ele>769.79998779296875</ele>
        <time>2018-06-24T10:57:09.000Z</time>
      </trkpt>
      <trkpt lat="32.75063482113182544708251953125" lon="-16.8504160456359386444091796875">
        <ele>771.4000244140625</ele>
        <time>2018-06-24T10:57:14.000Z</time>
      </trkpt>
      <trkpt lat="32.75061093270778656005859375" lon="-16.85045317746698856353759765625">
        <ele>772.4000244140625</ele>
        <time>2018-06-24T10:57:18.000Z</time>
      </trkpt>
      <trkpt lat="32.75060447864234447479248046875" lon="-16.85046776197850704193115234375">
        <ele>772.4000244140625</ele>
        <time>2018-06-24T10:57:19.000Z</time>
      </trkpt>
      <trkpt lat="32.7505648322403430938720703125" lon="-16.8505592085421085357666015625">
        <ele>773.4000244140625</ele>
        <time>2018-06-24T10:57:24.000Z</time>
      </trkpt>
      <trkpt lat="32.7505178935825824737548828125" lon="-16.850621737539768218994140625">
        <ele>774.5999755859375</ele>
        <time>2018-06-24T10:57:28.000Z</time>
      </trkpt>
      <trkpt lat="32.7504538558423519134521484375" lon="-16.850680746138095855712890625">
        <ele>775.5999755859375</ele>
        <time>2018-06-24T10:57:34.000Z</time>
      </trkpt>
      <trkpt lat="32.750414125621318817138671875" lon="-16.85071418993175029754638671875">
        <ele>776.5999755859375</ele>
        <time>2018-06-24T10:57:39.000Z</time>
      </trkpt>
      <trkpt lat="32.75036911480128765106201171875" lon="-16.850742436945438385009765625">
        <ele>777.5999755859375</ele>
        <time>2018-06-24T10:57:44.000Z</time>
      </trkpt>
      <trkpt lat="32.75031295605003833770751953125" lon="-16.85076850466430187225341796875">
        <ele>778.79998779296875</ele>
        <time>2018-06-24T10:57:49.000Z</time>
      </trkpt>
      <trkpt lat="32.750126458704471588134765625" lon="-16.85080689378082752227783203125">
        <ele>779.79998779296875</ele>
        <time>2018-06-24T10:58:00.000Z</time>
      </trkpt>
      <trkpt lat="32.75010994635522365570068359375" lon="-16.850809156894683837890625">
        <ele>779.79998779296875</ele>
        <time>2018-06-24T10:58:01.000Z</time>
      </trkpt>
      <trkpt lat="32.7499251253902912139892578125" lon="-16.850835978984832763671875">
        <ele>780.5999755859375</ele>
        <time>2018-06-24T10:58:11.000Z</time>
      </trkpt>
      <trkpt lat="32.7498349361121654510498046875" lon="-16.8508505634963512420654296875">
        <ele>780.79998779296875</ele>
        <time>2018-06-24T10:58:16.000Z</time>
      </trkpt>
      <trkpt lat="32.74965380318462848663330078125" lon="-16.85089792124927043914794921875">
        <ele>780.79998779296875</ele>
        <time>2018-06-24T10:58:25.000Z</time>
      </trkpt>
      <trkpt lat="32.74949002079665660858154296875" lon="-16.8509856797754764556884765625">
        <ele>781.4000244140625</ele>
        <time>2018-06-24T10:58:33.000Z</time>
      </trkpt>
      <trkpt lat="32.74941391311585903167724609375" lon="-16.85104577802121639251708984375">
        <ele>781.79998779296875</ele>
        <time>2018-06-24T10:58:37.000Z</time>
      </trkpt>
      <trkpt lat="32.7492304332554340362548828125" lon="-16.85111367143690586090087890625">
        <ele>782.4000244140625</ele>
        <time>2018-06-24T10:58:46.000Z</time>
      </trkpt>
      <trkpt lat="32.74916790425777435302734375" lon="-16.8511308543384075164794921875">
        <ele>783.20001220703125</ele>
        <time>2018-06-24T10:58:50.000Z</time>
      </trkpt>
      <trkpt lat="32.74902851320803165435791015625" lon="-16.85122665949165821075439453125">
        <ele>784.20001220703125</ele>
        <time>2018-06-24T10:58:58.000Z</time>
      </trkpt>
      <trkpt lat="32.74887830950319766998291015625" lon="-16.85128097422420978546142578125">
        <ele>785.4000244140625</ele>
        <time>2018-06-24T10:59:07.000Z</time>
      </trkpt>
      <trkpt lat="32.7488421835005283355712890625" lon="-16.85128147713840007781982421875">
        <ele>785.79998779296875</ele>
        <time>2018-06-24T10:59:10.000Z</time>
      </trkpt>
      <trkpt lat="32.7488053031265735626220703125" lon="-16.85130930505692958831787109375">
        <ele>786.4000244140625</ele>
        <time>2018-06-24T10:59:13.000Z</time>
      </trkpt>
      <trkpt lat="32.74877353571355342864990234375" lon="-16.85131265781819820404052734375">
        <ele>787</ele>
        <time>2018-06-24T10:59:15.000Z</time>
      </trkpt>
      <trkpt lat="32.74872265756130218505859375" lon="-16.8513253144919872283935546875">
        <ele>787.79998779296875</ele>
        <time>2018-06-24T10:59:18.000Z</time>
      </trkpt>
      <trkpt lat="32.74857580661773681640625" lon="-16.85135900974273681640625">
        <ele>788.5999755859375</ele>
        <time>2018-06-24T10:59:26.000Z</time>
      </trkpt>
      <trkpt lat="32.74841395206749439239501953125" lon="-16.85146755538880825042724609375">
        <ele>788.5999755859375</ele>
        <time>2018-06-24T10:59:35.000Z</time>
      </trkpt>
      <trkpt lat="32.7483325637876987457275390625" lon="-16.85146956704556941986083984375">
        <ele>789.79998779296875</ele>
        <time>2018-06-24T10:59:40.000Z</time>
      </trkpt>
      <trkpt lat="32.7481598965823650360107421875" lon="-16.85148163698613643646240234375">
        <ele>791</ele>
        <time>2018-06-24T10:59:50.000Z</time>
      </trkpt>
      <trkpt lat="32.74807096458971500396728515625" lon="-16.8515211157500743865966796875">
        <ele>792.20001220703125</ele>
        <time>2018-06-24T10:59:57.000Z</time>
      </trkpt>
      <trkpt lat="32.7480219304561614990234375" lon="-16.85152807272970676422119140625">
        <ele>793</ele>
        <time>2018-06-24T11:00:01.000Z</time>
      </trkpt>
      <trkpt lat="32.74797289632260799407958984375" lon="-16.85155807994306087493896484375">
        <ele>794.20001220703125</ele>
        <time>2018-06-24T11:00:06.000Z</time>
      </trkpt>
      <trkpt lat="32.747954539954662322998046875" lon="-16.85156445018947124481201171875">
        <ele>794.4000244140625</ele>
        <time>2018-06-24T11:00:08.000Z</time>
      </trkpt>
      <trkpt lat="32.74794054217636585235595703125" lon="-16.85156646184623241424560546875">
        <ele>795.20001220703125</ele>
        <time>2018-06-24T11:00:10.000Z</time>
      </trkpt>
      <trkpt lat="32.74793316610157489776611328125" lon="-16.8515663780272006988525390625">
        <ele>795.20001220703125</ele>
        <time>2018-06-24T11:00:11.000Z</time>
      </trkpt>
      <trkpt lat="32.7478933520615100860595703125" lon="-16.85158356092870235443115234375">
        <ele>795.5999755859375</ele>
        <time>2018-06-24T11:00:15.000Z</time>
      </trkpt>
      <trkpt lat="32.7478631772100925445556640625" lon="-16.85159864835441112518310546875">
        <ele>796.4000244140625</ele>
        <time>2018-06-24T11:00:18.000Z</time>
      </trkpt>
      <trkpt lat="32.74783358909189701080322265625" lon="-16.85162832029163837432861328125">
        <ele>796.5999755859375</ele>
        <time>2018-06-24T11:00:21.000Z</time>
      </trkpt>
      <trkpt lat="32.7478065155446529388427734375" lon="-16.85170241631567478179931640625">
        <ele>795.20001220703125</ele>
        <time>2018-06-24T11:00:24.000Z</time>
      </trkpt>
      <trkpt lat="32.7476559765636920928955078125" lon="-16.85183568857610225677490234375">
        <ele>795.4000244140625</ele>
        <time>2018-06-24T11:00:33.000Z</time>
      </trkpt>
      <trkpt lat="32.7476222813129425048828125" lon="-16.8518579006195068359375">
        <ele>796.5999755859375</ele>
        <time>2018-06-24T11:00:37.000Z</time>
      </trkpt>
      <trkpt lat="32.74761113338172435760498046875" lon="-16.85186686925590038299560546875">
        <ele>797.20001220703125</ele>
        <time>2018-06-24T11:00:39.000Z</time>
      </trkpt>
      <trkpt lat="32.7476053498685359954833984375" lon="-16.85188296250998973846435546875">
        <ele>797.5999755859375</ele>
        <time>2018-06-24T11:00:41.000Z</time>
      </trkpt>
      <trkpt lat="32.74756620638072490692138671875" lon="-16.85189880430698394775390625">
        <ele>798.79998779296875</ele>
        <time>2018-06-24T11:00:46.000Z</time>
      </trkpt>
      <trkpt lat="32.7475389651954174041748046875" lon="-16.85193157754838466644287109375">
        <ele>800.20001220703125</ele>
        <time>2018-06-24T11:00:51.000Z</time>
      </trkpt>
      <trkpt lat="32.747530750930309295654296875" lon="-16.85195638798177242279052734375">
        <ele>801.4000244140625</ele>
        <time>2018-06-24T11:00:55.000Z</time>
      </trkpt>
      <trkpt lat="32.74751541204750537872314453125" lon="-16.85197935439646244049072265625">
        <ele>802.4000244140625</ele>
        <time>2018-06-24T11:00:59.000Z</time>
      </trkpt>
      <trkpt lat="32.7475057728588581085205078125" lon="-16.8520025722682476043701171875">
        <ele>803.4000244140625</ele>
        <time>2018-06-24T11:01:03.000Z</time>
      </trkpt>
      <trkpt lat="32.747475765645503997802734375" lon="-16.8520939350128173828125">
        <ele>804.4000244140625</ele>
        <time>2018-06-24T11:01:09.000Z</time>
      </trkpt>
      <trkpt lat="32.747436873614788055419921875" lon="-16.85215897858142852783203125">
        <ele>804.5999755859375</ele>
        <time>2018-06-24T11:01:13.000Z</time>
      </trkpt>
      <trkpt lat="32.74727560579776763916015625" lon="-16.8520247004926204681396484375">
        <ele>804.5999755859375</ele>
        <time>2018-06-24T11:01:23.000Z</time>
      </trkpt>
      <trkpt lat="32.74712406098842620849609375" lon="-16.8519227765500545501708984375">
        <ele>805.5999755859375</ele>
        <time>2018-06-24T11:01:32.000Z</time>
      </trkpt>
      <trkpt lat="32.7469753660261631011962890625" lon="-16.85179830528795719146728515625">
        <ele>805.5999755859375</ele>
        <time>2018-06-24T11:01:41.000Z</time>
      </trkpt>
      <trkpt lat="32.746797502040863037109375" lon="-16.8517895042896270751953125">
        <ele>806</ele>
        <time>2018-06-24T11:01:50.000Z</time>
      </trkpt>
      <trkpt lat="32.7467768825590610504150390625" lon="-16.85180283151566982269287109375">
        <ele>806.79998779296875</ele>
        <time>2018-06-24T11:01:52.000Z</time>
      </trkpt>
      <trkpt lat="32.74674721062183380126953125" lon="-16.85181154869496822357177734375">
        <ele>807.79998779296875</ele>
        <time>2018-06-24T11:01:55.000Z</time>
      </trkpt>
      <trkpt lat="32.74669968523085117340087890625" lon="-16.85182378627359867095947265625">
        <ele>808.4000244140625</ele>
        <time>2018-06-24T11:01:59.000Z</time>
      </trkpt>
      <trkpt lat="32.74668761529028415679931640625" lon="-16.8518235348165035247802734375">
        <ele>808.5999755859375</ele>
        <time>2018-06-24T11:02:00.000Z</time>
      </trkpt>
      <trkpt lat="32.7466514892876148223876953125" lon="-16.8518278934061527252197265625">
        <ele>809.20001220703125</ele>
        <time>2018-06-24T11:02:04.000Z</time>
      </trkpt>
      <trkpt lat="32.7466337196528911590576171875" lon="-16.85183770023286342620849609375">
        <ele>809.5999755859375</ele>
        <time>2018-06-24T11:02:06.000Z</time>
      </trkpt>
      <trkpt lat="32.74662382900714874267578125" lon="-16.85183820314705371856689453125">
        <ele>809.79998779296875</ele>
        <time>2018-06-24T11:02:07.000Z</time>
      </trkpt>
      <trkpt lat="32.7465458773076534271240234375" lon="-16.8518681265413761138916015625">
        <ele>811</ele>
        <time>2018-06-24T11:02:13.000Z</time>
      </trkpt>
      <trkpt lat="32.74649315513670444488525390625" lon="-16.851901821792125701904296875">
        <ele>812.20001220703125</ele>
        <time>2018-06-24T11:02:18.000Z</time>
      </trkpt>
      <trkpt lat="32.74645241908729076385498046875" lon="-16.85194733552634716033935546875">
        <ele>813.4000244140625</ele>
        <time>2018-06-24T11:02:23.000Z</time>
      </trkpt>
      <trkpt lat="32.7464117668569087982177734375" lon="-16.85199812985956668853759765625">
        <ele>814.4000244140625</ele>
        <time>2018-06-24T11:02:28.000Z</time>
      </trkpt>
      <trkpt lat="32.74636977352201938629150390625" lon="-16.85203199274837970733642578125">
        <ele>815.4000244140625</ele>
        <time>2018-06-24T11:02:32.000Z</time>
      </trkpt>
      <trkpt lat="32.746336162090301513671875" lon="-16.85205998830497264862060546875">
        <ele>816.5999755859375</ele>
        <time>2018-06-24T11:02:36.000Z</time>
      </trkpt>
      <trkpt lat="32.74633121676743030548095703125" lon="-16.85206937603652477264404296875">
        <ele>816.79998779296875</ele>
        <time>2018-06-24T11:02:37.000Z</time>
      </trkpt>
      <trkpt lat="32.74628662504255771636962890625" lon="-16.8521122075617313385009765625">
        <ele>817.79998779296875</ele>
        <time>2018-06-24T11:02:42.000Z</time>
      </trkpt>
      <trkpt lat="32.746249325573444366455078125" lon="-16.85214146040380001068115234375">
        <ele>818.5999755859375</ele>
        <time>2018-06-24T11:02:46.000Z</time>
      </trkpt>
      <trkpt lat="32.74623683653771877288818359375" lon="-16.85216191224753856658935546875">
        <ele>819</ele>
        <time>2018-06-24T11:02:48.000Z</time>
      </trkpt>
      <trkpt lat="32.7462152950465679168701171875" lon="-16.85219728387892246246337890625">
        <ele>819.4000244140625</ele>
        <time>2018-06-24T11:02:52.000Z</time>
      </trkpt>
      <trkpt lat="32.74620045907795429229736328125" lon="-16.85221857391297817230224609375">
        <ele>820</ele>
        <time>2018-06-24T11:02:54.000Z</time>
      </trkpt>
      <trkpt lat="32.74615444242954254150390625" lon="-16.8522959388792514801025390625">
        <ele>821.20001220703125</ele>
        <time>2018-06-24T11:03:01.000Z</time>
      </trkpt>
      <trkpt lat="32.74614631198346614837646484375" lon="-16.8523160554468631744384765625">
        <ele>821.4000244140625</ele>
        <time>2018-06-24T11:03:02.000Z</time>
      </trkpt>
      <trkpt lat="32.74612233974039554595947265625" lon="-16.852347068488597869873046875">
        <ele>822.20001220703125</ele>
        <time>2018-06-24T11:03:05.000Z</time>
      </trkpt>
      <trkpt lat="32.74609283544123172760009765625" lon="-16.8523817695677280426025390625">
        <ele>823.20001220703125</ele>
        <time>2018-06-24T11:03:09.000Z</time>
      </trkpt>
      <trkpt lat="32.74604153819382190704345703125" lon="-16.85243214480578899383544921875">
        <ele>824.20001220703125</ele>
        <time>2018-06-24T11:03:14.000Z</time>
      </trkpt>
      <trkpt lat="32.7460027299821376800537109375" lon="-16.85245444066822528839111328125">
        <ele>824.79998779296875</ele>
        <time>2018-06-24T11:03:17.000Z</time>
      </trkpt>
      <trkpt lat="32.74598001502454280853271484375" lon="-16.85243985615670680999755859375">
        <ele>825.4000244140625</ele>
        <time>2018-06-24T11:03:19.000Z</time>
      </trkpt>
      <trkpt lat="32.7458099462091922760009765625" lon="-16.85236123390495777130126953125">
        <ele>825</ele>
        <time>2018-06-24T11:03:29.000Z</time>
      </trkpt>
      <trkpt lat="32.7456637658178806304931640625" lon="-16.852379925549030303955078125">
        <ele>824.4000244140625</ele>
        <time>2018-06-24T11:03:36.000Z</time>
      </trkpt>
      <trkpt lat="32.74550979025661945343017578125" lon="-16.852495260536670684814453125">
        <ele>824.79998779296875</ele>
        <time>2018-06-24T11:03:44.000Z</time>
      </trkpt>
      <trkpt lat="32.7453771047294139862060546875" lon="-16.85256005264818668365478515625">
        <ele>825.4000244140625</ele>
        <time>2018-06-24T11:03:51.000Z</time>
      </trkpt>
      <trkpt lat="32.74525766260921955108642578125" lon="-16.85264688916504383087158203125">
        <ele>826.5999755859375</ele>
        <time>2018-06-24T11:03:58.000Z</time>
      </trkpt>
      <trkpt lat="32.74512656964361667633056640625" lon="-16.85282324440777301788330078125">
        <ele>827.4000244140625</ele>
        <time>2018-06-24T11:04:07.000Z</time>
      </trkpt>
      <trkpt lat="32.74511366151273250579833984375" lon="-16.85286414809525012969970703125">
        <ele>827.79998779296875</ele>
        <time>2018-06-24T11:04:10.000Z</time>
      </trkpt>
      <trkpt lat="32.74504744447767734527587890625" lon="-16.8529822491109371185302734375">
        <ele>828.79998779296875</ele>
        <time>2018-06-24T11:04:17.000Z</time>
      </trkpt>
      <trkpt lat="32.7450446784496307373046875" lon="-16.85300513170659542083740234375">
        <ele>829.4000244140625</ele>
        <time>2018-06-24T11:04:19.000Z</time>
      </trkpt>
      <trkpt lat="32.7450542338192462921142578125" lon="-16.8530254997313022613525390625">
        <ele>829.79998779296875</ele>
        <time>2018-06-24T11:04:21.000Z</time>
      </trkpt>
      <trkpt lat="32.74496597237884998321533203125" lon="-16.853232868015766143798828125">
        <ele>828.20001220703125</ele>
        <time>2018-06-24T11:04:31.000Z</time>
      </trkpt>
      <trkpt lat="32.74493982084095478057861328125" lon="-16.853289864957332611083984375">
        <ele>827.20001220703125</ele>
        <time>2018-06-24T11:04:33.000Z</time>
      </trkpt>
      <trkpt lat="32.744781486690044403076171875" lon="-16.8534221313893795013427734375">
        <ele>827.5999755859375</ele>
        <time>2018-06-24T11:04:42.000Z</time>
      </trkpt>
      <trkpt lat="32.7446455322206020355224609375" lon="-16.8535763584077358245849609375">
        <ele>826.5999755859375</ele>
        <time>2018-06-24T11:04:52.000Z</time>
      </trkpt>
      <trkpt lat="32.74450547061860561370849609375" lon="-16.85371155850589275360107421875">
        <ele>828.20001220703125</ele>
        <time>2018-06-24T11:05:03.000Z</time>
      </trkpt>
      <trkpt lat="32.74446188472211360931396484375" lon="-16.8537480197846889495849609375">
        <ele>829.4000244140625</ele>
        <time>2018-06-24T11:05:07.000Z</time>
      </trkpt>
      <trkpt lat="32.7444162033498287200927734375" lon="-16.8537798710167407989501953125">
        <ele>830.5999755859375</ele>
        <time>2018-06-24T11:05:12.000Z</time>
      </trkpt>
      <trkpt lat="32.74435141123831272125244140625" lon="-16.85382169671356678009033203125">
        <ele>831.4000244140625</ele>
        <time>2018-06-24T11:05:19.000Z</time>
      </trkpt>
      <trkpt lat="32.74430313147604465484619140625" lon="-16.8538321740925312042236328125">
        <ele>832.79998779296875</ele>
        <time>2018-06-24T11:05:24.000Z</time>
      </trkpt>
      <trkpt lat="32.7442602999508380889892578125" lon="-16.8538472615182399749755859375">
        <ele>834</ele>
        <time>2018-06-24T11:05:30.000Z</time>
      </trkpt>
      <trkpt lat="32.74420590139925479888916015625" lon="-16.85385958291590213775634765625">
        <ele>835</ele>
        <time>2018-06-24T11:05:35.000Z</time>
      </trkpt>
      <trkpt lat="32.744142450392246246337890625" lon="-16.85386444441974163055419921875">
        <ele>835.5999755859375</ele>
        <time>2018-06-24T11:05:39.000Z</time>
      </trkpt>
      <trkpt lat="32.74406676180660724639892578125" lon="-16.8539237044751644134521484375">
        <ele>836.4000244140625</ele>
        <time>2018-06-24T11:05:44.000Z</time>
      </trkpt>
      <trkpt lat="32.744050584733486175537109375" lon="-16.8539220280945301055908203125">
        <ele>836.5999755859375</ele>
        <time>2018-06-24T11:05:45.000Z</time>
      </trkpt>
      <trkpt lat="32.7440173923969268798828125" lon="-16.8539164960384368896484375">
        <ele>837.20001220703125</ele>
        <time>2018-06-24T11:05:48.000Z</time>
      </trkpt>
      <trkpt lat="32.74391555227339267730712890625" lon="-16.8538489378988742828369140625">
        <ele>838.4000244140625</ele>
        <time>2018-06-24T11:05:56.000Z</time>
      </trkpt>
      <trkpt lat="32.74382888339459896087646484375" lon="-16.85385321266949176788330078125">
        <ele>839.5999755859375</ele>
        <time>2018-06-24T11:06:02.000Z</time>
      </trkpt>
      <trkpt lat="32.7438137121498584747314453125" lon="-16.85385908000171184539794921875">
        <ele>839.4000244140625</ele>
        <time>2018-06-24T11:06:03.000Z</time>
      </trkpt>
      <trkpt lat="32.74378580041229724884033203125" lon="-16.85385690070688724517822265625">
        <ele>839.5999755859375</ele>
        <time>2018-06-24T11:06:04.000Z</time>
      </trkpt>
      <trkpt lat="32.7436926774680614471435546875" lon="-16.85389378108084201812744140625">
        <ele>840.4000244140625</ele>
        <time>2018-06-24T11:06:08.000Z</time>
      </trkpt>
      <trkpt lat="32.74349461309611797332763671875" lon="-16.853975839912891387939453125">
        <ele>840.4000244140625</ele>
        <time>2018-06-24T11:06:17.000Z</time>
      </trkpt>
      <trkpt lat="32.74332295171916484832763671875" lon="-16.8540812842547893524169921875">
        <ele>840.4000244140625</ele>
        <time>2018-06-24T11:06:24.000Z</time>
      </trkpt>
      <trkpt lat="32.74325371719896793365478515625" lon="-16.85411539860069751739501953125">
        <ele>841.5999755859375</ele>
        <time>2018-06-24T11:06:29.000Z</time>
      </trkpt>
      <trkpt lat="32.74307803250849246978759765625" lon="-16.854213885962963104248046875">
        <ele>842.20001220703125</ele>
        <time>2018-06-24T11:06:39.000Z</time>
      </trkpt>
      <trkpt lat="32.7428947202861309051513671875" lon="-16.8542586453258991241455078125">
        <ele>841.5999755859375</ele>
        <time>2018-06-24T11:06:47.000Z</time>
      </trkpt>
      <trkpt lat="32.7426992543041706085205078125" lon="-16.8542891554534435272216796875">
        <ele>841.4000244140625</ele>
        <time>2018-06-24T11:06:59.000Z</time>
      </trkpt>
      <trkpt lat="32.7425135113298892974853515625" lon="-16.85429778881371021270751953125">
        <ele>842.4000244140625</ele>
        <time>2018-06-24T11:07:11.000Z</time>
      </trkpt>
      <trkpt lat="32.74248627014458179473876953125" lon="-16.8543116189539432525634765625">
        <ele>842.5999755859375</ele>
        <time>2018-06-24T11:07:12.000Z</time>
      </trkpt>
      <trkpt lat="32.74235433898866176605224609375" lon="-16.854349337518215179443359375">
        <ele>844</ele>
        <time>2018-06-24T11:07:18.000Z</time>
      </trkpt>
      <trkpt lat="32.74216323159635066986083984375" lon="-16.85435579158365726470947265625">
        <ele>844.79998779296875</ele>
        <time>2018-06-24T11:07:27.000Z</time>
      </trkpt>
      <trkpt lat="32.74208125658333301544189453125" lon="-16.85436333529651165008544921875">
        <ele>845.20001220703125</ele>
        <time>2018-06-24T11:07:31.000Z</time>
      </trkpt>
      <trkpt lat="32.74205812253057956695556640625" lon="-16.8543484993278980255126953125">
        <ele>844.5999755859375</ele>
        <time>2018-06-24T11:07:33.000Z</time>
      </trkpt>
      <trkpt lat="32.74206013418734073638916015625" lon="-16.8543143011629581451416015625">
        <ele>843.5999755859375</ele>
        <time>2018-06-24T11:07:36.000Z</time>
      </trkpt>
      <trkpt lat="32.74206851609051227569580078125" lon="-16.85427599586546421051025390625">
        <ele>841.79998779296875</ele>
        <time>2018-06-24T11:07:39.000Z</time>
      </trkpt>
      <trkpt lat="32.74207974784076213836669921875" lon="-16.8542388640344142913818359375">
        <ele>840</ele>
        <time>2018-06-24T11:07:42.000Z</time>
      </trkpt>
      <trkpt lat="32.74208997376263141632080078125" lon="-16.85420558787882328033447265625">
        <ele>838.5999755859375</ele>
        <time>2018-06-24T11:07:44.000Z</time>
      </trkpt>
      <trkpt lat="32.7420969307422637939453125" lon="-16.8541620858013629913330078125">
        <ele>837.20001220703125</ele>
        <time>2018-06-24T11:07:46.000Z</time>
      </trkpt>
      <trkpt lat="32.74210321716964244842529296875" lon="-16.85412629507482051849365234375">
        <ele>835.79998779296875</ele>
        <time>2018-06-24T11:07:48.000Z</time>
      </trkpt>
      <trkpt lat="32.74211361072957515716552734375" lon="-16.85409955680370330810546875">
        <ele>834.5999755859375</ele>
        <time>2018-06-24T11:07:50.000Z</time>
      </trkpt>
      <trkpt lat="32.74212065152823925018310546875" lon="-16.8540661968290805816650390625">
        <ele>833.4000244140625</ele>
        <time>2018-06-24T11:07:52.000Z</time>
      </trkpt>
      <trkpt lat="32.74212735705077648162841796875" lon="-16.85402554459869861602783203125">
        <ele>832.4000244140625</ele>
        <time>2018-06-24T11:07:54.000Z</time>
      </trkpt>
      <trkpt lat="32.742130123078823089599609375" lon="-16.8539994768798351287841796875">
        <ele>831.4000244140625</ele>
        <time>2018-06-24T11:07:56.000Z</time>
      </trkpt>
      <trkpt lat="32.74211629293859004974365234375" lon="-16.85399285517632961273193359375">
        <ele>830</ele>
        <time>2018-06-24T11:07:58.000Z</time>
      </trkpt>
      <trkpt lat="32.7420888841152191162109375" lon="-16.85400660149753093719482421875">
        <ele>828.5999755859375</ele>
        <time>2018-06-24T11:08:00.000Z</time>
      </trkpt>
      <trkpt lat="32.74206097237765789031982421875" lon="-16.85400903224945068359375">
        <ele>827.20001220703125</ele>
        <time>2018-06-24T11:08:02.000Z</time>
      </trkpt>
      <trkpt lat="32.742031551897525787353515625" lon="-16.85400526039302349090576171875">
        <ele>826</ele>
        <time>2018-06-24T11:08:04.000Z</time>
      </trkpt>
      <trkpt lat="32.7419998683035373687744140625" lon="-16.85401481576263904571533203125">
        <ele>824.79998779296875</ele>
        <time>2018-06-24T11:08:06.000Z</time>
      </trkpt>
      <trkpt lat="32.74191345088183879852294921875" lon="-16.8540487624704837799072265625">
        <ele>823.4000244140625</ele>
        <time>2018-06-24T11:08:11.000Z</time>
      </trkpt>
      <trkpt lat="32.74187237955629825592041015625" lon="-16.8541077710688114166259765625">
        <ele>824.20001220703125</ele>
        <time>2018-06-24T11:08:18.000Z</time>
      </trkpt>
      <trkpt lat="32.741867601871490478515625" lon="-16.854114644229412078857421875">
        <ele>824.5999755859375</ele>
        <time>2018-06-24T11:08:20.000Z</time>
      </trkpt>
      <trkpt lat="32.7419628202915191650390625" lon="-16.8544038198888301849365234375">
        <ele>825.4000244140625</ele>
        <time>2018-06-24T11:08:32.000Z</time>
      </trkpt>
      <trkpt lat="32.74196877144277095794677734375" lon="-16.85463256202638149261474609375">
        <ele>825.20001220703125</ele>
        <time>2018-06-24T11:08:39.000Z</time>
      </trkpt>
      <trkpt lat="32.74205460213124752044677734375" lon="-16.8546502478420734405517578125">
        <ele>824.79998779296875</ele>
        <time>2018-06-24T11:08:43.000Z</time>
      </trkpt>
      <trkpt lat="32.74190791882574558258056640625" lon="-16.85479885898530483245849609375">
        <ele>824.79998779296875</ele>
        <time>2018-06-24T11:08:51.000Z</time>
      </trkpt>
      <trkpt lat="32.74177582003176212310791015625" lon="-16.8549491465091705322265625">
        <ele>824.5999755859375</ele>
        <time>2018-06-24T11:08:59.000Z</time>
      </trkpt>
      <trkpt lat="32.74166568182408809661865234375" lon="-16.855139918625354766845703125">
        <ele>824.79998779296875</ele>
        <time>2018-06-24T11:09:08.000Z</time>
      </trkpt>
      <trkpt lat="32.741658389568328857421875" lon="-16.8551866896450519561767578125">
        <ele>825</ele>
        <time>2018-06-24T11:09:10.000Z</time>
      </trkpt>
      <trkpt lat="32.741615138947963714599609375" lon="-16.8553539924323558807373046875">
        <ele>824.79998779296875</ele>
        <time>2018-06-24T11:09:16.000Z</time>
      </trkpt>
      <trkpt lat="32.7416498400270938873291015625" lon="-16.8555347062647342681884765625">
        <ele>824.79998779296875</ele>
        <time>2018-06-24T11:09:22.000Z</time>
      </trkpt>
      <trkpt lat="32.741619832813739776611328125" lon="-16.855746768414974212646484375">
        <ele>824.4000244140625</ele>
        <time>2018-06-24T11:09:30.000Z</time>
      </trkpt>
      <trkpt lat="32.7414987981319427490234375" lon="-16.85591876506805419921875">
        <ele>824.4000244140625</ele>
        <time>2018-06-24T11:09:38.000Z</time>
      </trkpt>
      <trkpt lat="32.7413417212665081024169921875" lon="-16.8560624308884143829345703125">
        <ele>824.5999755859375</ele>
        <time>2018-06-24T11:09:48.000Z</time>
      </trkpt>
      <trkpt lat="32.741186320781707763671875" lon="-16.85609268955886363983154296875">
        <ele>825</ele>
        <time>2018-06-24T11:09:58.000Z</time>
      </trkpt>
      <trkpt lat="32.74105095304548740386962890625" lon="-16.85625194571912288665771484375">
        <ele>825</ele>
        <time>2018-06-24T11:10:09.000Z</time>
      </trkpt>
      <trkpt lat="32.7409464307129383087158203125" lon="-16.856441460549831390380859375">
        <ele>825</ele>
        <time>2018-06-24T11:10:16.000Z</time>
      </trkpt>
      <trkpt lat="32.74085414595901966094970703125" lon="-16.856661736965179443359375">
        <ele>825.4000244140625</ele>
        <time>2018-06-24T11:10:25.000Z</time>
      </trkpt>
      <trkpt lat="32.740792371332645416259765625" lon="-16.856865920126438140869140625">
        <ele>825</ele>
        <time>2018-06-24T11:10:32.000Z</time>
      </trkpt>
      <trkpt lat="32.74066454730927944183349609375" lon="-16.85703498311340808868408203125">
        <ele>825</ele>
        <time>2018-06-24T11:10:40.000Z</time>
      </trkpt>
      <trkpt lat="32.740642167627811431884765625" lon="-16.85724771581590175628662109375">
        <ele>824.79998779296875</ele>
        <time>2018-06-24T11:10:48.000Z</time>
      </trkpt>
      <trkpt lat="32.7406270802021026611328125" lon="-16.8574409186840057373046875">
        <ele>824.5999755859375</ele>
        <time>2018-06-24T11:10:56.000Z</time>
      </trkpt>
      <trkpt lat="32.74058307521045207977294921875" lon="-16.8576409108936786651611328125">
        <ele>825.20001220703125</ele>
        <time>2018-06-24T11:11:04.000Z</time>
      </trkpt>
      <trkpt lat="32.74055893532931804656982421875" lon="-16.85776571743190288543701171875">
        <ele>825</ele>
        <time>2018-06-24T11:11:09.000Z</time>
      </trkpt>
      <trkpt lat="32.740409485995769500732421875" lon="-16.85763043351471424102783203125">
        <ele>825.4000244140625</ele>
        <time>2018-06-24T11:11:20.000Z</time>
      </trkpt>
      <trkpt lat="32.7402866072952747344970703125" lon="-16.85747737996280193328857421875">
        <ele>825</ele>
        <time>2018-06-24T11:11:31.000Z</time>
      </trkpt>
      <trkpt lat="32.7401659078896045684814453125" lon="-16.85730270110070705413818359375">
        <ele>825.20001220703125</ele>
        <time>2018-06-24T11:11:43.000Z</time>
      </trkpt>
      <trkpt lat="32.74002886377274990081787109375" lon="-16.857151575386524200439453125">
        <ele>824.79998779296875</ele>
        <time>2018-06-24T11:11:51.000Z</time>
      </trkpt>
      <trkpt lat="32.73993448354303836822509765625" lon="-16.8569489009678363800048828125">
        <ele>825.4000244140625</ele>
        <time>2018-06-24T11:12:01.000Z</time>
      </trkpt>
      <trkpt lat="32.7399292029440402984619140625" lon="-16.8568295426666736602783203125">
        <ele>825.79998779296875</ele>
        <time>2018-06-24T11:12:05.000Z</time>
      </trkpt>
      <trkpt lat="32.7399070747196674346923828125" lon="-16.856764666736125946044921875">
        <ele>825.5999755859375</ele>
        <time>2018-06-24T11:12:08.000Z</time>
      </trkpt>
      <trkpt lat="32.73973315022885799407958984375" lon="-16.85667791403830051422119140625">
        <ele>825.5999755859375</ele>
        <time>2018-06-24T11:12:17.000Z</time>
      </trkpt>
      <trkpt lat="32.73954036645591259002685546875" lon="-16.85674295760691165924072265625">
        <ele>825.5999755859375</ele>
        <time>2018-06-24T11:12:28.000Z</time>
      </trkpt>
      <trkpt lat="32.73938178084790706634521484375" lon="-16.8569136969745159149169921875">
        <ele>825.4000244140625</ele>
        <time>2018-06-24T11:12:37.000Z</time>
      </trkpt>
      <trkpt lat="32.73919737897813320159912109375" lon="-16.85691478662192821502685546875">
        <ele>825.5999755859375</ele>
        <time>2018-06-24T11:12:46.000Z</time>
      </trkpt>
      <trkpt lat="32.7390299923717975616455078125" lon="-16.8568067438900470733642578125">
        <ele>825.5999755859375</ele>
        <time>2018-06-24T11:12:55.000Z</time>
      </trkpt>
      <trkpt lat="32.73891256190836429595947265625" lon="-16.85664765536785125732421875">
        <ele>825.4000244140625</ele>
        <time>2018-06-24T11:13:03.000Z</time>
      </trkpt>
      <trkpt lat="32.73879001848399639129638671875" lon="-16.856467612087726593017578125">
        <ele>825.4000244140625</ele>
        <time>2018-06-24T11:13:12.000Z</time>
      </trkpt>
      <trkpt lat="32.7386315166950225830078125" lon="-16.8564171530306339263916015625">
        <ele>826</ele>
        <time>2018-06-24T11:13:21.000Z</time>
      </trkpt>
      <trkpt lat="32.7385793812572956085205078125" lon="-16.85654313303530216217041015625">
        <ele>826</ele>
        <time>2018-06-24T11:13:25.000Z</time>
      </trkpt>
      <trkpt lat="32.7384410798549652099609375" lon="-16.85671865008771419525146484375">
        <ele>826</ele>
        <time>2018-06-24T11:13:32.000Z</time>
      </trkpt>
      <trkpt lat="32.738358937203884124755859375" lon="-16.85692685656249523162841796875">
        <ele>825.20001220703125</ele>
        <time>2018-06-24T11:13:42.000Z</time>
      </trkpt>
      <trkpt lat="32.73823446594178676605224609375" lon="-16.85712299309670925140380859375">
        <ele>826</ele>
        <time>2018-06-24T11:13:51.000Z</time>
      </trkpt>
      <trkpt lat="32.7381455339491367340087890625" lon="-16.8572905473411083221435546875">
        <ele>825.79998779296875</ele>
        <time>2018-06-24T11:14:03.000Z</time>
      </trkpt>
      <trkpt lat="32.73806414566934108734130859375" lon="-16.85712701641023159027099609375">
        <ele>825.79998779296875</ele>
        <time>2018-06-24T11:14:12.000Z</time>
      </trkpt>
      <trkpt lat="32.7378820069134235382080078125" lon="-16.85706063173711299896240234375">
        <ele>825.79998779296875</ele>
        <time>2018-06-24T11:14:20.000Z</time>
      </trkpt>
      <trkpt lat="32.7377881295979022979736328125" lon="-16.8570471368730068206787109375">
        <ele>826</ele>
        <time>2018-06-24T11:14:26.000Z</time>
      </trkpt>
      <trkpt lat="32.737626694142818450927734375" lon="-16.85721318237483501434326171875">
        <ele>826</ele>
        <time>2018-06-24T11:14:32.000Z</time>
      </trkpt>
      <trkpt lat="32.7374535240232944488525390625" lon="-16.857282333076000213623046875">
        <ele>826.20001220703125</ele>
        <time>2018-06-24T11:14:39.000Z</time>
      </trkpt>
      <trkpt lat="32.73726769722998142242431640625" lon="-16.85734611935913562774658203125">
        <ele>826.20001220703125</ele>
        <time>2018-06-24T11:14:49.000Z</time>
      </trkpt>
      <trkpt lat="32.7370865643024444580078125" lon="-16.85725157149136066436767578125">
        <ele>826.20001220703125</ele>
        <time>2018-06-24T11:14:58.000Z</time>
      </trkpt>
      <trkpt lat="32.7370089478790760040283203125" lon="-16.857118718326091766357421875">
        <ele>826.5999755859375</ele>
        <time>2018-06-24T11:15:05.000Z</time>
      </trkpt>
      <trkpt lat="32.73682882077991962432861328125" lon="-16.857185102999210357666015625">
        <ele>826.4000244140625</ele>
        <time>2018-06-24T11:15:12.000Z</time>
      </trkpt>
      <trkpt lat="32.7366669662296772003173828125" lon="-16.85734494589269161224365234375">
        <ele>826</ele>
        <time>2018-06-24T11:15:20.000Z</time>
      </trkpt>
      <trkpt lat="32.7364862523972988128662109375" lon="-16.85732214711606502532958984375">
        <ele>826.20001220703125</ele>
        <time>2018-06-24T11:15:30.000Z</time>
      </trkpt>
      <trkpt lat="32.73633965291082859039306640625" lon="-16.857186444103717803955078125">
        <ele>826.4000244140625</ele>
        <time>2018-06-24T11:15:37.000Z</time>
      </trkpt>
      <trkpt lat="32.73629690520465373992919921875" lon="-16.8571618013083934783935546875">
        <ele>826.5999755859375</ele>
        <time>2018-06-24T11:15:39.000Z</time>
      </trkpt>
      <trkpt lat="32.7360802330076694488525390625" lon="-16.85716205276548862457275390625">
        <ele>826.20001220703125</ele>
        <time>2018-06-24T11:15:45.000Z</time>
      </trkpt>
      <trkpt lat="32.735901363193988800048828125" lon="-16.85721586458384990692138671875">
        <ele>826.4000244140625</ele>
        <time>2018-06-24T11:15:49.000Z</time>
      </trkpt>
      <trkpt lat="32.7358017861843109130859375" lon="-16.8572370707988739013671875">
        <ele>826.20001220703125</ele>
        <time>2018-06-24T11:15:53.000Z</time>
      </trkpt>
      <trkpt lat="32.73578368127346038818359375" lon="-16.85711570084095001220703125">
        <ele>825.79998779296875</ele>
        <time>2018-06-24T11:16:02.000Z</time>
      </trkpt>
      <trkpt lat="32.7357831783592700958251953125" lon="-16.85710388235747814178466796875">
        <ele>826</ele>
        <time>2018-06-24T11:16:04.000Z</time>
      </trkpt>
      <trkpt lat="32.73576448671519756317138671875" lon="-16.85713112354278564453125">
        <ele>826</ele>
        <time>2018-06-24T11:16:07.000Z</time>
      </trkpt>
      <trkpt lat="32.735674045979976654052734375" lon="-16.85715316794812679290771484375">
        <ele>826.20001220703125</ele>
        <time>2018-06-24T11:16:12.000Z</time>
      </trkpt>
      <trkpt lat="32.73562082089483737945556640625" lon="-16.8571752123534679412841796875">
        <ele>826.4000244140625</ele>
        <time>2018-06-24T11:16:14.000Z</time>
      </trkpt>
      <trkpt lat="32.7354985289275646209716796875" lon="-16.857170350849628448486328125">
        <ele>826.4000244140625</ele>
        <time>2018-06-24T11:16:20.000Z</time>
      </trkpt>
      <trkpt lat="32.73548059165477752685546875" lon="-16.8572084046900272369384765625">
        <ele>825.20001220703125</ele>
        <time>2018-06-24T11:16:23.000Z</time>
      </trkpt>
      <trkpt lat="32.73546961136162281036376953125" lon="-16.85721804387867450714111328125">
        <ele>824</ele>
        <time>2018-06-24T11:16:26.000Z</time>
      </trkpt>
      <trkpt lat="32.73549810983240604400634765625" lon="-16.85720463283360004425048828125">
        <ele>825</ele>
        <time>2018-06-24T11:16:33.000Z</time>
      </trkpt>
      <trkpt lat="32.73550808429718017578125" lon="-16.85720295645296573638916015625">
        <ele>825.20001220703125</ele>
        <time>2018-06-24T11:16:34.000Z</time>
      </trkpt>
      <trkpt lat="32.73557388223707675933837890625" lon="-16.85723765753209590911865234375">
        <ele>826.20001220703125</ele>
        <time>2018-06-24T11:16:38.000Z</time>
      </trkpt>
      <trkpt lat="32.73560958914458751678466796875" lon="-16.8572526611387729644775390625">
        <ele>826.79998779296875</ele>
        <time>2018-06-24T11:16:40.000Z</time>
      </trkpt>
      <trkpt lat="32.73562383837997913360595703125" lon="-16.857265569269657135009765625">
        <ele>827.20001220703125</ele>
        <time>2018-06-24T11:16:42.000Z</time>
      </trkpt>
      <trkpt lat="32.735629789531230926513671875" lon="-16.857280321419239044189453125">
        <ele>827.20001220703125</ele>
        <time>2018-06-24T11:16:44.000Z</time>
      </trkpt>
      <trkpt lat="32.73565225303173065185546875" lon="-16.8572868593037128448486328125">
        <ele>824.79998779296875</ele>
        <time>2018-06-24T11:16:49.000Z</time>
      </trkpt>
      <trkpt lat="32.73569558747112751007080078125" lon="-16.85731552541255950927734375">
        <ele>823.5999755859375</ele>
        <time>2018-06-24T11:16:52.000Z</time>
      </trkpt>
      <trkpt lat="32.73571520112454891204833984375" lon="-16.85733790509402751922607421875">
        <ele>823.79998779296875</ele>
        <time>2018-06-24T11:16:53.000Z</time>
      </trkpt>
      <trkpt lat="32.73575023747980594635009765625" lon="-16.85740848071873188018798828125">
        <ele>824.5999755859375</ele>
        <time>2018-06-24T11:16:58.000Z</time>
      </trkpt>
      <trkpt lat="32.735748477280139923095703125" lon="-16.85742105357348918914794921875">
        <ele>824.79998779296875</ele>
        <time>2018-06-24T11:16:59.000Z</time>
      </trkpt>
      <trkpt lat="32.73575258441269397735595703125" lon="-16.857470087707042694091796875">
        <ele>825.79998779296875</ele>
        <time>2018-06-24T11:17:03.000Z</time>
      </trkpt>
      <trkpt lat="32.73576867766678333282470703125" lon="-16.85750839300453662872314453125">
        <ele>826.4000244140625</ele>
        <time>2018-06-24T11:17:05.000Z</time>
      </trkpt>
      <trkpt lat="32.73577605374157428741455078125" lon="-16.857558600604534149169921875">
        <ele>827</ele>
        <time>2018-06-24T11:17:07.000Z</time>
      </trkpt>
      <trkpt lat="32.7358512394130229949951171875" lon="-16.8577766977250576019287109375">
        <ele>826.79998779296875</ele>
        <time>2018-06-24T11:17:17.000Z</time>
      </trkpt>
      <trkpt lat="32.73599088191986083984375" lon="-16.85793469659984111785888671875">
        <ele>827</ele>
        <time>2018-06-24T11:17:24.000Z</time>
      </trkpt>
      <trkpt lat="32.73599918000400066375732421875" lon="-16.85809738934040069580078125">
        <ele>827</ele>
        <time>2018-06-24T11:17:31.000Z</time>
      </trkpt>
      <trkpt lat="32.73597411811351776123046875" lon="-16.8582353554666042327880859375">
        <ele>827.20001220703125</ele>
        <time>2018-06-24T11:17:37.000Z</time>
      </trkpt>
      <trkpt lat="32.7359296940267086029052734375" lon="-16.85837860219180583953857421875">
        <ele>827.20001220703125</ele>
        <time>2018-06-24T11:17:44.000Z</time>
      </trkpt>
      <trkpt lat="32.7359954081475734710693359375" lon="-16.85840693302452564239501953125">
        <ele>827</ele>
        <time>2018-06-24T11:17:48.000Z</time>
      </trkpt>
      <trkpt lat="32.73619296960532665252685546875" lon="-16.85841615311801433563232421875">
        <ele>827</ele>
        <time>2018-06-24T11:17:56.000Z</time>
      </trkpt>
      <trkpt lat="32.73638206534087657928466796875" lon="-16.8584408797323703765869140625">
        <ele>827.20001220703125</ele>
        <time>2018-06-24T11:18:04.000Z</time>
      </trkpt>
      <trkpt lat="32.73657518438994884490966796875" lon="-16.85850684531033039093017578125">
        <ele>827.20001220703125</ele>
        <time>2018-06-24T11:18:11.000Z</time>
      </trkpt>
      <trkpt lat="32.736658416688442230224609375" lon="-16.85869007371366024017333984375">
        <ele>827.4000244140625</ele>
        <time>2018-06-24T11:18:18.000Z</time>
      </trkpt>
      <trkpt lat="32.736644335091114044189453125" lon="-16.8587406165897846221923828125">
        <ele>827</ele>
        <time>2018-06-24T11:18:20.000Z</time>
      </trkpt>
      <trkpt lat="32.73661055602133274078369140625" lon="-16.8588995374739170074462890625">
        <ele>827.20001220703125</ele>
        <time>2018-06-24T11:18:29.000Z</time>
      </trkpt>
      <trkpt lat="32.73666285909712314605712890625" lon="-16.85900037176907062530517578125">
        <ele>827.4000244140625</ele>
        <time>2018-06-24T11:18:33.000Z</time>
      </trkpt>
      <trkpt lat="32.73669890128076076507568359375" lon="-16.85908301733434200286865234375">
        <ele>827.4000244140625</ele>
        <time>2018-06-24T11:18:36.000Z</time>
      </trkpt>
      <trkpt lat="32.73688548244535923004150390625" lon="-16.85916985385119915008544921875">
        <ele>827.4000244140625</ele>
        <time>2018-06-24T11:18:43.000Z</time>
      </trkpt>
      <trkpt lat="32.73694884963333606719970703125" lon="-16.85920824296772480010986328125">
        <ele>827.5999755859375</ele>
        <time>2018-06-24T11:18:47.000Z</time>
      </trkpt>
      <trkpt lat="32.73710927926003932952880859375" lon="-16.85932760126888751983642578125">
        <ele>827.4000244140625</ele>
        <time>2018-06-24T11:18:54.000Z</time>
      </trkpt>
      <trkpt lat="32.73731295950710773468017578125" lon="-16.85935534536838531494140625">
        <ele>827</ele>
        <time>2018-06-24T11:19:03.000Z</time>
      </trkpt>
      <trkpt lat="32.73749216459691524505615234375" lon="-16.85942516662180423736572265625">
        <ele>826.4000244140625</ele>
        <time>2018-06-24T11:19:09.000Z</time>
      </trkpt>
      <trkpt lat="32.7376486547291278839111328125" lon="-16.85957796871662139892578125">
        <ele>827</ele>
        <time>2018-06-24T11:19:17.000Z</time>
      </trkpt>
      <trkpt lat="32.73771562613546848297119140625" lon="-16.859810315072536468505859375">
        <ele>827.5999755859375</ele>
        <time>2018-06-24T11:19:24.000Z</time>
      </trkpt>
      <trkpt lat="32.737736664712429046630859375" lon="-16.85996546410024166107177734375">
        <ele>827.20001220703125</ele>
        <time>2018-06-24T11:19:31.000Z</time>
      </trkpt>
      <trkpt lat="32.7377743832767009735107421875" lon="-16.86018222011625766754150390625">
        <ele>827.5999755859375</ele>
        <time>2018-06-24T11:19:40.000Z</time>
      </trkpt>
      <trkpt lat="32.737772203981876373291015625" lon="-16.86020837165415287017822265625">
        <ele>827.5999755859375</ele>
        <time>2018-06-24T11:19:41.000Z</time>
      </trkpt>
      <trkpt lat="32.7376471459865570068359375" lon="-16.8603747524321079254150390625">
        <ele>827.5999755859375</ele>
        <time>2018-06-24T11:19:48.000Z</time>
      </trkpt>
      <trkpt lat="32.73752753622829914093017578125" lon="-16.86046837829053401947021484375">
        <ele>827.4000244140625</ele>
        <time>2018-06-24T11:19:57.000Z</time>
      </trkpt>
      <trkpt lat="32.73736475966870784759521484375" lon="-16.8606201745569705963134765625">
        <ele>827.4000244140625</ele>
        <time>2018-06-24T11:20:06.000Z</time>
      </trkpt>
      <trkpt lat="32.7372178249061107635498046875" lon="-16.86076777987182140350341796875">
        <ele>827.4000244140625</ele>
        <time>2018-06-24T11:20:12.000Z</time>
      </trkpt>
      <trkpt lat="32.73706820793449878692626953125" lon="-16.860876493155956268310546875">
        <ele>828</ele>
        <time>2018-06-24T11:20:20.000Z</time>
      </trkpt>
      <trkpt lat="32.73707357235252857208251953125" lon="-16.8609031476080417633056640625">
        <ele>827.79998779296875</ele>
        <time>2018-06-24T11:20:21.000Z</time>
      </trkpt>
      <trkpt lat="32.7371960319578647613525390625" lon="-16.86110288836061954498291015625">
        <ele>828.4000244140625</ele>
        <time>2018-06-24T11:20:28.000Z</time>
      </trkpt>
      <trkpt lat="32.73734129033982753753662109375" lon="-16.86127019114792346954345703125">
        <ele>828.4000244140625</ele>
        <time>2018-06-24T11:20:37.000Z</time>
      </trkpt>
      <trkpt lat="32.7374823577702045440673828125" lon="-16.8614184670150279998779296875">
        <ele>827.79998779296875</ele>
        <time>2018-06-24T11:20:45.000Z</time>
      </trkpt>
      <trkpt lat="32.73761370219290256500244140625" lon="-16.86156540177762508392333984375">
        <ele>828</ele>
        <time>2018-06-24T11:20:53.000Z</time>
      </trkpt>
      <trkpt lat="32.73775300942361354827880859375" lon="-16.86173052527010440826416015625">
        <ele>828</ele>
        <time>2018-06-24T11:21:00.000Z</time>
      </trkpt>
      <trkpt lat="32.7378494851291179656982421875" lon="-16.86193831264972686767578125">
        <ele>828.20001220703125</ele>
        <time>2018-06-24T11:21:07.000Z</time>
      </trkpt>
      <trkpt lat="32.7379966713488101959228515625" lon="-16.862117350101470947265625">
        <ele>827.79998779296875</ele>
        <time>2018-06-24T11:21:15.000Z</time>
      </trkpt>
      <trkpt lat="32.73811611346900463104248046875" lon="-16.86230904422700405120849609375">
        <ele>828</ele>
        <time>2018-06-24T11:21:23.000Z</time>
      </trkpt>
      <trkpt lat="32.73812793195247650146484375" lon="-16.86239722184836864471435546875">
        <ele>828.20001220703125</ele>
        <time>2018-06-24T11:21:26.000Z</time>
      </trkpt>
      <trkpt lat="32.7380335517227649688720703125" lon="-16.8625852279365062713623046875">
        <ele>828</ele>
        <time>2018-06-24T11:21:34.000Z</time>
      </trkpt>
      <trkpt lat="32.73792014457285404205322265625" lon="-16.86276954598724842071533203125">
        <ele>828</ele>
        <time>2018-06-24T11:21:43.000Z</time>
      </trkpt>
      <trkpt lat="32.73785971105098724365234375" lon="-16.86284313909709453582763671875">
        <ele>828</ele>
        <time>2018-06-24T11:21:48.000Z</time>
      </trkpt>
      <trkpt lat="32.73778888396918773651123046875" lon="-16.86304933391511440277099609375">
        <ele>828.20001220703125</ele>
        <time>2018-06-24T11:21:56.000Z</time>
      </trkpt>
      <trkpt lat="32.73770674131810665130615234375" lon="-16.86325754038989543914794921875">
        <ele>828</ele>
        <time>2018-06-24T11:22:04.000Z</time>
      </trkpt>
      <trkpt lat="32.7375933341681957244873046875" lon="-16.863440684974193572998046875">
        <ele>827.79998779296875</ele>
        <time>2018-06-24T11:22:10.000Z</time>
      </trkpt>
      <trkpt lat="32.7374612353742122650146484375" lon="-16.8635769747197628021240234375">
        <ele>828</ele>
        <time>2018-06-24T11:22:19.000Z</time>
      </trkpt>
      <trkpt lat="32.73728982545435428619384765625" lon="-16.86348988674581050872802734375">
        <ele>828.4000244140625</ele>
        <time>2018-06-24T11:22:27.000Z</time>
      </trkpt>
      <trkpt lat="32.73712738417088985443115234375" lon="-16.86337488703429698944091796875">
        <ele>828.4000244140625</ele>
        <time>2018-06-24T11:22:35.000Z</time>
      </trkpt>
      <trkpt lat="32.73703685961663722991943359375" lon="-16.8632993660867214202880859375">
        <ele>828.79998779296875</ele>
        <time>2018-06-24T11:22:40.000Z</time>
      </trkpt>
      <trkpt lat="32.7368681319057941436767578125" lon="-16.86329106800258159637451171875">
        <ele>828.20001220703125</ele>
        <time>2018-06-24T11:22:49.000Z</time>
      </trkpt>
      <trkpt lat="32.73674835450947284698486328125" lon="-16.863474212586879730224609375">
        <ele>828.20001220703125</ele>
        <time>2018-06-24T11:22:56.000Z</time>
      </trkpt>
      <trkpt lat="32.73670895956456661224365234375" lon="-16.8635404296219348907470703125">
        <ele>827.5999755859375</ele>
        <time>2018-06-24T11:22:58.000Z</time>
      </trkpt>
      <trkpt lat="32.736556492745876312255859375" lon="-16.863643191754817962646484375">
        <ele>828.4000244140625</ele>
        <time>2018-06-24T11:23:06.000Z</time>
      </trkpt>
      <trkpt lat="32.7363972365856170654296875" lon="-16.86353665776550769805908203125">
        <ele>828.20001220703125</ele>
        <time>2018-06-24T11:23:13.000Z</time>
      </trkpt>
      <trkpt lat="32.73625818081200122833251953125" lon="-16.863513104617595672607421875">
        <ele>828.4000244140625</ele>
        <time>2018-06-24T11:23:19.000Z</time>
      </trkpt>
      <trkpt lat="32.73607143200933933258056640625" lon="-16.86347798444330692291259765625">
        <ele>828.20001220703125</ele>
        <time>2018-06-24T11:23:29.000Z</time>
      </trkpt>
      <trkpt lat="32.73604176007211208343505859375" lon="-16.8635115958750247955322265625">
        <ele>828.20001220703125</ele>
        <time>2018-06-24T11:23:31.000Z</time>
      </trkpt>
      <trkpt lat="32.735905386507511138916015625" lon="-16.863671354949474334716796875">
        <ele>828.20001220703125</ele>
        <time>2018-06-24T11:23:36.000Z</time>
      </trkpt>
      <trkpt lat="32.7358562685549259185791015625" lon="-16.86371535994112491607666015625">
        <ele>828.20001220703125</ele>
        <time>2018-06-24T11:23:40.000Z</time>
      </trkpt>
      <trkpt lat="32.7358492277562618255615234375" lon="-16.86378710903227329254150390625">
        <ele>828.20001220703125</ele>
        <time>2018-06-24T11:23:43.000Z</time>
      </trkpt>
      <trkpt lat="32.73587713949382305145263671875" lon="-16.8638079799711704254150390625">
        <ele>828.4000244140625</ele>
        <time>2018-06-24T11:23:45.000Z</time>
      </trkpt>
      <trkpt lat="32.7359826676547527313232421875" lon="-16.8638026155531406402587890625">
        <ele>828.20001220703125</ele>
        <time>2018-06-24T11:23:50.000Z</time>
      </trkpt>
      <trkpt lat="32.73601527325809001922607421875" lon="-16.8639021925628185272216796875">
        <ele>828.20001220703125</ele>
        <time>2018-06-24T11:23:54.000Z</time>
      </trkpt>
      <trkpt lat="32.736000604927539825439453125" lon="-16.86411534436047077178955078125">
        <ele>828.4000244140625</ele>
        <time>2018-06-24T11:24:02.000Z</time>
      </trkpt>
      <trkpt lat="32.7360933087766170501708984375" lon="-16.8643341958522796630859375">
        <ele>828</ele>
        <time>2018-06-24T11:24:10.000Z</time>
      </trkpt>
      <trkpt lat="32.73614100180566310882568359375" lon="-16.8644414842128753662109375">
        <ele>828.20001220703125</ele>
        <time>2018-06-24T11:24:14.000Z</time>
      </trkpt>
      <trkpt lat="32.7361258305609226226806640625" lon="-16.8646265566349029541015625">
        <ele>828.20001220703125</ele>
        <time>2018-06-24T11:24:22.000Z</time>
      </trkpt>
      <trkpt lat="32.73595844395458698272705078125" lon="-16.8646927736699581146240234375">
        <ele>828</ele>
        <time>2018-06-24T11:24:36.000Z</time>
      </trkpt>
      <trkpt lat="32.73576968349516391754150390625" lon="-16.86477005481719970703125">
        <ele>828.5999755859375</ele>
        <time>2018-06-24T11:24:46.000Z</time>
      </trkpt>
      <trkpt lat="32.73559902794659137725830078125" lon="-16.86490374617278575897216796875">
        <ele>828.20001220703125</ele>
        <time>2018-06-24T11:24:52.000Z</time>
      </trkpt>
      <trkpt lat="32.7355722896754741668701171875" lon="-16.86494079418480396270751953125">
        <ele>828.20001220703125</ele>
        <time>2018-06-24T11:24:54.000Z</time>
      </trkpt>
      <trkpt lat="32.73563339374959468841552734375" lon="-16.8651576340198516845703125">
        <ele>828.20001220703125</ele>
        <time>2018-06-24T11:25:03.000Z</time>
      </trkpt>
      <trkpt lat="32.73562400601804256439208984375" lon="-16.86517867259681224822998046875">
        <ele>828.4000244140625</ele>
        <time>2018-06-24T11:25:04.000Z</time>
      </trkpt>
      <trkpt lat="32.73549324832856655120849609375" lon="-16.8653465621173381805419921875">
        <ele>828.5999755859375</ele>
        <time>2018-06-24T11:25:11.000Z</time>
      </trkpt>
      <trkpt lat="32.7352997101843357086181640625" lon="-16.8653670139610767364501953125">
        <ele>829.20001220703125</ele>
        <time>2018-06-24T11:25:23.000Z</time>
      </trkpt>
      <trkpt lat="32.735053785145282745361328125" lon="-16.86539039947092533111572265625">
        <ele>828.5999755859375</ele>
        <time>2018-06-24T11:25:38.000Z</time>
      </trkpt>
      <trkpt lat="32.73493015207350254058837890625" lon="-16.86537983827292919158935546875">
        <ele>829.4000244140625</ele>
        <time>2018-06-24T11:25:44.000Z</time>
      </trkpt>
      <trkpt lat="32.7349057607352733612060546875" lon="-16.8653968535363674163818359375">
        <ele>829.5999755859375</ele>
        <time>2018-06-24T11:25:46.000Z</time>
      </trkpt>
      <trkpt lat="32.7348276413977146148681640625" lon="-16.86553305946290493011474609375">
        <ele>829</ele>
        <time>2018-06-24T11:25:50.000Z</time>
      </trkpt>
      <trkpt lat="32.7347196824848651885986328125" lon="-16.8657130189239978790283203125">
        <ele>829</ele>
        <time>2018-06-24T11:25:59.000Z</time>
      </trkpt>
      <trkpt lat="32.73459839634597301483154296875" lon="-16.86590286903083324432373046875">
        <ele>829.20001220703125</ele>
        <time>2018-06-24T11:26:06.000Z</time>
      </trkpt>
      <trkpt lat="32.73448012769222259521484375" lon="-16.86607670970261096954345703125">
        <ele>828.79998779296875</ele>
        <time>2018-06-24T11:26:13.000Z</time>
      </trkpt>
      <trkpt lat="32.73445942439138889312744140625" lon="-16.86612658202648162841796875">
        <ele>829</ele>
        <time>2018-06-24T11:26:15.000Z</time>
      </trkpt>
      <trkpt lat="32.73432782851159572601318359375" lon="-16.86629145406186580657958984375">
        <ele>829.20001220703125</ele>
        <time>2018-06-24T11:26:27.000Z</time>
      </trkpt>
      <trkpt lat="32.734193466603755950927734375" lon="-16.866146363317966461181640625">
        <ele>829.5999755859375</ele>
        <time>2018-06-24T11:26:36.000Z</time>
      </trkpt>
      <trkpt lat="32.73403353989124298095703125" lon="-16.86604150570929050445556640625">
        <ele>829.5999755859375</ele>
        <time>2018-06-24T11:26:45.000Z</time>
      </trkpt>
      <trkpt lat="32.73400696925818920135498046875" lon="-16.8660078942775726318359375">
        <ele>829.4000244140625</ele>
        <time>2018-06-24T11:26:48.000Z</time>
      </trkpt>
      <trkpt lat="32.733854837715625762939453125" lon="-16.866250298917293548583984375">
        <ele>829.20001220703125</ele>
        <time>2018-06-24T11:26:55.000Z</time>
      </trkpt>
      <trkpt lat="32.7338410913944244384765625" lon="-16.8662793003022670745849609375">
        <ele>829.20001220703125</ele>
        <time>2018-06-24T11:26:56.000Z</time>
      </trkpt>
      <trkpt lat="32.7337651513516902923583984375" lon="-16.86647870577871799468994140625">
        <ele>829.4000244140625</ele>
        <time>2018-06-24T11:27:03.000Z</time>
      </trkpt>
      <trkpt lat="32.73373405449092388153076171875" lon="-16.8664920330047607421875">
        <ele>829.20001220703125</ele>
        <time>2018-06-24T11:27:05.000Z</time>
      </trkpt>
      <trkpt lat="32.73360128514468669891357421875" lon="-16.8663403205573558807373046875">
        <ele>829.20001220703125</ele>
        <time>2018-06-24T11:27:14.000Z</time>
      </trkpt>
      <trkpt lat="32.733485363423824310302734375" lon="-16.86616840772330760955810546875">
        <ele>829.4000244140625</ele>
        <time>2018-06-24T11:27:22.000Z</time>
      </trkpt>
      <trkpt lat="32.733305655419826507568359375" lon="-16.866167485713958740234375">
        <ele>829</ele>
        <time>2018-06-24T11:27:29.000Z</time>
      </trkpt>
      <trkpt lat="32.7331529371440410614013671875" lon="-16.8662853352725505828857421875">
        <ele>829</ele>
        <time>2018-06-24T11:27:36.000Z</time>
      </trkpt>
      <trkpt lat="32.7329826168715953826904296875" lon="-16.86629899777472019195556640625">
        <ele>828.79998779296875</ele>
        <time>2018-06-24T11:27:46.000Z</time>
      </trkpt>
      <trkpt lat="32.73298747837543487548828125" lon="-16.86631492339074611663818359375">
        <ele>828</ele>
        <time>2018-06-24T11:27:48.000Z</time>
      </trkpt>
      <trkpt lat="32.7329940162599086761474609375" lon="-16.86632095836102962493896484375">
        <ele>827.5999755859375</ele>
        <time>2018-06-24T11:27:49.000Z</time>
      </trkpt>
      <trkpt lat="32.7330148033797740936279296875" lon="-16.86633621342480182647705078125">
        <ele>826.79998779296875</ele>
        <time>2018-06-24T11:27:51.000Z</time>
      </trkpt>
      <trkpt lat="32.733003236353397369384765625" lon="-16.866389103233814239501953125">
        <ele>826.79998779296875</ele>
        <time>2018-06-24T11:27:55.000Z</time>
      </trkpt>
      <trkpt lat="32.73290097713470458984375" lon="-16.86647049151360988616943359375">
        <ele>828.20001220703125</ele>
        <time>2018-06-24T11:28:00.000Z</time>
      </trkpt>
      <trkpt lat="32.73289687000215053558349609375" lon="-16.8665153346955776214599609375">
        <ele>828.4000244140625</ele>
        <time>2018-06-24T11:28:03.000Z</time>
      </trkpt>
      <trkpt lat="32.7329873107373714447021484375" lon="-16.86663754284381866455078125">
        <ele>829.20001220703125</ele>
        <time>2018-06-24T11:28:11.000Z</time>
      </trkpt>
      <trkpt lat="32.7331002987921237945556640625" lon="-16.86677911318838596343994140625">
        <ele>828.79998779296875</ele>
        <time>2018-06-24T11:28:19.000Z</time>
      </trkpt>
      <trkpt lat="32.73308579809963703155517578125" lon="-16.866791434586048126220703125">
        <ele>828.79998779296875</ele>
        <time>2018-06-24T11:28:20.000Z</time>
      </trkpt>
      <trkpt lat="32.73292670957744121551513671875" lon="-16.86689713038504123687744140625">
        <ele>829</ele>
        <time>2018-06-24T11:28:29.000Z</time>
      </trkpt>
      <trkpt lat="32.73274549283087253570556640625" lon="-16.866859160363674163818359375">
        <ele>829</ele>
        <time>2018-06-24T11:28:40.000Z</time>
      </trkpt>
      <trkpt lat="32.73256394080817699432373046875" lon="-16.8668455816805362701416015625">
        <ele>828.79998779296875</ele>
        <time>2018-06-24T11:28:48.000Z</time>
      </trkpt>
      <trkpt lat="32.73238205350935459136962890625" lon="-16.866768300533294677734375">
        <ele>829</ele>
        <time>2018-06-24T11:28:57.000Z</time>
      </trkpt>
      <trkpt lat="32.73224090225994586944580078125" lon="-16.86689235270023345947265625">
        <ele>829</ele>
        <time>2018-06-24T11:29:04.000Z</time>
      </trkpt>
      <trkpt lat="32.732185162603855133056640625" lon="-16.8669267185032367706298828125">
        <ele>828.4000244140625</ele>
        <time>2018-06-24T11:29:06.000Z</time>
      </trkpt>
      <trkpt lat="32.7321875095367431640625" lon="-16.8669518642127513885498046875">
        <ele>827.5999755859375</ele>
        <time>2018-06-24T11:29:09.000Z</time>
      </trkpt>
      <trkpt lat="32.732197903096675872802734375" lon="-16.86694658361375331878662109375">
        <ele>827</ele>
        <time>2018-06-24T11:29:11.000Z</time>
      </trkpt>
      <trkpt lat="32.73220301605761051177978515625" lon="-16.86694725416600704193115234375">
        <ele>826.5999755859375</ele>
        <time>2018-06-24T11:29:12.000Z</time>
      </trkpt>
      <trkpt lat="32.7322232164442539215087890625" lon="-16.86696854420006275177001953125">
        <ele>825.4000244140625</ele>
        <time>2018-06-24T11:29:16.000Z</time>
      </trkpt>
      <trkpt lat="32.73223109543323516845703125" lon="-16.86696351505815982818603515625">
        <ele>825.4000244140625</ele>
        <time>2018-06-24T11:29:18.000Z</time>
      </trkpt>
      <trkpt lat="32.73224174045026302337646484375" lon="-16.86697122640907764434814453125">
        <ele>826.5999755859375</ele>
        <time>2018-06-24T11:29:23.000Z</time>
      </trkpt>
      <trkpt lat="32.73227803409099578857421875" lon="-16.86697022058069705963134765625">
        <ele>828</ele>
        <time>2018-06-24T11:29:27.000Z</time>
      </trkpt>
      <trkpt lat="32.73230209015309810638427734375" lon="-16.86697692610323429107666015625">
        <ele>829</ele>
        <time>2018-06-24T11:29:30.000Z</time>
      </trkpt>
      <trkpt lat="32.7323318459093570709228515625" lon="-16.866982877254486083984375">
        <ele>829.4000244140625</ele>
        <time>2018-06-24T11:29:32.000Z</time>
      </trkpt>
      <trkpt lat="32.73246905766427516937255859375" lon="-16.86701397411525249481201171875">
        <ele>829.5999755859375</ele>
        <time>2018-06-24T11:29:40.000Z</time>
      </trkpt>
      <trkpt lat="32.73248313926160335540771484375" lon="-16.86705730855464935302734375">
        <ele>829.4000244140625</ele>
        <time>2018-06-24T11:29:42.000Z</time>
      </trkpt>
      <trkpt lat="32.7325082011520862579345703125" lon="-16.8670861423015594482421875">
        <ele>829.4000244140625</ele>
        <time>2018-06-24T11:29:44.000Z</time>
      </trkpt>
      <trkpt lat="32.732548601925373077392578125" lon="-16.86709829606115818023681640625">
        <ele>829.20001220703125</ele>
        <time>2018-06-24T11:29:46.000Z</time>
      </trkpt>
      <trkpt lat="32.73261331021785736083984375" lon="-16.867126040160655975341796875">
        <ele>829.20001220703125</ele>
        <time>2018-06-24T11:29:50.000Z</time>
      </trkpt>
      <trkpt lat="32.7326905913650989532470703125" lon="-16.86713232658803462982177734375">
        <ele>829.20001220703125</ele>
        <time>2018-06-24T11:29:53.000Z</time>
      </trkpt>
      <trkpt lat="32.7328612469136714935302734375" lon="-16.86700793914496898651123046875">
        <ele>829.4000244140625</ele>
        <time>2018-06-24T11:30:00.000Z</time>
      </trkpt>
      <trkpt lat="32.73291598074138164520263671875" lon="-16.867010034620761871337890625">
        <ele>829.4000244140625</ele>
        <time>2018-06-24T11:30:02.000Z</time>
      </trkpt>
      <trkpt lat="32.73307540453970432281494140625" lon="-16.86713668517768383026123046875">
        <ele>829.5999755859375</ele>
        <time>2018-06-24T11:30:09.000Z</time>
      </trkpt>
      <trkpt lat="32.733281515538692474365234375" lon="-16.86715898104012012481689453125">
        <ele>829.20001220703125</ele>
        <time>2018-06-24T11:30:17.000Z</time>
      </trkpt>
      <trkpt lat="32.73346147499978542327880859375" lon="-16.867125369608402252197265625">
        <ele>829.20001220703125</ele>
        <time>2018-06-24T11:30:24.000Z</time>
      </trkpt>
      <trkpt lat="32.7336640655994415283203125" lon="-16.8671786785125732421875">
        <ele>829.20001220703125</ele>
        <time>2018-06-24T11:30:31.000Z</time>
      </trkpt>
      <trkpt lat="32.73367051966488361358642578125" lon="-16.86720726080238819122314453125">
        <ele>829</ele>
        <time>2018-06-24T11:30:32.000Z</time>
      </trkpt>
      <trkpt lat="32.7337393350899219512939453125" lon="-16.8672980368137359619140625">
        <ele>829.20001220703125</ele>
        <time>2018-06-24T11:30:38.000Z</time>
      </trkpt>
      <trkpt lat="32.73388811387121677398681640625" lon="-16.86742007732391357421875">
        <ele>829.20001220703125</ele>
        <time>2018-06-24T11:30:45.000Z</time>
      </trkpt>
      <trkpt lat="32.73400361649692058563232421875" lon="-16.8675662577152252197265625">
        <ele>829</ele>
        <time>2018-06-24T11:30:51.000Z</time>
      </trkpt>
      <trkpt lat="32.73412213660776615142822265625" lon="-16.86775996349751949310302734375">
        <ele>829</ele>
        <time>2018-06-24T11:30:58.000Z</time>
      </trkpt>
      <trkpt lat="32.734251804649829864501953125" lon="-16.8679550103843212127685546875">
        <ele>828.79998779296875</ele>
        <time>2018-06-24T11:31:06.000Z</time>
      </trkpt>
      <trkpt lat="32.73434727452695369720458984375" lon="-16.8680597841739654541015625">
        <ele>829</ele>
        <time>2018-06-24T11:31:12.000Z</time>
      </trkpt>
      <trkpt lat="32.73429765366017818450927734375" lon="-16.86824611388146877288818359375">
        <ele>829.20001220703125</ele>
        <time>2018-06-24T11:31:20.000Z</time>
      </trkpt>
      <trkpt lat="32.73417863063514232635498046875" lon="-16.868407465517520904541015625">
        <ele>829</ele>
        <time>2018-06-24T11:31:29.000Z</time>
      </trkpt>
      <trkpt lat="32.73409900255501270294189453125" lon="-16.8686027638614177703857421875">
        <ele>829.20001220703125</ele>
        <time>2018-06-24T11:31:37.000Z</time>
      </trkpt>
      <trkpt lat="32.73400160484015941619873046875" lon="-16.86881826259195804595947265625">
        <ele>829.20001220703125</ele>
        <time>2018-06-24T11:31:47.000Z</time>
      </trkpt>
      <trkpt lat="32.7339941449463367462158203125" lon="-16.8688994832336902618408203125">
        <ele>829.5999755859375</ele>
        <time>2018-06-24T11:31:50.000Z</time>
      </trkpt>
      <trkpt lat="32.73410051129758358001708984375" lon="-16.86909955926239490509033203125">
        <ele>829.5999755859375</ele>
        <time>2018-06-24T11:31:55.000Z</time>
      </trkpt>
      <trkpt lat="32.73416840471327304840087890625" lon="-16.8692042492330074310302734375">
        <ele>829.20001220703125</ele>
        <time>2018-06-24T11:32:00.000Z</time>
      </trkpt>
      <trkpt lat="32.73421199060976505279541015625" lon="-16.86933324672281742095947265625">
        <ele>829.4000244140625</ele>
        <time>2018-06-24T11:32:07.000Z</time>
      </trkpt>
      <trkpt lat="32.73409028537571430206298828125" lon="-16.86951463110744953155517578125">
        <ele>829.79998779296875</ele>
        <time>2018-06-24T11:32:16.000Z</time>
      </trkpt>
      <trkpt lat="32.73403563536703586578369140625" lon="-16.8696568720042705535888671875">
        <ele>830</ele>
        <time>2018-06-24T11:32:23.000Z</time>
      </trkpt>
      <trkpt lat="32.73407150991261005401611328125" lon="-16.86986918561160564422607421875">
        <ele>830.20001220703125</ele>
        <time>2018-06-24T11:32:31.000Z</time>
      </trkpt>
      <trkpt lat="32.734099924564361572265625" lon="-16.870104633271694183349609375">
        <ele>830.20001220703125</ele>
        <time>2018-06-24T11:32:38.000Z</time>
      </trkpt>
      <trkpt lat="32.73400177247822284698486328125" lon="-16.87030320055782794952392578125">
        <ele>829.79998779296875</ele>
        <time>2018-06-24T11:32:44.000Z</time>
      </trkpt>
      <trkpt lat="32.7339472062885761260986328125" lon="-16.870405711233615875244140625">
        <ele>829.5999755859375</ele>
        <time>2018-06-24T11:32:48.000Z</time>
      </trkpt>
      <trkpt lat="32.73405508138239383697509765625" lon="-16.870591454207897186279296875">
        <ele>830.5999755859375</ele>
        <time>2018-06-24T11:32:57.000Z</time>
      </trkpt>
      <trkpt lat="32.73402658291161060333251953125" lon="-16.87064367346465587615966796875">
        <ele>831</ele>
        <time>2018-06-24T11:33:01.000Z</time>
      </trkpt>
      <trkpt lat="32.73400981910526752471923828125" lon="-16.87067552469670772552490234375">
        <ele>830.79998779296875</ele>
        <time>2018-06-24T11:33:03.000Z</time>
      </trkpt>
      <trkpt lat="32.73399607278406620025634765625" lon="-16.8706787936389446258544921875">
        <ele>831.20001220703125</ele>
        <time>2018-06-24T11:33:05.000Z</time>
      </trkpt>
      <trkpt lat="32.73398936726152896881103515625" lon="-16.87067451886832714080810546875">
        <ele>832.20001220703125</ele>
        <time>2018-06-24T11:33:09.000Z</time>
      </trkpt>
      <trkpt lat="32.733950056135654449462890625" lon="-16.87070720829069614410400390625">
        <ele>833.4000244140625</ele>
        <time>2018-06-24T11:33:15.000Z</time>
      </trkpt>
      <trkpt lat="32.73394661955535411834716796875" lon="-16.8707126565277576446533203125">
        <ele>833.5999755859375</ele>
        <time>2018-06-24T11:33:16.000Z</time>
      </trkpt>
      <trkpt lat="32.7339108288288116455078125" lon="-16.8707498721778392791748046875">
        <ele>834.5999755859375</ele>
        <time>2018-06-24T11:33:20.000Z</time>
      </trkpt>
      <trkpt lat="32.73390253074467182159423828125" lon="-16.87076956965029239654541015625">
        <ele>834.79998779296875</ele>
        <time>2018-06-24T11:33:23.000Z</time>
      </trkpt>
      <trkpt lat="32.73388601839542388916015625" lon="-16.87079186551272869110107421875">
        <ele>835.79998779296875</ele>
        <time>2018-06-24T11:33:28.000Z</time>
      </trkpt>
      <trkpt lat="32.73385592736303806304931640625" lon="-16.870823465287685394287109375">
        <ele>836.5999755859375</ele>
        <time>2018-06-24T11:33:32.000Z</time>
      </trkpt>
      <trkpt lat="32.73384888656437397003173828125" lon="-16.8708360381424427032470703125">
        <ele>837.20001220703125</ele>
        <time>2018-06-24T11:33:34.000Z</time>
      </trkpt>
      <trkpt lat="32.7338318713009357452392578125" lon="-16.87086143530905246734619140625">
        <ele>838</ele>
        <time>2018-06-24T11:33:37.000Z</time>
      </trkpt>
      <trkpt lat="32.73381234146654605865478515625" lon="-16.87088239006698131561279296875">
        <ele>839</ele>
        <time>2018-06-24T11:33:40.000Z</time>
      </trkpt>
      <trkpt lat="32.733809240162372589111328125" lon="-16.87088926322758197784423828125">
        <ele>839.20001220703125</ele>
        <time>2018-06-24T11:33:41.000Z</time>
      </trkpt>
      <trkpt lat="32.73380496539175510406494140625" lon="-16.8709165044128894805908203125">
        <ele>840</ele>
        <time>2018-06-24T11:33:44.000Z</time>
      </trkpt>
      <trkpt lat="32.7338027022778987884521484375" lon="-16.8709243834018707275390625">
        <ele>840.20001220703125</ele>
        <time>2018-06-24T11:33:45.000Z</time>
      </trkpt>
      <trkpt lat="32.733776383101940155029296875" lon="-16.87097174115478992462158203125">
        <ele>840.5999755859375</ele>
        <time>2018-06-24T11:33:48.000Z</time>
      </trkpt>
      <trkpt lat="32.73376573808491230010986328125" lon="-16.870993785560131072998046875">
        <ele>841.20001220703125</ele>
        <time>2018-06-24T11:33:50.000Z</time>
      </trkpt>
      <trkpt lat="32.7337333001196384429931640625" lon="-16.8710418976843357086181640625">
        <ele>842.5999755859375</ele>
        <time>2018-06-24T11:33:55.000Z</time>
      </trkpt>
      <trkpt lat="32.7337037958204746246337890625" lon="-16.871104426681995391845703125">
        <ele>843.79998779296875</ele>
        <time>2018-06-24T11:34:00.000Z</time>
      </trkpt>
      <trkpt lat="32.73370019160211086273193359375" lon="-16.87111641280353069305419921875">
        <ele>844</ele>
        <time>2018-06-24T11:34:01.000Z</time>
      </trkpt>
      <trkpt lat="32.7336907200515270233154296875" lon="-16.87116502784192562103271484375">
        <ele>844.5999755859375</ele>
        <time>2018-06-24T11:34:05.000Z</time>
      </trkpt>
      <trkpt lat="32.73368108086287975311279296875" lon="-16.8711823783814907073974609375">
        <ele>845</ele>
        <time>2018-06-24T11:34:07.000Z</time>
      </trkpt>
      <trkpt lat="32.73366984911262989044189453125" lon="-16.87119671143591403961181640625">
        <ele>845.5999755859375</ele>
        <time>2018-06-24T11:34:10.000Z</time>
      </trkpt>
      <trkpt lat="32.7336685918271541595458984375" lon="-16.871217079460620880126953125">
        <ele>847</ele>
        <time>2018-06-24T11:34:15.000Z</time>
      </trkpt>
      <trkpt lat="32.73364973254501819610595703125" lon="-16.8712440691888332366943359375">
        <ele>848</ele>
        <time>2018-06-24T11:34:20.000Z</time>
      </trkpt>
      <trkpt lat="32.7336357347667217254638671875" lon="-16.87126167118549346923828125">
        <ele>849.20001220703125</ele>
        <time>2018-06-24T11:34:24.000Z</time>
      </trkpt>
      <trkpt lat="32.73362492211163043975830078125" lon="-16.87129042111337184906005859375">
        <ele>850.4000244140625</ele>
        <time>2018-06-24T11:34:28.000Z</time>
      </trkpt>
      <trkpt lat="32.73361637257039546966552734375" lon="-16.87132277525961399078369140625">
        <ele>851.4000244140625</ele>
        <time>2018-06-24T11:34:32.000Z</time>
      </trkpt>
      <trkpt lat="32.73356021381914615631103515625" lon="-16.87140575610101222991943359375">
        <ele>852.4000244140625</ele>
        <time>2018-06-24T11:34:36.000Z</time>
      </trkpt>
      <trkpt lat="32.733558453619480133056640625" lon="-16.87142184935510158538818359375">
        <ele>853.20001220703125</ele>
        <time>2018-06-24T11:34:38.000Z</time>
      </trkpt>
      <trkpt lat="32.733543030917644500732421875" lon="-16.87146644107997417449951171875">
        <ele>853.79998779296875</ele>
        <time>2018-06-24T11:34:40.000Z</time>
      </trkpt>
      <trkpt lat="32.733530960977077484130859375" lon="-16.8714965321123600006103515625">
        <ele>854.4000244140625</ele>
        <time>2018-06-24T11:34:42.000Z</time>
      </trkpt>
      <trkpt lat="32.7335163764655590057373046875" lon="-16.87152645550668239593505859375">
        <ele>855.20001220703125</ele>
        <time>2018-06-24T11:34:45.000Z</time>
      </trkpt>
      <trkpt lat="32.7335083298385143280029296875" lon="-16.87153534032404422760009765625">
        <ele>855.4000244140625</ele>
        <time>2018-06-24T11:34:46.000Z</time>
      </trkpt>
      <trkpt lat="32.73350154049694538116455078125" lon="-16.8715531937777996063232421875">
        <ele>856</ele>
        <time>2018-06-24T11:34:48.000Z</time>
      </trkpt>
      <trkpt lat="32.73349584080278873443603515625" lon="-16.87156341969966888427734375">
        <ele>856.4000244140625</ele>
        <time>2018-06-24T11:34:49.000Z</time>
      </trkpt>
      <trkpt lat="32.73347404785454273223876953125" lon="-16.87158227898180484771728515625">
        <ele>857.20001220703125</ele>
        <time>2018-06-24T11:34:53.000Z</time>
      </trkpt>
      <trkpt lat="32.73345929570496082305908203125" lon="-16.871596612036228179931640625">
        <ele>858.4000244140625</ele>
        <time>2018-06-24T11:34:57.000Z</time>
      </trkpt>
      <trkpt lat="32.73344923742115497589111328125" lon="-16.871632821857929229736328125">
        <ele>859.20001220703125</ele>
        <time>2018-06-24T11:35:01.000Z</time>
      </trkpt>
      <trkpt lat="32.73343599401414394378662109375" lon="-16.87167246825993061065673828125">
        <ele>860.20001220703125</ele>
        <time>2018-06-24T11:35:06.000Z</time>
      </trkpt>
      <trkpt lat="32.7334181405603885650634765625" lon="-16.87169711105525493621826171875">
        <ele>861.4000244140625</ele>
        <time>2018-06-24T11:35:11.000Z</time>
      </trkpt>
      <trkpt lat="32.7334027178585529327392578125" lon="-16.87173013575375080108642578125">
        <ele>862.5999755859375</ele>
        <time>2018-06-24T11:35:16.000Z</time>
      </trkpt>
      <trkpt lat="32.7333826012909412384033203125" lon="-16.87175528146326541900634765625">
        <ele>863.5999755859375</ele>
        <time>2018-06-24T11:35:20.000Z</time>
      </trkpt>
      <trkpt lat="32.73336089216172695159912109375" lon="-16.87177103944122791290283203125">
        <ele>864.79998779296875</ele>
        <time>2018-06-24T11:35:25.000Z</time>
      </trkpt>
      <trkpt lat="32.73333071731030941009521484375" lon="-16.87180674634873867034912109375">
        <ele>866</ele>
        <time>2018-06-24T11:35:30.000Z</time>
      </trkpt>
      <trkpt lat="32.73325528018176555633544921875" lon="-16.8719447962939739227294921875">
        <ele>867.4000244140625</ele>
        <time>2018-06-24T11:35:35.000Z</time>
      </trkpt>
      <trkpt lat="32.7332478202879428863525390625" lon="-16.87195125035941600799560546875">
        <ele>867.4000244140625</ele>
        <time>2018-06-24T11:35:36.000Z</time>
      </trkpt>
      <trkpt lat="32.7332377620041370391845703125" lon="-16.87196969054639339447021484375">
        <ele>868.20001220703125</ele>
        <time>2018-06-24T11:35:38.000Z</time>
      </trkpt>
      <trkpt lat="32.73323030211031436920166015625" lon="-16.8719783239066600799560546875">
        <ele>868.4000244140625</ele>
        <time>2018-06-24T11:35:39.000Z</time>
      </trkpt>
      <trkpt lat="32.73321454413235187530517578125" lon="-16.87199366278946399688720703125">
        <ele>869</ele>
        <time>2018-06-24T11:35:41.000Z</time>
      </trkpt>
      <trkpt lat="32.73319543339312076568603515625" lon="-16.87201403081417083740234375">
        <ele>869.5999755859375</ele>
        <time>2018-06-24T11:35:43.000Z</time>
      </trkpt>
      <trkpt lat="32.73317598737776279449462890625" lon="-16.87202802859246730804443359375">
        <ele>870</ele>
        <time>2018-06-24T11:35:45.000Z</time>
      </trkpt>
      <trkpt lat="32.73316676728427410125732421875" lon="-16.8720455467700958251953125">
        <ele>870.5999755859375</ele>
        <time>2018-06-24T11:35:47.000Z</time>
      </trkpt>
      <trkpt lat="32.7331609837710857391357421875" lon="-16.87205166555941104888916015625">
        <ele>870.79998779296875</ele>
        <time>2018-06-24T11:35:48.000Z</time>
      </trkpt>
      <trkpt lat="32.73314111866056919097900390625" lon="-16.87207429669797420501708984375">
        <ele>871.79998779296875</ele>
        <time>2018-06-24T11:35:51.000Z</time>
      </trkpt>
      <trkpt lat="32.7331127040088176727294921875" lon="-16.87210028059780597686767578125">
        <ele>873</ele>
        <time>2018-06-24T11:35:55.000Z</time>
      </trkpt>
      <trkpt lat="32.73309635929763317108154296875" lon="-16.8721313774585723876953125">
        <ele>874</ele>
        <time>2018-06-24T11:35:59.000Z</time>
      </trkpt>
      <trkpt lat="32.73306903429329395294189453125" lon="-16.8721509911119937896728515625">
        <ele>874.79998779296875</ele>
        <time>2018-06-24T11:36:03.000Z</time>
      </trkpt>
      <trkpt lat="32.7330607362091541290283203125" lon="-16.87216691672801971435546875">
        <ele>875.20001220703125</ele>
        <time>2018-06-24T11:36:05.000Z</time>
      </trkpt>
      <trkpt lat="32.73303869180381298065185546875" lon="-16.8721724487841129302978515625">
        <ele>876</ele>
        <time>2018-06-24T11:36:07.000Z</time>
      </trkpt>
      <trkpt lat="32.7330176532268524169921875" lon="-16.87217496335506439208984375">
        <ele>876.5999755859375</ele>
        <time>2018-06-24T11:36:09.000Z</time>
      </trkpt>
      <trkpt lat="32.7330096065998077392578125" lon="-16.8721818365156650543212890625">
        <ele>877.20001220703125</ele>
        <time>2018-06-24T11:36:11.000Z</time>
      </trkpt>
      <trkpt lat="32.7330029010772705078125" lon="-16.87220237217843532562255859375">
        <ele>878</ele>
        <time>2018-06-24T11:36:14.000Z</time>
      </trkpt>
      <trkpt lat="32.7329913340508937835693359375" lon="-16.87223388813436031341552734375">
        <ele>879</ele>
        <time>2018-06-24T11:36:18.000Z</time>
      </trkpt>
      <trkpt lat="32.7329873107373714447021484375" lon="-16.872253082692623138427734375">
        <ele>880.20001220703125</ele>
        <time>2018-06-24T11:36:22.000Z</time>
      </trkpt>
      <trkpt lat="32.7329832874238491058349609375" lon="-16.87228216789662837982177734375">
        <ele>881.4000244140625</ele>
        <time>2018-06-24T11:36:26.000Z</time>
      </trkpt>
      <trkpt lat="32.73298689164221286773681640625" lon="-16.8723182938992977142333984375">
        <ele>882.4000244140625</ele>
        <time>2018-06-24T11:36:30.000Z</time>
      </trkpt>
      <trkpt lat="32.73298286832869052886962890625" lon="-16.87234654091298580169677734375">
        <ele>883.5999755859375</ele>
        <time>2018-06-24T11:36:34.000Z</time>
      </trkpt>
      <trkpt lat="32.732965014874935150146484375" lon="-16.8723846785724163055419921875">
        <ele>884.4000244140625</ele>
        <time>2018-06-24T11:36:39.000Z</time>
      </trkpt>
      <trkpt lat="32.7329504303634166717529296875" lon="-16.872415356338024139404296875">
        <ele>885.79998779296875</ele>
        <time>2018-06-24T11:36:44.000Z</time>
      </trkpt>
      <trkpt lat="32.7329500950872898101806640625" lon="-16.8724815733730792999267578125">
        <ele>886.79998779296875</ele>
        <time>2018-06-24T11:36:50.000Z</time>
      </trkpt>
      <trkpt lat="32.732946239411830902099609375" lon="-16.87249104492366313934326171875">
        <ele>887</ele>
        <time>2018-06-24T11:36:51.000Z</time>
      </trkpt>
      <trkpt lat="32.73294129408895969390869140625" lon="-16.8725137598812580108642578125">
        <ele>888.4000244140625</ele>
        <time>2018-06-24T11:36:55.000Z</time>
      </trkpt>
      <trkpt lat="32.73292251862585544586181640625" lon="-16.872543431818485260009765625">
        <ele>889.20001220703125</ele>
        <time>2018-06-24T11:37:00.000Z</time>
      </trkpt>
      <trkpt lat="32.73292419500648975372314453125" lon="-16.872585006058216094970703125">
        <ele>890.4000244140625</ele>
        <time>2018-06-24T11:37:05.000Z</time>
      </trkpt>
      <trkpt lat="32.73291665129363536834716796875" lon="-16.872625909745693206787109375">
        <ele>891.5999755859375</ele>
        <time>2018-06-24T11:37:11.000Z</time>
      </trkpt>
      <trkpt lat="32.73290491662919521331787109375" lon="-16.87265616841614246368408203125">
        <ele>892.5999755859375</ele>
        <time>2018-06-24T11:37:16.000Z</time>
      </trkpt>
      <trkpt lat="32.7328900806605815887451171875" lon="-16.8726927973330020904541015625">
        <ele>893.20001220703125</ele>
        <time>2018-06-24T11:37:19.000Z</time>
      </trkpt>
      <trkpt lat="32.73288161493837833404541015625" lon="-16.87272339127957820892333984375">
        <ele>893.5999755859375</ele>
        <time>2018-06-24T11:37:21.000Z</time>
      </trkpt>
      <trkpt lat="32.73287842981517314910888671875" lon="-16.87273420393466949462890625">
        <ele>893.5999755859375</ele>
        <time>2018-06-24T11:37:22.000Z</time>
      </trkpt>
      <trkpt lat="32.73285739123821258544921875" lon="-16.87276345677673816680908203125">
        <ele>894.79998779296875</ele>
        <time>2018-06-24T11:37:26.000Z</time>
      </trkpt>
      <trkpt lat="32.7328555472195148468017578125" lon="-16.87276764772832393646240234375">
        <ele>895</ele>
        <time>2018-06-24T11:37:27.000Z</time>
      </trkpt>
      <trkpt lat="32.7328441478312015533447265625" lon="-16.872805617749691009521484375">
        <ele>896</ele>
        <time>2018-06-24T11:37:33.000Z</time>
      </trkpt>
      <trkpt lat="32.73282160051167011260986328125" lon="-16.872831769287586212158203125">
        <ele>897.20001220703125</ele>
        <time>2018-06-24T11:37:37.000Z</time>
      </trkpt>
      <trkpt lat="32.73278589360415935516357421875" lon="-16.87287812121212482452392578125">
        <ele>898</ele>
        <time>2018-06-24T11:37:42.000Z</time>
      </trkpt>
      <trkpt lat="32.73273040540516376495361328125" lon="-16.8729345314204692840576171875">
        <ele>899.20001220703125</ele>
        <time>2018-06-24T11:37:47.000Z</time>
      </trkpt>
      <trkpt lat="32.73272336460649967193603515625" lon="-16.87293939292430877685546875">
        <ele>899.5999755859375</ele>
        <time>2018-06-24T11:37:48.000Z</time>
      </trkpt>
      <trkpt lat="32.73268883116543292999267578125" lon="-16.8729694001376628875732421875">
        <ele>900.5999755859375</ele>
        <time>2018-06-24T11:37:51.000Z</time>
      </trkpt>
      <trkpt lat="32.73267726413905620574951171875" lon="-16.872977279126644134521484375">
        <ele>900.79998779296875</ele>
        <time>2018-06-24T11:37:53.000Z</time>
      </trkpt>
      <trkpt lat="32.7326661162078380584716796875" lon="-16.8729921989142894744873046875">
        <ele>901.5999755859375</ele>
        <time>2018-06-24T11:37:55.000Z</time>
      </trkpt>
      <trkpt lat="32.73263568989932537078857421875" lon="-16.8730258941650390625">
        <ele>902.5999755859375</ele>
        <time>2018-06-24T11:37:59.000Z</time>
      </trkpt>
      <trkpt lat="32.73262144066393375396728515625" lon="-16.873037628829479217529296875">
        <ele>903.20001220703125</ele>
        <time>2018-06-24T11:38:01.000Z</time>
      </trkpt>
      <trkpt lat="32.73260735906660556793212890625" lon="-16.87305095605552196502685546875">
        <ele>904.20001220703125</ele>
        <time>2018-06-24T11:38:04.000Z</time>
      </trkpt>
      <trkpt lat="32.73257198743522167205810546875" lon="-16.87309688888490200042724609375">
        <ele>905.20001220703125</ele>
        <time>2018-06-24T11:38:08.000Z</time>
      </trkpt>
      <trkpt lat="32.7325403876602649688720703125" lon="-16.87313854694366455078125">
        <ele>905.79998779296875</ele>
        <time>2018-06-24T11:38:10.000Z</time>
      </trkpt>
      <trkpt lat="32.732505016028881072998046875" lon="-16.87318825162947177886962890625">
        <ele>906.4000244140625</ele>
        <time>2018-06-24T11:38:12.000Z</time>
      </trkpt>
      <trkpt lat="32.732477523386478424072265625" lon="-16.87321641482412815093994140625">
        <ele>906.79998779296875</ele>
        <time>2018-06-24T11:38:15.000Z</time>
      </trkpt>
      <trkpt lat="32.7324651181697845458984375" lon="-16.87323711812496185302734375">
        <ele>907.5999755859375</ele>
        <time>2018-06-24T11:38:17.000Z</time>
      </trkpt>
      <trkpt lat="32.7324455045163631439208984375" lon="-16.87328347004950046539306640625">
        <ele>908.5999755859375</ele>
        <time>2018-06-24T11:38:22.000Z</time>
      </trkpt>
      <trkpt lat="32.732445336878299713134765625" lon="-16.873296797275543212890625">
        <ele>908.79998779296875</ele>
        <time>2018-06-24T11:38:23.000Z</time>
      </trkpt>
      <trkpt lat="32.73244039155542850494384765625" lon="-16.87333845533430576324462890625">
        <ele>909.4000244140625</ele>
        <time>2018-06-24T11:38:27.000Z</time>
      </trkpt>
      <trkpt lat="32.73243536241352558135986328125" lon="-16.87334935180842876434326171875">
        <ele>909.4000244140625</ele>
        <time>2018-06-24T11:38:28.000Z</time>
      </trkpt>
      <trkpt lat="32.73243016563355922698974609375" lon="-16.8733811192214488983154296875">
        <ele>910.20001220703125</ele>
        <time>2018-06-24T11:38:31.000Z</time>
      </trkpt>
      <trkpt lat="32.732431255280971527099609375" lon="-16.87338924966752529144287109375">
        <ele>910.5999755859375</ele>
        <time>2018-06-24T11:38:32.000Z</time>
      </trkpt>
      <trkpt lat="32.7324344404041767120361328125" lon="-16.87340601347386837005615234375">
        <ele>911.20001220703125</ele>
        <time>2018-06-24T11:38:33.000Z</time>
      </trkpt>
      <trkpt lat="32.7324233762919902801513671875" lon="-16.87347960658371448516845703125">
        <ele>911.5999755859375</ele>
        <time>2018-06-24T11:38:37.000Z</time>
      </trkpt>
      <trkpt lat="32.73241348564624786376953125" lon="-16.87358915805816650390625">
        <ele>913</ele>
        <time>2018-06-24T11:38:44.000Z</time>
      </trkpt>
      <trkpt lat="32.7324109710752964019775390625" lon="-16.8736325763165950775146484375">
        <ele>913.5999755859375</ele>
        <time>2018-06-24T11:38:48.000Z</time>
      </trkpt>
      <trkpt lat="32.73239881731569766998291015625" lon="-16.87365059740841388702392578125">
        <ele>913.79998779296875</ele>
        <time>2018-06-24T11:38:50.000Z</time>
      </trkpt>
      <trkpt lat="32.73238607682287693023681640625" lon="-16.87369585968554019927978515625">
        <ele>914.79998779296875</ele>
        <time>2018-06-24T11:38:54.000Z</time>
      </trkpt>
      <trkpt lat="32.7323814667761325836181640625" lon="-16.87370943836867809295654296875">
        <ele>915</ele>
        <time>2018-06-24T11:38:55.000Z</time>
      </trkpt>
      <trkpt lat="32.73237970657646656036376953125" lon="-16.8737237714231014251708984375">
        <ele>915.4000244140625</ele>
        <time>2018-06-24T11:38:56.000Z</time>
      </trkpt>
      <trkpt lat="32.732364870607852935791015625" lon="-16.87377816997468471527099609375">
        <ele>916.20001220703125</ele>
        <time>2018-06-24T11:39:00.000Z</time>
      </trkpt>
      <trkpt lat="32.732338048517704010009765625" lon="-16.87380868010222911834716796875">
        <ele>916.79998779296875</ele>
        <time>2018-06-24T11:39:03.000Z</time>
      </trkpt>
      <trkpt lat="32.7323227934539318084716796875" lon="-16.87382142059504985809326171875">
        <ele>917.20001220703125</ele>
        <time>2018-06-24T11:39:05.000Z</time>
      </trkpt>
      <trkpt lat="32.7323123998939990997314453125" lon="-16.87385478056967258453369140625">
        <ele>918.5999755859375</ele>
        <time>2018-06-24T11:39:09.000Z</time>
      </trkpt>
      <trkpt lat="32.732314579188823699951171875" lon="-16.87392569147050380706787109375">
        <ele>919.5999755859375</ele>
        <time>2018-06-24T11:39:14.000Z</time>
      </trkpt>
      <trkpt lat="32.73230485618114471435546875" lon="-16.8739869631826877593994140625">
        <ele>920.5999755859375</ele>
        <time>2018-06-24T11:39:19.000Z</time>
      </trkpt>
      <trkpt lat="32.732304520905017852783203125" lon="-16.87404119409620761871337890625">
        <ele>921.5999755859375</ele>
        <time>2018-06-24T11:39:24.000Z</time>
      </trkpt>
      <trkpt lat="32.73229404352605342864990234375" lon="-16.87407203949987888336181640625">
        <ele>922.79998779296875</ele>
        <time>2018-06-24T11:39:28.000Z</time>
      </trkpt>
      <trkpt lat="32.73229052312672138214111328125" lon="-16.874101459980010986328125">
        <ele>923.79998779296875</ele>
        <time>2018-06-24T11:39:32.000Z</time>
      </trkpt>
      <trkpt lat="32.73230141960084438323974609375" lon="-16.87415166758000850677490234375">
        <ele>925</ele>
        <time>2018-06-24T11:39:36.000Z</time>
      </trkpt>
      <trkpt lat="32.73231080733239650726318359375" lon="-16.87420497648417949676513671875">
        <ele>926.20001220703125</ele>
        <time>2018-06-24T11:39:40.000Z</time>
      </trkpt>
      <trkpt lat="32.73231449536979198455810546875" lon="-16.874254010617733001708984375">
        <ele>927.20001220703125</ele>
        <time>2018-06-24T11:39:44.000Z</time>
      </trkpt>
      <trkpt lat="32.73232237435877323150634765625" lon="-16.8742820061743259429931640625">
        <ele>927.5999755859375</ele>
        <time>2018-06-24T11:39:47.000Z</time>
      </trkpt>
      <trkpt lat="32.73232673294842243194580078125" lon="-16.874312348663806915283203125">
        <ele>928.4000244140625</ele>
        <time>2018-06-24T11:39:49.000Z</time>
      </trkpt>
      <trkpt lat="32.73232438601553440093994140625" lon="-16.87433422543108463287353515625">
        <ele>929</ele>
        <time>2018-06-24T11:39:51.000Z</time>
      </trkpt>
      <trkpt lat="32.7323229610919952392578125" lon="-16.87434327788650989532470703125">
        <ele>929.20001220703125</ele>
        <time>2018-06-24T11:39:52.000Z</time>
      </trkpt>
      <trkpt lat="32.73232354782521724700927734375" lon="-16.87440848909318447113037109375">
        <ele>930.20001220703125</ele>
        <time>2018-06-24T11:39:59.000Z</time>
      </trkpt>
      <trkpt lat="32.7323271520435810089111328125" lon="-16.8744167871773242950439453125">
        <ele>930.5999755859375</ele>
        <time>2018-06-24T11:40:01.000Z</time>
      </trkpt>
      <trkpt lat="32.732330001890659332275390625" lon="-16.87447370029985904693603515625">
        <ele>931.5999755859375</ele>
        <time>2018-06-24T11:40:08.000Z</time>
      </trkpt>
      <trkpt lat="32.73232522420585155487060546875" lon="-16.8745046295225620269775390625">
        <ele>931.79998779296875</ele>
        <time>2018-06-24T11:40:11.000Z</time>
      </trkpt>
      <trkpt lat="32.7323375456035137176513671875" lon="-16.8745472095906734466552734375">
        <ele>932.4000244140625</ele>
        <time>2018-06-24T11:40:15.000Z</time>
      </trkpt>
      <trkpt lat="32.732335031032562255859375" lon="-16.874578893184661865234375">
        <ele>932.79998779296875</ele>
        <time>2018-06-24T11:40:17.000Z</time>
      </trkpt>
      <trkpt lat="32.7323271520435810089111328125" lon="-16.87460906803607940673828125">
        <ele>933.5999755859375</ele>
        <time>2018-06-24T11:40:19.000Z</time>
      </trkpt>
      <trkpt lat="32.7323298342525959014892578125" lon="-16.87465391121804714202880859375">
        <ele>935</ele>
        <time>2018-06-24T11:40:23.000Z</time>
      </trkpt>
      <trkpt lat="32.73232941515743732452392578125" lon="-16.87469263561069965362548828125">
        <ele>935.5999755859375</ele>
        <time>2018-06-24T11:40:26.000Z</time>
      </trkpt>
      <trkpt lat="32.7323328517377376556396484375" lon="-16.8747145123779773712158203125">
        <ele>936</ele>
        <time>2018-06-24T11:40:27.000Z</time>
      </trkpt>
      <trkpt lat="32.73234165273606777191162109375" lon="-16.8747510574758052825927734375">
        <ele>936.5999755859375</ele>
        <time>2018-06-24T11:40:29.000Z</time>
      </trkpt>
      <trkpt lat="32.73237300105392932891845703125" lon="-16.8748171068727970123291015625">
        <ele>937</ele>
        <time>2018-06-24T11:40:33.000Z</time>
      </trkpt>
      <trkpt lat="32.73240887559950351715087890625" lon="-16.87486262060701847076416015625">
        <ele>937.79998779296875</ele>
        <time>2018-06-24T11:40:37.000Z</time>
      </trkpt>
      <trkpt lat="32.73243100382387638092041015625" lon="-16.874883659183979034423828125">
        <ele>938.5999755859375</ele>
        <time>2018-06-24T11:40:39.000Z</time>
      </trkpt>
      <trkpt lat="32.7324444986879825592041015625" lon="-16.8749046139419078826904296875">
        <ele>939.5999755859375</ele>
        <time>2018-06-24T11:40:41.000Z</time>
      </trkpt>
      <trkpt lat="32.7324758470058441162109375" lon="-16.8749599345028400421142578125">
        <ele>939.79998779296875</ele>
        <time>2018-06-24T11:40:47.000Z</time>
      </trkpt>
      <trkpt lat="32.732418514788150787353515625" lon="-16.8750013411045074462890625">
        <ele>940.5999755859375</ele>
        <time>2018-06-24T11:41:12.000Z</time>
      </trkpt>
      <trkpt lat="32.7324052713811397552490234375" lon="-16.87499974854290485382080078125">
        <ele>941</ele>
        <time>2018-06-24T11:41:27.000Z</time>
      </trkpt>
      <trkpt lat="32.7324069477617740631103515625" lon="-16.87500092200934886932373046875">
        <ele>940.5999755859375</ele>
        <time>2018-06-24T11:41:31.000Z</time>
      </trkpt>
      <trkpt lat="32.73236914537847042083740234375" lon="-16.87505020759999752044677734375">
        <ele>941.79998779296875</ele>
        <time>2018-06-24T11:41:44.000Z</time>
      </trkpt>
      <trkpt lat="32.73235959000885486602783203125" lon="-16.875084154307842254638671875">
        <ele>942.20001220703125</ele>
        <time>2018-06-24T11:41:47.000Z</time>
      </trkpt>
      <trkpt lat="32.73234517313539981842041015625" lon="-16.87510502524673938751220703125">
        <ele>943</ele>
        <time>2018-06-24T11:41:49.000Z</time>
      </trkpt>
      <trkpt lat="32.7323254756629467010498046875" lon="-16.8751473538577556610107421875">
        <ele>944</ele>
        <time>2018-06-24T11:41:54.000Z</time>
      </trkpt>
      <trkpt lat="32.7323231287300586700439453125" lon="-16.87523393891751766204833984375">
        <ele>945</ele>
        <time>2018-06-24T11:42:00.000Z</time>
      </trkpt>
      <trkpt lat="32.7323254756629467010498046875" lon="-16.8752801232039928436279296875">
        <ele>945.79998779296875</ele>
        <time>2018-06-24T11:42:04.000Z</time>
      </trkpt>
      <trkpt lat="32.73233360610902309417724609375" lon="-16.87534935772418975830078125">
        <ele>947</ele>
        <time>2018-06-24T11:42:09.000Z</time>
      </trkpt>
      <trkpt lat="32.7323395572602748870849609375" lon="-16.87541783787310123443603515625">
        <ele>948.4000244140625</ele>
        <time>2018-06-24T11:42:14.000Z</time>
      </trkpt>
      <trkpt lat="32.732329666614532470703125" lon="-16.87550098635256290435791015625">
        <ele>949.4000244140625</ele>
        <time>2018-06-24T11:42:20.000Z</time>
      </trkpt>
      <trkpt lat="32.73231700994074344635009765625" lon="-16.87557005323469638824462890625">
        <ele>950.4000244140625</ele>
        <time>2018-06-24T11:42:24.000Z</time>
      </trkpt>
      <trkpt lat="32.73229270242154598236083984375" lon="-16.87564029358327388763427734375">
        <ele>951.5999755859375</ele>
        <time>2018-06-24T11:42:29.000Z</time>
      </trkpt>
      <trkpt lat="32.732278369367122650146484375" lon="-16.875703744590282440185546875">
        <ele>952.79998779296875</ele>
        <time>2018-06-24T11:42:34.000Z</time>
      </trkpt>
      <trkpt lat="32.7322845719754695892333984375" lon="-16.87579284422099590301513671875">
        <ele>954</ele>
        <time>2018-06-24T11:42:39.000Z</time>
      </trkpt>
      <trkpt lat="32.7322815544903278350830078125" lon="-16.87590298242866992950439453125">
        <ele>955.4000244140625</ele>
        <time>2018-06-24T11:42:45.000Z</time>
      </trkpt>
      <trkpt lat="32.73226956836879253387451171875" lon="-16.87598772346973419189453125">
        <ele>956.20001220703125</ele>
        <time>2018-06-24T11:42:50.000Z</time>
      </trkpt>
      <trkpt lat="32.73229052312672138214111328125" lon="-16.87608436681330204010009765625">
        <ele>957.20001220703125</ele>
        <time>2018-06-24T11:42:56.000Z</time>
      </trkpt>
      <trkpt lat="32.732318602502346038818359375" lon="-16.87622669152915477752685546875">
        <ele>958.4000244140625</ele>
        <time>2018-06-24T11:43:05.000Z</time>
      </trkpt>
      <trkpt lat="32.73232472129166126251220703125" lon="-16.87637739814817905426025390625">
        <ele>959.4000244140625</ele>
        <time>2018-06-24T11:43:12.000Z</time>
      </trkpt>
      <trkpt lat="32.7323204465210437774658203125" lon="-16.87639810144901275634765625">
        <ele>959.4000244140625</ele>
        <time>2018-06-24T11:43:13.000Z</time>
      </trkpt>
      <trkpt lat="32.7323095500469207763671875" lon="-16.87651787884533405303955078125">
        <ele>960.5999755859375</ele>
        <time>2018-06-24T11:43:20.000Z</time>
      </trkpt>
      <trkpt lat="32.73231198079884052276611328125" lon="-16.8765330500900745391845703125">
        <ele>960.5999755859375</ele>
        <time>2018-06-24T11:43:21.000Z</time>
      </trkpt>
      <trkpt lat="32.7323149144649505615234375" lon="-16.876664645969867706298828125">
        <ele>961</ele>
        <time>2018-06-24T11:43:27.000Z</time>
      </trkpt>
      <trkpt lat="32.7323083765804767608642578125" lon="-16.8767040409147739410400390625">
        <ele>961.4000244140625</ele>
        <time>2018-06-24T11:43:29.000Z</time>
      </trkpt>
      <trkpt lat="32.73230628110468387603759765625" lon="-16.8767208047211170196533203125">
        <ele>961.5999755859375</ele>
        <time>2018-06-24T11:43:30.000Z</time>
      </trkpt>
      <trkpt lat="32.7322989888489246368408203125" lon="-16.87674678862094879150390625">
        <ele>961.5999755859375</ele>
        <time>2018-06-24T11:43:32.000Z</time>
      </trkpt>
      <trkpt lat="32.7322929538786411285400390625" lon="-16.876755841076374053955078125">
        <ele>961.79998779296875</ele>
        <time>2018-06-24T11:43:34.000Z</time>
      </trkpt>
      <trkpt lat="32.73227040655910968780517578125" lon="-16.87682448886334896087646484375">
        <ele>962.79998779296875</ele>
        <time>2018-06-24T11:43:46.000Z</time>
      </trkpt>
      <trkpt lat="32.73224609903991222381591796875" lon="-16.876786686480045318603515625">
        <ele>963.79998779296875</ele>
        <time>2018-06-24T11:43:50.000Z</time>
      </trkpt>
      <trkpt lat="32.73219681344926357269287109375" lon="-16.87677268870174884796142578125">
        <ele>965</ele>
        <time>2018-06-24T11:43:55.000Z</time>
      </trkpt>
      <trkpt lat="32.73215054534375667572021484375" lon="-16.876753829419612884521484375">
        <ele>966</ele>
        <time>2018-06-24T11:43:59.000Z</time>
      </trkpt>
      <trkpt lat="32.73211165331304073333740234375" lon="-16.87672792933881282806396484375">
        <ele>967</ele>
        <time>2018-06-24T11:44:04.000Z</time>
      </trkpt>
      <trkpt lat="32.73210234940052032470703125" lon="-16.8767144344747066497802734375">
        <ele>967.79998779296875</ele>
        <time>2018-06-24T11:44:06.000Z</time>
      </trkpt>
      <trkpt lat="32.7321021817624568939208984375" lon="-16.87669356353580951690673828125">
        <ele>968.20001220703125</ele>
        <time>2018-06-24T11:44:08.000Z</time>
      </trkpt>
      <trkpt lat="32.73208768106997013092041015625" lon="-16.8766802363097667694091796875">
        <ele>968.79998779296875</ele>
        <time>2018-06-24T11:44:10.000Z</time>
      </trkpt>
      <trkpt lat="32.732077874243259429931640625" lon="-16.8766715191304683685302734375">
        <ele>969</ele>
        <time>2018-06-24T11:44:11.000Z</time>
      </trkpt>
      <trkpt lat="32.73206857033073902130126953125" lon="-16.87666389159858226776123046875">
        <ele>969.20001220703125</ele>
        <time>2018-06-24T11:44:12.000Z</time>
      </trkpt>
      <trkpt lat="32.7320582605898380279541015625" lon="-16.87665835954248905181884765625">
        <ele>969.4000244140625</ele>
        <time>2018-06-24T11:44:13.000Z</time>
      </trkpt>
      <trkpt lat="32.73198357783257961273193359375" lon="-16.8766564317047595977783203125">
        <ele>970.5999755859375</ele>
        <time>2018-06-24T11:44:19.000Z</time>
      </trkpt>
      <trkpt lat="32.73194367997348308563232421875" lon="-16.87668417580425739288330078125">
        <ele>971.79998779296875</ele>
        <time>2018-06-24T11:44:24.000Z</time>
      </trkpt>
      <trkpt lat="32.7319295145571231842041015625" lon="-16.87669088132679462432861328125">
        <ele>972</ele>
        <time>2018-06-24T11:44:26.000Z</time>
      </trkpt>
      <trkpt lat="32.7318929694592952728271484375" lon="-16.8767224811017513275146484375">
        <ele>972.79998779296875</ele>
        <time>2018-06-24T11:44:30.000Z</time>
      </trkpt>
      <trkpt lat="32.7318627946078777313232421875" lon="-16.876774616539478302001953125">
        <ele>973.79998779296875</ele>
        <time>2018-06-24T11:44:36.000Z</time>
      </trkpt>
      <trkpt lat="32.7318517304956912994384765625" lon="-16.87678702175617218017578125">
        <ele>974.20001220703125</ele>
        <time>2018-06-24T11:44:38.000Z</time>
      </trkpt>
      <trkpt lat="32.73184728808701038360595703125" lon="-16.87681174837052822113037109375">
        <ele>974.5999755859375</ele>
        <time>2018-06-24T11:44:41.000Z</time>
      </trkpt>
      <trkpt lat="32.7318482100963592529296875" lon="-16.876821555197238922119140625">
        <ele>974.79998779296875</ele>
        <time>2018-06-24T11:44:42.000Z</time>
      </trkpt>
      <trkpt lat="32.73184661753475666046142578125" lon="-16.87685365788638591766357421875">
        <ele>975.20001220703125</ele>
        <time>2018-06-24T11:44:44.000Z</time>
      </trkpt>
      <trkpt lat="32.7318460308015346527099609375" lon="-16.87687360681593418121337890625">
        <ele>975.5999755859375</ele>
        <time>2018-06-24T11:44:46.000Z</time>
      </trkpt>
      <trkpt lat="32.7318413369357585906982421875" lon="-16.87688768841326236724853515625">
        <ele>976</ele>
        <time>2018-06-24T11:44:48.000Z</time>
      </trkpt>
      <trkpt lat="32.731838487088680267333984375" lon="-16.87689238227903842926025390625">
        <ele>976.20001220703125</ele>
        <time>2018-06-24T11:44:49.000Z</time>
      </trkpt>
      <trkpt lat="32.73180973716080188751220703125" lon="-16.87689162790775299072265625">
        <ele>977</ele>
        <time>2018-06-24T11:44:52.000Z</time>
      </trkpt>
      <trkpt lat="32.731772772967815399169921875" lon="-16.87692708335816860198974609375">
        <ele>978.20001220703125</ele>
        <time>2018-06-24T11:44:57.000Z</time>
      </trkpt>
      <trkpt lat="32.73171904496848583221435546875" lon="-16.87695558182895183563232421875">
        <ele>979.20001220703125</ele>
        <time>2018-06-24T11:45:01.000Z</time>
      </trkpt>
      <trkpt lat="32.73170999251306056976318359375" lon="-16.8769655562937259674072265625">
        <ele>979.4000244140625</ele>
        <time>2018-06-24T11:45:02.000Z</time>
      </trkpt>
      <trkpt lat="32.73169389925897121429443359375" lon="-16.877027414739131927490234375">
        <ele>980.4000244140625</ele>
        <time>2018-06-24T11:45:07.000Z</time>
      </trkpt>
      <trkpt lat="32.7316819131374359130859375" lon="-16.877040825784206390380859375">
        <ele>981</ele>
        <time>2018-06-24T11:45:09.000Z</time>
      </trkpt>
      <trkpt lat="32.7316659875214099884033203125" lon="-16.877051554620265960693359375">
        <ele>981.4000244140625</ele>
        <time>2018-06-24T11:45:11.000Z</time>
      </trkpt>
      <trkpt lat="32.73164226673543453216552734375" lon="-16.877071671187877655029296875">
        <ele>981.79998779296875</ele>
        <time>2018-06-24T11:45:13.000Z</time>
      </trkpt>
      <trkpt lat="32.7316041290760040283203125" lon="-16.8770988285541534423828125">
        <ele>982.5999755859375</ele>
        <time>2018-06-24T11:45:17.000Z</time>
      </trkpt>
      <trkpt lat="32.73156054317951202392578125" lon="-16.8771134130656719207763671875">
        <ele>983.5999755859375</ele>
        <time>2018-06-24T11:45:21.000Z</time>
      </trkpt>
      <trkpt lat="32.73154771886765956878662109375" lon="-16.8771147541701793670654296875">
        <ele>983.5999755859375</ele>
        <time>2018-06-24T11:45:22.000Z</time>
      </trkpt>
      <trkpt lat="32.73154134862124919891357421875" lon="-16.8771140836179256439208984375">
        <ele>983.79998779296875</ele>
        <time>2018-06-24T11:45:23.000Z</time>
      </trkpt>
      <trkpt lat="32.73151184432208538055419921875" lon="-16.87710762955248355865478515625">
        <ele>984.5999755859375</ele>
        <time>2018-06-24T11:45:27.000Z</time>
      </trkpt>
      <trkpt lat="32.73150413297116756439208984375" lon="-16.87711156904697418212890625">
        <ele>984.79998779296875</ele>
        <time>2018-06-24T11:45:28.000Z</time>
      </trkpt>
      <trkpt lat="32.7314886264503002166748046875" lon="-16.87711827456951141357421875">
        <ele>985.20001220703125</ele>
        <time>2018-06-24T11:45:30.000Z</time>
      </trkpt>
      <trkpt lat="32.731458283960819244384765625" lon="-16.87713579274713993072509765625">
        <ele>986</ele>
        <time>2018-06-24T11:45:33.000Z</time>
      </trkpt>
      <trkpt lat="32.73144395090639591217041015625" lon="-16.87712321989238262176513671875">
        <ele>986.4000244140625</ele>
        <time>2018-06-24T11:45:35.000Z</time>
      </trkpt>
      <trkpt lat="32.73140723817050457000732421875" lon="-16.8771207891404628753662109375">
        <ele>987</ele>
        <time>2018-06-24T11:45:38.000Z</time>
      </trkpt>
      <trkpt lat="32.7313950844109058380126953125" lon="-16.87712766230106353759765625">
        <ele>987.20001220703125</ele>
        <time>2018-06-24T11:45:39.000Z</time>
      </trkpt>
      <trkpt lat="32.7313494868576526641845703125" lon="-16.877143085002899169921875">
        <ele>988</ele>
        <time>2018-06-24T11:45:42.000Z</time>
      </trkpt>
      <trkpt lat="32.731340266764163970947265625" lon="-16.87714752741158008575439453125">
        <ele>988.20001220703125</ele>
        <time>2018-06-24T11:45:43.000Z</time>
      </trkpt>
      <trkpt lat="32.7313186414539813995361328125" lon="-16.87715020962059497833251953125">
        <ele>988.79998779296875</ele>
        <time>2018-06-24T11:45:45.000Z</time>
      </trkpt>
      <trkpt lat="32.7312908135354518890380859375" lon="-16.87714953906834125518798828125">
        <ele>989.20001220703125</ele>
        <time>2018-06-24T11:45:47.000Z</time>
      </trkpt>
      <trkpt lat="32.73125552572309970855712890625" lon="-16.87715582549571990966796875">
        <ele>989.79998779296875</ele>
        <time>2018-06-24T11:45:50.000Z</time>
      </trkpt>
      <trkpt lat="32.73123172111809253692626953125" lon="-16.87716965563595294952392578125">
        <ele>990.4000244140625</ele>
        <time>2018-06-24T11:45:52.000Z</time>
      </trkpt>
      <trkpt lat="32.73107648827135562896728515625" lon="-16.87723226845264434814453125">
        <ele>991.5999755859375</ele>
        <time>2018-06-24T11:46:02.000Z</time>
      </trkpt>
      <trkpt lat="32.731063663959503173828125" lon="-16.87724643386900424957275390625">
        <ele>991.79998779296875</ele>
        <time>2018-06-24T11:46:03.000Z</time>
      </trkpt>
      <trkpt lat="32.73100373335182666778564453125" lon="-16.8773294985294342041015625">
        <ele>992.5999755859375</ele>
        <time>2018-06-24T11:46:08.000Z</time>
      </trkpt>
      <trkpt lat="32.73098931647837162017822265625" lon="-16.877353303134441375732421875">
        <ele>993</ele>
        <time>2018-06-24T11:46:10.000Z</time>
      </trkpt>
      <trkpt lat="32.7309595607221126556396484375" lon="-16.87742362730205059051513671875">
        <ele>993.79998779296875</ele>
        <time>2018-06-24T11:46:14.000Z</time>
      </trkpt>
      <trkpt lat="32.7309300564229488372802734375" lon="-16.8774590827524662017822265625">
        <ele>994</ele>
        <time>2018-06-24T11:46:16.000Z</time>
      </trkpt>
      <trkpt lat="32.73090465925633907318115234375" lon="-16.8774976395070552825927734375">
        <ele>994.79998779296875</ele>
        <time>2018-06-24T11:46:19.000Z</time>
      </trkpt>
      <trkpt lat="32.73090113885700702667236328125" lon="-16.87750828452408313751220703125">
        <ele>995</ele>
        <time>2018-06-24T11:46:20.000Z</time>
      </trkpt>
      <trkpt lat="32.7309002168476581573486328125" lon="-16.877526976168155670166015625">
        <ele>995.20001220703125</ele>
        <time>2018-06-24T11:46:22.000Z</time>
      </trkpt>
      <trkpt lat="32.73088739253580570220947265625" lon="-16.8775372020900249481201171875">
        <ele>995.4000244140625</ele>
        <time>2018-06-24T11:46:24.000Z</time>
      </trkpt>
      <trkpt lat="32.7308636717498302459716796875" lon="-16.87756008468568325042724609375">
        <ele>995.4000244140625</ele>
        <time>2018-06-24T11:46:27.000Z</time>
      </trkpt>
      <trkpt lat="32.73084833286702632904052734375" lon="-16.87759377993643283843994140625">
        <ele>995.79998779296875</ele>
        <time>2018-06-24T11:46:29.000Z</time>
      </trkpt>
      <trkpt lat="32.7308281324803829193115234375" lon="-16.87762797810137271881103515625">
        <ele>996</ele>
        <time>2018-06-24T11:46:31.000Z</time>
      </trkpt>
      <trkpt lat="32.7307775057852268218994140625" lon="-16.8777640163898468017578125">
        <ele>997.20001220703125</ele>
        <time>2018-06-24T11:46:38.000Z</time>
      </trkpt>
      <trkpt lat="32.7307645976543426513671875" lon="-16.87783568166196346282958984375">
        <ele>998.4000244140625</ele>
        <time>2018-06-24T11:46:42.000Z</time>
      </trkpt>
      <trkpt lat="32.73074674420058727264404296875" lon="-16.87787675298750400543212890625">
        <ele>999.20001220703125</ele>
        <time>2018-06-24T11:46:45.000Z</time>
      </trkpt>
      <trkpt lat="32.7307466603815555572509765625" lon="-16.87790290452539920806884765625">
        <ele>999.5999755859375</ele>
        <time>2018-06-24T11:46:47.000Z</time>
      </trkpt>
      <trkpt lat="32.7307540364563465118408203125" lon="-16.877962164580821990966796875">
        <ele>1000.79998779296875</ele>
        <time>2018-06-24T11:46:53.000Z</time>
      </trkpt>
      <trkpt lat="32.7307480014860630035400390625" lon="-16.8779891543090343475341796875">
        <ele>1001.20001220703125</ele>
        <time>2018-06-24T11:46:55.000Z</time>
      </trkpt>
      <trkpt lat="32.730690501630306243896484375" lon="-16.8780448101460933685302734375">
        <ele>1001.79998779296875</ele>
        <time>2018-06-24T11:47:01.000Z</time>
      </trkpt>
      <trkpt lat="32.73068480193614959716796875" lon="-16.87805436551570892333984375">
        <ele>1002</ele>
        <time>2018-06-24T11:47:02.000Z</time>
      </trkpt>
      <trkpt lat="32.73065538145601749420166015625" lon="-16.8780880607664585113525390625">
        <ele>1003</ele>
        <time>2018-06-24T11:47:06.000Z</time>
      </trkpt>
      <trkpt lat="32.7306142263114452362060546875" lon="-16.878139190375804901123046875">
        <ele>1003.79998779296875</ele>
        <time>2018-06-24T11:47:10.000Z</time>
      </trkpt>
      <trkpt lat="32.73060844279825687408447265625" lon="-16.8781490810215473175048828125">
        <ele>1004.20001220703125</ele>
        <time>2018-06-24T11:47:11.000Z</time>
      </trkpt>
      <trkpt lat="32.73056083358824253082275390625" lon="-16.87819945625960826873779296875">
        <ele>1005.20001220703125</ele>
        <time>2018-06-24T11:47:17.000Z</time>
      </trkpt>
      <trkpt lat="32.73051590658724308013916015625" lon="-16.8782697804272174835205078125">
        <ele>1006.4000244140625</ele>
        <time>2018-06-24T11:47:22.000Z</time>
      </trkpt>
      <trkpt lat="32.73048053495585918426513671875" lon="-16.87836038880050182342529296875">
        <ele>1007.4000244140625</ele>
        <time>2018-06-24T11:47:27.000Z</time>
      </trkpt>
      <trkpt lat="32.7304683811962604522705078125" lon="-16.87839073128998279571533203125">
        <ele>1008</ele>
        <time>2018-06-24T11:47:30.000Z</time>
      </trkpt>
      <trkpt lat="32.7304496057331562042236328125" lon="-16.87842627055943012237548828125">
        <ele>1008.4000244140625</ele>
        <time>2018-06-24T11:47:32.000Z</time>
      </trkpt>
      <trkpt lat="32.730430327355861663818359375" lon="-16.878457702696323394775390625">
        <ele>1009</ele>
        <time>2018-06-24T11:47:34.000Z</time>
      </trkpt>
      <trkpt lat="32.7304201014339923858642578125" lon="-16.87850288115441799163818359375">
        <ele>1009.4000244140625</ele>
        <time>2018-06-24T11:47:37.000Z</time>
      </trkpt>
      <trkpt lat="32.73037207312881946563720703125" lon="-16.8785698525607585906982421875">
        <ele>1010.20001220703125</ele>
        <time>2018-06-24T11:47:42.000Z</time>
      </trkpt>
      <trkpt lat="32.7303577400743961334228515625" lon="-16.87860296107828617095947265625">
        <ele>1010.4000244140625</ele>
        <time>2018-06-24T11:47:44.000Z</time>
      </trkpt>
      <trkpt lat="32.73034952580928802490234375" lon="-16.87861335463821887969970703125">
        <ele>1010.5999755859375</ele>
        <time>2018-06-24T11:47:45.000Z</time>
      </trkpt>
      <trkpt lat="32.73033921606838703155517578125" lon="-16.87863372266292572021484375">
        <ele>1011</ele>
        <time>2018-06-24T11:47:47.000Z</time>
      </trkpt>
      <trkpt lat="32.73030929267406463623046875" lon="-16.87862693332135677337646484375">
        <ele>1011.20001220703125</ele>
        <time>2018-06-24T11:47:49.000Z</time>
      </trkpt>
      <trkpt lat="32.7302871644496917724609375" lon="-16.87863196246325969696044921875">
        <ele>1011.5999755859375</ele>
        <time>2018-06-24T11:47:51.000Z</time>
      </trkpt>
      <trkpt lat="32.73022823967039585113525390625" lon="-16.87864185310900211334228515625">
        <ele>1012.5999755859375</ele>
        <time>2018-06-24T11:47:59.000Z</time>
      </trkpt>
      <trkpt lat="32.73017928935587406158447265625" lon="-16.87867001630365848541259765625">
        <ele>1013.79998779296875</ele>
        <time>2018-06-24T11:48:03.000Z</time>
      </trkpt>
      <trkpt lat="32.7301713265478610992431640625" lon="-16.87867462635040283203125">
        <ele>1014</ele>
        <time>2018-06-24T11:48:04.000Z</time>
      </trkpt>
      <trkpt lat="32.730160765349864959716796875" lon="-16.87868979759514331817626953125">
        <ele>1014.5999755859375</ele>
        <time>2018-06-24T11:48:06.000Z</time>
      </trkpt>
      <trkpt lat="32.7301475219428539276123046875" lon="-16.87870538793504238128662109375">
        <ele>1014.79998779296875</ele>
        <time>2018-06-24T11:48:09.000Z</time>
      </trkpt>
      <trkpt lat="32.73010821081697940826416015625" lon="-16.8787559308111667633056640625">
        <ele>1015.79998779296875</ele>
        <time>2018-06-24T11:48:13.000Z</time>
      </trkpt>
      <trkpt lat="32.73007920943200588226318359375" lon="-16.8787951581180095672607421875">
        <ele>1017</ele>
        <time>2018-06-24T11:48:17.000Z</time>
      </trkpt>
      <trkpt lat="32.73007434792816638946533203125" lon="-16.87880337238311767578125">
        <ele>1017.4000244140625</ele>
        <time>2018-06-24T11:48:18.000Z</time>
      </trkpt>
      <trkpt lat="32.7300484478473663330078125" lon="-16.8788363970816135406494140625">
        <ele>1018.4000244140625</ele>
        <time>2018-06-24T11:48:21.000Z</time>
      </trkpt>
      <trkpt lat="32.72999371401965618133544921875" lon="-16.87887604348361492156982421875">
        <ele>1019.4000244140625</ele>
        <time>2018-06-24T11:48:24.000Z</time>
      </trkpt>
      <trkpt lat="32.7299384772777557373046875" lon="-16.87894544564187526702880859375">
        <ele>1020.4000244140625</ele>
        <time>2018-06-24T11:48:28.000Z</time>
      </trkpt>
      <trkpt lat="32.729934118688106536865234375" lon="-16.8789691664278507232666015625">
        <ele>1020.4000244140625</ele>
        <time>2018-06-24T11:48:29.000Z</time>
      </trkpt>
      <trkpt lat="32.729934118688106536865234375" lon="-16.87898777425289154052734375">
        <ele>1020.5999755859375</ele>
        <time>2018-06-24T11:48:30.000Z</time>
      </trkpt>
      <trkpt lat="32.72991710342466831207275390625" lon="-16.87914040870964527130126953125">
        <ele>1021.5999755859375</ele>
        <time>2018-06-24T11:48:39.000Z</time>
      </trkpt>
      <trkpt lat="32.72993571124970912933349609375" lon="-16.87926672399044036865234375">
        <ele>1022.79998779296875</ele>
        <time>2018-06-24T11:48:47.000Z</time>
      </trkpt>
      <trkpt lat="32.72993889637291431427001953125" lon="-16.879311315715312957763671875">
        <ele>1023</ele>
        <time>2018-06-24T11:48:50.000Z</time>
      </trkpt>
      <trkpt lat="32.72996052168309688568115234375" lon="-16.87940427102148532867431640625">
        <ele>1023.4000244140625</ele>
        <time>2018-06-24T11:48:56.000Z</time>
      </trkpt>
      <trkpt lat="32.7299557439982891082763671875" lon="-16.87943310476839542388916015625">
        <ele>1024</ele>
        <time>2018-06-24T11:48:58.000Z</time>
      </trkpt>
      <trkpt lat="32.72994074039161205291748046875" lon="-16.879472918808460235595703125">
        <ele>1024.800048828125</ele>
        <time>2018-06-24T11:49:01.000Z</time>
      </trkpt>
      <trkpt lat="32.729939483106136322021484375" lon="-16.879482977092266082763671875">
        <ele>1025</ele>
        <time>2018-06-24T11:49:02.000Z</time>
      </trkpt>
      <trkpt lat="32.72993638180196285247802734375" lon="-16.879492700099945068359375">
        <ele>1025.199951171875</ele>
        <time>2018-06-24T11:49:03.000Z</time>
      </trkpt>
      <trkpt lat="32.72992833517491817474365234375" lon="-16.8795401416718959808349609375">
        <ele>1025.800048828125</ele>
        <time>2018-06-24T11:49:06.000Z</time>
      </trkpt>
      <trkpt lat="32.72992079146206378936767578125" lon="-16.87956822104752063751220703125">
        <ele>1026.199951171875</ele>
        <time>2018-06-24T11:49:08.000Z</time>
      </trkpt>
      <trkpt lat="32.72990939207375049591064453125" lon="-16.87961029820144176483154296875">
        <ele>1026.5999755859375</ele>
        <time>2018-06-24T11:49:11.000Z</time>
      </trkpt>
      <trkpt lat="32.72989799268543720245361328125" lon="-16.87965824268758296966552734375">
        <ele>1027.199951171875</ele>
        <time>2018-06-24T11:49:15.000Z</time>
      </trkpt>
      <trkpt lat="32.729881815612316131591796875" lon="-16.87974893487989902496337890625">
        <ele>1028.199951171875</ele>
        <time>2018-06-24T11:49:21.000Z</time>
      </trkpt>
      <trkpt lat="32.7298675663769245147705078125" lon="-16.879764609038829803466796875">
        <ele>1028.5999755859375</ele>
        <time>2018-06-24T11:49:23.000Z</time>
      </trkpt>
      <trkpt lat="32.72984703071415424346923828125" lon="-16.87979252077639102935791015625">
        <ele>1029.4000244140625</ele>
        <time>2018-06-24T11:49:26.000Z</time>
      </trkpt>
      <trkpt lat="32.72983915172517299652099609375" lon="-16.87980274669826030731201171875">
        <ele>1029.5999755859375</ele>
        <time>2018-06-24T11:49:27.000Z</time>
      </trkpt>
      <trkpt lat="32.729826159775257110595703125" lon="-16.8798212707042694091796875">
        <ele>1030.199951171875</ele>
        <time>2018-06-24T11:49:29.000Z</time>
      </trkpt>
      <trkpt lat="32.7298152633011341094970703125" lon="-16.87983677722513675689697265625">
        <ele>1030.5999755859375</ele>
        <time>2018-06-24T11:49:30.000Z</time>
      </trkpt>
      <trkpt lat="32.7298015169799327850341796875" lon="-16.87989779748022556304931640625">
        <ele>1031.5999755859375</ele>
        <time>2018-06-24T11:49:34.000Z</time>
      </trkpt>
      <trkpt lat="32.72979640401899814605712890625" lon="-16.87991154380142688751220703125">
        <ele>1031.800048828125</ele>
        <time>2018-06-24T11:49:35.000Z</time>
      </trkpt>
      <trkpt lat="32.7297936379909515380859375" lon="-16.879927217960357666015625">
        <ele>1032</ele>
        <time>2018-06-24T11:49:36.000Z</time>
      </trkpt>
      <trkpt lat="32.7297575958073139190673828125" lon="-16.88000508584082126617431640625">
        <ele>1032.800048828125</ele>
        <time>2018-06-24T11:49:42.000Z</time>
      </trkpt>
      <trkpt lat="32.72968106903135776519775390625" lon="-16.88014925457537174224853515625">
        <ele>1033.5999755859375</ele>
        <time>2018-06-24T11:49:51.000Z</time>
      </trkpt>
      <trkpt lat="32.729659862816333770751953125" lon="-16.8801775015890598297119140625">
        <ele>1033.800048828125</ele>
        <time>2018-06-24T11:49:53.000Z</time>
      </trkpt>
      <trkpt lat="32.72954762913286685943603515625" lon="-16.8802361749112606048583984375">
        <ele>1035</ele>
        <time>2018-06-24T11:50:01.000Z</time>
      </trkpt>
      <trkpt lat="32.72950052283704280853271484375" lon="-16.88023391179740428924560546875">
        <ele>1036</ele>
        <time>2018-06-24T11:50:06.000Z</time>
      </trkpt>
      <trkpt lat="32.72943464107811450958251953125" lon="-16.88028504140675067901611328125">
        <ele>1037</ele>
        <time>2018-06-24T11:50:11.000Z</time>
      </trkpt>
      <trkpt lat="32.72936473600566387176513671875" lon="-16.88032980076968669891357421875">
        <ele>1038.199951171875</ele>
        <time>2018-06-24T11:50:17.000Z</time>
      </trkpt>
      <trkpt lat="32.72929809987545013427734375" lon="-16.880278922617435455322265625">
        <ele>1038.800048828125</ele>
        <time>2018-06-24T11:50:21.000Z</time>
      </trkpt>
      <trkpt lat="32.729274295270442962646484375" lon="-16.8802557885646820068359375">
        <ele>1039.199951171875</ele>
        <time>2018-06-24T11:50:23.000Z</time>
      </trkpt>
      <trkpt lat="32.72926633246243000030517578125" lon="-16.88025838695466518402099609375">
        <ele>1039.4000244140625</ele>
        <time>2018-06-24T11:50:24.000Z</time>
      </trkpt>
      <trkpt lat="32.729242108762264251708984375" lon="-16.88025377690792083740234375">
        <ele>1040.4000244140625</ele>
        <time>2018-06-24T11:50:28.000Z</time>
      </trkpt>
      <trkpt lat="32.72922945208847522735595703125" lon="-16.88025235198438167572021484375">
        <ele>1041.5999755859375</ele>
        <time>2018-06-24T11:50:31.000Z</time>
      </trkpt>
      <trkpt lat="32.72919223643839359283447265625" lon="-16.88024782575666904449462890625">
        <ele>1042.5999755859375</ele>
        <time>2018-06-24T11:50:35.000Z</time>
      </trkpt>
      <trkpt lat="32.72916105575859546661376953125" lon="-16.88024128787219524383544921875">
        <ele>1043.4000244140625</ele>
        <time>2018-06-24T11:50:38.000Z</time>
      </trkpt>
      <trkpt lat="32.72914345376193523406982421875" lon="-16.88023994676768779754638671875">
        <ele>1044</ele>
        <time>2018-06-24T11:50:40.000Z</time>
      </trkpt>
      <trkpt lat="32.7291150391101837158203125" lon="-16.88023374415934085845947265625">
        <ele>1044.4000244140625</ele>
        <time>2018-06-24T11:50:42.000Z</time>
      </trkpt>
      <trkpt lat="32.7290776558220386505126953125" lon="-16.88023273833096027374267578125">
        <ele>1045</ele>
        <time>2018-06-24T11:50:45.000Z</time>
      </trkpt>
      <trkpt lat="32.7289943397045135498046875" lon="-16.880173645913600921630859375">
        <ele>1046.4000244140625</ele>
        <time>2018-06-24T11:50:54.000Z</time>
      </trkpt>
      <trkpt lat="32.72897355258464813232421875" lon="-16.880187727510929107666015625">
        <ele>1047</ele>
        <time>2018-06-24T11:50:56.000Z</time>
      </trkpt>
      <trkpt lat="32.7289629913866519927978515625" lon="-16.88019015826284885406494140625">
        <ele>1047.4000244140625</ele>
        <time>2018-06-24T11:50:58.000Z</time>
      </trkpt>
      <trkpt lat="32.72896173410117626190185546875" lon="-16.88018596731126308441162109375">
        <ele>1048.800048828125</ele>
        <time>2018-06-24T11:51:02.000Z</time>
      </trkpt>
      <trkpt lat="32.72893357090651988983154296875" lon="-16.8801661022007465362548828125">
        <ele>1049.800048828125</ele>
        <time>2018-06-24T11:51:06.000Z</time>
      </trkpt>
      <trkpt lat="32.728910185396671295166015625" lon="-16.88016450963914394378662109375">
        <ele>1050.4000244140625</ele>
        <time>2018-06-24T11:51:09.000Z</time>
      </trkpt>
      <trkpt lat="32.72889534942805767059326171875" lon="-16.88018127344548702239990234375">
        <ele>1050.800048828125</ele>
        <time>2018-06-24T11:51:11.000Z</time>
      </trkpt>
      <trkpt lat="32.7288902364671230316162109375" lon="-16.880207173526287078857421875">
        <ele>1052</ele>
        <time>2018-06-24T11:51:15.000Z</time>
      </trkpt>
      <trkpt lat="32.72887892089784145355224609375" lon="-16.88023039139807224273681640625">
        <ele>1053.199951171875</ele>
        <time>2018-06-24T11:51:20.000Z</time>
      </trkpt>
      <trkpt lat="32.7288805134594440460205078125" lon="-16.88021446578204631805419921875">
        <ele>1054.4000244140625</ele>
        <time>2018-06-24T11:51:24.000Z</time>
      </trkpt>
      <trkpt lat="32.7288754843175411224365234375" lon="-16.880231983959674835205078125">
        <ele>1055.4000244140625</ele>
        <time>2018-06-24T11:51:28.000Z</time>
      </trkpt>
      <trkpt lat="32.72885310463607311248779296875" lon="-16.88026425428688526153564453125">
        <ele>1056.4000244140625</ele>
        <time>2018-06-24T11:51:33.000Z</time>
      </trkpt>
      <trkpt lat="32.7288154698908329010009765625" lon="-16.88030834309756755828857421875">
        <ele>1057</ele>
        <time>2018-06-24T11:51:36.000Z</time>
      </trkpt>
      <trkpt lat="32.72877817042171955108642578125" lon="-16.8803531862795352935791015625">
        <ele>1057.5999755859375</ele>
        <time>2018-06-24T11:51:39.000Z</time>
      </trkpt>
      <trkpt lat="32.72876693867146968841552734375" lon="-16.8803716264665126800537109375">
        <ele>1058.199951171875</ele>
        <time>2018-06-24T11:51:41.000Z</time>
      </trkpt>
      <trkpt lat="32.72875486873090267181396484375" lon="-16.88038411550223827362060546875">
        <ele>1058.800048828125</ele>
        <time>2018-06-24T11:51:43.000Z</time>
      </trkpt>
      <trkpt lat="32.7287564612925052642822265625" lon="-16.8804152123630046844482421875">
        <ele>1059.199951171875</ele>
        <time>2018-06-24T11:51:45.000Z</time>
      </trkpt>
      <trkpt lat="32.728742547333240509033203125" lon="-16.88045091927051544189453125">
        <ele>1060</ele>
        <time>2018-06-24T11:51:48.000Z</time>
      </trkpt>
      <trkpt lat="32.728736512362957000732421875" lon="-16.88047908246517181396484375">
        <ele>1060.5999755859375</ele>
        <time>2018-06-24T11:51:51.000Z</time>
      </trkpt>
      <trkpt lat="32.728735171258449554443359375" lon="-16.88048712909221649169921875">
        <ele>1061</ele>
        <time>2018-06-24T11:51:52.000Z</time>
      </trkpt>
      <trkpt lat="32.7287256158888339996337890625" lon="-16.88050565309822559356689453125">
        <ele>1062</ele>
        <time>2018-06-24T11:51:55.000Z</time>
      </trkpt>
      <trkpt lat="32.72871245630085468292236328125" lon="-16.88054555095732212066650390625">
        <ele>1063</ele>
        <time>2018-06-24T11:52:00.000Z</time>
      </trkpt>
      <trkpt lat="32.7286820299923419952392578125" lon="-16.88059181906282901763916015625">
        <ele>1063.5999755859375</ele>
        <time>2018-06-24T11:52:04.000Z</time>
      </trkpt>
      <trkpt lat="32.72866803221404552459716796875" lon="-16.88070329837501049041748046875">
        <ele>1064</ele>
        <time>2018-06-24T11:52:10.000Z</time>
      </trkpt>
      <trkpt lat="32.7286632545292377471923828125" lon="-16.88082014210522174835205078125">
        <ele>1065.199951171875</ele>
        <time>2018-06-24T11:52:19.000Z</time>
      </trkpt>
      <trkpt lat="32.72866643965244293212890625" lon="-16.88085031695663928985595703125">
        <ele>1066.4000244140625</ele>
        <time>2018-06-24T11:52:23.000Z</time>
      </trkpt>
      <trkpt lat="32.728648670017719268798828125" lon="-16.88088032416999340057373046875">
        <ele>1067.4000244140625</ele>
        <time>2018-06-24T11:52:27.000Z</time>
      </trkpt>
      <trkpt lat="32.72861975245177745819091796875" lon="-16.88093782402575016021728515625">
        <ele>1068.5999755859375</ele>
        <time>2018-06-24T11:52:32.000Z</time>
      </trkpt>
      <trkpt lat="32.7286075986921787261962890625" lon="-16.8809600360691547393798828125">
        <ele>1069</ele>
        <time>2018-06-24T11:52:34.000Z</time>
      </trkpt>
      <trkpt lat="32.728560827672481536865234375" lon="-16.8810659833252429962158203125">
        <ele>1067.199951171875</ele>
        <time>2018-06-24T11:52:40.000Z</time>
      </trkpt>
      <trkpt lat="32.72848245687782764434814453125" lon="-16.88125767745077610015869140625">
        <ele>1068</ele>
        <time>2018-06-24T11:52:51.000Z</time>
      </trkpt>
      <trkpt lat="32.7284713089466094970703125" lon="-16.88127980567514896392822265625">
        <ele>1068.4000244140625</ele>
        <time>2018-06-24T11:52:53.000Z</time>
      </trkpt>
      <trkpt lat="32.72843199782073497772216796875" lon="-16.881304867565631866455078125">
        <ele>1069.800048828125</ele>
        <time>2018-06-24T11:52:57.000Z</time>
      </trkpt>
      <trkpt lat="32.7284245379269123077392578125" lon="-16.88131484203040599822998046875">
        <ele>1070</ele>
        <time>2018-06-24T11:52:58.000Z</time>
      </trkpt>
      <trkpt lat="32.7284185029566287994384765625" lon="-16.88134409487247467041015625">
        <ele>1070.800048828125</ele>
        <time>2018-06-24T11:53:01.000Z</time>
      </trkpt>
      <trkpt lat="32.7283943630754947662353515625" lon="-16.88138005323708057403564453125">
        <ele>1072</ele>
        <time>2018-06-24T11:53:05.000Z</time>
      </trkpt>
      <trkpt lat="32.728380449116230010986328125" lon="-16.88139011152088642120361328125">
        <ele>1072.5999755859375</ele>
        <time>2018-06-24T11:53:07.000Z</time>
      </trkpt>
      <trkpt lat="32.728372402489185333251953125" lon="-16.8814109824597835540771484375">
        <ele>1073.199951171875</ele>
        <time>2018-06-24T11:53:09.000Z</time>
      </trkpt>
      <trkpt lat="32.72836376912891864776611328125" lon="-16.88144207932054996490478515625">
        <ele>1074.4000244140625</ele>
        <time>2018-06-24T11:53:13.000Z</time>
      </trkpt>
      <trkpt lat="32.728363014757633209228515625" lon="-16.88145079649984836578369140625">
        <ele>1074.5999755859375</ele>
        <time>2018-06-24T11:53:14.000Z</time>
      </trkpt>
      <trkpt lat="32.72836343385279178619384765625" lon="-16.88147359527647495269775390625">
        <ele>1075.199951171875</ele>
        <time>2018-06-24T11:53:16.000Z</time>
      </trkpt>
      <trkpt lat="32.72836376912891864776611328125" lon="-16.881484575569629669189453125">
        <ele>1075.4000244140625</ele>
        <time>2018-06-24T11:53:17.000Z</time>
      </trkpt>
      <trkpt lat="32.72836443968117237091064453125" lon="-16.881504356861114501953125">
        <ele>1076</ele>
        <time>2018-06-24T11:53:19.000Z</time>
      </trkpt>
      <trkpt lat="32.72835957817733287811279296875" lon="-16.8815199472010135650634765625">
        <ele>1076.4000244140625</ele>
        <time>2018-06-24T11:53:21.000Z</time>
      </trkpt>
      <trkpt lat="32.72834583185613155364990234375" lon="-16.8815279938280582427978515625">
        <ele>1077</ele>
        <time>2018-06-24T11:53:23.000Z</time>
      </trkpt>
      <trkpt lat="32.72833812050521373748779296875" lon="-16.88153310678899288177490234375">
        <ele>1077.5999755859375</ele>
        <time>2018-06-24T11:53:25.000Z</time>
      </trkpt>
      <trkpt lat="32.7283276431262493133544921875" lon="-16.881550960242748260498046875">
        <ele>1078.5999755859375</ele>
        <time>2018-06-24T11:53:29.000Z</time>
      </trkpt>
      <trkpt lat="32.728333510458469390869140625" lon="-16.88158038072288036346435546875">
        <ele>1079.800048828125</ele>
        <time>2018-06-24T11:53:33.000Z</time>
      </trkpt>
      <trkpt lat="32.72833795286715030670166015625" lon="-16.88160971738398075103759765625">
        <ele>1080.800048828125</ele>
        <time>2018-06-24T11:53:37.000Z</time>
      </trkpt>
      <trkpt lat="32.72833309136331081390380859375" lon="-16.8816409818828105926513671875">
        <ele>1081.800048828125</ele>
        <time>2018-06-24T11:53:41.000Z</time>
      </trkpt>
      <trkpt lat="32.72832579910755157470703125" lon="-16.88167291693389415740966796875">
        <ele>1083</ele>
        <time>2018-06-24T11:53:45.000Z</time>
      </trkpt>
      <trkpt lat="32.72832152433693408966064453125" lon="-16.88174399547278881072998046875">
        <ele>1083.5999755859375</ele>
        <time>2018-06-24T11:53:49.000Z</time>
      </trkpt>
      <trkpt lat="32.72819696925580501556396484375" lon="-16.88190157525241374969482421875">
        <ele>1083.199951171875</ele>
        <time>2018-06-24T11:54:06.000Z</time>
      </trkpt>
      <trkpt lat="32.72816327400505542755126953125" lon="-16.88193158246576786041259765625">
        <ele>1084.199951171875</ele>
        <time>2018-06-24T11:54:10.000Z</time>
      </trkpt>
      <trkpt lat="32.72812454961240291595458984375" lon="-16.88198958523571491241455078125">
        <ele>1085.199951171875</ele>
        <time>2018-06-24T11:54:15.000Z</time>
      </trkpt>
      <trkpt lat="32.72796881385147571563720703125" lon="-16.882111541926860809326171875">
        <ele>1086</ele>
        <time>2018-06-24T11:54:30.000Z</time>
      </trkpt>
      <trkpt lat="32.72789488546550273895263671875" lon="-16.88212621025741100311279296875">
        <ele>1086.4000244140625</ele>
        <time>2018-06-24T11:54:36.000Z</time>
      </trkpt>
      <trkpt lat="32.7278307639062404632568359375" lon="-16.88211179338395595550537109375">
        <ele>1087.4000244140625</ele>
        <time>2018-06-24T11:54:41.000Z</time>
      </trkpt>
      <trkpt lat="32.7277632057666778564453125" lon="-16.88210458494722843170166015625">
        <ele>1088.5999755859375</ele>
        <time>2018-06-24T11:54:48.000Z</time>
      </trkpt>
      <trkpt lat="32.7277310192584991455078125" lon="-16.88211522996425628662109375">
        <ele>1089.5999755859375</ele>
        <time>2018-06-24T11:54:52.000Z</time>
      </trkpt>
      <trkpt lat="32.7276953123509883880615234375" lon="-16.88212268985807895660400390625">
        <ele>1090.800048828125</ele>
        <time>2018-06-24T11:54:56.000Z</time>
      </trkpt>
      <trkpt lat="32.727663628756999969482421875" lon="-16.88213626854121685028076171875">
        <ele>1091.800048828125</ele>
        <time>2018-06-24T11:55:00.000Z</time>
      </trkpt>
      <trkpt lat="32.72762850858271121978759765625" lon="-16.88213677145540714263916015625">
        <ele>1093</ele>
        <time>2018-06-24T11:55:04.000Z</time>
      </trkpt>
      <trkpt lat="32.727602608501911163330078125" lon="-16.88213140703737735748291015625">
        <ele>1094</ele>
        <time>2018-06-24T11:55:08.000Z</time>
      </trkpt>
      <trkpt lat="32.7275769598782062530517578125" lon="-16.88214045949280261993408203125">
        <ele>1095.199951171875</ele>
        <time>2018-06-24T11:55:12.000Z</time>
      </trkpt>
      <trkpt lat="32.72755541838705539703369140625" lon="-16.88216661103069782257080078125">
        <ele>1096.199951171875</ele>
        <time>2018-06-24T11:55:16.000Z</time>
      </trkpt>
      <trkpt lat="32.72751334123313426971435546875" lon="-16.8821775913238525390625">
        <ele>1097.4000244140625</ele>
        <time>2018-06-24T11:55:20.000Z</time>
      </trkpt>
      <trkpt lat="32.72749993018805980682373046875" lon="-16.88218739815056324005126953125">
        <ele>1098</ele>
        <time>2018-06-24T11:55:22.000Z</time>
      </trkpt>
      <trkpt lat="32.72748920135200023651123046875" lon="-16.8821908347308635711669921875">
        <ele>1098.5999755859375</ele>
        <time>2018-06-24T11:55:23.000Z</time>
      </trkpt>
      <trkpt lat="32.7274542488157749176025390625" lon="-16.88221053220331668853759765625">
        <ele>1099.5999755859375</ele>
        <time>2018-06-24T11:55:27.000Z</time>
      </trkpt>
      <trkpt lat="32.72744880057871341705322265625" lon="-16.88221774064004421234130859375">
        <ele>1099.800048828125</ele>
        <time>2018-06-24T11:55:28.000Z</time>
      </trkpt>
      <trkpt lat="32.727436311542987823486328125" lon="-16.88223182223737239837646484375">
        <ele>1100.199951171875</ele>
        <time>2018-06-24T11:55:30.000Z</time>
      </trkpt>
      <trkpt lat="32.72742566652595996856689453125" lon="-16.8822562135756015777587890625">
        <ele>1100.5999755859375</ele>
        <time>2018-06-24T11:55:32.000Z</time>
      </trkpt>
      <trkpt lat="32.72741921246051788330078125" lon="-16.882263757288455963134765625">
        <ele>1100.800048828125</ele>
        <time>2018-06-24T11:55:33.000Z</time>
      </trkpt>
      <trkpt lat="32.72739917971193790435791015625" lon="-16.88231773674488067626953125">
        <ele>1102</ele>
        <time>2018-06-24T11:55:38.000Z</time>
      </trkpt>
      <trkpt lat="32.72738509811460971832275390625" lon="-16.88236744143068790435791015625">
        <ele>1103.199951171875</ele>
        <time>2018-06-24T11:55:43.000Z</time>
      </trkpt>
      <trkpt lat="32.72738593630492687225341796875" lon="-16.88241438008844852447509765625">
        <ele>1104.4000244140625</ele>
        <time>2018-06-24T11:55:47.000Z</time>
      </trkpt>
      <trkpt lat="32.72738191299140453338623046875" lon="-16.88246299512684345245361328125">
        <ele>1105.4000244140625</ele>
        <time>2018-06-24T11:55:51.000Z</time>
      </trkpt>
      <trkpt lat="32.72737420164048671722412109375" lon="-16.88252954743802547454833984375">
        <ele>1106.4000244140625</ele>
        <time>2018-06-24T11:55:56.000Z</time>
      </trkpt>
      <trkpt lat="32.72737336345016956329345703125" lon="-16.882597021758556365966796875">
        <ele>1107.4000244140625</ele>
        <time>2018-06-24T11:56:01.000Z</time>
      </trkpt>
      <trkpt lat="32.72732240147888660430908203125" lon="-16.882743202149868011474609375">
        <ele>1108.5999755859375</ele>
        <time>2018-06-24T11:56:09.000Z</time>
      </trkpt>
      <trkpt lat="32.727323658764362335205078125" lon="-16.88278703950345516204833984375">
        <ele>1109.199951171875</ele>
        <time>2018-06-24T11:56:12.000Z</time>
      </trkpt>
      <trkpt lat="32.72733212448656558990478515625" lon="-16.8828110955655574798583984375">
        <ele>1109.800048828125</ele>
        <time>2018-06-24T11:56:14.000Z</time>
      </trkpt>
      <trkpt lat="32.72734402678906917572021484375" lon="-16.88290304504334926605224609375">
        <ele>1111</ele>
        <time>2018-06-24T11:56:20.000Z</time>
      </trkpt>
      <trkpt lat="32.72734855301678180694580078125" lon="-16.88296356238424777984619140625">
        <ele>1112</ele>
        <time>2018-06-24T11:56:24.000Z</time>
      </trkpt>
      <trkpt lat="32.727346122264862060546875" lon="-16.8830400891602039337158203125">
        <ele>1113.199951171875</ele>
        <time>2018-06-24T11:56:29.000Z</time>
      </trkpt>
      <trkpt lat="32.72735374979674816131591796875" lon="-16.88310907222330570220947265625">
        <ele>1114.199951171875</ele>
        <time>2018-06-24T11:56:35.000Z</time>
      </trkpt>
      <trkpt lat="32.72735416889190673828125" lon="-16.883120052516460418701171875">
        <ele>1114.4000244140625</ele>
        <time>2018-06-24T11:56:36.000Z</time>
      </trkpt>
      <trkpt lat="32.72733212448656558990478515625" lon="-16.8831772170960903167724609375">
        <ele>1115</ele>
        <time>2018-06-24T11:56:40.000Z</time>
      </trkpt>
      <trkpt lat="32.72733463905751705169677734375" lon="-16.88319054432213306427001953125">
        <ele>1115.199951171875</ele>
        <time>2018-06-24T11:56:41.000Z</time>
      </trkpt>
      <trkpt lat="32.7273432724177837371826171875" lon="-16.88327528536319732666015625">
        <ele>1116.4000244140625</ele>
        <time>2018-06-24T11:56:47.000Z</time>
      </trkpt>
      <trkpt lat="32.72734084166586399078369140625" lon="-16.883341334760189056396484375">
        <ele>1117.4000244140625</ele>
        <time>2018-06-24T11:56:51.000Z</time>
      </trkpt>
      <trkpt lat="32.72732642479240894317626953125" lon="-16.88342758454382419586181640625">
        <ele>1118.4000244140625</ele>
        <time>2018-06-24T11:56:56.000Z</time>
      </trkpt>
      <trkpt lat="32.72732198238372802734375" lon="-16.88349363394081592559814453125">
        <ele>1119.5999755859375</ele>
        <time>2018-06-24T11:57:01.000Z</time>
      </trkpt>
      <trkpt lat="32.72730429656803607940673828125" lon="-16.8835683166980743408203125">
        <ele>1120.800048828125</ele>
        <time>2018-06-24T11:57:06.000Z</time>
      </trkpt>
      <trkpt lat="32.7272919751703739166259765625" lon="-16.88363713212311267852783203125">
        <ele>1121.800048828125</ele>
        <time>2018-06-24T11:57:12.000Z</time>
      </trkpt>
      <trkpt lat="32.72730446420609951019287109375" lon="-16.88369630835950374603271484375">
        <ele>1123</ele>
        <time>2018-06-24T11:57:17.000Z</time>
      </trkpt>
      <trkpt lat="32.727321647107601165771484375" lon="-16.88373201526701450347900390625">
        <ele>1124.199951171875</ele>
        <time>2018-06-24T11:57:21.000Z</time>
      </trkpt>
      <trkpt lat="32.72732776589691638946533203125" lon="-16.8837662972509860992431640625">
        <ele>1125.199951171875</ele>
        <time>2018-06-24T11:57:24.000Z</time>
      </trkpt>
      <trkpt lat="32.72733095102012157440185546875" lon="-16.8837760202586650848388671875">
        <ele>1125.4000244140625</ele>
        <time>2018-06-24T11:57:25.000Z</time>
      </trkpt>
      <trkpt lat="32.72733128629624843597412109375" lon="-16.88380510546267032623291015625">
        <ele>1126.199951171875</ele>
        <time>2018-06-24T11:57:28.000Z</time>
      </trkpt>
      <trkpt lat="32.72733380086719989776611328125" lon="-16.88382371328771114349365234375">
        <ele>1126.5999755859375</ele>
        <time>2018-06-24T11:57:30.000Z</time>
      </trkpt>
      <trkpt lat="32.72731997072696685791015625" lon="-16.8838759325444698333740234375">
        <ele>1127.800048828125</ele>
        <time>2018-06-24T11:57:35.000Z</time>
      </trkpt>
      <trkpt lat="32.72731988690793514251708984375" lon="-16.88391893170773983001708984375">
        <ele>1128.800048828125</ele>
        <time>2018-06-24T11:57:39.000Z</time>
      </trkpt>
      <trkpt lat="32.727316953241825103759765625" lon="-16.88393049873411655426025390625">
        <ele>1129</ele>
        <time>2018-06-24T11:57:40.000Z</time>
      </trkpt>
      <trkpt lat="32.72730496712028980255126953125" lon="-16.88397240824997425079345703125">
        <ele>1130</ele>
        <time>2018-06-24T11:57:44.000Z</time>
      </trkpt>
      <trkpt lat="32.72728644311428070068359375" lon="-16.88401733525097370147705078125">
        <ele>1131.199951171875</ele>
        <time>2018-06-24T11:57:49.000Z</time>
      </trkpt>
      <trkpt lat="32.72727445699274539947509765625" lon="-16.8840683810412883758544921875">
        <ele>1132.4000244140625</ele>
        <time>2018-06-24T11:57:54.000Z</time>
      </trkpt>
      <trkpt lat="32.727272696793079376220703125" lon="-16.8840886652469635009765625">
        <ele>1133.4000244140625</ele>
        <time>2018-06-24T11:57:58.000Z</time>
      </trkpt>
      <trkpt lat="32.7272721938788890838623046875" lon="-16.88413015566766262054443359375">
        <ele>1134.5999755859375</ele>
        <time>2018-06-24T11:58:03.000Z</time>
      </trkpt>
      <trkpt lat="32.72726154886186122894287109375" lon="-16.8841666169464588165283203125">
        <ele>1135.800048828125</ele>
        <time>2018-06-24T11:58:08.000Z</time>
      </trkpt>
      <trkpt lat="32.72725668735802173614501953125" lon="-16.8841964565217494964599609375">
        <ele>1136.800048828125</ele>
        <time>2018-06-24T11:58:13.000Z</time>
      </trkpt>
      <trkpt lat="32.72725450806319713592529296875" lon="-16.88422210514545440673828125">
        <ele>1137.800048828125</ele>
        <time>2018-06-24T11:58:17.000Z</time>
      </trkpt>
      <trkpt lat="32.72725467570126056671142578125" lon="-16.88425102271139621734619140625">
        <ele>1139</ele>
        <time>2018-06-24T11:58:21.000Z</time>
      </trkpt>
      <trkpt lat="32.7272618003189563751220703125" lon="-16.8842951953411102294921875">
        <ele>1140.199951171875</ele>
        <time>2018-06-24T11:58:26.000Z</time>
      </trkpt>
      <trkpt lat="32.727264650166034698486328125" lon="-16.88431690447032451629638671875">
        <ele>1141.199951171875</ele>
        <time>2018-06-24T11:58:30.000Z</time>
      </trkpt>
      <trkpt lat="32.727264650166034698486328125" lon="-16.88433869741857051849365234375">
        <ele>1142.4000244140625</ele>
        <time>2018-06-24T11:58:35.000Z</time>
      </trkpt>
      <trkpt lat="32.72726423107087612152099609375" lon="-16.88435755670070648193359375">
        <ele>1143.5999755859375</ele>
        <time>2018-06-24T11:58:39.000Z</time>
      </trkpt>
      <trkpt lat="32.72725383751094341278076171875" lon="-16.88442771323025226593017578125">
        <ele>1144.800048828125</ele>
        <time>2018-06-24T11:58:45.000Z</time>
      </trkpt>
      <trkpt lat="32.7272509038448333740234375" lon="-16.8844485841691493988037109375">
        <ele>1145.199951171875</ele>
        <time>2018-06-24T11:58:47.000Z</time>
      </trkpt>
      <trkpt lat="32.727248556911945343017578125" lon="-16.88446610234677791595458984375">
        <ele>1145.5999755859375</ele>
        <time>2018-06-24T11:58:49.000Z</time>
      </trkpt>
      <trkpt lat="32.72724847309291362762451171875" lon="-16.88447582535445690155029296875">
        <ele>1145.800048828125</ele>
        <time>2018-06-24T11:58:50.000Z</time>
      </trkpt>
      <trkpt lat="32.72724679671227931976318359375" lon="-16.88449158333241939544677734375">
        <ele>1146.5999755859375</ele>
        <time>2018-06-24T11:58:52.000Z</time>
      </trkpt>
      <trkpt lat="32.72724914364516735076904296875" lon="-16.8845099397003650665283203125">
        <ele>1147.199951171875</ele>
        <time>2018-06-24T11:58:54.000Z</time>
      </trkpt>
      <trkpt lat="32.72723556496202945709228515625" lon="-16.88457272015511989593505859375">
        <ele>1148.5999755859375</ele>
        <time>2018-06-24T11:59:00.000Z</time>
      </trkpt>
      <trkpt lat="32.72724025882780551910400390625" lon="-16.88460725359618663787841796875">
        <ele>1149.5999755859375</ele>
        <time>2018-06-24T11:59:05.000Z</time>
      </trkpt>
      <trkpt lat="32.7272668294608592987060546875" lon="-16.8846353329718112945556640625">
        <ele>1150.800048828125</ele>
        <time>2018-06-24T11:59:10.000Z</time>
      </trkpt>
      <trkpt lat="32.727277390658855438232421875" lon="-16.884752176702022552490234375">
        <ele>1151.800048828125</ele>
        <time>2018-06-24T11:59:18.000Z</time>
      </trkpt>
      <trkpt lat="32.7272929809987545013427734375" lon="-16.88487580977380275726318359375">
        <ele>1152.800048828125</ele>
        <time>2018-06-24T11:59:25.000Z</time>
      </trkpt>
      <trkpt lat="32.72724620997905731201171875" lon="-16.8849689327180385589599609375">
        <ele>1154</ele>
        <time>2018-06-24T11:59:33.000Z</time>
      </trkpt>
      <trkpt lat="32.7272242493927478790283203125" lon="-16.88499466516077518463134765625">
        <ele>1155</ele>
        <time>2018-06-24T11:59:37.000Z</time>
      </trkpt>
      <trkpt lat="32.72721477784216403961181640625" lon="-16.88502383418381214141845703125">
        <ele>1156</ele>
        <time>2018-06-24T11:59:41.000Z</time>
      </trkpt>
      <trkpt lat="32.7272088266909122467041015625" lon="-16.8850550986826419830322265625">
        <ele>1157.4000244140625</ele>
        <time>2018-06-24T11:59:45.000Z</time>
      </trkpt>
      <trkpt lat="32.727182172238826751708984375" lon="-16.88509189523756504058837890625">
        <ele>1158.5999755859375</ele>
        <time>2018-06-24T11:59:50.000Z</time>
      </trkpt>
      <trkpt lat="32.7271789871156215667724609375" lon="-16.88513807952404022216796875">
        <ele>1159.5999755859375</ele>
        <time>2018-06-24T11:59:54.000Z</time>
      </trkpt>
      <trkpt lat="32.7271638996899127960205078125" lon="-16.88536179251968860626220703125">
        <ele>1160.5999755859375</ele>
        <time>2018-06-24T12:00:05.000Z</time>
      </trkpt>
      <trkpt lat="32.727160714566707611083984375" lon="-16.88538375310599803924560546875">
        <ele>1160.5999755859375</ele>
        <time>2018-06-24T12:00:06.000Z</time>
      </trkpt>
      <trkpt lat="32.7270787395536899566650390625" lon="-16.88552188687026500701904296875">
        <ele>1161.5999755859375</ele>
        <time>2018-06-24T12:00:14.000Z</time>
      </trkpt>
      <trkpt lat="32.72700170986354351043701171875" lon="-16.8856166861951351165771484375">
        <ele>1162.800048828125</ele>
        <time>2018-06-24T12:00:20.000Z</time>
      </trkpt>
      <trkpt lat="32.72694840095937252044677734375" lon="-16.885720789432525634765625">
        <ele>1164.199951171875</ele>
        <time>2018-06-24T12:00:26.000Z</time>
      </trkpt>
      <trkpt lat="32.72692359052598476409912109375" lon="-16.8857918679714202880859375">
        <ele>1165.199951171875</ele>
        <time>2018-06-24T12:00:30.000Z</time>
      </trkpt>
      <trkpt lat="32.72691017948091030120849609375" lon="-16.88588867895305156707763671875">
        <ele>1166.4000244140625</ele>
        <time>2018-06-24T12:00:35.000Z</time>
      </trkpt>
      <trkpt lat="32.72692057304084300994873046875" lon="-16.88598993234336376190185546875">
        <ele>1167.5999755859375</ele>
        <time>2018-06-24T12:00:40.000Z</time>
      </trkpt>
      <trkpt lat="32.72692476399242877960205078125" lon="-16.88606386072933673858642578125">
        <ele>1168.5999755859375</ele>
        <time>2018-06-24T12:00:44.000Z</time>
      </trkpt>
      <trkpt lat="32.7269278652966022491455078125" lon="-16.88615731894969940185546875">
        <ele>1169.800048828125</ele>
        <time>2018-06-24T12:00:49.000Z</time>
      </trkpt>
      <trkpt lat="32.72686533629894256591796875" lon="-16.88621909357607364654541015625">
        <ele>1171</ele>
        <time>2018-06-24T12:00:56.000Z</time>
      </trkpt>
      <trkpt lat="32.7268024720251560211181640625" lon="-16.88625077717006206512451171875">
        <ele>1172</ele>
        <time>2018-06-24T12:01:02.000Z</time>
      </trkpt>
      <trkpt lat="32.72671991027891635894775390625" lon="-16.88627265393733978271484375">
        <ele>1173</ele>
        <time>2018-06-24T12:01:08.000Z</time>
      </trkpt>
      <trkpt lat="32.72664966993033885955810546875" lon="-16.886300146579742431640625">
        <ele>1174.199951171875</ele>
        <time>2018-06-24T12:01:14.000Z</time>
      </trkpt>
      <trkpt lat="32.72659066133201122283935546875" lon="-16.88631816767156124114990234375">
        <ele>1175.4000244140625</ele>
        <time>2018-06-24T12:01:19.000Z</time>
      </trkpt>
      <trkpt lat="32.7265293896198272705078125" lon="-16.8863402120769023895263671875">
        <ele>1176.4000244140625</ele>
        <time>2018-06-24T12:01:24.000Z</time>
      </trkpt>
      <trkpt lat="32.7264732308685779571533203125" lon="-16.88634733669459819793701171875">
        <ele>1177.5999755859375</ele>
        <time>2018-06-24T12:01:29.000Z</time>
      </trkpt>
      <trkpt lat="32.72642972879111766815185546875" lon="-16.88635253347456455230712890625">
        <ele>1178.5999755859375</ele>
        <time>2018-06-24T12:01:33.000Z</time>
      </trkpt>
      <trkpt lat="32.72637851536273956298828125" lon="-16.88636091537773609161376953125">
        <ele>1179.800048828125</ele>
        <time>2018-06-24T12:01:37.000Z</time>
      </trkpt>
      <trkpt lat="32.72633283399045467376708984375" lon="-16.8863596580922603607177734375">
        <ele>1180.800048828125</ele>
        <time>2018-06-24T12:01:41.000Z</time>
      </trkpt>
      <trkpt lat="32.7262911759316921234130859375" lon="-16.886364854872226715087890625">
        <ele>1182</ele>
        <time>2018-06-24T12:01:45.000Z</time>
      </trkpt>
      <trkpt lat="32.7262450754642486572265625" lon="-16.88637323677539825439453125">
        <ele>1183</ele>
        <time>2018-06-24T12:01:49.000Z</time>
      </trkpt>
      <trkpt lat="32.7262029983103275299072265625" lon="-16.88638488762080669403076171875">
        <ele>1184.199951171875</ele>
        <time>2018-06-24T12:01:53.000Z</time>
      </trkpt>
      <trkpt lat="32.72615664638578891754150390625" lon="-16.88638136722147464752197265625">
        <ele>1185.4000244140625</ele>
        <time>2018-06-24T12:01:57.000Z</time>
      </trkpt>
      <trkpt lat="32.72610400803387165069580078125" lon="-16.8863846361637115478515625">
        <ele>1186.5999755859375</ele>
        <time>2018-06-24T12:02:02.000Z</time>
      </trkpt>
      <trkpt lat="32.72604684345424175262451171875" lon="-16.8863821215927600860595703125">
        <ele>1187.800048828125</ele>
        <time>2018-06-24T12:02:07.000Z</time>
      </trkpt>
      <trkpt lat="32.72595472633838653564453125" lon="-16.88639125786721706390380859375">
        <ele>1188.800048828125</ele>
        <time>2018-06-24T12:02:14.000Z</time>
      </trkpt>
      <trkpt lat="32.72585975937545299530029296875" lon="-16.8863988853991031646728515625">
        <ele>1190</ele>
        <time>2018-06-24T12:02:21.000Z</time>
      </trkpt>
      <trkpt lat="32.72578851319849491119384765625" lon="-16.88640542328357696533203125">
        <ele>1191</ele>
        <time>2018-06-24T12:02:26.000Z</time>
      </trkpt>
      <trkpt lat="32.72570989094674587249755859375" lon="-16.886419840157032012939453125">
        <ele>1192.199951171875</ele>
        <time>2018-06-24T12:02:32.000Z</time>
      </trkpt>
      <trkpt lat="32.72565121762454509735107421875" lon="-16.88644356094300746917724609375">
        <ele>1193.199951171875</ele>
        <time>2018-06-24T12:02:37.000Z</time>
      </trkpt>
      <trkpt lat="32.7255539037287235260009765625" lon="-16.8864790163934230804443359375">
        <ele>1194.5999755859375</ele>
        <time>2018-06-24T12:02:44.000Z</time>
      </trkpt>
      <trkpt lat="32.7254707552492618560791015625" lon="-16.8864924274384975433349609375">
        <ele>1195.5999755859375</ele>
        <time>2018-06-24T12:02:50.000Z</time>
      </trkpt>
      <trkpt lat="32.7254026941955089569091796875" lon="-16.886519081890583038330078125">
        <ele>1196.5999755859375</ele>
        <time>2018-06-24T12:02:55.000Z</time>
      </trkpt>
      <trkpt lat="32.725350894033908843994140625" lon="-16.88655001111328601837158203125">
        <ele>1197.800048828125</ele>
        <time>2018-06-24T12:03:00.000Z</time>
      </trkpt>
      <trkpt lat="32.72530906833708286285400390625" lon="-16.88656291924417018890380859375">
        <ele>1198.800048828125</ele>
        <time>2018-06-24T12:03:04.000Z</time>
      </trkpt>
      <trkpt lat="32.72525005973875522613525390625" lon="-16.8865859694778919219970703125">
        <ele>1200</ele>
        <time>2018-06-24T12:03:09.000Z</time>
      </trkpt>
      <trkpt lat="32.7251958288252353668212890625" lon="-16.88660851679742336273193359375">
        <ele>1201.199951171875</ele>
        <time>2018-06-24T12:03:14.000Z</time>
      </trkpt>
      <trkpt lat="32.72515014745295047760009765625" lon="-16.8866238556802272796630859375">
        <ele>1202.4000244140625</ele>
        <time>2018-06-24T12:03:18.000Z</time>
      </trkpt>
      <trkpt lat="32.725098095834255218505859375" lon="-16.8866443075239658355712890625">
        <ele>1203.4000244140625</ele>
        <time>2018-06-24T12:03:22.000Z</time>
      </trkpt>
      <trkpt lat="32.7249011211097240447998046875" lon="-16.8866811878979206085205078125">
        <ele>1203.5999755859375</ele>
        <time>2018-06-24T12:03:32.000Z</time>
      </trkpt>
      <trkpt lat="32.72471814416348934173583984375" lon="-16.88668160699307918548583984375">
        <ele>1203.5999755859375</ele>
        <time>2018-06-24T12:03:40.000Z</time>
      </trkpt>
      <trkpt lat="32.7245581336319446563720703125" lon="-16.88667188398540019989013671875">
        <ele>1204.4000244140625</ele>
        <time>2018-06-24T12:03:47.000Z</time>
      </trkpt>
      <trkpt lat="32.7243603207170963287353515625" lon="-16.88665218651294708251953125">
        <ele>1205.4000244140625</ele>
        <time>2018-06-24T12:03:56.000Z</time>
      </trkpt>
      <trkpt lat="32.7241920121014118194580078125" lon="-16.886621005833148956298828125">
        <ele>1206.5999755859375</ele>
        <time>2018-06-24T12:04:04.000Z</time>
      </trkpt>
      <trkpt lat="32.7240055985748767852783203125" lon="-16.8865978717803955078125">
        <ele>1207.4000244140625</ele>
        <time>2018-06-24T12:04:12.000Z</time>
      </trkpt>
      <trkpt lat="32.72388313896954059600830078125" lon="-16.8865806050598621368408203125">
        <ele>1207.5999755859375</ele>
        <time>2018-06-24T12:04:18.000Z</time>
      </trkpt>
      <trkpt lat="32.72369630634784698486328125" lon="-16.886550597846508026123046875">
        <ele>1208.5999755859375</ele>
        <time>2018-06-24T12:04:27.000Z</time>
      </trkpt>
      <trkpt lat="32.72351257503032684326171875" lon="-16.886521764099597930908203125">
        <ele>1209.199951171875</ele>
        <time>2018-06-24T12:04:35.000Z</time>
      </trkpt>
      <trkpt lat="32.72337553091347217559814453125" lon="-16.88649854622781276702880859375">
        <ele>1209.800048828125</ele>
        <time>2018-06-24T12:04:41.000Z</time>
      </trkpt>
      <trkpt lat="32.72331316955387592315673828125" lon="-16.886493600904941558837890625">
        <ele>1210</ele>
        <time>2018-06-24T12:04:44.000Z</time>
      </trkpt>
      <trkpt lat="32.72053264081478118896484375" lon="-16.8859586678445339202880859375">
        <ele>1231.199951171875</ele>
        <time>2018-06-24T12:07:52.000Z</time>
      </trkpt>
      <trkpt lat="32.72048511542379856109619140625" lon="-16.88594064675271511077880859375">
        <ele>1232.4000244140625</ele>
        <time>2018-06-24T12:07:56.000Z</time>
      </trkpt>
      <trkpt lat="32.7203919924795627593994140625" lon="-16.88586856238543987274169921875">
        <ele>1233.4000244140625</ele>
        <time>2018-06-24T12:08:05.000Z</time>
      </trkpt>
      <trkpt lat="32.72030909545719623565673828125" lon="-16.88583721406757831573486328125">
        <ele>1234.5999755859375</ele>
        <time>2018-06-24T12:08:12.000Z</time>
      </trkpt>
      <trkpt lat="32.72028948180377483367919921875" lon="-16.88582648523151874542236328125">
        <ele>1235</ele>
        <time>2018-06-24T12:08:14.000Z</time>
      </trkpt>
      <trkpt lat="32.72022896446287631988525390625" lon="-16.88581399619579315185546875">
        <ele>1235.800048828125</ele>
        <time>2018-06-24T12:08:19.000Z</time>
      </trkpt>
      <trkpt lat="32.7201908268034458160400390625" lon="-16.88578709028661251068115234375">
        <ele>1236.800048828125</ele>
        <time>2018-06-24T12:08:23.000Z</time>
      </trkpt>
      <trkpt lat="32.72018437273800373077392578125" lon="-16.8857824802398681640625">
        <ele>1237</ele>
        <time>2018-06-24T12:08:24.000Z</time>
      </trkpt>
      <trkpt lat="32.7201529406011104583740234375" lon="-16.8857729248702526092529296875">
        <ele>1237.800048828125</ele>
        <time>2018-06-24T12:08:28.000Z</time>
      </trkpt>
      <trkpt lat="32.72010340355336666107177734375" lon="-16.88577644526958465576171875">
        <ele>1238.5999755859375</ele>
        <time>2018-06-24T12:08:32.000Z</time>
      </trkpt>
      <trkpt lat="32.72009032778441905975341796875" lon="-16.8857776187360286712646484375">
        <ele>1238.800048828125</ele>
        <time>2018-06-24T12:08:33.000Z</time>
      </trkpt>
      <trkpt lat="32.72002947516739368438720703125" lon="-16.8857678957283496856689453125">
        <ele>1239.800048828125</ele>
        <time>2018-06-24T12:08:37.000Z</time>
      </trkpt>
      <trkpt lat="32.71996007300913333892822265625" lon="-16.8857672251760959625244140625">
        <ele>1241</ele>
        <time>2018-06-24T12:08:42.000Z</time>
      </trkpt>
      <trkpt lat="32.7198904193937778472900390625" lon="-16.88575364649295806884765625">
        <ele>1242.199951171875</ele>
        <time>2018-06-24T12:08:47.000Z</time>
      </trkpt>
      <trkpt lat="32.71983300335705280303955078125" lon="-16.8857461027801036834716796875">
        <ele>1243.4000244140625</ele>
        <time>2018-06-24T12:08:52.000Z</time>
      </trkpt>
      <trkpt lat="32.719766199588775634765625" lon="-16.88571634702384471893310546875">
        <ele>1244.4000244140625</ele>
        <time>2018-06-24T12:08:58.000Z</time>
      </trkpt>
      <trkpt lat="32.71968497894704341888427734375" lon="-16.8857172690331935882568359375">
        <ele>1245.5999755859375</ele>
        <time>2018-06-24T12:09:03.000Z</time>
      </trkpt>
      <trkpt lat="32.71960635669529438018798828125" lon="-16.88572405837476253509521484375">
        <ele>1246.800048828125</ele>
        <time>2018-06-24T12:09:08.000Z</time>
      </trkpt>
      <trkpt lat="32.71955338306725025177001953125" lon="-16.88573143444955348968505859375">
        <ele>1247.800048828125</ele>
        <time>2018-06-24T12:09:13.000Z</time>
      </trkpt>
      <trkpt lat="32.71950803697109222412109375" lon="-16.8857373856008052825927734375">
        <ele>1248.800048828125</ele>
        <time>2018-06-24T12:09:17.000Z</time>
      </trkpt>
      <trkpt lat="32.71945975720882415771484375" lon="-16.88573420047760009765625">
        <ele>1249.800048828125</ele>
        <time>2018-06-24T12:09:21.000Z</time>
      </trkpt>
      <trkpt lat="32.719406783580780029296875" lon="-16.88574559986591339111328125">
        <ele>1251.199951171875</ele>
        <time>2018-06-24T12:09:26.000Z</time>
      </trkpt>
      <trkpt lat="32.71932556293904781341552734375" lon="-16.88575071282684803009033203125">
        <ele>1252.199951171875</ele>
        <time>2018-06-24T12:09:32.000Z</time>
      </trkpt>
      <trkpt lat="32.71913378499448299407958984375" lon="-16.88572003506124019622802734375">
        <ele>1253.199951171875</ele>
        <time>2018-06-24T12:09:41.000Z</time>
      </trkpt>
      <trkpt lat="32.7191112376749515533447265625" lon="-16.885715089738368988037109375">
        <ele>1253.199951171875</ele>
        <time>2018-06-24T12:09:42.000Z</time>
      </trkpt>
      <trkpt lat="32.71895122714340686798095703125" lon="-16.88560034148395061492919921875">
        <ele>1253.800048828125</ele>
        <time>2018-06-24T12:09:52.000Z</time>
      </trkpt>
      <trkpt lat="32.71883589215576648712158203125" lon="-16.88553311862051486968994140625">
        <ele>1254.199951171875</ele>
        <time>2018-06-24T12:09:59.000Z</time>
      </trkpt>
      <trkpt lat="32.71867462433874607086181640625" lon="-16.88544879667460918426513671875">
        <ele>1255.4000244140625</ele>
        <time>2018-06-24T12:10:08.000Z</time>
      </trkpt>
      <trkpt lat="32.7185593731701374053955078125" lon="-16.88539154827594757080078125">
        <ele>1256.5999755859375</ele>
        <time>2018-06-24T12:10:14.000Z</time>
      </trkpt>
      <trkpt lat="32.71844529546797275543212890625" lon="-16.8853390775620937347412109375">
        <ele>1257.5999755859375</ele>
        <time>2018-06-24T12:10:21.000Z</time>
      </trkpt>
      <trkpt lat="32.7184101752936840057373046875" lon="-16.8853377364575862884521484375">
        <ele>1258.800048828125</ele>
        <time>2018-06-24T12:10:25.000Z</time>
      </trkpt>
      <trkpt lat="32.71832174621522426605224609375" lon="-16.885395236313343048095703125">
        <ele>1260</ele>
        <time>2018-06-24T12:10:30.000Z</time>
      </trkpt>
      <trkpt lat="32.71824203431606292724609375" lon="-16.885490454733371734619140625">
        <ele>1261.199951171875</ele>
        <time>2018-06-24T12:10:35.000Z</time>
      </trkpt>
      <trkpt lat="32.71817489527165889739990234375" lon="-16.8855503015220165252685546875">
        <ele>1262.4000244140625</ele>
        <time>2018-06-24T12:10:40.000Z</time>
      </trkpt>
      <trkpt lat="32.71812259219586849212646484375" lon="-16.8856255710124969482421875">
        <ele>1263.4000244140625</ele>
        <time>2018-06-24T12:10:46.000Z</time>
      </trkpt>
      <trkpt lat="32.7180856280028820037841796875" lon="-16.88567192293703556060791015625">
        <ele>1264.5999755859375</ele>
        <time>2018-06-24T12:10:51.000Z</time>
      </trkpt>
      <trkpt lat="32.71806241013109683990478515625" lon="-16.88573394902050495147705078125">
        <ele>1265.800048828125</ele>
        <time>2018-06-24T12:10:56.000Z</time>
      </trkpt>
      <trkpt lat="32.718035168945789337158203125" lon="-16.8857860006392002105712890625">
        <ele>1267</ele>
        <time>2018-06-24T12:11:01.000Z</time>
      </trkpt>
      <trkpt lat="32.7180058322846889495849609375" lon="-16.88585515134036540985107421875">
        <ele>1268.199951171875</ele>
        <time>2018-06-24T12:11:07.000Z</time>
      </trkpt>
      <trkpt lat="32.71800038404762744903564453125" lon="-16.885864622890949249267578125">
        <ele>1268.4000244140625</ele>
        <time>2018-06-24T12:11:08.000Z</time>
      </trkpt>
      <trkpt lat="32.7179597318172454833984375" lon="-16.885902173817157745361328125">
        <ele>1269.5999755859375</ele>
        <time>2018-06-24T12:11:12.000Z</time>
      </trkpt>
      <trkpt lat="32.7179273776710033416748046875" lon="-16.885924972593784332275390625">
        <ele>1270.5999755859375</ele>
        <time>2018-06-24T12:11:16.000Z</time>
      </trkpt>
      <trkpt lat="32.717891670763492584228515625" lon="-16.88595724292099475860595703125">
        <ele>1271.800048828125</ele>
        <time>2018-06-24T12:11:21.000Z</time>
      </trkpt>
      <trkpt lat="32.717835344374179840087890625" lon="-16.885973252356052398681640625">
        <ele>1273</ele>
        <time>2018-06-24T12:11:26.000Z</time>
      </trkpt>
      <trkpt lat="32.7177785150706768035888671875" lon="-16.88600770197808742523193359375">
        <ele>1274</ele>
        <time>2018-06-24T12:11:31.000Z</time>
      </trkpt>
      <trkpt lat="32.7177124656736850738525390625" lon="-16.8860314227640628814697265625">
        <ele>1275.199951171875</ele>
        <time>2018-06-24T12:11:36.000Z</time>
      </trkpt>
      <trkpt lat="32.717645578086376190185546875" lon="-16.88607039861381053924560546875">
        <ele>1276.199951171875</ele>
        <time>2018-06-24T12:11:41.000Z</time>
      </trkpt>
      <trkpt lat="32.71761842072010040283203125" lon="-16.8860833905637264251708984375">
        <ele>1276.800048828125</ele>
        <time>2018-06-24T12:11:44.000Z</time>
      </trkpt>
      <trkpt lat="32.717595957219600677490234375" lon="-16.88610292039811611175537109375">
        <ele>1277.4000244140625</ele>
        <time>2018-06-24T12:11:46.000Z</time>
      </trkpt>
      <trkpt lat="32.71753485314548015594482421875" lon="-16.88613946549594402313232421875">
        <ele>1278.5999755859375</ele>
        <time>2018-06-24T12:11:52.000Z</time>
      </trkpt>
      <trkpt lat="32.71748037077486515045166015625" lon="-16.88617483712732791900634765625">
        <ele>1279.800048828125</ele>
        <time>2018-06-24T12:11:57.000Z</time>
      </trkpt>
      <trkpt lat="32.717411220073699951171875" lon="-16.88619059510529041290283203125">
        <ele>1281</ele>
        <time>2018-06-24T12:12:02.000Z</time>
      </trkpt>
      <trkpt lat="32.7173299156129360198974609375" lon="-16.88620023429393768310546875">
        <ele>1282.199951171875</ele>
        <time>2018-06-24T12:12:07.000Z</time>
      </trkpt>
      <trkpt lat="32.71724291145801544189453125" lon="-16.88620400615036487579345703125">
        <ele>1283.199951171875</ele>
        <time>2018-06-24T12:12:12.000Z</time>
      </trkpt>
      <trkpt lat="32.717211060225963592529296875" lon="-16.88620266504585742950439453125">
        <ele>1283.800048828125</ele>
        <time>2018-06-24T12:12:15.000Z</time>
      </trkpt>
      <trkpt lat="32.71717476658523082733154296875" lon="-16.88619780354201793670654296875">
        <ele>1284.4000244140625</ele>
        <time>2018-06-24T12:12:18.000Z</time>
      </trkpt>
      <trkpt lat="32.71714962087571620941162109375" lon="-16.886201910674571990966796875">
        <ele>1284.800048828125</ele>
        <time>2018-06-24T12:12:20.000Z</time>
      </trkpt>
      <trkpt lat="32.7171039395034313201904296875" lon="-16.88620618544518947601318359375">
        <ele>1285.4000244140625</ele>
        <time>2018-06-24T12:12:23.000Z</time>
      </trkpt>
      <trkpt lat="32.71704434417188167572021484375" lon="-16.88619998283684253692626953125">
        <ele>1286.5999755859375</ele>
        <time>2018-06-24T12:12:28.000Z</time>
      </trkpt>
      <trkpt lat="32.71699170581996440887451171875" lon="-16.88620819710195064544677734375">
        <ele>1287.800048828125</ele>
        <time>2018-06-24T12:12:33.000Z</time>
      </trkpt>
      <trkpt lat="32.7169490419328212738037109375" lon="-16.88621255569159984588623046875">
        <ele>1288.800048828125</ele>
        <time>2018-06-24T12:12:37.000Z</time>
      </trkpt>
      <trkpt lat="32.71687100641429424285888671875" lon="-16.88621691428124904632568359375">
        <ele>1290</ele>
        <time>2018-06-24T12:12:42.000Z</time>
      </trkpt>
      <trkpt lat="32.71679540164768695831298828125" lon="-16.886242143809795379638671875">
        <ele>1291</ele>
        <time>2018-06-24T12:12:47.000Z</time>
      </trkpt>
      <trkpt lat="32.71674335002899169921875" lon="-16.88626854680478572845458984375">
        <ele>1292.199951171875</ele>
        <time>2018-06-24T12:12:52.000Z</time>
      </trkpt>
      <trkpt lat="32.71670185960829257965087890625" lon="-16.88631934113800525665283203125">
        <ele>1293.199951171875</ele>
        <time>2018-06-24T12:12:57.000Z</time>
      </trkpt>
      <trkpt lat="32.71666145883500576019287109375" lon="-16.88637834973633289337158203125">
        <ele>1294.199951171875</ele>
        <time>2018-06-24T12:13:02.000Z</time>
      </trkpt>
      <trkpt lat="32.7166372351348400115966796875" lon="-16.886427886784076690673828125">
        <ele>1295.199951171875</ele>
        <time>2018-06-24T12:13:06.000Z</time>
      </trkpt>
      <trkpt lat="32.7166151069104671478271484375" lon="-16.88647055067121982574462890625">
        <ele>1296.4000244140625</ele>
        <time>2018-06-24T12:13:09.000Z</time>
      </trkpt>
      <trkpt lat="32.7165711857378482818603515625" lon="-16.88652335666120052337646484375">
        <ele>1297.5999755859375</ele>
        <time>2018-06-24T12:13:13.000Z</time>
      </trkpt>
      <trkpt lat="32.7165158651769161224365234375" lon="-16.88655696809291839599609375">
        <ele>1298.800048828125</ele>
        <time>2018-06-24T12:13:17.000Z</time>
      </trkpt>
      <trkpt lat="32.71643045358359813690185546875" lon="-16.88660633750259876251220703125">
        <ele>1300</ele>
        <time>2018-06-24T12:13:23.000Z</time>
      </trkpt>
      <trkpt lat="32.7163666673004627227783203125" lon="-16.88661522231996059417724609375">
        <ele>1301.199951171875</ele>
        <time>2018-06-24T12:13:29.000Z</time>
      </trkpt>
      <trkpt lat="32.7162932418286800384521484375" lon="-16.88661974854767322540283203125">
        <ele>1302.199951171875</ele>
        <time>2018-06-24T12:13:34.000Z</time>
      </trkpt>
      <trkpt lat="32.7162134461104869842529296875" lon="-16.88663617707788944244384765625">
        <ele>1303.4000244140625</ele>
        <time>2018-06-24T12:13:39.000Z</time>
      </trkpt>
      <trkpt lat="32.7161410264670848846435546875" lon="-16.8866396136581897735595703125">
        <ele>1304.4000244140625</ele>
        <time>2018-06-24T12:13:43.000Z</time>
      </trkpt>
      <trkpt lat="32.71607480943202972412109375" lon="-16.88666501082479953765869140625">
        <ele>1305.5999755859375</ele>
        <time>2018-06-24T12:13:47.000Z</time>
      </trkpt>
      <trkpt lat="32.7159668505191802978515625" lon="-16.88669870607554912567138671875">
        <ele>1306.5999755859375</ele>
        <time>2018-06-24T12:13:53.000Z</time>
      </trkpt>
      <trkpt lat="32.71586316637694835662841796875" lon="-16.88669367693364620208740234375">
        <ele>1307.5999755859375</ele>
        <time>2018-06-24T12:13:59.000Z</time>
      </trkpt>
      <trkpt lat="32.7157360129058361053466796875" lon="-16.88667339272797107696533203125">
        <ele>1308.800048828125</ele>
        <time>2018-06-24T12:14:06.000Z</time>
      </trkpt>
      <trkpt lat="32.7156438119709491729736328125" lon="-16.8866624124348163604736328125">
        <ele>1309.800048828125</ele>
        <time>2018-06-24T12:14:11.000Z</time>
      </trkpt>
      <trkpt lat="32.71549905650317668914794921875" lon="-16.8866080977022647857666015625">
        <ele>1311</ele>
        <time>2018-06-24T12:14:20.000Z</time>
      </trkpt>
      <trkpt lat="32.7153900079429149627685546875" lon="-16.8866206705570220947265625">
        <ele>1312</ele>
        <time>2018-06-24T12:14:28.000Z</time>
      </trkpt>
      <trkpt lat="32.7153678797185420989990234375" lon="-16.886622011661529541015625">
        <ele>1312.199951171875</ele>
        <time>2018-06-24T12:14:30.000Z</time>
      </trkpt>
      <trkpt lat="32.71533845923840999603271484375" lon="-16.88661907799541950225830078125">
        <ele>1312.5999755859375</ele>
        <time>2018-06-24T12:14:32.000Z</time>
      </trkpt>
      <trkpt lat="32.71529504097998142242431640625" lon="-16.8866308964788913726806640625">
        <ele>1313</ele>
        <time>2018-06-24T12:14:35.000Z</time>
      </trkpt>
      <trkpt lat="32.715208120644092559814453125" lon="-16.88667356036603450775146484375">
        <ele>1314.199951171875</ele>
        <time>2018-06-24T12:14:41.000Z</time>
      </trkpt>
      <trkpt lat="32.7151556499302387237548828125" lon="-16.88672368414700031280517578125">
        <ele>1315.199951171875</ele>
        <time>2018-06-24T12:14:46.000Z</time>
      </trkpt>
      <trkpt lat="32.715104185044765472412109375" lon="-16.88675100915133953094482421875">
        <ele>1316.4000244140625</ele>
        <time>2018-06-24T12:14:51.000Z</time>
      </trkpt>
      <trkpt lat="32.71506018005311489105224609375" lon="-16.88680733554065227508544921875">
        <ele>1317.4000244140625</ele>
        <time>2018-06-24T12:14:56.000Z</time>
      </trkpt>
      <trkpt lat="32.7150027640163898468017578125" lon="-16.88686902634799480438232421875">
        <ele>1318.5999755859375</ele>
        <time>2018-06-24T12:15:01.000Z</time>
      </trkpt>
      <trkpt lat="32.71493629552423954010009765625" lon="-16.88691110350191593170166015625">
        <ele>1319.800048828125</ele>
        <time>2018-06-24T12:15:06.000Z</time>
      </trkpt>
      <trkpt lat="32.71490042097866535186767578125" lon="-16.88694178126752376556396484375">
        <ele>1320.5999755859375</ele>
        <time>2018-06-24T12:15:09.000Z</time>
      </trkpt>
      <trkpt lat="32.7148751914501190185546875" lon="-16.88695820979773998260498046875">
        <ele>1321</ele>
        <time>2018-06-24T12:15:11.000Z</time>
      </trkpt>
      <trkpt lat="32.71481090225279331207275390625" lon="-16.88700414262712001800537109375">
        <ele>1322.4000244140625</ele>
        <time>2018-06-24T12:15:16.000Z</time>
      </trkpt>
      <trkpt lat="32.71477796137332916259765625" lon="-16.88704253174364566802978515625">
        <ele>1323.4000244140625</ele>
        <time>2018-06-24T12:15:20.000Z</time>
      </trkpt>
      <trkpt lat="32.71473362110555171966552734375" lon="-16.8870895542204380035400390625">
        <ele>1324.800048828125</ele>
        <time>2018-06-24T12:15:25.000Z</time>
      </trkpt>
      <trkpt lat="32.7146815694868564605712890625" lon="-16.8871157057583332061767578125">
        <ele>1326</ele>
        <time>2018-06-24T12:15:29.000Z</time>
      </trkpt>
      <trkpt lat="32.71462666802108287811279296875" lon="-16.88713691197335720062255859375">
        <ele>1327</ele>
        <time>2018-06-24T12:15:33.000Z</time>
      </trkpt>
      <trkpt lat="32.7145809866487979888916015625" lon="-16.887149401009082794189453125">
        <ele>1328.199951171875</ele>
        <time>2018-06-24T12:15:37.000Z</time>
      </trkpt>
      <trkpt lat="32.714536897838115692138671875" lon="-16.88718502409756183624267578125">
        <ele>1329.199951171875</ele>
        <time>2018-06-24T12:15:41.000Z</time>
      </trkpt>
      <trkpt lat="32.714498676359653472900390625" lon="-16.88723028637468814849853515625">
        <ele>1330.199951171875</ele>
        <time>2018-06-24T12:15:45.000Z</time>
      </trkpt>
      <trkpt lat="32.7144224010407924652099609375" lon="-16.88728409819304943084716796875">
        <ele>1331.5999755859375</ele>
        <time>2018-06-24T12:15:50.000Z</time>
      </trkpt>
      <trkpt lat="32.71435341797769069671630859375" lon="-16.88731175847351551055908203125">
        <ele>1332.5999755859375</ele>
        <time>2018-06-24T12:15:55.000Z</time>
      </trkpt>
      <trkpt lat="32.71430932916700839996337890625" lon="-16.887348555028438568115234375">
        <ele>1333.800048828125</ele>
        <time>2018-06-24T12:16:00.000Z</time>
      </trkpt>
      <trkpt lat="32.71427747793495655059814453125" lon="-16.887370683252811431884765625">
        <ele>1334.5999755859375</ele>
        <time>2018-06-24T12:16:04.000Z</time>
      </trkpt>
      <trkpt lat="32.7142671681940555572509765625" lon="-16.88737370073795318603515625">
        <ele>1334.800048828125</ele>
        <time>2018-06-24T12:16:05.000Z</time>
      </trkpt>
      <trkpt lat="32.71424076519906520843505859375" lon="-16.88738669268786907196044921875">
        <ele>1335.4000244140625</ele>
        <time>2018-06-24T12:16:07.000Z</time>
      </trkpt>
      <trkpt lat="32.714214362204074859619140625" lon="-16.88739784061908721923828125">
        <ele>1335.800048828125</ele>
        <time>2018-06-24T12:16:09.000Z</time>
      </trkpt>
      <trkpt lat="32.7141454629600048065185546875" lon="-16.8874369002878665924072265625">
        <ele>1337.199951171875</ele>
        <time>2018-06-24T12:16:14.000Z</time>
      </trkpt>
      <trkpt lat="32.7141022123396396636962890625" lon="-16.88747419975697994232177734375">
        <ele>1338.199951171875</ele>
        <time>2018-06-24T12:16:18.000Z</time>
      </trkpt>
      <trkpt lat="32.71406910382211208343505859375" lon="-16.88749481923878192901611328125">
        <ele>1339.4000244140625</ele>
        <time>2018-06-24T12:16:22.000Z</time>
      </trkpt>
      <trkpt lat="32.714018560945987701416015625" lon="-16.88753069378435611724853515625">
        <ele>1340.5999755859375</ele>
        <time>2018-06-24T12:16:26.000Z</time>
      </trkpt>
      <trkpt lat="32.71398914046585559844970703125" lon="-16.88758836127817630767822265625">
        <ele>1341.5999755859375</ele>
        <time>2018-06-24T12:16:30.000Z</time>
      </trkpt>
      <trkpt lat="32.7139550261199474334716796875" lon="-16.88766128383576869964599609375">
        <ele>1342.800048828125</ele>
        <time>2018-06-24T12:16:35.000Z</time>
      </trkpt>
      <trkpt lat="32.7139271982014179229736328125" lon="-16.88770939595997333526611328125">
        <ele>1344</ele>
        <time>2018-06-24T12:16:39.000Z</time>
      </trkpt>
      <trkpt lat="32.7139069139957427978515625" lon="-16.887783743441104888916015625">
        <ele>1345</ele>
        <time>2018-06-24T12:16:43.000Z</time>
      </trkpt>
      <trkpt lat="32.71387548185884952545166015625" lon="-16.8878335319459438323974609375">
        <ele>1346.4000244140625</ele>
        <time>2018-06-24T12:16:47.000Z</time>
      </trkpt>
      <trkpt lat="32.713854610919952392578125" lon="-16.8878399021923542022705078125">
        <ele>1346.800048828125</ele>
        <time>2018-06-24T12:16:49.000Z</time>
      </trkpt>
      <trkpt lat="32.7138185687363147735595703125" lon="-16.88780528493225574493408203125">
        <ele>1347.4000244140625</ele>
        <time>2018-06-24T12:16:54.000Z</time>
      </trkpt>
      <trkpt lat="32.7138054929673671722412109375" lon="-16.88777058385312557220458984375">
        <ele>1348</ele>
        <time>2018-06-24T12:16:57.000Z</time>
      </trkpt>
      <trkpt lat="32.71380004473030567169189453125" lon="-16.88772104680538177490234375">
        <ele>1348.5999755859375</ele>
        <time>2018-06-24T12:17:00.000Z</time>
      </trkpt>
      <trkpt lat="32.71377540193498134613037109375" lon="-16.88762247562408447265625">
        <ele>1349.5999755859375</ele>
        <time>2018-06-24T12:17:05.000Z</time>
      </trkpt>
      <trkpt lat="32.71376400254666805267333984375" lon="-16.88751040957868099212646484375">
        <ele>1350.5999755859375</ele>
        <time>2018-06-24T12:17:11.000Z</time>
      </trkpt>
      <trkpt lat="32.7137726359069347381591796875" lon="-16.88742466270923614501953125">
        <ele>1351.4000244140625</ele>
        <time>2018-06-24T12:17:17.000Z</time>
      </trkpt>
      <trkpt lat="32.713801302015781402587890625" lon="-16.8873448669910430908203125">
        <ele>1351.4000244140625</ele>
        <time>2018-06-24T12:17:26.000Z</time>
      </trkpt>
      <trkpt lat="32.71379233337938785552978515625" lon="-16.8872769735753536224365234375">
        <ele>1351.5999755859375</ele>
        <time>2018-06-24T12:17:31.000Z</time>
      </trkpt>
      <trkpt lat="32.71376031450927257537841796875" lon="-16.88725459389388561248779296875">
        <ele>1353</ele>
        <time>2018-06-24T12:17:35.000Z</time>
      </trkpt>
      <trkpt lat="32.71371354348957538604736328125" lon="-16.88724537380039691925048828125">
        <ele>1354.199951171875</ele>
        <time>2018-06-24T12:17:40.000Z</time>
      </trkpt>
      <trkpt lat="32.71367867477238178253173828125" lon="-16.8872313760221004486083984375">
        <ele>1355.199951171875</ele>
        <time>2018-06-24T12:17:43.000Z</time>
      </trkpt>
      <trkpt lat="32.71362855099141597747802734375" lon="-16.8872176297008991241455078125">
        <ele>1356.4000244140625</ele>
        <time>2018-06-24T12:17:48.000Z</time>
      </trkpt>
      <trkpt lat="32.7135526947677135467529296875" lon="-16.8872250057756900787353515625">
        <ele>1357.800048828125</ele>
        <time>2018-06-24T12:17:55.000Z</time>
      </trkpt>
      <trkpt lat="32.71347348578274250030517578125" lon="-16.8872353993356227874755859375">
        <ele>1359</ele>
        <time>2018-06-24T12:18:02.000Z</time>
      </trkpt>
      <trkpt lat="32.71343073807656764984130859375" lon="-16.88721000216901302337646484375">
        <ele>1360.199951171875</ele>
        <time>2018-06-24T12:18:07.000Z</time>
      </trkpt>
      <trkpt lat="32.7134373597800731658935546875" lon="-16.88716339878737926483154296875">
        <ele>1361.4000244140625</ele>
        <time>2018-06-24T12:18:13.000Z</time>
      </trkpt>
      <trkpt lat="32.71345429122447967529296875" lon="-16.88712383620440959930419921875">
        <ele>1362.4000244140625</ele>
        <time>2018-06-24T12:18:18.000Z</time>
      </trkpt>
      <trkpt lat="32.71346946246922016143798828125" lon="-16.8870945833623409271240234375">
        <ele>1363.5999755859375</ele>
        <time>2018-06-24T12:18:22.000Z</time>
      </trkpt>
      <trkpt lat="32.713477425277233123779296875" lon="-16.88704068772494792938232421875">
        <ele>1364.800048828125</ele>
        <time>2018-06-24T12:18:27.000Z</time>
      </trkpt>
      <trkpt lat="32.713468708097934722900390625" lon="-16.887037754058837890625">
        <ele>1364.800048828125</ele>
        <time>2018-06-24T12:18:28.000Z</time>
      </trkpt>
      <trkpt lat="32.713456638157367706298828125" lon="-16.88701889477670192718505859375">
        <ele>1365.199951171875</ele>
        <time>2018-06-24T12:18:31.000Z</time>
      </trkpt>
      <trkpt lat="32.71348002366721630096435546875" lon="-16.88698218204081058502197265625">
        <ele>1366</ele>
        <time>2018-06-24T12:18:35.000Z</time>
      </trkpt>
      <trkpt lat="32.71351606585085391998291015625" lon="-16.8869497440755367279052734375">
        <ele>1366.4000244140625</ele>
        <time>2018-06-24T12:18:38.000Z</time>
      </trkpt>
      <trkpt lat="32.7135412953794002532958984375" lon="-16.88693893142044544219970703125">
        <ele>1367.199951171875</ele>
        <time>2018-06-24T12:18:41.000Z</time>
      </trkpt>
      <trkpt lat="32.71359502337872982025146484375" lon="-16.8868914060294628143310546875">
        <ele>1368</ele>
        <time>2018-06-24T12:18:46.000Z</time>
      </trkpt>
      <trkpt lat="32.7136073447763919830322265625" lon="-16.886883191764354705810546875">
        <ele>1368.4000244140625</ele>
        <time>2018-06-24T12:18:47.000Z</time>
      </trkpt>
      <trkpt lat="32.71365679800510406494140625" lon="-16.88683046959340572357177734375">
        <ele>1369.4000244140625</ele>
        <time>2018-06-24T12:18:52.000Z</time>
      </trkpt>
      <trkpt lat="32.7137210033833980560302734375" lon="-16.8867710418999195098876953125">
        <ele>1370.4000244140625</ele>
        <time>2018-06-24T12:18:58.000Z</time>
      </trkpt>
      <trkpt lat="32.71379367448389530181884765625" lon="-16.88671781681478023529052734375">
        <ele>1371.4000244140625</ele>
        <time>2018-06-24T12:19:05.000Z</time>
      </trkpt>
      <trkpt lat="32.71388436667621135711669921875" lon="-16.88665009103715419769287109375">
        <ele>1372.5999755859375</ele>
        <time>2018-06-24T12:19:13.000Z</time>
      </trkpt>
      <trkpt lat="32.7140482328832149505615234375" lon="-16.8865316547453403472900390625">
        <ele>1372.5999755859375</ele>
        <time>2018-06-24T12:19:25.000Z</time>
      </trkpt>
      <trkpt lat="32.71405401639640331268310546875" lon="-16.8865160644054412841796875">
        <ele>1372.800048828125</ele>
        <time>2018-06-24T12:19:26.000Z</time>
      </trkpt>
      <trkpt lat="32.71410598419606685638427734375" lon="-16.88635387457907199859619140625">
        <ele>1373.5999755859375</ele>
        <time>2018-06-24T12:19:34.000Z</time>
      </trkpt>
      <trkpt lat="32.71412325091660022735595703125" lon="-16.88631129451096057891845703125">
        <ele>1374</ele>
        <time>2018-06-24T12:19:37.000Z</time>
      </trkpt>
      <trkpt lat="32.714257948100566864013671875" lon="-16.8861608393490314483642578125">
        <ele>1374</ele>
        <time>2018-06-24T12:19:45.000Z</time>
      </trkpt>
      <trkpt lat="32.714320980012416839599609375" lon="-16.88602413050830364227294921875">
        <ele>1374</ele>
        <time>2018-06-24T12:19:51.000Z</time>
      </trkpt>
      <trkpt lat="32.714428268373012542724609375" lon="-16.88590611331164836883544921875">
        <ele>1374.5999755859375</ele>
        <time>2018-06-24T12:19:58.000Z</time>
      </trkpt>
      <trkpt lat="32.71457369439303874969482421875" lon="-16.8857461027801036834716796875">
        <ele>1373.800048828125</ele>
        <time>2018-06-24T12:20:06.000Z</time>
      </trkpt>
      <trkpt lat="32.7146718464791774749755859375" lon="-16.885546110570430755615234375">
        <ele>1373.5999755859375</ele>
        <time>2018-06-24T12:20:14.000Z</time>
      </trkpt>
      <trkpt lat="32.71475994028151035308837890625" lon="-16.88540571369230747222900390625">
        <ele>1372.4000244140625</ele>
        <time>2018-06-24T12:20:19.000Z</time>
      </trkpt>
      <trkpt lat="32.71487477235496044158935546875" lon="-16.8853524886071681976318359375">
        <ele>1371.199951171875</ele>
        <time>2018-06-24T12:20:24.000Z</time>
      </trkpt>
      <trkpt lat="32.71494098939001560211181640625" lon="-16.8853270076215267181396484375">
        <ele>1370.199951171875</ele>
        <time>2018-06-24T12:20:27.000Z</time>
      </trkpt>
      <trkpt lat="32.714960016310214996337890625" lon="-16.885306052863597869873046875">
        <ele>1370</ele>
        <time>2018-06-24T12:20:28.000Z</time>
      </trkpt>
      <trkpt lat="32.7150141634047031402587890625" lon="-16.88521494157612323760986328125">
        <ele>1368.5999755859375</ele>
        <time>2018-06-24T12:20:32.000Z</time>
      </trkpt>
      <trkpt lat="32.71503536961972713470458984375" lon="-16.885201446712017059326171875">
        <ele>1368</ele>
        <time>2018-06-24T12:20:33.000Z</time>
      </trkpt>
      <trkpt lat="32.71505766548216342926025390625" lon="-16.88519029878079891204833984375">
        <ele>1367.4000244140625</ele>
        <time>2018-06-24T12:20:34.000Z</time>
      </trkpt>
      <trkpt lat="32.71510963328182697296142578125" lon="-16.8851717747747898101806640625">
        <ele>1366.199951171875</ele>
        <time>2018-06-24T12:20:36.000Z</time>
      </trkpt>
      <trkpt lat="32.7151943743228912353515625" lon="-16.88498628325760364532470703125">
        <ele>1366.199951171875</ele>
        <time>2018-06-24T12:20:45.000Z</time>
      </trkpt>
      <trkpt lat="32.71527819335460662841796875" lon="-16.88479735516011714935302734375">
        <ele>1366.4000244140625</ele>
        <time>2018-06-24T12:20:54.000Z</time>
      </trkpt>
      <trkpt lat="32.71528900600969791412353515625" lon="-16.88471571542322635650634765625">
        <ele>1367.199951171875</ele>
        <time>2018-06-24T12:20:57.000Z</time>
      </trkpt>
      <trkpt lat="32.7153192646801471710205078125" lon="-16.88463927246630191802978515625">
        <ele>1368.4000244140625</ele>
        <time>2018-06-24T12:21:01.000Z</time>
      </trkpt>
      <trkpt lat="32.71542043425142765045166015625" lon="-16.88449703156948089599609375">
        <ele>1369.4000244140625</ele>
        <time>2018-06-24T12:21:07.000Z</time>
      </trkpt>
      <trkpt lat="32.71546318195760250091552734375" lon="-16.88442301936447620391845703125">
        <ele>1370.5999755859375</ele>
        <time>2018-06-24T12:21:11.000Z</time>
      </trkpt>
      <trkpt lat="32.71548832766711711883544921875" lon="-16.8843547068536281585693359375">
        <ele>1371.5999755859375</ele>
        <time>2018-06-24T12:21:15.000Z</time>
      </trkpt>
      <trkpt lat="32.71555420942604541778564453125" lon="-16.88430634327232837677001953125">
        <ele>1373</ele>
        <time>2018-06-24T12:21:20.000Z</time>
      </trkpt>
      <trkpt lat="32.7155945263803005218505859375" lon="-16.884280778467655181884765625">
        <ele>1374</ele>
        <time>2018-06-24T12:21:23.000Z</time>
      </trkpt>
      <trkpt lat="32.7156495116651058197021484375" lon="-16.88422621227800846099853515625">
        <ele>1375.199951171875</ele>
        <time>2018-06-24T12:21:27.000Z</time>
      </trkpt>
      <trkpt lat="32.71567977033555507659912109375" lon="-16.88419017009437084197998046875">
        <ele>1376</ele>
        <time>2018-06-24T12:21:30.000Z</time>
      </trkpt>
      <trkpt lat="32.71568723022937774658203125" lon="-16.8841736577451229095458984375">
        <ele>1376.199951171875</ele>
        <time>2018-06-24T12:21:31.000Z</time>
      </trkpt>
      <trkpt lat="32.71570734679698944091796875" lon="-16.88410785980522632598876953125">
        <ele>1377.5999755859375</ele>
        <time>2018-06-24T12:21:35.000Z</time>
      </trkpt>
      <trkpt lat="32.71574556827545166015625" lon="-16.88397659920156002044677734375">
        <ele>1378.800048828125</ele>
        <time>2018-06-24T12:21:41.000Z</time>
      </trkpt>
      <trkpt lat="32.71576157771050930023193359375" lon="-16.883849613368511199951171875">
        <ele>1379.4000244140625</ele>
        <time>2018-06-24T12:21:46.000Z</time>
      </trkpt>
      <trkpt lat="32.7158064208924770355224609375" lon="-16.88363411463797092437744140625">
        <ele>1379.5999755859375</ele>
        <time>2018-06-24T12:21:55.000Z</time>
      </trkpt>
      <trkpt lat="32.715822346508502960205078125" lon="-16.88358533196151256561279296875">
        <ele>1379.800048828125</ele>
        <time>2018-06-24T12:21:57.000Z</time>
      </trkpt>
      <trkpt lat="32.715850509703159332275390625" lon="-16.88336354680359363555908203125">
        <ele>1379.5999755859375</ele>
        <time>2018-06-24T12:22:05.000Z</time>
      </trkpt>
      <trkpt lat="32.715901471674442291259765625" lon="-16.8831498920917510986328125">
        <ele>1379.4000244140625</ele>
        <time>2018-06-24T12:22:12.000Z</time>
      </trkpt>
      <trkpt lat="32.715947739779949188232421875" lon="-16.88293808139860630035400390625">
        <ele>1380.4000244140625</ele>
        <time>2018-06-24T12:22:20.000Z</time>
      </trkpt>
      <trkpt lat="32.71599140949547290802001953125" lon="-16.882839091122150421142578125">
        <ele>1380.800048828125</ele>
        <time>2018-06-24T12:22:24.000Z</time>
      </trkpt>
      <trkpt lat="32.716048322618007659912109375" lon="-16.88261185772716999053955078125">
        <ele>1381.5999755859375</ele>
        <time>2018-06-24T12:22:32.000Z</time>
      </trkpt>
      <trkpt lat="32.71611931733787059783935546875" lon="-16.88239862211048603057861328125">
        <ele>1381</ele>
        <time>2018-06-24T12:22:39.000Z</time>
      </trkpt>
      <trkpt lat="32.71619425155222415924072265625" lon="-16.882171221077442169189453125">
        <ele>1379.5999755859375</ele>
        <time>2018-06-24T12:22:47.000Z</time>
      </trkpt>
      <trkpt lat="32.7162020467221736907958984375" lon="-16.88210659660398960113525390625">
        <ele>1378</ele>
        <time>2018-06-24T12:22:49.000Z</time>
      </trkpt>
      <trkpt lat="32.71620229817926883697509765625" lon="-16.882051862776279449462890625">
        <ele>1376.800048828125</ele>
        <time>2018-06-24T12:22:51.000Z</time>
      </trkpt>
      <trkpt lat="32.7162211574614048004150390625" lon="-16.881996206939220428466796875">
        <ele>1375.4000244140625</ele>
        <time>2018-06-24T12:22:53.000Z</time>
      </trkpt>
      <trkpt lat="32.7162431180477142333984375" lon="-16.88192638568580150604248046875">
        <ele>1373.800048828125</ele>
        <time>2018-06-24T12:22:55.000Z</time>
      </trkpt>
      <trkpt lat="32.7162821777164936065673828125" lon="-16.88184575177729129791259765625">
        <ele>1372.199951171875</ele>
        <time>2018-06-24T12:22:57.000Z</time>
      </trkpt>
      <trkpt lat="32.7163307927548885345458984375" lon="-16.8817720748484134674072265625">
        <ele>1370.5999755859375</ele>
        <time>2018-06-24T12:22:59.000Z</time>
      </trkpt>
      <trkpt lat="32.7163955010473728179931640625" lon="-16.8816765211522579193115234375">
        <ele>1369.4000244140625</ele>
        <time>2018-06-24T12:23:02.000Z</time>
      </trkpt>
      <trkpt lat="32.7164496481418609619140625" lon="-16.8814438395202159881591796875">
        <ele>1369.5999755859375</ele>
        <time>2018-06-24T12:23:10.000Z</time>
      </trkpt>
      <trkpt lat="32.71646096371114253997802734375" lon="-16.88137133605778217315673828125">
        <ele>1370.4000244140625</ele>
        <time>2018-06-24T12:23:13.000Z</time>
      </trkpt>
      <trkpt lat="32.71647973917424678802490234375" lon="-16.88132464885711669921875">
        <ele>1371.4000244140625</ele>
        <time>2018-06-24T12:23:16.000Z</time>
      </trkpt>
      <trkpt lat="32.71648476831614971160888671875" lon="-16.88129640184342861175537109375">
        <ele>1372.4000244140625</ele>
        <time>2018-06-24T12:23:19.000Z</time>
      </trkpt>
      <trkpt lat="32.7164786495268344879150390625" lon="-16.88128416426479816436767578125">
        <ele>1372.4000244140625</ele>
        <time>2018-06-24T12:23:20.000Z</time>
      </trkpt>
      <trkpt lat="32.71646775305271148681640625" lon="-16.88124996609985828399658203125">
        <ele>1372.4000244140625</ele>
        <time>2018-06-24T12:23:22.000Z</time>
      </trkpt>
      <trkpt lat="32.71652382798492908477783203125" lon="-16.88103840686380863189697265625">
        <ele>1372.800048828125</ele>
        <time>2018-06-24T12:23:32.000Z</time>
      </trkpt>
      <trkpt lat="32.7166073955595493316650390625" lon="-16.8809764645993709564208984375">
        <ele>1371.199951171875</ele>
        <time>2018-06-24T12:23:37.000Z</time>
      </trkpt>
      <trkpt lat="32.7166734449565410614013671875" lon="-16.8809731118381023406982421875">
        <ele>1369.800048828125</ele>
        <time>2018-06-24T12:23:40.000Z</time>
      </trkpt>
      <trkpt lat="32.716755755245685577392578125" lon="-16.88097503967583179473876953125">
        <ele>1368.5999755859375</ele>
        <time>2018-06-24T12:23:43.000Z</time>
      </trkpt>
      <trkpt lat="32.71682909689843654632568359375" lon="-16.88098610378801822662353515625">
        <ele>1367.4000244140625</ele>
        <time>2018-06-24T12:23:46.000Z</time>
      </trkpt>
      <trkpt lat="32.7168521471321582794189453125" lon="-16.8809731118381023406982421875">
        <ele>1366.4000244140625</ele>
        <time>2018-06-24T12:23:48.000Z</time>
      </trkpt>
      <trkpt lat="32.716842591762542724609375" lon="-16.88095492310822010040283203125">
        <ele>1366.199951171875</ele>
        <time>2018-06-24T12:23:49.000Z</time>
      </trkpt>
      <trkpt lat="32.7168452739715576171875" lon="-16.8808416835963726043701171875">
        <ele>1364.800048828125</ele>
        <time>2018-06-24T12:23:53.000Z</time>
      </trkpt>
      <trkpt lat="32.71683680824935436248779296875" lon="-16.88080941326916217803955078125">
        <ele>1363.800048828125</ele>
        <time>2018-06-24T12:23:54.000Z</time>
      </trkpt>
      <trkpt lat="32.71683119237422943115234375" lon="-16.880701370537281036376953125">
        <ele>1362.5999755859375</ele>
        <time>2018-06-24T12:23:57.000Z</time>
      </trkpt>
      <trkpt lat="32.716836221516132354736328125" lon="-16.8806318007409572601318359375">
        <ele>1361.5999755859375</ele>
        <time>2018-06-24T12:23:59.000Z</time>
      </trkpt>
      <trkpt lat="32.71681468002498149871826171875" lon="-16.88049643300473690032958984375">
        <ele>1360.199951171875</ele>
        <time>2018-06-24T12:24:03.000Z</time>
      </trkpt>
      <trkpt lat="32.71681685931980609893798828125" lon="-16.8803914077579975128173828125">
        <ele>1358.5999755859375</ele>
        <time>2018-06-24T12:24:06.000Z</time>
      </trkpt>
      <trkpt lat="32.7168290130794048309326171875" lon="-16.8803223408758640289306640625">
        <ele>1357.5999755859375</ele>
        <time>2018-06-24T12:24:08.000Z</time>
      </trkpt>
      <trkpt lat="32.716843597590923309326171875" lon="-16.8802542798221111297607421875">
        <ele>1356.199951171875</ele>
        <time>2018-06-24T12:24:10.000Z</time>
      </trkpt>
      <trkpt lat="32.7168400771915912628173828125" lon="-16.8801619112491607666015625">
        <ele>1355</ele>
        <time>2018-06-24T12:24:13.000Z</time>
      </trkpt>
      <trkpt lat="32.71683881990611553192138671875" lon="-16.8800531141459941864013671875">
        <ele>1353.800048828125</ele>
        <time>2018-06-24T12:24:16.000Z</time>
      </trkpt>
      <trkpt lat="32.71687620319426059722900390625" lon="-16.8799220211803913116455078125">
        <ele>1352.800048828125</ele>
        <time>2018-06-24T12:24:19.000Z</time>
      </trkpt>
      <trkpt lat="32.71687335334718227386474609375" lon="-16.8796833045780658721923828125">
        <ele>1351.5999755859375</ele>
        <time>2018-06-24T12:24:26.000Z</time>
      </trkpt>
      <trkpt lat="32.71695080213248729705810546875" lon="-16.8795351125299930572509765625">
        <ele>1350.4000244140625</ele>
        <time>2018-06-24T12:24:31.000Z</time>
      </trkpt>
      <trkpt lat="32.7170375548303127288818359375" lon="-16.87941030599176883697509765625">
        <ele>1349.199951171875</ele>
        <time>2018-06-24T12:24:36.000Z</time>
      </trkpt>
      <trkpt lat="32.71708575077354907989501953125" lon="-16.87933838926255702972412109375">
        <ele>1348</ele>
        <time>2018-06-24T12:24:39.000Z</time>
      </trkpt>
      <trkpt lat="32.7171202003955841064453125" lon="-16.87928549945354461669921875">
        <ele>1346.800048828125</ele>
        <time>2018-06-24T12:24:41.000Z</time>
      </trkpt>
      <trkpt lat="32.7171652950346469879150390625" lon="-16.87919698655605316162109375">
        <ele>1345.199951171875</ele>
        <time>2018-06-24T12:24:44.000Z</time>
      </trkpt>
      <trkpt lat="32.71719840355217456817626953125" lon="-16.8791545741260051727294921875">
        <ele>1344</ele>
        <time>2018-06-24T12:24:46.000Z</time>
      </trkpt>
      <trkpt lat="32.717235870659351348876953125" lon="-16.87909631989896297454833984375">
        <ele>1342.5999755859375</ele>
        <time>2018-06-24T12:24:48.000Z</time>
      </trkpt>
      <trkpt lat="32.71732077933847904205322265625" lon="-16.8789698369801044464111328125">
        <ele>1341.4000244140625</ele>
        <time>2018-06-24T12:24:52.000Z</time>
      </trkpt>
      <trkpt lat="32.71740493364632129669189453125" lon="-16.8788340501487255096435546875">
        <ele>1340.4000244140625</ele>
        <time>2018-06-24T12:24:56.000Z</time>
      </trkpt>
      <trkpt lat="32.7175123058259487152099609375" lon="-16.8786402605473995208740234375">
        <ele>1339.5999755859375</ele>
        <time>2018-06-24T12:25:02.000Z</time>
      </trkpt>
      <trkpt lat="32.7175548858940601348876953125" lon="-16.8785872869193553924560546875">
        <ele>1339.199951171875</ele>
        <time>2018-06-24T12:25:04.000Z</time>
      </trkpt>
      <trkpt lat="32.7177057601511478424072265625" lon="-16.878434233367443084716796875">
        <ele>1338.800048828125</ele>
        <time>2018-06-24T12:25:11.000Z</time>
      </trkpt>
      <trkpt lat="32.717844061553478240966796875" lon="-16.8782892264425754547119140625">
        <ele>1339.199951171875</ele>
        <time>2018-06-24T12:25:18.000Z</time>
      </trkpt>
      <trkpt lat="32.718018405139446258544921875" lon="-16.87817908823490142822265625">
        <ele>1338</ele>
        <time>2018-06-24T12:25:25.000Z</time>
      </trkpt>
      <trkpt lat="32.718106247484683990478515625" lon="-16.87812133692204952239990234375">
        <ele>1336.800048828125</ele>
        <time>2018-06-24T12:25:28.000Z</time>
      </trkpt>
      <trkpt lat="32.71822451613843441009521484375" lon="-16.87801740132272243499755859375">
        <ele>1335.800048828125</ele>
        <time>2018-06-24T12:25:33.000Z</time>
      </trkpt>
      <trkpt lat="32.7183219976723194122314453125" lon="-16.8779194168746471405029296875">
        <ele>1334.5999755859375</ele>
        <time>2018-06-24T12:25:37.000Z</time>
      </trkpt>
      <trkpt lat="32.7184376679360866546630859375" lon="-16.877789162099361419677734375">
        <ele>1333.4000244140625</ele>
        <time>2018-06-24T12:25:42.000Z</time>
      </trkpt>
      <trkpt lat="32.71858007647097110748291015625" lon="-16.877630241215229034423828125">
        <ele>1332.5999755859375</ele>
        <time>2018-06-24T12:25:48.000Z</time>
      </trkpt>
      <trkpt lat="32.71861712448298931121826171875" lon="-16.87757936306297779083251953125">
        <ele>1332.4000244140625</ele>
        <time>2018-06-24T12:25:50.000Z</time>
      </trkpt>
      <trkpt lat="32.71873765625059604644775390625" lon="-16.87739445827901363372802734375">
        <ele>1332</ele>
        <time>2018-06-24T12:25:57.000Z</time>
      </trkpt>
      <trkpt lat="32.718817032873630523681640625" lon="-16.87719874083995819091796875">
        <ele>1333</ele>
        <time>2018-06-24T12:26:04.000Z</time>
      </trkpt>
      <trkpt lat="32.718835137784481048583984375" lon="-16.8770775385200977325439453125">
        <ele>1333.4000244140625</ele>
        <time>2018-06-24T12:26:08.000Z</time>
      </trkpt>
      <trkpt lat="32.718895487487316131591796875" lon="-16.8768589384853839874267578125">
        <ele>1334.199951171875</ele>
        <time>2018-06-24T12:26:16.000Z</time>
      </trkpt>
      <trkpt lat="32.71889791823923587799072265625" lon="-16.87677738256752490997314453125">
        <ele>1334.800048828125</ele>
        <time>2018-06-24T12:26:19.000Z</time>
      </trkpt>
      <trkpt lat="32.7188550867140293121337890625" lon="-16.8765518255531787872314453125">
        <ele>1335</ele>
        <time>2018-06-24T12:26:28.000Z</time>
      </trkpt>
      <trkpt lat="32.71879188716411590576171875" lon="-16.8763375841081142425537109375">
        <ele>1335.5999755859375</ele>
        <time>2018-06-24T12:26:36.000Z</time>
      </trkpt>
      <trkpt lat="32.718774117529392242431640625" lon="-16.87611873261630535125732421875">
        <ele>1335.199951171875</ele>
        <time>2018-06-24T12:26:44.000Z</time>
      </trkpt>
      <trkpt lat="32.718848548829555511474609375" lon="-16.87591656111180782318115234375">
        <ele>1335.5999755859375</ele>
        <time>2018-06-24T12:26:51.000Z</time>
      </trkpt>
      <trkpt lat="32.7189305238425731658935546875" lon="-16.875713132321834564208984375">
        <ele>1335.5999755859375</ele>
        <time>2018-06-24T12:26:58.000Z</time>
      </trkpt>
      <trkpt lat="32.71900235675275325775146484375" lon="-16.8755429796874523162841796875">
        <ele>1335.800048828125</ele>
        <time>2018-06-24T12:27:04.000Z</time>
      </trkpt>
      <trkpt lat="32.71906354464590549468994140625" lon="-16.87533267773687839508056640625">
        <ele>1336.199951171875</ele>
        <time>2018-06-24T12:27:11.000Z</time>
      </trkpt>
      <trkpt lat="32.71910008974373340606689453125" lon="-16.87513486482203006744384765625">
        <ele>1334.5999755859375</ele>
        <time>2018-06-24T12:27:17.000Z</time>
      </trkpt>
      <trkpt lat="32.719132862985134124755859375" lon="-16.8749931268393993377685546875">
        <ele>1333.4000244140625</ele>
        <time>2018-06-24T12:27:21.000Z</time>
      </trkpt>
      <trkpt lat="32.71918575279414653778076171875" lon="-16.8748610280454158782958984375">
        <ele>1332.4000244140625</ele>
        <time>2018-06-24T12:27:25.000Z</time>
      </trkpt>
      <trkpt lat="32.7191990800201892852783203125" lon="-16.87482926063239574432373046875">
        <ele>1332.199951171875</ele>
        <time>2018-06-24T12:27:26.000Z</time>
      </trkpt>
      <trkpt lat="32.71925054490566253662109375" lon="-16.87465491704642772674560546875">
        <ele>1331.199951171875</ele>
        <time>2018-06-24T12:27:31.000Z</time>
      </trkpt>
      <trkpt lat="32.71926127374172210693359375" lon="-16.87444067560136318206787109375">
        <ele>1330.4000244140625</ele>
        <time>2018-06-24T12:27:37.000Z</time>
      </trkpt>
      <trkpt lat="32.71926663815975189208984375" lon="-16.8744043819606304168701171875">
        <ele>1330.199951171875</ele>
        <time>2018-06-24T12:27:38.000Z</time>
      </trkpt>
      <trkpt lat="32.71928809583187103271484375" lon="-16.874294914305210113525390625">
        <ele>1329</ele>
        <time>2018-06-24T12:27:41.000Z</time>
      </trkpt>
      <trkpt lat="32.71930695511400699615478515625" lon="-16.8742235004901885986328125">
        <ele>1328</ele>
        <time>2018-06-24T12:27:43.000Z</time>
      </trkpt>
      <trkpt lat="32.71933235228061676025390625" lon="-16.8741596303880214691162109375">
        <ele>1326.800048828125</ele>
        <time>2018-06-24T12:27:45.000Z</time>
      </trkpt>
      <trkpt lat="32.719391025602817535400390625" lon="-16.87407438643276691436767578125">
        <ele>1325.5999755859375</ele>
        <time>2018-06-24T12:27:48.000Z</time>
      </trkpt>
      <trkpt lat="32.719456069171428680419921875" lon="-16.8739826045930385589599609375">
        <ele>1324.199951171875</ele>
        <time>2018-06-24T12:27:51.000Z</time>
      </trkpt>
      <trkpt lat="32.719528488814830780029296875" lon="-16.87389166094362735748291015625">
        <ele>1323</ele>
        <time>2018-06-24T12:27:54.000Z</time>
      </trkpt>
      <trkpt lat="32.719583809375762939453125" lon="-16.8737921677529811859130859375">
        <ele>1322</ele>
        <time>2018-06-24T12:27:57.000Z</time>
      </trkpt>
      <trkpt lat="32.71967701613903045654296875" lon="-16.87360969372093677520751953125">
        <ele>1321.5999755859375</ele>
        <time>2018-06-24T12:28:03.000Z</time>
      </trkpt>
      <trkpt lat="32.71971884183585643768310546875" lon="-16.873385645449161529541015625">
        <ele>1321.199951171875</ele>
        <time>2018-06-24T12:28:10.000Z</time>
      </trkpt>
      <trkpt lat="32.71975136362016201019287109375" lon="-16.87315355055034160614013671875">
        <ele>1322</ele>
        <time>2018-06-24T12:28:18.000Z</time>
      </trkpt>
      <trkpt lat="32.71974801085889339447021484375" lon="-16.873058415949344635009765625">
        <ele>1323.4000244140625</ele>
        <time>2018-06-24T12:28:22.000Z</time>
      </trkpt>
      <trkpt lat="32.719777263700962066650390625" lon="-16.8729620240628719329833984375">
        <ele>1324.4000244140625</ele>
        <time>2018-06-24T12:28:26.000Z</time>
      </trkpt>
      <trkpt lat="32.71987793035805225372314453125" lon="-16.87278592027723789215087890625">
        <ele>1323.199951171875</ele>
        <time>2018-06-24T12:28:34.000Z</time>
      </trkpt>
      <trkpt lat="32.71990223787724971771240234375" lon="-16.872739233076572418212890625">
        <ele>1322</ele>
        <time>2018-06-24T12:28:36.000Z</time>
      </trkpt>
      <trkpt lat="32.719927132129669189453125" lon="-16.8726498819887638092041015625">
        <ele>1320.800048828125</ele>
        <time>2018-06-24T12:28:39.000Z</time>
      </trkpt>
      <trkpt lat="32.719931490719318389892578125" lon="-16.872558183968067169189453125">
        <ele>1319.5999755859375</ele>
        <time>2018-06-24T12:28:42.000Z</time>
      </trkpt>
      <trkpt lat="32.71998102776706218719482421875" lon="-16.87243924476206302642822265625">
        <ele>1318.199951171875</ele>
        <time>2018-06-24T12:28:46.000Z</time>
      </trkpt>
      <trkpt lat="32.72001589648425579071044921875" lon="-16.87235861085355281829833984375">
        <ele>1317</ele>
        <time>2018-06-24T12:28:49.000Z</time>
      </trkpt>
      <trkpt lat="32.720030061900615692138671875" lon="-16.872303374111652374267578125">
        <ele>1315.800048828125</ele>
        <time>2018-06-24T12:28:51.000Z</time>
      </trkpt>
      <trkpt lat="32.720038779079914093017578125" lon="-16.8722522445023059844970703125">
        <ele>1314.5999755859375</ele>
        <time>2018-06-24T12:28:53.000Z</time>
      </trkpt>
      <trkpt lat="32.7200543694198131561279296875" lon="-16.87220136635005474090576171875">
        <ele>1313.199951171875</ele>
        <time>2018-06-24T12:28:55.000Z</time>
      </trkpt>
      <trkpt lat="32.720045484602451324462890625" lon="-16.8721459619700908660888671875">
        <ele>1312</ele>
        <time>2018-06-24T12:28:57.000Z</time>
      </trkpt>
      <trkpt lat="32.72002964280545711517333984375" lon="-16.87209407798945903778076171875">
        <ele>1310.5999755859375</ele>
        <time>2018-06-24T12:28:59.000Z</time>
      </trkpt>
      <trkpt lat="32.7200196683406829833984375" lon="-16.8720386736094951629638671875">
        <ele>1309.199951171875</ele>
        <time>2018-06-24T12:29:01.000Z</time>
      </trkpt>
      <trkpt lat="32.720017991960048675537109375" lon="-16.87197513878345489501953125">
        <ele>1308</ele>
        <time>2018-06-24T12:29:03.000Z</time>
      </trkpt>
      <trkpt lat="32.7200986258685588836669921875" lon="-16.87175243161618709564208984375">
        <ele>1307</ele>
        <time>2018-06-24T12:29:10.000Z</time>
      </trkpt>
      <trkpt lat="32.72020817734301090240478515625" lon="-16.87158328481018543243408203125">
        <ele>1307.199951171875</ele>
        <time>2018-06-24T12:29:18.000Z</time>
      </trkpt>
      <trkpt lat="32.72030406631529331207275390625" lon="-16.8713805265724658966064453125">
        <ele>1306.199951171875</ele>
        <time>2018-06-24T12:29:25.000Z</time>
      </trkpt>
      <trkpt lat="32.72029384039342403411865234375" lon="-16.87114658765494823455810546875">
        <ele>1306.199951171875</ele>
        <time>2018-06-24T12:29:32.000Z</time>
      </trkpt>
      <trkpt lat="32.7202327363193035125732421875" lon="-16.8709416501224040985107421875">
        <ele>1306.199951171875</ele>
        <time>2018-06-24T12:29:38.000Z</time>
      </trkpt>
      <trkpt lat="32.72020398639142513275146484375" lon="-16.870746351778507232666015625">
        <ele>1305.5999755859375</ele>
        <time>2018-06-24T12:29:43.000Z</time>
      </trkpt>
      <trkpt lat="32.72022125311195850372314453125" lon="-16.870671920478343963623046875">
        <ele>1304.5999755859375</ele>
        <time>2018-06-24T12:29:45.000Z</time>
      </trkpt>
      <trkpt lat="32.7201935090124607086181640625" lon="-16.87052867375314235687255859375">
        <ele>1303.4000244140625</ele>
        <time>2018-06-24T12:29:49.000Z</time>
      </trkpt>
      <trkpt lat="32.720130644738674163818359375" lon="-16.8704568408429622650146484375">
        <ele>1301.800048828125</ele>
        <time>2018-06-24T12:29:52.000Z</time>
      </trkpt>
      <trkpt lat="32.7200932614505290985107421875" lon="-16.87041032128036022186279296875">
        <ele>1300.4000244140625</ele>
        <time>2018-06-24T12:29:54.000Z</time>
      </trkpt>
      <trkpt lat="32.7200674451887607574462890625" lon="-16.8703529052436351776123046875">
        <ele>1299</ele>
        <time>2018-06-24T12:29:56.000Z</time>
      </trkpt>
      <trkpt lat="32.72005277685821056365966796875" lon="-16.8702784739434719085693359375">
        <ele>1297.800048828125</ele>
        <time>2018-06-24T12:29:58.000Z</time>
      </trkpt>
      <trkpt lat="32.72005654871463775634765625" lon="-16.87019205652177333831787109375">
        <ele>1296.5999755859375</ele>
        <time>2018-06-24T12:30:00.000Z</time>
      </trkpt>
      <trkpt lat="32.72004674188792705535888671875" lon="-16.87011276371777057647705078125">
        <ele>1295.4000244140625</ele>
        <time>2018-06-24T12:30:02.000Z</time>
      </trkpt>
      <trkpt lat="32.72000684402883052825927734375" lon="-16.869958452880382537841796875">
        <ele>1294.4000244140625</ele>
        <time>2018-06-24T12:30:06.000Z</time>
      </trkpt>
      <trkpt lat="32.72001631557941436767578125" lon="-16.869840435683727264404296875">
        <ele>1293</ele>
        <time>2018-06-24T12:30:09.000Z</time>
      </trkpt>
      <trkpt lat="32.72004925645887851715087890625" lon="-16.86972551979124546051025390625">
        <ele>1292</ele>
        <time>2018-06-24T12:30:12.000Z</time>
      </trkpt>
      <trkpt lat="32.72006937302649021148681640625" lon="-16.8696380965411663055419921875">
        <ele>1290.800048828125</ele>
        <time>2018-06-24T12:30:14.000Z</time>
      </trkpt>
      <trkpt lat="32.72006467916071414947509765625" lon="-16.86959995888173580169677734375">
        <ele>1290.4000244140625</ele>
        <time>2018-06-24T12:30:15.000Z</time>
      </trkpt>
      <trkpt lat="32.720001228153705596923828125" lon="-16.869525276124477386474609375">
        <ele>1289.4000244140625</ele>
        <time>2018-06-24T12:30:18.000Z</time>
      </trkpt>
      <trkpt lat="32.71998949348926544189453125" lon="-16.86932779848575592041015625">
        <ele>1288.4000244140625</ele>
        <time>2018-06-24T12:30:23.000Z</time>
      </trkpt>
      <trkpt lat="32.72015838883817195892333984375" lon="-16.8692008964717388153076171875">
        <ele>1288.4000244140625</ele>
        <time>2018-06-24T12:30:30.000Z</time>
      </trkpt>
      <trkpt lat="32.72033952176570892333984375" lon="-16.8691568076610565185546875">
        <ele>1289</ele>
        <time>2018-06-24T12:30:37.000Z</time>
      </trkpt>
      <trkpt lat="32.7204707823693752288818359375" lon="-16.8690148182213306427001953125">
        <ele>1289</ele>
        <time>2018-06-24T12:30:43.000Z</time>
      </trkpt>
      <trkpt lat="32.7206070721149444580078125" lon="-16.8688455037772655487060546875">
        <ele>1288.5999755859375</ele>
        <time>2018-06-24T12:30:50.000Z</time>
      </trkpt>
      <trkpt lat="32.720747888088226318359375" lon="-16.86867275275290012359619140625">
        <ele>1288.5999755859375</ele>
        <time>2018-06-24T12:30:57.000Z</time>
      </trkpt>
      <trkpt lat="32.72089465521275997161865234375" lon="-16.86851282604038715362548828125">
        <ele>1288.800048828125</ele>
        <time>2018-06-24T12:31:04.000Z</time>
      </trkpt>
      <trkpt lat="32.72096984088420867919921875" lon="-16.86843135394155979156494140625">
        <ele>1289.4000244140625</ele>
        <time>2018-06-24T12:31:08.000Z</time>
      </trkpt>
      <trkpt lat="32.72109188139438629150390625" lon="-16.86823957599699497222900390625">
        <ele>1290.199951171875</ele>
        <time>2018-06-24T12:31:16.000Z</time>
      </trkpt>
      <trkpt lat="32.72111677564680576324462890625" lon="-16.86819431371986865997314453125">
        <ele>1290.5999755859375</ele>
        <time>2018-06-24T12:31:18.000Z</time>
      </trkpt>
      <trkpt lat="32.7211282588541507720947265625" lon="-16.86798342503607273101806640625">
        <ele>1291</ele>
        <time>2018-06-24T12:31:25.000Z</time>
      </trkpt>
      <trkpt lat="32.72106044925749301910400390625" lon="-16.86782165430486202239990234375">
        <ele>1291.5999755859375</ele>
        <time>2018-06-24T12:31:31.000Z</time>
      </trkpt>
      <trkpt lat="32.7209959924221038818359375" lon="-16.86768486164510250091552734375">
        <ele>1293</ele>
        <time>2018-06-24T12:31:37.000Z</time>
      </trkpt>
      <trkpt lat="32.7209155261516571044921875" lon="-16.86746877618134021759033203125">
        <ele>1293.199951171875</ele>
        <time>2018-06-24T12:31:45.000Z</time>
      </trkpt>
      <trkpt lat="32.72078451700508594512939453125" lon="-16.8672859668731689453125">
        <ele>1293</ele>
        <time>2018-06-24T12:31:53.000Z</time>
      </trkpt>
      <trkpt lat="32.7207034640014171600341796875" lon="-16.86717264354228973388671875">
        <ele>1291.800048828125</ele>
        <time>2018-06-24T12:31:58.000Z</time>
      </trkpt>
      <trkpt lat="32.72068728692829608917236328125" lon="-16.86709159053862094879150390625">
        <ele>1290.4000244140625</ele>
        <time>2018-06-24T12:32:01.000Z</time>
      </trkpt>
      <trkpt lat="32.72064034827053546905517578125" lon="-16.8670132197439670562744140625">
        <ele>1289</ele>
        <time>2018-06-24T12:32:05.000Z</time>
      </trkpt>
      <trkpt lat="32.7206085808575153350830078125" lon="-16.86696955002844333648681640625">
        <ele>1287.800048828125</ele>
        <time>2018-06-24T12:32:07.000Z</time>
      </trkpt>
      <trkpt lat="32.72057027556002140045166015625" lon="-16.86689260415732860565185546875">
        <ele>1286.800048828125</ele>
        <time>2018-06-24T12:32:10.000Z</time>
      </trkpt>
      <trkpt lat="32.72056491114199161529541015625" lon="-16.8668311648070812225341796875">
        <ele>1285.800048828125</ele>
        <time>2018-06-24T12:32:12.000Z</time>
      </trkpt>
      <trkpt lat="32.72055233828723430633544921875" lon="-16.86677634716033935546875">
        <ele>1284.5999755859375</ele>
        <time>2018-06-24T12:32:14.000Z</time>
      </trkpt>
      <trkpt lat="32.72053305990993976593017578125" lon="-16.866729073226451873779296875">
        <ele>1283.4000244140625</ele>
        <time>2018-06-24T12:32:16.000Z</time>
      </trkpt>
      <trkpt lat="32.72054026834666728973388671875" lon="-16.86665539629757404327392578125">
        <ele>1282</ele>
        <time>2018-06-24T12:32:19.000Z</time>
      </trkpt>
      <trkpt lat="32.72055183537304401397705078125" lon="-16.86660996638238430023193359375">
        <ele>1280.800048828125</ele>
        <time>2018-06-24T12:32:21.000Z</time>
      </trkpt>
      <trkpt lat="32.72055703215301036834716796875" lon="-16.86656068079173564910888671875">
        <ele>1279.199951171875</ele>
        <time>2018-06-24T12:32:23.000Z</time>
      </trkpt>
      <trkpt lat="32.72055535577237606048583984375" lon="-16.86651550233364105224609375">
        <ele>1278</ele>
        <time>2018-06-24T12:32:25.000Z</time>
      </trkpt>
      <trkpt lat="32.720555774867534637451171875" lon="-16.8664630316197872161865234375">
        <ele>1276.5999755859375</ele>
        <time>2018-06-24T12:32:27.000Z</time>
      </trkpt>
      <trkpt lat="32.72054605185985565185546875" lon="-16.86641835607588291168212890625">
        <ele>1275.5999755859375</ele>
        <time>2018-06-24T12:32:29.000Z</time>
      </trkpt>
      <trkpt lat="32.7205515839159488677978515625" lon="-16.8663741834461688995361328125">
        <ele>1273.5999755859375</ele>
        <time>2018-06-24T12:32:31.000Z</time>
      </trkpt>
      <trkpt lat="32.72055141627788543701171875" lon="-16.8663235567510128021240234375">
        <ele>1272.199951171875</ele>
        <time>2018-06-24T12:32:33.000Z</time>
      </trkpt>
      <trkpt lat="32.72055267356336116790771484375" lon="-16.86626496724784374237060546875">
        <ele>1270.5999755859375</ele>
        <time>2018-06-24T12:32:35.000Z</time>
      </trkpt>
      <trkpt lat="32.72055007517337799072265625" lon="-16.8662303499877452850341796875">
        <ele>1269.5999755859375</ele>
        <time>2018-06-24T12:32:36.000Z</time>
      </trkpt>
      <trkpt lat="32.720547728240489959716796875" lon="-16.86619271524250507354736328125">
        <ele>1268.199951171875</ele>
        <time>2018-06-24T12:32:37.000Z</time>
      </trkpt>
      <trkpt lat="32.72054999135434627532958984375" lon="-16.8661455251276493072509765625">
        <ele>1267.199951171875</ele>
        <time>2018-06-24T12:32:38.000Z</time>
      </trkpt>
      <trkpt lat="32.72057714872062206268310546875" lon="-16.86600814573466777801513671875">
        <ele>1266.199951171875</ele>
        <time>2018-06-24T12:32:41.000Z</time>
      </trkpt>
      <trkpt lat="32.72061235271394252777099609375" lon="-16.8658176250755786895751953125">
        <ele>1267.199951171875</ele>
        <time>2018-06-24T12:32:48.000Z</time>
      </trkpt>
      <trkpt lat="32.7207001112401485443115234375" lon="-16.86564336530864238739013671875">
        <ele>1266.5999755859375</ele>
        <time>2018-06-24T12:32:55.000Z</time>
      </trkpt>
      <trkpt lat="32.720717377960681915283203125" lon="-16.8656228296458721160888671875">
        <ele>1266</ele>
        <time>2018-06-24T12:32:56.000Z</time>
      </trkpt>
      <trkpt lat="32.72076808847486972808837890625" lon="-16.865574382245540618896484375">
        <ele>1265</ele>
        <time>2018-06-24T12:32:58.000Z</time>
      </trkpt>
      <trkpt lat="32.72081636823713779449462890625" lon="-16.865516044199466705322265625">
        <ele>1264</ele>
        <time>2018-06-24T12:33:00.000Z</time>
      </trkpt>
      <trkpt lat="32.7208952419459819793701171875" lon="-16.86540498398244380950927734375">
        <ele>1262.800048828125</ele>
        <time>2018-06-24T12:33:04.000Z</time>
      </trkpt>
      <trkpt lat="32.72094997577369213104248046875" lon="-16.86532870866358280181884765625">
        <ele>1261.4000244140625</ele>
        <time>2018-06-24T12:33:07.000Z</time>
      </trkpt>
      <trkpt lat="32.72099624387919902801513671875" lon="-16.86528076417744159698486328125">
        <ele>1260.4000244140625</ele>
        <time>2018-06-24T12:33:09.000Z</time>
      </trkpt>
      <trkpt lat="32.7210729382932186126708984375" lon="-16.8651293031871318817138671875">
        <ele>1259.4000244140625</ele>
        <time>2018-06-24T12:33:14.000Z</time>
      </trkpt>
      <trkpt lat="32.721172682940959930419921875" lon="-16.86494263820350170135498046875">
        <ele>1259.199951171875</ele>
        <time>2018-06-24T12:33:21.000Z</time>
      </trkpt>
      <trkpt lat="32.7212707512080669403076171875" lon="-16.864744238555431365966796875">
        <ele>1259.800048828125</ele>
        <time>2018-06-24T12:33:29.000Z</time>
      </trkpt>
      <trkpt lat="32.72136035375297069549560546875" lon="-16.86459562741219997406005859375">
        <ele>1258.199951171875</ele>
        <time>2018-06-24T12:33:35.000Z</time>
      </trkpt>
      <trkpt lat="32.72146931849420070648193359375" lon="-16.8644191883504390716552734375">
        <ele>1257</ele>
        <time>2018-06-24T12:33:42.000Z</time>
      </trkpt>
      <trkpt lat="32.72166176699101924896240234375" lon="-16.86436495743691921234130859375">
        <ele>1258</ele>
        <time>2018-06-24T12:33:50.000Z</time>
      </trkpt>
      <trkpt lat="32.721841894090175628662109375" lon="-16.86437367461621761322021484375">
        <ele>1257.199951171875</ele>
        <time>2018-06-24T12:33:57.000Z</time>
      </trkpt>
      <trkpt lat="32.72186695598065853118896484375" lon="-16.8643729202449321746826171875">
        <ele>1257</ele>
        <time>2018-06-24T12:33:58.000Z</time>
      </trkpt>
      <trkpt lat="32.722018249332904815673828125" lon="-16.86436437070369720458984375">
        <ele>1255.5999755859375</ele>
        <time>2018-06-24T12:34:03.000Z</time>
      </trkpt>
      <trkpt lat="32.72209779359400272369384765625" lon="-16.864353306591510772705078125">
        <ele>1254.4000244140625</ele>
        <time>2018-06-24T12:34:06.000Z</time>
      </trkpt>
      <trkpt lat="32.72215269505977630615234375" lon="-16.86433964408934116363525390625">
        <ele>1253.199951171875</ele>
        <time>2018-06-24T12:34:08.000Z</time>
      </trkpt>
      <trkpt lat="32.72221229039132595062255859375" lon="-16.86432774178683757781982421875">
        <ele>1251.5999755859375</ele>
        <time>2018-06-24T12:34:10.000Z</time>
      </trkpt>
      <trkpt lat="32.72238311357796192169189453125" lon="-16.864217855036258697509765625">
        <ele>1251.199951171875</ele>
        <time>2018-06-24T12:34:17.000Z</time>
      </trkpt>
      <trkpt lat="32.72240524180233478546142578125" lon="-16.86420989222824573516845703125">
        <ele>1250.5999755859375</ele>
        <time>2018-06-24T12:34:18.000Z</time>
      </trkpt>
      <trkpt lat="32.72245402447879314422607421875" lon="-16.864182315766811370849609375">
        <ele>1249.5999755859375</ele>
        <time>2018-06-24T12:34:20.000Z</time>
      </trkpt>
      <trkpt lat="32.722499035298824310302734375" lon="-16.8641419149935245513916015625">
        <ele>1248.199951171875</ele>
        <time>2018-06-24T12:34:22.000Z</time>
      </trkpt>
      <trkpt lat="32.7225354127585887908935546875" lon="-16.8640901148319244384765625">
        <ele>1247.199951171875</ele>
        <time>2018-06-24T12:34:24.000Z</time>
      </trkpt>
      <trkpt lat="32.7225860394537448883056640625" lon="-16.86401090584695339202880859375">
        <ele>1246</ele>
        <time>2018-06-24T12:34:27.000Z</time>
      </trkpt>
      <trkpt lat="32.7226078324019908905029296875" lon="-16.863971091806888580322265625">
        <ele>1245</ele>
        <time>2018-06-24T12:34:29.000Z</time>
      </trkpt>
      <trkpt lat="32.72263943217694759368896484375" lon="-16.86397804878652095794677734375">
        <ele>1243.800048828125</ele>
        <time>2018-06-24T12:34:31.000Z</time>
      </trkpt>
      <trkpt lat="32.722663991153240203857421875" lon="-16.8640282563865184783935546875">
        <ele>1243</ele>
        <time>2018-06-24T12:34:33.000Z</time>
      </trkpt>
      <trkpt lat="32.72265938110649585723876953125" lon="-16.8640862591564655303955078125">
        <ele>1242.5999755859375</ele>
        <time>2018-06-24T12:34:35.000Z</time>
      </trkpt>
      <trkpt lat="32.72267572581768035888671875" lon="-16.8641385622322559356689453125">
        <ele>1241.800048828125</ele>
        <time>2018-06-24T12:34:37.000Z</time>
      </trkpt>
      <trkpt lat="32.72269927896559238433837890625" lon="-16.86414853669703006744384765625">
        <ele>1241</ele>
        <time>2018-06-24T12:34:38.000Z</time>
      </trkpt>
      <trkpt lat="32.7227513305842876434326171875" lon="-16.86417502351105213165283203125">
        <ele>1239.5999755859375</ele>
        <time>2018-06-24T12:34:40.000Z</time>
      </trkpt>
      <trkpt lat="32.7228049747645854949951171875" lon="-16.86419128440320491790771484375">
        <ele>1238.4000244140625</ele>
        <time>2018-06-24T12:34:42.000Z</time>
      </trkpt>
      <trkpt lat="32.722853086888790130615234375" lon="-16.86420989222824573516845703125">
        <ele>1237.199951171875</ele>
        <time>2018-06-24T12:34:44.000Z</time>
      </trkpt>
      <trkpt lat="32.72290329448878765106201171875" lon="-16.86420922167599201202392578125">
        <ele>1235.5999755859375</ele>
        <time>2018-06-24T12:34:46.000Z</time>
      </trkpt>
      <trkpt lat="32.7229243330657482147216796875" lon="-16.864193379878997802734375">
        <ele>1235</ele>
        <time>2018-06-24T12:34:47.000Z</time>
      </trkpt>
      <trkpt lat="32.722937576472759246826171875" lon="-16.864169575273990631103515625">
        <ele>1234.4000244140625</ele>
        <time>2018-06-24T12:34:48.000Z</time>
      </trkpt>
      <trkpt lat="32.72296448238193988800048828125" lon="-16.8641352094709873199462890625">
        <ele>1233.199951171875</ele>
        <time>2018-06-24T12:34:50.000Z</time>
      </trkpt>
      <trkpt lat="32.72299759089946746826171875" lon="-16.86415004543960094451904296875">
        <ele>1231.5999755859375</ele>
        <time>2018-06-24T12:34:52.000Z</time>
      </trkpt>
      <trkpt lat="32.72302634082734584808349609375" lon="-16.864196397364139556884765625">
        <ele>1230.4000244140625</ele>
        <time>2018-06-24T12:34:54.000Z</time>
      </trkpt>
      <trkpt lat="32.72304947488009929656982421875" lon="-16.86424233019351959228515625">
        <ele>1229.4000244140625</ele>
        <time>2018-06-24T12:34:56.000Z</time>
      </trkpt>
      <trkpt lat="32.72308451123535633087158203125" lon="-16.864270158112049102783203125">
        <ele>1228</ele>
        <time>2018-06-24T12:34:58.000Z</time>
      </trkpt>
      <trkpt lat="32.7231278456747531890869140625" lon="-16.86426772736012935638427734375">
        <ele>1226.800048828125</ele>
        <time>2018-06-24T12:35:00.000Z</time>
      </trkpt>
      <trkpt lat="32.72314972244203090667724609375" lon="-16.8642746843397617340087890625">
        <ele>1225.800048828125</ele>
        <time>2018-06-24T12:35:01.000Z</time>
      </trkpt>
      <trkpt lat="32.7231684140861034393310546875" lon="-16.86429320834577083587646484375">
        <ele>1225</ele>
        <time>2018-06-24T12:35:02.000Z</time>
      </trkpt>
      <trkpt lat="32.72318710573017597198486328125" lon="-16.8643169291317462921142578125">
        <ele>1224.199951171875</ele>
        <time>2018-06-24T12:35:03.000Z</time>
      </trkpt>
      <trkpt lat="32.72321761585772037506103515625" lon="-16.86442564241588115692138671875">
        <ele>1223.4000244140625</ele>
        <time>2018-06-24T12:35:07.000Z</time>
      </trkpt>
      <trkpt lat="32.72323203273117542266845703125" lon="-16.8644446693360805511474609375">
        <ele>1223</ele>
        <time>2018-06-24T12:35:08.000Z</time>
      </trkpt>
      <trkpt lat="32.7232545800507068634033203125" lon="-16.86445715837180614471435546875">
        <ele>1222.4000244140625</ele>
        <time>2018-06-24T12:35:09.000Z</time>
      </trkpt>
      <trkpt lat="32.7232817374169826507568359375" lon="-16.86446093022823333740234375">
        <ele>1221.5999755859375</ele>
        <time>2018-06-24T12:35:10.000Z</time>
      </trkpt>
      <trkpt lat="32.72330780513584613800048828125" lon="-16.86444609425961971282958984375">
        <ele>1221</ele>
        <time>2018-06-24T12:35:11.000Z</time>
      </trkpt>
      <trkpt lat="32.7233293466269969940185546875" lon="-16.86441927216947078704833984375">
        <ele>1220.199951171875</ele>
        <time>2018-06-24T12:35:12.000Z</time>
      </trkpt>
      <trkpt lat="32.7233504690229892730712890625" lon="-16.8643234670162200927734375">
        <ele>1219</ele>
        <time>2018-06-24T12:35:15.000Z</time>
      </trkpt>
      <trkpt lat="32.72334493696689605712890625" lon="-16.86425750143826007843017578125">
        <ele>1217.5999755859375</ele>
        <time>2018-06-24T12:35:17.000Z</time>
      </trkpt>
      <trkpt lat="32.72333194501698017120361328125" lon="-16.86418541707098484039306640625">
        <ele>1215.800048828125</ele>
        <time>2018-06-24T12:35:19.000Z</time>
      </trkpt>
      <trkpt lat="32.723322808742523193359375" lon="-16.86410997994244098663330078125">
        <ele>1213.800048828125</ele>
        <time>2018-06-24T12:35:21.000Z</time>
      </trkpt>
      <trkpt lat="32.7233424223959445953369140625" lon="-16.8639303557574748992919921875">
        <ele>1212.5999755859375</ele>
        <time>2018-06-24T12:35:26.000Z</time>
      </trkpt>
      <trkpt lat="32.7233746089041233062744140625" lon="-16.8638515658676624298095703125">
        <ele>1211.4000244140625</ele>
        <time>2018-06-24T12:35:29.000Z</time>
      </trkpt>
      <trkpt lat="32.72339598275721073150634765625" lon="-16.86379649676382541656494140625">
        <ele>1210.199951171875</ele>
        <time>2018-06-24T12:35:31.000Z</time>
      </trkpt>
      <trkpt lat="32.72340721450746059417724609375" lon="-16.86375240795314311981201171875">
        <ele>1208.800048828125</ele>
        <time>2018-06-24T12:35:33.000Z</time>
      </trkpt>
      <trkpt lat="32.72340889088809490203857421875" lon="-16.86369717121124267578125">
        <ele>1207</ele>
        <time>2018-06-24T12:35:35.000Z</time>
      </trkpt>
      <trkpt lat="32.72340117953717708587646484375" lon="-16.863622404634952545166015625">
        <ele>1206</ele>
        <time>2018-06-24T12:35:37.000Z</time>
      </trkpt>
      <trkpt lat="32.7233953960239887237548828125" lon="-16.86351654119789600372314453125">
        <ele>1204.4000244140625</ele>
        <time>2018-06-24T12:35:41.000Z</time>
      </trkpt>
      <trkpt lat="32.7234198711812496185302734375" lon="-16.863473542034626007080078125">
        <ele>1203.199951171875</ele>
        <time>2018-06-24T12:35:43.000Z</time>
      </trkpt>
      <trkpt lat="32.7234520576894283294677734375" lon="-16.8634207360446453094482421875">
        <ele>1201.800048828125</ele>
        <time>2018-06-24T12:35:45.000Z</time>
      </trkpt>
      <trkpt lat="32.72348198108375072479248046875" lon="-16.86335577629506587982177734375">
        <ele>1200.4000244140625</ele>
        <time>2018-06-24T12:35:47.000Z</time>
      </trkpt>
      <trkpt lat="32.7235224656760692596435546875" lon="-16.86325100250542163848876953125">
        <ele>1199.199951171875</ele>
        <time>2018-06-24T12:35:50.000Z</time>
      </trkpt>
      <trkpt lat="32.72363637574017047882080078125" lon="-16.86306676827371120452880859375">
        <ele>1198.4000244140625</ele>
        <time>2018-06-24T12:35:57.000Z</time>
      </trkpt>
      <trkpt lat="32.72366319783031940460205078125" lon="-16.86305218376219272613525390625">
        <ele>1198.199951171875</ele>
        <time>2018-06-24T12:35:58.000Z</time>
      </trkpt>
      <trkpt lat="32.72385681979358196258544921875" lon="-16.86296283267438411712646484375">
        <ele>1197.199951171875</ele>
        <time>2018-06-24T12:36:05.000Z</time>
      </trkpt>
      <trkpt lat="32.72392957471311092376708984375" lon="-16.862936429679393768310546875">
        <ele>1197.199951171875</ele>
        <time>2018-06-24T12:36:08.000Z</time>
      </trkpt>
      <trkpt lat="32.72408732213079929351806640625" lon="-16.8628055043518543243408203125">
        <ele>1196.800048828125</ele>
        <time>2018-06-24T12:36:15.000Z</time>
      </trkpt>
      <trkpt lat="32.72426233626902103424072265625" lon="-16.8627548776566982269287109375">
        <ele>1196.199951171875</ele>
        <time>2018-06-24T12:36:22.000Z</time>
      </trkpt>
      <trkpt lat="32.72429016418755054473876953125" lon="-16.86275848187506198883056640625">
        <ele>1196</ele>
        <time>2018-06-24T12:36:23.000Z</time>
      </trkpt>
      <trkpt lat="32.72445629350841045379638671875" lon="-16.86277155764400959014892578125">
        <ele>1194.800048828125</ele>
        <time>2018-06-24T12:36:29.000Z</time>
      </trkpt>
      <trkpt lat="32.72456207312643527984619140625" lon="-16.862784884870052337646484375">
        <ele>1193.5999755859375</ele>
        <time>2018-06-24T12:36:33.000Z</time>
      </trkpt>
      <trkpt lat="32.72466081194579601287841796875" lon="-16.8627930991351604461669921875">
        <ele>1192.4000244140625</ele>
        <time>2018-06-24T12:36:36.000Z</time>
      </trkpt>
      <trkpt lat="32.72487111389636993408203125" lon="-16.86277910135686397552490234375">
        <ele>1192.199951171875</ele>
        <time>2018-06-24T12:36:43.000Z</time>
      </trkpt>
      <trkpt lat="32.72498334757983684539794921875" lon="-16.862733922898769378662109375">
        <ele>1191</ele>
        <time>2018-06-24T12:36:47.000Z</time>
      </trkpt>
      <trkpt lat="32.72503363899886608123779296875" lon="-16.8626204319298267364501953125">
        <ele>1189.800048828125</ele>
        <time>2018-06-24T12:36:50.000Z</time>
      </trkpt>
      <trkpt lat="32.72506984882056713104248046875" lon="-16.862506605684757232666015625">
        <ele>1188.800048828125</ele>
        <time>2018-06-24T12:36:53.000Z</time>
      </trkpt>
      <trkpt lat="32.72513656876981258392333984375" lon="-16.8623005785048007965087890625">
        <ele>1187.5999755859375</ele>
        <time>2018-06-24T12:37:00.000Z</time>
      </trkpt>
      <trkpt lat="32.72518183104693889617919921875" lon="-16.86221298761665821075439453125">
        <ele>1186.5999755859375</ele>
        <time>2018-06-24T12:37:03.000Z</time>
      </trkpt>
      <trkpt lat="32.72523664869368076324462890625" lon="-16.86198952607810497283935546875">
        <ele>1185.800048828125</ele>
        <time>2018-06-24T12:37:10.000Z</time>
      </trkpt>
      <trkpt lat="32.72527084685862064361572265625" lon="-16.86189807951450347900390625">
        <ele>1185.4000244140625</ele>
        <time>2018-06-24T12:37:13.000Z</time>
      </trkpt>
      <trkpt lat="32.72531745024025440216064453125" lon="-16.86185918748378753662109375">
        <ele>1185</ele>
        <time>2018-06-24T12:37:15.000Z</time>
      </trkpt>
      <trkpt lat="32.72546882741153240203857421875" lon="-16.8618221394717693328857421875">
        <ele>1184.199951171875</ele>
        <time>2018-06-24T12:37:20.000Z</time>
      </trkpt>
      <trkpt lat="32.7255679853260517120361328125" lon="-16.8617726862430572509765625">
        <ele>1182.800048828125</ele>
        <time>2018-06-24T12:37:24.000Z</time>
      </trkpt>
      <trkpt lat="32.7255870960652828216552734375" lon="-16.8617182038724422454833984375">
        <ele>1181.800048828125</ele>
        <time>2018-06-24T12:37:26.000Z</time>
      </trkpt>
      <trkpt lat="32.7255797199904918670654296875" lon="-16.8616917170584201812744140625">
        <ele>1181.199951171875</ele>
        <time>2018-06-24T12:37:27.000Z</time>
      </trkpt>
      <trkpt lat="32.72556873969733715057373046875" lon="-16.861669756472110748291015625">
        <ele>1180.5999755859375</ele>
        <time>2018-06-24T12:37:28.000Z</time>
      </trkpt>
      <trkpt lat="32.7255653031170368194580078125" lon="-16.86163228936493396759033203125">
        <ele>1179.5999755859375</ele>
        <time>2018-06-24T12:37:30.000Z</time>
      </trkpt>
      <trkpt lat="32.725590951740741729736328125" lon="-16.86160613782703876495361328125">
        <ele>1178</ele>
        <time>2018-06-24T12:37:32.000Z</time>
      </trkpt>
      <trkpt lat="32.72561366669833660125732421875" lon="-16.8615996837615966796875">
        <ele>1177.199951171875</ele>
        <time>2018-06-24T12:37:33.000Z</time>
      </trkpt>
      <trkpt lat="32.72563495673239231109619140625" lon="-16.86159557662904262542724609375">
        <ele>1176.4000244140625</ele>
        <time>2018-06-24T12:37:34.000Z</time>
      </trkpt>
      <trkpt lat="32.72567736916244029998779296875" lon="-16.86157495714724063873291015625">
        <ele>1175</ele>
        <time>2018-06-24T12:37:36.000Z</time>
      </trkpt>
      <trkpt lat="32.7257235534489154815673828125" lon="-16.86155098490417003631591796875">
        <ele>1173.4000244140625</ele>
        <time>2018-06-24T12:37:38.000Z</time>
      </trkpt>
      <trkpt lat="32.72576739080250263214111328125" lon="-16.86152634210884571075439453125">
        <ele>1172</ele>
        <time>2018-06-24T12:37:40.000Z</time>
      </trkpt>
      <trkpt lat="32.72583461366593837738037109375" lon="-16.8614576943218708038330078125">
        <ele>1170.800048828125</ele>
        <time>2018-06-24T12:37:43.000Z</time>
      </trkpt>
      <trkpt lat="32.725887000560760498046875" lon="-16.86141972430050373077392578125">
        <ele>1169.800048828125</ele>
        <time>2018-06-24T12:37:45.000Z</time>
      </trkpt>
      <trkpt lat="32.72600376047194004058837890625" lon="-16.8613363243639469146728515625">
        <ele>1169.4000244140625</ele>
        <time>2018-06-24T12:37:50.000Z</time>
      </trkpt>
      <trkpt lat="32.72604483179748058319091796875" lon="-16.86135970987379550933837890625">
        <ele>1168.5999755859375</ele>
        <time>2018-06-24T12:37:52.000Z</time>
      </trkpt>
      <trkpt lat="32.726079113781452178955078125" lon="-16.861396171152591705322265625">
        <ele>1167.5999755859375</ele>
        <time>2018-06-24T12:37:54.000Z</time>
      </trkpt>
      <trkpt lat="32.72611238993704319000244140625" lon="-16.86141653917729854583740234375">
        <ele>1166.199951171875</ele>
        <time>2018-06-24T12:37:56.000Z</time>
      </trkpt>
      <trkpt lat="32.72614424116909503936767578125" lon="-16.8614147789776325225830078125">
        <ele>1165.199951171875</ele>
        <time>2018-06-24T12:37:58.000Z</time>
      </trkpt>
      <trkpt lat="32.72619956173002719879150390625" lon="-16.8613795749843120574951171875">
        <ele>1164</ele>
        <time>2018-06-24T12:38:01.000Z</time>
      </trkpt>
      <trkpt lat="32.726265527307987213134765625" lon="-16.8613165430724620819091796875">
        <ele>1162.800048828125</ele>
        <time>2018-06-24T12:38:04.000Z</time>
      </trkpt>
      <trkpt lat="32.7263240329921245574951171875" lon="-16.86128091998398303985595703125">
        <ele>1161.199951171875</ele>
        <time>2018-06-24T12:38:07.000Z</time>
      </trkpt>
      <trkpt lat="32.72636082954704761505126953125" lon="-16.86125007458031177520751953125">
        <ele>1160</ele>
        <time>2018-06-24T12:38:09.000Z</time>
      </trkpt>
      <trkpt lat="32.72639804519712924957275390625" lon="-16.86120782978832721710205078125">
        <ele>1158.4000244140625</ele>
        <time>2018-06-24T12:38:11.000Z</time>
      </trkpt>
      <trkpt lat="32.72643827833235263824462890625" lon="-16.86116642318665981292724609375">
        <ele>1157</ele>
        <time>2018-06-24T12:38:13.000Z</time>
      </trkpt>
      <trkpt lat="32.72647297941148281097412109375" lon="-16.86111512593924999237060546875">
        <ele>1155.800048828125</ele>
        <time>2018-06-24T12:38:15.000Z</time>
      </trkpt>
      <trkpt lat="32.72649879567325115203857421875" lon="-16.86100423336029052734375">
        <ele>1154.800048828125</ele>
        <time>2018-06-24T12:38:18.000Z</time>
      </trkpt>
      <trkpt lat="32.72650348953902721405029296875" lon="-16.86094514094293117523193359375">
        <ele>1154</ele>
        <time>2018-06-24T12:38:20.000Z</time>
      </trkpt>
      <trkpt lat="32.72649644874036312103271484375" lon="-16.86091848649084568023681640625">
        <ele>1153.4000244140625</ele>
        <time>2018-06-24T12:38:21.000Z</time>
      </trkpt>
      <trkpt lat="32.7264918386936187744140625" lon="-16.86082829721271991729736328125">
        <ele>1151.800048828125</ele>
        <time>2018-06-24T12:38:24.000Z</time>
      </trkpt>
      <trkpt lat="32.72651530802249908447265625" lon="-16.8607861362397670745849609375">
        <ele>1150.800048828125</ele>
        <time>2018-06-24T12:38:26.000Z</time>
      </trkpt>
      <trkpt lat="32.72655193693935871124267578125" lon="-16.860766522586345672607421875">
        <ele>1149.5999755859375</ele>
        <time>2018-06-24T12:38:28.000Z</time>
      </trkpt>
      <trkpt lat="32.72658093832433223724365234375" lon="-16.86071665026247501373291015625">
        <ele>1148.199951171875</ele>
        <time>2018-06-24T12:38:30.000Z</time>
      </trkpt>
      <trkpt lat="32.72661211900413036346435546875" lon="-16.86064640991389751434326171875">
        <ele>1147.199951171875</ele>
        <time>2018-06-24T12:38:32.000Z</time>
      </trkpt>
      <trkpt lat="32.72667615674436092376708984375" lon="-16.86056845821440219879150390625">
        <ele>1145.4000244140625</ele>
        <time>2018-06-24T12:38:35.000Z</time>
      </trkpt>
      <trkpt lat="32.72677305154502391815185546875" lon="-16.86051464639604091644287109375">
        <ele>1144.199951171875</ele>
        <time>2018-06-24T12:38:38.000Z</time>
      </trkpt>
      <trkpt lat="32.72690179757773876190185546875" lon="-16.86036259867250919342041015625">
        <ele>1143.800048828125</ele>
        <time>2018-06-24T12:38:45.000Z</time>
      </trkpt>
      <trkpt lat="32.72691889666020870208740234375" lon="-16.8603482656180858612060546875">
        <ele>1143.5999755859375</ele>
        <time>2018-06-24T12:38:46.000Z</time>
      </trkpt>
      <trkpt lat="32.72695879451930522918701171875" lon="-16.860330663621425628662109375">
        <ele>1142.800048828125</ele>
        <time>2018-06-24T12:38:48.000Z</time>
      </trkpt>
      <trkpt lat="32.72705979645252227783203125" lon="-16.860213987529277801513671875">
        <ele>1141.800048828125</ele>
        <time>2018-06-24T12:38:53.000Z</time>
      </trkpt>
      <trkpt lat="32.72713129408657550811767578125" lon="-16.85999698005616664886474609375">
        <ele>1143</ele>
        <time>2018-06-24T12:39:01.000Z</time>
      </trkpt>
      <trkpt lat="32.72720907814800739288330078125" lon="-16.85977452434599399566650390625">
        <ele>1142.800048828125</ele>
        <time>2018-06-24T12:39:09.000Z</time>
      </trkpt>
      <trkpt lat="32.72731670178472995758056640625" lon="-16.859600432217121124267578125">
        <ele>1142.4000244140625</ele>
        <time>2018-06-24T12:39:16.000Z</time>
      </trkpt>
      <trkpt lat="32.72742348723113536834716796875" lon="-16.85941510833799839019775390625">
        <ele>1142.5999755859375</ele>
        <time>2018-06-24T12:39:24.000Z</time>
      </trkpt>
      <trkpt lat="32.72749699652194976806640625" lon="-16.8591962568461894989013671875">
        <ele>1143.5999755859375</ele>
        <time>2018-06-24T12:39:32.000Z</time>
      </trkpt>
      <trkpt lat="32.72756363265216350555419921875" lon="-16.85898260213434696197509765625">
        <ele>1143.800048828125</ele>
        <time>2018-06-24T12:39:40.000Z</time>
      </trkpt>
      <trkpt lat="32.7275754511356353759765625" lon="-16.8589585460722446441650390625">
        <ele>1144</ele>
        <time>2018-06-24T12:39:41.000Z</time>
      </trkpt>
      <trkpt lat="32.72770084440708160400390625" lon="-16.85878495685756206512451171875">
        <ele>1144</ele>
        <time>2018-06-24T12:39:49.000Z</time>
      </trkpt>
      <trkpt lat="32.727787680923938751220703125" lon="-16.85871069319546222686767578125">
        <ele>1142.4000244140625</ele>
        <time>2018-06-24T12:39:53.000Z</time>
      </trkpt>
      <trkpt lat="32.72783000953495502471923828125" lon="-16.85867129825055599212646484375">
        <ele>1141.4000244140625</ele>
        <time>2018-06-24T12:39:55.000Z</time>
      </trkpt>
      <trkpt lat="32.7278693206608295440673828125" lon="-16.8586500920355319976806640625">
        <ele>1140.4000244140625</ele>
        <time>2018-06-24T12:39:57.000Z</time>
      </trkpt>
      <trkpt lat="32.72790980525314807891845703125" lon="-16.858614720404148101806640625">
        <ele>1139.199951171875</ele>
        <time>2018-06-24T12:39:59.000Z</time>
      </trkpt>
      <trkpt lat="32.727946601808071136474609375" lon="-16.858588568866252899169921875">
        <ele>1138.199951171875</ele>
        <time>2018-06-24T12:40:01.000Z</time>
      </trkpt>
      <trkpt lat="32.72797468118369579315185546875" lon="-16.8585884012281894683837890625">
        <ele>1137.800048828125</ele>
        <time>2018-06-24T12:40:02.000Z</time>
      </trkpt>
      <trkpt lat="32.7280322648584842681884765625" lon="-16.85859493911266326904296875">
        <ele>1136.800048828125</ele>
        <time>2018-06-24T12:40:04.000Z</time>
      </trkpt>
      <trkpt lat="32.7281724102795124053955078125" lon="-16.85862117446959018707275390625">
        <ele>1135.800048828125</ele>
        <time>2018-06-24T12:40:09.000Z</time>
      </trkpt>
      <trkpt lat="32.72835706360638141632080078125" lon="-16.85856250114738941192626953125">
        <ele>1134.4000244140625</ele>
        <time>2018-06-24T12:40:17.000Z</time>
      </trkpt>
      <trkpt lat="32.7283977158367633819580078125" lon="-16.858510114252567291259765625">
        <ele>1133.4000244140625</ele>
        <time>2018-06-24T12:40:19.000Z</time>
      </trkpt>
      <trkpt lat="32.72844993509352207183837890625" lon="-16.85846694745123386383056640625">
        <ele>1132.199951171875</ele>
        <time>2018-06-24T12:40:21.000Z</time>
      </trkpt>
      <trkpt lat="32.72852151654660701751708984375" lon="-16.85844817198812961578369140625">
        <ele>1131.199951171875</ele>
        <time>2018-06-24T12:40:24.000Z</time>
      </trkpt>
      <trkpt lat="32.72855990566313266754150390625" lon="-16.85842637903988361358642578125">
        <ele>1130.5999755859375</ele>
        <time>2018-06-24T12:40:26.000Z</time>
      </trkpt>
      <trkpt lat="32.72857633419334888458251953125" lon="-16.85839938931167125701904296875">
        <ele>1129.800048828125</ele>
        <time>2018-06-24T12:40:27.000Z</time>
      </trkpt>
      <trkpt lat="32.72858086042106151580810546875" lon="-16.85837566852569580078125">
        <ele>1129.4000244140625</ele>
        <time>2018-06-24T12:40:28.000Z</time>
      </trkpt>
      <trkpt lat="32.7285298146307468414306640625" lon="-16.85834876261651515960693359375">
        <ele>1128.5999755859375</ele>
        <time>2018-06-24T12:40:30.000Z</time>
      </trkpt>
      <trkpt lat="32.7284476719796657562255859375" lon="-16.85833635739982128143310546875">
        <ele>1127.199951171875</ele>
        <time>2018-06-24T12:40:34.000Z</time>
      </trkpt>
      <trkpt lat="32.728448845446109771728515625" lon="-16.85829813592135906219482421875">
        <ele>1126</ele>
        <time>2018-06-24T12:40:36.000Z</time>
      </trkpt>
      <trkpt lat="32.72847407497465610504150390625" lon="-16.85826293192803859710693359375">
        <ele>1124.4000244140625</ele>
        <time>2018-06-24T12:40:38.000Z</time>
      </trkpt>
      <trkpt lat="32.72848346270620822906494140625" lon="-16.858217753469944000244140625">
        <ele>1122.5999755859375</ele>
        <time>2018-06-24T12:40:40.000Z</time>
      </trkpt>
      <trkpt lat="32.72845010273158550262451171875" lon="-16.85818816535174846649169921875">
        <ele>1120.5999755859375</ele>
        <time>2018-06-24T12:40:42.000Z</time>
      </trkpt>
      <trkpt lat="32.7283946983516216278076171875" lon="-16.8581709824502468109130859375">
        <ele>1119</ele>
        <time>2018-06-24T12:40:44.000Z</time>
      </trkpt>
      <trkpt lat="32.728333175182342529296875" lon="-16.85818263329565525054931640625">
        <ele>1118</ele>
        <time>2018-06-24T12:40:46.000Z</time>
      </trkpt>
      <trkpt lat="32.72828531451523303985595703125" lon="-16.85818313620984554290771484375">
        <ele>1116.199951171875</ele>
        <time>2018-06-24T12:40:49.000Z</time>
      </trkpt>
      <trkpt lat="32.72827877663075923919677734375" lon="-16.8581374548375606536865234375">
        <ele>1114.5999755859375</ele>
        <time>2018-06-24T12:40:51.000Z</time>
      </trkpt>
      <trkpt lat="32.7282696403563022613525390625" lon="-16.858089007437229156494140625">
        <ele>1113.199951171875</ele>
        <time>2018-06-24T12:40:53.000Z</time>
      </trkpt>
      <trkpt lat="32.7282391302287578582763671875" lon="-16.8580492772161960601806640625">
        <ele>1111.4000244140625</ele>
        <time>2018-06-24T12:40:55.000Z</time>
      </trkpt>
      <trkpt lat="32.72821960039436817169189453125" lon="-16.85803703963756561279296875">
        <ele>1110.5999755859375</ele>
        <time>2018-06-24T12:40:56.000Z</time>
      </trkpt>
      <trkpt lat="32.7281978912651538848876953125" lon="-16.8580341897904872894287109375">
        <ele>1109.5999755859375</ele>
        <time>2018-06-24T12:40:57.000Z</time>
      </trkpt>
      <trkpt lat="32.72814516909420490264892578125" lon="-16.85802941210567951202392578125">
        <ele>1108.199951171875</ele>
        <time>2018-06-24T12:40:59.000Z</time>
      </trkpt>
      <trkpt lat="32.72807492874562740325927734375" lon="-16.8579979799687862396240234375">
        <ele>1106.800048828125</ele>
        <time>2018-06-24T12:41:02.000Z</time>
      </trkpt>
      <trkpt lat="32.72825882770121097564697265625" lon="-16.857931427657604217529296875">
        <ele>1106.4000244140625</ele>
        <time>2018-06-24T12:41:10.000Z</time>
      </trkpt>
      <trkpt lat="32.72834985516965389251708984375" lon="-16.8579121492803096771240234375">
        <ele>1105.800048828125</ele>
        <time>2018-06-24T12:41:13.000Z</time>
      </trkpt>
      <trkpt lat="32.72850760258734226226806640625" lon="-16.85782380402088165283203125">
        <ele>1104.4000244140625</ele>
        <time>2018-06-24T12:41:18.000Z</time>
      </trkpt>
      <trkpt lat="32.728581614792346954345703125" lon="-16.85775716789066791534423828125">
        <ele>1103.4000244140625</ele>
        <time>2018-06-24T12:41:21.000Z</time>
      </trkpt>
      <trkpt lat="32.7286739833652973175048828125" lon="-16.85766915790736675262451171875">
        <ele>1102.199951171875</ele>
        <time>2018-06-24T12:41:25.000Z</time>
      </trkpt>
      <trkpt lat="32.7287529408931732177734375" lon="-16.857583411037921905517578125">
        <ele>1100.800048828125</ele>
        <time>2018-06-24T12:41:29.000Z</time>
      </trkpt>
      <trkpt lat="32.72880717180669307708740234375" lon="-16.85747570358216762542724609375">
        <ele>1099.800048828125</ele>
        <time>2018-06-24T12:41:32.000Z</time>
      </trkpt>
      <trkpt lat="32.7288399450480937957763671875" lon="-16.85727755539119243621826171875">
        <ele>1098.4000244140625</ele>
        <time>2018-06-24T12:41:37.000Z</time>
      </trkpt>
      <trkpt lat="32.72888562642037868499755859375" lon="-16.8570980988442897796630859375">
        <ele>1097.199951171875</ele>
        <time>2018-06-24T12:41:42.000Z</time>
      </trkpt>
      <trkpt lat="32.7289836108684539794921875" lon="-16.85699273832142353057861328125">
        <ele>1096.199951171875</ele>
        <time>2018-06-24T12:41:47.000Z</time>
      </trkpt>
      <trkpt lat="32.72904932498931884765625" lon="-16.8569224141538143157958984375">
        <ele>1095.199951171875</ele>
        <time>2018-06-24T12:41:50.000Z</time>
      </trkpt>
      <trkpt lat="32.729136832058429718017578125" lon="-16.85674278996884822845458984375">
        <ele>1094</ele>
        <time>2018-06-24T12:41:56.000Z</time>
      </trkpt>
      <trkpt lat="32.72929533384740352630615234375" lon="-16.856613792479038238525390625">
        <ele>1093</ele>
        <time>2018-06-24T12:42:03.000Z</time>
      </trkpt>
      <trkpt lat="32.72940195165574550628662109375" lon="-16.85656123794615268707275390625">
        <ele>1091.800048828125</ele>
        <time>2018-06-24T12:42:06.000Z</time>
      </trkpt>
      <trkpt lat="32.72954343818128108978271484375" lon="-16.85639686882495880126953125">
        <ele>1091.199951171875</ele>
        <time>2018-06-24T12:42:12.000Z</time>
      </trkpt>
      <trkpt lat="32.729637734591960906982421875" lon="-16.8562659434974193572998046875">
        <ele>1090.5999755859375</ele>
        <time>2018-06-24T12:42:17.000Z</time>
      </trkpt>
      <trkpt lat="32.72976052947342395782470703125" lon="-16.856132335960865020751953125">
        <ele>1089.4000244140625</ele>
        <time>2018-06-24T12:42:23.000Z</time>
      </trkpt>
      <trkpt lat="32.72992439568042755126953125" lon="-16.8560473434627056121826171875">
        <ele>1088.199951171875</ele>
        <time>2018-06-24T12:42:29.000Z</time>
      </trkpt>
      <trkpt lat="32.73012220859527587890625" lon="-16.856018342077732086181640625">
        <ele>1087.4000244140625</ele>
        <time>2018-06-24T12:42:36.000Z</time>
      </trkpt>
      <trkpt lat="32.7301528863608837127685546875" lon="-16.85601121746003627777099609375">
        <ele>1087.199951171875</ele>
        <time>2018-06-24T12:42:37.000Z</time>
      </trkpt>
      <trkpt lat="32.73029462434351444244384765625" lon="-16.8559348583221435546875">
        <ele>1086.199951171875</ele>
        <time>2018-06-24T12:42:42.000Z</time>
      </trkpt>
      <trkpt lat="32.730408869683742523193359375" lon="-16.85579211451113224029541015625">
        <ele>1085.199951171875</ele>
        <time>2018-06-24T12:42:47.000Z</time>
      </trkpt>
      <trkpt lat="32.73048036731779575347900390625" lon="-16.8555611930787563323974609375">
        <ele>1084.4000244140625</ele>
        <time>2018-06-24T12:42:53.000Z</time>
      </trkpt>
      <trkpt lat="32.73049260489642620086669921875" lon="-16.85548667795956134796142578125">
        <ele>1084.199951171875</ele>
        <time>2018-06-24T12:42:55.000Z</time>
      </trkpt>
      <trkpt lat="32.7305340953171253204345703125" lon="-16.85535474680364131927490234375">
        <ele>1083</ele>
        <time>2018-06-24T12:42:59.000Z</time>
      </trkpt>
      <trkpt lat="32.73058547638356685638427734375" lon="-16.855199597775936126708984375">
        <ele>1082</ele>
        <time>2018-06-24T12:43:03.000Z</time>
      </trkpt>
      <trkpt lat="32.730623446404933929443359375" lon="-16.85501259751617908477783203125">
        <ele>1080.800048828125</ele>
        <time>2018-06-24T12:43:08.000Z</time>
      </trkpt>
      <trkpt lat="32.7306444011628627777099609375" lon="-16.8548152036964893341064453125">
        <ele>1079.800048828125</ele>
        <time>2018-06-24T12:43:13.000Z</time>
      </trkpt>
      <trkpt lat="32.73066778667271137237548828125" lon="-16.85466122813522815704345703125">
        <ele>1078.5999755859375</ele>
        <time>2018-06-24T12:43:17.000Z</time>
      </trkpt>
      <trkpt lat="32.73072277195751667022705078125" lon="-16.854542456567287445068359375">
        <ele>1077.4000244140625</ele>
        <time>2018-06-24T12:43:21.000Z</time>
      </trkpt>
      <trkpt lat="32.73075261153280735015869140625" lon="-16.85453197918832302093505859375">
        <ele>1077.199951171875</ele>
        <time>2018-06-24T12:43:22.000Z</time>
      </trkpt>
      <trkpt lat="32.730842046439647674560546875" lon="-16.85452929697930812835693359375">
        <ele>1076.4000244140625</ele>
        <time>2018-06-24T12:43:25.000Z</time>
      </trkpt>
      <trkpt lat="32.7309411205351352691650390625" lon="-16.85454480350017547607421875">
        <ele>1075.199951171875</ele>
        <time>2018-06-24T12:43:28.000Z</time>
      </trkpt>
      <trkpt lat="32.73101270198822021484375" lon="-16.85455553233623504638671875">
        <ele>1073.800048828125</ele>
        <time>2018-06-24T12:43:30.000Z</time>
      </trkpt>
      <trkpt lat="32.7310856245458126068115234375" lon="-16.8545677699148654937744140625">
        <ele>1072.5999755859375</ele>
        <time>2018-06-24T12:43:32.000Z</time>
      </trkpt>
      <trkpt lat="32.7311593852937221527099609375" lon="-16.85456668026745319366455078125">
        <ele>1071.4000244140625</ele>
        <time>2018-06-24T12:43:34.000Z</time>
      </trkpt>
      <trkpt lat="32.73123222403228282928466796875" lon="-16.85456802137196063995361328125">
        <ele>1070.199951171875</ele>
        <time>2018-06-24T12:43:36.000Z</time>
      </trkpt>
      <trkpt lat="32.73129877634346485137939453125" lon="-16.85457338578999042510986328125">
        <ele>1069</ele>
        <time>2018-06-24T12:43:38.000Z</time>
      </trkpt>
      <trkpt lat="32.7313618920743465423583984375" lon="-16.85456366278231143951416015625">
        <ele>1067.5999755859375</ele>
        <time>2018-06-24T12:43:40.000Z</time>
      </trkpt>
      <trkpt lat="32.7313927374780178070068359375" lon="-16.85455997474491596221923828125">
        <ele>1066.5999755859375</ele>
        <time>2018-06-24T12:43:41.000Z</time>
      </trkpt>
      <trkpt lat="32.73150715045630931854248046875" lon="-16.85454304330050945281982421875">
        <ele>1065.199951171875</ele>
        <time>2018-06-24T12:43:45.000Z</time>
      </trkpt>
      <trkpt lat="32.73159884847700595855712890625" lon="-16.85452158562839031219482421875">
        <ele>1063.5999755859375</ele>
        <time>2018-06-24T12:43:48.000Z</time>
      </trkpt>
      <trkpt lat="32.7316304482519626617431640625" lon="-16.85451856814324855804443359375">
        <ele>1063</ele>
        <time>2018-06-24T12:43:49.000Z</time>
      </trkpt>
      <trkpt lat="32.731660790741443634033203125" lon="-16.85450985096395015716552734375">
        <ele>1062.5999755859375</ele>
        <time>2018-06-24T12:43:50.000Z</time>
      </trkpt>
      <trkpt lat="32.73172306828200817108154296875" lon="-16.8544789217412471771240234375">
        <ele>1061.199951171875</ele>
        <time>2018-06-24T12:43:52.000Z</time>
      </trkpt>
      <trkpt lat="32.731784842908382415771484375" lon="-16.8544259481132030487060546875">
        <ele>1059.800048828125</ele>
        <time>2018-06-24T12:43:54.000Z</time>
      </trkpt>
      <trkpt lat="32.731825411319732666015625" lon="-16.85436769388616085052490234375">
        <ele>1059.199951171875</ele>
        <time>2018-06-24T12:43:56.000Z</time>
      </trkpt>
      <trkpt lat="32.731851898133754730224609375" lon="-16.85434036888182163238525390625">
        <ele>1058.199951171875</ele>
        <time>2018-06-24T12:44:11.000Z</time>
      </trkpt>
      <trkpt lat="32.73194409906864166259765625" lon="-16.85422838665544986724853515625">
        <ele>1057</ele>
        <time>2018-06-24T12:44:17.000Z</time>
      </trkpt>
      <trkpt lat="32.73200386203825473785400390625" lon="-16.85415579937398433685302734375">
        <ele>1055.800048828125</ele>
        <time>2018-06-24T12:44:20.000Z</time>
      </trkpt>
      <trkpt lat="32.73206504993140697479248046875" lon="-16.85407298617064952850341796875">
        <ele>1054.4000244140625</ele>
        <time>2018-06-24T12:44:23.000Z</time>
      </trkpt>
      <trkpt lat="32.7321217954158782958984375" lon="-16.8539701402187347412109375">
        <ele>1053</ele>
        <time>2018-06-24T12:44:26.000Z</time>
      </trkpt>
      <trkpt lat="32.73215138353407382965087890625" lon="-16.85390098951756954193115234375">
        <ele>1051.800048828125</ele>
        <time>2018-06-24T12:44:28.000Z</time>
      </trkpt>
      <trkpt lat="32.73217367939651012420654296875" lon="-16.85382437892258167266845703125">
        <ele>1050.5999755859375</ele>
        <time>2018-06-24T12:44:30.000Z</time>
      </trkpt>
      <trkpt lat="32.73220217786729335784912109375" lon="-16.85375061817467212677001953125">
        <ele>1049.4000244140625</ele>
        <time>2018-06-24T12:44:32.000Z</time>
      </trkpt>
      <trkpt lat="32.7322359569370746612548828125" lon="-16.85366529040038585662841796875">
        <ele>1048</ele>
        <time>2018-06-24T12:44:34.000Z</time>
      </trkpt>
      <trkpt lat="32.73228046484291553497314453125" lon="-16.85359689407050609588623046875">
        <ele>1046.5999755859375</ele>
        <time>2018-06-24T12:44:36.000Z</time>
      </trkpt>
      <trkpt lat="32.7323358692228794097900390625" lon="-16.85355381108820438385009765625">
        <ele>1045.199951171875</ele>
        <time>2018-06-24T12:44:38.000Z</time>
      </trkpt>
      <trkpt lat="32.732395045459270477294921875" lon="-16.8535203672945499420166015625">
        <ele>1044</ele>
        <time>2018-06-24T12:44:40.000Z</time>
      </trkpt>
      <trkpt lat="32.73245547898113727569580078125" lon="-16.8534932099282741546630859375">
        <ele>1042.4000244140625</ele>
        <time>2018-06-24T12:44:42.000Z</time>
      </trkpt>
      <trkpt lat="32.7325149066746234893798828125" lon="-16.8534546531736850738525390625">
        <ele>1041</ele>
        <time>2018-06-24T12:44:44.000Z</time>
      </trkpt>
      <trkpt lat="32.73257366381585597991943359375" lon="-16.85339891351759433746337890625">
        <ele>1039.800048828125</ele>
        <time>2018-06-24T12:44:46.000Z</time>
      </trkpt>
      <trkpt lat="32.73265111260116100311279296875" lon="-16.85332515276968479156494140625">
        <ele>1038.5999755859375</ele>
        <time>2018-06-24T12:44:49.000Z</time>
      </trkpt>
      <trkpt lat="32.732745073735713958740234375" lon="-16.8532608635723590850830078125">
        <ele>1037.4000244140625</ele>
        <time>2018-06-24T12:44:53.000Z</time>
      </trkpt>
      <trkpt lat="32.73285529576241970062255859375" lon="-16.8532249890267848968505859375">
        <ele>1036.199951171875</ele>
        <time>2018-06-24T12:44:57.000Z</time>
      </trkpt>
      <trkpt lat="32.7329943515360355377197265625" lon="-16.85316924937069416046142578125">
        <ele>1035.199951171875</ele>
        <time>2018-06-24T12:45:02.000Z</time>
      </trkpt>
      <trkpt lat="32.73309208452701568603515625" lon="-16.85305139981210231781005859375">
        <ele>1034.199951171875</ele>
        <time>2018-06-24T12:45:07.000Z</time>
      </trkpt>
      <trkpt lat="32.73321353830397129058837890625" lon="-16.85286565683782100677490234375">
        <ele>1033</ele>
        <time>2018-06-24T12:45:13.000Z</time>
      </trkpt>
      <trkpt lat="32.733344547450542449951171875" lon="-16.85270707122981548309326171875">
        <ele>1032.800048828125</ele>
        <time>2018-06-24T12:45:19.000Z</time>
      </trkpt>
      <trkpt lat="32.73353154771029949188232421875" lon="-16.85267387889325618743896484375">
        <ele>1032</ele>
        <time>2018-06-24T12:45:25.000Z</time>
      </trkpt>
      <trkpt lat="32.7336729504168033599853515625" lon="-16.85271344147622585296630859375">
        <ele>1030.800048828125</ele>
        <time>2018-06-24T12:45:30.000Z</time>
      </trkpt>
      <trkpt lat="32.733738832175731658935546875" lon="-16.85281670652329921722412109375">
        <ele>1029.5999755859375</ele>
        <time>2018-06-24T12:45:34.000Z</time>
      </trkpt>
      <trkpt lat="32.73375534452497959136962890625" lon="-16.85290203429758548736572265625">
        <ele>1028.4000244140625</ele>
        <time>2018-06-24T12:45:37.000Z</time>
      </trkpt>
      <trkpt lat="32.7337659895420074462890625" lon="-16.85296623967587947845458984375">
        <ele>1027.4000244140625</ele>
        <time>2018-06-24T12:45:39.000Z</time>
      </trkpt>
      <trkpt lat="32.7337901294231414794921875" lon="-16.853068582713603973388671875">
        <ele>1025.800048828125</ele>
        <time>2018-06-24T12:45:42.000Z</time>
      </trkpt>
      <trkpt lat="32.7338006906211376190185546875" lon="-16.8531386554241180419921875">
        <ele>1024.5999755859375</ele>
        <time>2018-06-24T12:45:44.000Z</time>
      </trkpt>
      <trkpt lat="32.7338151074945926666259765625" lon="-16.8532169423997402191162109375">
        <ele>1023</ele>
        <time>2018-06-24T12:45:46.000Z</time>
      </trkpt>
      <trkpt lat="32.73383497260510921478271484375" lon="-16.85329598374664783477783203125">
        <ele>1021.4000244140625</ele>
        <time>2018-06-24T12:45:48.000Z</time>
      </trkpt>
      <trkpt lat="32.7338499762117862701416015625" lon="-16.8533773720264434814453125">
        <ele>1019.79998779296875</ele>
        <time>2018-06-24T12:45:50.000Z</time>
      </trkpt>
      <trkpt lat="32.73388467729091644287109375" lon="-16.85346244834363460540771484375">
        <ele>1018.5999755859375</ele>
        <time>2018-06-24T12:45:52.000Z</time>
      </trkpt>
      <trkpt lat="32.7339485473930835723876953125" lon="-16.85357250273227691650390625">
        <ele>1017.4000244140625</ele>
        <time>2018-06-24T12:45:55.000Z</time>
      </trkpt>
      <trkpt lat="32.73409799672663211822509765625" lon="-16.8536595068871974945068359375">
        <ele>1016.20001220703125</ele>
        <time>2018-06-24T12:45:59.000Z</time>
      </trkpt>
      <trkpt lat="32.73419153876602649688720703125" lon="-16.85370527207851409912109375">
        <ele>1015.20001220703125</ele>
        <time>2018-06-24T12:46:02.000Z</time>
      </trkpt>
      <trkpt lat="32.73426714353263378143310546875" lon="-16.8537748418748378753662109375">
        <ele>1013.5999755859375</ele>
        <time>2018-06-24T12:46:05.000Z</time>
      </trkpt>
      <trkpt lat="32.73432212881743907928466796875" lon="-16.85381951741874217987060546875">
        <ele>1012.5999755859375</ele>
        <time>2018-06-24T12:46:07.000Z</time>
      </trkpt>
      <trkpt lat="32.734376527369022369384765625" lon="-16.853860504925251007080078125">
        <ele>1011.20001220703125</ele>
        <time>2018-06-24T12:46:09.000Z</time>
      </trkpt>
      <trkpt lat="32.734427489340305328369140625" lon="-16.853900738060474395751953125">
        <ele>1010.20001220703125</ele>
        <time>2018-06-24T12:46:11.000Z</time>
      </trkpt>
      <trkpt lat="32.734481804072856903076171875" lon="-16.85393921099603176116943359375">
        <ele>1009.20001220703125</ele>
        <time>2018-06-24T12:46:13.000Z</time>
      </trkpt>
      <trkpt lat="32.7345342747867107391357421875" lon="-16.8539847247302532196044921875">
        <ele>1008</ele>
        <time>2018-06-24T12:46:15.000Z</time>
      </trkpt>
      <trkpt lat="32.7345849014818668365478515625" lon="-16.85403627343475818634033203125">
        <ele>1007</ele>
        <time>2018-06-24T12:46:17.000Z</time>
      </trkpt>
      <trkpt lat="32.73463443852961063385009765625" lon="-16.854077763855457305908203125">
        <ele>1006</ele>
        <time>2018-06-24T12:46:19.000Z</time>
      </trkpt>
      <trkpt lat="32.73468472994863986968994140625" lon="-16.85410819016396999359130859375">
        <ele>1004.79998779296875</ele>
        <time>2018-06-24T12:46:21.000Z</time>
      </trkpt>
      <trkpt lat="32.734742648899555206298828125" lon="-16.8541322462260723114013671875">
        <ele>1003.79998779296875</ele>
        <time>2018-06-24T12:46:23.000Z</time>
      </trkpt>
      <trkpt lat="32.7348169125616550445556640625" lon="-16.8541567213833332061767578125">
        <ele>1002.4000244140625</ele>
        <time>2018-06-24T12:46:25.000Z</time>
      </trkpt>
      <trkpt lat="32.7348893322050571441650390625" lon="-16.8541708029806613922119140625">
        <ele>1001.20001220703125</ele>
        <time>2018-06-24T12:46:27.000Z</time>
      </trkpt>
      <trkpt lat="32.73498128168284893035888671875" lon="-16.854176335036754608154296875">
        <ele>1000.20001220703125</ele>
        <time>2018-06-24T12:46:30.000Z</time>
      </trkpt>
      <trkpt lat="32.7350593172013759613037109375" lon="-16.8541560508310794830322265625">
        <ele>998.5999755859375</ele>
        <time>2018-06-24T12:46:33.000Z</time>
      </trkpt>
      <trkpt lat="32.735119163990020751953125" lon="-16.85413467697799205780029296875">
        <ele>997.4000244140625</ele>
        <time>2018-06-24T12:46:35.000Z</time>
      </trkpt>
      <trkpt lat="32.73517557419836521148681640625" lon="-16.85412771999835968017578125">
        <ele>996</ele>
        <time>2018-06-24T12:46:37.000Z</time>
      </trkpt>
      <trkpt lat="32.73523592390120029449462890625" lon="-16.85412394814193248748779296875">
        <ele>994.79998779296875</ele>
        <time>2018-06-24T12:46:39.000Z</time>
      </trkpt>
      <trkpt lat="32.73529359139502048492431640625" lon="-16.854111291468143463134765625">
        <ele>993.79998779296875</ele>
        <time>2018-06-24T12:46:41.000Z</time>
      </trkpt>
      <trkpt lat="32.73541353642940521240234375" lon="-16.85407751239836215972900390625">
        <ele>992.79998779296875</ele>
        <time>2018-06-24T12:46:45.000Z</time>
      </trkpt>
      <trkpt lat="32.7354665100574493408203125" lon="-16.85406812466681003570556640625">
        <ele>991.79998779296875</ele>
        <time>2018-06-24T12:46:47.000Z</time>
      </trkpt>
      <trkpt lat="32.7355421148240566253662109375" lon="-16.85403157956898212432861328125">
        <ele>990.5999755859375</ele>
        <time>2018-06-24T12:46:50.000Z</time>
      </trkpt>
      <trkpt lat="32.73560791276395320892333984375" lon="-16.85399218462407588958740234375">
        <ele>989.20001220703125</ele>
        <time>2018-06-24T12:46:53.000Z</time>
      </trkpt>
      <trkpt lat="32.73565116338431835174560546875" lon="-16.85397290624678134918212890625">
        <ele>988.20001220703125</ele>
        <time>2018-06-24T12:46:55.000Z</time>
      </trkpt>
      <trkpt lat="32.73570279590785503387451171875" lon="-16.85394155792891979217529296875">
        <ele>987</ele>
        <time>2018-06-24T12:46:57.000Z</time>
      </trkpt>
      <trkpt lat="32.73575459606945514678955078125" lon="-16.85389847494661808013916015625">
        <ele>985.79998779296875</ele>
        <time>2018-06-24T12:46:59.000Z</time>
      </trkpt>
      <trkpt lat="32.73580874316394329071044921875" lon="-16.85385958291590213775634765625">
        <ele>984.5999755859375</ele>
        <time>2018-06-24T12:47:01.000Z</time>
      </trkpt>
      <trkpt lat="32.73586842231452465057373046875" lon="-16.85383426956832408905029296875">
        <ele>983.4000244140625</ele>
        <time>2018-06-24T12:47:03.000Z</time>
      </trkpt>
      <trkpt lat="32.7359283529222011566162109375" lon="-16.8538150750100612640380859375">
        <ele>982</ele>
        <time>2018-06-24T12:47:05.000Z</time>
      </trkpt>
      <trkpt lat="32.73599599488079547882080078125" lon="-16.853798814117908477783203125">
        <ele>980.20001220703125</ele>
        <time>2018-06-24T12:47:07.000Z</time>
      </trkpt>
      <trkpt lat="32.7360282652080059051513671875" lon="-16.85379453934729099273681640625">
        <ele>979</ele>
        <time>2018-06-24T12:47:08.000Z</time>
      </trkpt>
      <trkpt lat="32.7360973320901393890380859375" lon="-16.85378573834896087646484375">
        <ele>977.4000244140625</ele>
        <time>2018-06-24T12:47:10.000Z</time>
      </trkpt>
      <trkpt lat="32.73616187274456024169921875" lon="-16.8537560664117336273193359375">
        <ele>975.4000244140625</ele>
        <time>2018-06-24T12:47:12.000Z</time>
      </trkpt>
      <trkpt lat="32.73622012697160243988037109375" lon="-16.85371465981006622314453125">
        <ele>973.5999755859375</ele>
        <time>2018-06-24T12:47:14.000Z</time>
      </trkpt>
      <trkpt lat="32.73628123104572296142578125" lon="-16.85367082245647907257080078125">
        <ele>972</ele>
        <time>2018-06-24T12:47:16.000Z</time>
      </trkpt>
      <trkpt lat="32.73635323159396648406982421875" lon="-16.85363394208252429962158203125">
        <ele>970.79998779296875</ele>
        <time>2018-06-24T12:47:18.000Z</time>
      </trkpt>
      <trkpt lat="32.7364480309188365936279296875" lon="-16.85357560403645038604736328125">
        <ele>969.5999755859375</ele>
        <time>2018-06-24T12:47:21.000Z</time>
      </trkpt>
      <trkpt lat="32.73652640171349048614501953125" lon="-16.853505112230777740478515625">
        <ele>968.5999755859375</ele>
        <time>2018-06-24T12:47:24.000Z</time>
      </trkpt>
      <trkpt lat="32.7366089634597301483154296875" lon="-16.853398494422435760498046875">
        <ele>967.20001220703125</ele>
        <time>2018-06-24T12:47:28.000Z</time>
      </trkpt>
      <trkpt lat="32.73667911998927593231201171875" lon="-16.85327268205583095550537109375">
        <ele>966</ele>
        <time>2018-06-24T12:47:32.000Z</time>
      </trkpt>
      <trkpt lat="32.7366994880139827728271484375" lon="-16.85317561961710453033447265625">
        <ele>965</ele>
        <time>2018-06-24T12:47:35.000Z</time>
      </trkpt>
      <trkpt lat="32.73674164898693561553955078125" lon="-16.85307587496936321258544921875">
        <ele>963.5999755859375</ele>
        <time>2018-06-24T12:47:38.000Z</time>
      </trkpt>
      <trkpt lat="32.73679110221564769744873046875" lon="-16.85301862657070159912109375">
        <ele>962.20001220703125</ele>
        <time>2018-06-24T12:47:40.000Z</time>
      </trkpt>
      <trkpt lat="32.73685262538492679595947265625" lon="-16.8529777228832244873046875">
        <ele>960.79998779296875</ele>
        <time>2018-06-24T12:47:42.000Z</time>
      </trkpt>
      <trkpt lat="32.7369080297648906707763671875" lon="-16.8529470451176166534423828125">
        <ele>959.4000244140625</ele>
        <time>2018-06-24T12:47:44.000Z</time>
      </trkpt>
      <trkpt lat="32.736981622874736785888671875" lon="-16.85290019027888774871826171875">
        <ele>958.20001220703125</ele>
        <time>2018-06-24T12:47:46.000Z</time>
      </trkpt>
      <trkpt lat="32.7370293997228145599365234375" lon="-16.852838583290576934814453125">
        <ele>957.20001220703125</ele>
        <time>2018-06-24T12:47:48.000Z</time>
      </trkpt>
      <trkpt lat="32.73706921376287937164306640625" lon="-16.8527416884899139404296875">
        <ele>955.5999755859375</ele>
        <time>2018-06-24T12:47:51.000Z</time>
      </trkpt>
      <trkpt lat="32.73710123263299465179443359375" lon="-16.85267798602581024169921875">
        <ele>954.20001220703125</ele>
        <time>2018-06-24T12:47:53.000Z</time>
      </trkpt>
      <trkpt lat="32.73713811300694942474365234375" lon="-16.8526204861700534820556640625">
        <ele>953</ele>
        <time>2018-06-24T12:47:55.000Z</time>
      </trkpt>
      <trkpt lat="32.7371839620172977447509765625" lon="-16.85253976844251155853271484375">
        <ele>951.20001220703125</ele>
        <time>2018-06-24T12:47:57.000Z</time>
      </trkpt>
      <trkpt lat="32.7372060902416706085205078125" lon="-16.852500624954700469970703125">
        <ele>950.20001220703125</ele>
        <time>2018-06-24T12:47:58.000Z</time>
      </trkpt>
      <trkpt lat="32.7372302301228046417236328125" lon="-16.8524645827710628509521484375">
        <ele>949.20001220703125</ele>
        <time>2018-06-24T12:47:59.000Z</time>
      </trkpt>
      <trkpt lat="32.73727339692413806915283203125" lon="-16.8523998744785785675048828125">
        <ele>947.5999755859375</ele>
        <time>2018-06-24T12:48:01.000Z</time>
      </trkpt>
      <trkpt lat="32.7372982911765575408935546875" lon="-16.85236559249460697174072265625">
        <ele>946.4000244140625</ele>
        <time>2018-06-24T12:48:02.000Z</time>
      </trkpt>
      <trkpt lat="32.73732083849608898162841796875" lon="-16.852335669100284576416015625">
        <ele>945.4000244140625</ele>
        <time>2018-06-24T12:48:03.000Z</time>
      </trkpt>
      <trkpt lat="32.7373609878122806549072265625" lon="-16.8522821925580501556396484375">
        <ele>943.5999755859375</ele>
        <time>2018-06-24T12:48:05.000Z</time>
      </trkpt>
      <trkpt lat="32.73740239441394805908203125" lon="-16.8522285483777523040771484375">
        <ele>941.79998779296875</ele>
        <time>2018-06-24T12:48:07.000Z</time>
      </trkpt>
      <trkpt lat="32.73746651597321033477783203125" lon="-16.852190829813480377197265625">
        <ele>940.20001220703125</ele>
        <time>2018-06-24T12:48:09.000Z</time>
      </trkpt>
      <trkpt lat="32.737501971423625946044921875" lon="-16.8521765805780887603759765625">
        <ele>938.79998779296875</ele>
        <time>2018-06-24T12:48:10.000Z</time>
      </trkpt>
      <trkpt lat="32.73757648654282093048095703125" lon="-16.8521534465253353118896484375">
        <ele>937.20001220703125</ele>
        <time>2018-06-24T12:48:12.000Z</time>
      </trkpt>
      <trkpt lat="32.73764857091009616851806640625" lon="-16.85215302743017673492431640625">
        <ele>936</ele>
        <time>2018-06-24T12:48:14.000Z</time>
      </trkpt>
      <trkpt lat="32.7377110160887241363525390625" lon="-16.8521427176892757415771484375">
        <ele>935</ele>
        <time>2018-06-24T12:48:16.000Z</time>
      </trkpt>
      <trkpt lat="32.73776122368872165679931640625" lon="-16.8521256186068058013916015625">
        <ele>933.5999755859375</ele>
        <time>2018-06-24T12:48:18.000Z</time>
      </trkpt>
      <trkpt lat="32.73777580820024013519287109375" lon="-16.85210726223886013031005859375">
        <ele>932.79998779296875</ele>
        <time>2018-06-24T12:48:19.000Z</time>
      </trkpt>
      <trkpt lat="32.73779039271175861358642578125" lon="-16.85208563692867755889892578125">
        <ele>932</ele>
        <time>2018-06-24T12:48:20.000Z</time>
      </trkpt>
      <trkpt lat="32.737824507057666778564453125" lon="-16.8520297296345233917236328125">
        <ele>930.5999755859375</ele>
        <time>2018-06-24T12:48:22.000Z</time>
      </trkpt>
      <trkpt lat="32.737847976386547088623046875" lon="-16.85196192003786563873291015625">
        <ele>929</ele>
        <time>2018-06-24T12:48:24.000Z</time>
      </trkpt>
      <trkpt lat="32.73786105215549468994140625" lon="-16.85187374241650104522705078125">
        <ele>927.79998779296875</ele>
        <time>2018-06-24T12:48:26.000Z</time>
      </trkpt>
      <trkpt lat="32.737865410745143890380859375" lon="-16.85177466832101345062255859375">
        <ele>926.5999755859375</ele>
        <time>2018-06-24T12:48:28.000Z</time>
      </trkpt>
      <trkpt lat="32.73787052370607852935791015625" lon="-16.85168020427227020263671875">
        <ele>925.4000244140625</ele>
        <time>2018-06-24T12:48:30.000Z</time>
      </trkpt>
      <trkpt lat="32.73787840269505977630615234375" lon="-16.85155841521918773651123046875">
        <ele>924.4000244140625</ele>
        <time>2018-06-24T12:48:33.000Z</time>
      </trkpt>
      <trkpt lat="32.73788175545632839202880859375" lon="-16.85144626535475254058837890625">
        <ele>922.79998779296875</ele>
        <time>2018-06-24T12:48:36.000Z</time>
      </trkpt>
      <trkpt lat="32.73787152953445911407470703125" lon="-16.851373426616191864013671875">
        <ele>922</ele>
        <time>2018-06-24T12:48:38.000Z</time>
      </trkpt>
      <trkpt lat="32.737849988043308258056640625" lon="-16.85124996118247509002685546875">
        <ele>920.79998779296875</ele>
        <time>2018-06-24T12:48:42.000Z</time>
      </trkpt>
      <trkpt lat="32.73782224394381046295166015625" lon="-16.85109824873507022857666015625">
        <ele>919.5999755859375</ele>
        <time>2018-06-24T12:48:47.000Z</time>
      </trkpt>
      <trkpt lat="32.73781017400324344635009765625" lon="-16.8510684929788112640380859375">
        <ele>919.4000244140625</ele>
        <time>2018-06-24T12:48:48.000Z</time>
      </trkpt>
      <trkpt lat="32.737773545086383819580078125" lon="-16.8509809859097003936767578125">
        <ele>918.4000244140625</ele>
        <time>2018-06-24T12:48:51.000Z</time>
      </trkpt>
      <trkpt lat="32.737750075757503509521484375" lon="-16.85090948827564716339111328125">
        <ele>917.4000244140625</ele>
        <time>2018-06-24T12:48:53.000Z</time>
      </trkpt>
      <trkpt lat="32.73773364722728729248046875" lon="-16.8507890403270721435546875">
        <ele>915.79998779296875</ele>
        <time>2018-06-24T12:48:56.000Z</time>
      </trkpt>
      <trkpt lat="32.7377505786716938018798828125" lon="-16.85071863234043121337890625">
        <ele>914.20001220703125</ele>
        <time>2018-06-24T12:48:58.000Z</time>
      </trkpt>
      <trkpt lat="32.73777111433446407318115234375" lon="-16.85064696706831455230712890625">
        <ele>912.79998779296875</ele>
        <time>2018-06-24T12:49:00.000Z</time>
      </trkpt>
      <trkpt lat="32.73776910267770290374755859375" lon="-16.8505779840052127838134765625">
        <ele>911.79998779296875</ele>
        <time>2018-06-24T12:49:02.000Z</time>
      </trkpt>
      <trkpt lat="32.7377546019852161407470703125" lon="-16.85050413943827152252197265625">
        <ele>909.79998779296875</ele>
        <time>2018-06-24T12:49:04.000Z</time>
      </trkpt>
      <trkpt lat="32.73773540742695331573486328125" lon="-16.85042551718652248382568359375">
        <ele>908.20001220703125</ele>
        <time>2018-06-24T12:49:06.000Z</time>
      </trkpt>
      <trkpt lat="32.73772434331476688385009765625" lon="-16.850343458354473114013671875">
        <ele>906.20001220703125</ele>
        <time>2018-06-24T12:49:08.000Z</time>
      </trkpt>
      <trkpt lat="32.73771713487803936004638671875" lon="-16.8502966873347759246826171875">
        <ele>905.20001220703125</ele>
        <time>2018-06-24T12:49:09.000Z</time>
      </trkpt>
      <trkpt lat="32.73771889507770538330078125" lon="-16.8501997925341129302978515625">
        <ele>903.5999755859375</ele>
        <time>2018-06-24T12:49:11.000Z</time>
      </trkpt>
      <trkpt lat="32.7377291209995746612548828125" lon="-16.8501614034175872802734375">
        <ele>903</ele>
        <time>2018-06-24T12:49:12.000Z</time>
      </trkpt>
      <trkpt lat="32.73777999915182590484619140625" lon="-16.8501293845474720001220703125">
        <ele>902</ele>
        <time>2018-06-24T12:49:14.000Z</time>
      </trkpt>
      <trkpt lat="32.737838588654994964599609375" lon="-16.85013525187969207763671875">
        <ele>900.4000244140625</ele>
        <time>2018-06-24T12:49:16.000Z</time>
      </trkpt>
      <trkpt lat="32.7378870360553264617919921875" lon="-16.850151009857654571533203125">
        <ele>899.20001220703125</ele>
        <time>2018-06-24T12:49:18.000Z</time>
      </trkpt>
      <trkpt lat="32.73792944848537445068359375" lon="-16.8501721322536468505859375">
        <ele>897.5999755859375</ele>
        <time>2018-06-24T12:49:20.000Z</time>
      </trkpt>
      <trkpt lat="32.7379896305501461029052734375" lon="-16.8501766584813594818115234375">
        <ele>896.20001220703125</ele>
        <time>2018-06-24T12:49:22.000Z</time>
      </trkpt>
      <trkpt lat="32.73805391974747180938720703125" lon="-16.8501434661448001861572265625">
        <ele>894.79998779296875</ele>
        <time>2018-06-24T12:49:24.000Z</time>
      </trkpt>
      <trkpt lat="32.73808929137885570526123046875" lon="-16.8500787578523159027099609375">
        <ele>893.5999755859375</ele>
        <time>2018-06-24T12:49:26.000Z</time>
      </trkpt>
      <trkpt lat="32.738112844526767730712890625" lon="-16.85000206343829631805419921875">
        <ele>892.4000244140625</ele>
        <time>2018-06-24T12:49:28.000Z</time>
      </trkpt>
      <trkpt lat="32.73813505657017230987548828125" lon="-16.8499292246997356414794921875">
        <ele>891.20001220703125</ele>
        <time>2018-06-24T12:49:30.000Z</time>
      </trkpt>
      <trkpt lat="32.738160453736782073974609375" lon="-16.8498313240706920623779296875">
        <ele>889.5999755859375</ele>
        <time>2018-06-24T12:49:33.000Z</time>
      </trkpt>
      <trkpt lat="32.738167159259319305419921875" lon="-16.849756725132465362548828125">
        <ele>888.5999755859375</ele>
        <time>2018-06-24T12:49:35.000Z</time>
      </trkpt>
      <trkpt lat="32.7381757088005542755126953125" lon="-16.849644742906093597412109375">
        <ele>887.20001220703125</ele>
        <time>2018-06-24T12:49:38.000Z</time>
      </trkpt>
      <trkpt lat="32.7381820790469646453857421875" lon="-16.84953988529741764068603515625">
        <ele>886</ele>
        <time>2018-06-24T12:49:41.000Z</time>
      </trkpt>
      <trkpt lat="32.73819389753043651580810546875" lon="-16.8494776077568531036376953125">
        <ele>885</ele>
        <time>2018-06-24T12:49:43.000Z</time>
      </trkpt>
      <trkpt lat="32.7382196299731731414794921875" lon="-16.849413402378559112548828125">
        <ele>883.20001220703125</ele>
        <time>2018-06-24T12:49:45.000Z</time>
      </trkpt>
      <trkpt lat="32.73821183480322360992431640625" lon="-16.84934928081929683685302734375">
        <ele>882.20001220703125</ele>
        <time>2018-06-24T12:49:47.000Z</time>
      </trkpt>
      <trkpt lat="32.738191299140453338623046875" lon="-16.84931960888206958770751953125">
        <ele>881</ele>
        <time>2018-06-24T12:49:48.000Z</time>
      </trkpt>
      <trkpt lat="32.73813597857952117919921875" lon="-16.84928960166871547698974609375">
        <ele>879.79998779296875</ele>
        <time>2018-06-24T12:49:50.000Z</time>
      </trkpt>
      <trkpt lat="32.73808367550373077392578125" lon="-16.8492989055812358856201171875">
        <ele>878.79998779296875</ele>
        <time>2018-06-24T12:49:52.000Z</time>
      </trkpt>
      <trkpt lat="32.73804486729204654693603515625" lon="-16.8493280746042728424072265625">
        <ele>877.4000244140625</ele>
        <time>2018-06-24T12:49:54.000Z</time>
      </trkpt>
      <trkpt lat="32.7380040474236011505126953125" lon="-16.849366128444671630859375">
        <ele>876</ele>
        <time>2018-06-24T12:49:56.000Z</time>
      </trkpt>
      <trkpt lat="32.7379410155117511749267578125" lon="-16.84939898550510406494140625">
        <ele>874.4000244140625</ele>
        <time>2018-06-24T12:49:59.000Z</time>
      </trkpt>
      <trkpt lat="32.7379255928099155426025390625" lon="-16.84938423335552215576171875">
        <ele>873.79998779296875</ele>
        <time>2018-06-24T12:50:00.000Z</time>
      </trkpt>
      <trkpt lat="32.73792408406734466552734375" lon="-16.8493233807384967803955078125">
        <ele>873</ele>
        <time>2018-06-24T12:50:02.000Z</time>
      </trkpt>
      <trkpt lat="32.73792902939021587371826171875" lon="-16.84926043264567852020263671875">
        <ele>871.5999755859375</ele>
        <time>2018-06-24T12:50:04.000Z</time>
      </trkpt>
      <trkpt lat="32.7379343099892139434814453125" lon="-16.8491939641535282135009765625">
        <ele>870.4000244140625</ele>
        <time>2018-06-24T12:50:06.000Z</time>
      </trkpt>
      <trkpt lat="32.7379433624446392059326171875" lon="-16.84912950731813907623291015625">
        <ele>869.20001220703125</ele>
        <time>2018-06-24T12:50:08.000Z</time>
      </trkpt>
      <trkpt lat="32.73795233108103275299072265625" lon="-16.84906463138759136199951171875">
        <ele>867.5999755859375</ele>
        <time>2018-06-24T12:50:10.000Z</time>
      </trkpt>
      <trkpt lat="32.73794176988303661346435546875" lon="-16.8490000069141387939453125">
        <ele>866</ele>
        <time>2018-06-24T12:50:12.000Z</time>
      </trkpt>
      <trkpt lat="32.73792282678186893463134765625" lon="-16.84894091449677944183349609375">
        <ele>864.79998779296875</ele>
        <time>2018-06-24T12:50:14.000Z</time>
      </trkpt>
      <trkpt lat="32.7379272691905498504638671875" lon="-16.8488720990717411041259765625">
        <ele>863.5999755859375</ele>
        <time>2018-06-24T12:50:16.000Z</time>
      </trkpt>
      <trkpt lat="32.73795761168003082275390625" lon="-16.8488171137869358062744140625">
        <ele>862.20001220703125</ele>
        <time>2018-06-24T12:50:18.000Z</time>
      </trkpt>
      <trkpt lat="32.7379963360726833343505859375" lon="-16.84877294115722179412841796875">
        <ele>860.5999755859375</ele>
        <time>2018-06-24T12:50:20.000Z</time>
      </trkpt>
      <trkpt lat="32.73805760778486728668212890625" lon="-16.84872935526072978973388671875">
        <ele>859.5999755859375</ele>
        <time>2018-06-24T12:50:23.000Z</time>
      </trkpt>
      <trkpt lat="32.7380996011197566986083984375" lon="-16.84872440993785858154296875">
        <ele>858.79998779296875</ele>
        <time>2018-06-24T12:50:25.000Z</time>
      </trkpt>
      <trkpt lat="32.73813069798052310943603515625" lon="-16.848732791841030120849609375">
        <ele>858</ele>
        <time>2018-06-24T12:50:26.000Z</time>
      </trkpt>
      <trkpt lat="32.73820177651941776275634765625" lon="-16.84876036830246448516845703125">
        <ele>856.5999755859375</ele>
        <time>2018-06-24T12:50:28.000Z</time>
      </trkpt>
      <trkpt lat="32.7382675744593143463134765625" lon="-16.8487894535064697265625">
        <ele>855.20001220703125</ele>
        <time>2018-06-24T12:50:30.000Z</time>
      </trkpt>
      <trkpt lat="32.7383252419531345367431640625" lon="-16.84881652705371379852294921875">
        <ele>853.79998779296875</ele>
        <time>2018-06-24T12:50:32.000Z</time>
      </trkpt>
      <trkpt lat="32.7383812330663204193115234375" lon="-16.84883915819227695465087890625">
        <ele>852.4000244140625</ele>
        <time>2018-06-24T12:50:34.000Z</time>
      </trkpt>
      <trkpt lat="32.73840797133743762969970703125" lon="-16.8488573469221591949462890625">
        <ele>851.20001220703125</ele>
        <time>2018-06-24T12:50:35.000Z</time>
      </trkpt>
      <trkpt lat="32.7384570054709911346435546875" lon="-16.84889548458158969879150390625">
        <ele>850</ele>
        <time>2018-06-24T12:50:37.000Z</time>
      </trkpt>
      <trkpt lat="32.73851341567933559417724609375" lon="-16.84891208074986934661865234375">
        <ele>848.4000244140625</ele>
        <time>2018-06-24T12:50:39.000Z</time>
      </trkpt>
      <trkpt lat="32.73859170265495777130126953125" lon="-16.8488905392587184906005859375">
        <ele>847</ele>
        <time>2018-06-24T12:50:41.000Z</time>
      </trkpt>
      <trkpt lat="32.73864090442657470703125" lon="-16.84884552843868732452392578125">
        <ele>845.4000244140625</ele>
        <time>2018-06-24T12:50:43.000Z</time>
      </trkpt>
      <trkpt lat="32.73867434822022914886474609375" lon="-16.84875500388443470001220703125">
        <ele>844</ele>
        <time>2018-06-24T12:50:45.000Z</time>
      </trkpt>
      <trkpt lat="32.73872296325862407684326171875" lon="-16.8486092425882816314697265625">
        <ele>842.79998779296875</ele>
        <time>2018-06-24T12:50:48.000Z</time>
      </trkpt>
      <trkpt lat="32.73879722692072391510009765625" lon="-16.8484141118824481964111328125">
        <ele>841.79998779296875</ele>
        <time>2018-06-24T12:50:53.000Z</time>
      </trkpt>
      <trkpt lat="32.73880728520452976226806640625" lon="-16.848346889019012451171875">
        <ele>841.79998779296875</ele>
        <time>2018-06-24T12:50:55.000Z</time>
      </trkpt>
      <trkpt lat="32.738815248012542724609375" lon="-16.84811295010149478912353515625">
        <ele>840.79998779296875</ele>
        <time>2018-06-24T12:51:02.000Z</time>
      </trkpt>
      <trkpt lat="32.73884550668299198150634765625" lon="-16.84801320545375347137451171875">
        <ele>839.5999755859375</ele>
        <time>2018-06-24T12:51:06.000Z</time>
      </trkpt>
      <trkpt lat="32.7389153279364109039306640625" lon="-16.84794229455292224884033203125">
        <ele>838.4000244140625</ele>
        <time>2018-06-24T12:51:10.000Z</time>
      </trkpt>
      <trkpt lat="32.73905974812805652618408203125" lon="-16.84787054546177387237548828125">
        <ele>837.20001220703125</ele>
        <time>2018-06-24T12:51:15.000Z</time>
      </trkpt>
      <trkpt lat="32.7391386218369007110595703125" lon="-16.84781740419566631317138671875">
        <ele>836</ele>
        <time>2018-06-24T12:51:18.000Z</time>
      </trkpt>
      <trkpt lat="32.73916854523122310638427734375" lon="-16.84777465648949146270751953125">
        <ele>834.79998779296875</ele>
        <time>2018-06-24T12:51:20.000Z</time>
      </trkpt>
      <trkpt lat="32.739190421998500823974609375" lon="-16.8477187491953372955322265625">
        <ele>833.20001220703125</ele>
        <time>2018-06-24T12:51:22.000Z</time>
      </trkpt>
      <trkpt lat="32.73920752108097076416015625" lon="-16.84766359627246856689453125">
        <ele>831.4000244140625</ele>
        <time>2018-06-24T12:51:24.000Z</time>
      </trkpt>
      <trkpt lat="32.73923895321786403656005859375" lon="-16.84761875309050083160400390625">
        <ele>829.79998779296875</ele>
        <time>2018-06-24T12:51:26.000Z</time>
      </trkpt>
      <trkpt lat="32.73927457630634307861328125" lon="-16.84757776558399200439453125">
        <ele>828.5999755859375</ele>
        <time>2018-06-24T12:51:28.000Z</time>
      </trkpt>
      <trkpt lat="32.73929846473038196563720703125" lon="-16.84754557907581329345703125">
        <ele>827.20001220703125</ele>
        <time>2018-06-24T12:51:30.000Z</time>
      </trkpt>
      <trkpt lat="32.73932277224957942962646484375" lon="-16.8474981375038623809814453125">
        <ele>825.4000244140625</ele>
        <time>2018-06-24T12:51:32.000Z</time>
      </trkpt>
      <trkpt lat="32.73934322409331798553466796875" lon="-16.8474418111145496368408203125">
        <ele>823.5999755859375</ele>
        <time>2018-06-24T12:51:34.000Z</time>
      </trkpt>
      <trkpt lat="32.73934976197779178619384765625" lon="-16.84736452996730804443359375">
        <ele>822.20001220703125</ele>
        <time>2018-06-24T12:51:36.000Z</time>
      </trkpt>
      <trkpt lat="32.73935160599648952484130859375" lon="-16.84728984721004962921142578125">
        <ele>821</ele>
        <time>2018-06-24T12:51:38.000Z</time>
      </trkpt>
      <trkpt lat="32.7393806912004947662353515625" lon="-16.84721122495830059051513671875">
        <ele>819.5999755859375</ele>
        <time>2018-06-24T12:51:40.000Z</time>
      </trkpt>
      <trkpt lat="32.73938731290400028228759765625" lon="-16.8471665494143962860107421875">
        <ele>818.4000244140625</ele>
        <time>2018-06-24T12:51:41.000Z</time>
      </trkpt>
      <trkpt lat="32.7394039928913116455078125" lon="-16.847083233296871185302734375">
        <ele>816.5999755859375</ele>
        <time>2018-06-24T12:51:43.000Z</time>
      </trkpt>
      <trkpt lat="32.73942385800182819366455078125" lon="-16.84699648059904575347900390625">
        <ele>814.5999755859375</ele>
        <time>2018-06-24T12:51:45.000Z</time>
      </trkpt>
      <trkpt lat="32.739459984004497528076171875" lon="-16.84689112007617950439453125">
        <ele>813</ele>
        <time>2018-06-24T12:51:47.000Z</time>
      </trkpt>
      <trkpt lat="32.73949988186359405517578125" lon="-16.84679699130356311798095703125">
        <ele>811.4000244140625</ele>
        <time>2018-06-24T12:51:49.000Z</time>
      </trkpt>
      <trkpt lat="32.73953718133270740509033203125" lon="-16.8467075563967227935791015625">
        <ele>810</ele>
        <time>2018-06-24T12:51:51.000Z</time>
      </trkpt>
      <trkpt lat="32.7395701222121715545654296875" lon="-16.84661778621375560760498046875">
        <ele>808.4000244140625</ele>
        <time>2018-06-24T12:51:53.000Z</time>
      </trkpt>
      <trkpt lat="32.73962250910699367523193359375" lon="-16.8465244956314563751220703125">
        <ele>806.79998779296875</ele>
        <time>2018-06-24T12:51:55.000Z</time>
      </trkpt>
      <trkpt lat="32.7396660111844539642333984375" lon="-16.84643556363880634307861328125">
        <ele>805.20001220703125</ele>
        <time>2018-06-24T12:51:57.000Z</time>
      </trkpt>
      <trkpt lat="32.73969710804522037506103515625" lon="-16.8463585339486598968505859375">
        <ele>803.4000244140625</ele>
        <time>2018-06-24T12:51:59.000Z</time>
      </trkpt>
      <trkpt lat="32.7397042326629161834716796875" lon="-16.8462790735065937042236328125">
        <ele>802</ele>
        <time>2018-06-24T12:52:01.000Z</time>
      </trkpt>
      <trkpt lat="32.73970096372067928314208984375" lon="-16.846202127635478973388671875">
        <ele>800.5999755859375</ele>
        <time>2018-06-24T12:52:03.000Z</time>
      </trkpt>
      <trkpt lat="32.73970146663486957550048828125" lon="-16.84613264165818691253662109375">
        <ele>799.5999755859375</ele>
        <time>2018-06-24T12:52:05.000Z</time>
      </trkpt>
      <trkpt lat="32.739738933742046356201171875" lon="-16.8460175581276416778564453125">
        <ele>798.4000244140625</ele>
        <time>2018-06-24T12:52:09.000Z</time>
      </trkpt>
      <trkpt lat="32.73978109471499919891357421875" lon="-16.84588587842881679534912109375">
        <ele>797.20001220703125</ele>
        <time>2018-06-24T12:52:13.000Z</time>
      </trkpt>
      <trkpt lat="32.73982132785022258758544921875" lon="-16.84579887427389621734619140625">
        <ele>795.79998779296875</ele>
        <time>2018-06-24T12:52:16.000Z</time>
      </trkpt>
      <trkpt lat="32.73984991014003753662109375" lon="-16.84573349542915821075439453125">
        <ele>794.79998779296875</ele>
        <time>2018-06-24T12:52:18.000Z</time>
      </trkpt>
      <trkpt lat="32.73988150991499423980712890625" lon="-16.8456296436488628387451171875">
        <ele>794</ele>
        <time>2018-06-24T12:52:21.000Z</time>
      </trkpt>
      <trkpt lat="32.7399243414402008056640625" lon="-16.84554465115070343017578125">
        <ele>792.5999755859375</ele>
        <time>2018-06-24T12:52:24.000Z</time>
      </trkpt>
      <trkpt lat="32.73995912633836269378662109375" lon="-16.845453120768070220947265625">
        <ele>791</ele>
        <time>2018-06-24T12:52:27.000Z</time>
      </trkpt>
      <trkpt lat="32.7399805001914501190185546875" lon="-16.845385394990444183349609375">
        <ele>789.79998779296875</ele>
        <time>2018-06-24T12:52:29.000Z</time>
      </trkpt>
      <trkpt lat="32.74002316407859325408935546875" lon="-16.8453020788729190826416015625">
        <ele>788.4000244140625</ele>
        <time>2018-06-24T12:52:32.000Z</time>
      </trkpt>
      <trkpt lat="32.74005132727324962615966796875" lon="-16.84525338001549243927001953125">
        <ele>787.20001220703125</ele>
        <time>2018-06-24T12:52:34.000Z</time>
      </trkpt>
      <trkpt lat="32.7400864474475383758544921875" lon="-16.84521130286157131195068359375">
        <ele>785.5999755859375</ele>
        <time>2018-06-24T12:52:36.000Z</time>
      </trkpt>
      <trkpt lat="32.74012626148760318756103515625" lon="-16.8451763503253459930419921875">
        <ele>784.4000244140625</ele>
        <time>2018-06-24T12:52:38.000Z</time>
      </trkpt>
      <trkpt lat="32.74016372859477996826171875" lon="-16.84514441527426242828369140625">
        <ele>783.20001220703125</ele>
        <time>2018-06-24T12:52:40.000Z</time>
      </trkpt>
      <trkpt lat="32.74020253680646419525146484375" lon="-16.84512161649763584136962890625">
        <ele>781.79998779296875</ele>
        <time>2018-06-24T12:52:42.000Z</time>
      </trkpt>
      <trkpt lat="32.740213684737682342529296875" lon="-16.84510921128094196319580078125">
        <ele>781</ele>
        <time>2018-06-24T12:52:43.000Z</time>
      </trkpt>
      <trkpt lat="32.74023019708693027496337890625" lon="-16.845100410282611846923828125">
        <ele>780.4000244140625</ele>
        <time>2018-06-24T12:52:44.000Z</time>
      </trkpt>
      <trkpt lat="32.74028535000979900360107421875" lon="-16.84508037753403186798095703125">
        <ele>779</ele>
        <time>2018-06-24T12:52:46.000Z</time>
      </trkpt>
      <trkpt lat="32.74032625369727611541748046875" lon="-16.84505037032067775726318359375">
        <ele>777.4000244140625</ele>
        <time>2018-06-24T12:52:48.000Z</time>
      </trkpt>
      <trkpt lat="32.74041191674768924713134765625" lon="-16.84499605558812618255615234375">
        <ele>776.20001220703125</ele>
        <time>2018-06-24T12:52:51.000Z</time>
      </trkpt>
      <trkpt lat="32.740552313625812530517578125" lon="-16.844843924045562744140625">
        <ele>775</ele>
        <time>2018-06-24T12:52:57.000Z</time>
      </trkpt>
      <trkpt lat="32.740687765181064605712890625" lon="-16.844795644283294677734375">
        <ele>773.79998779296875</ele>
        <time>2018-06-24T12:53:01.000Z</time>
      </trkpt>
      <trkpt lat="32.740766219794750213623046875" lon="-16.844766139984130859375">
        <ele>772.4000244140625</ele>
        <time>2018-06-24T12:53:04.000Z</time>
      </trkpt>
      <trkpt lat="32.74081223644316196441650390625" lon="-16.84475264512002468109130859375">
        <ele>771.20001220703125</ele>
        <time>2018-06-24T12:53:06.000Z</time>
      </trkpt>
      <trkpt lat="32.74086688645184040069580078125" lon="-16.8447351269423961639404296875">
        <ele>770.20001220703125</ele>
        <time>2018-06-24T12:53:08.000Z</time>
      </trkpt>
      <trkpt lat="32.7409118972718715667724609375" lon="-16.84471274726092815399169921875">
        <ele>768.79998779296875</ele>
        <time>2018-06-24T12:53:10.000Z</time>
      </trkpt>
      <trkpt lat="32.74098607711493968963623046875" lon="-16.84468558989465236663818359375">
        <ele>767.4000244140625</ele>
        <time>2018-06-24T12:53:13.000Z</time>
      </trkpt>
      <trkpt lat="32.7410537190735340118408203125" lon="-16.84465172700583934783935546875">
        <ele>766.4000244140625</ele>
        <time>2018-06-24T12:53:16.000Z</time>
      </trkpt>
      <trkpt lat="32.741104178130626678466796875" lon="-16.8446127511560916900634765625">
        <ele>765.5999755859375</ele>
        <time>2018-06-24T12:53:19.000Z</time>
      </trkpt>
      <trkpt lat="32.7411985583603382110595703125" lon="-16.8444011919200420379638671875">
        <ele>765.20001220703125</ele>
        <time>2018-06-24T12:53:26.000Z</time>
      </trkpt>
      <trkpt lat="32.74129285477101802825927734375" lon="-16.8442144431173801422119140625">
        <ele>764.4000244140625</ele>
        <time>2018-06-24T12:53:32.000Z</time>
      </trkpt>
      <trkpt lat="32.7413346804678440093994140625" lon="-16.84408687055110931396484375">
        <ele>764.20001220703125</ele>
        <time>2018-06-24T12:53:36.000Z</time>
      </trkpt>
      <trkpt lat="32.7414258755743503570556640625" lon="-16.84390272013843059539794921875">
        <ele>763.79998779296875</ele>
        <time>2018-06-24T12:53:42.000Z</time>
      </trkpt>
      <trkpt lat="32.74147608317434787750244140625" lon="-16.843677498400211334228515625">
        <ele>763.5999755859375</ele>
        <time>2018-06-24T12:53:49.000Z</time>
      </trkpt>
      <trkpt lat="32.74147943593561649322509765625" lon="-16.84364036656916141510009765625">
        <ele>763.4000244140625</ele>
        <time>2018-06-24T12:53:50.000Z</time>
      </trkpt>
      <trkpt lat="32.7414934337139129638671875" lon="-16.84356912039220333099365234375">
        <ele>763.20001220703125</ele>
        <time>2018-06-24T12:53:52.000Z</time>
      </trkpt>
      <trkpt lat="32.74157666601240634918212890625" lon="-16.843349598348140716552734375">
        <ele>762.5999755859375</ele>
        <time>2018-06-24T12:53:59.000Z</time>
      </trkpt>
      <trkpt lat="32.741672135889530181884765625" lon="-16.84320886619389057159423828125">
        <ele>762</ele>
        <time>2018-06-24T12:54:04.000Z</time>
      </trkpt>
      <trkpt lat="32.74181856773793697357177734375" lon="-16.8430347740650177001953125">
        <ele>762</ele>
        <time>2018-06-24T12:54:11.000Z</time>
      </trkpt>
      <trkpt lat="32.7419847808778285980224609375" lon="-16.842890270054340362548828125">
        <ele>761.20001220703125</ele>
        <time>2018-06-24T12:54:18.000Z</time>
      </trkpt>
      <trkpt lat="32.74200883693993091583251953125" lon="-16.8428713269531726837158203125">
        <ele>761</ele>
        <time>2018-06-24T12:54:19.000Z</time>
      </trkpt>
      <trkpt lat="32.7421450428664684295654296875" lon="-16.8427000008523464202880859375">
        <ele>760</ele>
        <time>2018-06-24T12:54:26.000Z</time>
      </trkpt>
      <trkpt lat="32.74221972562372684478759765625" lon="-16.84249690733850002288818359375">
        <ele>759.20001220703125</ele>
        <time>2018-06-24T12:54:32.000Z</time>
      </trkpt>
      <trkpt lat="32.7422734536230564117431640625" lon="-16.84229121543467044830322265625">
        <ele>758</ele>
        <time>2018-06-24T12:54:38.000Z</time>
      </trkpt>
      <trkpt lat="32.74228535592555999755859375" lon="-16.842256598174571990966796875">
        <ele>757.5999755859375</ele>
        <time>2018-06-24T12:54:39.000Z</time>
      </trkpt>
      <trkpt lat="32.742329947650432586669921875" lon="-16.84207714162766933441162109375">
        <ele>756.5999755859375</ele>
        <time>2018-06-24T12:54:44.000Z</time>
      </trkpt>
      <trkpt lat="32.74235534481704235076904296875" lon="-16.8419761396944522857666015625">
        <ele>755.5999755859375</ele>
        <time>2018-06-24T12:54:47.000Z</time>
      </trkpt>
      <trkpt lat="32.7424494735896587371826171875" lon="-16.84189014136791229248046875">
        <ele>754.5999755859375</ele>
        <time>2018-06-24T12:54:51.000Z</time>
      </trkpt>
      <trkpt lat="32.742574699223041534423828125" lon="-16.84184496290981769561767578125">
        <ele>753.20001220703125</ele>
        <time>2018-06-24T12:54:55.000Z</time>
      </trkpt>
      <trkpt lat="32.7426972426474094390869140625" lon="-16.84183356352150440216064453125">
        <ele>752.20001220703125</ele>
        <time>2018-06-24T12:54:59.000Z</time>
      </trkpt>
      <trkpt lat="32.742783911526203155517578125" lon="-16.84184186160564422607421875">
        <ele>751</ele>
        <time>2018-06-24T12:55:02.000Z</time>
      </trkpt>
      <trkpt lat="32.74287586100399494171142578125" lon="-16.8418453820049762725830078125">
        <ele>750</ele>
        <time>2018-06-24T12:55:05.000Z</time>
      </trkpt>
      <trkpt lat="32.7430026791989803314208984375" lon="-16.84182769618928432464599609375">
        <ele>749</ele>
        <time>2018-06-24T12:55:09.000Z</time>
      </trkpt>
      <trkpt lat="32.74311843328177928924560546875" lon="-16.8417857028543949127197265625">
        <ele>748</ele>
        <time>2018-06-24T12:55:13.000Z</time>
      </trkpt>
      <trkpt lat="32.7432918548583984375" lon="-16.841663159430027008056640625">
        <ele>747.20001220703125</ele>
        <time>2018-06-24T12:55:20.000Z</time>
      </trkpt>
      <trkpt lat="32.74334021843969821929931640625" lon="-16.84162066318094730377197265625">
        <ele>746.79998779296875</ele>
        <time>2018-06-24T12:55:22.000Z</time>
      </trkpt>
      <trkpt lat="32.7434546314179897308349609375" lon="-16.841468699276447296142578125">
        <ele>745.79998779296875</ele>
        <time>2018-06-24T12:55:28.000Z</time>
      </trkpt>
      <trkpt lat="32.743508107960224151611328125" lon="-16.8413396179676055908203125">
        <ele>744.5999755859375</ele>
        <time>2018-06-24T12:55:32.000Z</time>
      </trkpt>
      <trkpt lat="32.74354021064937114715576171875" lon="-16.8412009812891483306884765625">
        <ele>743.5999755859375</ele>
        <time>2018-06-24T12:55:36.000Z</time>
      </trkpt>
      <trkpt lat="32.743568122386932373046875" lon="-16.841049604117870330810546875">
        <ele>742.20001220703125</ele>
        <time>2018-06-24T12:55:40.000Z</time>
      </trkpt>
      <trkpt lat="32.7435850538313388824462890625" lon="-16.840934939682483673095703125">
        <ele>741.20001220703125</ele>
        <time>2018-06-24T12:55:43.000Z</time>
      </trkpt>
      <trkpt lat="32.74360123090445995330810546875" lon="-16.8407902680337429046630859375">
        <ele>739.79998779296875</ele>
        <time>2018-06-24T12:55:47.000Z</time>
      </trkpt>
      <trkpt lat="32.7436115406453609466552734375" lon="-16.84064685367047786712646484375">
        <ele>738.4000244140625</ele>
        <time>2018-06-24T12:55:51.000Z</time>
      </trkpt>
      <trkpt lat="32.74361799471080303192138671875" lon="-16.84053788892924785614013671875">
        <ele>737.20001220703125</ele>
        <time>2018-06-24T12:55:54.000Z</time>
      </trkpt>
      <trkpt lat="32.7436289750039577484130859375" lon="-16.8403969891369342803955078125">
        <ele>736</ele>
        <time>2018-06-24T12:55:58.000Z</time>
      </trkpt>
      <trkpt lat="32.74365940131247043609619140625" lon="-16.84029263444244861602783203125">
        <ele>734.79998779296875</ele>
        <time>2018-06-24T12:56:01.000Z</time>
      </trkpt>
      <trkpt lat="32.74368546903133392333984375" lon="-16.840155087411403656005859375">
        <ele>733.5999755859375</ele>
        <time>2018-06-24T12:56:05.000Z</time>
      </trkpt>
      <trkpt lat="32.74369611404836177825927734375" lon="-16.84004721231758594512939453125">
        <ele>732.4000244140625</ele>
        <time>2018-06-24T12:56:08.000Z</time>
      </trkpt>
      <trkpt lat="32.74369862861931324005126953125" lon="-16.8399376608431339263916015625">
        <ele>731</ele>
        <time>2018-06-24T12:56:11.000Z</time>
      </trkpt>
      <trkpt lat="32.74370902217924594879150390625" lon="-16.83982894755899906158447265625">
        <ele>729.79998779296875</ele>
        <time>2018-06-24T12:56:14.000Z</time>
      </trkpt>
      <trkpt lat="32.74371497333049774169921875" lon="-16.839718557894229888916015625">
        <ele>728.4000244140625</ele>
        <time>2018-06-24T12:56:17.000Z</time>
      </trkpt>
      <trkpt lat="32.74372360669076442718505859375" lon="-16.83961252681910991668701171875">
        <ele>727.4000244140625</ele>
        <time>2018-06-24T12:56:20.000Z</time>
      </trkpt>
      <trkpt lat="32.7437265403568744659423828125" lon="-16.83954010717570781707763671875">
        <ele>726.20001220703125</ele>
        <time>2018-06-24T12:56:22.000Z</time>
      </trkpt>
      <trkpt lat="32.7437319047749042510986328125" lon="-16.83947087265551090240478515625">
        <ele>725.20001220703125</ele>
        <time>2018-06-24T12:56:24.000Z</time>
      </trkpt>
      <trkpt lat="32.7437746524810791015625" lon="-16.83938336558640003204345703125">
        <ele>724.20001220703125</ele>
        <time>2018-06-24T12:56:27.000Z</time>
      </trkpt>
      <trkpt lat="32.74386651813983917236328125" lon="-16.83935277163982391357421875">
        <ele>722.79998779296875</ele>
        <time>2018-06-24T12:56:30.000Z</time>
      </trkpt>
      <trkpt lat="32.7439610660076141357421875" lon="-16.83932703919708728790283203125">
        <ele>721.79998779296875</ele>
        <time>2018-06-24T12:56:33.000Z</time>
      </trkpt>
      <trkpt lat="32.74408386088907718658447265625" lon="-16.8392287194728851318359375">
        <ele>720.5999755859375</ele>
        <time>2018-06-24T12:56:38.000Z</time>
      </trkpt>
      <trkpt lat="32.74426306597888469696044921875" lon="-16.83912235312163829803466796875">
        <ele>719.5999755859375</ele>
        <time>2018-06-24T12:56:45.000Z</time>
      </trkpt>
      <trkpt lat="32.74428720586001873016357421875" lon="-16.83909972198307514190673828125">
        <ele>719.5999755859375</ele>
        <time>2018-06-24T12:56:46.000Z</time>
      </trkpt>
      <trkpt lat="32.74440069682896137237548828125" lon="-16.83889319188892841339111328125">
        <ele>719.79998779296875</ele>
        <time>2018-06-24T12:56:53.000Z</time>
      </trkpt>
      <trkpt lat="32.74448133073747158050537109375" lon="-16.8386706523597240447998046875">
        <ele>719.5999755859375</ele>
        <time>2018-06-24T12:57:00.000Z</time>
      </trkpt>
      <trkpt lat="32.74454184807837009429931640625" lon="-16.8384607695043087005615234375">
        <ele>720.20001220703125</ele>
        <time>2018-06-24T12:57:07.000Z</time>
      </trkpt>
      <trkpt lat="32.74455391801893711090087890625" lon="-16.83840435929596424102783203125">
        <ele>720.5999755859375</ele>
        <time>2018-06-24T12:57:09.000Z</time>
      </trkpt>
      <trkpt lat="32.74461208842694759368896484375" lon="-16.8381717614829540252685546875">
        <ele>721.4000244140625</ele>
        <time>2018-06-24T12:57:17.000Z</time>
      </trkpt>
      <trkpt lat="32.74470764212310314178466796875" lon="-16.83798023499548435211181640625">
        <ele>721.4000244140625</ele>
        <time>2018-06-24T12:57:24.000Z</time>
      </trkpt>
      <trkpt lat="32.7447638846933841705322265625" lon="-16.83776616118848323822021484375">
        <ele>721.5999755859375</ele>
        <time>2018-06-24T12:57:31.000Z</time>
      </trkpt>
      <trkpt lat="32.7448215521872043609619140625" lon="-16.8375632353127002716064453125">
        <ele>720.79998779296875</ele>
        <time>2018-06-24T12:57:38.000Z</time>
      </trkpt>
      <trkpt lat="32.7449221350252628326416015625" lon="-16.837355531752109527587890625">
        <ele>720.79998779296875</ele>
        <time>2018-06-24T12:57:46.000Z</time>
      </trkpt>
      <trkpt lat="32.7450364641845226287841796875" lon="-16.8371619097888469696044921875">
        <ele>721.4000244140625</ele>
        <time>2018-06-24T12:57:54.000Z</time>
      </trkpt>
      <trkpt lat="32.74509899318218231201171875" lon="-16.83708186261355876922607421875">
        <ele>721.79998779296875</ele>
        <time>2018-06-24T12:57:58.000Z</time>
      </trkpt>
      <trkpt lat="32.74524643085896968841552734375" lon="-16.83695026673376560211181640625">
        <ele>722</ele>
        <time>2018-06-24T12:58:07.000Z</time>
      </trkpt>
      <trkpt lat="32.74544809944927692413330078125" lon="-16.83690517209470272064208984375">
        <ele>720.5999755859375</ele>
        <time>2018-06-24T12:58:13.000Z</time>
      </trkpt>
      <trkpt lat="32.74562814272940158843994140625" lon="-16.836847253143787384033203125">
        <ele>719.5999755859375</ele>
        <time>2018-06-24T12:58:19.000Z</time>
      </trkpt>
      <trkpt lat="32.7456654421985149383544921875" lon="-16.83684549294412136077880859375">
        <ele>719.4000244140625</ele>
        <time>2018-06-24T12:58:20.000Z</time>
      </trkpt>
      <trkpt lat="32.74576946161687374114990234375" lon="-16.83683954179286956787109375">
        <ele>718.20001220703125</ele>
        <time>2018-06-24T12:58:23.000Z</time>
      </trkpt>
      <trkpt lat="32.74587255902588367462158203125" lon="-16.836841218173503875732421875">
        <ele>717.20001220703125</ele>
        <time>2018-06-24T12:58:26.000Z</time>
      </trkpt>
      <trkpt lat="32.74596140719950199127197265625" lon="-16.8368826247751712799072265625">
        <ele>716</ele>
        <time>2018-06-24T12:58:29.000Z</time>
      </trkpt>
      <trkpt lat="32.7460386045277118682861328125" lon="-16.83693484403192996978759765625">
        <ele>714.79998779296875</ele>
        <time>2018-06-24T12:58:32.000Z</time>
      </trkpt>
      <trkpt lat="32.7461056597530841827392578125" lon="-16.83695864863693714141845703125">
        <ele>713.20001220703125</ele>
        <time>2018-06-24T12:58:35.000Z</time>
      </trkpt>
      <trkpt lat="32.7461576275527477264404296875" lon="-16.83695462532341480255126953125">
        <ele>712</ele>
        <time>2018-06-24T12:58:37.000Z</time>
      </trkpt>
      <trkpt lat="32.74617263115942478179931640625" lon="-16.8369366042315959930419921875">
        <ele>711.20001220703125</ele>
        <time>2018-06-24T12:58:38.000Z</time>
      </trkpt>
      <trkpt lat="32.7461837790906429290771484375" lon="-16.83690701611340045928955078125">
        <ele>710.79998779296875</ele>
        <time>2018-06-24T12:58:39.000Z</time>
      </trkpt>
      <trkpt lat="32.74619794450700283050537109375" lon="-16.83683845214545726776123046875">
        <ele>709.20001220703125</ele>
        <time>2018-06-24T12:58:41.000Z</time>
      </trkpt>
      <trkpt lat="32.74620138108730316162109375" lon="-16.83676435612142086029052734375">
        <ele>707.5999755859375</ele>
        <time>2018-06-24T12:58:43.000Z</time>
      </trkpt>
      <trkpt lat="32.746190316975116729736328125" lon="-16.83668841607868671417236328125">
        <ele>706.4000244140625</ele>
        <time>2018-06-24T12:58:45.000Z</time>
      </trkpt>
      <trkpt lat="32.7461846172809600830078125" lon="-16.8366167508065700531005859375">
        <ele>704.5999755859375</ele>
        <time>2018-06-24T12:58:47.000Z</time>
      </trkpt>
      <trkpt lat="32.7461914904415607452392578125" lon="-16.8365450017154216766357421875">
        <ele>703</ele>
        <time>2018-06-24T12:58:49.000Z</time>
      </trkpt>
      <trkpt lat="32.74620414711534976959228515625" lon="-16.83647551573812961578369140625">
        <ele>701.79998779296875</ele>
        <time>2018-06-24T12:58:51.000Z</time>
      </trkpt>
      <trkpt lat="32.746234238147735595703125" lon="-16.8364088796079158782958984375">
        <ele>700.5999755859375</ele>
        <time>2018-06-24T12:58:53.000Z</time>
      </trkpt>
      <trkpt lat="32.74628813378512859344482421875" lon="-16.83634408749639987945556640625">
        <ele>699.4000244140625</ele>
        <time>2018-06-24T12:58:55.000Z</time>
      </trkpt>
      <trkpt lat="32.74633507244288921356201171875" lon="-16.83629195205867290496826171875">
        <ele>698.20001220703125</ele>
        <time>2018-06-24T12:58:57.000Z</time>
      </trkpt>
      <trkpt lat="32.74638284929096698760986328125" lon="-16.83623931370675563812255859375">
        <ele>697</ele>
        <time>2018-06-24T12:58:59.000Z</time>
      </trkpt>
      <trkpt lat="32.7464206516742706298828125" lon="-16.8361832387745380401611328125">
        <ele>695</ele>
        <time>2018-06-24T12:59:01.000Z</time>
      </trkpt>
      <trkpt lat="32.74644303135573863983154296875" lon="-16.83614593930542469024658203125">
        <ele>693.79998779296875</ele>
        <time>2018-06-24T12:59:02.000Z</time>
      </trkpt>
      <trkpt lat="32.74645476602017879486083984375" lon="-16.8360601924359798431396484375">
        <ele>692.4000244140625</ele>
        <time>2018-06-24T12:59:04.000Z</time>
      </trkpt>
      <trkpt lat="32.74645124562084674835205078125" lon="-16.83597855269908905029296875">
        <ele>691</ele>
        <time>2018-06-24T12:59:06.000Z</time>
      </trkpt>
      <trkpt lat="32.74646448902785778045654296875" lon="-16.83590370230376720428466796875">
        <ele>689.5999755859375</ele>
        <time>2018-06-24T12:59:08.000Z</time>
      </trkpt>
      <trkpt lat="32.74647052399814128875732421875" lon="-16.8357906304299831390380859375">
        <ele>688.20001220703125</ele>
        <time>2018-06-24T12:59:11.000Z</time>
      </trkpt>
      <trkpt lat="32.74645577184855937957763671875" lon="-16.83573371730744838714599609375">
        <ele>687</ele>
        <time>2018-06-24T12:59:13.000Z</time>
      </trkpt>
      <trkpt lat="32.7464516647160053253173828125" lon="-16.8356801569461822509765625">
        <ele>685.79998779296875</ele>
        <time>2018-06-24T12:59:15.000Z</time>
      </trkpt>
      <trkpt lat="32.746451161801815032958984375" lon="-16.83560983277857303619384765625">
        <ele>684.4000244140625</ele>
        <time>2018-06-24T12:59:17.000Z</time>
      </trkpt>
      <trkpt lat="32.7464694343507289886474609375" lon="-16.83548930101096630096435546875">
        <ele>682.5999755859375</ele>
        <time>2018-06-24T12:59:20.000Z</time>
      </trkpt>
      <trkpt lat="32.7464590407907962799072265625" lon="-16.8354281969368457794189453125">
        <ele>681.20001220703125</ele>
        <time>2018-06-24T12:59:22.000Z</time>
      </trkpt>
      <trkpt lat="32.74644101969897747039794921875" lon="-16.8353752233088016510009765625">
        <ele>679.79998779296875</ele>
        <time>2018-06-24T12:59:24.000Z</time>
      </trkpt>
      <trkpt lat="32.7464338950812816619873046875" lon="-16.83533691801130771636962890625">
        <ele>678.5999755859375</ele>
        <time>2018-06-24T12:59:26.000Z</time>
      </trkpt>
      <trkpt lat="32.74645057506859302520751953125" lon="-16.83533205650746822357177734375">
        <ele>677.4000244140625</ele>
        <time>2018-06-24T12:59:27.000Z</time>
      </trkpt>
      <trkpt lat="32.74649583734571933746337890625" lon="-16.83533390052616596221923828125">
        <ele>676.20001220703125</ele>
        <time>2018-06-24T12:59:29.000Z</time>
      </trkpt>
      <trkpt lat="32.74652190506458282470703125" lon="-16.83535066433250904083251953125">
        <ele>675.5999755859375</ele>
        <time>2018-06-24T12:59:30.000Z</time>
      </trkpt>
      <trkpt lat="32.7465428598225116729736328125" lon="-16.8353743851184844970703125">
        <ele>674.79998779296875</ele>
        <time>2018-06-24T12:59:31.000Z</time>
      </trkpt>
      <trkpt lat="32.7465740405023097991943359375" lon="-16.8354332260787487030029296875">
        <ele>673.4000244140625</ele>
        <time>2018-06-24T12:59:33.000Z</time>
      </trkpt>
      <trkpt lat="32.7466018684208393096923828125" lon="-16.8355002813041210174560546875">
        <ele>671.79998779296875</ele>
        <time>2018-06-24T12:59:35.000Z</time>
      </trkpt>
      <trkpt lat="32.7466189675033092498779296875" lon="-16.83557546697556972503662109375">
        <ele>670.20001220703125</ele>
        <time>2018-06-24T12:59:37.000Z</time>
      </trkpt>
      <trkpt lat="32.746647298336029052734375" lon="-16.83563799597322940826416015625">
        <ele>668.5999755859375</ele>
        <time>2018-06-24T12:59:39.000Z</time>
      </trkpt>
      <trkpt lat="32.746695578098297119140625" lon="-16.8356970883905887603759765625">
        <ele>666.5999755859375</ele>
        <time>2018-06-24T12:59:41.000Z</time>
      </trkpt>
      <trkpt lat="32.7467359788715839385986328125" lon="-16.83574411086738109588623046875">
        <ele>664.79998779296875</ele>
        <time>2018-06-24T12:59:43.000Z</time>
      </trkpt>
      <trkpt lat="32.74673782289028167724609375" lon="-16.83580362237989902496337890625">
        <ele>663.20001220703125</ele>
        <time>2018-06-24T12:59:45.000Z</time>
      </trkpt>
      <trkpt lat="32.74676254950463771820068359375" lon="-16.8358727730810642242431640625">
        <ele>661.20001220703125</ele>
        <time>2018-06-24T12:59:47.000Z</time>
      </trkpt>
      <trkpt lat="32.74677135050296783447265625" lon="-16.83590722270309925079345703125">
        <ele>660.20001220703125</ele>
        <time>2018-06-24T12:59:48.000Z</time>
      </trkpt>
      <trkpt lat="32.7468130923807621002197265625" lon="-16.8359616212546825408935546875">
        <ele>658.4000244140625</ele>
        <time>2018-06-24T12:59:50.000Z</time>
      </trkpt>
      <trkpt lat="32.746863551437854766845703125" lon="-16.8360181152820587158203125">
        <ele>656.4000244140625</ele>
        <time>2018-06-24T12:59:52.000Z</time>
      </trkpt>
      <trkpt lat="32.7469042874872684478759765625" lon="-16.83606564067304134368896484375">
        <ele>654.5999755859375</ele>
        <time>2018-06-24T12:59:54.000Z</time>
      </trkpt>
      <trkpt lat="32.7469404973089694976806640625" lon="-16.83612951077520847320556640625">
        <ele>652.79998779296875</ele>
        <time>2018-06-24T12:59:56.000Z</time>
      </trkpt>
      <trkpt lat="32.74693488143384456634521484375" lon="-16.8362006731331348419189453125">
        <ele>651</ele>
        <time>2018-06-24T12:59:58.000Z</time>
      </trkpt>
      <trkpt lat="32.7469418384134769439697265625" lon="-16.83627317659556865692138671875">
        <ele>649</ele>
        <time>2018-06-24T13:00:00.000Z</time>
      </trkpt>
      <trkpt lat="32.74696589447557926177978515625" lon="-16.83633604086935520172119140625">
        <ele>647.4000244140625</ele>
        <time>2018-06-24T13:00:02.000Z</time>
      </trkpt>
      <trkpt lat="32.747004367411136627197265625" lon="-16.8363478593528270721435546875">
        <ele>646.4000244140625</ele>
        <time>2018-06-24T13:00:04.000Z</time>
      </trkpt>
      <trkpt lat="32.74703957140445709228515625" lon="-16.83630117215216159820556640625">
        <ele>644.79998779296875</ele>
        <time>2018-06-24T13:00:06.000Z</time>
      </trkpt>
      <trkpt lat="32.74708793498575687408447265625" lon="-16.8362529762089252471923828125">
        <ele>643.20001220703125</ele>
        <time>2018-06-24T13:00:08.000Z</time>
      </trkpt>
      <trkpt lat="32.74713017977774143218994140625" lon="-16.83619639836251735687255859375">
        <ele>641.79998779296875</ele>
        <time>2018-06-24T13:00:10.000Z</time>
      </trkpt>
      <trkpt lat="32.747159935534000396728515625" lon="-16.83613546192646026611328125">
        <ele>640.5999755859375</ele>
        <time>2018-06-24T13:00:12.000Z</time>
      </trkpt>
      <trkpt lat="32.74717242456972599029541015625" lon="-16.8360675685107707977294921875">
        <ele>639.20001220703125</ele>
        <time>2018-06-24T13:00:14.000Z</time>
      </trkpt>
      <trkpt lat="32.7471614442765712738037109375" lon="-16.83600805699825286865234375">
        <ele>637.5999755859375</ele>
        <time>2018-06-24T13:00:16.000Z</time>
      </trkpt>
      <trkpt lat="32.747148536145687103271484375" lon="-16.835949383676052093505859375">
        <ele>636</ele>
        <time>2018-06-24T13:00:18.000Z</time>
      </trkpt>
      <trkpt lat="32.7471252344548702239990234375" lon="-16.835883669555187225341796875">
        <ele>634.5999755859375</ele>
        <time>2018-06-24T13:00:20.000Z</time>
      </trkpt>
      <trkpt lat="32.747119702398777008056640625" lon="-16.83581493794918060302734375">
        <ele>633.20001220703125</ele>
        <time>2018-06-24T13:00:22.000Z</time>
      </trkpt>
      <trkpt lat="32.74710394442081451416015625" lon="-16.83571343310177326202392578125">
        <ele>631.79998779296875</ele>
        <time>2018-06-24T13:00:25.000Z</time>
      </trkpt>
      <trkpt lat="32.74709665216505527496337890625" lon="-16.83564771898090839385986328125">
        <ele>630.5999755859375</ele>
        <time>2018-06-24T13:00:27.000Z</time>
      </trkpt>
      <trkpt lat="32.74709531106054782867431640625" lon="-16.83558963239192962646484375">
        <ele>629.4000244140625</ele>
        <time>2018-06-24T13:00:29.000Z</time>
      </trkpt>
      <trkpt lat="32.74711140431463718414306640625" lon="-16.835542023181915283203125">
        <ele>628</ele>
        <time>2018-06-24T13:00:31.000Z</time>
      </trkpt>
      <trkpt lat="32.7471386454999446868896484375" lon="-16.83548904955387115478515625">
        <ele>626.4000244140625</ele>
        <time>2018-06-24T13:00:33.000Z</time>
      </trkpt>
      <trkpt lat="32.74716789834201335906982421875" lon="-16.8354320526123046875">
        <ele>625</ele>
        <time>2018-06-24T13:00:35.000Z</time>
      </trkpt>
      <trkpt lat="32.7472197823226451873779296875" lon="-16.83537564240396022796630859375">
        <ele>624</ele>
        <time>2018-06-24T13:00:37.000Z</time>
      </trkpt>
      <trkpt lat="32.747264206409454345703125" lon="-16.83533272705972194671630859375">
        <ele>623</ele>
        <time>2018-06-24T13:00:39.000Z</time>
      </trkpt>
      <trkpt lat="32.7472801320254802703857421875" lon="-16.83533038012683391571044921875">
        <ele>621.5999755859375</ele>
        <time>2018-06-24T13:00:41.000Z</time>
      </trkpt>
      <trkpt lat="32.7472891844809055328369140625" lon="-16.8353819288313388824462890625">
        <ele>620</ele>
        <time>2018-06-24T13:00:43.000Z</time>
      </trkpt>
      <trkpt lat="32.74728097021579742431640625" lon="-16.835441105067729949951171875">
        <ele>618.4000244140625</ele>
        <time>2018-06-24T13:00:45.000Z</time>
      </trkpt>
      <trkpt lat="32.7472797967493534088134765625" lon="-16.83550606481730937957763671875">
        <ele>616.79998779296875</ele>
        <time>2018-06-24T13:00:47.000Z</time>
      </trkpt>
      <trkpt lat="32.74727786891162395477294921875" lon="-16.8355582840740680694580078125">
        <ele>615.4000244140625</ele>
        <time>2018-06-24T13:00:49.000Z</time>
      </trkpt>
      <trkpt lat="32.7472868375480175018310546875" lon="-16.83560815639793872833251953125">
        <ele>614</ele>
        <time>2018-06-24T13:00:51.000Z</time>
      </trkpt>
      <trkpt lat="32.74730133824050426483154296875" lon="-16.83565878309309482574462890625">
        <ele>612.5999755859375</ele>
        <time>2018-06-24T13:00:53.000Z</time>
      </trkpt>
      <trkpt lat="32.7473270706832408905029296875" lon="-16.8357068113982677459716796875">
        <ele>611.20001220703125</ele>
        <time>2018-06-24T13:00:55.000Z</time>
      </trkpt>
      <trkpt lat="32.74737484753131866455078125" lon="-16.835753582417964935302734375">
        <ele>609.79998779296875</ele>
        <time>2018-06-24T13:00:57.000Z</time>
      </trkpt>
      <trkpt lat="32.74742044508457183837890625" lon="-16.83580177836120128631591796875">
        <ele>608.20001220703125</ele>
        <time>2018-06-24T13:00:59.000Z</time>
      </trkpt>
      <trkpt lat="32.74747450836002826690673828125" lon="-16.835859529674053192138671875">
        <ele>606.5999755859375</ele>
        <time>2018-06-24T13:01:01.000Z</time>
      </trkpt>
      <trkpt lat="32.74752278812229633331298828125" lon="-16.83591795153915882110595703125">
        <ele>604.79998779296875</ele>
        <time>2018-06-24T13:01:03.000Z</time>
      </trkpt>
      <trkpt lat="32.7475698105990886688232421875" lon="-16.83598366566002368927001953125">
        <ele>603</ele>
        <time>2018-06-24T13:01:05.000Z</time>
      </trkpt>
      <trkpt lat="32.74764147587120532989501953125" lon="-16.8360209651291370391845703125">
        <ele>601.4000244140625</ele>
        <time>2018-06-24T13:01:07.000Z</time>
      </trkpt>
      <trkpt lat="32.7477014064788818359375" lon="-16.83604652993381023406982421875">
        <ele>599.5999755859375</ele>
        <time>2018-06-24T13:01:09.000Z</time>
      </trkpt>
      <trkpt lat="32.74775044061243534088134765625" lon="-16.83607368730008602142333984375">
        <ele>598</ele>
        <time>2018-06-24T13:01:11.000Z</time>
      </trkpt>
      <trkpt lat="32.747782208025455474853515625" lon="-16.83610067702829837799072265625">
        <ele>596.4000244140625</ele>
        <time>2018-06-24T13:01:13.000Z</time>
      </trkpt>
      <trkpt lat="32.74781397543847560882568359375" lon="-16.83611190877854824066162109375">
        <ele>595</ele>
        <time>2018-06-24T13:01:15.000Z</time>
      </trkpt>
      <trkpt lat="32.74786837399005889892578125" lon="-16.83612473309040069580078125">
        <ele>593.5999755859375</ele>
        <time>2018-06-24T13:01:17.000Z</time>
      </trkpt>
      <trkpt lat="32.7478873170912265777587890625" lon="-16.83613353408873081207275390625">
        <ele>592.4000244140625</ele>
        <time>2018-06-24T13:01:18.000Z</time>
      </trkpt>
      <trkpt lat="32.74792243726551532745361328125" lon="-16.83613604865968227386474609375">
        <ele>590.79998779296875</ele>
        <time>2018-06-24T13:01:20.000Z</time>
      </trkpt>
      <trkpt lat="32.74797021411359310150146484375" lon="-16.83614141307771205902099609375">
        <ele>589.4000244140625</ele>
        <time>2018-06-24T13:01:22.000Z</time>
      </trkpt>
      <trkpt lat="32.748030312359333038330078125" lon="-16.8361363001167774200439453125">
        <ele>587.79998779296875</ele>
        <time>2018-06-24T13:01:24.000Z</time>
      </trkpt>
      <trkpt lat="32.7480858005583286285400390625" lon="-16.83613990433514118194580078125">
        <ele>586.4000244140625</ele>
        <time>2018-06-24T13:01:26.000Z</time>
      </trkpt>
      <trkpt lat="32.74813282303512096405029296875" lon="-16.83613588102161884307861328125">
        <ele>585</ele>
        <time>2018-06-24T13:01:28.000Z</time>
      </trkpt>
      <trkpt lat="32.74818797595798969268798828125" lon="-16.83613655157387256622314453125">
        <ele>583.4000244140625</ele>
        <time>2018-06-24T13:01:30.000Z</time>
      </trkpt>
      <trkpt lat="32.74825452826917171478271484375" lon="-16.8361414968967437744140625">
        <ele>582</ele>
        <time>2018-06-24T13:01:32.000Z</time>
      </trkpt>
      <trkpt lat="32.74832057766616344451904296875" lon="-16.83617510832846164703369140625">
        <ele>580.79998779296875</ele>
        <time>2018-06-24T13:01:34.000Z</time>
      </trkpt>
      <trkpt lat="32.74837019853293895721435546875" lon="-16.8362211249768733978271484375">
        <ele>579.4000244140625</ele>
        <time>2018-06-24T13:01:36.000Z</time>
      </trkpt>
      <trkpt lat="32.74841126985847949981689453125" lon="-16.8362690694630146026611328125">
        <ele>578.20001220703125</ele>
        <time>2018-06-24T13:01:38.000Z</time>
      </trkpt>
      <trkpt lat="32.74843968451023101806640625" lon="-16.83631676249206066131591796875">
        <ele>577.20001220703125</ele>
        <time>2018-06-24T13:01:40.000Z</time>
      </trkpt>
      <trkpt lat="32.748468182981014251708984375" lon="-16.8363683111965656280517578125">
        <ele>575.79998779296875</ele>
        <time>2018-06-24T13:01:42.000Z</time>
      </trkpt>
      <trkpt lat="32.74850481189787387847900390625" lon="-16.83641382493078708648681640625">
        <ele>574.20001220703125</ele>
        <time>2018-06-24T13:01:44.000Z</time>
      </trkpt>
      <trkpt lat="32.748539261519908905029296875" lon="-16.83645171113312244415283203125">
        <ele>572.79998779296875</ele>
        <time>2018-06-24T13:01:46.000Z</time>
      </trkpt>
      <trkpt lat="32.748578824102878570556640625" lon="-16.8364967219531536102294921875">
        <ele>571.5999755859375</ele>
        <time>2018-06-24T13:01:48.000Z</time>
      </trkpt>
      <trkpt lat="32.748617045581340789794921875" lon="-16.83653871528804302215576171875">
        <ele>570</ele>
        <time>2018-06-24T13:01:50.000Z</time>
      </trkpt>
      <trkpt lat="32.74865618906915187835693359375" lon="-16.8365786969661712646484375">
        <ele>568.5999755859375</ele>
        <time>2018-06-24T13:01:52.000Z</time>
      </trkpt>
      <trkpt lat="32.74868309497833251953125" lon="-16.83662320487201213836669921875">
        <ele>567.4000244140625</ele>
        <time>2018-06-24T13:01:54.000Z</time>
      </trkpt>
      <trkpt lat="32.74871821515262126922607421875" lon="-16.83665522374212741851806640625">
        <ele>566.20001220703125</ele>
        <time>2018-06-24T13:01:56.000Z</time>
      </trkpt>
      <trkpt lat="32.74874486960470676422119140625" lon="-16.8366821296513080596923828125">
        <ele>564.5999755859375</ele>
        <time>2018-06-24T13:01:58.000Z</time>
      </trkpt>
      <trkpt lat="32.74876263923943042755126953125" lon="-16.83669143356382846832275390625">
        <ele>563.79998779296875</ele>
        <time>2018-06-24T13:01:59.000Z</time>
      </trkpt>
      <trkpt lat="32.7487821690738201141357421875" lon="-16.83670031838119029998779296875">
        <ele>563.5999755859375</ele>
        <time>2018-06-24T13:02:00.000Z</time>
      </trkpt>
      <trkpt lat="32.74884528480470180511474609375" lon="-16.8367262184619903564453125">
        <ele>561.5999755859375</ele>
        <time>2018-06-24T13:02:02.000Z</time>
      </trkpt>
      <trkpt lat="32.74889037944376468658447265625" lon="-16.836740635335445404052734375">
        <ele>560.20001220703125</ele>
        <time>2018-06-24T13:02:04.000Z</time>
      </trkpt>
      <trkpt lat="32.74893899448215961456298828125" lon="-16.83674893341958522796630859375">
        <ele>559.20001220703125</ele>
        <time>2018-06-24T13:02:06.000Z</time>
      </trkpt>
      <trkpt lat="32.74897880852222442626953125" lon="-16.83675706386566162109375">
        <ele>557.5999755859375</ele>
        <time>2018-06-24T13:02:08.000Z</time>
      </trkpt>
      <trkpt lat="32.74903186596930027008056640625" lon="-16.836770139634609222412109375">
        <ele>556</ele>
        <time>2018-06-24T13:02:10.000Z</time>
      </trkpt>
      <trkpt lat="32.7491010166704654693603515625" lon="-16.83678925037384033203125">
        <ele>555</ele>
        <time>2018-06-24T13:02:12.000Z</time>
      </trkpt>
      <trkpt lat="32.7491640485823154449462890625" lon="-16.83680257759988307952880859375">
        <ele>553.4000244140625</ele>
        <time>2018-06-24T13:02:14.000Z</time>
      </trkpt>
      <trkpt lat="32.74922464974224567413330078125" lon="-16.83680391870439052581787109375">
        <ele>552.20001220703125</ele>
        <time>2018-06-24T13:02:16.000Z</time>
      </trkpt>
      <trkpt lat="32.7492847479879856109619140625" lon="-16.836788915097713470458984375">
        <ele>550.5999755859375</ele>
        <time>2018-06-24T13:02:18.000Z</time>
      </trkpt>
      <trkpt lat="32.74933109991252422332763671875" lon="-16.836745999753475189208984375">
        <ele>549.20001220703125</ele>
        <time>2018-06-24T13:02:20.000Z</time>
      </trkpt>
      <trkpt lat="32.74934736080467700958251953125" lon="-16.83668506331741809844970703125">
        <ele>547.4000244140625</ele>
        <time>2018-06-24T13:02:22.000Z</time>
      </trkpt>
      <trkpt lat="32.7493172697722911834716796875" lon="-16.83665287680923938751220703125">
        <ele>546.4000244140625</ele>
        <time>2018-06-24T13:02:24.000Z</time>
      </trkpt>
      <trkpt lat="32.749274186789989471435546875" lon="-16.8366244621574878692626953125">
        <ele>545.20001220703125</ele>
        <time>2018-06-24T13:02:26.000Z</time>
      </trkpt>
      <trkpt lat="32.74922154843807220458984375" lon="-16.8366066925227642059326171875">
        <ele>544</ele>
        <time>2018-06-24T13:02:28.000Z</time>
      </trkpt>
      <trkpt lat="32.74915625341236591339111328125" lon="-16.83656553737819194793701171875">
        <ele>542.79998779296875</ele>
        <time>2018-06-24T13:02:31.000Z</time>
      </trkpt>
      <trkpt lat="32.74911082349717617034912109375" lon="-16.8365211971104145050048828125">
        <ele>541.5999755859375</ele>
        <time>2018-06-24T13:02:34.000Z</time>
      </trkpt>
      <trkpt lat="32.749119959771633148193359375" lon="-16.836482472717761993408203125">
        <ele>540.20001220703125</ele>
        <time>2018-06-24T13:02:36.000Z</time>
      </trkpt>
      <trkpt lat="32.74916664697229862213134765625" lon="-16.83646562509238719940185546875">
        <ele>538.79998779296875</ele>
        <time>2018-06-24T13:02:38.000Z</time>
      </trkpt>
      <trkpt lat="32.7492243982851505279541015625" lon="-16.83645355515182018280029296875">
        <ele>537.4000244140625</ele>
        <time>2018-06-24T13:02:40.000Z</time>
      </trkpt>
      <trkpt lat="32.7492817305028438568115234375" lon="-16.83645221404731273651123046875">
        <ele>536.20001220703125</ele>
        <time>2018-06-24T13:02:42.000Z</time>
      </trkpt>
      <trkpt lat="32.749327830970287322998046875" lon="-16.83644592761993408203125">
        <ele>534.79998779296875</ele>
        <time>2018-06-24T13:02:44.000Z</time>
      </trkpt>
      <trkpt lat="32.7493772841989994049072265625" lon="-16.8364420719444751739501953125">
        <ele>533.4000244140625</ele>
        <time>2018-06-24T13:02:46.000Z</time>
      </trkpt>
      <trkpt lat="32.74941726587712764739990234375" lon="-16.83645657263696193695068359375">
        <ele>532</ele>
        <time>2018-06-24T13:02:48.000Z</time>
      </trkpt>
      <trkpt lat="32.7494275756180286407470703125" lon="-16.83644483797252178192138671875">
        <ele>531.4000244140625</ele>
        <time>2018-06-24T13:02:49.000Z</time>
      </trkpt>
      <trkpt lat="32.74943168275058269500732421875" lon="-16.83642740361392498016357421875">
        <ele>530.79998779296875</ele>
        <time>2018-06-24T13:02:50.000Z</time>
      </trkpt>
      <trkpt lat="32.74942732416093349456787109375" lon="-16.83640577830374240875244140625">
        <ele>530.20001220703125</ele>
        <time>2018-06-24T13:02:51.000Z</time>
      </trkpt>
      <trkpt lat="32.7494161762297153472900390625" lon="-16.83638582937419414520263671875">
        <ele>529.5999755859375</ele>
        <time>2018-06-24T13:02:52.000Z</time>
      </trkpt>
      <trkpt lat="32.7493844926357269287109375" lon="-16.8363488651812076568603515625">
        <ele>528.20001220703125</ele>
        <time>2018-06-24T13:02:54.000Z</time>
      </trkpt>
      <trkpt lat="32.7493387274444103240966796875" lon="-16.83632296510040760040283203125">
        <ele>527</ele>
        <time>2018-06-24T13:02:56.000Z</time>
      </trkpt>
      <trkpt lat="32.74929153732955455780029296875" lon="-16.83630444109439849853515625">
        <ele>525.5999755859375</ele>
        <time>2018-06-24T13:02:58.000Z</time>
      </trkpt>
      <trkpt lat="32.7492441795766353607177734375" lon="-16.83628876693546772003173828125">
        <ele>524.4000244140625</ele>
        <time>2018-06-24T13:03:00.000Z</time>
      </trkpt>
      <trkpt lat="32.7491982467472553253173828125" lon="-16.83627451770007610321044921875">
        <ele>523</ele>
        <time>2018-06-24T13:03:02.000Z</time>
      </trkpt>
      <trkpt lat="32.74915541522204875946044921875" lon="-16.836250126361846923828125">
        <ele>521.5999755859375</ele>
        <time>2018-06-24T13:03:04.000Z</time>
      </trkpt>
      <trkpt lat="32.7490976639091968536376953125" lon="-16.83621031232178211212158203125">
        <ele>520.4000244140625</ele>
        <time>2018-06-24T13:03:07.000Z</time>
      </trkpt>
      <trkpt lat="32.74907679297029972076416015625" lon="-16.8361735157668590545654296875">
        <ele>519.20001220703125</ele>
        <time>2018-06-24T13:03:09.000Z</time>
      </trkpt>
      <trkpt lat="32.74908341467380523681640625" lon="-16.83610855601727962493896484375">
        <ele>517.79998779296875</ele>
        <time>2018-06-24T13:03:11.000Z</time>
      </trkpt>
      <trkpt lat="32.7491016872227191925048828125" lon="-16.83604837395250797271728515625">
        <ele>516.4000244140625</ele>
        <time>2018-06-24T13:03:13.000Z</time>
      </trkpt>
      <trkpt lat="32.749126665294170379638671875" lon="-16.8359931372106075286865234375">
        <ele>514.4000244140625</ele>
        <time>2018-06-24T13:03:15.000Z</time>
      </trkpt>
      <trkpt lat="32.74915290065109729766845703125" lon="-16.83593471534550189971923828125">
        <ele>513.20001220703125</ele>
        <time>2018-06-24T13:03:17.000Z</time>
      </trkpt>
      <trkpt lat="32.7491861768066883087158203125" lon="-16.8358704261481761932373046875">
        <ele>511.600006103515625</ele>
        <time>2018-06-24T13:03:19.000Z</time>
      </trkpt>
      <trkpt lat="32.74918533861637115478515625" lon="-16.83580043725669384002685546875">
        <ele>510.399993896484375</ele>
        <time>2018-06-24T13:03:21.000Z</time>
      </trkpt>
      <trkpt lat="32.7492243982851505279541015625" lon="-16.835740841925144195556640625">
        <ele>509.399993896484375</ele>
        <time>2018-06-24T13:03:23.000Z</time>
      </trkpt>
      <trkpt lat="32.74924971163272857666015625" lon="-16.83568744920194149017333984375">
        <ele>507.79998779296875</ele>
        <time>2018-06-24T13:03:25.000Z</time>
      </trkpt>
      <trkpt lat="32.74929254315793514251708984375" lon="-16.8356260098516941070556640625">
        <ele>506.600006103515625</ele>
        <time>2018-06-24T13:03:28.000Z</time>
      </trkpt>
      <trkpt lat="32.74930964224040508270263671875" lon="-16.83558049611747264862060546875">
        <ele>505.399993896484375</ele>
        <time>2018-06-24T13:03:30.000Z</time>
      </trkpt>
      <trkpt lat="32.74931618012487888336181640625" lon="-16.83550606481730937957763671875">
        <ele>504.20001220703125</ele>
        <time>2018-06-24T13:03:33.000Z</time>
      </trkpt>
      <trkpt lat="32.749335207045078277587890625" lon="-16.8354744650423526763916015625">
        <ele>503.600006103515625</ele>
        <time>2018-06-24T13:03:36.000Z</time>
      </trkpt>
      <trkpt lat="32.7493662200868129730224609375" lon="-16.83548628352582454681396484375">
        <ele>503.399993896484375</ele>
        <time>2018-06-24T13:03:38.000Z</time>
      </trkpt>
      <trkpt lat="32.74938759393990039825439453125" lon="-16.83549315668642520904541015625">
        <ele>503.20001220703125</ele>
        <time>2018-06-24T13:03:39.000Z</time>
      </trkpt>
      <trkpt lat="32.7495127357542514801025390625" lon="-16.8355294503271579742431640625">
        <ele>502</ele>
        <time>2018-06-24T13:03:43.000Z</time>
      </trkpt>
      <trkpt lat="32.749549113214015960693359375" lon="-16.83550924994051456451416015625">
        <ele>501</ele>
        <time>2018-06-24T13:03:45.000Z</time>
      </trkpt>
      <trkpt lat="32.74955908767879009246826171875" lon="-16.835489384829998016357421875">
        <ele>500.399993896484375</ele>
        <time>2018-06-24T13:03:46.000Z</time>
      </trkpt>
      <trkpt lat="32.74957962334156036376953125" lon="-16.83543230406939983367919921875">
        <ele>498.79998779296875</ele>
        <time>2018-06-24T13:03:48.000Z</time>
      </trkpt>
      <trkpt lat="32.749596051871776580810546875" lon="-16.835391484200954437255859375">
        <ele>497.600006103515625</ele>
        <time>2018-06-24T13:03:50.000Z</time>
      </trkpt>
      <trkpt lat="32.74962513707578182220458984375" lon="-16.83535091578960418701171875">
        <ele>496.399993896484375</ele>
        <time>2018-06-24T13:03:52.000Z</time>
      </trkpt>
      <trkpt lat="32.74964558891952037811279296875" lon="-16.83531596325337886810302734375">
        <ele>495.20001220703125</ele>
        <time>2018-06-24T13:03:53.000Z</time>
      </trkpt>
      <trkpt lat="32.749667130410671234130859375" lon="-16.8352494947612285614013671875">
        <ele>493.399993896484375</ele>
        <time>2018-06-24T13:03:55.000Z</time>
      </trkpt>
      <trkpt lat="32.7496897615492343902587890625" lon="-16.835189647972583770751953125">
        <ele>492</ele>
        <time>2018-06-24T13:03:57.000Z</time>
      </trkpt>
      <trkpt lat="32.74971197359263896942138671875" lon="-16.83513290248811244964599609375">
        <ele>490.600006103515625</ele>
        <time>2018-06-24T13:03:59.000Z</time>
      </trkpt>
      <trkpt lat="32.74974365718662738800048828125" lon="-16.83508160524070262908935546875">
        <ele>488.79998779296875</ele>
        <time>2018-06-24T13:04:01.000Z</time>
      </trkpt>
      <trkpt lat="32.74977140128612518310546875" lon="-16.83502796106040477752685546875">
        <ele>487.399993896484375</ele>
        <time>2018-06-24T13:04:03.000Z</time>
      </trkpt>
      <trkpt lat="32.74979914538562297821044921875" lon="-16.8349738977849483489990234375">
        <ele>486.20001220703125</ele>
        <time>2018-06-24T13:04:05.000Z</time>
      </trkpt>
      <trkpt lat="32.74981473572552204132080078125" lon="-16.83490457944571971893310546875">
        <ele>484.600006103515625</ele>
        <time>2018-06-24T13:04:07.000Z</time>
      </trkpt>
      <trkpt lat="32.7498242072761058807373046875" lon="-16.834853030741214752197265625">
        <ele>483.20001220703125</ele>
        <time>2018-06-24T13:04:09.000Z</time>
      </trkpt>
      <trkpt lat="32.74984180927276611328125" lon="-16.83482076041400432586669921875">
        <ele>481.600006103515625</ele>
        <time>2018-06-24T13:04:11.000Z</time>
      </trkpt>
      <trkpt lat="32.74987072683870792388916015625" lon="-16.8347834609448909759521484375">
        <ele>480.20001220703125</ele>
        <time>2018-06-24T13:04:13.000Z</time>
      </trkpt>
      <trkpt lat="32.74990559555590152740478515625" lon="-16.834737360477447509765625">
        <ele>479</ele>
        <time>2018-06-24T13:04:15.000Z</time>
      </trkpt>
      <trkpt lat="32.7499204315245151519775390625" lon="-16.834686063230037689208984375">
        <ele>477.600006103515625</ele>
        <time>2018-06-24T13:04:17.000Z</time>
      </trkpt>
      <trkpt lat="32.74994247592985630035400390625" lon="-16.83464423753321170806884765625">
        <ele>476</ele>
        <time>2018-06-24T13:04:19.000Z</time>
      </trkpt>
      <trkpt lat="32.7499794401228427886962890625" lon="-16.83458841405808925628662109375">
        <ele>474.20001220703125</ele>
        <time>2018-06-24T13:04:21.000Z</time>
      </trkpt>
      <trkpt lat="32.750021182000637054443359375" lon="-16.834533177316188812255859375">
        <ele>472.399993896484375</ele>
        <time>2018-06-24T13:04:23.000Z</time>
      </trkpt>
      <trkpt lat="32.7500471659004688262939453125" lon="-16.834470815956592559814453125">
        <ele>470.79998779296875</ele>
        <time>2018-06-24T13:04:25.000Z</time>
      </trkpt>
      <trkpt lat="32.75006300769746303558349609375" lon="-16.8344089575111865997314453125">
        <ele>469.20001220703125</ele>
        <time>2018-06-24T13:04:27.000Z</time>
      </trkpt>
      <trkpt lat="32.75008815340697765350341796875" lon="-16.834340058267116546630859375">
        <ele>467.79998779296875</ele>
        <time>2018-06-24T13:04:29.000Z</time>
      </trkpt>
      <trkpt lat="32.75011212565004825592041015625" lon="-16.8342634476721286773681640625">
        <ele>466.20001220703125</ele>
        <time>2018-06-24T13:04:31.000Z</time>
      </trkpt>
      <trkpt lat="32.750151939690113067626953125" lon="-16.83418289758265018463134765625">
        <ele>464.600006103515625</ele>
        <time>2018-06-24T13:04:35.000Z</time>
      </trkpt>
      <trkpt lat="32.75019912980496883392333984375" lon="-16.83415221981704235076904296875">
        <ele>463.20001220703125</ele>
        <time>2018-06-24T13:04:37.000Z</time>
      </trkpt>
      <trkpt lat="32.750229723751544952392578125" lon="-16.83412573300302028656005859375">
        <ele>462.20001220703125</ele>
        <time>2018-06-24T13:04:39.000Z</time>
      </trkpt>
      <trkpt lat="32.75024908594787120819091796875" lon="-16.83408114127814769744873046875">
        <ele>461</ele>
        <time>2018-06-24T13:04:41.000Z</time>
      </trkpt>
      <trkpt lat="32.75025554001331329345703125" lon="-16.83405482210218906402587890625">
        <ele>460</ele>
        <time>2018-06-24T13:04:42.000Z</time>
      </trkpt>
      <trkpt lat="32.75026434101164340972900390625" lon="-16.8340280838310718536376953125">
        <ele>459.399993896484375</ele>
        <time>2018-06-24T13:04:43.000Z</time>
      </trkpt>
      <trkpt lat="32.75027574039995670318603515625" lon="-16.8339717574417591094970703125">
        <ele>458</ele>
        <time>2018-06-24T13:04:45.000Z</time>
      </trkpt>
      <trkpt lat="32.75028261356055736541748046875" lon="-16.8339125812053680419921875">
        <ele>456.600006103515625</ele>
        <time>2018-06-24T13:04:47.000Z</time>
      </trkpt>
      <trkpt lat="32.75029334239661693572998046875" lon="-16.83386991731822490692138671875">
        <ele>455.399993896484375</ele>
        <time>2018-06-24T13:04:49.000Z</time>
      </trkpt>
      <trkpt lat="32.75030407123267650604248046875" lon="-16.83385835029184818267822265625">
        <ele>454.79998779296875</ele>
        <time>2018-06-24T13:04:50.000Z</time>
      </trkpt>
      <trkpt lat="32.7503747306764125823974609375" lon="-16.833865642547607421875">
        <ele>454.600006103515625</ele>
        <time>2018-06-24T13:04:54.000Z</time>
      </trkpt>
      <trkpt lat="32.75038705207407474517822265625" lon="-16.83385550044476985931396484375">
        <ele>454.20001220703125</ele>
        <time>2018-06-24T13:04:55.000Z</time>
      </trkpt>
      <trkpt lat="32.7504144608974456787109375" lon="-16.8338175304234027862548828125">
        <ele>453</ele>
        <time>2018-06-24T13:04:57.000Z</time>
      </trkpt>
      <trkpt lat="32.75043684057891368865966796875" lon="-16.83376212604343891143798828125">
        <ele>451.600006103515625</ele>
        <time>2018-06-24T13:04:59.000Z</time>
      </trkpt>
      <trkpt lat="32.75046098046004772186279296875" lon="-16.8336951546370983123779296875">
        <ele>450.20001220703125</ele>
        <time>2018-06-24T13:05:01.000Z</time>
      </trkpt>
      <trkpt lat="32.750455029308795928955078125" lon="-16.833626590669155120849609375">
        <ele>448.600006103515625</ele>
        <time>2018-06-24T13:05:03.000Z</time>
      </trkpt>
      <trkpt lat="32.7504602260887622833251953125" lon="-16.833559535443782806396484375">
        <ele>447.20001220703125</ele>
        <time>2018-06-24T13:05:05.000Z</time>
      </trkpt>
      <trkpt lat="32.7504722960293292999267578125" lon="-16.83349541388452053070068359375">
        <ele>445.600006103515625</ele>
        <time>2018-06-24T13:05:07.000Z</time>
      </trkpt>
      <trkpt lat="32.75046768598258495330810546875" lon="-16.833425424993038177490234375">
        <ele>444</ele>
        <time>2018-06-24T13:05:09.000Z</time>
      </trkpt>
      <trkpt lat="32.75045712478458881378173828125" lon="-16.83335677720606327056884765625">
        <ele>442.600006103515625</ele>
        <time>2018-06-24T13:05:11.000Z</time>
      </trkpt>
      <trkpt lat="32.7504414506256580352783203125" lon="-16.83329039253294467926025390625">
        <ele>441.399993896484375</ele>
        <time>2018-06-24T13:05:13.000Z</time>
      </trkpt>
      <trkpt lat="32.75044773705303668975830078125" lon="-16.83323255740106105804443359375">
        <ele>439.79998779296875</ele>
        <time>2018-06-24T13:05:15.000Z</time>
      </trkpt>
      <trkpt lat="32.750440947711467742919921875" lon="-16.8331751413643360137939453125">
        <ele>438.600006103515625</ele>
        <time>2018-06-24T13:05:17.000Z</time>
      </trkpt>
      <trkpt lat="32.75043969042599201202392578125" lon="-16.83311755768954753875732421875">
        <ele>437.20001220703125</ele>
        <time>2018-06-24T13:05:19.000Z</time>
      </trkpt>
      <trkpt lat="32.75045963935554027557373046875" lon="-16.83306634426116943359375">
        <ele>435.399993896484375</ele>
        <time>2018-06-24T13:05:21.000Z</time>
      </trkpt>
      <trkpt lat="32.750473804771900177001953125" lon="-16.8330453895032405853271484375">
        <ele>434.399993896484375</ele>
        <time>2018-06-24T13:05:22.000Z</time>
      </trkpt>
      <trkpt lat="32.75051898322999477386474609375" lon="-16.83302334509789943695068359375">
        <ele>433</ele>
        <time>2018-06-24T13:05:24.000Z</time>
      </trkpt>
      <trkpt lat="32.7505447156727313995361328125" lon="-16.8330380134284496307373046875">
        <ele>431.600006103515625</ele>
        <time>2018-06-24T13:05:26.000Z</time>
      </trkpt>
      <trkpt lat="32.75055326521396636962890625" lon="-16.83308620937168598175048828125">
        <ele>430.20001220703125</ele>
        <time>2018-06-24T13:05:28.000Z</time>
      </trkpt>
      <trkpt lat="32.75054915808141231536865234375" lon="-16.833143793046474456787109375">
        <ele>429.20001220703125</ele>
        <time>2018-06-24T13:05:30.000Z</time>
      </trkpt>
      <trkpt lat="32.75055192410945892333984375" lon="-16.83321294374763965606689453125">
        <ele>428</ele>
        <time>2018-06-24T13:05:32.000Z</time>
      </trkpt>
      <trkpt lat="32.75053172372281551361083984375" lon="-16.83327245526015758514404296875">
        <ele>427</ele>
        <time>2018-06-24T13:05:34.000Z</time>
      </trkpt>
      <trkpt lat="32.7505497448146343231201171875" lon="-16.83332626707851886749267578125">
        <ele>426</ele>
        <time>2018-06-24T13:05:36.000Z</time>
      </trkpt>
      <trkpt lat="32.7505765669047832489013671875" lon="-16.8333310447633266448974609375">
        <ele>425.399993896484375</ele>
        <time>2018-06-24T13:05:37.000Z</time>
      </trkpt>
      <trkpt lat="32.7505981922149658203125" lon="-16.83328821323812007904052734375">
        <ele>424</ele>
        <time>2018-06-24T13:05:39.000Z</time>
      </trkpt>
      <trkpt lat="32.75061839260160923004150390625" lon="-16.83323523961007595062255859375">
        <ele>422.399993896484375</ele>
        <time>2018-06-24T13:05:41.000Z</time>
      </trkpt>
      <trkpt lat="32.750648818910121917724609375" lon="-16.83318226598203182220458984375">
        <ele>420.79998779296875</ele>
        <time>2018-06-24T13:05:43.000Z</time>
      </trkpt>
      <trkpt lat="32.75067941285669803619384765625" lon="-16.833135075867176055908203125">
        <ele>419.399993896484375</ele>
        <time>2018-06-24T13:05:45.000Z</time>
      </trkpt>
      <trkpt lat="32.75070372037589550018310546875" lon="-16.83308419771492481231689453125">
        <ele>418</ele>
        <time>2018-06-24T13:05:47.000Z</time>
      </trkpt>
      <trkpt lat="32.75073833763599395751953125" lon="-16.83303616940975189208984375">
        <ele>416.600006103515625</ele>
        <time>2018-06-24T13:05:49.000Z</time>
      </trkpt>
      <trkpt lat="32.75077161379158496856689453125" lon="-16.832988895475864410400390625">
        <ele>415</ele>
        <time>2018-06-24T13:05:51.000Z</time>
      </trkpt>
      <trkpt lat="32.75080204010009765625" lon="-16.8329443037509918212890625">
        <ele>413.600006103515625</ele>
        <time>2018-06-24T13:05:53.000Z</time>
      </trkpt>
      <trkpt lat="32.7508236654102802276611328125" lon="-16.8328982032835483551025390625">
        <ele>412.399993896484375</ele>
        <time>2018-06-24T13:05:55.000Z</time>
      </trkpt>
      <trkpt lat="32.7508488111197948455810546875" lon="-16.83285017497837543487548828125">
        <ele>410.79998779296875</ele>
        <time>2018-06-24T13:05:57.000Z</time>
      </trkpt>
      <trkpt lat="32.7508699335157871246337890625" lon="-16.8328034877777099609375">
        <ele>409.600006103515625</ele>
        <time>2018-06-24T13:05:59.000Z</time>
      </trkpt>
      <trkpt lat="32.75090354494750499725341796875" lon="-16.832753531634807586669921875">
        <ele>408.20001220703125</ele>
        <time>2018-06-24T13:06:01.000Z</time>
      </trkpt>
      <trkpt lat="32.7509433589875698089599609375" lon="-16.83270416222512722015380859375">
        <ele>406.399993896484375</ele>
        <time>2018-06-24T13:06:03.000Z</time>
      </trkpt>
      <trkpt lat="32.75098107755184173583984375" lon="-16.832654289901256561279296875">
        <ele>405</ele>
        <time>2018-06-24T13:06:05.000Z</time>
      </trkpt>
      <trkpt lat="32.75101854465901851654052734375" lon="-16.83260626159608364105224609375">
        <ele>403.20001220703125</ele>
        <time>2018-06-24T13:06:07.000Z</time>
      </trkpt>
      <trkpt lat="32.7510509826242923736572265625" lon="-16.83255295269191265106201171875">
        <ele>401.600006103515625</ele>
        <time>2018-06-24T13:06:09.000Z</time>
      </trkpt>
      <trkpt lat="32.75108140893280506134033203125" lon="-16.8324963748455047607421875">
        <ele>400.20001220703125</ele>
        <time>2018-06-24T13:06:11.000Z</time>
      </trkpt>
      <trkpt lat="32.751105129718780517578125" lon="-16.8324422277510166168212890625">
        <ele>399</ele>
        <time>2018-06-24T13:06:13.000Z</time>
      </trkpt>
      <trkpt lat="32.7511361427605152130126953125" lon="-16.8323936127126216888427734375">
        <ele>397.600006103515625</ele>
        <time>2018-06-24T13:06:15.000Z</time>
      </trkpt>
      <trkpt lat="32.751166820526123046875" lon="-16.83235782198607921600341796875">
        <ele>395.79998779296875</ele>
        <time>2018-06-24T13:06:17.000Z</time>
      </trkpt>
      <trkpt lat="32.75121585465967655181884765625" lon="-16.83233317919075489044189453125">
        <ele>394.20001220703125</ele>
        <time>2018-06-24T13:06:19.000Z</time>
      </trkpt>
      <trkpt lat="32.75126648135483264923095703125" lon="-16.832314319908618927001953125">
        <ele>392.600006103515625</ele>
        <time>2018-06-24T13:06:21.000Z</time>
      </trkpt>
      <trkpt lat="32.751300595700740814208984375" lon="-16.83229277841746807098388671875">
        <ele>391.20001220703125</ele>
        <time>2018-06-24T13:06:23.000Z</time>
      </trkpt>
      <trkpt lat="32.7513490431010723114013671875" lon="-16.83227014727890491485595703125">
        <ele>389.79998779296875</ele>
        <time>2018-06-24T13:06:25.000Z</time>
      </trkpt>
      <trkpt lat="32.75140729732811450958251953125" lon="-16.83225371874868869781494140625">
        <ele>388.399993896484375</ele>
        <time>2018-06-24T13:06:27.000Z</time>
      </trkpt>
      <trkpt lat="32.75146127678453922271728515625" lon="-16.83223293162882328033447265625">
        <ele>387</ele>
        <time>2018-06-24T13:06:29.000Z</time>
      </trkpt>
      <trkpt lat="32.751530595123767852783203125" lon="-16.83218180201947689056396484375">
        <ele>385.600006103515625</ele>
        <time>2018-06-24T13:06:32.000Z</time>
      </trkpt>
      <trkpt lat="32.75162271223962306976318359375" lon="-16.8321082927286624908447265625">
        <ele>384.399993896484375</ele>
        <time>2018-06-24T13:06:36.000Z</time>
      </trkpt>
      <trkpt lat="32.75170418433845043182373046875" lon="-16.83206914924085140228271484375">
        <ele>383</ele>
        <time>2018-06-24T13:06:39.000Z</time>
      </trkpt>
      <trkpt lat="32.751761265099048614501953125" lon="-16.83205179870128631591796875">
        <ele>381.600006103515625</ele>
        <time>2018-06-24T13:06:41.000Z</time>
      </trkpt>
      <trkpt lat="32.75177928619086742401123046875" lon="-16.83203411288559436798095703125">
        <ele>381</ele>
        <time>2018-06-24T13:06:42.000Z</time>
      </trkpt>
      <trkpt lat="32.75178976356983184814453125" lon="-16.8320108950138092041015625">
        <ele>380.399993896484375</ele>
        <time>2018-06-24T13:06:43.000Z</time>
      </trkpt>
      <trkpt lat="32.75180451571941375732421875" lon="-16.831995807588100433349609375">
        <ele>380</ele>
        <time>2018-06-24T13:06:44.000Z</time>
      </trkpt>
      <trkpt lat="32.75182329118251800537109375" lon="-16.8319869227707386016845703125">
        <ele>379.399993896484375</ele>
        <time>2018-06-24T13:06:45.000Z</time>
      </trkpt>
      <trkpt lat="32.75186243467032909393310546875" lon="-16.83196404017508029937744140625">
        <ele>378</ele>
        <time>2018-06-24T13:06:47.000Z</time>
      </trkpt>
      <trkpt lat="32.751896716654300689697265625" lon="-16.83193788863718509674072265625">
        <ele>376.399993896484375</ele>
        <time>2018-06-24T13:06:49.000Z</time>
      </trkpt>
      <trkpt lat="32.7519280649721622467041015625" lon="-16.831916682422161102294921875">
        <ele>375</ele>
        <time>2018-06-24T13:06:51.000Z</time>
      </trkpt>
      <trkpt lat="32.7519629336893558502197265625" lon="-16.831895895302295684814453125">
        <ele>373.399993896484375</ele>
        <time>2018-06-24T13:06:53.000Z</time>
      </trkpt>
      <trkpt lat="32.75200241245329380035400390625" lon="-16.8318821489810943603515625">
        <ele>372</ele>
        <time>2018-06-24T13:06:55.000Z</time>
      </trkpt>
      <trkpt lat="32.75204993784427642822265625" lon="-16.83188675902783870697021484375">
        <ele>370.600006103515625</ele>
        <time>2018-06-24T13:06:57.000Z</time>
      </trkpt>
      <trkpt lat="32.75209880433976650238037109375" lon="-16.83188474737107753753662109375">
        <ele>369.399993896484375</ele>
        <time>2018-06-24T13:06:59.000Z</time>
      </trkpt>
      <trkpt lat="32.7521391212940216064453125" lon="-16.8318571709096431732177734375">
        <ele>368.20001220703125</ele>
        <time>2018-06-24T13:07:01.000Z</time>
      </trkpt>
      <trkpt lat="32.75216066278517246246337890625" lon="-16.8318072147667407989501953125">
        <ele>367</ele>
        <time>2018-06-24T13:07:03.000Z</time>
      </trkpt>
      <trkpt lat="32.7521801926195621490478515625" lon="-16.83174879290163516998291015625">
        <ele>365.600006103515625</ele>
        <time>2018-06-24T13:07:05.000Z</time>
      </trkpt>
      <trkpt lat="32.75220961309969425201416015625" lon="-16.83169841766357421875">
        <ele>364.600006103515625</ele>
        <time>2018-06-24T13:07:07.000Z</time>
      </trkpt>
      <trkpt lat="32.75223509408533573150634765625" lon="-16.83163982816040515899658203125">
        <ele>363.600006103515625</ele>
        <time>2018-06-24T13:07:09.000Z</time>
      </trkpt>
      <trkpt lat="32.7522666938602924346923828125" lon="-16.831590794026851654052734375">
        <ele>362.399993896484375</ele>
        <time>2018-06-24T13:07:11.000Z</time>
      </trkpt>
      <trkpt lat="32.7523161470890045166015625" lon="-16.83153287507593631744384765625">
        <ele>361.20001220703125</ele>
        <time>2018-06-24T13:07:14.000Z</time>
      </trkpt>
      <trkpt lat="32.75239150039851665496826171875" lon="-16.8314369022846221923828125">
        <ele>360</ele>
        <time>2018-06-24T13:07:19.000Z</time>
      </trkpt>
      <trkpt lat="32.75241849012672901153564453125" lon="-16.831398345530033111572265625">
        <ele>358.600006103515625</ele>
        <time>2018-06-24T13:07:21.000Z</time>
      </trkpt>
      <trkpt lat="32.75244413875043392181396484375" lon="-16.83136305771768093109130859375">
        <ele>357.20001220703125</ele>
        <time>2018-06-24T13:07:23.000Z</time>
      </trkpt>
      <trkpt lat="32.75247029028832912445068359375" lon="-16.83132584206759929656982421875">
        <ele>355.600006103515625</ele>
        <time>2018-06-24T13:07:25.000Z</time>
      </trkpt>
      <trkpt lat="32.75251287035644054412841796875" lon="-16.8312902189791202545166015625">
        <ele>354</ele>
        <time>2018-06-24T13:07:27.000Z</time>
      </trkpt>
      <trkpt lat="32.75255151093006134033203125" lon="-16.8312580324709415435791015625">
        <ele>352.600006103515625</ele>
        <time>2018-06-24T13:07:29.000Z</time>
      </trkpt>
      <trkpt lat="32.7525932528078556060791015625" lon="-16.83122609741985797882080078125">
        <ele>351.20001220703125</ele>
        <time>2018-06-24T13:07:31.000Z</time>
      </trkpt>
      <trkpt lat="32.7526405267417430877685546875" lon="-16.83119391091167926788330078125">
        <ele>349.79998779296875</ele>
        <time>2018-06-24T13:07:33.000Z</time>
      </trkpt>
      <trkpt lat="32.75268436409533023834228515625" lon="-16.83116507716476917266845703125">
        <ele>348.399993896484375</ele>
        <time>2018-06-24T13:07:35.000Z</time>
      </trkpt>
      <trkpt lat="32.75273029692471027374267578125" lon="-16.831132806837558746337890625">
        <ele>347.399993896484375</ele>
        <time>2018-06-24T13:07:37.000Z</time>
      </trkpt>
      <trkpt lat="32.75277949869632720947265625" lon="-16.831113360822200775146484375">
        <ele>346</ele>
        <time>2018-06-24T13:07:39.000Z</time>
      </trkpt>
      <trkpt lat="32.75282735936343669891357421875" lon="-16.83110120706260204315185546875">
        <ele>344.600006103515625</ele>
        <time>2018-06-24T13:07:41.000Z</time>
      </trkpt>
      <trkpt lat="32.752870358526706695556640625" lon="-16.8310868740081787109375">
        <ele>343.399993896484375</ele>
        <time>2018-06-24T13:07:43.000Z</time>
      </trkpt>
      <trkpt lat="32.75291771627962589263916015625" lon="-16.8310749717056751251220703125">
        <ele>342.20001220703125</ele>
        <time>2018-06-24T13:07:45.000Z</time>
      </trkpt>
      <trkpt lat="32.75295912288129329681396484375" lon="-16.83105141855776309967041015625">
        <ele>340.79998779296875</ele>
        <time>2018-06-24T13:07:47.000Z</time>
      </trkpt>
      <trkpt lat="32.7529932372272014617919921875" lon="-16.83101923204958438873291015625">
        <ele>339.600006103515625</ele>
        <time>2018-06-24T13:07:49.000Z</time>
      </trkpt>
      <trkpt lat="32.7530150301754474639892578125" lon="-16.83097413741052150726318359375">
        <ele>338.20001220703125</ele>
        <time>2018-06-24T13:07:51.000Z</time>
      </trkpt>
      <trkpt lat="32.75303405709564685821533203125" lon="-16.8309297971427440643310546875">
        <ele>337</ele>
        <time>2018-06-24T13:07:53.000Z</time>
      </trkpt>
      <trkpt lat="32.75304394774138927459716796875" lon="-16.830882690846920013427734375">
        <ele>335.79998779296875</ele>
        <time>2018-06-24T13:07:55.000Z</time>
      </trkpt>
      <trkpt lat="32.7530542574822902679443359375" lon="-16.83083164505660533905029296875">
        <ele>334.20001220703125</ele>
        <time>2018-06-24T13:07:57.000Z</time>
      </trkpt>
      <trkpt lat="32.75307227857410907745361328125" lon="-16.830779425799846649169921875">
        <ele>333.20001220703125</ele>
        <time>2018-06-24T13:07:59.000Z</time>
      </trkpt>
      <trkpt lat="32.753104381263256072998046875" lon="-16.83073726482689380645751953125">
        <ele>332</ele>
        <time>2018-06-24T13:08:01.000Z</time>
      </trkpt>
      <trkpt lat="32.75313899852335453033447265625" lon="-16.83070960454642772674560546875">
        <ele>331.20001220703125</ele>
        <time>2018-06-24T13:08:04.000Z</time>
      </trkpt>
      <trkpt lat="32.75312952697277069091796875" lon="-16.8306997977197170257568359375">
        <ele>330.79998779296875</ele>
        <time>2018-06-24T13:08:06.000Z</time>
      </trkpt>
      <trkpt lat="32.75304830633103847503662109375" lon="-16.830687560141086578369140625">
        <ele>329.399993896484375</ele>
        <time>2018-06-24T13:08:11.000Z</time>
      </trkpt>
      <trkpt lat="32.753015197813510894775390625" lon="-16.8306944333016872406005859375">
        <ele>328.20001220703125</ele>
        <time>2018-06-24T13:08:13.000Z</time>
      </trkpt>
      <trkpt lat="32.75298024527728557586669921875" lon="-16.83070725761353969573974609375">
        <ele>327</ele>
        <time>2018-06-24T13:08:15.000Z</time>
      </trkpt>
      <trkpt lat="32.75294445455074310302734375" lon="-16.83072268031537532806396484375">
        <ele>325.600006103515625</ele>
        <time>2018-06-24T13:08:17.000Z</time>
      </trkpt>
      <trkpt lat="32.75287739932537078857421875" lon="-16.8307433836162090301513671875">
        <ele>324.399993896484375</ele>
        <time>2018-06-24T13:08:20.000Z</time>
      </trkpt>
      <trkpt lat="32.7527991123497486114501953125" lon="-16.8307376839220523834228515625">
        <ele>323.399993896484375</ele>
        <time>2018-06-24T13:08:23.000Z</time>
      </trkpt>
      <trkpt lat="32.75266760028898715972900390625" lon="-16.83076140470802783966064453125">
        <ele>322.20001220703125</ele>
        <time>2018-06-24T13:08:28.000Z</time>
      </trkpt>
      <trkpt lat="32.75257305242121219635009765625" lon="-16.8307598121464252471923828125">
        <ele>321.20001220703125</ele>
        <time>2018-06-24T13:08:32.000Z</time>
      </trkpt>
      <trkpt lat="32.7524663507938385009765625" lon="-16.8307252787053585052490234375">
        <ele>320.20001220703125</ele>
        <time>2018-06-24T13:08:37.000Z</time>
      </trkpt>
      <trkpt lat="32.752407006919384002685546875" lon="-16.83069937862455844879150390625">
        <ele>319</ele>
        <time>2018-06-24T13:08:40.000Z</time>
      </trkpt>
      <trkpt lat="32.75238412432372570037841796875" lon="-16.8306800164282321929931640625">
        <ele>317.600006103515625</ele>
        <time>2018-06-24T13:08:43.000Z</time>
      </trkpt>
      <trkpt lat="32.75237440131604671478271484375" lon="-16.83067448437213897705078125">
        <ele>317.399993896484375</ele>
        <time>2018-06-24T13:08:44.000Z</time>
      </trkpt>
      <trkpt lat="32.75221112184226512908935546875" lon="-16.8307631649076938629150390625">
        <ele>317.20001220703125</ele>
        <time>2018-06-24T13:08:56.000Z</time>
      </trkpt>
      <trkpt lat="32.752176336944103240966796875" lon="-16.8308003805577754974365234375">
        <ele>316.600006103515625</ele>
        <time>2018-06-24T13:08:58.000Z</time>
      </trkpt>
      <trkpt lat="32.7520962059497833251953125" lon="-16.83083600364625453948974609375">
        <ele>315.399993896484375</ele>
        <time>2018-06-24T13:09:02.000Z</time>
      </trkpt>
      <trkpt lat="32.75202353484928607940673828125" lon="-16.83084002695977687835693359375">
        <ele>314</ele>
        <time>2018-06-24T13:09:05.000Z</time>
      </trkpt>
      <trkpt lat="32.75196268223226070404052734375" lon="-16.83081320486962795257568359375">
        <ele>312.79998779296875</ele>
        <time>2018-06-24T13:09:08.000Z</time>
      </trkpt>
      <trkpt lat="32.75190149433910846710205078125" lon="-16.8307661823928356170654296875">
        <ele>311.399993896484375</ele>
        <time>2018-06-24T13:09:11.000Z</time>
      </trkpt>
      <trkpt lat="32.75182672776281833648681640625" lon="-16.8307480774819850921630859375">
        <ele>310</ele>
        <time>2018-06-24T13:09:14.000Z</time>
      </trkpt>
      <trkpt lat="32.75177258066833019256591796875" lon="-16.830729134380817413330078125">
        <ele>308.79998779296875</ele>
        <time>2018-06-24T13:09:16.000Z</time>
      </trkpt>
      <trkpt lat="32.75170267559587955474853515625" lon="-16.83071413077414035797119140625">
        <ele>307.20001220703125</ele>
        <time>2018-06-24T13:09:19.000Z</time>
      </trkpt>
      <trkpt lat="32.7516534738242626190185546875" lon="-16.83072502724826335906982421875">
        <ele>305.79998779296875</ele>
        <time>2018-06-24T13:09:21.000Z</time>
      </trkpt>
      <trkpt lat="32.75160779245197772979736328125" lon="-16.8307557888329029083251953125">
        <ele>304.20001220703125</ele>
        <time>2018-06-24T13:09:23.000Z</time>
      </trkpt>
      <trkpt lat="32.75156655348837375640869140625" lon="-16.8308000452816486358642578125">
        <ele>302.600006103515625</ele>
        <time>2018-06-24T13:09:25.000Z</time>
      </trkpt>
      <trkpt lat="32.7515344507992267608642578125" lon="-16.8308469839394092559814453125">
        <ele>301.399993896484375</ele>
        <time>2018-06-24T13:09:27.000Z</time>
      </trkpt>
      <trkpt lat="32.7515007555484771728515625" lon="-16.830899454653263092041015625">
        <ele>300</ele>
        <time>2018-06-24T13:09:29.000Z</time>
      </trkpt>
      <trkpt lat="32.75147250853478908538818359375" lon="-16.8309509195387363433837890625">
        <ele>298.600006103515625</ele>
        <time>2018-06-24T13:09:32.000Z</time>
      </trkpt>
      <trkpt lat="32.7514673955738544464111328125" lon="-16.83097145520150661468505859375">
        <ele>297</ele>
        <time>2018-06-24T13:09:35.000Z</time>
      </trkpt>
      <trkpt lat="32.75147116743028163909912109375" lon="-16.8308644182980060577392578125">
        <ele>297</ele>
        <time>2018-06-24T13:09:41.000Z</time>
      </trkpt>
      <trkpt lat="32.75144317187368869781494140625" lon="-16.83083139359951019287109375">
        <ele>298.20001220703125</ele>
        <time>2018-06-24T13:09:44.000Z</time>
      </trkpt>
      <trkpt lat="32.75143210776150226593017578125" lon="-16.8307919986546039581298828125">
        <ele>299.20001220703125</ele>
        <time>2018-06-24T13:09:47.000Z</time>
      </trkpt>
      <trkpt lat="32.75139279663562774658203125" lon="-16.83072502724826335906982421875">
        <ele>300.399993896484375</ele>
        <time>2018-06-24T13:09:52.000Z</time>
      </trkpt>
      <trkpt lat="32.7513597719371318817138671875" lon="-16.83069300837814807891845703125">
        <ele>301.600006103515625</ele>
        <time>2018-06-24T13:09:55.000Z</time>
      </trkpt>
      <trkpt lat="32.751338146626949310302734375" lon="-16.83065042831003665924072265625">
        <ele>302.79998779296875</ele>
        <time>2018-06-24T13:09:59.000Z</time>
      </trkpt>
      <trkpt lat="32.75133957155048847198486328125" lon="-16.83063735254108905792236328125">
        <ele>303.20001220703125</ele>
        <time>2018-06-24T13:10:00.000Z</time>
      </trkpt>
      <trkpt lat="32.751345522701740264892578125" lon="-16.83059343136847019195556640625">
        <ele>304</ele>
        <time>2018-06-24T13:10:03.000Z</time>
      </trkpt>
      <trkpt lat="32.75137293152511119842529296875" lon="-16.83050558902323246002197265625">
        <ele>305</ele>
        <time>2018-06-24T13:10:10.000Z</time>
      </trkpt>
      <trkpt lat="32.75139975361526012420654296875" lon="-16.83045630343258380889892578125">
        <ele>306</ele>
        <time>2018-06-24T13:10:14.000Z</time>
      </trkpt>
      <trkpt lat="32.751396484673023223876953125" lon="-16.83040416799485683441162109375">
        <ele>307</ele>
        <time>2018-06-24T13:10:17.000Z</time>
      </trkpt>
      <trkpt lat="32.7514955587685108184814453125" lon="-16.83022060431540012359619140625">
        <ele>307.20001220703125</ele>
        <time>2018-06-24T13:10:26.000Z</time>
      </trkpt>
      <trkpt lat="32.751500420272350311279296875" lon="-16.830145083367824554443359375">
        <ele>308.20001220703125</ele>
        <time>2018-06-24T13:10:34.000Z</time>
      </trkpt>
      <trkpt lat="32.75144501589238643646240234375" lon="-16.83015807531774044036865234375">
        <ele>309.399993896484375</ele>
        <time>2018-06-24T13:10:39.000Z</time>
      </trkpt>
      <trkpt lat="32.75142339058220386505126953125" lon="-16.8301610089838504791259765625">
        <ele>310</ele>
        <time>2018-06-24T13:10:41.000Z</time>
      </trkpt>
      <trkpt lat="32.75139003060758113861083984375" lon="-16.8301682174205780029296875">
        <ele>310.399993896484375</ele>
        <time>2018-06-24T13:10:43.000Z</time>
      </trkpt>
      <trkpt lat="32.751375697553157806396484375" lon="-16.8301687203347682952880859375">
        <ele>310.600006103515625</ele>
        <time>2018-06-24T13:10:44.000Z</time>
      </trkpt>
      <trkpt lat="32.7513580955564975738525390625" lon="-16.83016377501189708709716796875">
        <ele>311</ele>
        <time>2018-06-24T13:10:46.000Z</time>
      </trkpt>
      <trkpt lat="32.7513701654970645904541015625" lon="-16.83013896457850933074951171875">
        <ele>312</ele>
        <time>2018-06-24T13:10:49.000Z</time>
      </trkpt>
      <trkpt lat="32.75138835422694683074951171875" lon="-16.83009604923427104949951171875">
        <ele>313.399993896484375</ele>
        <time>2018-06-24T13:10:55.000Z</time>
      </trkpt>
      <trkpt lat="32.75135792791843414306640625" lon="-16.83003536425530910491943359375">
        <ele>314.600006103515625</ele>
        <time>2018-06-24T13:11:05.000Z</time>
      </trkpt>
      <trkpt lat="32.75134175084531307220458984375" lon="-16.83000929653644561767578125">
        <ele>315.600006103515625</ele>
        <time>2018-06-24T13:11:08.000Z</time>
      </trkpt>
      <trkpt lat="32.751336805522441864013671875" lon="-16.8300030939280986785888671875">
        <ele>316.20001220703125</ele>
        <time>2018-06-24T13:11:09.000Z</time>
      </trkpt>
      <trkpt lat="32.75132632814347743988037109375" lon="-16.8299880065023899078369140625">
        <ele>316.79998779296875</ele>
        <time>2018-06-24T13:11:11.000Z</time>
      </trkpt>
      <trkpt lat="32.75130604393780231475830078125" lon="-16.8299321830272674560546875">
        <ele>318</ele>
        <time>2018-06-24T13:11:15.000Z</time>
      </trkpt>
      <trkpt lat="32.751299254596233367919921875" lon="-16.829899661242961883544921875">
        <ele>319</ele>
        <time>2018-06-24T13:11:18.000Z</time>
      </trkpt>
      <trkpt lat="32.75127343833446502685546875" lon="-16.8298505432903766632080078125">
        <ele>320.20001220703125</ele>
        <time>2018-06-24T13:11:22.000Z</time>
      </trkpt>
      <trkpt lat="32.7512873522937297821044921875" lon="-16.829796396195888519287109375">
        <ele>321.399993896484375</ele>
        <time>2018-06-24T13:11:26.000Z</time>
      </trkpt>
      <trkpt lat="32.7512766234576702117919921875" lon="-16.82976379059255123138427734375">
        <ele>322.399993896484375</ele>
        <time>2018-06-24T13:11:30.000Z</time>
      </trkpt>
      <trkpt lat="32.7512638829648494720458984375" lon="-16.8297390639781951904296875">
        <ele>323.600006103515625</ele>
        <time>2018-06-24T13:11:33.000Z</time>
      </trkpt>
      <trkpt lat="32.7512544952332973480224609375" lon="-16.82971157133579254150390625">
        <ele>324.600006103515625</ele>
        <time>2018-06-24T13:11:36.000Z</time>
      </trkpt>
      <trkpt lat="32.75126832537353038787841796875" lon="-16.82969455607235431671142578125">
        <ele>325.600006103515625</ele>
        <time>2018-06-24T13:11:39.000Z</time>
      </trkpt>
      <trkpt lat="32.7512719295918941497802734375" lon="-16.82968617416918277740478515625">
        <ele>326.600006103515625</ele>
        <time>2018-06-24T13:11:42.000Z</time>
      </trkpt>
      <trkpt lat="32.75126673281192779541015625" lon="-16.8296815641224384307861328125">
        <ele>327</ele>
        <time>2018-06-24T13:11:43.000Z</time>
      </trkpt>
      <trkpt lat="32.75123815052211284637451171875" lon="-16.82965532876551151275634765625">
        <ele>328.20001220703125</ele>
        <time>2018-06-24T13:11:47.000Z</time>
      </trkpt>
      <trkpt lat="32.7512340433895587921142578125" lon="-16.82962783612310886383056640625">
        <ele>329.20001220703125</ele>
        <time>2018-06-24T13:11:50.000Z</time>
      </trkpt>
      <trkpt lat="32.75123412720859050750732421875" lon="-16.82961895130574703216552734375">
        <ele>329.600006103515625</ele>
        <time>2018-06-24T13:11:51.000Z</time>
      </trkpt>
      <trkpt lat="32.75124929845333099365234375" lon="-16.8296021036803722381591796875">
        <ele>330.399993896484375</ele>
        <time>2018-06-24T13:11:53.000Z</time>
      </trkpt>
      <trkpt lat="32.75127771310508251190185546875" lon="-16.82958257384598255157470703125">
        <ele>331.399993896484375</ele>
        <time>2018-06-24T13:11:56.000Z</time>
      </trkpt>
      <trkpt lat="32.7512964047491550445556640625" lon="-16.82955843396484851837158203125">
        <ele>332.600006103515625</ele>
        <time>2018-06-24T13:11:59.000Z</time>
      </trkpt>
      <trkpt lat="32.75127343833446502685546875" lon="-16.82954116724431514739990234375">
        <ele>333.399993896484375</ele>
        <time>2018-06-24T13:12:01.000Z</time>
      </trkpt>
      <trkpt lat="32.751218117773532867431640625" lon="-16.8295298516750335693359375">
        <ele>333.79998779296875</ele>
        <time>2018-06-24T13:12:02.000Z</time>
      </trkpt>
      <trkpt lat="32.75120931677520275115966796875" lon="-16.82950411923229694366455078125">
        <ele>334.600006103515625</ele>
        <time>2018-06-24T13:12:05.000Z</time>
      </trkpt>
      <trkpt lat="32.75119959376752376556396484375" lon="-16.82949422858655452728271484375">
        <ele>335</ele>
        <time>2018-06-24T13:12:07.000Z</time>
      </trkpt>
      <trkpt lat="32.75117394514381885528564453125" lon="-16.82949707843363285064697265625">
        <ele>336</ele>
        <time>2018-06-24T13:12:10.000Z</time>
      </trkpt>
      <trkpt lat="32.751165814697742462158203125" lon="-16.8295003473758697509765625">
        <ele>336.20001220703125</ele>
        <time>2018-06-24T13:12:11.000Z</time>
      </trkpt>
      <trkpt lat="32.75111652910709381103515625" lon="-16.82950546033680438995361328125">
        <ele>337.20001220703125</ele>
        <time>2018-06-24T13:12:15.000Z</time>
      </trkpt>
      <trkpt lat="32.75108392350375652313232421875" lon="-16.829514764249324798583984375">
        <ele>338.399993896484375</ele>
        <time>2018-06-24T13:12:19.000Z</time>
      </trkpt>
      <trkpt lat="32.7510610409080982208251953125" lon="-16.82953613810241222381591796875">
        <ele>339.600006103515625</ele>
        <time>2018-06-24T13:12:23.000Z</time>
      </trkpt>
      <trkpt lat="32.7510392479598522186279296875" lon="-16.82954753749072551727294921875">
        <ele>340.79998779296875</ele>
        <time>2018-06-24T13:12:26.000Z</time>
      </trkpt>
      <trkpt lat="32.7510100789368152618408203125" lon="-16.82954770512878894805908203125">
        <ele>341.79998779296875</ele>
        <time>2018-06-24T13:12:30.000Z</time>
      </trkpt>
      <trkpt lat="32.7509708516299724578857421875" lon="-16.8295394070446491241455078125">
        <ele>343</ele>
        <time>2018-06-24T13:12:35.000Z</time>
      </trkpt>
      <trkpt lat="32.75094687938690185546875" lon="-16.8295377306640148162841796875">
        <ele>344</ele>
        <time>2018-06-24T13:12:39.000Z</time>
      </trkpt>
      <trkpt lat="32.75089398957788944244384765625" lon="-16.8295249901711940765380859375">
        <ele>345.399993896484375</ele>
        <time>2018-06-24T13:12:44.000Z</time>
      </trkpt>
      <trkpt lat="32.750885523855686187744140625" lon="-16.82952909730374813079833984375">
        <ele>345.600006103515625</ele>
        <time>2018-06-24T13:12:45.000Z</time>
      </trkpt>
      <trkpt lat="32.75086029432713985443115234375" lon="-16.82954720221459865570068359375">
        <ele>346.399993896484375</ele>
        <time>2018-06-24T13:12:48.000Z</time>
      </trkpt>
      <trkpt lat="32.75083028711378574371337890625" lon="-16.8295652233064174652099609375">
        <ele>347.600006103515625</ele>
        <time>2018-06-24T13:12:52.000Z</time>
      </trkpt>
      <trkpt lat="32.750813774764537811279296875" lon="-16.82958173565566539764404296875">
        <ele>348.79998779296875</ele>
        <time>2018-06-24T13:12:56.000Z</time>
      </trkpt>
      <trkpt lat="32.75076448917388916015625" lon="-16.8295960687100887298583984375">
        <ele>350</ele>
        <time>2018-06-24T13:13:02.000Z</time>
      </trkpt>
      <trkpt lat="32.75063649751245975494384765625" lon="-16.8295915424823760986328125">
        <ele>351</ele>
        <time>2018-06-24T13:13:11.000Z</time>
      </trkpt>
      <trkpt lat="32.7505551092326641082763671875" lon="-16.82952859438955783843994140625">
        <ele>351.399993896484375</ele>
        <time>2018-06-24T13:13:17.000Z</time>
      </trkpt>
      <trkpt lat="32.7505158819258213043212890625" lon="-16.829466484487056732177734375">
        <ele>351.79998779296875</ele>
        <time>2018-06-24T13:13:21.000Z</time>
      </trkpt>
      <trkpt lat="32.75045092217624187469482421875" lon="-16.82939263992011547088623046875">
        <ele>352</ele>
        <time>2018-06-24T13:13:26.000Z</time>
      </trkpt>
      <trkpt lat="32.7504458092153072357177734375" lon="-16.82919499464333057403564453125">
        <ele>352</ele>
        <time>2018-06-24T13:13:35.000Z</time>
      </trkpt>
      <trkpt lat="32.7504439651966094970703125" lon="-16.82919415645301342010498046875">
        <ele>352.20001220703125</ele>
        <time>2018-06-24T13:13:36.000Z</time>
      </trkpt>
      <trkpt lat="32.75042527355253696441650390625" lon="-16.829206645488739013671875">
        <ele>353.20001220703125</ele>
        <time>2018-06-24T13:13:44.000Z</time>
      </trkpt>
      <trkpt lat="32.75040247477591037750244140625" lon="-16.82923019863665103912353515625">
        <ele>354.20001220703125</ele>
        <time>2018-06-24T13:13:48.000Z</time>
      </trkpt>
      <trkpt lat="32.75039459578692913055419921875" lon="-16.82923858053982257843017578125">
        <ele>354.600006103515625</ele>
        <time>2018-06-24T13:13:49.000Z</time>
      </trkpt>
      <trkpt lat="32.750363834202289581298828125" lon="-16.829265318810939788818359375">
        <ele>355.399993896484375</ele>
        <time>2018-06-24T13:13:52.000Z</time>
      </trkpt>
      <trkpt lat="32.75021052919328212738037109375" lon="-16.829398088157176971435546875">
        <ele>356.600006103515625</ele>
        <time>2018-06-24T13:14:00.000Z</time>
      </trkpt>
      <trkpt lat="32.75011874735355377197265625" lon="-16.8294093199074268341064453125">
        <ele>357.600006103515625</ele>
        <time>2018-06-24T13:14:05.000Z</time>
      </trkpt>
      <trkpt lat="32.7499713934957981109619140625" lon="-16.8293214775621891021728515625">
        <ele>358.600006103515625</ele>
        <time>2018-06-24T13:14:13.000Z</time>
      </trkpt>
      <trkpt lat="32.74989721365272998809814453125" lon="-16.82911151088774204254150390625">
        <ele>359.399993896484375</ele>
        <time>2018-06-24T13:14:23.000Z</time>
      </trkpt>
      <trkpt lat="32.74983082897961139678955078125" lon="-16.82890246622264385223388671875">
        <ele>359.600006103515625</ele>
        <time>2018-06-24T13:14:32.000Z</time>
      </trkpt>
      <trkpt lat="32.74981607683002948760986328125" lon="-16.828882433474063873291015625">
        <ele>359.600006103515625</ele>
        <time>2018-06-24T13:14:33.000Z</time>
      </trkpt>
      <trkpt lat="32.7497098781168460845947265625" lon="-16.82883842848241329193115234375">
        <ele>360.79998779296875</ele>
        <time>2018-06-24T13:14:39.000Z</time>
      </trkpt>
      <trkpt lat="32.7495479397475719451904296875" lon="-16.82882132939994335174560546875">
        <ele>362</ele>
        <time>2018-06-24T13:14:46.000Z</time>
      </trkpt>
      <trkpt lat="32.74942874908447265625" lon="-16.82876701466739177703857421875">
        <ele>363</ele>
        <time>2018-06-24T13:14:53.000Z</time>
      </trkpt>
      <trkpt lat="32.74930947460234165191650390625" lon="-16.82872292585670948028564453125">
        <ele>364</ele>
        <time>2018-06-24T13:15:01.000Z</time>
      </trkpt>
      <trkpt lat="32.7491278387606143951416015625" lon="-16.8287035636603832244873046875">
        <ele>365</ele>
        <time>2018-06-24T13:15:09.000Z</time>
      </trkpt>
      <trkpt lat="32.749099843204021453857421875" lon="-16.82869845069944858551025390625">
        <ele>365.20001220703125</ele>
        <time>2018-06-24T13:15:10.000Z</time>
      </trkpt>
      <trkpt lat="32.74899884127080440521240234375" lon="-16.82867146097123622894287109375">
        <ele>366.20001220703125</ele>
        <time>2018-06-24T13:15:14.000Z</time>
      </trkpt>
      <trkpt lat="32.74886640720069408416748046875" lon="-16.82863189838826656341552734375">
        <ele>367.20001220703125</ele>
        <time>2018-06-24T13:15:20.000Z</time>
      </trkpt>
      <trkpt lat="32.74872324429452419281005859375" lon="-16.82846166193485260009765625">
        <ele>367.399993896484375</ele>
        <time>2018-06-24T13:15:27.000Z</time>
      </trkpt>
      <trkpt lat="32.7486611343920230865478515625" lon="-16.8283944390714168548583984375">
        <ele>366.20001220703125</ele>
        <time>2018-06-24T13:15:35.000Z</time>
      </trkpt>
      <trkpt lat="32.74864277802407741546630859375" lon="-16.82837792672216892242431640625">
        <ele>365.79998779296875</ele>
        <time>2018-06-24T13:15:38.000Z</time>
      </trkpt>
      <trkpt lat="32.74881896562874317169189453125" lon="-16.82831154204905033111572265625">
        <ele>365.399993896484375</ele>
        <time>2018-06-24T13:17:19.000Z</time>
      </trkpt>
      <trkpt lat="32.74880957789719104766845703125" lon="-16.82829310186207294464111328125">
        <ele>365.20001220703125</ele>
        <time>2018-06-24T13:17:23.000Z</time>
      </trkpt>
      <trkpt lat="32.74882466532289981842041015625" lon="-16.8282955326139926910400390625">
        <ele>365.20001220703125</ele>
        <time>2018-06-24T13:17:24.000Z</time>
      </trkpt>
      <trkpt lat="32.74883329868316650390625" lon="-16.828299053013324737548828125">
        <ele>364.79998779296875</ele>
        <time>2018-06-24T13:17:25.000Z</time>
      </trkpt>
      <trkpt lat="32.748900353908538818359375" lon="-16.8283327482640743255615234375">
        <ele>364</ele>
        <time>2018-06-24T13:17:31.000Z</time>
      </trkpt>
      <trkpt lat="32.74889700114727020263671875" lon="-16.82834255509078502655029296875">
        <ele>363.79998779296875</ele>
        <time>2018-06-24T13:17:32.000Z</time>
      </trkpt>
      <trkpt lat="32.748905383050441741943359375" lon="-16.82836334221065044403076171875">
        <ele>363.20001220703125</ele>
        <time>2018-06-24T13:17:34.000Z</time>
      </trkpt>
      <trkpt lat="32.74892516434192657470703125" lon="-16.82836518622934818267822265625">
        <ele>362.79998779296875</ele>
        <time>2018-06-24T13:17:35.000Z</time>
      </trkpt>
      <trkpt lat="32.7490532398223876953125" lon="-16.82835009880363941192626953125">
        <ele>361.79998779296875</ele>
        <time>2018-06-24T13:17:39.000Z</time>
      </trkpt>
      <trkpt lat="32.74926002137362957000732421875" lon="-16.8282851390540599822998046875">
        <ele>360.79998779296875</ele>
        <time>2018-06-24T13:17:46.000Z</time>
      </trkpt>
      <trkpt lat="32.74929204024374485015869140625" lon="-16.82827214710414409637451171875">
        <ele>360.600006103515625</ele>
        <time>2018-06-24T13:17:47.000Z</time>
      </trkpt>
      <trkpt lat="32.7494212053716182708740234375" lon="-16.828134097158908843994140625">
        <ele>359.600006103515625</ele>
        <time>2018-06-24T13:17:52.000Z</time>
      </trkpt>
      <trkpt lat="32.7494703233242034912109375" lon="-16.82803091593086719512939453125">
        <ele>358.399993896484375</ele>
        <time>2018-06-24T13:17:56.000Z</time>
      </trkpt>
      <trkpt lat="32.74950510822236537933349609375" lon="-16.82798380963504314422607421875">
        <ele>357</ele>
        <time>2018-06-24T13:17:59.000Z</time>
      </trkpt>
      <trkpt lat="32.74957098998129367828369140625" lon="-16.82788230478763580322265625">
        <ele>355.600006103515625</ele>
        <time>2018-06-24T13:18:04.000Z</time>
      </trkpt>
      <trkpt lat="32.74969470687210559844970703125" lon="-16.82778599672019481658935546875">
        <ele>354.600006103515625</ele>
        <time>2018-06-24T13:18:11.000Z</time>
      </trkpt>
      <trkpt lat="32.7497605048120021820068359375" lon="-16.82770192623138427734375">
        <ele>354</ele>
        <time>2018-06-24T13:18:18.000Z</time>
      </trkpt>
      <trkpt lat="32.7497511170804500579833984375" lon="-16.82768759317696094512939453125">
        <ele>353.399993896484375</ele>
        <time>2018-06-24T13:18:23.000Z</time>
      </trkpt>
      <trkpt lat="32.74976142682135105133056640625" lon="-16.82770335115492343902587890625">
        <ele>352</ele>
        <time>2018-06-24T13:18:26.000Z</time>
      </trkpt>
      <trkpt lat="32.74978271685540676116943359375" lon="-16.82771642692387104034423828125">
        <ele>350.600006103515625</ele>
        <time>2018-06-24T13:18:28.000Z</time>
      </trkpt>
      <trkpt lat="32.74979646317660808563232421875" lon="-16.82771743275225162506103515625">
        <ele>350</ele>
        <time>2018-06-24T13:18:29.000Z</time>
      </trkpt>
      <trkpt lat="32.7498071081936359405517578125" lon="-16.82771625928580760955810546875">
        <ele>349.399993896484375</ele>
        <time>2018-06-24T13:18:30.000Z</time>
      </trkpt>
      <trkpt lat="32.7498480118811130523681640625" lon="-16.827699579298496246337890625">
        <ele>348.20001220703125</ele>
        <time>2018-06-24T13:18:33.000Z</time>
      </trkpt>
      <trkpt lat="32.749862931668758392333984375" lon="-16.8276819773018360137939453125">
        <ele>347.20001220703125</ele>
        <time>2018-06-24T13:18:35.000Z</time>
      </trkpt>
      <trkpt lat="32.7498852275311946868896484375" lon="-16.8276752717792987823486328125">
        <ele>346</ele>
        <time>2018-06-24T13:18:37.000Z</time>
      </trkpt>
      <trkpt lat="32.7499167434871196746826171875" lon="-16.827672421932220458984375">
        <ele>344.79998779296875</ele>
        <time>2018-06-24T13:18:39.000Z</time>
      </trkpt>
      <trkpt lat="32.7499553002417087554931640625" lon="-16.8276692368090152740478515625">
        <ele>343.399993896484375</ele>
        <time>2018-06-24T13:18:41.000Z</time>
      </trkpt>
      <trkpt lat="32.74998203851282596588134765625" lon="-16.82767183519899845123291015625">
        <ele>342.20001220703125</ele>
        <time>2018-06-24T13:18:43.000Z</time>
      </trkpt>
      <trkpt lat="32.7500040829181671142578125" lon="-16.82766730897128582000732421875">
        <ele>340.399993896484375</ele>
        <time>2018-06-24T13:18:46.000Z</time>
      </trkpt>
      <trkpt lat="32.750009782612323760986328125" lon="-16.8276440910995006561279296875">
        <ele>339.399993896484375</ele>
        <time>2018-06-24T13:18:48.000Z</time>
      </trkpt>
      <trkpt lat="32.74999964050948619842529296875" lon="-16.82762808166444301605224609375">
        <ele>339</ele>
        <time>2018-06-24T13:18:49.000Z</time>
      </trkpt>
      <trkpt lat="32.74998354725539684295654296875" lon="-16.82758784852921962738037109375">
        <ele>338</ele>
        <time>2018-06-24T13:18:51.000Z</time>
      </trkpt>
      <trkpt lat="32.7499603293836116790771484375" lon="-16.82754434645175933837890625">
        <ele>336.399993896484375</ele>
        <time>2018-06-24T13:18:54.000Z</time>
      </trkpt>
      <trkpt lat="32.749944068491458892822265625" lon="-16.82751224376261234283447265625">
        <ele>335.20001220703125</ele>
        <time>2018-06-24T13:18:56.000Z</time>
      </trkpt>
      <trkpt lat="32.74992286227643489837646484375" lon="-16.827491708099842071533203125">
        <ele>333.79998779296875</ele>
        <time>2018-06-24T13:18:58.000Z</time>
      </trkpt>
      <trkpt lat="32.749902494251728057861328125" lon="-16.8274774588644504547119140625">
        <ele>332.600006103515625</ele>
        <time>2018-06-24T13:19:00.000Z</time>
      </trkpt>
      <trkpt lat="32.7498895861208438873291015625" lon="-16.82746564038097858428955078125">
        <ele>331.399993896484375</ele>
        <time>2018-06-24T13:19:02.000Z</time>
      </trkpt>
      <trkpt lat="32.74991095997393131256103515625" lon="-16.82746731676161289215087890625">
        <ele>330.399993896484375</ele>
        <time>2018-06-24T13:19:04.000Z</time>
      </trkpt>
      <trkpt lat="32.74992520920932292938232421875" lon="-16.827472262084484100341796875">
        <ele>329.79998779296875</ele>
        <time>2018-06-24T13:19:05.000Z</time>
      </trkpt>
      <trkpt lat="32.749962508678436279296875" lon="-16.82748005725443363189697265625">
        <ele>328.600006103515625</ele>
        <time>2018-06-24T13:19:07.000Z</time>
      </trkpt>
      <trkpt lat="32.7499988861382007598876953125" lon="-16.827472262084484100341796875">
        <ele>328</ele>
        <time>2018-06-24T13:19:09.000Z</time>
      </trkpt>
      <trkpt lat="32.75002160109579563140869140625" lon="-16.8274563364684581756591796875">
        <ele>327.600006103515625</ele>
        <time>2018-06-24T13:19:10.000Z</time>
      </trkpt>
      <trkpt lat="32.75007004849612712860107421875" lon="-16.82738433592021465301513671875">
        <ele>326.399993896484375</ele>
        <time>2018-06-24T13:19:14.000Z</time>
      </trkpt>
      <trkpt lat="32.7501078508794307708740234375" lon="-16.8273537419736385345458984375">
        <ele>326</ele>
        <time>2018-06-24T13:19:16.000Z</time>
      </trkpt>
      <trkpt lat="32.75022813118994235992431640625" lon="-16.82738752104341983795166015625">
        <ele>325.399993896484375</ele>
        <time>2018-06-24T13:19:21.000Z</time>
      </trkpt>
      <trkpt lat="32.75029501877725124359130859375" lon="-16.82741316966712474822998046875">
        <ele>324</ele>
        <time>2018-06-24T13:19:24.000Z</time>
      </trkpt>
      <trkpt lat="32.7503822743892669677734375" lon="-16.82746664620935916900634765625">
        <ele>322.79998779296875</ele>
        <time>2018-06-24T13:19:27.000Z</time>
      </trkpt>
      <trkpt lat="32.75046969763934612274169921875" lon="-16.8275482021272182464599609375">
        <ele>321.79998779296875</ele>
        <time>2018-06-24T13:19:33.000Z</time>
      </trkpt>
      <trkpt lat="32.75051797740161418914794921875" lon="-16.8275720067322254180908203125">
        <ele>321.20001220703125</ele>
        <time>2018-06-24T13:19:37.000Z</time>
      </trkpt>
      <trkpt lat="32.75054144673049449920654296875" lon="-16.82754476554691791534423828125">
        <ele>321.20001220703125</ele>
        <time>2018-06-24T13:19:39.000Z</time>
      </trkpt>
      <trkpt lat="32.7505832724273204803466796875" lon="-16.8273503892123699188232421875">
        <ele>320.79998779296875</ele>
        <time>2018-06-24T13:19:48.000Z</time>
      </trkpt>
      <trkpt lat="32.75061763823032379150390625" lon="-16.82732365094125270843505859375">
        <ele>320.600006103515625</ele>
        <time>2018-06-24T13:19:50.000Z</time>
      </trkpt>
      <trkpt lat="32.750687710940837860107421875" lon="-16.82729129679501056671142578125">
        <ele>319.600006103515625</ele>
        <time>2018-06-24T13:19:54.000Z</time>
      </trkpt>
      <trkpt lat="32.750817798078060150146484375" lon="-16.82731929235160350799560546875">
        <ele>318.399993896484375</ele>
        <time>2018-06-24T13:20:02.000Z</time>
      </trkpt>
      <trkpt lat="32.75088560767471790313720703125" lon="-16.8273339606821537017822265625">
        <ele>317.399993896484375</ele>
        <time>2018-06-24T13:20:06.000Z</time>
      </trkpt>
      <trkpt lat="32.7510325424373149871826171875" lon="-16.82749330066144466400146484375">
        <ele>316.20001220703125</ele>
        <time>2018-06-24T13:20:15.000Z</time>
      </trkpt>
      <trkpt lat="32.75118383578956127166748046875" lon="-16.8274657242000102996826171875">
        <ele>315.20001220703125</ele>
        <time>2018-06-24T13:20:23.000Z</time>
      </trkpt>
      <trkpt lat="32.75135918520390987396240234375" lon="-16.82748659513890743255615234375">
        <ele>314.600006103515625</ele>
        <time>2018-06-24T13:20:32.000Z</time>
      </trkpt>
      <trkpt lat="32.7513849176466464996337890625" lon="-16.82751039974391460418701171875">
        <ele>314.600006103515625</ele>
        <time>2018-06-24T13:20:34.000Z</time>
      </trkpt>
      <trkpt lat="32.751404531300067901611328125" lon="-16.8275589309632778167724609375">
        <ele>313.79998779296875</ele>
        <time>2018-06-24T13:20:37.000Z</time>
      </trkpt>
      <trkpt lat="32.75145373307168483734130859375" lon="-16.827576197683811187744140625">
        <ele>312.79998779296875</ele>
        <time>2018-06-24T13:20:40.000Z</time>
      </trkpt>
      <trkpt lat="32.7515785396099090576171875" lon="-16.82767468504607677459716796875">
        <ele>314</ele>
        <time>2018-06-24T13:20:50.000Z</time>
      </trkpt>
      <trkpt lat="32.75161676108837127685546875" lon="-16.82767753489315509796142578125">
        <ele>313.600006103515625</ele>
        <time>2018-06-24T13:20:52.000Z</time>
      </trkpt>
      <trkpt lat="32.751717679202556610107421875" lon="-16.82749933563172817230224609375">
        <ele>313.79998779296875</ele>
        <time>2018-06-24T13:21:00.000Z</time>
      </trkpt>
      <trkpt lat="32.7516662143170833587646484375" lon="-16.82727076113224029541015625">
        <ele>313.399993896484375</ele>
        <time>2018-06-24T13:21:08.000Z</time>
      </trkpt>
      <trkpt lat="32.75160192511975765228271484375" lon="-16.827106811106204986572265625">
        <ele>313</ele>
        <time>2018-06-24T13:21:14.000Z</time>
      </trkpt>
      <trkpt lat="32.7517252229154109954833984375" lon="-16.8269463814795017242431640625">
        <ele>312.399993896484375</ele>
        <time>2018-06-24T13:21:21.000Z</time>
      </trkpt>
      <trkpt lat="32.7517993189394474029541015625" lon="-16.82689248584210872650146484375">
        <ele>312</ele>
        <time>2018-06-24T13:21:24.000Z</time>
      </trkpt>
      <trkpt lat="32.75190417654812335968017578125" lon="-16.8267698585987091064453125">
        <ele>310.600006103515625</ele>
        <time>2018-06-24T13:21:29.000Z</time>
      </trkpt>
      <trkpt lat="32.75201498530805110931396484375" lon="-16.82660381309688091278076171875">
        <ele>309.79998779296875</ele>
        <time>2018-06-24T13:21:36.000Z</time>
      </trkpt>
      <trkpt lat="32.752020098268985748291015625" lon="-16.82657564990222454071044921875">
        <ele>309.600006103515625</ele>
        <time>2018-06-24T13:21:37.000Z</time>
      </trkpt>
      <trkpt lat="32.75212495587766170501708984375" lon="-16.82638588361442089080810546875">
        <ele>309</ele>
        <time>2018-06-24T13:21:45.000Z</time>
      </trkpt>
      <trkpt lat="32.75216929614543914794921875" lon="-16.82636559940874576568603515625">
        <ele>308.600006103515625</ele>
        <time>2018-06-24T13:21:47.000Z</time>
      </trkpt>
      <trkpt lat="32.75222134776413440704345703125" lon="-16.826361827552318572998046875">
        <ele>308.600006103515625</ele>
        <time>2018-06-24T13:21:49.000Z</time>
      </trkpt>
      <trkpt lat="32.7524105273187160491943359375" lon="-16.8263898231089115142822265625">
        <ele>308</ele>
        <time>2018-06-24T13:21:58.000Z</time>
      </trkpt>
      <trkpt lat="32.75260389782488346099853515625" lon="-16.8263348378241062164306640625">
        <ele>308</ele>
        <time>2018-06-24T13:22:06.000Z</time>
      </trkpt>
      <trkpt lat="32.7526388503611087799072265625" lon="-16.82632670737802982330322265625">
        <ele>308.600006103515625</ele>
        <time>2018-06-24T13:22:09.000Z</time>
      </trkpt>
      <trkpt lat="32.7526294626295566558837890625" lon="-16.82630659081041812896728515625">
        <ele>309.399993896484375</ele>
        <time>2018-06-24T13:22:11.000Z</time>
      </trkpt>
      <trkpt lat="32.75261999107897281646728515625" lon="-16.826298125088214874267578125">
        <ele>309.600006103515625</ele>
        <time>2018-06-24T13:22:12.000Z</time>
      </trkpt>
      <trkpt lat="32.7525456435978412628173828125" lon="-16.82624992914497852325439453125">
        <ele>310.79998779296875</ele>
        <time>2018-06-24T13:22:17.000Z</time>
      </trkpt>
      <trkpt lat="32.752494513988494873046875" lon="-16.8262200057506561279296875">
        <ele>312</ele>
        <time>2018-06-24T13:22:21.000Z</time>
      </trkpt>
      <trkpt lat="32.75243089534342288970947265625" lon="-16.82618890888988971710205078125">
        <ele>313.20001220703125</ele>
        <time>2018-06-24T13:22:26.000Z</time>
      </trkpt>
      <trkpt lat="32.752375490963459014892578125" lon="-16.82618555612862110137939453125">
        <ele>314.20001220703125</ele>
        <time>2018-06-24T13:22:30.000Z</time>
      </trkpt>
      <trkpt lat="32.75236803106963634490966796875" lon="-16.82618714869022369384765625">
        <ele>314.399993896484375</ele>
        <time>2018-06-24T13:22:31.000Z</time>
      </trkpt>
      <trkpt lat="32.75233567692339420318603515625" lon="-16.8261953629553318023681640625">
        <ele>315.20001220703125</ele>
        <time>2018-06-24T13:22:34.000Z</time>
      </trkpt>
      <trkpt lat="32.75229712016880512237548828125" lon="-16.82620215229690074920654296875">
        <ele>316.399993896484375</ele>
        <time>2018-06-24T13:22:38.000Z</time>
      </trkpt>
      <trkpt lat="32.75228270329535007476806640625" lon="-16.82620399631559848785400390625">
        <ele>317</ele>
        <time>2018-06-24T13:22:40.000Z</time>
      </trkpt>
      <trkpt lat="32.7522678673267364501953125" lon="-16.82620131410658359527587890625">
        <ele>317.399993896484375</ele>
        <time>2018-06-24T13:22:42.000Z</time>
      </trkpt>
      <trkpt lat="32.75224666111171245574951171875" lon="-16.82618312537670135498046875">
        <ele>318.600006103515625</ele>
        <time>2018-06-24T13:22:46.000Z</time>
      </trkpt>
      <trkpt lat="32.7522231079638004302978515625" lon="-16.8261477537453174591064453125">
        <ele>319.79998779296875</ele>
        <time>2018-06-24T13:22:50.000Z</time>
      </trkpt>
      <trkpt lat="32.75221087038516998291015625" lon="-16.82613040320575237274169921875">
        <ele>320.399993896484375</ele>
        <time>2018-06-24T13:22:52.000Z</time>
      </trkpt>
      <trkpt lat="32.75219502858817577362060546875" lon="-16.82611447758972644805908203125">
        <ele>321.20001220703125</ele>
        <time>2018-06-24T13:22:54.000Z</time>
      </trkpt>
      <trkpt lat="32.75216954760253429412841796875" lon="-16.82609218172729015350341796875">
        <ele>322.399993896484375</ele>
        <time>2018-06-24T13:22:58.000Z</time>
      </trkpt>
      <trkpt lat="32.75215278379619121551513671875" lon="-16.8260706402361392974853515625">
        <ele>323.600006103515625</ele>
        <time>2018-06-24T13:23:02.000Z</time>
      </trkpt>
      <trkpt lat="32.75213350541889667510986328125" lon="-16.82604339905083179473876953125">
        <ele>324.79998779296875</ele>
        <time>2018-06-24T13:23:06.000Z</time>
      </trkpt>
      <trkpt lat="32.7521164901554584503173828125" lon="-16.8260188400745391845703125">
        <ele>326</ele>
        <time>2018-06-24T13:23:10.000Z</time>
      </trkpt>
      <trkpt lat="32.75209612213075160980224609375" lon="-16.82599243707954883575439453125">
        <ele>327.20001220703125</ele>
        <time>2018-06-24T13:23:14.000Z</time>
      </trkpt>
      <trkpt lat="32.75207583792507648468017578125" lon="-16.82595907710492610931396484375">
        <ele>328.399993896484375</ele>
        <time>2018-06-24T13:23:18.000Z</time>
      </trkpt>
      <trkpt lat="32.75206460617482662200927734375" lon="-16.825939379632472991943359375">
        <ele>329</ele>
        <time>2018-06-24T13:23:20.000Z</time>
      </trkpt>
      <trkpt lat="32.75205739773809909820556640625" lon="-16.8259274773299694061279296875">
        <ele>329.600006103515625</ele>
        <time>2018-06-24T13:23:22.000Z</time>
      </trkpt>
      <trkpt lat="32.75205991230905055999755859375" lon="-16.82590794749557971954345703125">
        <ele>330.20001220703125</ele>
        <time>2018-06-24T13:23:24.000Z</time>
      </trkpt>
      <trkpt lat="32.75206091813743114471435546875" lon="-16.82588799856603145599365234375">
        <ele>330.600006103515625</ele>
        <time>2018-06-24T13:23:26.000Z</time>
      </trkpt>
      <trkpt lat="32.7520645223557949066162109375" lon="-16.82584583759307861328125">
        <ele>332</ele>
        <time>2018-06-24T13:23:30.000Z</time>
      </trkpt>
      <trkpt lat="32.75205773301422595977783203125" lon="-16.8258201889693737030029296875">
        <ele>332.79998779296875</ele>
        <time>2018-06-24T13:23:33.000Z</time>
      </trkpt>
      <trkpt lat="32.75205069221556186676025390625" lon="-16.8258118070662021636962890625">
        <ele>333.20001220703125</ele>
        <time>2018-06-24T13:23:35.000Z</time>
      </trkpt>
      <trkpt lat="32.75204448960721492767333984375" lon="-16.82578825391829013824462890625">
        <ele>334.399993896484375</ele>
        <time>2018-06-24T13:23:38.000Z</time>
      </trkpt>
      <trkpt lat="32.75203845463693141937255859375" lon="-16.8257460929453372955322265625">
        <ele>335.399993896484375</ele>
        <time>2018-06-24T13:23:42.000Z</time>
      </trkpt>
      <trkpt lat="32.7520450763404369354248046875" lon="-16.8257048539817333221435546875">
        <ele>336.600006103515625</ele>
        <time>2018-06-24T13:23:46.000Z</time>
      </trkpt>
      <trkpt lat="32.75203141383826732635498046875" lon="-16.82566403411328792572021484375">
        <ele>337.79998779296875</ele>
        <time>2018-06-24T13:23:50.000Z</time>
      </trkpt>
      <trkpt lat="32.752022780478000640869140625" lon="-16.82563318870961666107177734375">
        <ele>339</ele>
        <time>2018-06-24T13:23:54.000Z</time>
      </trkpt>
      <trkpt lat="32.7520023286342620849609375" lon="-16.825601756572723388671875">
        <ele>340</ele>
        <time>2018-06-24T13:23:58.000Z</time>
      </trkpt>
      <trkpt lat="32.751986570656299591064453125" lon="-16.8255575001239776611328125">
        <ele>341</ele>
        <time>2018-06-24T13:24:02.000Z</time>
      </trkpt>
      <trkpt lat="32.7519793622195720672607421875" lon="-16.82554878294467926025390625">
        <ele>341.20001220703125</ele>
        <time>2018-06-24T13:24:03.000Z</time>
      </trkpt>
      <trkpt lat="32.75193301029503345489501953125" lon="-16.825520284473896026611328125">
        <ele>342.20001220703125</ele>
        <time>2018-06-24T13:24:08.000Z</time>
      </trkpt>
      <trkpt lat="32.75190065614879131317138671875" lon="-16.82551064528524875640869140625">
        <ele>343.600006103515625</ele>
        <time>2018-06-24T13:24:12.000Z</time>
      </trkpt>
      <trkpt lat="32.75188271887600421905517578125" lon="-16.82551718316972255706787109375">
        <ele>344.79998779296875</ele>
        <time>2018-06-24T13:24:16.000Z</time>
      </trkpt>
      <trkpt lat="32.751855812966823577880859375" lon="-16.82554467581212520599365234375">
        <ele>346</ele>
        <time>2018-06-24T13:24:20.000Z</time>
      </trkpt>
      <trkpt lat="32.751841731369495391845703125" lon="-16.82557870633900165557861328125">
        <ele>347.20001220703125</ele>
        <time>2018-06-24T13:24:24.000Z</time>
      </trkpt>
      <trkpt lat="32.75181658565998077392578125" lon="-16.82559706270694732666015625">
        <ele>347.79998779296875</ele>
        <time>2018-06-24T13:24:26.000Z</time>
      </trkpt>
      <trkpt lat="32.7518063597381114959716796875" lon="-16.82561458088457584381103515625">
        <ele>348.399993896484375</ele>
        <time>2018-06-24T13:24:28.000Z</time>
      </trkpt>
      <trkpt lat="32.75180988013744354248046875" lon="-16.82565431110560894012451171875">
        <ele>349.600006103515625</ele>
        <time>2018-06-24T13:24:32.000Z</time>
      </trkpt>
      <trkpt lat="32.75180107913911342620849609375" lon="-16.8257021717727184295654296875">
        <ele>350.79998779296875</ele>
        <time>2018-06-24T13:24:36.000Z</time>
      </trkpt>
      <trkpt lat="32.75179739110171794891357421875" lon="-16.825764365494251251220703125">
        <ele>351.79998779296875</ele>
        <time>2018-06-24T13:24:40.000Z</time>
      </trkpt>
      <trkpt lat="32.75179806165397167205810546875" lon="-16.82584424503147602081298828125">
        <ele>353</ele>
        <time>2018-06-24T13:24:46.000Z</time>
      </trkpt>
      <trkpt lat="32.751788757741451263427734375" lon="-16.82591465301811695098876953125">
        <ele>354</ele>
        <time>2018-06-24T13:24:52.000Z</time>
      </trkpt>
      <trkpt lat="32.7517704851925373077392578125" lon="-16.82596075348556041717529296875">
        <ele>355.20001220703125</ele>
        <time>2018-06-24T13:24:56.000Z</time>
      </trkpt>
      <trkpt lat="32.75175581686198711395263671875" lon="-16.826022528111934661865234375">
        <ele>356.399993896484375</ele>
        <time>2018-06-24T13:25:02.000Z</time>
      </trkpt>
      <trkpt lat="32.751723043620586395263671875" lon="-16.82604968547821044921875">
        <ele>357.399993896484375</ele>
        <time>2018-06-24T13:25:06.000Z</time>
      </trkpt>
      <trkpt lat="32.7516984008252620697021484375" lon="-16.8260671198368072509765625">
        <ele>358.399993896484375</ele>
        <time>2018-06-24T13:25:10.000Z</time>
      </trkpt>
      <trkpt lat="32.7516509592533111572265625" lon="-16.8260847218334674835205078125">
        <ele>359.600006103515625</ele>
        <time>2018-06-24T13:25:14.000Z</time>
      </trkpt>
      <trkpt lat="32.75163696147501468658447265625" lon="-16.826096959412097930908203125">
        <ele>360.600006103515625</ele>
        <time>2018-06-24T13:25:17.000Z</time>
      </trkpt>
      <trkpt lat="32.75158591568470001220703125" lon="-16.8261189199984073638916015625">
        <ele>361.79998779296875</ele>
        <time>2018-06-24T13:25:22.000Z</time>
      </trkpt>
      <trkpt lat="32.7515327744185924530029296875" lon="-16.8261314928531646728515625">
        <ele>363</ele>
        <time>2018-06-24T13:25:26.000Z</time>
      </trkpt>
      <trkpt lat="32.75152481161057949066162109375" lon="-16.82614347897469997406005859375">
        <ele>363.79998779296875</ele>
        <time>2018-06-24T13:25:29.000Z</time>
      </trkpt>
      <trkpt lat="32.75152279995381832122802734375" lon="-16.8261477537453174591064453125">
        <ele>364.20001220703125</ele>
        <time>2018-06-24T13:25:30.000Z</time>
      </trkpt>
      <trkpt lat="32.7514962293207645416259765625" lon="-16.82616032660007476806640625">
        <ele>365.399993896484375</ele>
        <time>2018-06-24T13:25:34.000Z</time>
      </trkpt>
      <trkpt lat="32.75148457847535610198974609375" lon="-16.8261608295142650604248046875">
        <ele>365.79998779296875</ele>
        <time>2018-06-24T13:25:35.000Z</time>
      </trkpt>
      <trkpt lat="32.75148290209472179412841796875" lon="-16.826161332428455352783203125">
        <ele>366.399993896484375</ele>
        <time>2018-06-24T13:25:37.000Z</time>
      </trkpt>
      <trkpt lat="32.7514603547751903533935546875" lon="-16.826160661876201629638671875">
        <ele>367.600006103515625</ele>
        <time>2018-06-24T13:25:41.000Z</time>
      </trkpt>
      <trkpt lat="32.75143529288470745086669921875" lon="-16.82614683173596858978271484375">
        <ele>368.79998779296875</ele>
        <time>2018-06-24T13:25:45.000Z</time>
      </trkpt>
      <trkpt lat="32.75141836144030094146728515625" lon="-16.8261155672371387481689453125">
        <ele>369.79998779296875</ele>
        <time>2018-06-24T13:25:49.000Z</time>
      </trkpt>
      <trkpt lat="32.75141215883195400238037109375" lon="-16.82607307098805904388427734375">
        <ele>371.20001220703125</ele>
        <time>2018-06-24T13:25:53.000Z</time>
      </trkpt>
      <trkpt lat="32.75141299702227115631103515625" lon="-16.8260377831757068634033203125">
        <ele>372.20001220703125</ele>
        <time>2018-06-24T13:25:56.000Z</time>
      </trkpt>
      <trkpt lat="32.75140411220490932464599609375" lon="-16.82600903324782848358154296875">
        <ele>373.20001220703125</ele>
        <time>2018-06-24T13:25:59.000Z</time>
      </trkpt>
      <trkpt lat="32.75139757432043552398681640625" lon="-16.82597458362579345703125">
        <ele>374.399993896484375</ele>
        <time>2018-06-24T13:26:03.000Z</time>
      </trkpt>
      <trkpt lat="32.75138785131275653839111328125" lon="-16.8259382061660289764404296875">
        <ele>375.79998779296875</ele>
        <time>2018-06-24T13:26:07.000Z</time>
      </trkpt>
      <trkpt lat="32.75136622600257396697998046875" lon="-16.82590208016335964202880859375">
        <ele>377</ele>
        <time>2018-06-24T13:26:11.000Z</time>
      </trkpt>
      <trkpt lat="32.7513379789888858795166015625" lon="-16.82588799856603145599365234375">
        <ele>378.20001220703125</ele>
        <time>2018-06-24T13:26:15.000Z</time>
      </trkpt>
      <trkpt lat="32.75131828151643276214599609375" lon="-16.82586654089391231536865234375">
        <ele>379.399993896484375</ele>
        <time>2018-06-24T13:26:19.000Z</time>
      </trkpt>
      <trkpt lat="32.75129732675850391387939453125" lon="-16.82586796581745147705078125">
        <ele>381</ele>
        <time>2018-06-24T13:26:23.000Z</time>
      </trkpt>
      <trkpt lat="32.75127586908638477325439453125" lon="-16.8258738331496715545654296875">
        <ele>382</ele>
        <time>2018-06-24T13:26:26.000Z</time>
      </trkpt>
      <trkpt lat="32.7512323670089244842529296875" lon="-16.825878359377384185791015625">
        <ele>383.20001220703125</ele>
        <time>2018-06-24T13:26:30.000Z</time>
      </trkpt>
      <trkpt lat="32.7511897869408130645751953125" lon="-16.825881041586399078369140625">
        <ele>384.20001220703125</ele>
        <time>2018-06-24T13:26:34.000Z</time>
      </trkpt>
      <trkpt lat="32.75117595680058002471923828125" lon="-16.82587877847254276275634765625">
        <ele>385.399993896484375</ele>
        <time>2018-06-24T13:26:36.000Z</time>
      </trkpt>
      <trkpt lat="32.75115139782428741455078125" lon="-16.82588363997638225555419921875">
        <ele>386.399993896484375</ele>
        <time>2018-06-24T13:26:40.000Z</time>
      </trkpt>
      <trkpt lat="32.7511187084019184112548828125" lon="-16.82589436881244182586669921875">
        <ele>387.79998779296875</ele>
        <time>2018-06-24T13:26:44.000Z</time>
      </trkpt>
      <trkpt lat="32.75109616108238697052001953125" lon="-16.82590576820075511932373046875">
        <ele>389</ele>
        <time>2018-06-24T13:26:49.000Z</time>
      </trkpt>
      <trkpt lat="32.75107688270509243011474609375" lon="-16.8259073607623577117919921875">
        <ele>390</ele>
        <time>2018-06-24T13:26:53.000Z</time>
      </trkpt>
      <trkpt lat="32.75107252411544322967529296875" lon="-16.82589839212596416473388671875">
        <ele>391.20001220703125</ele>
        <time>2018-06-24T13:26:58.000Z</time>
      </trkpt>
      <trkpt lat="32.75106213055551052093505859375" lon="-16.8258726596832275390625">
        <ele>392.20001220703125</ele>
        <time>2018-06-24T13:27:02.000Z</time>
      </trkpt>
      <trkpt lat="32.7510922215878963470458984375" lon="-16.82582236826419830322265625">
        <ele>393.399993896484375</ele>
        <time>2018-06-24T13:27:09.000Z</time>
      </trkpt>
      <trkpt lat="32.75109909474849700927734375" lon="-16.82578456588089466094970703125">
        <ele>394.600006103515625</ele>
        <time>2018-06-24T13:27:13.000Z</time>
      </trkpt>
      <trkpt lat="32.751079313457012176513671875" lon="-16.825733184814453125">
        <ele>395.600006103515625</ele>
        <time>2018-06-24T13:27:17.000Z</time>
      </trkpt>
      <trkpt lat="32.7510717697441577911376953125" lon="-16.82569236494600772857666015625">
        <ele>396.79998779296875</ele>
        <time>2018-06-24T13:27:21.000Z</time>
      </trkpt>
      <trkpt lat="32.75107218883931636810302734375" lon="-16.82566135190427303314208984375">
        <ele>398</ele>
        <time>2018-06-24T13:27:25.000Z</time>
      </trkpt>
      <trkpt lat="32.75107621215283870697021484375" lon="-16.8256250582635402679443359375">
        <ele>399.20001220703125</ele>
        <time>2018-06-24T13:27:29.000Z</time>
      </trkpt>
      <trkpt lat="32.75107352994382381439208984375" lon="-16.8255870044231414794921875">
        <ele>400.399993896484375</ele>
        <time>2018-06-24T13:27:33.000Z</time>
      </trkpt>
      <trkpt lat="32.75105475448071956634521484375" lon="-16.8255628645420074462890625">
        <ele>401.399993896484375</ele>
        <time>2018-06-24T13:27:36.000Z</time>
      </trkpt>
      <trkpt lat="32.751036398112773895263671875" lon="-16.825520955026149749755859375">
        <ele>402.600006103515625</ele>
        <time>2018-06-24T13:27:40.000Z</time>
      </trkpt>
      <trkpt lat="32.751021645963191986083984375" lon="-16.82549237273633480072021484375">
        <ele>403.600006103515625</ele>
        <time>2018-06-24T13:27:43.000Z</time>
      </trkpt>
      <trkpt lat="32.75100027211010456085205078125" lon="-16.82546052150428295135498046875">
        <ele>404.79998779296875</ele>
        <time>2018-06-24T13:27:47.000Z</time>
      </trkpt>
      <trkpt lat="32.75098099373281002044677734375" lon="-16.8254332803189754486083984375">
        <ele>406</ele>
        <time>2018-06-24T13:27:51.000Z</time>
      </trkpt>
      <trkpt lat="32.7509554289281368255615234375" lon="-16.82540662586688995361328125">
        <ele>407.20001220703125</ele>
        <time>2018-06-24T13:27:55.000Z</time>
      </trkpt>
      <trkpt lat="32.750936485826969146728515625" lon="-16.82537376880645751953125">
        <ele>408.20001220703125</ele>
        <time>2018-06-24T13:27:59.000Z</time>
      </trkpt>
      <trkpt lat="32.75092743337154388427734375" lon="-16.82532624341547489166259765625">
        <ele>409.399993896484375</ele>
        <time>2018-06-24T13:28:04.000Z</time>
      </trkpt>
      <trkpt lat="32.75091729126870632171630859375" lon="-16.8252946436405181884765625">
        <ele>410.600006103515625</ele>
        <time>2018-06-24T13:28:08.000Z</time>
      </trkpt>
      <trkpt lat="32.7509138546884059906005859375" lon="-16.825252734124660491943359375">
        <ele>411.600006103515625</ele>
        <time>2018-06-24T13:28:13.000Z</time>
      </trkpt>
      <trkpt lat="32.750902958214282989501953125" lon="-16.825213842093944549560546875">
        <ele>412.79998779296875</ele>
        <time>2018-06-24T13:28:18.000Z</time>
      </trkpt>
      <trkpt lat="32.75088493712246417999267578125" lon="-16.825174950063228607177734375">
        <ele>414</ele>
        <time>2018-06-24T13:28:22.000Z</time>
      </trkpt>
      <trkpt lat="32.7508622221648693084716796875" lon="-16.82513077743351459503173828125">
        <ele>415</ele>
        <time>2018-06-24T13:28:26.000Z</time>
      </trkpt>
      <trkpt lat="32.75083347223699092864990234375" lon="-16.825093142688274383544921875">
        <ele>416.20001220703125</ele>
        <time>2018-06-24T13:28:30.000Z</time>
      </trkpt>
      <trkpt lat="32.75080849416553974151611328125" lon="-16.825071685016155242919921875">
        <ele>417.20001220703125</ele>
        <time>2018-06-24T13:28:34.000Z</time>
      </trkpt>
      <trkpt lat="32.75078594684600830078125" lon="-16.82504461146891117095947265625">
        <ele>418.20001220703125</ele>
        <time>2018-06-24T13:28:38.000Z</time>
      </trkpt>
      <trkpt lat="32.75077831931412220001220703125" lon="-16.8250400014221668243408203125">
        <ele>418.600006103515625</ele>
        <time>2018-06-24T13:28:39.000Z</time>
      </trkpt>
      <trkpt lat="32.75076038204133510589599609375" lon="-16.82503589428961277008056640625">
        <ele>419.20001220703125</ele>
        <time>2018-06-24T13:28:41.000Z</time>
      </trkpt>
      <trkpt lat="32.75074294768273830413818359375" lon="-16.82503187097609043121337890625">
        <ele>419.600006103515625</ele>
        <time>2018-06-24T13:28:43.000Z</time>
      </trkpt>
      <trkpt lat="32.75073171593248844146728515625" lon="-16.82503379881381988525390625">
        <ele>419.79998779296875</ele>
        <time>2018-06-24T13:28:44.000Z</time>
      </trkpt>
      <trkpt lat="32.750707827508449554443359375" lon="-16.82503572665154933929443359375">
        <ele>420.600006103515625</ele>
        <time>2018-06-24T13:28:47.000Z</time>
      </trkpt>
      <trkpt lat="32.750656194984912872314453125" lon="-16.82505316101014614105224609375">
        <ele>421.79998779296875</ele>
        <time>2018-06-24T13:28:52.000Z</time>
      </trkpt>
      <trkpt lat="32.75063213892281055450439453125" lon="-16.82505684904754161834716796875">
        <ele>423</ele>
        <time>2018-06-24T13:28:56.000Z</time>
      </trkpt>
      <trkpt lat="32.750599868595600128173828125" lon="-16.8250587768852710723876953125">
        <ele>424.20001220703125</ele>
        <time>2018-06-24T13:29:01.000Z</time>
      </trkpt>
      <trkpt lat="32.75056625716388225555419921875" lon="-16.8250574357807636260986328125">
        <ele>425.600006103515625</ele>
        <time>2018-06-24T13:29:06.000Z</time>
      </trkpt>
      <trkpt lat="32.7505551092326641082763671875" lon="-16.82506062090396881103515625">
        <ele>425.79998779296875</ele>
        <time>2018-06-24T13:29:07.000Z</time>
      </trkpt>
      <trkpt lat="32.7505296282470226287841796875" lon="-16.82506456039845943450927734375">
        <ele>426.79998779296875</ele>
        <time>2018-06-24T13:29:10.000Z</time>
      </trkpt>
      <trkpt lat="32.7504783309996128082275390625" lon="-16.8250773847103118896484375">
        <ele>428</ele>
        <time>2018-06-24T13:29:15.000Z</time>
      </trkpt>
      <trkpt lat="32.750412784516811370849609375" lon="-16.8251060508191585540771484375">
        <ele>429.600006103515625</ele>
        <time>2018-06-24T13:29:20.000Z</time>
      </trkpt>
      <trkpt lat="32.7503339946269989013671875" lon="-16.8251425959169864654541015625">
        <ele>430.600006103515625</ele>
        <time>2018-06-24T13:29:27.000Z</time>
      </trkpt>
      <trkpt lat="32.750284709036350250244140625" lon="-16.8251617066562175750732421875">
        <ele>431.79998779296875</ele>
        <time>2018-06-24T13:29:32.000Z</time>
      </trkpt>
      <trkpt lat="32.75024942122399806976318359375" lon="-16.82516229338943958282470703125">
        <ele>432.79998779296875</ele>
        <time>2018-06-24T13:29:36.000Z</time>
      </trkpt>
      <trkpt lat="32.75021220557391643524169921875" lon="-16.8251417577266693115234375">
        <ele>434</ele>
        <time>2018-06-24T13:29:40.000Z</time>
      </trkpt>
      <trkpt lat="32.7501695416867733001708984375" lon="-16.8251258321106433868408203125">
        <ele>435.20001220703125</ele>
        <time>2018-06-24T13:29:45.000Z</time>
      </trkpt>
      <trkpt lat="32.75012679398059844970703125" lon="-16.82511719875037670135498046875">
        <ele>436.20001220703125</ele>
        <time>2018-06-24T13:29:49.000Z</time>
      </trkpt>
      <trkpt lat="32.750084884464740753173828125" lon="-16.8251037038862705230712890625">
        <ele>437.399993896484375</ele>
        <time>2018-06-24T13:29:53.000Z</time>
      </trkpt>
      <trkpt lat="32.7500542066991329193115234375" lon="-16.82508031837642192840576171875">
        <ele>438.399993896484375</ele>
        <time>2018-06-24T13:29:57.000Z</time>
      </trkpt>
      <trkpt lat="32.7500240318477153778076171875" lon="-16.82503924705088138580322265625">
        <ele>439.399993896484375</ele>
        <time>2018-06-24T13:30:01.000Z</time>
      </trkpt>
      <trkpt lat="32.74999109096825122833251953125" lon="-16.82501460425555706024169921875">
        <ele>440.399993896484375</ele>
        <time>2018-06-24T13:30:05.000Z</time>
      </trkpt>
      <trkpt lat="32.74996125139296054840087890625" lon="-16.8250031210482120513916015625">
        <ele>441.600006103515625</ele>
        <time>2018-06-24T13:30:09.000Z</time>
      </trkpt>
      <trkpt lat="32.74993342347443103790283203125" lon="-16.82499825954437255859375">
        <ele>442.600006103515625</ele>
        <time>2018-06-24T13:30:12.000Z</time>
      </trkpt>
      <trkpt lat="32.74992336519062519073486328125" lon="-16.8249964155256748199462890625">
        <ele>442.79998779296875</ele>
        <time>2018-06-24T13:30:13.000Z</time>
      </trkpt>
      <trkpt lat="32.74989570491015911102294921875" lon="-16.82499180547893047332763671875">
        <ele>444</ele>
        <time>2018-06-24T13:30:17.000Z</time>
      </trkpt>
      <trkpt lat="32.74987625889480113983154296875" lon="-16.82498359121382236480712890625">
        <ele>445</ele>
        <time>2018-06-24T13:30:20.000Z</time>
      </trkpt>
      <trkpt lat="32.74986033327877521514892578125" lon="-16.8249736167490482330322265625">
        <ele>446.20001220703125</ele>
        <time>2018-06-24T13:30:24.000Z</time>
      </trkpt>
      <trkpt lat="32.7498396299779415130615234375" lon="-16.824967078864574432373046875">
        <ele>447.399993896484375</ele>
        <time>2018-06-24T13:30:28.000Z</time>
      </trkpt>
      <trkpt lat="32.74981020949780941009521484375" lon="-16.8249714374542236328125">
        <ele>448.600006103515625</ele>
        <time>2018-06-24T13:30:32.000Z</time>
      </trkpt>
      <trkpt lat="32.74979109875857830047607421875" lon="-16.82496313937008380889892578125">
        <ele>449.600006103515625</ele>
        <time>2018-06-24T13:30:36.000Z</time>
      </trkpt>
      <trkpt lat="32.7497680485248565673828125" lon="-16.8249508179724216461181640625">
        <ele>450.79998779296875</ele>
        <time>2018-06-24T13:30:39.000Z</time>
      </trkpt>
      <trkpt lat="32.749743573367595672607421875" lon="-16.82493514381349086761474609375">
        <ele>451.79998779296875</ele>
        <time>2018-06-24T13:30:42.000Z</time>
      </trkpt>
      <trkpt lat="32.7497356943786144256591796875" lon="-16.8249298632144927978515625">
        <ele>452.79998779296875</ele>
        <time>2018-06-24T13:30:44.000Z</time>
      </trkpt>
      <trkpt lat="32.749719433486461639404296875" lon="-16.82491066865622997283935546875">
        <ele>454.20001220703125</ele>
        <time>2018-06-24T13:30:48.000Z</time>
      </trkpt>
      <trkpt lat="32.749703340232372283935546875" lon="-16.82490211911499500274658203125">
        <ele>455.20001220703125</ele>
        <time>2018-06-24T13:30:52.000Z</time>
      </trkpt>
      <trkpt lat="32.749701999127864837646484375" lon="-16.8248924799263477325439453125">
        <ele>456.20001220703125</ele>
        <time>2018-06-24T13:30:56.000Z</time>
      </trkpt>
      <trkpt lat="32.74967777542769908905029296875" lon="-16.82488116435706615447998046875">
        <ele>457.399993896484375</ele>
        <time>2018-06-24T13:31:01.000Z</time>
      </trkpt>
      <trkpt lat="32.74963385425508022308349609375" lon="-16.82487445883452892303466796875">
        <ele>458.399993896484375</ele>
        <time>2018-06-24T13:31:07.000Z</time>
      </trkpt>
      <trkpt lat="32.74960217066109180450439453125" lon="-16.82487378828227519989013671875">
        <ele>459.600006103515625</ele>
        <time>2018-06-24T13:31:11.000Z</time>
      </trkpt>
      <trkpt lat="32.74956193752586841583251953125" lon="-16.82486507110297679901123046875">
        <ele>460.79998779296875</ele>
        <time>2018-06-24T13:31:16.000Z</time>
      </trkpt>
      <trkpt lat="32.74953276850283145904541015625" lon="-16.82486272417008876800537109375">
        <ele>461.79998779296875</ele>
        <time>2018-06-24T13:31:20.000Z</time>
      </trkpt>
      <trkpt lat="32.7494932897388935089111328125" lon="-16.824840009212493896484375">
        <ele>463</ele>
        <time>2018-06-24T13:31:25.000Z</time>
      </trkpt>
      <trkpt lat="32.74946722202003002166748046875" lon="-16.824820227921009063720703125">
        <ele>464.20001220703125</ele>
        <time>2018-06-24T13:31:29.000Z</time>
      </trkpt>
      <trkpt lat="32.7494413219392299652099609375" lon="-16.8248046375811100006103515625">
        <ele>465.399993896484375</ele>
        <time>2018-06-24T13:31:33.000Z</time>
      </trkpt>
      <trkpt lat="32.74940796196460723876953125" lon="-16.82479533366858959197998046875">
        <ele>466.600006103515625</ele>
        <time>2018-06-24T13:31:37.000Z</time>
      </trkpt>
      <trkpt lat="32.74938105605542659759521484375" lon="-16.82477991096675395965576171875">
        <ele>467.600006103515625</ele>
        <time>2018-06-24T13:31:41.000Z</time>
      </trkpt>
      <trkpt lat="32.74936077184975147247314453125" lon="-16.82476817630231380462646484375">
        <ele>468.79998779296875</ele>
        <time>2018-06-24T13:31:45.000Z</time>
      </trkpt>
      <trkpt lat="32.74933554232120513916015625" lon="-16.82476365007460117340087890625">
        <ele>469.79998779296875</ele>
        <time>2018-06-24T13:31:49.000Z</time>
      </trkpt>
      <trkpt lat="32.7493102289736270904541015625" lon="-16.82478276081383228302001953125">
        <ele>471</ele>
        <time>2018-06-24T13:31:53.000Z</time>
      </trkpt>
      <trkpt lat="32.74930310435593128204345703125" lon="-16.82479298673570156097412109375">
        <ele>471.20001220703125</ele>
        <time>2018-06-24T13:31:54.000Z</time>
      </trkpt>
      <trkpt lat="32.74930578656494617462158203125" lon="-16.82482265867292881011962890625">
        <ele>472</ele>
        <time>2018-06-24T13:31:57.000Z</time>
      </trkpt>
      <trkpt lat="32.74930494837462902069091796875" lon="-16.824832968413829803466796875">
        <ele>472.399993896484375</ele>
        <time>2018-06-24T13:31:58.000Z</time>
      </trkpt>
      <trkpt lat="32.74930075742304325103759765625" lon="-16.8248529173433780670166015625">
        <ele>473</ele>
        <time>2018-06-24T13:32:00.000Z</time>
      </trkpt>
      <trkpt lat="32.7492995001375675201416015625" lon="-16.824862472712993621826171875">
        <ele>473.399993896484375</ele>
        <time>2018-06-24T13:32:01.000Z</time>
      </trkpt>
      <trkpt lat="32.74930092506110668182373046875" lon="-16.8248827569186687469482421875">
        <ele>474</ele>
        <time>2018-06-24T13:32:03.000Z</time>
      </trkpt>
      <trkpt lat="32.74931333027780055999755859375" lon="-16.82489993982017040252685546875">
        <ele>474.399993896484375</ele>
        <time>2018-06-24T13:32:05.000Z</time>
      </trkpt>
      <trkpt lat="32.74935440160334110260009765625" lon="-16.8249427713453769683837890625">
        <ele>475.600006103515625</ele>
        <time>2018-06-24T13:32:10.000Z</time>
      </trkpt>
      <trkpt lat="32.74935808964073657989501953125" lon="-16.82495157234370708465576171875">
        <ele>476</ele>
        <time>2018-06-24T13:32:11.000Z</time>
      </trkpt>
      <trkpt lat="32.7493655495345592498779296875" lon="-16.8249674141407012939453125">
        <ele>476.399993896484375</ele>
        <time>2018-06-24T13:32:13.000Z</time>
      </trkpt>
      <trkpt lat="32.74936236441135406494140625" lon="-16.82497210800647735595703125">
        <ele>476.79998779296875</ele>
        <time>2018-06-24T13:32:14.000Z</time>
      </trkpt>
      <trkpt lat="32.7493149228394031524658203125" lon="-16.8249819986522197723388671875">
        <ele>477.600006103515625</ele>
        <time>2018-06-24T13:32:18.000Z</time>
      </trkpt>
      <trkpt lat="32.749288938939571380615234375" lon="-16.82497881352901458740234375">
        <ele>478.600006103515625</ele>
        <time>2018-06-24T13:32:21.000Z</time>
      </trkpt>
      <trkpt lat="32.749273516237735748291015625" lon="-16.82497571222484111785888671875">
        <ele>479</ele>
        <time>2018-06-24T13:32:23.000Z</time>
      </trkpt>
      <trkpt lat="32.7492503821849822998046875" lon="-16.8249602057039737701416015625">
        <ele>480</ele>
        <time>2018-06-24T13:32:28.000Z</time>
      </trkpt>
      <trkpt lat="32.749224565923213958740234375" lon="-16.82494394481182098388671875">
        <ele>480.79998779296875</ele>
        <time>2018-06-24T13:32:31.000Z</time>
      </trkpt>
      <trkpt lat="32.74921844713389873504638671875" lon="-16.824931204319000244140625">
        <ele>481</ele>
        <time>2018-06-24T13:32:32.000Z</time>
      </trkpt>
      <trkpt lat="32.74921350181102752685546875" lon="-16.82492525316774845123291015625">
        <ele>481.20001220703125</ele>
        <time>2018-06-24T13:32:33.000Z</time>
      </trkpt>
      <trkpt lat="32.7492049522697925567626953125" lon="-16.8248941563069820404052734375">
        <ele>482.399993896484375</ele>
        <time>2018-06-24T13:32:37.000Z</time>
      </trkpt>
      <trkpt lat="32.7491935528814792633056640625" lon="-16.82484478689730167388916015625">
        <ele>483.20001220703125</ele>
        <time>2018-06-24T13:32:41.000Z</time>
      </trkpt>
      <trkpt lat="32.749174945056438446044921875" lon="-16.8247965909540653228759765625">
        <ele>484.600006103515625</ele>
        <time>2018-06-24T13:32:46.000Z</time>
      </trkpt>
      <trkpt lat="32.7491570077836513519287109375" lon="-16.824743784964084625244140625">
        <ele>485.79998779296875</ele>
        <time>2018-06-24T13:32:51.000Z</time>
      </trkpt>
      <trkpt lat="32.74913705885410308837890625" lon="-16.82469005696475505828857421875">
        <ele>486.600006103515625</ele>
        <time>2018-06-24T13:32:55.000Z</time>
      </trkpt>
      <trkpt lat="32.7491093985736370086669921875" lon="-16.82461193762719631195068359375">
        <ele>487.79998779296875</ele>
        <time>2018-06-24T13:33:00.000Z</time>
      </trkpt>
      <trkpt lat="32.7490825764834880828857421875" lon="-16.824536584317684173583984375">
        <ele>488.79998779296875</ele>
        <time>2018-06-24T13:33:06.000Z</time>
      </trkpt>
      <trkpt lat="32.748994566500186920166015625" lon="-16.824510097503662109375">
        <ele>490</ele>
        <time>2018-06-24T13:33:13.000Z</time>
      </trkpt>
      <trkpt lat="32.7488042972981929779052734375" lon="-16.82453264482319355010986328125">
        <ele>491</ele>
        <time>2018-06-24T13:33:23.000Z</time>
      </trkpt>
      <trkpt lat="32.7487488090991973876953125" lon="-16.82450884021818637847900390625">
        <ele>491.20001220703125</ele>
        <time>2018-06-24T13:33:26.000Z</time>
      </trkpt>
      <trkpt lat="32.74873363785445690155029296875" lon="-16.82433734647929668426513671875">
        <ele>491.79998779296875</ele>
        <time>2018-06-24T13:33:33.000Z</time>
      </trkpt>
      <trkpt lat="32.748784683644771575927734375" lon="-16.8242909945547580718994140625">
        <ele>492.20001220703125</ele>
        <time>2018-06-24T13:33:36.000Z</time>
      </trkpt>
      <trkpt lat="32.748923487961292266845703125" lon="-16.8241773359477519989013671875">
        <ele>493.399993896484375</ele>
        <time>2018-06-24T13:33:44.000Z</time>
      </trkpt>
      <trkpt lat="32.74895869195461273193359375" lon="-16.82409628294408321380615234375">
        <ele>493.79998779296875</ele>
        <time>2018-06-24T13:33:48.000Z</time>
      </trkpt>
      <trkpt lat="32.7489320375025272369384765625" lon="-16.82404951192438602447509765625">
        <ele>494.20001220703125</ele>
        <time>2018-06-24T13:33:51.000Z</time>
      </trkpt>
      <trkpt lat="32.7489075623452663421630859375" lon="-16.82403341867029666900634765625">
        <ele>494.79998779296875</ele>
        <time>2018-06-24T13:33:53.000Z</time>
      </trkpt>
      <trkpt lat="32.748834304511547088623046875" lon="-16.824012883007526397705078125">
        <ele>495.399993896484375</ele>
        <time>2018-06-24T13:33:58.000Z</time>
      </trkpt>
      <trkpt lat="32.74879868142306804656982421875" lon="-16.82398681528866291046142578125">
        <ele>496.399993896484375</ele>
        <time>2018-06-24T13:34:01.000Z</time>
      </trkpt>
      <trkpt lat="32.7487643994390964508056640625" lon="-16.823947168886661529541015625">
        <ele>497.600006103515625</ele>
        <time>2018-06-24T13:34:06.000Z</time>
      </trkpt>
      <trkpt lat="32.74876381270587444305419921875" lon="-16.82394272647798061370849609375">
        <ele>497.79998779296875</ele>
        <time>2018-06-24T13:34:07.000Z</time>
      </trkpt>
      <trkpt lat="32.748766243457794189453125" lon="-16.823922358453273773193359375">
        <ele>498.600006103515625</ele>
        <time>2018-06-24T13:34:11.000Z</time>
      </trkpt>
      <trkpt lat="32.748760543763637542724609375" lon="-16.82388179004192352294921875">
        <ele>499.600006103515625</ele>
        <time>2018-06-24T13:34:16.000Z</time>
      </trkpt>
      <trkpt lat="32.748758532106876373291015625" lon="-16.823873408138751983642578125">
        <ele>500</ele>
        <time>2018-06-24T13:34:17.000Z</time>
      </trkpt>
      <trkpt lat="32.74875811301171779632568359375" lon="-16.823851950466632843017578125">
        <ele>500.79998779296875</ele>
        <time>2018-06-24T13:34:19.000Z</time>
      </trkpt>
      <trkpt lat="32.74872927926480770111083984375" lon="-16.8238216079771518707275390625">
        <ele>501.399993896484375</ele>
        <time>2018-06-24T13:34:23.000Z</time>
      </trkpt>
      <trkpt lat="32.74871595203876495361328125" lon="-16.82381532154977321624755859375">
        <ele>502</ele>
        <time>2018-06-24T13:34:24.000Z</time>
      </trkpt>
      <trkpt lat="32.748688124120235443115234375" lon="-16.82379051111638545989990234375">
        <ele>502.79998779296875</ele>
        <time>2018-06-24T13:34:27.000Z</time>
      </trkpt>
      <trkpt lat="32.74868284352123737335205078125" lon="-16.82378062047064304351806640625">
        <ele>503.20001220703125</ele>
        <time>2018-06-24T13:34:28.000Z</time>
      </trkpt>
      <trkpt lat="32.7486406825482845306396484375" lon="-16.82373292744159698486328125">
        <ele>504.399993896484375</ele>
        <time>2018-06-24T13:34:32.000Z</time>
      </trkpt>
      <trkpt lat="32.7486168779432773590087890625" lon="-16.82368070818483829498291015625">
        <ele>505.600006103515625</ele>
        <time>2018-06-24T13:34:36.000Z</time>
      </trkpt>
      <trkpt lat="32.7486014552414417266845703125" lon="-16.8236611783504486083984375">
        <ele>506</ele>
        <time>2018-06-24T13:34:38.000Z</time>
      </trkpt>
      <trkpt lat="32.74858259595930576324462890625" lon="-16.82364600710570812225341796875">
        <ele>506.600006103515625</ele>
        <time>2018-06-24T13:34:40.000Z</time>
      </trkpt>
      <trkpt lat="32.74857002310454845428466796875" lon="-16.82363502681255340576171875">
        <ele>506.79998779296875</ele>
        <time>2018-06-24T13:34:41.000Z</time>
      </trkpt>
      <trkpt lat="32.74854236282408237457275390625" lon="-16.82360124774277210235595703125">
        <ele>507.600006103515625</ele>
        <time>2018-06-24T13:34:44.000Z</time>
      </trkpt>
      <trkpt lat="32.7485089190304279327392578125" lon="-16.82357593439519405364990234375">
        <ele>508.399993896484375</ele>
        <time>2018-06-24T13:34:48.000Z</time>
      </trkpt>
      <trkpt lat="32.74848662316799163818359375" lon="-16.82354073040187358856201171875">
        <ele>509.79998779296875</ele>
        <time>2018-06-24T13:34:52.000Z</time>
      </trkpt>
      <trkpt lat="32.74846608750522136688232421875" lon="-16.82351709343492984771728515625">
        <ele>510.79998779296875</ele>
        <time>2018-06-24T13:34:56.000Z</time>
      </trkpt>
      <trkpt lat="32.74842199869453907012939453125" lon="-16.82353083975613117218017578125">
        <ele>511.600006103515625</ele>
        <time>2018-06-24T13:34:59.000Z</time>
      </trkpt>
      <trkpt lat="32.7484120242297649383544921875" lon="-16.82352916337549686431884765625">
        <ele>512</ele>
        <time>2018-06-24T13:35:00.000Z</time>
      </trkpt>
      <trkpt lat="32.74840607307851314544677734375" lon="-16.823536120355129241943359375">
        <ele>512.4000244140625</ele>
        <time>2018-06-24T13:35:01.000Z</time>
      </trkpt>
      <trkpt lat="32.74837187491357326507568359375" lon="-16.82352329604327678680419921875">
        <ele>513.4000244140625</ele>
        <time>2018-06-24T13:35:05.000Z</time>
      </trkpt>
      <trkpt lat="32.74836122989654541015625" lon="-16.8235151655972003936767578125">
        <ele>514</ele>
        <time>2018-06-24T13:35:07.000Z</time>
      </trkpt>
      <trkpt lat="32.7483446337282657623291015625" lon="-16.8235118128359317779541015625">
        <ele>514.4000244140625</ele>
        <time>2018-06-24T13:35:09.000Z</time>
      </trkpt>
      <trkpt lat="32.74831990711390972137451171875" lon="-16.82350032962858676910400390625">
        <ele>515.79998779296875</ele>
        <time>2018-06-24T13:35:13.000Z</time>
      </trkpt>
      <trkpt lat="32.74831102229654788970947265625" lon="-16.82348222471773624420166015625">
        <ele>516.79998779296875</ele>
        <time>2018-06-24T13:35:17.000Z</time>
      </trkpt>
      <trkpt lat="32.748286463320255279541015625" lon="-16.82345858775079250335693359375">
        <ele>517.79998779296875</ele>
        <time>2018-06-24T13:35:21.000Z</time>
      </trkpt>
      <trkpt lat="32.74827682413160800933837890625" lon="-16.8234574981033802032470703125">
        <ele>518</ele>
        <time>2018-06-24T13:35:22.000Z</time>
      </trkpt>
      <trkpt lat="32.74825469590723514556884765625" lon="-16.82345204986631870269775390625">
        <ele>518.4000244140625</ele>
        <time>2018-06-24T13:35:24.000Z</time>
      </trkpt>
      <trkpt lat="32.748245559632778167724609375" lon="-16.82344500906765460968017578125">
        <ele>519</ele>
        <time>2018-06-24T13:35:25.000Z</time>
      </trkpt>
      <trkpt lat="32.7482256107032299041748046875" lon="-16.82339605875313282012939453125">
        <ele>520</ele>
        <time>2018-06-24T13:35:30.000Z</time>
      </trkpt>
      <trkpt lat="32.74822686798870563507080078125" lon="-16.82336546480655670166015625">
        <ele>521</ele>
        <time>2018-06-24T13:35:34.000Z</time>
      </trkpt>
      <trkpt lat="32.748228125274181365966796875" lon="-16.823327578604221343994140625">
        <ele>521.79998779296875</ele>
        <time>2018-06-24T13:35:37.000Z</time>
      </trkpt>
      <trkpt lat="32.74823575280606746673583984375" lon="-16.823312826454639434814453125">
        <ele>522.20001220703125</ele>
        <time>2018-06-24T13:35:38.000Z</time>
      </trkpt>
      <trkpt lat="32.74824078194797039031982421875" lon="-16.8232969008386135101318359375">
        <ele>523.4000244140625</ele>
        <time>2018-06-24T13:35:41.000Z</time>
      </trkpt>
      <trkpt lat="32.74823474697768688201904296875" lon="-16.82329438626766204833984375">
        <ele>523.79998779296875</ele>
        <time>2018-06-24T13:35:42.000Z</time>
      </trkpt>
      <trkpt lat="32.74823089130222797393798828125" lon="-16.82327401824295520782470703125">
        <ele>524.5999755859375</ele>
        <time>2018-06-24T13:35:47.000Z</time>
      </trkpt>
      <trkpt lat="32.74826140142977237701416015625" lon="-16.823235712945461273193359375">
        <ele>525.79998779296875</ele>
        <time>2018-06-24T13:35:52.000Z</time>
      </trkpt>
      <trkpt lat="32.74825595319271087646484375" lon="-16.82322523556649684906005859375">
        <ele>526</ele>
        <time>2018-06-24T13:35:53.000Z</time>
      </trkpt>
      <trkpt lat="32.74824748747050762176513671875" lon="-16.82318969629704952239990234375">
        <ele>526.4000244140625</ele>
        <time>2018-06-24T13:35:57.000Z</time>
      </trkpt>
      <trkpt lat="32.748258300125598907470703125" lon="-16.8231658078730106353759765625">
        <ele>527</ele>
        <time>2018-06-24T13:35:59.000Z</time>
      </trkpt>
      <trkpt lat="32.74827606976032257080078125" lon="-16.82311845012009143829345703125">
        <ele>528.4000244140625</ele>
        <time>2018-06-24T13:36:03.000Z</time>
      </trkpt>
      <trkpt lat="32.74828084744513034820556640625" lon="-16.82308995164930820465087890625">
        <ele>529.5999755859375</ele>
        <time>2018-06-24T13:36:07.000Z</time>
      </trkpt>
      <trkpt lat="32.74831035174429416656494140625" lon="-16.82306949980556964874267578125">
        <ele>530.79998779296875</ele>
        <time>2018-06-24T13:36:12.000Z</time>
      </trkpt>
      <trkpt lat="32.7483332343399524688720703125" lon="-16.82303463108837604522705078125">
        <ele>531.79998779296875</ele>
        <time>2018-06-24T13:36:17.000Z</time>
      </trkpt>
      <trkpt lat="32.74835125543177127838134765625" lon="-16.82299993000924587249755859375">
        <ele>533</ele>
        <time>2018-06-24T13:36:22.000Z</time>
      </trkpt>
      <trkpt lat="32.7483503334224224090576171875" lon="-16.82295978069305419921875">
        <ele>534</ele>
        <time>2018-06-24T13:36:26.000Z</time>
      </trkpt>
      <trkpt lat="32.74833868257701396942138671875" lon="-16.82292365469038486480712890625">
        <ele>535.20001220703125</ele>
        <time>2018-06-24T13:36:30.000Z</time>
      </trkpt>
      <trkpt lat="32.74833105504512786865234375" lon="-16.8228975869715213775634765625">
        <ele>536.5999755859375</ele>
        <time>2018-06-24T13:36:34.000Z</time>
      </trkpt>
      <trkpt lat="32.7483181469142436981201171875" lon="-16.82286481373012065887451171875">
        <ele>537.5999755859375</ele>
        <time>2018-06-24T13:36:38.000Z</time>
      </trkpt>
      <trkpt lat="32.7483044005930423736572265625" lon="-16.82283103466033935546875">
        <ele>539</ele>
        <time>2018-06-24T13:36:42.000Z</time>
      </trkpt>
      <trkpt lat="32.7482966892421245574951171875" lon="-16.82279138825833797454833984375">
        <ele>540</ele>
        <time>2018-06-24T13:36:46.000Z</time>
      </trkpt>
      <trkpt lat="32.7482943423092365264892578125" lon="-16.82278049178421497344970703125">
        <ele>540.4000244140625</ele>
        <time>2018-06-24T13:36:47.000Z</time>
      </trkpt>
      <trkpt lat="32.748297192156314849853515625" lon="-16.822748221457004547119140625">
        <ele>541</ele>
        <time>2018-06-24T13:36:50.000Z</time>
      </trkpt>
      <trkpt lat="32.748294174671173095703125" lon="-16.82272684760391712188720703125">
        <ele>541.79998779296875</ele>
        <time>2018-06-24T13:36:52.000Z</time>
      </trkpt>
      <trkpt lat="32.748295851051807403564453125" lon="-16.82271980680525302886962890625">
        <ele>542.20001220703125</ele>
        <time>2018-06-24T13:36:53.000Z</time>
      </trkpt>
      <trkpt lat="32.7482769079506397247314453125" lon="-16.82270698249340057373046875">
        <ele>543.5999755859375</ele>
        <time>2018-06-24T13:36:58.000Z</time>
      </trkpt>
      <trkpt lat="32.748255617916584014892578125" lon="-16.82270203717052936553955078125">
        <ele>544.5999755859375</ele>
        <time>2018-06-24T13:37:04.000Z</time>
      </trkpt>
      <trkpt lat="32.74823273532092571258544921875" lon="-16.82270455174148082733154296875">
        <ele>546</ele>
        <time>2018-06-24T13:37:08.000Z</time>
      </trkpt>
      <trkpt lat="32.74819786660373210906982421875" lon="-16.82271796278655529022216796875">
        <ele>547.20001220703125</ele>
        <time>2018-06-24T13:37:13.000Z</time>
      </trkpt>
      <trkpt lat="32.74817355908453464508056640625" lon="-16.82272936217486858367919921875">
        <ele>548</ele>
        <time>2018-06-24T13:37:17.000Z</time>
      </trkpt>
      <trkpt lat="32.7481350861489772796630859375" lon="-16.8227460421621799468994140625">
        <ele>548.79998779296875</ele>
        <time>2018-06-24T13:37:21.000Z</time>
      </trkpt>
      <trkpt lat="32.7481265366077423095703125" lon="-16.82274361141026020050048828125">
        <ele>549.4000244140625</ele>
        <time>2018-06-24T13:37:22.000Z</time>
      </trkpt>
      <trkpt lat="32.748120836913585662841796875" lon="-16.822746209800243377685546875">
        <ele>549.5999755859375</ele>
        <time>2018-06-24T13:37:23.000Z</time>
      </trkpt>
      <trkpt lat="32.74808563292026519775390625" lon="-16.82276691310107707977294921875">
        <ele>550.5999755859375</ele>
        <time>2018-06-24T13:37:27.000Z</time>
      </trkpt>
      <trkpt lat="32.74805537424981594085693359375" lon="-16.82278568856418132781982421875">
        <ele>551.20001220703125</ele>
        <time>2018-06-24T13:37:31.000Z</time>
      </trkpt>
      <trkpt lat="32.7480492554605007171630859375" lon="-16.82279122062027454376220703125">
        <ele>551.5999755859375</ele>
        <time>2018-06-24T13:37:32.000Z</time>
      </trkpt>
      <trkpt lat="32.74802352301776409149169921875" lon="-16.82280580513179302215576171875">
        <ele>552.20001220703125</ele>
        <time>2018-06-24T13:37:35.000Z</time>
      </trkpt>
      <trkpt lat="32.74801195599138736724853515625" lon="-16.82281787507236003875732421875">
        <ele>552.79998779296875</ele>
        <time>2018-06-24T13:37:37.000Z</time>
      </trkpt>
      <trkpt lat="32.7479734830558300018310546875" lon="-16.82284670881927013397216796875">
        <ele>553.5999755859375</ele>
        <time>2018-06-24T13:37:41.000Z</time>
      </trkpt>
      <trkpt lat="32.74796568788588047027587890625" lon="-16.8228529952466487884521484375">
        <ele>553.5999755859375</ele>
        <time>2018-06-24T13:37:42.000Z</time>
      </trkpt>
      <trkpt lat="32.7479171566665172576904296875" lon="-16.82289331220090389251708984375">
        <ele>554.79998779296875</ele>
        <time>2018-06-24T13:37:47.000Z</time>
      </trkpt>
      <trkpt lat="32.747884802520275115966796875" lon="-16.82292683981359004974365234375">
        <ele>556</ele>
        <time>2018-06-24T13:37:53.000Z</time>
      </trkpt>
      <trkpt lat="32.7478591538965702056884765625" lon="-16.8229431845247745513916015625">
        <ele>556.5999755859375</ele>
        <time>2018-06-24T13:37:56.000Z</time>
      </trkpt>
      <trkpt lat="32.7478511072695255279541015625" lon="-16.82295106351375579833984375">
        <ele>557</ele>
        <time>2018-06-24T13:37:58.000Z</time>
      </trkpt>
      <trkpt lat="32.7478313259780406951904296875" lon="-16.82297394610941410064697265625">
        <ele>558.20001220703125</ele>
        <time>2018-06-24T13:38:02.000Z</time>
      </trkpt>
      <trkpt lat="32.74780609644949436187744140625" lon="-16.82300261221826076507568359375">
        <ele>559.4000244140625</ele>
        <time>2018-06-24T13:38:06.000Z</time>
      </trkpt>
      <trkpt lat="32.74780073203146457672119140625" lon="-16.82301417924463748931884765625">
        <ele>559.5999755859375</ele>
        <time>2018-06-24T13:38:07.000Z</time>
      </trkpt>
      <trkpt lat="32.74776670150458812713623046875" lon="-16.82304670102894306182861328125">
        <ele>560.20001220703125</ele>
        <time>2018-06-24T13:38:10.000Z</time>
      </trkpt>
      <trkpt lat="32.74774859659373760223388671875" lon="-16.82310420088469982147216796875">
        <ele>561.5999755859375</ele>
        <time>2018-06-24T13:38:15.000Z</time>
      </trkpt>
      <trkpt lat="32.7477451600134372711181640625" lon="-16.8231141753494739532470703125">
        <ele>561.79998779296875</ele>
        <time>2018-06-24T13:38:16.000Z</time>
      </trkpt>
      <trkpt lat="32.74773158133029937744140625" lon="-16.82315197773277759552001953125">
        <ele>562.5999755859375</ele>
        <time>2018-06-24T13:38:18.000Z</time>
      </trkpt>
      <trkpt lat="32.74771288968622684478759765625" lon="-16.82317980565130710601806640625">
        <ele>564</ele>
        <time>2018-06-24T13:38:22.000Z</time>
      </trkpt>
      <trkpt lat="32.74770534597337245941162109375" lon="-16.82318131439387798309326171875">
        <ele>565</ele>
        <time>2018-06-24T13:38:26.000Z</time>
      </trkpt>
      <trkpt lat="32.7476908452808856964111328125" lon="-16.8231684900820255279541015625">
        <ele>566</ele>
        <time>2018-06-24T13:38:31.000Z</time>
      </trkpt>
      <trkpt lat="32.7476529590785503387451171875" lon="-16.823200173676013946533203125">
        <ele>567</ele>
        <time>2018-06-24T13:38:38.000Z</time>
      </trkpt>
      <trkpt lat="32.74764306843280792236328125" lon="-16.82323873043060302734375">
        <ele>568.4000244140625</ele>
        <time>2018-06-24T13:38:42.000Z</time>
      </trkpt>
      <trkpt lat="32.74760283529758453369140625" lon="-16.82327368296682834625244140625">
        <ele>569.4000244140625</ele>
        <time>2018-06-24T13:38:46.000Z</time>
      </trkpt>
      <trkpt lat="32.7475981414318084716796875" lon="-16.823300085961818695068359375">
        <ele>570.4000244140625</ele>
        <time>2018-06-24T13:38:49.000Z</time>
      </trkpt>
      <trkpt lat="32.747597135603427886962890625" lon="-16.82331047952175140380859375">
        <ele>570.4000244140625</ele>
        <time>2018-06-24T13:38:50.000Z</time>
      </trkpt>
      <trkpt lat="32.7475667931139469146728515625" lon="-16.82335331104695796966552734375">
        <ele>571.79998779296875</ele>
        <time>2018-06-24T13:38:54.000Z</time>
      </trkpt>
      <trkpt lat="32.74756654165685176849365234375" lon="-16.82336789555847644805908203125">
        <ele>572.4000244140625</ele>
        <time>2018-06-24T13:38:56.000Z</time>
      </trkpt>
      <trkpt lat="32.7475594170391559600830078125" lon="-16.82338130660355091094970703125">
        <ele>573</ele>
        <time>2018-06-24T13:38:58.000Z</time>
      </trkpt>
      <trkpt lat="32.74754173122346401214599609375" lon="-16.82342112064361572265625">
        <ele>574.20001220703125</ele>
        <time>2018-06-24T13:39:03.000Z</time>
      </trkpt>
      <trkpt lat="32.74752731435000896453857421875" lon="-16.82344299741089344024658203125">
        <ele>575.4000244140625</ele>
        <time>2018-06-24T13:39:07.000Z</time>
      </trkpt>
      <trkpt lat="32.74751742370426654815673828125" lon="-16.8234836496412754058837890625">
        <ele>576.4000244140625</ele>
        <time>2018-06-24T13:39:12.000Z</time>
      </trkpt>
      <trkpt lat="32.7475069463253021240234375" lon="-16.8235212005674839019775390625">
        <ele>577.4000244140625</ele>
        <time>2018-06-24T13:39:16.000Z</time>
      </trkpt>
      <trkpt lat="32.74750669486820697784423828125" lon="-16.82352832518517971038818359375">
        <ele>577.79998779296875</ele>
        <time>2018-06-24T13:39:17.000Z</time>
      </trkpt>
      <trkpt lat="32.747489847242832183837890625" lon="-16.82356604374945163726806640625">
        <ele>578.79998779296875</ele>
        <time>2018-06-24T13:39:21.000Z</time>
      </trkpt>
      <trkpt lat="32.74746872484683990478515625" lon="-16.82360108010470867156982421875">
        <ele>579.5999755859375</ele>
        <time>2018-06-24T13:39:25.000Z</time>
      </trkpt>
      <trkpt lat="32.747447602450847625732421875" lon="-16.823639385402202606201171875">
        <ele>580.4000244140625</ele>
        <time>2018-06-24T13:39:28.000Z</time>
      </trkpt>
      <trkpt lat="32.74743226356804370880126953125" lon="-16.82366243563592433929443359375">
        <ele>580.79998779296875</ele>
        <time>2018-06-24T13:39:30.000Z</time>
      </trkpt>
      <trkpt lat="32.74746092967689037322998046875" lon="-16.8237230367958545684814453125">
        <ele>582</ele>
        <time>2018-06-24T13:39:34.000Z</time>
      </trkpt>
      <trkpt lat="32.74748615920543670654296875" lon="-16.82375396601855754852294921875">
        <ele>582.5999755859375</ele>
        <time>2018-06-24T13:39:37.000Z</time>
      </trkpt>
      <trkpt lat="32.74752345867455005645751953125" lon="-16.82377877645194530487060546875">
        <ele>583</ele>
        <time>2018-06-24T13:39:39.000Z</time>
      </trkpt>
      <trkpt lat="32.747564278542995452880859375" lon="-16.82382487691938877105712890625">
        <ele>584.4000244140625</ele>
        <time>2018-06-24T13:39:44.000Z</time>
      </trkpt>
      <trkpt lat="32.74759990163147449493408203125" lon="-16.8238762579858303070068359375">
        <ele>585.5999755859375</ele>
        <time>2018-06-24T13:39:49.000Z</time>
      </trkpt>
      <trkpt lat="32.7475973032414913177490234375" lon="-16.82390584610402584075927734375">
        <ele>586.4000244140625</ele>
        <time>2018-06-24T13:39:52.000Z</time>
      </trkpt>
      <trkpt lat="32.7475956268608570098876953125" lon="-16.82392948307096958160400390625">
        <ele>586.79998779296875</ele>
        <time>2018-06-24T13:39:54.000Z</time>
      </trkpt>
      <trkpt lat="32.74760124273598194122314453125" lon="-16.8239516951143741607666015625">
        <ele>587.4000244140625</ele>
        <time>2018-06-24T13:39:56.000Z</time>
      </trkpt>
      <trkpt lat="32.74760124273598194122314453125" lon="-16.8239749968051910400390625">
        <ele>587.5999755859375</ele>
        <time>2018-06-24T13:39:58.000Z</time>
      </trkpt>
      <trkpt lat="32.74760627187788486480712890625" lon="-16.8239843845367431640625">
        <ele>587.79998779296875</ele>
        <time>2018-06-24T13:39:59.000Z</time>
      </trkpt>
      <trkpt lat="32.747567631304264068603515625" lon="-16.82402872480452060699462890625">
        <ele>588.5999755859375</ele>
        <time>2018-06-24T13:40:03.000Z</time>
      </trkpt>
      <trkpt lat="32.747551538050174713134765625" lon="-16.8240378610789775848388671875">
        <ele>588.79998779296875</ele>
        <time>2018-06-24T13:40:04.000Z</time>
      </trkpt>
      <trkpt lat="32.747489847242832183837890625" lon="-16.82406476698815822601318359375">
        <ele>590</ele>
        <time>2018-06-24T13:40:08.000Z</time>
      </trkpt>
      <trkpt lat="32.74747903458774089813232421875" lon="-16.8240710534155368804931640625">
        <ele>590.20001220703125</ele>
        <time>2018-06-24T13:40:09.000Z</time>
      </trkpt>
      <trkpt lat="32.74742589332163333892822265625" lon="-16.8241029046475887298583984375">
        <ele>591.4000244140625</ele>
        <time>2018-06-24T13:40:14.000Z</time>
      </trkpt>
      <trkpt lat="32.74738213978707790374755859375" lon="-16.8241374380886554718017578125">
        <ele>592.4000244140625</ele>
        <time>2018-06-24T13:40:19.000Z</time>
      </trkpt>
      <trkpt lat="32.74733469821512699127197265625" lon="-16.824180521070957183837890625">
        <ele>593.5999755859375</ele>
        <time>2018-06-24T13:40:24.000Z</time>
      </trkpt>
      <trkpt lat="32.74731961078941822052001953125" lon="-16.824185550212860107421875">
        <ele>594.20001220703125</ele>
        <time>2018-06-24T13:40:26.000Z</time>
      </trkpt>
      <trkpt lat="32.74728490971028804779052734375" lon="-16.82423181831836700439453125">
        <ele>594.79998779296875</ele>
        <time>2018-06-24T13:40:33.000Z</time>
      </trkpt>
      <trkpt lat="32.7472682297229766845703125" lon="-16.8242698721587657928466796875">
        <ele>595</ele>
        <time>2018-06-24T13:40:37.000Z</time>
      </trkpt>
      <trkpt lat="32.7471772022545337677001953125" lon="-16.8243104405701160430908203125">
        <ele>600</ele>
        <time>2018-06-23T08:36:10.000Z</time>
      </trkpt>
      <trkpt lat="32.7471584267914295196533203125" lon="-16.8243255279958248138427734375">
        <ele>599.5999755859375</ele>
        <time>2018-06-23T08:36:12.000Z</time>
      </trkpt>
      <trkpt lat="32.746972180902957916259765625" lon="-16.8243424594402313232421875">
        <ele>599.5999755859375</ele>
        <time>2018-06-23T08:36:20.000Z</time>
      </trkpt>
      <trkpt lat="32.74687218479812145233154296875" lon="-16.824273727834224700927734375">
        <ele>599</ele>
        <time>2018-06-23T08:36:24.000Z</time>
      </trkpt>
      <trkpt lat="32.746830694377422332763671875" lon="-16.824138946831226348876953125">
        <ele>597.79998779296875</ele>
        <time>2018-06-23T08:36:28.000Z</time>
      </trkpt>
      <trkpt lat="32.74681828916072845458984375" lon="-16.823949851095676422119140625">
        <ele>596.5999755859375</ele>
        <time>2018-06-23T08:36:33.000Z</time>
      </trkpt>
      <trkpt lat="32.7467051334679126739501953125" lon="-16.82377492077648639678955078125">
        <ele>596.20001220703125</ele>
        <time>2018-06-23T08:36:39.000Z</time>
      </trkpt>
      <trkpt lat="32.7465260960161685943603515625" lon="-16.823674254119396209716796875">
        <ele>595.5999755859375</ele>
        <time>2018-06-23T08:36:45.000Z</time>
      </trkpt>
      <trkpt lat="32.74632585234940052032470703125" lon="-16.823625303804874420166015625">
        <ele>595.4000244140625</ele>
        <time>2018-06-23T08:36:52.000Z</time>
      </trkpt>
      <trkpt lat="32.74615519680082798004150390625" lon="-16.82353100739419460296630859375">
        <ele>595.4000244140625</ele>
        <time>2018-06-23T08:36:58.000Z</time>
      </trkpt>
      <trkpt lat="32.7459983713924884796142578125" lon="-16.8234179355204105377197265625">
        <ele>595</ele>
        <time>2018-06-23T08:37:04.000Z</time>
      </trkpt>
      <trkpt lat="32.745845317840576171875" lon="-16.82325708679854869842529296875">
        <ele>594.5999755859375</ele>
        <time>2018-06-23T08:37:11.000Z</time>
      </trkpt>
      <trkpt lat="32.74575135670602321624755859375" lon="-16.8230628781020641326904296875">
        <ele>594</ele>
        <time>2018-06-23T08:37:17.000Z</time>
      </trkpt>
      <trkpt lat="32.74567239917814731597900390625" lon="-16.82287738658487796783447265625">
        <ele>593.4000244140625</ele>
        <time>2018-06-23T08:37:23.000Z</time>
      </trkpt>
      <trkpt lat="32.7456305734813213348388671875" lon="-16.82266381569206714630126953125">
        <ele>592.5999755859375</ele>
        <time>2018-06-23T08:37:30.000Z</time>
      </trkpt>
      <trkpt lat="32.74560324847698211669921875" lon="-16.822600029408931732177734375">
        <ele>592.4000244140625</ele>
        <time>2018-06-23T08:37:32.000Z</time>
      </trkpt>
      <trkpt lat="32.74546788074076175689697265625" lon="-16.82244814932346343994140625">
        <ele>592.4000244140625</ele>
        <time>2018-06-23T08:37:38.000Z</time>
      </trkpt>
      <trkpt lat="32.74537383578717708587646484375" lon="-16.8224201537668704986572265625">
        <ele>592.20001220703125</ele>
        <time>2018-06-23T08:37:42.000Z</time>
      </trkpt>
      <trkpt lat="32.7451883442699909210205078125" lon="-16.82242610491812229156494140625">
        <ele>592.4000244140625</ele>
        <time>2018-06-23T08:37:48.000Z</time>
      </trkpt>
      <trkpt lat="32.74499178864061832427978515625" lon="-16.82238905690610408782958984375">
        <ele>592.4000244140625</ele>
        <time>2018-06-23T08:37:55.000Z</time>
      </trkpt>
      <trkpt lat="32.74479313753545284271240234375" lon="-16.82236969470977783203125">
        <ele>592.5999755859375</ele>
        <time>2018-06-23T08:38:02.000Z</time>
      </trkpt>
      <trkpt lat="32.74461259134113788604736328125" lon="-16.8222914077341556549072265625">
        <ele>593</ele>
        <time>2018-06-23T08:38:08.000Z</time>
      </trkpt>
      <trkpt lat="32.74456900544464588165283203125" lon="-16.82207993231713771820068359375">
        <ele>593</ele>
        <time>2018-06-23T08:38:15.000Z</time>
      </trkpt>
      <trkpt lat="32.74461979977786540985107421875" lon="-16.821850351989269256591796875">
        <ele>592.4000244140625</ele>
        <time>2018-06-23T08:38:22.000Z</time>
      </trkpt>
      <trkpt lat="32.74464293383061885833740234375" lon="-16.82161574251949787139892578125">
        <ele>591.5999755859375</ele>
        <time>2018-06-23T08:38:29.000Z</time>
      </trkpt>
      <trkpt lat="32.74463740177452564239501953125" lon="-16.82157970033586025238037109375">
        <ele>591.4000244140625</ele>
        <time>2018-06-23T08:38:30.000Z</time>
      </trkpt>
      <trkpt lat="32.744592726230621337890625" lon="-16.82136529125273227691650390625">
        <ele>590.79998779296875</ele>
        <time>2018-06-23T08:38:36.000Z</time>
      </trkpt>
      <trkpt lat="32.74455877952277660369873046875" lon="-16.8212606012821197509765625">
        <ele>590.4000244140625</ele>
        <time>2018-06-23T08:38:39.000Z</time>
      </trkpt>
      <trkpt lat="32.74445031769573688507080078125" lon="-16.8210782110691070556640625">
        <ele>590.20001220703125</ele>
        <time>2018-06-23T08:38:45.000Z</time>
      </trkpt>
      <trkpt lat="32.7443038858473300933837890625" lon="-16.82094686664640903472900390625">
        <ele>590</ele>
        <time>2018-06-23T08:38:51.000Z</time>
      </trkpt>
      <trkpt lat="32.744137756526470184326171875" lon="-16.8208570964634418487548828125">
        <ele>589.5999755859375</ele>
        <time>2018-06-23T08:38:57.000Z</time>
      </trkpt>
      <trkpt lat="32.74400054477155208587646484375" lon="-16.82077906094491481781005859375">
        <ele>589.4000244140625</ele>
        <time>2018-06-23T08:39:02.000Z</time>
      </trkpt>
      <trkpt lat="32.74382301606237888336181640625" lon="-16.8207293562591075897216796875">
        <ele>589</ele>
        <time>2018-06-23T08:39:08.000Z</time>
      </trkpt>
      <trkpt lat="32.74369024671614170074462890625" lon="-16.820544116199016571044921875">
        <ele>588.4000244140625</ele>
        <time>2018-06-23T08:39:15.000Z</time>
      </trkpt>
      <trkpt lat="32.7436732314527034759521484375" lon="-16.820516288280487060546875">
        <ele>588.20001220703125</ele>
        <time>2018-06-23T08:39:16.000Z</time>
      </trkpt>
      <trkpt lat="32.74353124201297760009765625" lon="-16.82038159109652042388916015625">
        <ele>588.20001220703125</ele>
        <time>2018-06-23T08:39:22.000Z</time>
      </trkpt>
      <trkpt lat="32.74345957674086093902587890625" lon="-16.8201570399105548858642578125">
        <ele>587.20001220703125</ele>
        <time>2018-06-23T08:39:29.000Z</time>
      </trkpt>
      <trkpt lat="32.7433617599308490753173828125" lon="-16.81996165774762630462646484375">
        <ele>586.5999755859375</ele>
        <time>2018-06-23T08:39:36.000Z</time>
      </trkpt>
      <trkpt lat="32.7432288229465484619140625" lon="-16.81985436938703060150146484375">
        <ele>586.20001220703125</ele>
        <time>2018-06-23T08:39:41.000Z</time>
      </trkpt>
      <trkpt lat="32.74304450489580631256103515625" lon="-16.81973786093294620513916015625">
        <ele>586</ele>
        <time>2018-06-23T08:39:48.000Z</time>
      </trkpt>
      <trkpt lat="32.74286203086376190185546875" lon="-16.81965823285281658172607421875">
        <ele>585.5999755859375</ele>
        <time>2018-06-23T08:39:56.000Z</time>
      </trkpt>
      <trkpt lat="32.7426818199455738067626953125" lon="-16.81972973048686981201171875">
        <ele>585.5999755859375</ele>
        <time>2018-06-23T08:40:04.000Z</time>
      </trkpt>
      <trkpt lat="32.74247520603239536285400390625" lon="-16.81977264583110809326171875">
        <ele>585.5999755859375</ele>
        <time>2018-06-23T08:40:11.000Z</time>
      </trkpt>
      <trkpt lat="32.74227789603173732757568359375" lon="-16.81974314153194427490234375">
        <ele>585.5999755859375</ele>
        <time>2018-06-23T08:40:17.000Z</time>
      </trkpt>
      <trkpt lat="32.74208008311688899993896484375" lon="-16.81974138133227825164794921875">
        <ele>585.4000244140625</ele>
        <time>2018-06-23T08:40:23.000Z</time>
      </trkpt>
      <trkpt lat="32.74200816638767719268798828125" lon="-16.8195760063827037811279296875">
        <ele>585.20001220703125</ele>
        <time>2018-06-23T08:40:28.000Z</time>
      </trkpt>
      <trkpt lat="32.742142193019390106201171875" lon="-16.81939445436000823974609375">
        <ele>584.4000244140625</ele>
        <time>2018-06-23T08:40:34.000Z</time>
      </trkpt>
      <trkpt lat="32.74224135093390941619873046875" lon="-16.8193178437650203704833984375">
        <ele>584</ele>
        <time>2018-06-23T08:40:38.000Z</time>
      </trkpt>
      <trkpt lat="32.7424092404544353485107421875" lon="-16.81922019459307193756103515625">
        <ele>583.5999755859375</ele>
        <time>2018-06-23T08:40:44.000Z</time>
      </trkpt>
      <trkpt lat="32.74252650327980518341064453125" lon="-16.81917317211627960205078125">
        <ele>583</ele>
        <time>2018-06-23T08:40:48.000Z</time>
      </trkpt>
      <trkpt lat="32.7427009306848049163818359375" lon="-16.81910812854766845703125">
        <ele>582.4000244140625</ele>
        <time>2018-06-23T08:40:54.000Z</time>
      </trkpt>
      <trkpt lat="32.74281634949147701263427734375" lon="-16.8189513869583606719970703125">
        <ele>582.5999755859375</ele>
        <time>2018-06-23T08:41:01.000Z</time>
      </trkpt>
      <trkpt lat="32.7429091371595859527587890625" lon="-16.81874762289226055145263671875">
        <ele>582</ele>
        <time>2018-06-23T08:41:08.000Z</time>
      </trkpt>
      <trkpt lat="32.7429232187569141387939453125" lon="-16.81871811859309673309326171875">
        <ele>581.79998779296875</ele>
        <time>2018-06-23T08:41:09.000Z</time>
      </trkpt>
      <trkpt lat="32.742940485477447509765625" lon="-16.81852282024919986724853515625">
        <ele>580.5999755859375</ele>
        <time>2018-06-23T08:41:14.000Z</time>
      </trkpt>
      <trkpt lat="32.74288189597427845001220703125" lon="-16.81832182221114635467529296875">
        <ele>580</ele>
        <time>2018-06-23T08:41:19.000Z</time>
      </trkpt>
      <trkpt lat="32.742848284542560577392578125" lon="-16.8182067386806011199951171875">
        <ele>579.20001220703125</ele>
        <time>2018-06-23T08:41:22.000Z</time>
      </trkpt>
      <trkpt lat="32.7428799681365489959716796875" lon="-16.817973889410495758056640625">
        <ele>578.20001220703125</ele>
        <time>2018-06-23T08:41:28.000Z</time>
      </trkpt>
      <trkpt lat="32.743026316165924072265625" lon="-16.81779921054840087890625">
        <ele>577</ele>
        <time>2018-06-23T08:41:34.000Z</time>
      </trkpt>
      <trkpt lat="32.7431364543735980987548828125" lon="-16.81764909066259860992431640625">
        <ele>575.79998779296875</ele>
        <time>2018-06-23T08:41:39.000Z</time>
      </trkpt>
      <trkpt lat="32.74319722317159175872802734375" lon="-16.81755437515676021575927734375">
        <ele>574.79998779296875</ele>
        <time>2018-06-23T08:41:42.000Z</time>
      </trkpt>
      <trkpt lat="32.74330534972250461578369140625" lon="-16.81735874153673648834228515625">
        <ele>573.5999755859375</ele>
        <time>2018-06-23T08:41:48.000Z</time>
      </trkpt>
      <trkpt lat="32.743396125733852386474609375" lon="-16.8172488547861576080322265625">
        <ele>572.5999755859375</ele>
        <time>2018-06-23T08:41:52.000Z</time>
      </trkpt>
      <trkpt lat="32.74351942352950572967529296875" lon="-16.817120276391506195068359375">
        <ele>571.4000244140625</ele>
        <time>2018-06-23T08:41:57.000Z</time>
      </trkpt>
      <trkpt lat="32.74363584816455841064453125" lon="-16.81694635190069675445556640625">
        <ele>570.5999755859375</ele>
        <time>2018-06-23T08:42:03.000Z</time>
      </trkpt>
      <trkpt lat="32.743712626397609710693359375" lon="-16.81679111905395984649658203125">
        <ele>572.4000244140625</ele>
        <time>2018-06-23T08:42:09.000Z</time>
      </trkpt>
      <trkpt lat="32.743744142353534698486328125" lon="-16.81675004772841930389404296875">
        <ele>573.5999755859375</ele>
        <time>2018-06-23T08:42:11.000Z</time>
      </trkpt>
      <trkpt lat="32.74377356283366680145263671875" lon="-16.8167196214199066162109375">
        <ele>574.5999755859375</ele>
        <time>2018-06-23T08:42:13.000Z</time>
      </trkpt>
      <trkpt lat="32.7438167296350002288818359375" lon="-16.81667410768568515777587890625">
        <ele>576</ele>
        <time>2018-06-23T08:42:16.000Z</time>
      </trkpt>
      <trkpt lat="32.74385268799960613250732421875" lon="-16.8166289292275905609130859375">
        <ele>577.4000244140625</ele>
        <time>2018-06-23T08:42:19.000Z</time>
      </trkpt>
      <trkpt lat="32.74386710487306118011474609375" lon="-16.8165742792189121246337890625">
        <ele>578.5999755859375</ele>
        <time>2018-06-23T08:42:22.000Z</time>
      </trkpt>
      <trkpt lat="32.743872217833995819091796875" lon="-16.81653379462659358978271484375">
        <ele>579.5999755859375</ele>
        <time>2018-06-23T08:42:24.000Z</time>
      </trkpt>
      <trkpt lat="32.7438911609351634979248046875" lon="-16.81648048572242259979248046875">
        <ele>580.79998779296875</ele>
        <time>2018-06-23T08:42:27.000Z</time>
      </trkpt>
      <trkpt lat="32.74392611347138881683349609375" lon="-16.81641477160155773162841796875">
        <ele>582.20001220703125</ele>
        <time>2018-06-23T08:42:30.000Z</time>
      </trkpt>
      <trkpt lat="32.74396014399826526641845703125" lon="-16.81634872220456600189208984375">
        <ele>583.4000244140625</ele>
        <time>2018-06-23T08:42:33.000Z</time>
      </trkpt>
      <trkpt lat="32.74400305934250354766845703125" lon="-16.81626523844897747039794921875">
        <ele>584.4000244140625</ele>
        <time>2018-06-23T08:42:37.000Z</time>
      </trkpt>
      <trkpt lat="32.7440769039094448089599609375" lon="-16.81614571250975131988525390625">
        <ele>585.5999755859375</ele>
        <time>2018-06-23T08:42:43.000Z</time>
      </trkpt>
      <trkpt lat="32.744130380451679229736328125" lon="-16.81603590957820415496826171875">
        <ele>586.79998779296875</ele>
        <time>2018-06-23T08:42:48.000Z</time>
      </trkpt>
      <trkpt lat="32.7441664226353168487548828125" lon="-16.8159567005932331085205078125">
        <ele>587.4000244140625</ele>
        <time>2018-06-23T08:42:52.000Z</time>
      </trkpt>
      <trkpt lat="32.744204811751842498779296875" lon="-16.81595527566969394683837890625">
        <ele>587.79998779296875</ele>
        <time>2018-06-23T08:42:55.000Z</time>
      </trkpt>
      <trkpt lat="32.74421948008239269256591796875" lon="-16.81595326401293277740478515625">
        <ele>588.79998779296875</ele>
        <time>2018-06-23T08:42:57.000Z</time>
      </trkpt>
      <trkpt lat="32.74423171766102313995361328125" lon="-16.81595996953547000885009765625">
        <ele>590.4000244140625</ele>
        <time>2018-06-23T08:43:00.000Z</time>
      </trkpt>
      <trkpt lat="32.74424512870609760284423828125" lon="-16.81597840972244739532470703125">
        <ele>591.79998779296875</ele>
        <time>2018-06-23T08:43:03.000Z</time>
      </trkpt>
      <trkpt lat="32.74426474235951900482177734375" lon="-16.81598377414047718048095703125">
        <ele>592.79998779296875</ele>
        <time>2018-06-23T08:43:05.000Z</time>
      </trkpt>
      <trkpt lat="32.74428335018455982208251953125" lon="-16.81598913855850696563720703125">
        <ele>593.79998779296875</ele>
        <time>2018-06-23T08:43:07.000Z</time>
      </trkpt>
      <trkpt lat="32.744304724037647247314453125" lon="-16.815985701978206634521484375">
        <ele>595.4000244140625</ele>
        <time>2018-06-23T08:43:10.000Z</time>
      </trkpt>
      <trkpt lat="32.74431905709207057952880859375" lon="-16.815978996455669403076171875">
        <ele>596.4000244140625</ele>
        <time>2018-06-23T08:43:12.000Z</time>
      </trkpt>
      <trkpt lat="32.7443283610045909881591796875" lon="-16.81596927344799041748046875">
        <ele>597.5999755859375</ele>
        <time>2018-06-23T08:43:14.000Z</time>
      </trkpt>
      <trkpt lat="32.74432559497654438018798828125" lon="-16.81595561094582080841064453125">
        <ele>598.5999755859375</ele>
        <time>2018-06-23T08:43:16.000Z</time>
      </trkpt>
      <trkpt lat="32.7443340606987476348876953125" lon="-16.81592694483697414398193359375">
        <ele>600.20001220703125</ele>
        <time>2018-06-23T08:43:19.000Z</time>
      </trkpt>
      <trkpt lat="32.744335569441318511962890625" lon="-16.8159033916890621185302734375">
        <ele>601.5999755859375</ele>
        <time>2018-06-23T08:43:22.000Z</time>
      </trkpt>
      <trkpt lat="32.7443446218967437744140625" lon="-16.81590498425066471099853515625">
        <ele>602.5999755859375</ele>
        <time>2018-06-23T08:43:24.000Z</time>
      </trkpt>
      <trkpt lat="32.7443635649979114532470703125" lon="-16.8159230053424835205078125">
        <ele>603.79998779296875</ele>
        <time>2018-06-23T08:43:27.000Z</time>
      </trkpt>
      <trkpt lat="32.7443937398493289947509765625" lon="-16.81592979468405246734619140625">
        <ele>605</ele>
        <time>2018-06-23T08:43:30.000Z</time>
      </trkpt>
      <trkpt lat="32.7444094978272914886474609375" lon="-16.8159617297351360321044921875">
        <ele>606.4000244140625</ele>
        <time>2018-06-23T08:43:33.000Z</time>
      </trkpt>
      <trkpt lat="32.74442533962428569793701171875" lon="-16.8159805051982402801513671875">
        <ele>607.5999755859375</ele>
        <time>2018-06-23T08:43:36.000Z</time>
      </trkpt>
      <trkpt lat="32.7444296143949031829833984375" lon="-16.8159808404743671417236328125">
        <ele>608</ele>
        <time>2018-06-23T08:43:37.000Z</time>
      </trkpt>
      <trkpt lat="32.74444361217319965362548828125" lon="-16.815983690321445465087890625">
        <ele>608.79998779296875</ele>
        <time>2018-06-23T08:43:39.000Z</time>
      </trkpt>
      <trkpt lat="32.7444534189999103546142578125" lon="-16.8159805051982402801513671875">
        <ele>609.79998779296875</ele>
        <time>2018-06-23T08:43:41.000Z</time>
      </trkpt>
      <trkpt lat="32.7444631420075893402099609375" lon="-16.81598939001560211181640625">
        <ele>611</ele>
        <time>2018-06-23T08:43:44.000Z</time>
      </trkpt>
      <trkpt lat="32.744479738175868988037109375" lon="-16.8160147033631801605224609375">
        <ele>612.20001220703125</ele>
        <time>2018-06-23T08:43:47.000Z</time>
      </trkpt>
      <trkpt lat="32.74449692107737064361572265625" lon="-16.816029958426952362060546875">
        <ele>613.4000244140625</ele>
        <time>2018-06-23T08:43:50.000Z</time>
      </trkpt>
      <trkpt lat="32.74451687000691890716552734375" lon="-16.81604227982461452484130859375">
        <ele>614.5999755859375</ele>
        <time>2018-06-23T08:43:53.000Z</time>
      </trkpt>
      <trkpt lat="32.744527347385883331298828125" lon="-16.81605434976518154144287109375">
        <ele>615.79998779296875</ele>
        <time>2018-06-23T08:43:56.000Z</time>
      </trkpt>
      <trkpt lat="32.74454318918287754058837890625" lon="-16.816062144935131072998046875">
        <ele>617.20001220703125</ele>
        <time>2018-06-23T08:43:59.000Z</time>
      </trkpt>
      <trkpt lat="32.74456095881760120391845703125" lon="-16.81606809608638286590576171875">
        <ele>618.4000244140625</ele>
        <time>2018-06-23T08:44:02.000Z</time>
      </trkpt>
      <trkpt lat="32.74459071457386016845703125" lon="-16.8160784058272838592529296875">
        <ele>619.5999755859375</ele>
        <time>2018-06-23T08:44:06.000Z</time>
      </trkpt>
      <trkpt lat="32.74461929686367511749267578125" lon="-16.8160495720803737640380859375">
        <ele>620.5999755859375</ele>
        <time>2018-06-23T08:44:10.000Z</time>
      </trkpt>
      <trkpt lat="32.74462558329105377197265625" lon="-16.81603540666401386260986328125">
        <ele>620.79998779296875</ele>
        <time>2018-06-23T08:44:11.000Z</time>
      </trkpt>
      <trkpt lat="32.74463153444230556488037109375" lon="-16.81602157652378082275390625">
        <ele>621.20001220703125</ele>
        <time>2018-06-23T08:44:12.000Z</time>
      </trkpt>
      <trkpt lat="32.7446592785418033599853515625" lon="-16.81598226539790630340576171875">
        <ele>622.20001220703125</ele>
        <time>2018-06-23T08:44:15.000Z</time>
      </trkpt>
      <trkpt lat="32.7446700073778629302978515625" lon="-16.81592996232211589813232421875">
        <ele>623.20001220703125</ele>
        <time>2018-06-23T08:44:18.000Z</time>
      </trkpt>
      <trkpt lat="32.74468190968036651611328125" lon="-16.8158614821732044219970703125">
        <ele>624.5999755859375</ele>
        <time>2018-06-23T08:44:22.000Z</time>
      </trkpt>
      <trkpt lat="32.7447038702666759490966796875" lon="-16.81581630371510982513427734375">
        <ele>625.5999755859375</ele>
        <time>2018-06-23T08:44:25.000Z</time>
      </trkpt>
      <trkpt lat="32.744715102016925811767578125" lon="-16.8157568760216236114501953125">
        <ele>627</ele>
        <time>2018-06-23T08:44:29.000Z</time>
      </trkpt>
      <trkpt lat="32.74472214281558990478515625" lon="-16.81572376750409603118896484375">
        <ele>628</ele>
        <time>2018-06-23T08:44:32.000Z</time>
      </trkpt>
      <trkpt lat="32.744727842509746551513671875" lon="-16.8156888149678707122802734375">
        <ele>629.20001220703125</ele>
        <time>2018-06-23T08:44:35.000Z</time>
      </trkpt>
      <trkpt lat="32.74474049918353557586669921875" lon="-16.815666519105434417724609375">
        <ele>630.4000244140625</ele>
        <time>2018-06-23T08:44:38.000Z</time>
      </trkpt>
      <trkpt lat="32.7447501383721828460693359375" lon="-16.815645061433315277099609375">
        <ele>631.5999755859375</ele>
        <time>2018-06-23T08:44:41.000Z</time>
      </trkpt>
      <trkpt lat="32.74475944228470325469970703125" lon="-16.81562569923698902130126953125">
        <ele>632.5999755859375</ele>
        <time>2018-06-23T08:44:44.000Z</time>
      </trkpt>
      <trkpt lat="32.74476430378854274749755859375" lon="-16.81559200398623943328857421875">
        <ele>633.79998779296875</ele>
        <time>2018-06-23T08:44:47.000Z</time>
      </trkpt>
      <trkpt lat="32.74477050639688968658447265625" lon="-16.815547831356525421142578125">
        <ele>635</ele>
        <time>2018-06-23T08:44:50.000Z</time>
      </trkpt>
      <trkpt lat="32.7447702549397945404052734375" lon="-16.8155017308890819549560546875">
        <ele>636</ele>
        <time>2018-06-23T08:44:53.000Z</time>
      </trkpt>
      <trkpt lat="32.74476983584463596343994140625" lon="-16.815444566309452056884765625">
        <ele>637.20001220703125</ele>
        <time>2018-06-23T08:44:57.000Z</time>
      </trkpt>
      <trkpt lat="32.744759023189544677734375" lon="-16.815398633480072021484375">
        <ele>638.4000244140625</ele>
        <time>2018-06-23T08:45:01.000Z</time>
      </trkpt>
      <trkpt lat="32.744756676256656646728515625" lon="-16.81536979973316192626953125">
        <ele>639.4000244140625</ele>
        <time>2018-06-23T08:45:04.000Z</time>
      </trkpt>
      <trkpt lat="32.74474552832543849945068359375" lon="-16.815342642366886138916015625">
        <ele>640.5999755859375</ele>
        <time>2018-06-23T08:45:07.000Z</time>
      </trkpt>
      <trkpt lat="32.74473362602293491363525390625" lon="-16.815320514142513275146484375">
        <ele>641.5999755859375</ele>
        <time>2018-06-23T08:45:10.000Z</time>
      </trkpt>
      <trkpt lat="32.74472876451909542083740234375" lon="-16.81529830209910869598388671875">
        <ele>642.79998779296875</ele>
        <time>2018-06-23T08:45:13.000Z</time>
      </trkpt>
      <trkpt lat="32.74472616612911224365234375" lon="-16.81527592241764068603515625">
        <ele>644</ele>
        <time>2018-06-23T08:45:16.000Z</time>
      </trkpt>
      <trkpt lat="32.74472541175782680511474609375" lon="-16.81524281390011310577392578125">
        <ele>645.4000244140625</ele>
        <time>2018-06-23T08:45:20.000Z</time>
      </trkpt>
      <trkpt lat="32.74471987970173358917236328125" lon="-16.8152164109051227569580078125">
        <ele>646.5999755859375</ele>
        <time>2018-06-23T08:45:23.000Z</time>
      </trkpt>
      <trkpt lat="32.74471811950206756591796875" lon="-16.81517961435019969940185546875">
        <ele>647.79998779296875</ele>
        <time>2018-06-23T08:45:27.000Z</time>
      </trkpt>
      <trkpt lat="32.744717784225940704345703125" lon="-16.81516368873417377471923828125">
        <ele>648.79998779296875</ele>
        <time>2018-06-23T08:45:30.000Z</time>
      </trkpt>
      <trkpt lat="32.74471543729305267333984375" lon="-16.8151449970901012420654296875">
        <ele>649.79998779296875</ele>
        <time>2018-06-23T08:45:33.000Z</time>
      </trkpt>
      <trkpt lat="32.74471149779856204986572265625" lon="-16.81511809118092060089111328125">
        <ele>651.20001220703125</ele>
        <time>2018-06-23T08:45:37.000Z</time>
      </trkpt>
      <trkpt lat="32.744707725942134857177734375" lon="-16.8150995671749114990234375">
        <ele>652.20001220703125</ele>
        <time>2018-06-23T08:45:40.000Z</time>
      </trkpt>
      <trkpt lat="32.74470563046634197235107421875" lon="-16.81507282890379428863525390625">
        <ele>653.4000244140625</ele>
        <time>2018-06-23T08:45:43.000Z</time>
      </trkpt>
      <trkpt lat="32.7447042055428028106689453125" lon="-16.81504726409912109375">
        <ele>654.4000244140625</ele>
        <time>2018-06-23T08:45:46.000Z</time>
      </trkpt>
      <trkpt lat="32.74470261298120021820068359375" lon="-16.8150303326547145843505859375">
        <ele>655.5999755859375</ele>
        <time>2018-06-23T08:45:49.000Z</time>
      </trkpt>
      <trkpt lat="32.74469808675348758697509765625" lon="-16.81500376202166080474853515625">
        <ele>657</ele>
        <time>2018-06-23T08:45:53.000Z</time>
      </trkpt>
      <trkpt lat="32.7446933090686798095703125" lon="-16.8149743415415287017822265625">
        <ele>658</ele>
        <time>2018-06-23T08:45:57.000Z</time>
      </trkpt>
      <trkpt lat="32.744701020419597625732421875" lon="-16.81495162658393383026123046875">
        <ele>658.79998779296875</ele>
        <time>2018-06-23T08:45:59.000Z</time>
      </trkpt>
      <trkpt lat="32.7447067201137542724609375" lon="-16.8149413168430328369140625">
        <ele>659.20001220703125</ele>
        <time>2018-06-23T08:46:00.000Z</time>
      </trkpt>
      <trkpt lat="32.74471149779856204986572265625" lon="-16.81491306982934474945068359375">
        <ele>660.20001220703125</ele>
        <time>2018-06-23T08:46:03.000Z</time>
      </trkpt>
      <trkpt lat="32.74471736513078212738037109375" lon="-16.81486965157091617584228515625">
        <ele>661.4000244140625</ele>
        <time>2018-06-23T08:46:07.000Z</time>
      </trkpt>
      <trkpt lat="32.7447209693491458892822265625" lon="-16.814861185848712921142578125">
        <ele>661.79998779296875</ele>
        <time>2018-06-23T08:46:08.000Z</time>
      </trkpt>
      <trkpt lat="32.74473262019455432891845703125" lon="-16.81484274566173553466796875">
        <ele>662.5999755859375</ele>
        <time>2018-06-23T08:46:10.000Z</time>
      </trkpt>
      <trkpt lat="32.74474921636283397674560546875" lon="-16.814831010997295379638671875">
        <ele>663.4000244140625</ele>
        <time>2018-06-23T08:46:12.000Z</time>
      </trkpt>
      <trkpt lat="32.744758017361164093017578125" lon="-16.81483075954020023345947265625">
        <ele>663.79998779296875</ele>
        <time>2018-06-23T08:46:13.000Z</time>
      </trkpt>
      <trkpt lat="32.74477134458720684051513671875" lon="-16.81481852196156978607177734375">
        <ele>665</ele>
        <time>2018-06-23T08:46:16.000Z</time>
      </trkpt>
      <trkpt lat="32.7447576820850372314453125" lon="-16.81477208621799945831298828125">
        <ele>665.4000244140625</ele>
        <time>2018-06-23T08:46:20.000Z</time>
      </trkpt>
      <trkpt lat="32.7447149343788623809814453125" lon="-16.8146286718547344207763671875">
        <ele>665.5999755859375</ele>
        <time>2018-06-23T08:46:27.000Z</time>
      </trkpt>
      <trkpt lat="32.74475106038153171539306640625" lon="-16.81455683894455432891845703125">
        <ele>665.4000244140625</ele>
        <time>2018-06-23T08:46:30.000Z</time>
      </trkpt>
      <trkpt lat="32.74461577646434307098388671875" lon="-16.8144075572490692138671875">
        <ele>664.20001220703125</ele>
        <time>2018-06-23T08:46:37.000Z</time>
      </trkpt>
      <trkpt lat="32.74456732906401157379150390625" lon="-16.81437009014189243316650390625">
        <ele>663.5999755859375</ele>
        <time>2018-06-23T08:46:39.000Z</time>
      </trkpt>
      <trkpt lat="32.74445450864732265472412109375" lon="-16.81429884396493434906005859375">
        <ele>662.5999755859375</ele>
        <time>2018-06-23T08:46:43.000Z</time>
      </trkpt>
      <trkpt lat="32.74437186308205127716064453125" lon="-16.81424369104206562042236328125">
        <ele>661.4000244140625</ele>
        <time>2018-06-23T08:46:46.000Z</time>
      </trkpt>
      <trkpt lat="32.7442398481070995330810546875" lon="-16.81418987922370433807373046875">
        <ele>660.20001220703125</ele>
        <time>2018-06-23T08:46:51.000Z</time>
      </trkpt>
      <trkpt lat="32.74410582147538661956787109375" lon="-16.8141525797545909881591796875">
        <ele>659</ele>
        <time>2018-06-23T08:46:56.000Z</time>
      </trkpt>
      <trkpt lat="32.7440012991428375244140625" lon="-16.81412366218864917755126953125">
        <ele>657.5999755859375</ele>
        <time>2018-06-23T08:47:00.000Z</time>
      </trkpt>
      <trkpt lat="32.74391152895987033843994140625" lon="-16.81412525475025177001953125">
        <ele>656.4000244140625</ele>
        <time>2018-06-23T08:47:03.000Z</time>
      </trkpt>
      <trkpt lat="32.7438150532543659210205078125" lon="-16.81412793695926666259765625">
        <ele>655.4000244140625</ele>
        <time>2018-06-23T08:47:06.000Z</time>
      </trkpt>
      <trkpt lat="32.74376182816922664642333984375" lon="-16.81410052813589572906494140625">
        <ele>654.20001220703125</ele>
        <time>2018-06-23T08:47:08.000Z</time>
      </trkpt>
      <trkpt lat="32.74372897110879421234130859375" lon="-16.81404185481369495391845703125">
        <ele>653</ele>
        <time>2018-06-23T08:47:10.000Z</time>
      </trkpt>
      <trkpt lat="32.743717990815639495849609375" lon="-16.8139725364744663238525390625">
        <ele>651.79998779296875</ele>
        <time>2018-06-23T08:47:12.000Z</time>
      </trkpt>
      <trkpt lat="32.7437040768563747406005859375" lon="-16.8138997815549373626708984375">
        <ele>650.79998779296875</ele>
        <time>2018-06-23T08:47:14.000Z</time>
      </trkpt>
      <trkpt lat="32.74368002079427242279052734375" lon="-16.81382845155894756317138671875">
        <ele>649.20001220703125</ele>
        <time>2018-06-23T08:47:16.000Z</time>
      </trkpt>
      <trkpt lat="32.7436511032283306121826171875" lon="-16.81376181542873382568359375">
        <ele>647.5999755859375</ele>
        <time>2018-06-23T08:47:18.000Z</time>
      </trkpt>
      <trkpt lat="32.74361497722566127777099609375" lon="-16.813700459897518157958984375">
        <ele>646.20001220703125</ele>
        <time>2018-06-23T08:47:20.000Z</time>
      </trkpt>
      <trkpt lat="32.7435770072042942047119140625" lon="-16.81363516487181186676025390625">
        <ele>644.79998779296875</ele>
        <time>2018-06-23T08:47:22.000Z</time>
      </trkpt>
      <trkpt lat="32.74354389868676662445068359375" lon="-16.81356467306613922119140625">
        <ele>643.20001220703125</ele>
        <time>2018-06-23T08:47:24.000Z</time>
      </trkpt>
      <trkpt lat="32.74350098334252834320068359375" lon="-16.81348814629018306732177734375">
        <ele>641.4000244140625</ele>
        <time>2018-06-23T08:47:26.000Z</time>
      </trkpt>
      <trkpt lat="32.7434566430747509002685546875" lon="-16.813406087458133697509765625">
        <ele>639.79998779296875</ele>
        <time>2018-06-23T08:47:28.000Z</time>
      </trkpt>
      <trkpt lat="32.74340576492249965667724609375" lon="-16.8133212625980377197265625">
        <ele>638</ele>
        <time>2018-06-23T08:47:30.000Z</time>
      </trkpt>
      <trkpt lat="32.7433651126921176910400390625" lon="-16.8132396228611469268798828125">
        <ele>636.5999755859375</ele>
        <time>2018-06-23T08:47:32.000Z</time>
      </trkpt>
      <trkpt lat="32.74328774772584438323974609375" lon="-16.813054718077182769775390625">
        <ele>635.5999755859375</ele>
        <time>2018-06-23T08:47:37.000Z</time>
      </trkpt>
      <trkpt lat="32.743162773549556732177734375" lon="-16.81290962733328342437744140625">
        <ele>634.4000244140625</ele>
        <time>2018-06-23T08:47:42.000Z</time>
      </trkpt>
      <trkpt lat="32.74300913326442241668701171875" lon="-16.8127591721713542938232421875">
        <ele>633.4000244140625</ele>
        <time>2018-06-23T08:47:48.000Z</time>
      </trkpt>
      <trkpt lat="32.74287066422402858734130859375" lon="-16.81262196041643619537353515625">
        <ele>632.79998779296875</ele>
        <time>2018-06-23T08:47:54.000Z</time>
      </trkpt>
      <trkpt lat="32.7428075484931468963623046875" lon="-16.81254048831760883331298828125">
        <ele>632.20001220703125</ele>
        <time>2018-06-23T08:47:57.000Z</time>
      </trkpt>
      <trkpt lat="32.74276077747344970703125" lon="-16.812383830547332763671875">
        <ele>631</ele>
        <time>2018-06-23T08:48:02.000Z</time>
      </trkpt>
      <trkpt lat="32.7428025193512439727783203125" lon="-16.8122351355850696563720703125">
        <ele>629.79998779296875</ele>
        <time>2018-06-23T08:48:06.000Z</time>
      </trkpt>
      <trkpt lat="32.74282976053655147552490234375" lon="-16.81216187775135040283203125">
        <ele>628.5999755859375</ele>
        <time>2018-06-23T08:48:08.000Z</time>
      </trkpt>
      <trkpt lat="32.7428444288671016693115234375" lon="-16.8120832554996013641357421875">
        <ele>627.4000244140625</ele>
        <time>2018-06-23T08:48:10.000Z</time>
      </trkpt>
      <trkpt lat="32.74286412633955478668212890625" lon="-16.8120041303336620330810546875">
        <ele>626.20001220703125</ele>
        <time>2018-06-23T08:48:12.000Z</time>
      </trkpt>
      <trkpt lat="32.74288751184940338134765625" lon="-16.811925508081912994384765625">
        <ele>625</ele>
        <time>2018-06-23T08:48:14.000Z</time>
      </trkpt>
      <trkpt lat="32.742929756641387939453125" lon="-16.811796762049198150634765625">
        <ele>623.5999755859375</ele>
        <time>2018-06-23T08:48:17.000Z</time>
      </trkpt>
      <trkpt lat="32.7429498732089996337890625" lon="-16.8117174692451953887939453125">
        <ele>622.4000244140625</ele>
        <time>2018-06-23T08:48:19.000Z</time>
      </trkpt>
      <trkpt lat="32.74296931922435760498046875" lon="-16.81164228357374668121337890625">
        <ele>621.20001220703125</ele>
        <time>2018-06-23T08:48:21.000Z</time>
      </trkpt>
      <trkpt lat="32.74299144744873046875" lon="-16.811579503118991851806640625">
        <ele>619.79998779296875</ele>
        <time>2018-06-23T08:48:23.000Z</time>
      </trkpt>
      <trkpt lat="32.74301181547343730926513671875" lon="-16.81155611760914325714111328125">
        <ele>618.79998779296875</ele>
        <time>2018-06-23T08:48:25.000Z</time>
      </trkpt>
      <trkpt lat="32.74303763173520565032958984375" lon="-16.8116420321166515350341796875">
        <ele>618.79998779296875</ele>
        <time>2018-06-23T08:48:29.000Z</time>
      </trkpt>
      <trkpt lat="32.74304710328578948974609375" lon="-16.81179902516305446624755859375">
        <ele>617.5999755859375</ele>
        <time>2018-06-23T08:48:34.000Z</time>
      </trkpt>
      <trkpt lat="32.74303042329847812652587890625" lon="-16.8119015358388423919677734375">
        <ele>616.5999755859375</ele>
        <time>2018-06-23T08:48:37.000Z</time>
      </trkpt>
      <trkpt lat="32.7430338598787784576416015625" lon="-16.81194520555436611175537109375">
        <ele>616</ele>
        <time>2018-06-23T08:48:39.000Z</time>
      </trkpt>
      <trkpt lat="32.74304299615323543548583984375" lon="-16.81196071207523345947265625">
        <ele>615.20001220703125</ele>
        <time>2018-06-23T08:48:40.000Z</time>
      </trkpt>
      <trkpt lat="32.7430549822747707366943359375" lon="-16.81197253055870532989501953125">
        <ele>614</ele>
        <time>2018-06-23T08:48:41.000Z</time>
      </trkpt>
      <trkpt lat="32.743069566786289215087890625" lon="-16.81198476813733577728271484375">
        <ele>612.5999755859375</ele>
        <time>2018-06-23T08:48:42.000Z</time>
      </trkpt>
      <trkpt lat="32.74312513880431652069091796875" lon="-16.8120309524238109588623046875">
        <ele>611.4000244140625</ele>
        <time>2018-06-23T08:48:45.000Z</time>
      </trkpt>
      <trkpt lat="32.743251956999301910400390625" lon="-16.81205433793365955352783203125">
        <ele>610.20001220703125</ele>
        <time>2018-06-23T08:48:51.000Z</time>
      </trkpt>
      <trkpt lat="32.7434033341705799102783203125" lon="-16.8120671622455120086669921875">
        <ele>609.20001220703125</ele>
        <time>2018-06-23T08:48:58.000Z</time>
      </trkpt>
      <trkpt lat="32.7434621751308441162109375" lon="-16.8120874464511871337890625">
        <ele>608.4000244140625</ele>
        <time>2018-06-23T08:49:00.000Z</time>
      </trkpt>
      <trkpt lat="32.743484638631343841552734375" lon="-16.8121070601046085357666015625">
        <ele>608</ele>
        <time>2018-06-23T08:49:01.000Z</time>
      </trkpt>
      <trkpt lat="32.74352562613785266876220703125" lon="-16.81215324439108371734619140625">
        <ele>606.79998779296875</ele>
        <time>2018-06-23T08:49:03.000Z</time>
      </trkpt>
      <trkpt lat="32.743541635572910308837890625" lon="-16.8121660687029361724853515625">
        <ele>605.79998779296875</ele>
        <time>2018-06-23T08:49:04.000Z</time>
      </trkpt>
      <trkpt lat="32.7435528673231601715087890625" lon="-16.81217872537672519683837890625">
        <ele>604.79998779296875</ele>
        <time>2018-06-23T08:49:05.000Z</time>
      </trkpt>
      <trkpt lat="32.7435578964650630950927734375" lon="-16.81219213642179965972900390625">
        <ele>604</ele>
        <time>2018-06-23T08:49:06.000Z</time>
      </trkpt>
      <trkpt lat="32.74356284178793430328369140625" lon="-16.81220336817204952239990234375">
        <ele>603.4000244140625</ele>
        <time>2018-06-23T08:49:07.000Z</time>
      </trkpt>
      <trkpt lat="32.74356619454920291900634765625" lon="-16.8122322857379913330078125">
        <ele>602</ele>
        <time>2018-06-23T08:49:09.000Z</time>
      </trkpt>
      <trkpt lat="32.743569128215312957763671875" lon="-16.81226941756904125213623046875">
        <ele>600.4000244140625</ele>
        <time>2018-06-23T08:49:11.000Z</time>
      </trkpt>
      <trkpt lat="32.74359921924769878387451171875" lon="-16.81230537593364715576171875">
        <ele>599</ele>
        <time>2018-06-23T08:49:13.000Z</time>
      </trkpt>
      <trkpt lat="32.7436165697872638702392578125" lon="-16.8123223073780536651611328125">
        <ele>598</ele>
        <time>2018-06-23T08:49:14.000Z</time>
      </trkpt>
      <trkpt lat="32.7436547912657260894775390625" lon="-16.81235441006720066070556640625">
        <ele>596.4000244140625</ele>
        <time>2018-06-23T08:49:16.000Z</time>
      </trkpt>
      <trkpt lat="32.7436960302293300628662109375" lon="-16.81238223798573017120361328125">
        <ele>595</ele>
        <time>2018-06-23T08:49:18.000Z</time>
      </trkpt>
      <trkpt lat="32.74370583705604076385498046875" lon="-16.81241828016936779022216796875">
        <ele>594</ele>
        <time>2018-06-23T08:49:20.000Z</time>
      </trkpt>
      <trkpt lat="32.74370583705604076385498046875" lon="-16.8124487064778804779052734375">
        <ele>592.79998779296875</ele>
        <time>2018-06-23T08:49:22.000Z</time>
      </trkpt>
      <trkpt lat="32.74369795806705951690673828125" lon="-16.8124768696725368499755859375">
        <ele>591.20001220703125</ele>
        <time>2018-06-23T08:49:24.000Z</time>
      </trkpt>
      <trkpt lat="32.74371053092181682586669921875" lon="-16.81249036453664302825927734375">
        <ele>590.4000244140625</ele>
        <time>2018-06-23T08:49:25.000Z</time>
      </trkpt>
      <trkpt lat="32.74372109211981296539306640625" lon="-16.81250117719173431396484375">
        <ele>589.79998779296875</ele>
        <time>2018-06-23T08:49:26.000Z</time>
      </trkpt>
      <trkpt lat="32.743732072412967681884765625" lon="-16.8125087209045886993408203125">
        <ele>588.5999755859375</ele>
        <time>2018-06-23T08:49:27.000Z</time>
      </trkpt>
      <trkpt lat="32.74375696666538715362548828125" lon="-16.8125375546514987945556640625">
        <ele>587.4000244140625</ele>
        <time>2018-06-23T08:49:29.000Z</time>
      </trkpt>
      <trkpt lat="32.74377725087106227874755859375" lon="-16.8125623650848865509033203125">
        <ele>585.79998779296875</ele>
        <time>2018-06-23T08:49:31.000Z</time>
      </trkpt>
      <trkpt lat="32.74379937909543514251708984375" lon="-16.81257518939673900604248046875">
        <ele>584.4000244140625</ele>
        <time>2018-06-23T08:49:33.000Z</time>
      </trkpt>
      <trkpt lat="32.743864841759204864501953125" lon="-16.81260234676301479339599609375">
        <ele>583</ele>
        <time>2018-06-23T08:49:36.000Z</time>
      </trkpt>
      <trkpt lat="32.74388219229876995086669921875" lon="-16.812602095305919647216796875">
        <ele>582.4000244140625</ele>
        <time>2018-06-23T08:49:37.000Z</time>
      </trkpt>
      <trkpt lat="32.74391421116888523101806640625" lon="-16.8126072920858860015869140625">
        <ele>581.79998779296875</ele>
        <time>2018-06-23T08:49:38.000Z</time>
      </trkpt>
      <trkpt lat="32.7439726330339908599853515625" lon="-16.8126103095710277557373046875">
        <ele>580.5999755859375</ele>
        <time>2018-06-23T08:49:40.000Z</time>
      </trkpt>
      <trkpt lat="32.7440805919468402862548828125" lon="-16.812652051448822021484375">
        <ele>580.4000244140625</ele>
        <time>2018-06-23T08:49:45.000Z</time>
      </trkpt>
      <trkpt lat="32.74420942179858684539794921875" lon="-16.81273452937602996826171875">
        <ele>581.20001220703125</ele>
        <time>2018-06-23T08:49:50.000Z</time>
      </trkpt>
      <trkpt lat="32.74438745342195034027099609375" lon="-16.8127873353660106658935546875">
        <ele>579.20001220703125</ele>
        <time>2018-06-23T08:49:58.000Z</time>
      </trkpt>
      <trkpt lat="32.74443673901259899139404296875" lon="-16.8128158338367938995361328125">
        <ele>578.5999755859375</ele>
        <time>2018-06-23T08:50:01.000Z</time>
      </trkpt>
      <trkpt lat="32.744563557207584381103515625" lon="-16.81280560791492462158203125">
        <ele>580.20001220703125</ele>
        <time>2018-06-23T08:50:08.000Z</time>
      </trkpt>
      <trkpt lat="32.74460605345666408538818359375" lon="-16.81278591044247150421142578125">
        <ele>581.4000244140625</ele>
        <time>2018-06-23T08:50:11.000Z</time>
      </trkpt>
      <trkpt lat="32.7446391619741916656494140625" lon="-16.8127933703362941741943359375">
        <ele>582</ele>
        <time>2018-06-23T08:50:13.000Z</time>
      </trkpt>
      <trkpt lat="32.7448151819407939910888671875" lon="-16.81286285631358623504638671875">
        <ele>580.79998779296875</ele>
        <time>2018-06-23T08:50:19.000Z</time>
      </trkpt>
      <trkpt lat="32.74495909921824932098388671875" lon="-16.81290644221007823944091796875">
        <ele>580.20001220703125</ele>
        <time>2018-06-23T08:50:24.000Z</time>
      </trkpt>
      <trkpt lat="32.7450458519160747528076171875" lon="-16.812963187694549560546875">
        <ele>579.20001220703125</ele>
        <time>2018-06-23T08:50:28.000Z</time>
      </trkpt>
      <trkpt lat="32.74514400400221347808837890625" lon="-16.81311079300940036773681640625">
        <ele>580.4000244140625</ele>
        <time>2018-06-23T08:50:35.000Z</time>
      </trkpt>
      <trkpt lat="32.74514802731573581695556640625" lon="-16.8131323345005512237548828125">
        <ele>580.5999755859375</ele>
        <time>2018-06-23T08:50:36.000Z</time>
      </trkpt>
      <trkpt lat="32.74519613943994045257568359375" lon="-16.8132030777633190155029296875">
        <ele>581.4000244140625</ele>
        <time>2018-06-23T08:50:40.000Z</time>
      </trkpt>
      <trkpt lat="32.74526101537048816680908203125" lon="-16.81328572332859039306640625">
        <ele>582.5999755859375</ele>
        <time>2018-06-23T08:50:44.000Z</time>
      </trkpt>
      <trkpt lat="32.74529772810637950897216796875" lon="-16.81338018737733364105224609375">
        <ele>581.5999755859375</ele>
        <time>2018-06-23T08:50:50.000Z</time>
      </trkpt>
      <trkpt lat="32.74549151770770549774169921875" lon="-16.8134414590895175933837890625">
        <ele>581.79998779296875</ele>
        <time>2018-06-23T08:50:58.000Z</time>
      </trkpt>
      <trkpt lat="32.7456822060048580169677734375" lon="-16.8134756572544574737548828125">
        <ele>583</ele>
        <time>2018-06-23T08:51:07.000Z</time>
      </trkpt>
      <trkpt lat="32.745714224874973297119140625" lon="-16.813477165997028350830078125">
        <ele>583.5999755859375</ele>
        <time>2018-06-23T08:51:08.000Z</time>
      </trkpt>
      <trkpt lat="32.745783627033233642578125" lon="-16.8134860508143901824951171875">
        <ele>584.5999755859375</ele>
        <time>2018-06-23T08:51:11.000Z</time>
      </trkpt>
      <trkpt lat="32.745846994221210479736328125" lon="-16.8134927563369274139404296875">
        <ele>585.79998779296875</ele>
        <time>2018-06-23T08:51:14.000Z</time>
      </trkpt>
      <trkpt lat="32.745877839624881744384765625" lon="-16.81348621845245361328125">
        <ele>586.4000244140625</ele>
        <time>2018-06-23T08:51:16.000Z</time>
      </trkpt>
      <trkpt lat="32.74590156041085720062255859375" lon="-16.81348160840570926666259765625">
        <ele>586.79998779296875</ele>
        <time>2018-06-23T08:51:17.000Z</time>
      </trkpt>
      <trkpt lat="32.74597146548330783843994140625" lon="-16.81347372941672801971435546875">
        <ele>587.79998779296875</ele>
        <time>2018-06-23T08:51:20.000Z</time>
      </trkpt>
      <trkpt lat="32.74608328007161617279052734375" lon="-16.81356056593358516693115234375">
        <ele>585</ele>
        <time>2018-06-23T08:51:27.000Z</time>
      </trkpt>
      <trkpt lat="32.74609233252704143524169921875" lon="-16.81359929032623767852783203125">
        <ele>584</ele>
        <time>2018-06-23T08:51:29.000Z</time>
      </trkpt>
      <trkpt lat="32.74611555039882659912109375" lon="-16.81364673189818859100341796875">
        <ele>582.79998779296875</ele>
        <time>2018-06-23T08:51:31.000Z</time>
      </trkpt>
      <trkpt lat="32.74615771137177944183349609375" lon="-16.81372300721704959869384765625">
        <ele>581.5999755859375</ele>
        <time>2018-06-23T08:51:35.000Z</time>
      </trkpt>
      <trkpt lat="32.74628964252769947052001953125" lon="-16.8138947524130344390869140625">
        <ele>582.5999755859375</ele>
        <time>2018-06-23T08:51:45.000Z</time>
      </trkpt>
      <trkpt lat="32.74633708409965038299560546875" lon="-16.8140436150133609771728515625">
        <ele>583.5999755859375</ele>
        <time>2018-06-23T08:51:51.000Z</time>
      </trkpt>
      <trkpt lat="32.746349908411502838134765625" lon="-16.81409751065075397491455078125">
        <ele>585</ele>
        <time>2018-06-23T08:51:54.000Z</time>
      </trkpt>
      <trkpt lat="32.74636440910398960113525390625" lon="-16.8141180463135242462158203125">
        <ele>586</ele>
        <time>2018-06-23T08:51:56.000Z</time>
      </trkpt>
      <trkpt lat="32.7463825978338718414306640625" lon="-16.81413053534924983978271484375">
        <ele>587</ele>
        <time>2018-06-23T08:51:58.000Z</time>
      </trkpt>
      <trkpt lat="32.746390812098979949951171875" lon="-16.81413740850985050201416015625">
        <ele>587.4000244140625</ele>
        <time>2018-06-23T08:51:59.000Z</time>
      </trkpt>
      <trkpt lat="32.74643230251967906951904296875" lon="-16.81415048427879810333251953125">
        <ele>588</ele>
        <time>2018-06-23T08:52:01.000Z</time>
      </trkpt>
      <trkpt lat="32.7464452944695949554443359375" lon="-16.8141592852771282196044921875">
        <ele>588.20001220703125</ele>
        <time>2018-06-23T08:52:02.000Z</time>
      </trkpt>
      <trkpt lat="32.7464828453958034515380859375" lon="-16.8141938187181949615478515625">
        <ele>589.79998779296875</ele>
        <time>2018-06-23T08:52:05.000Z</time>
      </trkpt>
      <trkpt lat="32.74650103412568569183349609375" lon="-16.81421955116093158721923828125">
        <ele>590.5999755859375</ele>
        <time>2018-06-23T08:52:07.000Z</time>
      </trkpt>
      <trkpt lat="32.746516205370426177978515625" lon="-16.8142353929579257965087890625">
        <ele>591</ele>
        <time>2018-06-23T08:52:08.000Z</time>
      </trkpt>
      <trkpt lat="32.74667990393936634063720703125" lon="-16.81436908431351184844970703125">
        <ele>590.20001220703125</ele>
        <time>2018-06-23T08:52:15.000Z</time>
      </trkpt>
      <trkpt lat="32.7467104978859424591064453125" lon="-16.81438249535858631134033203125">
        <ele>589.79998779296875</ele>
        <time>2018-06-23T08:52:16.000Z</time>
      </trkpt>
      <trkpt lat="32.7468871884047985076904296875" lon="-16.8144130893051624298095703125">
        <ele>588.79998779296875</ele>
        <time>2018-06-23T08:52:22.000Z</time>
      </trkpt>
      <trkpt lat="32.74707821197807788848876953125" lon="-16.81445994414389133453369140625">
        <ele>588.5999755859375</ele>
        <time>2018-06-23T08:52:29.000Z</time>
      </trkpt>
      <trkpt lat="32.74726328440010547637939453125" lon="-16.81454694829881191253662109375">
        <ele>588.20001220703125</ele>
        <time>2018-06-23T08:52:36.000Z</time>
      </trkpt>
      <trkpt lat="32.747444249689579010009765625" lon="-16.81464686058461666107177734375">
        <ele>587.79998779296875</ele>
        <time>2018-06-23T08:52:43.000Z</time>
      </trkpt>
      <trkpt lat="32.7475969679653644561767578125" lon="-16.814678125083446502685546875">
        <ele>587.79998779296875</ele>
        <time>2018-06-23T08:52:49.000Z</time>
      </trkpt>
      <trkpt lat="32.74761951528489589691162109375" lon="-16.8146561644971370697021484375">
        <ele>587.79998779296875</ele>
        <time>2018-06-23T08:52:50.000Z</time>
      </trkpt>
      <trkpt lat="32.747690342366695404052734375" lon="-16.814436055719852447509765625">
        <ele>587.5999755859375</ele>
        <time>2018-06-23T08:52:56.000Z</time>
      </trkpt>
      <trkpt lat="32.74779955856502056121826171875" lon="-16.81422181427478790283203125">
        <ele>587.4000244140625</ele>
        <time>2018-06-23T08:53:02.000Z</time>
      </trkpt>
      <trkpt lat="32.74792863987386226654052734375" lon="-16.814068257808685302734375">
        <ele>587.20001220703125</ele>
        <time>2018-06-23T08:53:08.000Z</time>
      </trkpt>
      <trkpt lat="32.74810197763144969940185546875" lon="-16.8139487318694591522216796875">
        <ele>587.20001220703125</ele>
        <time>2018-06-23T08:53:16.000Z</time>
      </trkpt>
      <trkpt lat="32.74830155074596405029296875" lon="-16.81390321813523769378662109375">
        <ele>587</ele>
        <time>2018-06-23T08:53:23.000Z</time>
      </trkpt>
      <trkpt lat="32.7484287880361080169677734375" lon="-16.81389919482171535491943359375">
        <ele>586.79998779296875</ele>
        <time>2018-06-23T08:53:27.000Z</time>
      </trkpt>
      <trkpt lat="32.7486068196594715118408203125" lon="-16.813866086304187774658203125">
        <ele>586.5999755859375</ele>
        <time>2018-06-23T08:53:33.000Z</time>
      </trkpt>
      <trkpt lat="32.7486426942050457000732421875" lon="-16.813626699149608612060546875">
        <ele>586.4000244140625</ele>
        <time>2018-06-23T08:53:39.000Z</time>
      </trkpt>
      <trkpt lat="32.748745121061801910400390625" lon="-16.81341773830354213714599609375">
        <ele>586.5999755859375</ele>
        <time>2018-06-23T08:53:45.000Z</time>
      </trkpt>
      <trkpt lat="32.748806476593017578125" lon="-16.813210286200046539306640625">
        <ele>586.4000244140625</ele>
        <time>2018-06-23T08:53:51.000Z</time>
      </trkpt>
      <trkpt lat="32.74883036501705646514892578125" lon="-16.81296243332326412200927734375">
        <ele>586.20001220703125</ele>
        <time>2018-06-23T08:53:58.000Z</time>
      </trkpt>
      <trkpt lat="32.74887328036129474639892578125" lon="-16.81272807531058788299560546875">
        <ele>586</ele>
        <time>2018-06-23T08:54:05.000Z</time>
      </trkpt>
      <trkpt lat="32.7488829195499420166015625" lon="-16.8125010095536708831787109375">
        <ele>586</ele>
        <time>2018-06-23T08:54:11.000Z</time>
      </trkpt>
      <trkpt lat="32.74894100613892078399658203125" lon="-16.8122693337500095367431640625">
        <ele>585.79998779296875</ele>
        <time>2018-06-23T08:54:18.000Z</time>
      </trkpt>
      <trkpt lat="32.7489508129656314849853515625" lon="-16.81223270483314990997314453125">
        <ele>585.79998779296875</ele>
        <time>2018-06-23T08:54:19.000Z</time>
      </trkpt>
      <trkpt lat="32.74904494173824787139892578125" lon="-16.81203707121312618255615234375">
        <ele>585.5999755859375</ele>
        <time>2018-06-23T08:54:25.000Z</time>
      </trkpt>
      <trkpt lat="32.74913303554058074951171875" lon="-16.8118408508598804473876953125">
        <ele>585.79998779296875</ele>
        <time>2018-06-23T08:54:31.000Z</time>
      </trkpt>
      <trkpt lat="32.74922029115259647369384765625" lon="-16.81161604821681976318359375">
        <ele>585.4000244140625</ele>
        <time>2018-06-23T08:54:38.000Z</time>
      </trkpt>
      <trkpt lat="32.74933964945375919342041015625" lon="-16.811423934996128082275390625">
        <ele>585.5999755859375</ele>
        <time>2018-06-23T08:54:45.000Z</time>
      </trkpt>
      <trkpt lat="32.74944677017629146575927734375" lon="-16.811217404901981353759765625">
        <ele>585.4000244140625</ele>
        <time>2018-06-23T08:54:52.000Z</time>
      </trkpt>
      <trkpt lat="32.74955975823104381561279296875" lon="-16.81103476323187351226806640625">
        <ele>585.4000244140625</ele>
        <time>2018-06-23T08:54:59.000Z</time>
      </trkpt>
      <trkpt lat="32.7497246302664279937744140625" lon="-16.8108802847564220428466796875">
        <ele>585.4000244140625</ele>
        <time>2018-06-23T08:55:06.000Z</time>
      </trkpt>
      <trkpt lat="32.74990727193653583526611328125" lon="-16.81077743880450725555419921875">
        <ele>585.20001220703125</ele>
        <time>2018-06-23T08:55:12.000Z</time>
      </trkpt>
      <trkpt lat="32.750091254711151123046875" lon="-16.81068959645926952362060546875">
        <ele>585.20001220703125</ele>
        <time>2018-06-23T08:55:18.000Z</time>
      </trkpt>
      <trkpt lat="32.75027029216289520263671875" lon="-16.8107128143310546875">
        <ele>585.4000244140625</ele>
        <time>2018-06-23T08:55:24.000Z</time>
      </trkpt>
      <trkpt lat="32.750432901084423065185546875" lon="-16.8108080327510833740234375">
        <ele>585.4000244140625</ele>
        <time>2018-06-23T08:55:30.000Z</time>
      </trkpt>
      <trkpt lat="32.75057899765670299530029296875" lon="-16.81096100248396396636962890625">
        <ele>585.20001220703125</ele>
        <time>2018-06-23T08:55:37.000Z</time>
      </trkpt>
      <trkpt lat="32.750631384551525115966796875" lon="-16.81119804270565509796142578125">
        <ele>585</ele>
        <time>2018-06-23T08:55:44.000Z</time>
      </trkpt>
      <trkpt lat="32.7507086656987667083740234375" lon="-16.8113962747156620025634765625">
        <ele>585</ele>
        <time>2018-06-23T08:55:50.000Z</time>
      </trkpt>
      <trkpt lat="32.7508149482309818267822265625" lon="-16.8115746416151523590087890625">
        <ele>585</ele>
        <time>2018-06-23T08:55:56.000Z</time>
      </trkpt>
      <trkpt lat="32.75092198513448238372802734375" lon="-16.81175778619945049285888671875">
        <ele>584.79998779296875</ele>
        <time>2018-06-23T08:56:02.000Z</time>
      </trkpt>
      <trkpt lat="32.7509701810777187347412109375" lon="-16.81186616420745849609375">
        <ele>584.79998779296875</ele>
        <time>2018-06-23T08:56:06.000Z</time>
      </trkpt>
      <trkpt lat="32.750956602394580841064453125" lon="-16.811983846127986907958984375">
        <ele>583.5999755859375</ele>
        <time>2018-06-23T08:56:10.000Z</time>
      </trkpt>
      <trkpt lat="32.7509450353682041168212890625" lon="-16.8120259232819080352783203125">
        <ele>582.20001220703125</ele>
        <time>2018-06-23T08:56:12.000Z</time>
      </trkpt>
      <trkpt lat="32.75092952884733676910400390625" lon="-16.8120725266635417938232421875">
        <ele>580.79998779296875</ele>
        <time>2018-06-23T08:56:14.000Z</time>
      </trkpt>
      <trkpt lat="32.75093103758990764617919921875" lon="-16.812119968235492706298828125">
        <ele>579.20001220703125</ele>
        <time>2018-06-23T08:56:16.000Z</time>
      </trkpt>
      <trkpt lat="32.75094495154917240142822265625" lon="-16.81216615252196788787841796875">
        <ele>577.5999755859375</ele>
        <time>2018-06-23T08:56:18.000Z</time>
      </trkpt>
      <trkpt lat="32.7509550936520099639892578125" lon="-16.8122096545994281768798828125">
        <ele>575.79998779296875</ele>
        <time>2018-06-23T08:56:20.000Z</time>
      </trkpt>
      <trkpt lat="32.7509661577641963958740234375" lon="-16.8122582696378231048583984375">
        <ele>574.20001220703125</ele>
        <time>2018-06-23T08:56:22.000Z</time>
      </trkpt>
      <trkpt lat="32.750978060066699981689453125" lon="-16.81231015361845493316650390625">
        <ele>572.4000244140625</ele>
        <time>2018-06-23T08:56:24.000Z</time>
      </trkpt>
      <trkpt lat="32.75097412057220935821533203125" lon="-16.81235508061945438385009765625">
        <ele>570.79998779296875</ele>
        <time>2018-06-23T08:56:26.000Z</time>
      </trkpt>
      <trkpt lat="32.750979401171207427978515625" lon="-16.812401600182056427001953125">
        <ele>568.79998779296875</ele>
        <time>2018-06-23T08:56:28.000Z</time>
      </trkpt>
      <trkpt lat="32.75098484940826892852783203125" lon="-16.8124522268772125244140625">
        <ele>566.79998779296875</ele>
        <time>2018-06-23T08:56:30.000Z</time>
      </trkpt>
      <trkpt lat="32.751000858843326568603515625" lon="-16.81250545196235179901123046875">
        <ele>565</ele>
        <time>2018-06-23T08:56:32.000Z</time>
      </trkpt>
      <trkpt lat="32.7510151080787181854248046875" lon="-16.81255674920976161956787109375">
        <ele>563.20001220703125</ele>
        <time>2018-06-23T08:56:34.000Z</time>
      </trkpt>
      <trkpt lat="32.75102072395384311676025390625" lon="-16.8125836551189422607421875">
        <ele>562</ele>
        <time>2018-06-23T08:56:35.000Z</time>
      </trkpt>
      <trkpt lat="32.75102307088673114776611328125" lon="-16.8126099742949008941650390625">
        <ele>561</ele>
        <time>2018-06-23T08:56:36.000Z</time>
      </trkpt>
      <trkpt lat="32.7510335482656955718994140625" lon="-16.81267015635967254638671875">
        <ele>559.20001220703125</ele>
        <time>2018-06-23T08:56:38.000Z</time>
      </trkpt>
      <trkpt lat="32.751047797501087188720703125" lon="-16.81273578666150569915771484375">
        <ele>557.79998779296875</ele>
        <time>2018-06-23T08:56:40.000Z</time>
      </trkpt>
      <trkpt lat="32.75105978362262248992919921875" lon="-16.81281055323779582977294921875">
        <ele>556.20001220703125</ele>
        <time>2018-06-23T08:56:42.000Z</time>
      </trkpt>
      <trkpt lat="32.7510818280279636383056640625" lon="-16.812874339520931243896484375">
        <ele>554.5999755859375</ele>
        <time>2018-06-23T08:56:44.000Z</time>
      </trkpt>
      <trkpt lat="32.75109917856752872467041015625" lon="-16.812931001186370849609375">
        <ele>552.5999755859375</ele>
        <time>2018-06-23T08:56:46.000Z</time>
      </trkpt>
      <trkpt lat="32.75112633593380451202392578125" lon="-16.81298858486115932464599609375">
        <ele>550.79998779296875</ele>
        <time>2018-06-23T08:56:48.000Z</time>
      </trkpt>
      <trkpt lat="32.7511612884700298309326171875" lon="-16.81303686462342739105224609375">
        <ele>549</ele>
        <time>2018-06-23T08:56:50.000Z</time>
      </trkpt>
      <trkpt lat="32.75119070895016193389892578125" lon="-16.81308455765247344970703125">
        <ele>547.20001220703125</ele>
        <time>2018-06-23T08:56:52.000Z</time>
      </trkpt>
      <trkpt lat="32.75121887214481830596923828125" lon="-16.8131239525973796844482421875">
        <ele>545.5999755859375</ele>
        <time>2018-06-23T08:56:54.000Z</time>
      </trkpt>
      <trkpt lat="32.75124485604465007781982421875" lon="-16.81315965950489044189453125">
        <ele>544</ele>
        <time>2018-06-23T08:56:56.000Z</time>
      </trkpt>
      <trkpt lat="32.7512633800506591796875" lon="-16.81317918933928012847900390625">
        <ele>542.79998779296875</ele>
        <time>2018-06-23T08:56:57.000Z</time>
      </trkpt>
      <trkpt lat="32.751284502446651458740234375" lon="-16.8132044188678264617919921875">
        <ele>541.4000244140625</ele>
        <time>2018-06-23T08:56:58.000Z</time>
      </trkpt>
      <trkpt lat="32.75130436755716800689697265625" lon="-16.81323719210922718048095703125">
        <ele>540.20001220703125</ele>
        <time>2018-06-23T08:56:59.000Z</time>
      </trkpt>
      <trkpt lat="32.7513513900339603424072265625" lon="-16.813287399709224700927734375">
        <ele>538.79998779296875</ele>
        <time>2018-06-23T08:57:01.000Z</time>
      </trkpt>
      <trkpt lat="32.7513932995498180389404296875" lon="-16.8133465759456157684326171875">
        <ele>537.4000244140625</ele>
        <time>2018-06-23T08:57:03.000Z</time>
      </trkpt>
      <trkpt lat="32.75143948383629322052001953125" lon="-16.81339778937399387359619140625">
        <ele>536.4000244140625</ele>
        <time>2018-06-23T08:57:05.000Z</time>
      </trkpt>
      <trkpt lat="32.751519195735454559326171875" lon="-16.81348965503275394439697265625">
        <ele>535</ele>
        <time>2018-06-23T08:57:09.000Z</time>
      </trkpt>
      <trkpt lat="32.7515210397541522979736328125" lon="-16.81351161561906337738037109375">
        <ele>534.5999755859375</ele>
        <time>2018-06-23T08:57:10.000Z</time>
      </trkpt>
      <trkpt lat="32.751521207392215728759765625" lon="-16.81353005580604076385498046875">
        <ele>533.5999755859375</ele>
        <time>2018-06-23T08:57:11.000Z</time>
      </trkpt>
      <trkpt lat="32.75152112357318401336669921875" lon="-16.81357347406446933746337890625">
        <ele>532</ele>
        <time>2018-06-23T08:57:13.000Z</time>
      </trkpt>
      <trkpt lat="32.75153269059956073760986328125" lon="-16.81361756287515163421630859375">
        <ele>530</ele>
        <time>2018-06-23T08:57:15.000Z</time>
      </trkpt>
      <trkpt lat="32.75153302587568759918212890625" lon="-16.813636757433414459228515625">
        <ele>529</ele>
        <time>2018-06-23T08:57:16.000Z</time>
      </trkpt>
      <trkpt lat="32.751533947885036468505859375" lon="-16.81367606855928897857666015625">
        <ele>527.4000244140625</ele>
        <time>2018-06-23T08:57:18.000Z</time>
      </trkpt>
      <trkpt lat="32.7515316009521484375" lon="-16.81369702331721782684326171875">
        <ele>526.5999755859375</ele>
        <time>2018-06-23T08:57:19.000Z</time>
      </trkpt>
      <trkpt lat="32.75153017602860927581787109375" lon="-16.81372049264609813690185546875">
        <ele>525.79998779296875</ele>
        <time>2018-06-23T08:57:20.000Z</time>
      </trkpt>
      <trkpt lat="32.75153654627501964569091796875" lon="-16.81377313099801540374755859375">
        <ele>524.79998779296875</ele>
        <time>2018-06-23T08:57:22.000Z</time>
      </trkpt>
      <trkpt lat="32.75154878385365009307861328125" lon="-16.81383096612989902496337890625">
        <ele>523.4000244140625</ele>
        <time>2018-06-23T08:57:24.000Z</time>
      </trkpt>
      <trkpt lat="32.75155465118587017059326171875" lon="-16.8138856999576091766357421875">
        <ele>521.5999755859375</ele>
        <time>2018-06-23T08:57:26.000Z</time>
      </trkpt>
      <trkpt lat="32.7515679784119129180908203125" lon="-16.81393590755760669708251953125">
        <ele>520</ele>
        <time>2018-06-23T08:57:29.000Z</time>
      </trkpt>
      <trkpt lat="32.75157845579087734222412109375" lon="-16.8139675073325634002685546875">
        <ele>518.5999755859375</ele>
        <time>2018-06-23T08:57:31.000Z</time>
      </trkpt>
      <trkpt lat="32.75159622542560100555419921875" lon="-16.8140030466020107269287109375">
        <ele>517</ele>
        <time>2018-06-23T08:57:33.000Z</time>
      </trkpt>
      <trkpt lat="32.75162003003060817718505859375" lon="-16.814038753509521484375">
        <ele>515.5999755859375</ele>
        <time>2018-06-23T08:57:35.000Z</time>
      </trkpt>
      <trkpt lat="32.751645930111408233642578125" lon="-16.81407085619866847991943359375">
        <ele>514.4000244140625</ele>
        <time>2018-06-23T08:57:37.000Z</time>
      </trkpt>
      <trkpt lat="32.75166512466967105865478515625" lon="-16.81410203687846660614013671875">
        <ele>513.20001220703125</ele>
        <time>2018-06-23T08:57:39.000Z</time>
      </trkpt>
      <trkpt lat="32.7516819722950458526611328125" lon="-16.8141398392617702484130859375">
        <ele>511.79998779296875</ele>
        <time>2018-06-23T08:57:41.000Z</time>
      </trkpt>
      <trkpt lat="32.7517114765942096710205078125" lon="-16.8141864426434040069580078125">
        <ele>510.399993896484375</ele>
        <time>2018-06-23T08:57:43.000Z</time>
      </trkpt>
      <trkpt lat="32.75177241303026676177978515625" lon="-16.81423648260533809661865234375">
        <ele>509.399993896484375</ele>
        <time>2018-06-23T08:57:46.000Z</time>
      </trkpt>
      <trkpt lat="32.7518217824399471282958984375" lon="-16.81424519978463649749755859375">
        <ele>508</ele>
        <time>2018-06-23T08:57:49.000Z</time>
      </trkpt>
      <trkpt lat="32.75185489095747470855712890625" lon="-16.814250983297824859619140625">
        <ele>506.399993896484375</ele>
        <time>2018-06-23T08:57:51.000Z</time>
      </trkpt>
      <trkpt lat="32.75187333114445209503173828125" lon="-16.81425291113555431365966796875">
        <ele>505.20001220703125</ele>
        <time>2018-06-23T08:57:52.000Z</time>
      </trkpt>
      <trkpt lat="32.7519084513187408447265625" lon="-16.81423480622470378875732421875">
        <ele>503.79998779296875</ele>
        <time>2018-06-23T08:57:54.000Z</time>
      </trkpt>
      <trkpt lat="32.75193334557116031646728515625" lon="-16.81420563720166683197021484375">
        <ele>502</ele>
        <time>2018-06-23T08:57:56.000Z</time>
      </trkpt>
      <trkpt lat="32.75194206275045871734619140625" lon="-16.81419993750751018524169921875">
        <ele>501.399993896484375</ele>
        <time>2018-06-23T08:57:57.000Z</time>
      </trkpt>
      <trkpt lat="32.75194910354912281036376953125" lon="-16.81420144625008106231689453125">
        <ele>500.79998779296875</ele>
        <time>2018-06-23T08:57:58.000Z</time>
      </trkpt>
      <trkpt lat="32.75194910354912281036376953125" lon="-16.814228184521198272705078125">
        <ele>499.20001220703125</ele>
        <time>2018-06-23T08:58:00.000Z</time>
      </trkpt>
      <trkpt lat="32.7519404701888561248779296875" lon="-16.8142457865178585052490234375">
        <ele>498.600006103515625</ele>
        <time>2018-06-23T08:58:01.000Z</time>
      </trkpt>
      <trkpt lat="32.75192865170538425445556640625" lon="-16.81426246650516986846923828125">
        <ele>498</ele>
        <time>2018-06-23T08:58:02.000Z</time>
      </trkpt>
      <trkpt lat="32.75192161090672016143798828125" lon="-16.8142947368323802947998046875">
        <ele>496.79998779296875</ele>
        <time>2018-06-23T08:58:04.000Z</time>
      </trkpt>
      <trkpt lat="32.75191909633576869964599609375" lon="-16.814323402941226959228515625">
        <ele>495.399993896484375</ele>
        <time>2018-06-23T08:58:06.000Z</time>
      </trkpt>
      <trkpt lat="32.7519227005541324615478515625" lon="-16.8143503926694393157958984375">
        <ele>494.20001220703125</ele>
        <time>2018-06-23T08:58:08.000Z</time>
      </trkpt>
      <trkpt lat="32.7519273944199085235595703125" lon="-16.81436489336192607879638671875">
        <ele>493</ele>
        <time>2018-06-23T08:58:09.000Z</time>
      </trkpt>
      <trkpt lat="32.7519381232559680938720703125" lon="-16.81437662802636623382568359375">
        <ele>492.20001220703125</ele>
        <time>2018-06-23T08:58:10.000Z</time>
      </trkpt>
      <trkpt lat="32.75195069611072540283203125" lon="-16.81437696330249309539794921875">
        <ele>491.399993896484375</ele>
        <time>2018-06-23T08:58:11.000Z</time>
      </trkpt>
      <trkpt lat="32.75198430754244327545166015625" lon="-16.8143651448190212249755859375">
        <ele>489.79998779296875</ele>
        <time>2018-06-23T08:58:13.000Z</time>
      </trkpt>
      <trkpt lat="32.7520128898322582244873046875" lon="-16.81434561498463153839111328125">
        <ele>488.600006103515625</ele>
        <time>2018-06-23T08:58:15.000Z</time>
      </trkpt>
      <trkpt lat="32.752026133239269256591796875" lon="-16.81431971490383148193359375">
        <ele>487.600006103515625</ele>
        <time>2018-06-23T08:58:17.000Z</time>
      </trkpt>
      <trkpt lat="32.75204013101756572723388671875" lon="-16.81430387310683727264404296875">
        <ele>486.399993896484375</ele>
        <time>2018-06-23T08:58:19.000Z</time>
      </trkpt>
      <trkpt lat="32.75204482488334178924560546875" lon="-16.8142923898994922637939453125">
        <ele>485.600006103515625</ele>
        <time>2018-06-23T08:58:20.000Z</time>
      </trkpt>
      <trkpt lat="32.75205773301422595977783203125" lon="-16.8142761290073394775390625">
        <ele>485</ele>
        <time>2018-06-23T08:58:21.000Z</time>
      </trkpt>
      <trkpt lat="32.752086482942104339599609375" lon="-16.81424318812787532806396484375">
        <ele>483.399993896484375</ele>
        <time>2018-06-23T08:58:23.000Z</time>
      </trkpt>
      <trkpt lat="32.7521124668419361114501953125" lon="-16.81422240100800991058349609375">
        <ele>482</ele>
        <time>2018-06-23T08:58:25.000Z</time>
      </trkpt>
      <trkpt lat="32.752130068838596343994140625" lon="-16.8141985125839710235595703125">
        <ele>480.399993896484375</ele>
        <time>2018-06-23T08:58:27.000Z</time>
      </trkpt>
      <trkpt lat="32.752141468226909637451171875" lon="-16.81416942737996578216552734375">
        <ele>478.600006103515625</ele>
        <time>2018-06-23T08:58:29.000Z</time>
      </trkpt>
      <trkpt lat="32.7521520294249057769775390625" lon="-16.8141274340450763702392578125">
        <ele>477</ele>
        <time>2018-06-23T08:58:31.000Z</time>
      </trkpt>
      <trkpt lat="32.75215747766196727752685546875" lon="-16.8140761367976665496826171875">
        <ele>475.79998779296875</ele>
        <time>2018-06-23T08:58:33.000Z</time>
      </trkpt>
      <trkpt lat="32.7521578967571258544921875" lon="-16.814035736024379730224609375">
        <ele>474.399993896484375</ele>
        <time>2018-06-23T08:58:35.000Z</time>
      </trkpt>
      <trkpt lat="32.75216116569936275482177734375" lon="-16.81400187313556671142578125">
        <ele>473.399993896484375</ele>
        <time>2018-06-23T08:58:37.000Z</time>
      </trkpt>
      <trkpt lat="32.7521778456866741180419921875" lon="-16.813974715769290924072265625">
        <ele>471.79998779296875</ele>
        <time>2018-06-23T08:58:39.000Z</time>
      </trkpt>
      <trkpt lat="32.752206511795520782470703125" lon="-16.81394688785076141357421875">
        <ele>469.79998779296875</ele>
        <time>2018-06-23T08:58:41.000Z</time>
      </trkpt>
      <trkpt lat="32.752219922840595245361328125" lon="-16.8139034695923328399658203125">
        <ele>469.399993896484375</ele>
        <time>2018-06-23T08:58:43.000Z</time>
      </trkpt>
      <trkpt lat="32.7522274665534496307373046875" lon="-16.8138458020985126495361328125">
        <ele>468.79998779296875</ele>
        <time>2018-06-23T08:58:46.000Z</time>
      </trkpt>
      <trkpt lat="32.7522338367998600006103515625" lon="-16.8138389289379119873046875">
        <ele>467.79998779296875</ele>
        <time>2018-06-23T08:58:47.000Z</time>
      </trkpt>
      <trkpt lat="32.75223945267498493194580078125" lon="-16.8138236738741397857666015625">
        <ele>467.399993896484375</ele>
        <time>2018-06-23T08:58:48.000Z</time>
      </trkpt>
      <trkpt lat="32.752264179289340972900390625" lon="-16.8137784115970134735107421875">
        <ele>466.399993896484375</ele>
        <time>2018-06-23T08:58:50.000Z</time>
      </trkpt>
      <trkpt lat="32.752275578677654266357421875" lon="-16.81374480016529560089111328125">
        <ele>465.399993896484375</ele>
        <time>2018-06-23T08:58:51.000Z</time>
      </trkpt>
      <trkpt lat="32.752310447394847869873046875" lon="-16.81363550014793872833251953125">
        <ele>464.399993896484375</ele>
        <time>2018-06-23T08:58:55.000Z</time>
      </trkpt>
      <trkpt lat="32.75232494808733463287353515625" lon="-16.813624687492847442626953125">
        <ele>463.79998779296875</ele>
        <time>2018-06-23T08:58:56.000Z</time>
      </trkpt>
      <trkpt lat="32.7523349225521087646484375" lon="-16.8136147968471050262451171875">
        <ele>463.600006103515625</ele>
        <time>2018-06-23T08:58:57.000Z</time>
      </trkpt>
      <trkpt lat="32.75235713459551334381103515625" lon="-16.81359761394560337066650390625">
        <ele>462.79998779296875</ele>
        <time>2018-06-23T08:58:59.000Z</time>
      </trkpt>
      <trkpt lat="32.75237523950636386871337890625" lon="-16.813583113253116607666015625">
        <ele>461.399993896484375</ele>
        <time>2018-06-23T08:59:00.000Z</time>
      </trkpt>
      <trkpt lat="32.7524041570723056793212890625" lon="-16.813549585640430450439453125">
        <ele>460.399993896484375</ele>
        <time>2018-06-23T08:59:02.000Z</time>
      </trkpt>
      <trkpt lat="32.7524282969534397125244140625" lon="-16.813531816005706787109375">
        <ele>458.79998779296875</ele>
        <time>2018-06-23T08:59:04.000Z</time>
      </trkpt>
      <trkpt lat="32.75245436467230319976806640625" lon="-16.8135286308825016021728515625">
        <ele>457.399993896484375</ele>
        <time>2018-06-23T08:59:06.000Z</time>
      </trkpt>
      <trkpt lat="32.75246760807931423187255859375" lon="-16.81352033279836177825927734375">
        <ele>456.20001220703125</ele>
        <time>2018-06-23T08:59:08.000Z</time>
      </trkpt>
      <trkpt lat="32.75247816927731037139892578125" lon="-16.81351731531322002410888671875">
        <ele>455.600006103515625</ele>
        <time>2018-06-23T08:59:09.000Z</time>
      </trkpt>
      <trkpt lat="32.75249174796044826507568359375" lon="-16.81351798586547374725341796875">
        <ele>454.79998779296875</ele>
        <time>2018-06-23T08:59:10.000Z</time>
      </trkpt>
      <trkpt lat="32.75250113569200038909912109375" lon="-16.81351178325712680816650390625">
        <ele>454</ele>
        <time>2018-06-23T08:59:11.000Z</time>
      </trkpt>
      <trkpt lat="32.75251337327063083648681640625" lon="-16.81350273080170154571533203125">
        <ele>453.399993896484375</ele>
        <time>2018-06-23T08:59:12.000Z</time>
      </trkpt>
      <trkpt lat="32.75252494029700756072998046875" lon="-16.8134981207549571990966796875">
        <ele>452.79998779296875</ele>
        <time>2018-06-23T08:59:13.000Z</time>
      </trkpt>
      <trkpt lat="32.75253835134208202362060546875" lon="-16.81349552236497402191162109375">
        <ele>452</ele>
        <time>2018-06-23T08:59:14.000Z</time>
      </trkpt>
      <trkpt lat="32.752567939460277557373046875" lon="-16.81349200196564197540283203125">
        <ele>450.399993896484375</ele>
        <time>2018-06-23T08:59:16.000Z</time>
      </trkpt>
      <trkpt lat="32.7526002936065196990966796875" lon="-16.8134833686053752899169921875">
        <ele>448.79998779296875</ele>
        <time>2018-06-23T08:59:18.000Z</time>
      </trkpt>
      <trkpt lat="32.752617895603179931640625" lon="-16.81348345242440700531005859375">
        <ele>448</ele>
        <time>2018-06-23T08:59:19.000Z</time>
      </trkpt>
      <trkpt lat="32.7526348270475864410400390625" lon="-16.81348931975662708282470703125">
        <ele>447.399993896484375</ele>
        <time>2018-06-23T08:59:20.000Z</time>
      </trkpt>
      <trkpt lat="32.7526613138616085052490234375" lon="-16.8135078437626361846923828125">
        <ele>446.20001220703125</ele>
        <time>2018-06-23T08:59:22.000Z</time>
      </trkpt>
      <trkpt lat="32.75268889032304286956787109375" lon="-16.813518069684505462646484375">
        <ele>444.399993896484375</ele>
        <time>2018-06-23T08:59:24.000Z</time>
      </trkpt>
      <trkpt lat="32.7527023851871490478515625" lon="-16.81352234445512294769287109375">
        <ele>443</ele>
        <time>2018-06-23T08:59:26.000Z</time>
      </trkpt>
      <trkpt lat="32.75268620811402797698974609375" lon="-16.81354128755629062652587890625">
        <ele>441.600006103515625</ele>
        <time>2018-06-23T08:59:28.000Z</time>
      </trkpt>
      <trkpt lat="32.75267866440117359161376953125" lon="-16.813552267849445343017578125">
        <ele>441</ele>
        <time>2018-06-23T08:59:30.000Z</time>
      </trkpt>
      <trkpt lat="32.75267489254474639892578125" lon="-16.81357271969318389892578125">
        <ele>440.600006103515625</ele>
        <time>2018-06-23T08:59:32.000Z</time>
      </trkpt>
      <trkpt lat="32.752645723521709442138671875" lon="-16.81360063143074512481689453125">
        <ele>439</ele>
        <time>2018-06-23T08:59:34.000Z</time>
      </trkpt>
      <trkpt lat="32.75261814706027507781982421875" lon="-16.813632734119892120361328125">
        <ele>438</ele>
        <time>2018-06-23T08:59:36.000Z</time>
      </trkpt>
      <trkpt lat="32.7525992877781391143798828125" lon="-16.81366818957030773162841796875">
        <ele>436.600006103515625</ele>
        <time>2018-06-23T08:59:38.000Z</time>
      </trkpt>
      <trkpt lat="32.75257724337279796600341796875" lon="-16.813705824315547943115234375">
        <ele>435.399993896484375</ele>
        <time>2018-06-23T08:59:40.000Z</time>
      </trkpt>
      <trkpt lat="32.75256483815610408782958984375" lon="-16.8137408606708049774169921875">
        <ele>434.399993896484375</ele>
        <time>2018-06-23T08:59:42.000Z</time>
      </trkpt>
      <trkpt lat="32.75253248400986194610595703125" lon="-16.81379190646111965179443359375">
        <ele>433.79998779296875</ele>
        <time>2018-06-23T08:59:46.000Z</time>
      </trkpt>
      <trkpt lat="32.75253516621887683868408203125" lon="-16.81380514986813068389892578125">
        <ele>433</ele>
        <time>2018-06-23T08:59:47.000Z</time>
      </trkpt>
      <trkpt lat="32.7525399439036846160888671875" lon="-16.813819147646427154541015625">
        <ele>432.20001220703125</ele>
        <time>2018-06-23T08:59:48.000Z</time>
      </trkpt>
      <trkpt lat="32.7525557018816471099853515625" lon="-16.8138323910534381866455078125">
        <ele>431</ele>
        <time>2018-06-23T08:59:49.000Z</time>
      </trkpt>
      <trkpt lat="32.752571962773799896240234375" lon="-16.81386910378932952880859375">
        <ele>429.399993896484375</ele>
        <time>2018-06-23T08:59:51.000Z</time>
      </trkpt>
      <trkpt lat="32.7525892294943332672119140625" lon="-16.813899613916873931884765625">
        <ele>428</ele>
        <time>2018-06-23T08:59:53.000Z</time>
      </trkpt>
      <trkpt lat="32.75259551592171192169189453125" lon="-16.813928782939910888671875">
        <ele>426.600006103515625</ele>
        <time>2018-06-23T08:59:55.000Z</time>
      </trkpt>
      <trkpt lat="32.75261110626161098480224609375" lon="-16.81396323256194591522216796875">
        <ele>425</ele>
        <time>2018-06-23T08:59:58.000Z</time>
      </trkpt>
      <trkpt lat="32.75262267328798770904541015625" lon="-16.81398846209049224853515625">
        <ele>423.600006103515625</ele>
        <time>2018-06-23T09:00:00.000Z</time>
      </trkpt>
      <trkpt lat="32.7526418678462505340576171875" lon="-16.8140151165425777435302734375">
        <ele>422.600006103515625</ele>
        <time>2018-06-23T09:00:02.000Z</time>
      </trkpt>
      <trkpt lat="32.7526539377868175506591796875" lon="-16.81402458809316158294677734375">
        <ele>422.399993896484375</ele>
        <time>2018-06-23T09:00:03.000Z</time>
      </trkpt>
      <trkpt lat="32.75267430581152439117431640625" lon="-16.81405375711619853973388671875">
        <ele>421.20001220703125</ele>
        <time>2018-06-23T09:00:05.000Z</time>
      </trkpt>
      <trkpt lat="32.75275091640651226043701171875" lon="-16.81416423059999942779541015625">
        <ele>419.79998779296875</ele>
        <time>2018-06-23T09:00:11.000Z</time>
      </trkpt>
      <trkpt lat="32.75276684202253818511962890625" lon="-16.81419054977595806121826171875">
        <ele>418.399993896484375</ele>
        <time>2018-06-23T09:00:13.000Z</time>
      </trkpt>
      <trkpt lat="32.75278888642787933349609375" lon="-16.81423564441502094268798828125">
        <ele>417.20001220703125</ele>
        <time>2018-06-23T09:00:16.000Z</time>
      </trkpt>
      <trkpt lat="32.75281126610934734344482421875" lon="-16.81427705101668834686279296875">
        <ele>416</ele>
        <time>2018-06-23T09:00:19.000Z</time>
      </trkpt>
      <trkpt lat="32.75283272378146648406982421875" lon="-16.81430269964039325714111328125">
        <ele>414.600006103515625</ele>
        <time>2018-06-23T09:00:21.000Z</time>
      </trkpt>
      <trkpt lat="32.75286935269832611083984375" lon="-16.8143297731876373291015625">
        <ele>413.20001220703125</ele>
        <time>2018-06-23T09:00:23.000Z</time>
      </trkpt>
      <trkpt lat="32.752925343811511993408203125" lon="-16.81435600854456424713134765625">
        <ele>411.399993896484375</ele>
        <time>2018-06-23T09:00:25.000Z</time>
      </trkpt>
      <trkpt lat="32.7529701031744480133056640625" lon="-16.81438718922436237335205078125">
        <ele>410</ele>
        <time>2018-06-23T09:00:27.000Z</time>
      </trkpt>
      <trkpt lat="32.753003127872943878173828125" lon="-16.8144073896110057830810546875">
        <ele>408.399993896484375</ele>
        <time>2018-06-23T09:00:29.000Z</time>
      </trkpt>
      <trkpt lat="32.7530229091644287109375" lon="-16.81441267021000385284423828125">
        <ele>407.399993896484375</ele>
        <time>2018-06-23T09:00:30.000Z</time>
      </trkpt>
      <trkpt lat="32.75305132381618022918701171875" lon="-16.81442826054990291595458984375">
        <ele>406</ele>
        <time>2018-06-23T09:00:32.000Z</time>
      </trkpt>
      <trkpt lat="32.75307931937277317047119140625" lon="-16.81444351561367511749267578125">
        <ele>404.600006103515625</ele>
        <time>2018-06-23T09:00:34.000Z</time>
      </trkpt>
      <trkpt lat="32.75309122167527675628662109375" lon="-16.81444644927978515625">
        <ele>403.399993896484375</ele>
        <time>2018-06-23T09:00:35.000Z</time>
      </trkpt>
      <trkpt lat="32.75312508456408977508544921875" lon="-16.8144442699849605560302734375">
        <ele>401.79998779296875</ele>
        <time>2018-06-23T09:00:37.000Z</time>
      </trkpt>
      <trkpt lat="32.75316347368061542510986328125" lon="-16.81444619782269001007080078125">
        <ele>400.20001220703125</ele>
        <time>2018-06-23T09:00:39.000Z</time>
      </trkpt>
      <trkpt lat="32.7531940676271915435791015625" lon="-16.81444820947945117950439453125">
        <ele>398.600006103515625</ele>
        <time>2018-06-23T09:00:41.000Z</time>
      </trkpt>
      <trkpt lat="32.75321242399513721466064453125" lon="-16.814460866153240203857421875">
        <ele>396.79998779296875</ele>
        <time>2018-06-23T09:00:43.000Z</time>
      </trkpt>
      <trkpt lat="32.75323539040982723236083984375" lon="-16.814479641616344451904296875">
        <ele>395.20001220703125</ele>
        <time>2018-06-23T09:00:45.000Z</time>
      </trkpt>
      <trkpt lat="32.75325517170131206512451171875" lon="-16.814497746527194976806640625">
        <ele>394</ele>
        <time>2018-06-23T09:00:47.000Z</time>
      </trkpt>
      <trkpt lat="32.75327277369797229766845703125" lon="-16.8145213834941387176513671875">
        <ele>393</ele>
        <time>2018-06-23T09:00:49.000Z</time>
      </trkpt>
      <trkpt lat="32.75328434072434902191162109375" lon="-16.81453169323503971099853515625">
        <ele>391.79998779296875</ele>
        <time>2018-06-23T09:00:50.000Z</time>
      </trkpt>
      <trkpt lat="32.75329180061817169189453125" lon="-16.814547367393970489501953125">
        <ele>391.399993896484375</ele>
        <time>2018-06-23T09:00:51.000Z</time>
      </trkpt>
      <trkpt lat="32.75330361910164356231689453125" lon="-16.81457184255123138427734375">
        <ele>390.399993896484375</ele>
        <time>2018-06-23T09:00:53.000Z</time>
      </trkpt>
      <trkpt lat="32.7533047087490558624267578125" lon="-16.81457829661667346954345703125">
        <ele>389.79998779296875</ele>
        <time>2018-06-23T09:00:54.000Z</time>
      </trkpt>
      <trkpt lat="32.75330512784421443939208984375" lon="-16.8145901151001453399658203125">
        <ele>389.20001220703125</ele>
        <time>2018-06-23T09:00:55.000Z</time>
      </trkpt>
      <trkpt lat="32.75328777730464935302734375" lon="-16.8146310187876224517822265625">
        <ele>387.79998779296875</ele>
        <time>2018-06-23T09:00:58.000Z</time>
      </trkpt>
      <trkpt lat="32.75328232906758785247802734375" lon="-16.81465893052518367767333984375">
        <ele>386.79998779296875</ele>
        <time>2018-06-23T09:01:00.000Z</time>
      </trkpt>
      <trkpt lat="32.75329221971333026885986328125" lon="-16.81466974318027496337890625">
        <ele>386</ele>
        <time>2018-06-23T09:01:01.000Z</time>
      </trkpt>
      <trkpt lat="32.75331049226224422454833984375" lon="-16.81466345675289630889892578125">
        <ele>385</ele>
        <time>2018-06-23T09:01:03.000Z</time>
      </trkpt>
      <trkpt lat="32.75331652723252773284912109375" lon="-16.8146598525345325469970703125">
        <ele>384.399993896484375</ele>
        <time>2018-06-23T09:01:04.000Z</time>
      </trkpt>
      <trkpt lat="32.7533234842121601104736328125" lon="-16.814656667411327362060546875">
        <ele>384</ele>
        <time>2018-06-23T09:01:05.000Z</time>
      </trkpt>
      <trkpt lat="32.753341086208820343017578125" lon="-16.81465071626007556915283203125">
        <ele>382.600006103515625</ele>
        <time>2018-06-23T09:01:07.000Z</time>
      </trkpt>
      <trkpt lat="32.7533700875937938690185546875" lon="-16.81465742178261280059814453125">
        <ele>381.20001220703125</ele>
        <time>2018-06-23T09:01:09.000Z</time>
      </trkpt>
      <trkpt lat="32.75339866988360881805419921875" lon="-16.81467871181666851043701171875">
        <ele>380</ele>
        <time>2018-06-23T09:01:11.000Z</time>
      </trkpt>
      <trkpt lat="32.75341392494738101959228515625" lon="-16.81469514034688472747802734375">
        <ele>380</ele>
        <time>2018-06-23T09:01:12.000Z</time>
      </trkpt>
      <trkpt lat="32.75343789719045162200927734375" lon="-16.81472900323569774627685546875">
        <ele>378.399993896484375</ele>
        <time>2018-06-23T09:01:14.000Z</time>
      </trkpt>
      <trkpt lat="32.75343940593302249908447265625" lon="-16.814760603010654449462890625">
        <ele>377.20001220703125</ele>
        <time>2018-06-23T09:01:17.000Z</time>
      </trkpt>
      <trkpt lat="32.7534378133714199066162109375" lon="-16.81476873345673084259033203125">
        <ele>376.79998779296875</ele>
        <time>2018-06-23T09:01:18.000Z</time>
      </trkpt>
      <trkpt lat="32.75343236513435840606689453125" lon="-16.81479689665138721466064453125">
        <ele>375.600006103515625</ele>
        <time>2018-06-23T09:01:20.000Z</time>
      </trkpt>
      <trkpt lat="32.75341224856674671173095703125" lon="-16.81483243592083454132080078125">
        <ele>374.79998779296875</ele>
        <time>2018-06-23T09:01:23.000Z</time>
      </trkpt>
      <trkpt lat="32.75338978506624698638916015625" lon="-16.81484836153686046600341796875">
        <ele>373.600006103515625</ele>
        <time>2018-06-23T09:01:25.000Z</time>
      </trkpt>
      <trkpt lat="32.7533650584518909454345703125" lon="-16.8148670531809329986572265625">
        <ele>372.20001220703125</ele>
        <time>2018-06-23T09:01:27.000Z</time>
      </trkpt>
      <trkpt lat="32.75333496741950511932373046875" lon="-16.8148841522634029388427734375">
        <ele>371.20001220703125</ele>
        <time>2018-06-23T09:01:29.000Z</time>
      </trkpt>
      <trkpt lat="32.75328920222818851470947265625" lon="-16.81491306982934474945068359375">
        <ele>369.600006103515625</ele>
        <time>2018-06-23T09:01:32.000Z</time>
      </trkpt>
      <trkpt lat="32.75324779562652111053466796875" lon="-16.8149364553391933441162109375">
        <ele>368.399993896484375</ele>
        <time>2018-06-23T09:01:35.000Z</time>
      </trkpt>
      <trkpt lat="32.7532279305160045623779296875" lon="-16.814952380955219268798828125">
        <ele>367</ele>
        <time>2018-06-23T09:01:37.000Z</time>
      </trkpt>
      <trkpt lat="32.753217034041881561279296875" lon="-16.81498263962566852569580078125">
        <ele>365.600006103515625</ele>
        <time>2018-06-23T09:01:39.000Z</time>
      </trkpt>
      <trkpt lat="32.7532160282135009765625" lon="-16.81499806232750415802001953125">
        <ele>364.79998779296875</ele>
        <time>2018-06-23T09:01:40.000Z</time>
      </trkpt>
      <trkpt lat="32.7532185427844524383544921875" lon="-16.8150118924677371978759765625">
        <ele>364.399993896484375</ele>
        <time>2018-06-23T09:01:41.000Z</time>
      </trkpt>
      <trkpt lat="32.75322667323052883148193359375" lon="-16.81505958549678325653076171875">
        <ele>363</ele>
        <time>2018-06-23T09:01:44.000Z</time>
      </trkpt>
      <trkpt lat="32.75322315283119678497314453125" lon="-16.81510048918426036834716796875">
        <ele>361.399993896484375</ele>
        <time>2018-06-23T09:01:47.000Z</time>
      </trkpt>
      <trkpt lat="32.75321795605123043060302734375" lon="-16.815137453377246856689453125">
        <ele>360.399993896484375</ele>
        <time>2018-06-23T09:01:49.000Z</time>
      </trkpt>
      <trkpt lat="32.75322751142084598541259765625" lon="-16.8151785247027873992919921875">
        <ele>358.79998779296875</ele>
        <time>2018-06-23T09:01:51.000Z</time>
      </trkpt>
      <trkpt lat="32.75322742760181427001953125" lon="-16.81522018276154994964599609375">
        <ele>357.399993896484375</ele>
        <time>2018-06-23T09:01:53.000Z</time>
      </trkpt>
      <trkpt lat="32.7532319538295269012451171875" lon="-16.8152566440403461456298828125">
        <ele>355.79998779296875</ele>
        <time>2018-06-23T09:01:55.000Z</time>
      </trkpt>
      <trkpt lat="32.75324192829430103302001953125" lon="-16.81529126130044460296630859375">
        <ele>354.600006103515625</ele>
        <time>2018-06-23T09:01:57.000Z</time>
      </trkpt>
      <trkpt lat="32.75325282476842403411865234375" lon="-16.815358735620975494384765625">
        <ele>353</ele>
        <time>2018-06-23T09:02:00.000Z</time>
      </trkpt>
      <trkpt lat="32.7532576024532318115234375" lon="-16.81537776254117488861083984375">
        <ele>352.600006103515625</ele>
        <time>2018-06-23T09:02:01.000Z</time>
      </trkpt>
      <trkpt lat="32.75326958857476711273193359375" lon="-16.81541363708674907684326171875">
        <ele>351.79998779296875</ele>
        <time>2018-06-23T09:02:03.000Z</time>
      </trkpt>
      <trkpt lat="32.75327646173536777496337890625" lon="-16.815441884100437164306640625">
        <ele>351</ele>
        <time>2018-06-23T09:02:05.000Z</time>
      </trkpt>
      <trkpt lat="32.75328752584755420684814453125" lon="-16.8154718913137912750244140625">
        <ele>349.79998779296875</ele>
        <time>2018-06-23T09:02:07.000Z</time>
      </trkpt>
      <trkpt lat="32.75330118834972381591796875" lon="-16.81550416164100170135498046875">
        <ele>348.20001220703125</ele>
        <time>2018-06-23T09:02:09.000Z</time>
      </trkpt>
      <trkpt lat="32.75331669487059116363525390625" lon="-16.8155359290540218353271484375">
        <ele>346.79998779296875</ele>
        <time>2018-06-23T09:02:11.000Z</time>
      </trkpt>
      <trkpt lat="32.75331602431833744049072265625" lon="-16.81556920520961284637451171875">
        <ele>346</ele>
        <time>2018-06-23T09:02:13.000Z</time>
      </trkpt>
      <trkpt lat="32.75331552140414714813232421875" lon="-16.81558437645435333251953125">
        <ele>345.600006103515625</ele>
        <time>2018-06-23T09:02:14.000Z</time>
      </trkpt>
      <trkpt lat="32.75331954471766948699951171875" lon="-16.81561849080026149749755859375">
        <ele>344.20001220703125</ele>
        <time>2018-06-23T09:02:16.000Z</time>
      </trkpt>
      <trkpt lat="32.75332490913569927215576171875" lon="-16.81566618382930755615234375">
        <ele>342.399993896484375</ele>
        <time>2018-06-23T09:02:18.000Z</time>
      </trkpt>
      <trkpt lat="32.75332809425890445709228515625" lon="-16.8157273717224597930908203125">
        <ele>341.20001220703125</ele>
        <time>2018-06-23T09:02:20.000Z</time>
      </trkpt>
      <trkpt lat="32.753341756761074066162109375" lon="-16.8157863803207874298095703125">
        <ele>339.79998779296875</ele>
        <time>2018-06-23T09:02:22.000Z</time>
      </trkpt>
      <trkpt lat="32.75335927493870258331298828125" lon="-16.81584966368973255157470703125">
        <ele>338.399993896484375</ele>
        <time>2018-06-23T09:02:24.000Z</time>
      </trkpt>
      <trkpt lat="32.7533774636685848236083984375" lon="-16.81594471447169780731201171875">
        <ele>337.20001220703125</ele>
        <time>2018-06-23T09:02:27.000Z</time>
      </trkpt>
      <trkpt lat="32.75339297018945217132568359375" lon="-16.8159949220716953277587890625">
        <ele>336</ele>
        <time>2018-06-23T09:02:29.000Z</time>
      </trkpt>
      <trkpt lat="32.7534260787069797515869140625" lon="-16.81604596786201000213623046875">
        <ele>334.79998779296875</ele>
        <time>2018-06-23T09:02:31.000Z</time>
      </trkpt>
      <trkpt lat="32.75346136651933193206787109375" lon="-16.81614051572978496551513671875">
        <ele>333.20001220703125</ele>
        <time>2018-06-23T09:02:36.000Z</time>
      </trkpt>
      <trkpt lat="32.7534763701260089874267578125" lon="-16.8161843530833721160888671875">
        <ele>332</ele>
        <time>2018-06-23T09:02:39.000Z</time>
      </trkpt>
      <trkpt lat="32.75348466821014881134033203125" lon="-16.81621343828737735748291015625">
        <ele>330.79998779296875</ele>
        <time>2018-06-23T09:02:41.000Z</time>
      </trkpt>
      <trkpt lat="32.7534988336265087127685546875" lon="-16.8162467144429683685302734375">
        <ele>329.399993896484375</ele>
        <time>2018-06-23T09:02:43.000Z</time>
      </trkpt>
      <trkpt lat="32.75351710617542266845703125" lon="-16.81628099642693996429443359375">
        <ele>328.20001220703125</ele>
        <time>2018-06-23T09:02:45.000Z</time>
      </trkpt>
      <trkpt lat="32.75351417250931262969970703125" lon="-16.8163097463548183441162109375">
        <ele>327.20001220703125</ele>
        <time>2018-06-23T09:02:47.000Z</time>
      </trkpt>
      <trkpt lat="32.7535001747310161590576171875" lon="-16.81632843799889087677001953125">
        <ele>326.20001220703125</ele>
        <time>2018-06-23T09:02:49.000Z</time>
      </trkpt>
      <trkpt lat="32.75349455885589122772216796875" lon="-16.81633430533111095428466796875">
        <ele>325.79998779296875</ele>
        <time>2018-06-23T09:02:50.000Z</time>
      </trkpt>
      <trkpt lat="32.7534783817827701568603515625" lon="-16.81635810993611812591552734375">
        <ele>324.20001220703125</ele>
        <time>2018-06-23T09:02:53.000Z</time>
      </trkpt>
      <trkpt lat="32.7534917928278446197509765625" lon="-16.816385686397552490234375">
        <ele>323.20001220703125</ele>
        <time>2018-06-23T09:02:55.000Z</time>
      </trkpt>
      <trkpt lat="32.75350176729261875152587890625" lon="-16.81639683432877063751220703125">
        <ele>322.79998779296875</ele>
        <time>2018-06-23T09:02:56.000Z</time>
      </trkpt>
      <trkpt lat="32.7535258233547210693359375" lon="-16.816408820450305938720703125">
        <ele>321.79998779296875</ele>
        <time>2018-06-23T09:02:58.000Z</time>
      </trkpt>
      <trkpt lat="32.75354786776006221771240234375" lon="-16.816422902047634124755859375">
        <ele>320.600006103515625</ele>
        <time>2018-06-23T09:03:00.000Z</time>
      </trkpt>
      <trkpt lat="32.753567062318325042724609375" lon="-16.81644477881491184234619140625">
        <ele>319.20001220703125</ele>
        <time>2018-06-23T09:03:02.000Z</time>
      </trkpt>
      <trkpt lat="32.75357888080179691314697265625" lon="-16.816449724137783050537109375">
        <ele>319</ele>
        <time>2018-06-23T09:03:03.000Z</time>
      </trkpt>
      <trkpt lat="32.75359866209328174591064453125" lon="-16.8164485506713390350341796875">
        <ele>318</ele>
        <time>2018-06-23T09:03:05.000Z</time>
      </trkpt>
      <trkpt lat="32.75361877866089344024658203125" lon="-16.81644628755748271942138671875">
        <ele>316.600006103515625</ele>
        <time>2018-06-23T09:03:07.000Z</time>
      </trkpt>
      <trkpt lat="32.7536352910101413726806640625" lon="-16.8164508976042270660400390625">
        <ele>315.399993896484375</ele>
        <time>2018-06-23T09:03:09.000Z</time>
      </trkpt>
      <trkpt lat="32.7536223828792572021484375" lon="-16.81648400612175464630126953125">
        <ele>314.20001220703125</ele>
        <time>2018-06-23T09:03:11.000Z</time>
      </trkpt>
      <trkpt lat="32.75361810810863971710205078125" lon="-16.81651619262993335723876953125">
        <ele>312.600006103515625</ele>
        <time>2018-06-23T09:03:13.000Z</time>
      </trkpt>
      <trkpt lat="32.75362883694469928741455078125" lon="-16.81653429754078388214111328125">
        <ele>311.79998779296875</ele>
        <time>2018-06-23T09:03:14.000Z</time>
      </trkpt>
      <trkpt lat="32.7536383084952831268310546875" lon="-16.81654251180589199066162109375">
        <ele>311.399993896484375</ele>
        <time>2018-06-23T09:03:15.000Z</time>
      </trkpt>
      <trkpt lat="32.7536550723016262054443359375" lon="-16.81653731502592563629150390625">
        <ele>310.20001220703125</ele>
        <time>2018-06-23T09:03:17.000Z</time>
      </trkpt>
      <trkpt lat="32.7536684833467006683349609375" lon="-16.81653044186532497406005859375">
        <ele>308.600006103515625</ele>
        <time>2018-06-23T09:03:19.000Z</time>
      </trkpt>
      <trkpt lat="32.7536921203136444091796875" lon="-16.81652423925697803497314453125">
        <ele>307.20001220703125</ele>
        <time>2018-06-23T09:03:21.000Z</time>
      </trkpt>
      <trkpt lat="32.75372237898409366607666015625" lon="-16.8165286816656589508056640625">
        <ele>305.600006103515625</ele>
        <time>2018-06-23T09:03:23.000Z</time>
      </trkpt>
      <trkpt lat="32.7537375502288341522216796875" lon="-16.8165588565170764923095703125">
        <ele>304.20001220703125</ele>
        <time>2018-06-23T09:03:26.000Z</time>
      </trkpt>
      <trkpt lat="32.75373998098075389862060546875" lon="-16.81658475659787654876708984375">
        <ele>302.79998779296875</ele>
        <time>2018-06-23T09:03:28.000Z</time>
      </trkpt>
      <trkpt lat="32.7537603490054607391357421875" lon="-16.8166218884289264678955078125">
        <ele>301.600006103515625</ele>
        <time>2018-06-23T09:03:30.000Z</time>
      </trkpt>
      <trkpt lat="32.7537757717072963714599609375" lon="-16.8166363053023815155029296875">
        <ele>301</ele>
        <time>2018-06-23T09:03:31.000Z</time>
      </trkpt>
      <trkpt lat="32.7537908591330051422119140625" lon="-16.81663982570171356201171875">
        <ele>300.600006103515625</ele>
        <time>2018-06-23T09:03:32.000Z</time>
      </trkpt>
      <trkpt lat="32.7537994086742401123046875" lon="-16.816638819873332977294921875">
        <ele>300</ele>
        <time>2018-06-23T09:03:33.000Z</time>
      </trkpt>
      <trkpt lat="32.7538072876632213592529296875" lon="-16.81663571856915950775146484375">
        <ele>299.399993896484375</ele>
        <time>2018-06-23T09:03:34.000Z</time>
      </trkpt>
      <trkpt lat="32.75383050553500652313232421875" lon="-16.816634126007556915283203125">
        <ele>298</ele>
        <time>2018-06-23T09:03:36.000Z</time>
      </trkpt>
      <trkpt lat="32.753859423100948333740234375" lon="-16.816646866500377655029296875">
        <ele>297</ele>
        <time>2018-06-23T09:03:38.000Z</time>
      </trkpt>
      <trkpt lat="32.7538897655904293060302734375" lon="-16.8166624568402767181396484375">
        <ele>296</ele>
        <time>2018-06-23T09:03:40.000Z</time>
      </trkpt>
      <trkpt lat="32.7539092116057872772216796875" lon="-16.81669137440621852874755859375">
        <ele>294.399993896484375</ele>
        <time>2018-06-23T09:03:42.000Z</time>
      </trkpt>
      <trkpt lat="32.753929831087589263916015625" lon="-16.8167154304683208465576171875">
        <ele>293.20001220703125</ele>
        <time>2018-06-23T09:03:44.000Z</time>
      </trkpt>
      <trkpt lat="32.75395296514034271240234375" lon="-16.81673596613109111785888671875">
        <ele>292</ele>
        <time>2018-06-23T09:03:46.000Z</time>
      </trkpt>
      <trkpt lat="32.75398523546755313873291015625" lon="-16.81676463223993778228759765625">
        <ele>290.20001220703125</ele>
        <time>2018-06-23T09:03:48.000Z</time>
      </trkpt>
      <trkpt lat="32.75401423685252666473388671875" lon="-16.81679413653910160064697265625">
        <ele>288.79998779296875</ele>
        <time>2018-06-23T09:03:50.000Z</time>
      </trkpt>
      <trkpt lat="32.754047177731990814208984375" lon="-16.816832609474658966064453125">
        <ele>287.79998779296875</ele>
        <time>2018-06-23T09:03:52.000Z</time>
      </trkpt>
      <trkpt lat="32.75408615358173847198486328125" lon="-16.81686990894377231597900390625">
        <ele>286.399993896484375</ele>
        <time>2018-06-23T09:03:54.000Z</time>
      </trkpt>
      <trkpt lat="32.75415739975869655609130859375" lon="-16.81692288257181644439697265625">
        <ele>285.20001220703125</ele>
        <time>2018-06-23T09:03:57.000Z</time>
      </trkpt>
      <trkpt lat="32.75420618243515491485595703125" lon="-16.8169541470706462860107421875">
        <ele>284</ele>
        <time>2018-06-23T09:03:59.000Z</time>
      </trkpt>
      <trkpt lat="32.75427407585084438323974609375" lon="-16.816997565329074859619140625">
        <ele>282.600006103515625</ele>
        <time>2018-06-23T09:04:02.000Z</time>
      </trkpt>
      <trkpt lat="32.754311375319957733154296875" lon="-16.817018352448940277099609375">
        <ele>281.399993896484375</ele>
        <time>2018-06-23T09:04:04.000Z</time>
      </trkpt>
      <trkpt lat="32.7543346770107746124267578125" lon="-16.81703905574977397918701171875">
        <ele>279.79998779296875</ele>
        <time>2018-06-23T09:04:06.000Z</time>
      </trkpt>
      <trkpt lat="32.75436200201511383056640625" lon="-16.8170634470880031585693359375">
        <ele>278.20001220703125</ele>
        <time>2018-06-23T09:04:08.000Z</time>
      </trkpt>
      <trkpt lat="32.75438304059207439422607421875" lon="-16.8170818872749805450439453125">
        <ele>276.600006103515625</ele>
        <time>2018-06-23T09:04:10.000Z</time>
      </trkpt>
      <trkpt lat="32.75441162288188934326171875" lon="-16.817104518413543701171875">
        <ele>275</ele>
        <time>2018-06-23T09:04:12.000Z</time>
      </trkpt>
      <trkpt lat="32.754434086382389068603515625" lon="-16.8171321786940097808837890625">
        <ele>273.399993896484375</ele>
        <time>2018-06-23T09:04:14.000Z</time>
      </trkpt>
      <trkpt lat="32.75444389320909976959228515625" lon="-16.81713595055043697357177734375">
        <ele>272.600006103515625</ele>
        <time>2018-06-23T09:04:15.000Z</time>
      </trkpt>
      <trkpt lat="32.75445453822612762451171875" lon="-16.81712790392339229583740234375">
        <ele>272</ele>
        <time>2018-06-23T09:04:16.000Z</time>
      </trkpt>
      <trkpt lat="32.75447038002312183380126953125" lon="-16.8171066977083683013916015625">
        <ele>270.79998779296875</ele>
        <time>2018-06-23T09:04:18.000Z</time>
      </trkpt>
      <trkpt lat="32.754484377801418304443359375" lon="-16.81709571741521358489990234375">
        <ele>269.399993896484375</ele>
        <time>2018-06-23T09:04:20.000Z</time>
      </trkpt>
      <trkpt lat="32.754498459398746490478515625" lon="-16.8171127326786518096923828125">
        <ele>268</ele>
        <time>2018-06-23T09:04:22.000Z</time>
      </trkpt>
      <trkpt lat="32.75449938140809535980224609375" lon="-16.8171254731714725494384765625">
        <ele>267.399993896484375</ele>
        <time>2018-06-23T09:04:23.000Z</time>
      </trkpt>
      <trkpt lat="32.7545013092458248138427734375" lon="-16.81713963858783245086669921875">
        <ele>266.600006103515625</ele>
        <time>2018-06-23T09:04:24.000Z</time>
      </trkpt>
      <trkpt lat="32.75450843386352062225341796875" lon="-16.81716579012572765350341796875">
        <ele>265</ele>
        <time>2018-06-23T09:04:26.000Z</time>
      </trkpt>
      <trkpt lat="32.75451564230024814605712890625" lon="-16.81719504296779632568359375">
        <ele>263.600006103515625</ele>
        <time>2018-06-23T09:04:28.000Z</time>
      </trkpt>
      <trkpt lat="32.7545402012765407562255859375" lon="-16.81720267049968242645263671875">
        <ele>262</ele>
        <time>2018-06-23T09:04:30.000Z</time>
      </trkpt>
      <trkpt lat="32.75456962175667285919189453125" lon="-16.81721105240285396575927734375">
        <ele>260.600006103515625</ele>
        <time>2018-06-23T09:04:32.000Z</time>
      </trkpt>
      <trkpt lat="32.75459468364715576171875" lon="-16.8172290734946727752685546875">
        <ele>259.20001220703125</ele>
        <time>2018-06-23T09:04:34.000Z</time>
      </trkpt>
      <trkpt lat="32.754611782729625701904296875" lon="-16.8172438256442546844482421875">
        <ele>257.399993896484375</ele>
        <time>2018-06-23T09:04:36.000Z</time>
      </trkpt>
      <trkpt lat="32.75463164784014225006103515625" lon="-16.817260421812534332275390625">
        <ele>256</ele>
        <time>2018-06-23T09:04:38.000Z</time>
      </trkpt>
      <trkpt lat="32.7546558715403079986572265625" lon="-16.817285902798175811767578125">
        <ele>254.600006103515625</ele>
        <time>2018-06-23T09:04:40.000Z</time>
      </trkpt>
      <trkpt lat="32.75467808358371257781982421875" lon="-16.8173172511160373687744140625">
        <ele>253.1999969482421875</ele>
        <time>2018-06-23T09:04:42.000Z</time>
      </trkpt>
      <trkpt lat="32.75470993481576442718505859375" lon="-16.8173403851687908172607421875">
        <ele>251.600006103515625</ele>
        <time>2018-06-23T09:04:44.000Z</time>
      </trkpt>
      <trkpt lat="32.7547554485499858856201171875" lon="-16.817366369068622589111328125">
        <ele>250.600006103515625</ele>
        <time>2018-06-23T09:04:46.000Z</time>
      </trkpt>
      <trkpt lat="32.7548285387456417083740234375" lon="-16.817407943308353424072265625">
        <ele>249</ele>
        <time>2018-06-23T09:04:49.000Z</time>
      </trkpt>
      <trkpt lat="32.75487120263278484344482421875" lon="-16.81744758971035480499267578125">
        <ele>247.8000030517578125</ele>
        <time>2018-06-23T09:04:51.000Z</time>
      </trkpt>
      <trkpt lat="32.75490573607385158538818359375" lon="-16.81748648174107074737548828125">
        <ele>246.600006103515625</ele>
        <time>2018-06-23T09:04:53.000Z</time>
      </trkpt>
      <trkpt lat="32.75494714267551898956298828125" lon="-16.81754431687295436859130859375">
        <ele>245.1999969482421875</ele>
        <time>2018-06-23T09:04:56.000Z</time>
      </trkpt>
      <trkpt lat="32.7549609728157520294189453125" lon="-16.81757918559014797210693359375">
        <ele>244</ele>
        <time>2018-06-23T09:04:58.000Z</time>
      </trkpt>
      <trkpt lat="32.75495854206383228302001953125" lon="-16.8176176585257053375244140625">
        <ele>242.8000030517578125</ele>
        <time>2018-06-23T09:05:00.000Z</time>
      </trkpt>
      <trkpt lat="32.75494479574263095855712890625" lon="-16.81766082532703876495361328125">
        <ele>241.399993896484375</ele>
        <time>2018-06-23T09:05:02.000Z</time>
      </trkpt>
      <trkpt lat="32.7549371682107448577880859375" lon="-16.81770189665257930755615234375">
        <ele>239.8000030517578125</ele>
        <time>2018-06-23T09:05:04.000Z</time>
      </trkpt>
      <trkpt lat="32.7549395151436328887939453125" lon="-16.8177360109984874725341796875">
        <ele>238.1999969482421875</ele>
        <time>2018-06-23T09:05:06.000Z</time>
      </trkpt>
      <trkpt lat="32.754944376647472381591796875" lon="-16.8177645094692707061767578125">
        <ele>236.600006103515625</ele>
        <time>2018-06-23T09:05:08.000Z</time>
      </trkpt>
      <trkpt lat="32.75495083071291446685791015625" lon="-16.817792169749736785888671875">
        <ele>235</ele>
        <time>2018-06-23T09:05:10.000Z</time>
      </trkpt>
      <trkpt lat="32.75495284236967563629150390625" lon="-16.81782242842018604278564453125">
        <ele>233.399993896484375</ele>
        <time>2018-06-23T09:05:12.000Z</time>
      </trkpt>
      <trkpt lat="32.7549586258828639984130859375" lon="-16.81785394437611103057861328125">
        <ele>231.8000030517578125</ele>
        <time>2018-06-23T09:05:14.000Z</time>
      </trkpt>
      <trkpt lat="32.7549586258828639984130859375" lon="-16.81788613088428974151611328125">
        <ele>230</ele>
        <time>2018-06-23T09:05:16.000Z</time>
      </trkpt>
      <trkpt lat="32.75493943132460117340087890625" lon="-16.81793868541717529296875">
        <ele>228.8000030517578125</ele>
        <time>2018-06-23T09:05:19.000Z</time>
      </trkpt>
      <trkpt lat="32.754928953945636749267578125" lon="-16.81796894408762454986572265625">
        <ele>227.399993896484375</ele>
        <time>2018-06-23T09:05:21.000Z</time>
      </trkpt>
      <trkpt lat="32.75491864420473575592041015625" lon="-16.8179856240749359130859375">
        <ele>226.1999969482421875</ele>
        <time>2018-06-23T09:05:23.000Z</time>
      </trkpt>
      <trkpt lat="32.75488637387752532958984375" lon="-16.81797782890498638153076171875">
        <ele>225.1999969482421875</ele>
        <time>2018-06-23T09:05:25.000Z</time>
      </trkpt>
      <trkpt lat="32.75486357510089874267578125" lon="-16.8179864622652530670166015625">
        <ele>224.1999969482421875</ele>
        <time>2018-06-23T09:05:27.000Z</time>
      </trkpt>
      <trkpt lat="32.75487103499472141265869140625" lon="-16.818005740642547607421875">
        <ele>224</ele>
        <time>2018-06-23T09:05:28.000Z</time>
      </trkpt>
      <trkpt lat="32.75492786429822444915771484375" lon="-16.81807992048561573028564453125">
        <ele>222.600006103515625</ele>
        <time>2018-06-23T09:05:31.000Z</time>
      </trkpt>
      <trkpt lat="32.75499542243778705596923828125" lon="-16.818163655698299407958984375">
        <ele>221.399993896484375</ele>
        <time>2018-06-23T09:05:34.000Z</time>
      </trkpt>
      <trkpt lat="32.7550374157726764678955078125" lon="-16.818213947117328643798828125">
        <ele>220.1999969482421875</ele>
        <time>2018-06-23T09:05:36.000Z</time>
      </trkpt>
      <trkpt lat="32.7550525031983852386474609375" lon="-16.818219982087612152099609375">
        <ele>219.8000030517578125</ele>
        <time>2018-06-23T09:05:37.000Z</time>
      </trkpt>
      <trkpt lat="32.7550605498254299163818359375" lon="-16.81820690631866455078125">
        <ele>218.8000030517578125</ele>
        <time>2018-06-23T09:05:39.000Z</time>
      </trkpt>
      <trkpt lat="32.75506817735731601715087890625" lon="-16.818177402019500732421875">
        <ele>217.1999969482421875</ele>
        <time>2018-06-23T09:05:41.000Z</time>
      </trkpt>
      <trkpt lat="32.755073793232440948486328125" lon="-16.81793658994138240814208984375">
        <ele>216.399993896484375</ele>
        <time>2018-06-23T09:05:49.000Z</time>
      </trkpt>
      <trkpt lat="32.75508821010589599609375" lon="-16.817903816699981689453125">
        <ele>216.1999969482421875</ele>
        <time>2018-06-23T09:05:50.000Z</time>
      </trkpt>
      <trkpt lat="32.755203209817409515380859375" lon="-16.81770223192870616912841796875">
        <ele>216.399993896484375</ele>
        <time>2018-06-23T09:05:57.000Z</time>
      </trkpt>
      <trkpt lat="32.75532357394695281982421875" lon="-16.81750877760350704193115234375">
        <ele>216.1999969482421875</ele>
        <time>2018-06-23T09:06:04.000Z</time>
      </trkpt>
      <trkpt lat="32.75536959059536457061767578125" lon="-16.81728766299784183502197265625">
        <ele>216.8000030517578125</ele>
        <time>2018-06-23T09:06:11.000Z</time>
      </trkpt>
      <trkpt lat="32.75544133968651294708251953125" lon="-16.8170684762299060821533203125">
        <ele>217</ele>
        <time>2018-06-23T09:06:18.000Z</time>
      </trkpt>
      <trkpt lat="32.75542994029819965362548828125" lon="-16.8170175142586231231689453125">
        <ele>217.1999969482421875</ele>
        <time>2018-06-23T09:06:20.000Z</time>
      </trkpt>
      <trkpt lat="32.755259536206722259521484375" lon="-16.8169239722192287445068359375">
        <ele>217.1999969482421875</ele>
        <time>2018-06-23T09:06:26.000Z</time>
      </trkpt>
      <trkpt lat="32.755233384668827056884765625" lon="-16.81690377183258533477783203125">
        <ele>217.1999969482421875</ele>
        <time>2018-06-23T09:06:27.000Z</time>
      </trkpt>
      <trkpt lat="32.75511729530990123748779296875" lon="-16.81670419871807098388671875">
        <ele>217.399993896484375</ele>
        <time>2018-06-23T09:06:34.000Z</time>
      </trkpt>
      <trkpt lat="32.75498586706817150115966796875" lon="-16.81652717292308807373046875">
        <ele>217.600006103515625</ele>
        <time>2018-06-23T09:06:41.000Z</time>
      </trkpt>
      <trkpt lat="32.754943035542964935302734375" lon="-16.8164612911641597747802734375">
        <ele>217.1999969482421875</ele>
        <time>2018-06-23T09:06:46.000Z</time>
      </trkpt>
      <trkpt lat="32.75505225174129009246826171875" lon="-16.81665734387934207916259765625">
        <ele>217.600006103515625</ele>
        <time>2018-06-23T09:06:55.000Z</time>
      </trkpt>
      <trkpt lat="32.75509282015264034271240234375" lon="-16.81670428253710269927978515625">
        <ele>217.1999969482421875</ele>
        <time>2018-06-23T09:06:59.000Z</time>
      </trkpt>
      <trkpt lat="32.75510807521641254425048828125" lon="-16.8166671507060527801513671875">
        <ele>215.8000030517578125</ele>
        <time>2018-06-23T09:07:02.000Z</time>
      </trkpt>
      <trkpt lat="32.75512550957500934600830078125" lon="-16.81663488037884235382080078125">
        <ele>214.399993896484375</ele>
        <time>2018-06-23T09:07:04.000Z</time>
      </trkpt>
      <trkpt lat="32.75513556785881519317626953125" lon="-16.81661157868802547454833984375">
        <ele>213.600006103515625</ele>
        <time>2018-06-23T09:07:06.000Z</time>
      </trkpt>
      <trkpt lat="32.7551520802080631256103515625" lon="-16.81659062393009662628173828125">
        <ele>212.399993896484375</ele>
        <time>2018-06-23T09:07:08.000Z</time>
      </trkpt>
      <trkpt lat="32.75517043657600879669189453125" lon="-16.816570758819580078125">
        <ele>211.399993896484375</ele>
        <time>2018-06-23T09:07:10.000Z</time>
      </trkpt>
      <trkpt lat="32.7551805786788463592529296875" lon="-16.8165538273751735687255859375">
        <ele>210.1999969482421875</ele>
        <time>2018-06-23T09:07:12.000Z</time>
      </trkpt>
      <trkpt lat="32.755203880369663238525390625" lon="-16.81652172468602657318115234375">
        <ele>208.600006103515625</ele>
        <time>2018-06-23T09:07:15.000Z</time>
      </trkpt>
      <trkpt lat="32.7552322112023830413818359375" lon="-16.816476546227931976318359375">
        <ele>207.399993896484375</ele>
        <time>2018-06-23T09:07:18.000Z</time>
      </trkpt>
      <trkpt lat="32.7552550099790096282958984375" lon="-16.81644025258719921112060546875">
        <ele>206</ele>
        <time>2018-06-23T09:07:21.000Z</time>
      </trkpt>
      <trkpt lat="32.75528443045914173126220703125" lon="-16.81641720235347747802734375">
        <ele>205</ele>
        <time>2018-06-23T09:07:23.000Z</time>
      </trkpt>
      <trkpt lat="32.75531359948217868804931640625" lon="-16.8164059706032276153564453125">
        <ele>204</ele>
        <time>2018-06-23T09:07:25.000Z</time>
      </trkpt>
      <trkpt lat="32.755344025790691375732421875" lon="-16.81639331392943859100341796875">
        <ele>202.600006103515625</ele>
        <time>2018-06-23T09:07:28.000Z</time>
      </trkpt>
      <trkpt lat="32.75538987480103969573974609375" lon="-16.8163831718266010284423828125">
        <ele>201.1999969482421875</ele>
        <time>2018-06-23T09:07:32.000Z</time>
      </trkpt>
      <trkpt lat="32.75542910210788249969482421875" lon="-16.8163870275020599365234375">
        <ele>200.1999969482421875</ele>
        <time>2018-06-23T09:07:35.000Z</time>
      </trkpt>
      <trkpt lat="32.75544251315295696258544921875" lon="-16.81638878770172595977783203125">
        <ele>200</ele>
        <time>2018-06-23T09:07:37.000Z</time>
      </trkpt>
      <trkpt lat="32.75545642711222171783447265625" lon="-16.81638912297785282135009765625">
        <ele>199.1999969482421875</ele>
        <time>2018-06-23T09:07:39.000Z</time>
      </trkpt>
      <trkpt lat="32.75546128861606121063232421875" lon="-16.81639038026332855224609375">
        <ele>198.8000030517578125</ele>
        <time>2018-06-23T09:07:40.000Z</time>
      </trkpt>
      <trkpt lat="32.75547721423208713531494140625" lon="-16.81639096699655055999755859375">
        <ele>197.1999969482421875</ele>
        <time>2018-06-23T09:07:44.000Z</time>
      </trkpt>
      <trkpt lat="32.75548928417265415191650390625" lon="-16.81639172136783599853515625">
        <ele>196.1999969482421875</ele>
        <time>2018-06-23T09:07:46.000Z</time>
      </trkpt>
      <trkpt lat="32.7555171959102153778076171875" lon="-16.81639348156750202178955078125">
        <ele>194.8000030517578125</ele>
        <time>2018-06-23T09:07:49.000Z</time>
      </trkpt>
      <trkpt lat="32.75554091669619083404541015625" lon="-16.81639515794813632965087890625">
        <ele>194.600006103515625</ele>
        <time>2018-06-23T09:07:51.000Z</time>
      </trkpt>
      <trkpt lat="32.75572590529918670654296875" lon="-16.81643354706466197967529296875">
        <ele>194.600006103515625</ele>
        <time>2018-06-23T09:08:06.000Z</time>
      </trkpt>
      <trkpt lat="32.75587686337530612945556640625" lon="-16.8162611313164234161376953125">
        <ele>194.399993896484375</ele>
        <time>2018-06-23T09:08:13.000Z</time>
      </trkpt>
      <trkpt lat="32.75602631270885467529296875" lon="-16.81610950268805027008056640625">
        <ele>194</ele>
        <time>2018-06-23T09:08:20.000Z</time>
      </trkpt>
      <trkpt lat="32.75609378702938556671142578125" lon="-16.81606340222060680389404296875">
        <ele>193.600006103515625</ele>
        <time>2018-06-23T09:08:23.000Z</time>
      </trkpt>
      <trkpt lat="32.7562536299228668212890625" lon="-16.816022582352161407470703125">
        <ele>193</ele>
        <time>2018-06-23T09:08:30.000Z</time>
      </trkpt>
      <trkpt lat="32.75630350224673748016357421875" lon="-16.81603901088237762451171875">
        <ele>192.399993896484375</ele>
        <time>2018-06-23T09:08:32.000Z</time>
      </trkpt>
      <trkpt lat="32.75647558271884918212890625" lon="-16.81606776081025600433349609375">
        <ele>191.399993896484375</ele>
        <time>2018-06-23T09:08:39.000Z</time>
      </trkpt>
      <trkpt lat="32.75652713142335414886474609375" lon="-16.816176138818264007568359375">
        <ele>190.1999969482421875</ele>
        <time>2018-06-23T09:08:44.000Z</time>
      </trkpt>
      <trkpt lat="32.7566205896437168121337890625" lon="-16.81633933447301387786865234375">
        <ele>189</ele>
        <time>2018-06-23T09:08:52.000Z</time>
      </trkpt>
      <trkpt lat="32.7566666901111602783203125" lon="-16.8163928948342800140380859375">
        <ele>188</ele>
        <time>2018-06-23T09:08:55.000Z</time>
      </trkpt>
      <trkpt lat="32.75670851580798625946044921875" lon="-16.81641594506800174713134765625">
        <ele>186.399993896484375</ele>
        <time>2018-06-23T09:08:58.000Z</time>
      </trkpt>
      <trkpt lat="32.756737768650054931640625" lon="-16.816410832107067108154296875">
        <ele>185.600006103515625</ele>
        <time>2018-06-23T09:09:00.000Z</time>
      </trkpt>
      <trkpt lat="32.75680423714220523834228515625" lon="-16.81651552207767963409423828125">
        <ele>185</ele>
        <time>2018-06-23T09:09:05.000Z</time>
      </trkpt>
      <trkpt lat="32.75684027932584285736083984375" lon="-16.8165427632629871368408203125">
        <ele>184.600006103515625</ele>
        <time>2018-06-23T09:09:07.000Z</time>
      </trkpt>
      <trkpt lat="32.75686877779662609100341796875" lon="-16.81655692867934703826904296875">
        <ele>184.1999969482421875</ele>
        <time>2018-06-23T09:09:09.000Z</time>
      </trkpt>
      <trkpt lat="32.756849415600299835205078125" lon="-16.81677452288568019866943359375">
        <ele>184</ele>
        <time>2018-06-23T09:09:17.000Z</time>
      </trkpt>
      <trkpt lat="32.75682971812784671783447265625" lon="-16.81688080541789531707763671875">
        <ele>183.8000030517578125</ele>
        <time>2018-06-23T09:09:21.000Z</time>
      </trkpt>
      <trkpt lat="32.75696500204503536224365234375" lon="-16.81704157032072544097900390625">
        <ele>183</ele>
        <time>2018-06-23T09:09:30.000Z</time>
      </trkpt>
      <trkpt lat="32.756974138319492340087890625" lon="-16.817066632211208343505859375">
        <ele>182.600006103515625</ele>
        <time>2018-06-23T09:09:31.000Z</time>
      </trkpt>
      <trkpt lat="32.75703641586005687713623046875" lon="-16.817265450954437255859375">
        <ele>181.600006103515625</ele>
        <time>2018-06-23T09:09:40.000Z</time>
      </trkpt>
      <trkpt lat="32.7571090869605541229248046875" lon="-16.81733585894107818603515625">
        <ele>181.399993896484375</ele>
        <time>2018-06-23T09:09:44.000Z</time>
      </trkpt>
      <trkpt lat="32.7571872062981128692626953125" lon="-16.8175402097404003143310546875">
        <ele>181.399993896484375</ele>
        <time>2018-06-23T09:09:53.000Z</time>
      </trkpt>
      <trkpt lat="32.75726255960762500762939453125" lon="-16.81767188943922519683837890625">
        <ele>180.399993896484375</ele>
        <time>2018-06-23T09:09:59.000Z</time>
      </trkpt>
      <trkpt lat="32.75732316076755523681640625" lon="-16.8176910839974880218505859375">
        <ele>179</ele>
        <time>2018-06-23T09:10:02.000Z</time>
      </trkpt>
      <trkpt lat="32.75736364535987377166748046875" lon="-16.817694604396820068359375">
        <ele>177.8000030517578125</ele>
        <time>2018-06-23T09:10:04.000Z</time>
      </trkpt>
      <trkpt lat="32.75740069337189197540283203125" lon="-16.81771648116409778594970703125">
        <ele>176.600006103515625</ele>
        <time>2018-06-23T09:10:06.000Z</time>
      </trkpt>
      <trkpt lat="32.7574659883975982666015625" lon="-16.81777817197144031524658203125">
        <ele>175.600006103515625</ele>
        <time>2018-06-23T09:10:09.000Z</time>
      </trkpt>
      <trkpt lat="32.757507897913455963134765625" lon="-16.817808933556079864501953125">
        <ele>175.399993896484375</ele>
        <time>2018-06-23T09:10:11.000Z</time>
      </trkpt>
      <trkpt lat="32.7576887793838977813720703125" lon="-16.81781002320349216461181640625">
        <ele>174.8000030517578125</ele>
        <time>2018-06-23T09:10:19.000Z</time>
      </trkpt>
      <trkpt lat="32.75770763866603374481201171875" lon="-16.8178211711347103118896484375">
        <ele>174.600006103515625</ele>
        <time>2018-06-23T09:10:20.000Z</time>
      </trkpt>
      <trkpt lat="32.75787594728171825408935546875" lon="-16.81792787276208400726318359375">
        <ele>174.399993896484375</ele>
        <time>2018-06-23T09:10:28.000Z</time>
      </trkpt>
      <trkpt lat="32.75796731002628803253173828125" lon="-16.81796559132635593414306640625">
        <ele>173.399993896484375</ele>
        <time>2018-06-23T09:10:32.000Z</time>
      </trkpt>
      <trkpt lat="32.7579854987561702728271484375" lon="-16.81795452721416950225830078125">
        <ele>172.600006103515625</ele>
        <time>2018-06-23T09:10:34.000Z</time>
      </trkpt>
      <trkpt lat="32.75799396447837352752685546875" lon="-16.8179616518318653106689453125">
        <ele>172.1999969482421875</ele>
        <time>2018-06-23T09:10:35.000Z</time>
      </trkpt>
      <trkpt lat="32.758009135723114013671875" lon="-16.8179800920188426971435546875">
        <ele>171</ele>
        <time>2018-06-23T09:10:37.000Z</time>
      </trkpt>
      <trkpt lat="32.758024893701076507568359375" lon="-16.81799978949129581451416015625">
        <ele>170</ele>
        <time>2018-06-23T09:10:39.000Z</time>
      </trkpt>
      <trkpt lat="32.75803796947002410888671875" lon="-16.818018145859241485595703125">
        <ele>168.600006103515625</ele>
        <time>2018-06-23T09:10:41.000Z</time>
      </trkpt>
      <trkpt lat="32.758054398000240325927734375" lon="-16.818045638501644134521484375">
        <ele>167.1999969482421875</ele>
        <time>2018-06-23T09:10:43.000Z</time>
      </trkpt>
      <trkpt lat="32.758071161806583404541015625" lon="-16.81806935928761959075927734375">
        <ele>166</ele>
        <time>2018-06-23T09:10:45.000Z</time>
      </trkpt>
      <trkpt lat="32.758088596165180206298828125" lon="-16.81807774119079113006591796875">
        <ele>165</ele>
        <time>2018-06-23T09:10:47.000Z</time>
      </trkpt>
      <trkpt lat="32.75820963084697723388671875" lon="-16.81790289469063282012939453125">
        <ele>164.1999969482421875</ele>
        <time>2018-06-23T09:10:55.000Z</time>
      </trkpt>
      <trkpt lat="32.7582983113825321197509765625" lon="-16.817686557769775390625">
        <ele>164.1999969482421875</ele>
        <time>2018-06-23T09:11:02.000Z</time>
      </trkpt>
      <trkpt lat="32.75830795057117938995361328125" lon="-16.81765847839415073394775390625">
        <ele>164</ele>
        <time>2018-06-23T09:11:03.000Z</time>
      </trkpt>
      <trkpt lat="32.758369557559490203857421875" lon="-16.81748245842754840850830078125">
        <ele>162.8000030517578125</ele>
        <time>2018-06-23T09:11:09.000Z</time>
      </trkpt>
      <trkpt lat="32.75838129222393035888671875" lon="-16.817450858652591705322265625">
        <ele>161.8000030517578125</ele>
        <time>2018-06-23T09:11:10.000Z</time>
      </trkpt>
      <trkpt lat="32.75840769521892070770263671875" lon="-16.8173993937671184539794921875">
        <ele>160.8000030517578125</ele>
        <time>2018-06-23T09:11:12.000Z</time>
      </trkpt>
      <trkpt lat="32.75842328555881977081298828125" lon="-16.81731574237346649169921875">
        <ele>159.399993896484375</ele>
        <time>2018-06-23T09:11:15.000Z</time>
      </trkpt>
      <trkpt lat="32.7584396302700042724609375" lon="-16.81718205101788043975830078125">
        <ele>158.1999969482421875</ele>
        <time>2018-06-23T09:11:19.000Z</time>
      </trkpt>
      <trkpt lat="32.7585132233798503875732421875" lon="-16.81710829026997089385986328125">
        <ele>157.399993896484375</ele>
        <time>2018-06-23T09:11:23.000Z</time>
      </trkpt>
      <trkpt lat="32.7586711384356021881103515625" lon="-16.8172052688896656036376953125">
        <ele>157.600006103515625</ele>
        <time>2018-06-23T09:11:30.000Z</time>
      </trkpt>
      <trkpt lat="32.758736349642276763916015625" lon="-16.81724927388131618499755859375">
        <ele>157.1999969482421875</ele>
        <time>2018-06-23T09:11:33.000Z</time>
      </trkpt>
      <trkpt lat="32.758895270526409149169921875" lon="-16.81740433908998966217041015625">
        <ele>156.399993896484375</ele>
        <time>2018-06-23T09:11:41.000Z</time>
      </trkpt>
      <trkpt lat="32.7590191550552845001220703125" lon="-16.817580945789813995361328125">
        <ele>156.1999969482421875</ele>
        <time>2018-06-23T09:11:48.000Z</time>
      </trkpt>
      <trkpt lat="32.7590389363467693328857421875" lon="-16.81760584004223346710205078125">
        <ele>156</ele>
        <time>2018-06-23T09:11:49.000Z</time>
      </trkpt>
      <trkpt lat="32.7591153793036937713623046875" lon="-16.8178127892315387725830078125">
        <ele>155.600006103515625</ele>
        <time>2018-06-23T09:11:57.000Z</time>
      </trkpt>
      <trkpt lat="32.7591556124389171600341796875" lon="-16.8179817683994770050048828125">
        <ele>154.600006103515625</ele>
        <time>2018-06-23T09:12:03.000Z</time>
      </trkpt>
      <trkpt lat="32.7591847814619541168212890625" lon="-16.8180216662585735321044921875">
        <ele>153</ele>
        <time>2018-06-23T09:12:05.000Z</time>
      </trkpt>
      <trkpt lat="32.759219147264957427978515625" lon="-16.818073801696300506591796875">
        <ele>151.8000030517578125</ele>
        <time>2018-06-23T09:12:07.000Z</time>
      </trkpt>
      <trkpt lat="32.75923700071871280670166015625" lon="-16.818226687610149383544921875">
        <ele>150.8000030517578125</ele>
        <time>2018-06-23T09:12:12.000Z</time>
      </trkpt>
      <trkpt lat="32.7592323906719684600830078125" lon="-16.81825040839612483978271484375">
        <ele>150.600006103515625</ele>
        <time>2018-06-23T09:12:13.000Z</time>
      </trkpt>
      <trkpt lat="32.7592335641384124755859375" lon="-16.8182747997343540191650390625">
        <ele>150.399993896484375</ele>
        <time>2018-06-23T09:12:14.000Z</time>
      </trkpt>
      <trkpt lat="32.75923381559550762176513671875" lon="-16.8182855285704135894775390625">
        <ele>150.399993896484375</ele>
        <time>2018-06-23T09:12:16.000Z</time>
      </trkpt>
      <trkpt lat="32.75925477035343647003173828125" lon="-16.81834110058844089508056640625">
        <ele>150</ele>
        <time>2018-06-23T09:12:25.000Z</time>
      </trkpt>
      <trkpt lat="32.7594184689223766326904296875" lon="-16.81844537146389484405517578125">
        <ele>149.600006103515625</ele>
        <time>2018-06-23T09:12:32.000Z</time>
      </trkpt>
      <trkpt lat="32.7595827542245388031005859375" lon="-16.818536482751369476318359375">
        <ele>149.600006103515625</ele>
        <time>2018-06-23T09:12:38.000Z</time>
      </trkpt>
      <trkpt lat="32.75964268483221530914306640625" lon="-16.81859188713133335113525390625">
        <ele>149.1999969482421875</ele>
        <time>2018-06-23T09:12:41.000Z</time>
      </trkpt>
      <trkpt lat="32.75980093516409397125244140625" lon="-16.81872767396271228790283203125">
        <ele>148.600006103515625</ele>
        <time>2018-06-23T09:12:48.000Z</time>
      </trkpt>
      <trkpt lat="32.759918533265590667724609375" lon="-16.81883395649492740631103515625">
        <ele>148.1999969482421875</ele>
        <time>2018-06-23T09:12:53.000Z</time>
      </trkpt>
      <trkpt lat="32.76007250882685184478759765625" lon="-16.81898885406553745269775390625">
        <ele>148.1999969482421875</ele>
        <time>2018-06-23T09:13:00.000Z</time>
      </trkpt>
      <trkpt lat="32.76023444719612598419189453125" lon="-16.8191106431186199188232421875">
        <ele>147.600006103515625</ele>
        <time>2018-06-23T09:13:07.000Z</time>
      </trkpt>
      <trkpt lat="32.7604071982204914093017578125" lon="-16.8192159198224544525146484375">
        <ele>147.8000030517578125</ele>
        <time>2018-06-23T09:13:14.000Z</time>
      </trkpt>
      <trkpt lat="32.76042605750262737274169921875" lon="-16.81922220624983310699462890625">
        <ele>147.1999969482421875</ele>
        <time>2018-06-23T09:13:15.000Z</time>
      </trkpt>
      <trkpt lat="32.760442234575748443603515625" lon="-16.81913972832262516021728515625">
        <ele>149.399993896484375</ele>
        <time>2018-06-23T09:13:20.000Z</time>
      </trkpt>
      <trkpt lat="32.760444246232509613037109375" lon="-16.819106452167034149169921875">
        <ele>150.600006103515625</ele>
        <time>2018-06-23T09:13:22.000Z</time>
      </trkpt>
      <trkpt lat="32.76044868864119052886962890625" lon="-16.81907367892563343048095703125">
        <ele>151.8000030517578125</ele>
        <time>2018-06-23T09:13:24.000Z</time>
      </trkpt>
      <trkpt lat="32.76044717989861965179443359375" lon="-16.81902724318206310272216796875">
        <ele>153.1999969482421875</ele>
        <time>2018-06-23T09:13:27.000Z</time>
      </trkpt>
      <trkpt lat="32.7604377083480358123779296875" lon="-16.8189753592014312744140625">
        <ele>154.399993896484375</ele>
        <time>2018-06-23T09:13:30.000Z</time>
      </trkpt>
      <trkpt lat="32.76040879078209400177001953125" lon="-16.81892347522079944610595703125">
        <ele>155.1999969482421875</ele>
        <time>2018-06-23T09:13:33.000Z</time>
      </trkpt>
      <trkpt lat="32.7603947930037975311279296875" lon="-16.81889288127422332763671875">
        <ele>156.8000030517578125</ele>
        <time>2018-06-23T09:13:36.000Z</time>
      </trkpt>
      <trkpt lat="32.7603895962238311767578125" lon="-16.81885742582380771636962890625">
        <ele>158.1999969482421875</ele>
        <time>2018-06-23T09:13:39.000Z</time>
      </trkpt>
      <trkpt lat="32.76037962175905704498291015625" lon="-16.8188343755900859832763671875">
        <ele>159.1999969482421875</ele>
        <time>2018-06-23T09:13:41.000Z</time>
      </trkpt>
      <trkpt lat="32.760371826589107513427734375" lon="-16.81880260817706584930419921875">
        <ele>160.399993896484375</ele>
        <time>2018-06-23T09:13:44.000Z</time>
      </trkpt>
      <trkpt lat="32.7603649534285068511962890625" lon="-16.81877092458307743072509765625">
        <ele>161.8000030517578125</ele>
        <time>2018-06-23T09:13:47.000Z</time>
      </trkpt>
      <trkpt lat="32.7603595890104770660400390625" lon="-16.81876354850828647613525390625">
        <ele>162.399993896484375</ele>
        <time>2018-06-23T09:13:48.000Z</time>
      </trkpt>
      <trkpt lat="32.76034324429929256439208984375" lon="-16.81876321323215961456298828125">
        <ele>162.8000030517578125</ele>
        <time>2018-06-23T09:13:50.000Z</time>
      </trkpt>
      <trkpt lat="32.76034022681415081024169921875" lon="-16.818761788308620452880859375">
        <ele>163.1999969482421875</ele>
        <time>2018-06-23T09:13:51.000Z</time>
      </trkpt>
      <trkpt lat="32.760337293148040771484375" lon="-16.81875499896705150604248046875">
        <ele>164</ele>
        <time>2018-06-23T09:13:52.000Z</time>
      </trkpt>
      <trkpt lat="32.76031943969428539276123046875" lon="-16.81873857043683528900146484375">
        <ele>165</ele>
        <time>2018-06-23T09:13:55.000Z</time>
      </trkpt>
      <trkpt lat="32.76031273417174816131591796875" lon="-16.8187116645276546478271484375">
        <ele>166.399993896484375</ele>
        <time>2018-06-23T09:13:58.000Z</time>
      </trkpt>
      <trkpt lat="32.76030242443084716796875" lon="-16.8186979182064533233642578125">
        <ele>167.399993896484375</ele>
        <time>2018-06-23T09:14:00.000Z</time>
      </trkpt>
      <trkpt lat="32.7602958865463733673095703125" lon="-16.8186808191239833831787109375">
        <ele>168.600006103515625</ele>
        <time>2018-06-23T09:14:02.000Z</time>
      </trkpt>
      <trkpt lat="32.760279960930347442626953125" lon="-16.8186677433550357818603515625">
        <ele>169.600006103515625</ele>
        <time>2018-06-23T09:14:04.000Z</time>
      </trkpt>
      <trkpt lat="32.760265208780765533447265625" lon="-16.8186637200415134429931640625">
        <ele>170.8000030517578125</ele>
        <time>2018-06-23T09:14:06.000Z</time>
      </trkpt>
      <trkpt lat="32.76024752296507358551025390625" lon="-16.81867788545787334442138671875">
        <ele>171.8000030517578125</ele>
        <time>2018-06-23T09:14:09.000Z</time>
      </trkpt>
      <trkpt lat="32.76021382771432399749755859375" lon="-16.81865156628191471099853515625">
        <ele>173</ele>
        <time>2018-06-23T09:14:13.000Z</time>
      </trkpt>
      <trkpt lat="32.7601885981857776641845703125" lon="-16.8186278454959392547607421875">
        <ele>174.1999969482421875</ele>
        <time>2018-06-23T09:14:16.000Z</time>
      </trkpt>
      <trkpt lat="32.760161273181438446044921875" lon="-16.81860454380512237548828125">
        <ele>175.600006103515625</ele>
        <time>2018-06-23T09:14:19.000Z</time>
      </trkpt>
      <trkpt lat="32.7601316012442111968994140625" lon="-16.818555258214473724365234375">
        <ele>176.600006103515625</ele>
        <time>2018-06-23T09:14:23.000Z</time>
      </trkpt>
      <trkpt lat="32.76005440391600131988525390625" lon="-16.8184803240001201629638671875">
        <ele>177.8000030517578125</ele>
        <time>2018-06-23T09:14:29.000Z</time>
      </trkpt>
      <trkpt lat="32.7599716745316982269287109375" lon="-16.818387620151042938232421875">
        <ele>178.8000030517578125</ele>
        <time>2018-06-23T09:14:36.000Z</time>
      </trkpt>
      <trkpt lat="32.75990051217377185821533203125" lon="-16.81831997819244861602783203125">
        <ele>180</ele>
        <time>2018-06-23T09:14:41.000Z</time>
      </trkpt>
      <trkpt lat="32.7598767913877964019775390625" lon="-16.8182573653757572174072265625">
        <ele>181.1999969482421875</ele>
        <time>2018-06-23T09:14:45.000Z</time>
      </trkpt>
      <trkpt lat="32.75986589491367340087890625" lon="-16.81821436621248722076416015625">
        <ele>182.399993896484375</ele>
        <time>2018-06-23T09:14:48.000Z</time>
      </trkpt>
      <trkpt lat="32.7598746120929718017578125" lon="-16.81816759519279003143310546875">
        <ele>183.399993896484375</ele>
        <time>2018-06-23T09:14:51.000Z</time>
      </trkpt>
      <trkpt lat="32.75989732705056667327880859375" lon="-16.81810791604220867156982421875">
        <ele>184.8000030517578125</ele>
        <time>2018-06-23T09:14:55.000Z</time>
      </trkpt>
      <trkpt lat="32.759885676205158233642578125" lon="-16.81808151304721832275390625">
        <ele>185.8000030517578125</ele>
        <time>2018-06-23T09:14:57.000Z</time>
      </trkpt>
      <trkpt lat="32.75987570174038410186767578125" lon="-16.81807388551533222198486328125">
        <ele>186.1999969482421875</ele>
        <time>2018-06-23T09:14:58.000Z</time>
      </trkpt>
      <trkpt lat="32.75982071645557880401611328125" lon="-16.817978583276271820068359375">
        <ele>187.399993896484375</ele>
        <time>2018-06-23T09:15:05.000Z</time>
      </trkpt>
      <trkpt lat="32.75981551967561244964599609375" lon="-16.81796341203153133392333984375">
        <ele>188.1999969482421875</ele>
        <time>2018-06-23T09:15:06.000Z</time>
      </trkpt>
      <trkpt lat="32.75980956852436065673828125" lon="-16.81794815696775913238525390625">
        <ele>188.600006103515625</ele>
        <time>2018-06-23T09:15:07.000Z</time>
      </trkpt>
      <trkpt lat="32.75980059988796710968017578125" lon="-16.817908175289630889892578125">
        <ele>190.1999969482421875</ele>
        <time>2018-06-23T09:15:10.000Z</time>
      </trkpt>
      <trkpt lat="32.75979205034673213958740234375" lon="-16.817901134490966796875">
        <ele>191</ele>
        <time>2018-06-23T09:15:11.000Z</time>
      </trkpt>
      <trkpt lat="32.75978408753871917724609375" lon="-16.8179066665470600128173828125">
        <ele>191.600006103515625</ele>
        <time>2018-06-23T09:15:12.000Z</time>
      </trkpt>
      <trkpt lat="32.75977092795073986053466796875" lon="-16.817915551364421844482421875">
        <ele>192.399993896484375</ele>
        <time>2018-06-23T09:15:14.000Z</time>
      </trkpt>
      <trkpt lat="32.759753577411174774169921875" lon="-16.81789887137711048126220703125">
        <ele>193</ele>
        <time>2018-06-23T09:15:16.000Z</time>
      </trkpt>
      <trkpt lat="32.7597282640635967254638671875" lon="-16.81786827743053436279296875">
        <ele>194</ele>
        <time>2018-06-23T09:15:19.000Z</time>
      </trkpt>
      <trkpt lat="32.7597064711153507232666015625" lon="-16.81783198378980159759521484375">
        <ele>195.399993896484375</ele>
        <time>2018-06-23T09:15:22.000Z</time>
      </trkpt>
      <trkpt lat="32.7596833370625972747802734375" lon="-16.817796528339385986328125">
        <ele>196.600006103515625</ele>
        <time>2018-06-23T09:15:25.000Z</time>
      </trkpt>
      <trkpt lat="32.759664393961429595947265625" lon="-16.81776425801217555999755859375">
        <ele>197.8000030517578125</ele>
        <time>2018-06-23T09:15:28.000Z</time>
      </trkpt>
      <trkpt lat="32.75966514833271503448486328125" lon="-16.81775428354740142822265625">
        <ele>198</ele>
        <time>2018-06-23T09:15:29.000Z</time>
      </trkpt>
      <trkpt lat="32.75967855937778949737548828125" lon="-16.81771949864923954010009765625">
        <ele>199</ele>
        <time>2018-06-23T09:15:32.000Z</time>
      </trkpt>
      <trkpt lat="32.7596994303166866302490234375" lon="-16.81768580339848995208740234375">
        <ele>200.1999969482421875</ele>
        <time>2018-06-23T09:15:35.000Z</time>
      </trkpt>
      <trkpt lat="32.75969414971768856048583984375" lon="-16.8176642619073390960693359375">
        <ele>201.1999969482421875</ele>
        <time>2018-06-23T09:15:37.000Z</time>
      </trkpt>
      <trkpt lat="32.7596887014806270599365234375" lon="-16.817662417888641357421875">
        <ele>201.399993896484375</ele>
        <time>2018-06-23T09:15:38.000Z</time>
      </trkpt>
      <trkpt lat="32.75968375615775585174560546875" lon="-16.8176535330712795257568359375">
        <ele>202.8000030517578125</ele>
        <time>2018-06-23T09:15:41.000Z</time>
      </trkpt>
      <trkpt lat="32.7596954070031642913818359375" lon="-16.81762947700917720794677734375">
        <ele>203.8000030517578125</ele>
        <time>2018-06-23T09:15:44.000Z</time>
      </trkpt>
      <trkpt lat="32.7597083151340484619140625" lon="-16.81760734878480434417724609375">
        <ele>204.600006103515625</ele>
        <time>2018-06-23T09:15:46.000Z</time>
      </trkpt>
      <trkpt lat="32.759714014828205108642578125" lon="-16.8175972066819667816162109375">
        <ele>205.1999969482421875</ele>
        <time>2018-06-23T09:15:47.000Z</time>
      </trkpt>
      <trkpt lat="32.7597378194332122802734375" lon="-16.8175660260021686553955078125">
        <ele>206.1999969482421875</ele>
        <time>2018-06-23T09:15:50.000Z</time>
      </trkpt>
      <trkpt lat="32.7597577683627605438232421875" lon="-16.81753224693238735198974609375">
        <ele>207.1999969482421875</ele>
        <time>2018-06-23T09:15:53.000Z</time>
      </trkpt>
      <trkpt lat="32.759763635694980621337890625" lon="-16.8174976296722888946533203125">
        <ele>208.399993896484375</ele>
        <time>2018-06-23T09:15:56.000Z</time>
      </trkpt>
      <trkpt lat="32.7597530744969844818115234375" lon="-16.81747558526694774627685546875">
        <ele>209.399993896484375</ele>
        <time>2018-06-23T09:15:58.000Z</time>
      </trkpt>
      <trkpt lat="32.75974594987928867340087890625" lon="-16.81744390167295932769775390625">
        <ele>210.600006103515625</ele>
        <time>2018-06-23T09:16:01.000Z</time>
      </trkpt>
      <trkpt lat="32.7597406692802906036376953125" lon="-16.8174030818045139312744140625">
        <ele>211.8000030517578125</ele>
        <time>2018-06-23T09:16:04.000Z</time>
      </trkpt>
      <trkpt lat="32.75972683914005756378173828125" lon="-16.81738137267529964447021484375">
        <ele>212.8000030517578125</ele>
        <time>2018-06-23T09:16:06.000Z</time>
      </trkpt>
      <trkpt lat="32.75970554910600185394287109375" lon="-16.81736578233540058135986328125">
        <ele>214.1999969482421875</ele>
        <time>2018-06-23T09:16:09.000Z</time>
      </trkpt>
      <trkpt lat="32.7596962451934814453125" lon="-16.817363016307353973388671875">
        <ele>215.1999969482421875</ele>
        <time>2018-06-23T09:16:12.000Z</time>
      </trkpt>
      <trkpt lat="32.75966783054172992706298828125" lon="-16.81736829690635204315185546875">
        <ele>216.399993896484375</ele>
        <time>2018-06-23T09:16:16.000Z</time>
      </trkpt>
      <trkpt lat="32.759655676782131195068359375" lon="-16.817350275814533233642578125">
        <ele>217.600006103515625</ele>
        <time>2018-06-23T09:16:19.000Z</time>
      </trkpt>
      <trkpt lat="32.75963790714740753173828125" lon="-16.8173289857804775238037109375">
        <ele>218.8000030517578125</ele>
        <time>2018-06-23T09:16:23.000Z</time>
      </trkpt>
      <trkpt lat="32.75962374173104763031005859375" lon="-16.817317418754100799560546875">
        <ele>219.8000030517578125</ele>
        <time>2018-06-23T09:16:26.000Z</time>
      </trkpt>
      <trkpt lat="32.75960697792470455169677734375" lon="-16.81730576790869235992431640625">
        <ele>221.1999969482421875</ele>
        <time>2018-06-23T09:16:30.000Z</time>
      </trkpt>
      <trkpt lat="32.75959591381251811981201171875" lon="-16.817290596663951873779296875">
        <ele>222.399993896484375</ele>
        <time>2018-06-23T09:16:34.000Z</time>
      </trkpt>
      <trkpt lat="32.7596089057624340057373046875" lon="-16.81726302020251750946044921875">
        <ele>223.8000030517578125</ele>
        <time>2018-06-23T09:16:38.000Z</time>
      </trkpt>
      <trkpt lat="32.75961787439882755279541015625" lon="-16.81723133660852909088134765625">
        <ele>224.600006103515625</ele>
        <time>2018-06-23T09:16:42.000Z</time>
      </trkpt>
      <trkpt lat="32.75961083360016345977783203125" lon="-16.81717224419116973876953125">
        <ele>226.1999969482421875</ele>
        <time>2018-06-23T09:16:48.000Z</time>
      </trkpt>
      <trkpt lat="32.75958828628063201904296875" lon="-16.81716009043157100677490234375">
        <ele>227.600006103515625</ele>
        <time>2018-06-23T09:16:51.000Z</time>
      </trkpt>
      <trkpt lat="32.75957210920751094818115234375" lon="-16.817151792347431182861328125">
        <ele>228.600006103515625</ele>
        <time>2018-06-23T09:16:55.000Z</time>
      </trkpt>
      <trkpt lat="32.75957110337913036346435546875" lon="-16.81711801327764987945556640625">
        <ele>230</ele>
        <time>2018-06-23T09:17:00.000Z</time>
      </trkpt>
      <trkpt lat="32.75955677032470703125" lon="-16.81708800606429576873779296875">
        <ele>231.1999969482421875</ele>
        <time>2018-06-23T09:17:04.000Z</time>
      </trkpt>
      <trkpt lat="32.7595626376569271087646484375" lon="-16.81704777292907238006591796875">
        <ele>232.1999969482421875</ele>
        <time>2018-06-23T09:17:08.000Z</time>
      </trkpt>
      <trkpt lat="32.7595676667988300323486328125" lon="-16.81703536771237850189208984375">
        <ele>232.399993896484375</ele>
        <time>2018-06-23T09:17:09.000Z</time>
      </trkpt>
      <trkpt lat="32.7595743723213672637939453125" lon="-16.8170091323554515838623046875">
        <ele>233.399993896484375</ele>
        <time>2018-06-23T09:17:11.000Z</time>
      </trkpt>
      <trkpt lat="32.75956439785659313201904296875" lon="-16.816923134028911590576171875">
        <ele>234.8000030517578125</ele>
        <time>2018-06-23T09:17:18.000Z</time>
      </trkpt>
      <trkpt lat="32.7595519088208675384521484375" lon="-16.81689555756747722625732421875">
        <ele>235.8000030517578125</ele>
        <time>2018-06-23T09:17:22.000Z</time>
      </trkpt>
      <trkpt lat="32.75954344309866428375244140625" lon="-16.81686186231672763824462890625">
        <ele>237</ele>
        <time>2018-06-23T09:17:26.000Z</time>
      </trkpt>
      <trkpt lat="32.7595482207834720611572265625" lon="-16.8168341182172298431396484375">
        <ele>238.1999969482421875</ele>
        <time>2018-06-23T09:17:29.000Z</time>
      </trkpt>
      <trkpt lat="32.75955903343856334686279296875" lon="-16.81680268608033657073974609375">
        <ele>239.399993896484375</ele>
        <time>2018-06-23T09:17:33.000Z</time>
      </trkpt>
      <trkpt lat="32.75955584831535816192626953125" lon="-16.8167746067047119140625">
        <ele>240.600006103515625</ele>
        <time>2018-06-23T09:17:37.000Z</time>
      </trkpt>
      <trkpt lat="32.7595468796789646148681640625" lon="-16.81676094420254230499267578125">
        <ele>241.600006103515625</ele>
        <time>2018-06-23T09:17:40.000Z</time>
      </trkpt>
      <trkpt lat="32.75952500291168689727783203125" lon="-16.8167445994913578033447265625">
        <ele>242.8000030517578125</ele>
        <time>2018-06-23T09:17:44.000Z</time>
      </trkpt>
      <trkpt lat="32.75953154079616069793701171875" lon="-16.81670956313610076904296875">
        <ele>244</ele>
        <time>2018-06-23T09:17:47.000Z</time>
      </trkpt>
      <trkpt lat="32.7595411799848079681396484375" lon="-16.81665080599486827850341796875">
        <ele>245</ele>
        <time>2018-06-23T09:17:51.000Z</time>
      </trkpt>
      <trkpt lat="32.75954981334507465362548828125" lon="-16.8166034482419490814208984375">
        <ele>246</ele>
        <time>2018-06-23T09:17:54.000Z</time>
      </trkpt>
      <trkpt lat="32.75954000651836395263671875" lon="-16.816575117409229278564453125">
        <ele>247.399993896484375</ele>
        <time>2018-06-23T09:17:57.000Z</time>
      </trkpt>
      <trkpt lat="32.75953338481485843658447265625" lon="-16.81656296364963054656982421875">
        <ele>248.1999969482421875</ele>
        <time>2018-06-23T09:17:59.000Z</time>
      </trkpt>
      <trkpt lat="32.759530954062938690185546875" lon="-16.81655810214579105377197265625">
        <ele>248.399993896484375</ele>
        <time>2018-06-23T09:18:00.000Z</time>
      </trkpt>
      <trkpt lat="32.75952299125492572784423828125" lon="-16.816535890102386474609375">
        <ele>249.600006103515625</ele>
        <time>2018-06-23T09:18:03.000Z</time>
      </trkpt>
      <trkpt lat="32.75951427407562732696533203125" lon="-16.81647621095180511474609375">
        <ele>250.8000030517578125</ele>
        <time>2018-06-23T09:18:08.000Z</time>
      </trkpt>
      <trkpt lat="32.75952986441552639007568359375" lon="-16.81644544936716556549072265625">
        <ele>252.1999969482421875</ele>
        <time>2018-06-23T09:18:12.000Z</time>
      </trkpt>
      <trkpt lat="32.7595274336636066436767578125" lon="-16.81642482988536357879638671875">
        <ele>253</ele>
        <time>2018-06-23T09:18:15.000Z</time>
      </trkpt>
      <trkpt lat="32.7595224045217037200927734375" lon="-16.81642466224730014801025390625">
        <ele>253.399993896484375</ele>
        <time>2018-06-23T09:18:16.000Z</time>
      </trkpt>
      <trkpt lat="32.759503461420536041259765625" lon="-16.81641946546733379364013671875">
        <ele>254.399993896484375</ele>
        <time>2018-06-23T09:18:19.000Z</time>
      </trkpt>
      <trkpt lat="32.75948636233806610107421875" lon="-16.81640404276549816131591796875">
        <ele>255.8000030517578125</ele>
        <time>2018-06-23T09:18:23.000Z</time>
      </trkpt>
      <trkpt lat="32.75948225520551204681396484375" lon="-16.81636028923094272613525390625">
        <ele>257</ele>
        <time>2018-06-23T09:18:27.000Z</time>
      </trkpt>
      <trkpt lat="32.75946331210434436798095703125" lon="-16.8163365684449672698974609375">
        <ele>258.20001220703125</ele>
        <time>2018-06-23T09:18:31.000Z</time>
      </trkpt>
      <trkpt lat="32.759452499449253082275390625" lon="-16.8163221515715122222900390625">
        <ele>259.399993896484375</ele>
        <time>2018-06-23T09:18:34.000Z</time>
      </trkpt>
      <trkpt lat="32.75942467153072357177734375" lon="-16.81630262173712253570556640625">
        <ele>260.600006103515625</ele>
        <time>2018-06-23T09:18:38.000Z</time>
      </trkpt>
      <trkpt lat="32.7594322152435779571533203125" lon="-16.81626004166901111602783203125">
        <ele>261.79998779296875</ele>
        <time>2018-06-23T09:18:42.000Z</time>
      </trkpt>
      <trkpt lat="32.75945241563022136688232421875" lon="-16.8162037990987300872802734375">
        <ele>263</ele>
        <time>2018-06-23T09:18:46.000Z</time>
      </trkpt>
      <trkpt lat="32.75944336317479610443115234375" lon="-16.81616130284965038299560546875">
        <ele>264.20001220703125</ele>
        <time>2018-06-23T09:18:50.000Z</time>
      </trkpt>
      <trkpt lat="32.75943548418581485748291015625" lon="-16.81613448075950145721435546875">
        <ele>265.600006103515625</ele>
        <time>2018-06-23T09:18:54.000Z</time>
      </trkpt>
      <trkpt lat="32.75941654108464717864990234375" lon="-16.8161260150372982025146484375">
        <ele>267</ele>
        <time>2018-06-23T09:18:58.000Z</time>
      </trkpt>
      <trkpt lat="32.75941117666661739349365234375" lon="-16.81610363535583019256591796875">
        <ele>268</ele>
        <time>2018-06-23T09:19:02.000Z</time>
      </trkpt>
      <trkpt lat="32.7594141103327274322509765625" lon="-16.81606876663863658905029296875">
        <ele>269.20001220703125</ele>
        <time>2018-06-23T09:19:06.000Z</time>
      </trkpt>
      <trkpt lat="32.75943481363356113433837890625" lon="-16.81601076386868953704833984375">
        <ele>270.399993896484375</ele>
        <time>2018-06-23T09:19:10.000Z</time>
      </trkpt>
      <trkpt lat="32.75945006869733333587646484375" lon="-16.81594437919557094573974609375">
        <ele>271.79998779296875</ele>
        <time>2018-06-23T09:19:14.000Z</time>
      </trkpt>
      <trkpt lat="32.75946079753339290618896484375" lon="-16.8159000389277935028076171875">
        <ele>272.79998779296875</ele>
        <time>2018-06-23T09:19:17.000Z</time>
      </trkpt>
      <trkpt lat="32.7594587020576000213623046875" lon="-16.8158504180610179901123046875">
        <ele>274.20001220703125</ele>
        <time>2018-06-23T09:19:21.000Z</time>
      </trkpt>
      <trkpt lat="32.7594560198485851287841796875" lon="-16.8158380128443241119384765625">
        <ele>274.399993896484375</ele>
        <time>2018-06-23T09:19:22.000Z</time>
      </trkpt>
      <trkpt lat="32.759436406195163726806640625" lon="-16.8158209137618541717529296875">
        <ele>275.20001220703125</ele>
        <time>2018-06-23T09:19:25.000Z</time>
      </trkpt>
      <trkpt lat="32.75941184721887111663818359375" lon="-16.81581915356218814849853515625">
        <ele>276.399993896484375</ele>
        <time>2018-06-23T09:19:29.000Z</time>
      </trkpt>
      <trkpt lat="32.7593993581831455230712890625" lon="-16.8158380128443241119384765625">
        <ele>277.600006103515625</ele>
        <time>2018-06-23T09:19:32.000Z</time>
      </trkpt>
      <trkpt lat="32.759392149746417999267578125" lon="-16.81585620157420635223388671875">
        <ele>278.600006103515625</ele>
        <time>2018-06-23T09:19:35.000Z</time>
      </trkpt>
      <trkpt lat="32.7593849413096904754638671875" lon="-16.815889813005924224853515625">
        <ele>279.79998779296875</ele>
        <time>2018-06-23T09:19:39.000Z</time>
      </trkpt>
      <trkpt lat="32.759371697902679443359375" lon="-16.81590716354548931121826171875">
        <ele>281</ele>
        <time>2018-06-23T09:19:42.000Z</time>
      </trkpt>
      <trkpt lat="32.75935434736311435699462890625" lon="-16.8159377574920654296875">
        <ele>281.600006103515625</ele>
        <time>2018-06-23T09:19:45.000Z</time>
      </trkpt>
      <trkpt lat="32.75934160687029361724853515625" lon="-16.81595318019390106201171875">
        <ele>282</ele>
        <time>2018-06-23T09:19:47.000Z</time>
      </trkpt>
      <trkpt lat="32.7593289501965045928955078125" lon="-16.81595326401293277740478515625">
        <ele>282.79998779296875</ele>
        <time>2018-06-23T09:19:49.000Z</time>
      </trkpt>
      <trkpt lat="32.75932434014976024627685546875" lon="-16.8159419484436511993408203125">
        <ele>283.20001220703125</ele>
        <time>2018-06-23T09:19:51.000Z</time>
      </trkpt>
      <trkpt lat="32.7593274414539337158203125" lon="-16.8159117735922336578369140625">
        <ele>284.399993896484375</ele>
        <time>2018-06-23T09:19:55.000Z</time>
      </trkpt>
      <trkpt lat="32.7593162097036838531494140625" lon="-16.8158752284944057464599609375">
        <ele>285.600006103515625</ele>
        <time>2018-06-23T09:19:59.000Z</time>
      </trkpt>
      <trkpt lat="32.7593006193637847900390625" lon="-16.81588084436953067779541015625">
        <ele>286.79998779296875</ele>
        <time>2018-06-23T09:20:03.000Z</time>
      </trkpt>
      <trkpt lat="32.75927874259650707244873046875" lon="-16.815877072513103485107421875">
        <ele>288</ele>
        <time>2018-06-23T09:20:07.000Z</time>
      </trkpt>
      <trkpt lat="32.7592639066278934478759765625" lon="-16.8158541060984134674072265625">
        <ele>289.20001220703125</ele>
        <time>2018-06-23T09:20:11.000Z</time>
      </trkpt>
      <trkpt lat="32.75925359688699245452880859375" lon="-16.815840862691402435302734375">
        <ele>290.399993896484375</ele>
        <time>2018-06-23T09:20:14.000Z</time>
      </trkpt>
      <trkpt lat="32.75923666544258594512939453125" lon="-16.81585117243230342864990234375">
        <ele>292</ele>
        <time>2018-06-23T09:20:18.000Z</time>
      </trkpt>
      <trkpt lat="32.75921604596078395843505859375" lon="-16.8158479034900665283203125">
        <ele>293.20001220703125</ele>
        <time>2018-06-23T09:20:22.000Z</time>
      </trkpt>
      <trkpt lat="32.759213112294673919677734375" lon="-16.81580834090709686279296875">
        <ele>294.399993896484375</ele>
        <time>2018-06-23T09:20:26.000Z</time>
      </trkpt>
      <trkpt lat="32.759210430085659027099609375" lon="-16.81578847579658031463623046875">
        <ele>295</ele>
        <time>2018-06-23T09:20:28.000Z</time>
      </trkpt>
      <trkpt lat="32.7592067420482635498046875" lon="-16.81577481329441070556640625">
        <ele>295.79998779296875</ele>
        <time>2018-06-23T09:20:30.000Z</time>
      </trkpt>
      <trkpt lat="32.75920146144926548004150390625" lon="-16.815753020346164703369140625">
        <ele>297.20001220703125</ele>
        <time>2018-06-23T09:20:34.000Z</time>
      </trkpt>
      <trkpt lat="32.75920866988599300384521484375" lon="-16.8157246895134449005126953125">
        <ele>298.20001220703125</ele>
        <time>2018-06-23T09:20:38.000Z</time>
      </trkpt>
      <trkpt lat="32.7592069096863269805908203125" lon="-16.8157005496323108673095703125">
        <ele>298.79998779296875</ele>
        <time>2018-06-23T09:20:40.000Z</time>
      </trkpt>
      <trkpt lat="32.7592005394399166107177734375" lon="-16.81569057516753673553466796875">
        <ele>299.399993896484375</ele>
        <time>2018-06-23T09:20:42.000Z</time>
      </trkpt>
      <trkpt lat="32.75918402709066867828369140625" lon="-16.815676577389240264892578125">
        <ele>300.600006103515625</ele>
        <time>2018-06-23T09:20:45.000Z</time>
      </trkpt>
      <trkpt lat="32.75915242731571197509765625" lon="-16.81566727347671985626220703125">
        <ele>302</ele>
        <time>2018-06-23T09:20:49.000Z</time>
      </trkpt>
      <trkpt lat="32.759133987128734588623046875" lon="-16.8156589753925800323486328125">
        <ele>303</ele>
        <time>2018-06-23T09:20:52.000Z</time>
      </trkpt>
      <trkpt lat="32.75912099517881870269775390625" lon="-16.81565268896520137786865234375">
        <ele>304</ele>
        <time>2018-06-23T09:20:55.000Z</time>
      </trkpt>
      <trkpt lat="32.75912158191204071044921875" lon="-16.81564732454717159271240234375">
        <ele>305.20001220703125</ele>
        <time>2018-06-23T09:20:59.000Z</time>
      </trkpt>
      <trkpt lat="32.759087048470973968505859375" lon="-16.81562553159892559051513671875">
        <ele>306.399993896484375</ele>
        <time>2018-06-23T09:21:04.000Z</time>
      </trkpt>
      <trkpt lat="32.7590684406459331512451171875" lon="-16.8156197480857372283935546875">
        <ele>307.20001220703125</ele>
        <time>2018-06-23T09:21:06.000Z</time>
      </trkpt>
      <trkpt lat="32.75906064547598361968994140625" lon="-16.815614886581897735595703125">
        <ele>307.399993896484375</ele>
        <time>2018-06-23T09:21:07.000Z</time>
      </trkpt>
      <trkpt lat="32.75902963243424892425537109375" lon="-16.815593428909778594970703125">
        <ele>308.600006103515625</ele>
        <time>2018-06-23T09:21:11.000Z</time>
      </trkpt>
      <trkpt lat="32.75899945758283138275146484375" lon="-16.815578676760196685791015625">
        <ele>309.79998779296875</ele>
        <time>2018-06-23T09:21:15.000Z</time>
      </trkpt>
      <trkpt lat="32.75897406041622161865234375" lon="-16.8155459873378276824951171875">
        <ele>310.79998779296875</ele>
        <time>2018-06-23T09:21:19.000Z</time>
      </trkpt>
      <trkpt lat="32.7589557878673076629638671875" lon="-16.81551639921963214874267578125">
        <ele>312</ele>
        <time>2018-06-23T09:21:23.000Z</time>
      </trkpt>
      <trkpt lat="32.75896928273141384124755859375" lon="-16.81548102758824825286865234375">
        <ele>313.20001220703125</ele>
        <time>2018-06-23T09:21:27.000Z</time>
      </trkpt>
      <trkpt lat="32.7589799277484416961669921875" lon="-16.8154487572610378265380859375">
        <ele>314.399993896484375</ele>
        <time>2018-06-23T09:21:31.000Z</time>
      </trkpt>
      <trkpt lat="32.758982442319393157958984375" lon="-16.81542101316154003143310546875">
        <ele>315.399993896484375</ele>
        <time>2018-06-23T09:21:35.000Z</time>
      </trkpt>
      <trkpt lat="32.758981101214885711669921875" lon="-16.81539251469075679779052734375">
        <ele>316.79998779296875</ele>
        <time>2018-06-23T09:21:39.000Z</time>
      </trkpt>
      <trkpt lat="32.7589886449277400970458984375" lon="-16.815356723964214324951171875">
        <ele>317.79998779296875</ele>
        <time>2018-06-23T09:21:42.000Z</time>
      </trkpt>
      <trkpt lat="32.758995853364467620849609375" lon="-16.81533970870077610015869140625">
        <ele>318</ele>
        <time>2018-06-23T09:21:43.000Z</time>
      </trkpt>
      <trkpt lat="32.75905444286763668060302734375" lon="-16.8152405507862567901611328125">
        <ele>319</ele>
        <time>2018-06-23T09:21:49.000Z</time>
      </trkpt>
      <trkpt lat="32.75908160023391246795654296875" lon="-16.815172322094440460205078125">
        <ele>320.20001220703125</ele>
        <time>2018-06-23T09:21:53.000Z</time>
      </trkpt>
      <trkpt lat="32.75915854610502719879150390625" lon="-16.81502270512282848358154296875">
        <ele>321.20001220703125</ele>
        <time>2018-06-23T09:22:01.000Z</time>
      </trkpt>
      <trkpt lat="32.75924471206963062286376953125" lon="-16.81484970264136791229248046875">
        <ele>322.399993896484375</ele>
        <time>2018-06-23T09:22:14.000Z</time>
      </trkpt>
      <trkpt lat="32.75925703346729278564453125" lon="-16.81483109481632709503173828125">
        <ele>323.600006103515625</ele>
        <time>2018-06-23T09:22:17.000Z</time>
      </trkpt>
      <trkpt lat="32.7592917345464229583740234375" lon="-16.81482128798961639404296875">
        <ele>324.79998779296875</ele>
        <time>2018-06-23T09:22:20.000Z</time>
      </trkpt>
      <trkpt lat="32.75936155579984188079833984375" lon="-16.814784742891788482666015625">
        <ele>325.79998779296875</ele>
        <time>2018-06-23T09:22:25.000Z</time>
      </trkpt>
      <trkpt lat="32.75937412865459918975830078125" lon="-16.81477837264537811279296875">
        <ele>326.20001220703125</ele>
        <time>2018-06-23T09:22:26.000Z</time>
      </trkpt>
      <trkpt lat="32.75940497405827045440673828125" lon="-16.8147802166640758514404296875">
        <ele>327</ele>
        <time>2018-06-23T09:22:28.000Z</time>
      </trkpt>
      <trkpt lat="32.75944612920284271240234375" lon="-16.81478180922567844390869140625">
        <ele>328</ele>
        <time>2018-06-23T09:22:31.000Z</time>
      </trkpt>
      <trkpt lat="32.75947152636945247650146484375" lon="-16.81475113146007061004638671875">
        <ele>329.399993896484375</ele>
        <time>2018-06-23T09:22:35.000Z</time>
      </trkpt>
      <trkpt lat="32.7594588696956634521484375" lon="-16.814735792577266693115234375">
        <ele>329.79998779296875</ele>
        <time>2018-06-23T09:22:37.000Z</time>
      </trkpt>
      <trkpt lat="32.75944571010768413543701171875" lon="-16.81472875177860260009765625">
        <ele>330.79998779296875</ele>
        <time>2018-06-23T09:22:39.000Z</time>
      </trkpt>
      <trkpt lat="32.759438417851924896240234375" lon="-16.81471408344805240631103515625">
        <ele>332</ele>
        <time>2018-06-23T09:22:43.000Z</time>
      </trkpt>
      <trkpt lat="32.7594359032809734344482421875" lon="-16.81469120085239410400390625">
        <ele>333.399993896484375</ele>
        <time>2018-06-23T09:22:46.000Z</time>
      </trkpt>
      <trkpt lat="32.75940455496311187744140625" lon="-16.81467552669346332550048828125">
        <ele>334.79998779296875</ele>
        <time>2018-06-23T09:22:51.000Z</time>
      </trkpt>
      <trkpt lat="32.75942894630134105682373046875" lon="-16.81465809233486652374267578125">
        <ele>335.79998779296875</ele>
        <time>2018-06-23T09:22:55.000Z</time>
      </trkpt>
      <trkpt lat="32.75944286026060581207275390625" lon="-16.8146387301385402679443359375">
        <ele>337</ele>
        <time>2018-06-23T09:22:59.000Z</time>
      </trkpt>
      <trkpt lat="32.75945526547729969024658203125" lon="-16.81462322361767292022705078125">
        <ele>338.399993896484375</ele>
        <time>2018-06-23T09:23:03.000Z</time>
      </trkpt>
      <trkpt lat="32.75945409201085567474365234375" lon="-16.814603023231029510498046875">
        <ele>339.600006103515625</ele>
        <time>2018-06-23T09:23:07.000Z</time>
      </trkpt>
      <trkpt lat="32.759449146687984466552734375" lon="-16.81458969600498676300048828125">
        <ele>340.79998779296875</ele>
        <time>2018-06-23T09:23:11.000Z</time>
      </trkpt>
      <trkpt lat="32.75946901179850101470947265625" lon="-16.81457745842635631561279296875">
        <ele>342</ele>
        <time>2018-06-23T09:23:15.000Z</time>
      </trkpt>
      <trkpt lat="32.7594945766031742095947265625" lon="-16.8145612813532352447509765625">
        <ele>343.20001220703125</ele>
        <time>2018-06-23T09:23:18.000Z</time>
      </trkpt>
      <trkpt lat="32.759516872465610504150390625" lon="-16.814520545303821563720703125">
        <ele>344.399993896484375</ele>
        <time>2018-06-23T09:23:22.000Z</time>
      </trkpt>
      <trkpt lat="32.759523577988147735595703125" lon="-16.8144948966801166534423828125">
        <ele>345</ele>
        <time>2018-06-23T09:23:24.000Z</time>
      </trkpt>
      <trkpt lat="32.7595312893390655517578125" lon="-16.81447528302669525146484375">
        <ele>345.600006103515625</ele>
        <time>2018-06-23T09:23:26.000Z</time>
      </trkpt>
      <trkpt lat="32.75954805314540863037109375" lon="-16.81445240043103694915771484375">
        <ele>346.399993896484375</ele>
        <time>2018-06-23T09:23:29.000Z</time>
      </trkpt>
      <trkpt lat="32.7595554292201995849609375" lon="-16.81444183923304080963134765625">
        <ele>346.79998779296875</ele>
        <time>2018-06-23T09:23:30.000Z</time>
      </trkpt>
      <trkpt lat="32.7595639787614345550537109375" lon="-16.8144325353205204010009765625">
        <ele>347.20001220703125</ele>
        <time>2018-06-23T09:23:31.000Z</time>
      </trkpt>
      <trkpt lat="32.7595794014632701873779296875" lon="-16.8144043721258640289306640625">
        <ele>347.600006103515625</ele>
        <time>2018-06-23T09:23:34.000Z</time>
      </trkpt>
      <trkpt lat="32.75957026518881320953369140625" lon="-16.8143547512590885162353515625">
        <ele>348.79998779296875</ele>
        <time>2018-06-23T09:23:38.000Z</time>
      </trkpt>
      <trkpt lat="32.75955467484891414642333984375" lon="-16.81433320976793766021728515625">
        <ele>349.600006103515625</ele>
        <time>2018-06-23T09:23:41.000Z</time>
      </trkpt>
      <trkpt lat="32.75955081917345523834228515625" lon="-16.8143329583108425140380859375">
        <ele>349.79998779296875</ele>
        <time>2018-06-23T09:23:42.000Z</time>
      </trkpt>
      <trkpt lat="32.7595393359661102294921875" lon="-16.8143383227288722991943359375">
        <ele>351.20001220703125</ele>
        <time>2018-06-23T09:23:45.000Z</time>
      </trkpt>
      <trkpt lat="32.7595177106559276580810546875" lon="-16.8143624626100063323974609375">
        <ele>352.20001220703125</ele>
        <time>2018-06-23T09:23:49.000Z</time>
      </trkpt>
      <trkpt lat="32.7594895474612712860107421875" lon="-16.81434628553688526153564453125">
        <ele>353.399993896484375</ele>
        <time>2018-06-23T09:23:53.000Z</time>
      </trkpt>
      <trkpt lat="32.75947001762688159942626953125" lon="-16.81433103047311305999755859375">
        <ele>354.399993896484375</ele>
        <time>2018-06-23T09:23:56.000Z</time>
      </trkpt>
      <trkpt lat="32.75945912115275859832763671875" lon="-16.8143088184297084808349609375">
        <ele>356</ele>
        <time>2018-06-23T09:24:00.000Z</time>
      </trkpt>
      <trkpt lat="32.75943816639482975006103515625" lon="-16.814293228089809417724609375">
        <ele>357</ele>
        <time>2018-06-23T09:24:04.000Z</time>
      </trkpt>
      <trkpt lat="32.7594124339520931243896484375" lon="-16.814273782074451446533203125">
        <ele>358.399993896484375</ele>
        <time>2018-06-23T09:24:08.000Z</time>
      </trkpt>
      <trkpt lat="32.75940279476344585418701171875" lon="-16.81425861082971096038818359375">
        <ele>359.399993896484375</ele>
        <time>2018-06-23T09:24:11.000Z</time>
      </trkpt>
      <trkpt lat="32.75938049890100955963134765625" lon="-16.81423832662403583526611328125">
        <ele>360.600006103515625</ele>
        <time>2018-06-23T09:24:15.000Z</time>
      </trkpt>
      <trkpt lat="32.75936541147530078887939453125" lon="-16.81421770714223384857177734375">
        <ele>361.399993896484375</ele>
        <time>2018-06-23T09:24:18.000Z</time>
      </trkpt>
      <trkpt lat="32.7593435347080230712890625" lon="-16.81418292224407196044921875">
        <ele>362.79998779296875</ele>
        <time>2018-06-23T09:24:23.000Z</time>
      </trkpt>
      <trkpt lat="32.75931847281754016876220703125" lon="-16.81417210958898067474365234375">
        <ele>364</ele>
        <time>2018-06-23T09:24:27.000Z</time>
      </trkpt>
      <trkpt lat="32.7593021281063556671142578125" lon="-16.8141569383442401885986328125">
        <ele>365.20001220703125</ele>
        <time>2018-06-23T09:24:31.000Z</time>
      </trkpt>
      <trkpt lat="32.75928896851837635040283203125" lon="-16.81414268910884857177734375">
        <ele>366.20001220703125</ele>
        <time>2018-06-23T09:24:35.000Z</time>
      </trkpt>
      <trkpt lat="32.75926533155143260955810546875" lon="-16.8141418509185314178466796875">
        <ele>367.600006103515625</ele>
        <time>2018-06-23T09:24:39.000Z</time>
      </trkpt>
      <trkpt lat="32.7592442929744720458984375" lon="-16.81414025835692882537841796875">
        <ele>369</ele>
        <time>2018-06-23T09:24:43.000Z</time>
      </trkpt>
      <trkpt lat="32.75923817418515682220458984375" lon="-16.81412785314023494720458984375">
        <ele>370.20001220703125</ele>
        <time>2018-06-23T09:24:47.000Z</time>
      </trkpt>
      <trkpt lat="32.75922895409166812896728515625" lon="-16.81411662138998508453369140625">
        <ele>371.399993896484375</ele>
        <time>2018-06-23T09:24:51.000Z</time>
      </trkpt>
      <trkpt lat="32.7592243440449237823486328125" lon="-16.814121901988983154296875">
        <ele>372.399993896484375</ele>
        <time>2018-06-23T09:24:54.000Z</time>
      </trkpt>
      <trkpt lat="32.75921705178916454315185546875" lon="-16.814127266407012939453125">
        <ele>373.600006103515625</ele>
        <time>2018-06-23T09:24:57.000Z</time>
      </trkpt>
      <trkpt lat="32.7591827698051929473876953125" lon="-16.81413137353956699371337890625">
        <ele>374.600006103515625</ele>
        <time>2018-06-23T09:25:02.000Z</time>
      </trkpt>
      <trkpt lat="32.75916441343724727630615234375" lon="-16.814134307205677032470703125">
        <ele>376</ele>
        <time>2018-06-23T09:25:06.000Z</time>
      </trkpt>
      <trkpt lat="32.75915108621120452880859375" lon="-16.8141358159482479095458984375">
        <ele>377</ele>
        <time>2018-06-23T09:25:10.000Z</time>
      </trkpt>
      <trkpt lat="32.759130634367465972900390625" lon="-16.8141304515302181243896484375">
        <ele>378.399993896484375</ele>
        <time>2018-06-23T09:25:14.000Z</time>
      </trkpt>
      <trkpt lat="32.75910942815244197845458984375" lon="-16.8141291104257106781005859375">
        <ele>379.79998779296875</ele>
        <time>2018-06-23T09:25:18.000Z</time>
      </trkpt>
      <trkpt lat="32.7590967714786529541015625" lon="-16.8141136877238750457763671875">
        <ele>380.79998779296875</ele>
        <time>2018-06-23T09:25:22.000Z</time>
      </trkpt>
      <trkpt lat="32.759079001843929290771484375" lon="-16.8140803277492523193359375">
        <ele>382.20001220703125</ele>
        <time>2018-06-23T09:25:27.000Z</time>
      </trkpt>
      <trkpt lat="32.75907154195010662078857421875" lon="-16.8140654079616069793701171875">
        <ele>383.20001220703125</ele>
        <time>2018-06-23T09:25:31.000Z</time>
      </trkpt>
      <trkpt lat="32.75906584225594997406005859375" lon="-16.81407404132187366485595703125">
        <ele>384.399993896484375</ele>
        <time>2018-06-23T09:25:34.000Z</time>
      </trkpt>
      <trkpt lat="32.7590530179440975189208984375" lon="-16.814077980816364288330078125">
        <ele>385.600006103515625</ele>
        <time>2018-06-23T09:25:38.000Z</time>
      </trkpt>
      <trkpt lat="32.7590335719287395477294921875" lon="-16.81408292613923549652099609375">
        <ele>387</ele>
        <time>2018-06-23T09:25:42.000Z</time>
      </trkpt>
      <trkpt lat="32.75900800712406635284423828125" lon="-16.8140962533652782440185546875">
        <ele>388</ele>
        <time>2018-06-23T09:25:46.000Z</time>
      </trkpt>
      <trkpt lat="32.758973725140094757080078125" lon="-16.81409700773656368255615234375">
        <ele>389.399993896484375</ele>
        <time>2018-06-23T09:25:50.000Z</time>
      </trkpt>
      <trkpt lat="32.75898638181388378143310546875" lon="-16.81407295167446136474609375">
        <ele>390.600006103515625</ele>
        <time>2018-06-23T09:25:55.000Z</time>
      </trkpt>
      <trkpt lat="32.75899308733642101287841796875" lon="-16.814061217010021209716796875">
        <ele>391.600006103515625</ele>
        <time>2018-06-23T09:25:58.000Z</time>
      </trkpt>
      <trkpt lat="32.75899124331772327423095703125" lon="-16.81402961723506450653076171875">
        <ele>392.600006103515625</ele>
        <time>2018-06-23T09:26:02.000Z</time>
      </trkpt>
      <trkpt lat="32.75897263549268245697021484375" lon="-16.81401520036160945892333984375">
        <ele>394.20001220703125</ele>
        <time>2018-06-23T09:26:06.000Z</time>
      </trkpt>
      <trkpt lat="32.7589680254459381103515625" lon="-16.81402198970317840576171875">
        <ele>395.20001220703125</ele>
        <time>2018-06-23T09:26:10.000Z</time>
      </trkpt>
      <trkpt lat="32.7589423768222332000732421875" lon="-16.8140245042741298675537109375">
        <ele>396.399993896484375</ele>
        <time>2018-06-23T09:26:14.000Z</time>
      </trkpt>
      <trkpt lat="32.75893273763358592987060546875" lon="-16.8140248395502567291259765625">
        <ele>396.600006103515625</ele>
        <time>2018-06-23T09:26:15.000Z</time>
      </trkpt>
      <trkpt lat="32.75891731493175029754638671875" lon="-16.8140194751322269439697265625">
        <ele>397.600006103515625</ele>
        <time>2018-06-23T09:26:18.000Z</time>
      </trkpt>
      <trkpt lat="32.75890298187732696533203125" lon="-16.81401922367513179779052734375">
        <ele>398.600006103515625</ele>
        <time>2018-06-23T09:26:21.000Z</time>
      </trkpt>
      <trkpt lat="32.7588741481304168701171875" lon="-16.81402995251119136810302734375">
        <ele>399.600006103515625</ele>
        <time>2018-06-23T09:26:25.000Z</time>
      </trkpt>
      <trkpt lat="32.7588578872382640838623046875" lon="-16.8140302039682865142822265625">
        <ele>400.79998779296875</ele>
        <time>2018-06-23T09:26:28.000Z</time>
      </trkpt>
      <trkpt lat="32.75884305126965045928955078125" lon="-16.8140295334160327911376953125">
        <ele>402</ele>
        <time>2018-06-23T09:26:32.000Z</time>
      </trkpt>
      <trkpt lat="32.75883726775646209716796875" lon="-16.81402442045509815216064453125">
        <ele>403</ele>
        <time>2018-06-23T09:26:34.000Z</time>
      </trkpt>
      <trkpt lat="32.75882695801556110382080078125" lon="-16.81402039714157581329345703125">
        <ele>404.20001220703125</ele>
        <time>2018-06-23T09:26:39.000Z</time>
      </trkpt>
      <trkpt lat="32.7588139660656452178955078125" lon="-16.81401318870484828948974609375">
        <ele>405.399993896484375</ele>
        <time>2018-06-23T09:26:43.000Z</time>
      </trkpt>
      <trkpt lat="32.75880784727632999420166015625" lon="-16.81400463916361331939697265625">
        <ele>406.399993896484375</ele>
        <time>2018-06-23T09:26:46.000Z</time>
      </trkpt>
      <trkpt lat="32.758796699345111846923828125" lon="-16.81398988701403141021728515625">
        <ele>407.79998779296875</ele>
        <time>2018-06-23T09:26:50.000Z</time>
      </trkpt>
      <trkpt lat="32.7587868086993694305419921875" lon="-16.8139869533479213714599609375">
        <ele>408.79998779296875</ele>
        <time>2018-06-23T09:26:53.000Z</time>
      </trkpt>
      <trkpt lat="32.7587787620723247528076171875" lon="-16.81397102773189544677734375">
        <ele>410.20001220703125</ele>
        <time>2018-06-23T09:26:57.000Z</time>
      </trkpt>
      <trkpt lat="32.758759818971157073974609375" lon="-16.813963986933231353759765625">
        <ele>411.399993896484375</ele>
        <time>2018-06-23T09:27:01.000Z</time>
      </trkpt>
      <trkpt lat="32.7587435580790042877197265625" lon="-16.81395183317363262176513671875">
        <ele>412.600006103515625</ele>
        <time>2018-06-23T09:27:05.000Z</time>
      </trkpt>
      <trkpt lat="32.7587427198886871337890625" lon="-16.81391092948615550994873046875">
        <ele>413.79998779296875</ele>
        <time>2018-06-23T09:27:09.000Z</time>
      </trkpt>
      <trkpt lat="32.75874095968902111053466796875" lon="-16.81389919482171535491943359375">
        <ele>414</ele>
        <time>2018-06-23T09:27:10.000Z</time>
      </trkpt>
      <trkpt lat="32.75873132050037384033203125" lon="-16.81388058699667453765869140625">
        <ele>415</ele>
        <time>2018-06-23T09:27:13.000Z</time>
      </trkpt>
      <trkpt lat="32.75872000493109226226806640625" lon="-16.81386348791420459747314453125">
        <ele>415.79998779296875</ele>
        <time>2018-06-23T09:27:17.000Z</time>
      </trkpt>
      <trkpt lat="32.75870726443827152252197265625" lon="-16.81384873576462268829345703125">
        <ele>417</ele>
        <time>2018-06-23T09:27:21.000Z</time>
      </trkpt>
      <trkpt lat="32.7586845494806766510009765625" lon="-16.8138085864484310150146484375">
        <ele>418.399993896484375</ele>
        <time>2018-06-23T09:27:26.000Z</time>
      </trkpt>
      <trkpt lat="32.75865546427667140960693359375" lon="-16.81378285400569438934326171875">
        <ele>419.600006103515625</ele>
        <time>2018-06-23T09:27:30.000Z</time>
      </trkpt>
      <trkpt lat="32.75864188559353351593017578125" lon="-16.81376324035227298736572265625">
        <ele>420.79998779296875</ele>
        <time>2018-06-23T09:27:34.000Z</time>
      </trkpt>
      <trkpt lat="32.75861858390271663665771484375" lon="-16.81375821121037006378173828125">
        <ele>421.79998779296875</ele>
        <time>2018-06-23T09:27:37.000Z</time>
      </trkpt>
      <trkpt lat="32.75860232301056385040283203125" lon="-16.813754104077816009521484375">
        <ele>423.20001220703125</ele>
        <time>2018-06-23T09:27:40.000Z</time>
      </trkpt>
      <trkpt lat="32.75857717730104923248291015625" lon="-16.813739351928234100341796875">
        <ele>424.20001220703125</ele>
        <time>2018-06-23T09:27:44.000Z</time>
      </trkpt>
      <trkpt lat="32.758566029369831085205078125" lon="-16.81372300721704959869384765625">
        <ele>425.399993896484375</ele>
        <time>2018-06-23T09:27:48.000Z</time>
      </trkpt>
      <trkpt lat="32.75855161249637603759765625" lon="-16.81370548903942108154296875">
        <ele>426.600006103515625</ele>
        <time>2018-06-23T09:27:52.000Z</time>
      </trkpt>
      <trkpt lat="32.75853023864328861236572265625" lon="-16.81369249708950519561767578125">
        <ele>427.600006103515625</ele>
        <time>2018-06-23T09:27:56.000Z</time>
      </trkpt>
      <trkpt lat="32.7585192583501338958740234375" lon="-16.81368310935795307159423828125">
        <ele>429</ele>
        <time>2018-06-23T09:28:00.000Z</time>
      </trkpt>
      <trkpt lat="32.75850794278085231781005859375" lon="-16.81367439217865467071533203125">
        <ele>430</ele>
        <time>2018-06-23T09:28:03.000Z</time>
      </trkpt>
      <trkpt lat="32.7584927715361118316650390625" lon="-16.8136614002287387847900390625">
        <ele>431.399993896484375</ele>
        <time>2018-06-23T09:28:07.000Z</time>
      </trkpt>
      <trkpt lat="32.7584852278232574462890625" lon="-16.81365050375461578369140625">
        <ele>432.399993896484375</ele>
        <time>2018-06-23T09:28:10.000Z</time>
      </trkpt>
      <trkpt lat="32.758462093770503997802734375" lon="-16.813605241477489471435546875">
        <ele>433.600006103515625</ele>
        <time>2018-06-23T09:28:15.000Z</time>
      </trkpt>
      <trkpt lat="32.758454382419586181640625" lon="-16.8135519325733184814453125">
        <ele>434.600006103515625</ele>
        <time>2018-06-23T09:28:19.000Z</time>
      </trkpt>
      <trkpt lat="32.75846569798886775970458984375" lon="-16.81350708939135074615478515625">
        <ele>435.600006103515625</ele>
        <time>2018-06-23T09:28:22.000Z</time>
      </trkpt>
      <trkpt lat="32.75845664553344249725341796875" lon="-16.81345746852457523345947265625">
        <ele>436.79998779296875</ele>
        <time>2018-06-23T09:28:26.000Z</time>
      </trkpt>
      <trkpt lat="32.75845580734312534332275390625" lon="-16.81342075578868389129638671875">
        <ele>438.20001220703125</ele>
        <time>2018-06-23T09:28:30.000Z</time>
      </trkpt>
      <trkpt lat="32.75847743265330791473388671875" lon="-16.81339376606047153472900390625">
        <ele>439.600006103515625</ele>
        <time>2018-06-23T09:28:35.000Z</time>
      </trkpt>
      <trkpt lat="32.7584879100322723388671875" lon="-16.81338136084377765655517578125">
        <ele>440.600006103515625</ele>
        <time>2018-06-23T09:28:39.000Z</time>
      </trkpt>
      <trkpt lat="32.7584907598793506622314453125" lon="-16.8133636750280857086181640625">
        <ele>442.20001220703125</ele>
        <time>2018-06-23T09:28:43.000Z</time>
      </trkpt>
      <trkpt lat="32.75848329998552799224853515625" lon="-16.8133373558521270751953125">
        <ele>443.399993896484375</ele>
        <time>2018-06-23T09:28:47.000Z</time>
      </trkpt>
      <trkpt lat="32.758475504815578460693359375" lon="-16.8133266270160675048828125">
        <ele>444.399993896484375</ele>
        <time>2018-06-23T09:28:50.000Z</time>
      </trkpt>
      <trkpt lat="32.758459746837615966796875" lon="-16.8132783472537994384765625">
        <ele>445.399993896484375</ele>
        <time>2018-06-23T09:28:55.000Z</time>
      </trkpt>
      <trkpt lat="32.75844457559287548065185546875" lon="-16.81320634670555591583251953125">
        <ele>446.399993896484375</ele>
        <time>2018-06-23T09:29:00.000Z</time>
      </trkpt>
      <trkpt lat="32.75844189338386058807373046875" lon="-16.81316326372325420379638671875">
        <ele>447.600006103515625</ele>
        <time>2018-06-23T09:29:04.000Z</time>
      </trkpt>
      <trkpt lat="32.7584535442292690277099609375" lon="-16.81314582936465740203857421875">
        <ele>448.79998779296875</ele>
        <time>2018-06-23T09:29:07.000Z</time>
      </trkpt>
      <trkpt lat="32.7584610879421234130859375" lon="-16.81310073472559452056884765625">
        <ele>450</ele>
        <time>2018-06-23T09:29:12.000Z</time>
      </trkpt>
      <trkpt lat="32.758459411561489105224609375" lon="-16.8130652792751789093017578125">
        <ele>450.79998779296875</ele>
        <time>2018-06-23T09:29:15.000Z</time>
      </trkpt>
      <trkpt lat="32.75845664553344249725341796875" lon="-16.8130337633192539215087890625">
        <ele>451</ele>
        <time>2018-06-23T09:29:17.000Z</time>
      </trkpt>
      <trkpt lat="32.75845480151474475860595703125" lon="-16.812962852418422698974609375">
        <ele>452.20001220703125</ele>
        <time>2018-06-23T09:29:22.000Z</time>
      </trkpt>
      <trkpt lat="32.7584562264382839202880859375" lon="-16.81293259374797344207763671875">
        <ele>453.399993896484375</ele>
        <time>2018-06-23T09:29:25.000Z</time>
      </trkpt>
      <trkpt lat="32.75845237076282501220703125" lon="-16.8128761835396289825439453125">
        <ele>454.600006103515625</ele>
        <time>2018-06-23T09:29:29.000Z</time>
      </trkpt>
      <trkpt lat="32.75845102965831756591796875" lon="-16.8127702362835407257080078125">
        <ele>455.600006103515625</ele>
        <time>2018-06-23T09:29:35.000Z</time>
      </trkpt>
      <trkpt lat="32.75838933885097503662109375" lon="-16.81270846165716648101806640625">
        <ele>456.600006103515625</ele>
        <time>2018-06-23T09:29:40.000Z</time>
      </trkpt>
      <trkpt lat="32.75836494751274585723876953125" lon="-16.81262615136802196502685546875">
        <ele>457.79998779296875</ele>
        <time>2018-06-23T09:29:45.000Z</time>
      </trkpt>
      <trkpt lat="32.7583382092416286468505859375" lon="-16.81253948248922824859619140625">
        <ele>459</ele>
        <time>2018-06-23T09:29:50.000Z</time>
      </trkpt>
      <trkpt lat="32.758325301110744476318359375" lon="-16.81247242726385593414306640625">
        <ele>459.79998779296875</ele>
        <time>2018-06-23T09:29:54.000Z</time>
      </trkpt>
      <trkpt lat="32.758312225341796875" lon="-16.81242783553898334503173828125">
        <ele>461.20001220703125</ele>
        <time>2018-06-23T09:29:58.000Z</time>
      </trkpt>
      <trkpt lat="32.75832362473011016845703125" lon="-16.81237100623548030853271484375">
        <ele>462.600006103515625</ele>
        <time>2018-06-23T09:30:03.000Z</time>
      </trkpt>
      <trkpt lat="32.75832672603428363800048828125" lon="-16.81233546696603298187255859375">
        <ele>463.20001220703125</ele>
        <time>2018-06-23T09:30:06.000Z</time>
      </trkpt>
      <trkpt lat="32.7583271451294422149658203125" lon="-16.8123233132064342498779296875">
        <ele>463.600006103515625</ele>
        <time>2018-06-23T09:30:07.000Z</time>
      </trkpt>
      <trkpt lat="32.75832890532910823822021484375" lon="-16.81229154579341411590576171875">
        <ele>464.399993896484375</ele>
        <time>2018-06-23T09:30:10.000Z</time>
      </trkpt>
      <trkpt lat="32.7583284862339496612548828125" lon="-16.81227930821478366851806640625">
        <ele>464.600006103515625</ele>
        <time>2018-06-23T09:30:11.000Z</time>
      </trkpt>
      <trkpt lat="32.75833242572844028472900390625" lon="-16.812235303223133087158203125">
        <ele>465.600006103515625</ele>
        <time>2018-06-23T09:30:14.000Z</time>
      </trkpt>
      <trkpt lat="32.7583377063274383544921875" lon="-16.81222750805318355560302734375">
        <ele>466.20001220703125</ele>
        <time>2018-06-23T09:30:15.000Z</time>
      </trkpt>
      <trkpt lat="32.758347094058990478515625" lon="-16.81219833903014659881591796875">
        <ele>466.600006103515625</ele>
        <time>2018-06-23T09:30:18.000Z</time>
      </trkpt>
      <trkpt lat="32.75834583677351474761962890625" lon="-16.81218693964183330535888671875">
        <ele>466.79998779296875</ele>
        <time>2018-06-23T09:30:19.000Z</time>
      </trkpt>
      <trkpt lat="32.75834281928837299346923828125" lon="-16.812174282968044281005859375">
        <ele>467.20001220703125</ele>
        <time>2018-06-23T09:30:20.000Z</time>
      </trkpt>
      <trkpt lat="32.75833460502326488494873046875" lon="-16.8121523223817348480224609375">
        <ele>468.20001220703125</ele>
        <time>2018-06-23T09:30:22.000Z</time>
      </trkpt>
      <trkpt lat="32.75832362473011016845703125" lon="-16.81213262490928173065185546875">
        <ele>469.399993896484375</ele>
        <time>2018-06-23T09:30:25.000Z</time>
      </trkpt>
      <trkpt lat="32.7583120577037334442138671875" lon="-16.81209306232631206512451171875">
        <ele>470.399993896484375</ele>
        <time>2018-06-23T09:30:29.000Z</time>
      </trkpt>
      <trkpt lat="32.75832924060523509979248046875" lon="-16.81205048225820064544677734375">
        <ele>471.399993896484375</ele>
        <time>2018-06-23T09:30:33.000Z</time>
      </trkpt>
      <trkpt lat="32.75835656560957431793212890625" lon="-16.8119793199002742767333984375">
        <ele>472.600006103515625</ele>
        <time>2018-06-23T09:30:39.000Z</time>
      </trkpt>
      <trkpt lat="32.75837131775915622711181640625" lon="-16.81194352917373180389404296875">
        <ele>474</ele>
        <time>2018-06-23T09:30:43.000Z</time>
      </trkpt>
      <trkpt lat="32.75837249122560024261474609375" lon="-16.8119303695857524871826171875">
        <ele>474.79998779296875</ele>
        <time>2018-06-23T09:30:46.000Z</time>
      </trkpt>
      <trkpt lat="32.75836788117885589599609375" lon="-16.81190631352365016937255859375">
        <ele>476.20001220703125</ele>
        <time>2018-06-23T09:30:50.000Z</time>
      </trkpt>
      <trkpt lat="32.75837165303528308868408203125" lon="-16.81188586167991161346435546875">
        <ele>477.399993896484375</ele>
        <time>2018-06-23T09:30:54.000Z</time>
      </trkpt>
      <trkpt lat="32.7583844773471355438232421875" lon="-16.81186138652265071868896484375">
        <ele>478.600006103515625</ele>
        <time>2018-06-23T09:30:58.000Z</time>
      </trkpt>
      <trkpt lat="32.758400402963161468505859375" lon="-16.811832301318645477294921875">
        <ele>479.79998779296875</ele>
        <time>2018-06-23T09:31:02.000Z</time>
      </trkpt>
      <trkpt lat="32.75840920396149158477783203125" lon="-16.8118002824485301971435546875">
        <ele>480.79998779296875</ele>
        <time>2018-06-23T09:31:06.000Z</time>
      </trkpt>
      <trkpt lat="32.758419178426265716552734375" lon="-16.81177102960646152496337890625">
        <ele>482</ele>
        <time>2018-06-23T09:31:10.000Z</time>
      </trkpt>
      <trkpt lat="32.75841976515948772430419921875" lon="-16.81172157637774944305419921875">
        <ele>483.399993896484375</ele>
        <time>2018-06-23T09:31:15.000Z</time>
      </trkpt>
      <trkpt lat="32.75841859169304370880126953125" lon="-16.8116735480725765228271484375">
        <ele>484.399993896484375</ele>
        <time>2018-06-23T09:31:20.000Z</time>
      </trkpt>
      <trkpt lat="32.75840400718152523040771484375" lon="-16.8116400204598903656005859375">
        <ele>485.20001220703125</ele>
        <time>2018-06-23T09:31:23.000Z</time>
      </trkpt>
      <trkpt lat="32.75839596055448055267333984375" lon="-16.8116309680044651031494140625">
        <ele>485.600006103515625</ele>
        <time>2018-06-23T09:31:24.000Z</time>
      </trkpt>
      <trkpt lat="32.75838120840489864349365234375" lon="-16.8116033077239990234375">
        <ele>486.399993896484375</ele>
        <time>2018-06-23T09:31:27.000Z</time>
      </trkpt>
      <trkpt lat="32.7583752572536468505859375" lon="-16.81159601546823978424072265625">
        <ele>486.600006103515625</ele>
        <time>2018-06-23T09:31:28.000Z</time>
      </trkpt>
      <trkpt lat="32.75835908018052577972412109375" lon="-16.8115670979022979736328125">
        <ele>487.600006103515625</ele>
        <time>2018-06-23T09:31:32.000Z</time>
      </trkpt>
      <trkpt lat="32.7583462558686733245849609375" lon="-16.8115320615470409393310546875">
        <ele>488.79998779296875</ele>
        <time>2018-06-23T09:31:36.000Z</time>
      </trkpt>
      <trkpt lat="32.75833728723227977752685546875" lon="-16.811499707400798797607421875">
        <ele>490.20001220703125</ele>
        <time>2018-06-23T09:31:40.000Z</time>
      </trkpt>
      <trkpt lat="32.75833058170974254608154296875" lon="-16.8114790879189968109130859375">
        <ele>490.600006103515625</ele>
        <time>2018-06-23T09:31:42.000Z</time>
      </trkpt>
      <trkpt lat="32.75833141990005970001220703125" lon="-16.8114616535604000091552734375">
        <ele>491</ele>
        <time>2018-06-23T09:31:44.000Z</time>
      </trkpt>
      <trkpt lat="32.7583348564803600311279296875" lon="-16.8114375136792659759521484375">
        <ele>491.79998779296875</ele>
        <time>2018-06-23T09:31:46.000Z</time>
      </trkpt>
      <trkpt lat="32.75834315456449985504150390625" lon="-16.81140759028494358062744140625">
        <ele>492.20001220703125</ele>
        <time>2018-06-23T09:31:48.000Z</time>
      </trkpt>
      <trkpt lat="32.75834768079221248626708984375" lon="-16.81138336658477783203125">
        <ele>492.399993896484375</ele>
        <time>2018-06-23T09:31:49.000Z</time>
      </trkpt>
      <trkpt lat="32.75834952481091022491455078125" lon="-16.811328046023845672607421875">
        <ele>493.20001220703125</ele>
        <time>2018-06-23T09:31:53.000Z</time>
      </trkpt>
      <trkpt lat="32.7583442442119121551513671875" lon="-16.81130046956241130828857421875">
        <ele>494.399993896484375</ele>
        <time>2018-06-23T09:31:56.000Z</time>
      </trkpt>
      <trkpt lat="32.75834642350673675537109375" lon="-16.81129426695406436920166015625">
        <ele>494.79998779296875</ele>
        <time>2018-06-23T09:31:57.000Z</time>
      </trkpt>
      <trkpt lat="32.7583589963614940643310546875" lon="-16.81126895360648632049560546875">
        <ele>495.600006103515625</ele>
        <time>2018-06-23T09:32:00.000Z</time>
      </trkpt>
      <trkpt lat="32.75836444459855556488037109375" lon="-16.81125001050531864166259765625">
        <ele>496</ele>
        <time>2018-06-23T09:32:02.000Z</time>
      </trkpt>
      <trkpt lat="32.7583539672195911407470703125" lon="-16.81121639907360076904296875">
        <ele>496.600006103515625</ele>
        <time>2018-06-23T09:32:05.000Z</time>
      </trkpt>
      <trkpt lat="32.75832136161625385284423828125" lon="-16.81118915788829326629638671875">
        <ele>498</ele>
        <time>2018-06-23T09:32:10.000Z</time>
      </trkpt>
      <trkpt lat="32.758281044661998748779296875" lon="-16.81115948595106601715087890625">
        <ele>499</ele>
        <time>2018-06-23T09:32:14.000Z</time>
      </trkpt>
      <trkpt lat="32.75823117233812808990478515625" lon="-16.8111377768218517303466796875">
        <ele>500.600006103515625</ele>
        <time>2018-06-23T09:32:18.000Z</time>
      </trkpt>
      <trkpt lat="32.758189179003238677978515625" lon="-16.81109980680048465728759765625">
        <ele>501.600006103515625</ele>
        <time>2018-06-23T09:32:23.000Z</time>
      </trkpt>
      <trkpt lat="32.75815389119088649749755859375" lon="-16.81105555035173892974853515625">
        <ele>502.79998779296875</ele>
        <time>2018-06-23T09:32:28.000Z</time>
      </trkpt>
      <trkpt lat="32.75814249180257320404052734375" lon="-16.8110110424458980560302734375">
        <ele>504</ele>
        <time>2018-06-23T09:32:32.000Z</time>
      </trkpt>
      <trkpt lat="32.758132182061672210693359375" lon="-16.81096938438713550567626953125">
        <ele>505</ele>
        <time>2018-06-23T09:32:36.000Z</time>
      </trkpt>
      <trkpt lat="32.75811919011175632476806640625" lon="-16.810939125716686248779296875">
        <ele>506.399993896484375</ele>
        <time>2018-06-23T09:32:40.000Z</time>
      </trkpt>
      <trkpt lat="32.75811684317886829376220703125" lon="-16.81090936996042728424072265625">
        <ele>507.399993896484375</ele>
        <time>2018-06-23T09:32:44.000Z</time>
      </trkpt>
      <trkpt lat="32.75810728780925273895263671875" lon="-16.81088187731802463531494140625">
        <ele>508.600006103515625</ele>
        <time>2018-06-23T09:32:48.000Z</time>
      </trkpt>
      <trkpt lat="32.75809563696384429931640625" lon="-16.81086310185492038726806640625">
        <ele>509.79998779296875</ele>
        <time>2018-06-23T09:32:51.000Z</time>
      </trkpt>
      <trkpt lat="32.75808230973780155181884765625" lon="-16.81084692478179931640625">
        <ele>511</ele>
        <time>2018-06-23T09:32:55.000Z</time>
      </trkpt>
      <trkpt lat="32.75808096863329410552978515625" lon="-16.81084248237311840057373046875">
        <ele>512.20001220703125</ele>
        <time>2018-06-23T09:32:58.000Z</time>
      </trkpt>
      <trkpt lat="32.75809203274548053741455078125" lon="-16.8108185939490795135498046875">
        <ele>513.20001220703125</ele>
        <time>2018-06-23T09:33:02.000Z</time>
      </trkpt>
      <trkpt lat="32.7580984868109226226806640625" lon="-16.8107907660305500030517578125">
        <ele>514.4000244140625</ele>
        <time>2018-06-23T09:33:06.000Z</time>
      </trkpt>
      <trkpt lat="32.75810234248638153076171875" lon="-16.810774840414524078369140625">
        <ele>515.5999755859375</ele>
        <time>2018-06-23T09:33:10.000Z</time>
      </trkpt>
      <trkpt lat="32.758122794330120086669921875" lon="-16.8107651174068450927734375">
        <ele>516.79998779296875</ele>
        <time>2018-06-23T09:33:14.000Z</time>
      </trkpt>
      <trkpt lat="32.7581487782299518585205078125" lon="-16.8107592500746250152587890625">
        <ele>517.79998779296875</ele>
        <time>2018-06-23T09:33:18.000Z</time>
      </trkpt>
      <trkpt lat="32.7581699006259441375732421875" lon="-16.81074969470500946044921875">
        <ele>519</ele>
        <time>2018-06-23T09:33:22.000Z</time>
      </trkpt>
      <trkpt lat="32.75817870162427425384521484375" lon="-16.81071323342621326446533203125">
        <ele>520.20001220703125</ele>
        <time>2018-06-23T09:33:26.000Z</time>
      </trkpt>
      <trkpt lat="32.75818188674747943878173828125" lon="-16.810683645308017730712890625">
        <ele>521.4000244140625</ele>
        <time>2018-06-23T09:33:30.000Z</time>
      </trkpt>
      <trkpt lat="32.7581926994025707244873046875" lon="-16.8106683902442455291748046875">
        <ele>522.5999755859375</ele>
        <time>2018-06-23T09:33:35.000Z</time>
      </trkpt>
      <trkpt lat="32.7581900171935558319091796875" lon="-16.8106583319604396820068359375">
        <ele>524</ele>
        <time>2018-06-23T09:33:39.000Z</time>
      </trkpt>
      <trkpt lat="32.7581849880516529083251953125" lon="-16.81062404997646808624267578125">
        <ele>525</ele>
        <time>2018-06-23T09:33:43.000Z</time>
      </trkpt>
      <trkpt lat="32.75817803107202053070068359375" lon="-16.81061700917780399322509765625">
        <ele>526</ele>
        <time>2018-06-23T09:33:46.000Z</time>
      </trkpt>
      <trkpt lat="32.75815824978053569793701171875" lon="-16.81059236638247966766357421875">
        <ele>527.20001220703125</ele>
        <time>2018-06-23T09:33:51.000Z</time>
      </trkpt>
      <trkpt lat="32.75815305300056934356689453125" lon="-16.81057677604258060455322265625">
        <ele>528.4000244140625</ele>
        <time>2018-06-23T09:33:55.000Z</time>
      </trkpt>
      <trkpt lat="32.758153639733791351318359375" lon="-16.8105419911444187164306640625">
        <ele>529.5999755859375</ele>
        <time>2018-06-23T09:33:59.000Z</time>
      </trkpt>
      <trkpt lat="32.75814014486968517303466796875" lon="-16.81049480102956295013427734375">
        <ele>530.79998779296875</ele>
        <time>2018-06-23T09:34:03.000Z</time>
      </trkpt>
      <trkpt lat="32.7581289969384670257568359375" lon="-16.8104732595384120941162109375">
        <ele>532</ele>
        <time>2018-06-23T09:34:07.000Z</time>
      </trkpt>
      <trkpt lat="32.7581175975501537322998046875" lon="-16.81045976467430591583251953125">
        <ele>533.20001220703125</ele>
        <time>2018-06-23T09:34:11.000Z</time>
      </trkpt>
      <trkpt lat="32.75810100138187408447265625" lon="-16.8104571662843227386474609375">
        <ele>534.20001220703125</ele>
        <time>2018-06-23T09:34:14.000Z</time>
      </trkpt>
      <trkpt lat="32.7580813877284526824951171875" lon="-16.81043897755444049835205078125">
        <ele>535.4000244140625</ele>
        <time>2018-06-23T09:34:19.000Z</time>
      </trkpt>
      <trkpt lat="32.7580649591982364654541015625" lon="-16.81041886098682880401611328125">
        <ele>536.4000244140625</ele>
        <time>2018-06-23T09:34:23.000Z</time>
      </trkpt>
      <trkpt lat="32.75804199278354644775390625" lon="-16.81039421819150447845458984375">
        <ele>537.5999755859375</ele>
        <time>2018-06-23T09:34:27.000Z</time>
      </trkpt>
      <trkpt lat="32.7580126561224460601806640625" lon="-16.8103834055364131927490234375">
        <ele>539</ele>
        <time>2018-06-23T09:34:31.000Z</time>
      </trkpt>
      <trkpt lat="32.75797971524298191070556640625" lon="-16.810373179614543914794921875">
        <ele>540.20001220703125</ele>
        <time>2018-06-23T09:34:35.000Z</time>
      </trkpt>
      <trkpt lat="32.7579660527408123016357421875" lon="-16.81036806665360927581787109375">
        <ele>541.4000244140625</ele>
        <time>2018-06-23T09:34:38.000Z</time>
      </trkpt>
      <trkpt lat="32.757944427430629730224609375" lon="-16.81037996895611286163330078125">
        <ele>542.5999755859375</ele>
        <time>2018-06-23T09:34:43.000Z</time>
      </trkpt>
      <trkpt lat="32.75793612934648990631103515625" lon="-16.81037644855678081512451171875">
        <ele>543.79998779296875</ele>
        <time>2018-06-23T09:34:47.000Z</time>
      </trkpt>
      <trkpt lat="32.75792422704398632049560546875" lon="-16.8103699944913387298583984375">
        <ele>544.79998779296875</ele>
        <time>2018-06-23T09:34:50.000Z</time>
      </trkpt>
      <trkpt lat="32.75792062282562255859375" lon="-16.8103656359016895294189453125">
        <ele>546</ele>
        <time>2018-06-23T09:34:54.000Z</time>
      </trkpt>
      <trkpt lat="32.7579147554934024810791015625" lon="-16.8103448487818241119384765625">
        <ele>547.20001220703125</ele>
        <time>2018-06-23T09:34:58.000Z</time>
      </trkpt>
      <trkpt lat="32.7578909508883953094482421875" lon="-16.8103223852813243865966796875">
        <ele>548.4000244140625</ele>
        <time>2018-06-23T09:35:02.000Z</time>
      </trkpt>
      <trkpt lat="32.75787963531911373138427734375" lon="-16.81031626649200916290283203125">
        <ele>548.5999755859375</ele>
        <time>2018-06-23T09:35:03.000Z</time>
      </trkpt>
      <trkpt lat="32.757864631712436676025390625" lon="-16.81030671112239360809326171875">
        <ele>549.20001220703125</ele>
        <time>2018-06-23T09:35:05.000Z</time>
      </trkpt>
      <trkpt lat="32.7578611113131046295166015625" lon="-16.81030235253274440765380859375">
        <ele>549.4000244140625</ele>
        <time>2018-06-23T09:35:06.000Z</time>
      </trkpt>
      <trkpt lat="32.75785080157220363616943359375" lon="-16.8102957308292388916015625">
        <ele>549.79998779296875</ele>
        <time>2018-06-23T09:35:07.000Z</time>
      </trkpt>
      <trkpt lat="32.757824398577213287353515625" lon="-16.81028525345027446746826171875">
        <ele>550.5999755859375</ele>
        <time>2018-06-23T09:35:10.000Z</time>
      </trkpt>
      <trkpt lat="32.7578173577785491943359375" lon="-16.8102814815938472747802734375">
        <ele>551</ele>
        <time>2018-06-23T09:35:11.000Z</time>
      </trkpt>
      <trkpt lat="32.75779413990676403045654296875" lon="-16.81027167476713657379150390625">
        <ele>551.79998779296875</ele>
        <time>2018-06-23T09:35:14.000Z</time>
      </trkpt>
      <trkpt lat="32.7577865123748779296875" lon="-16.810267902910709381103515625">
        <ele>552</ele>
        <time>2018-06-23T09:35:15.000Z</time>
      </trkpt>
      <trkpt lat="32.757760025560855865478515625" lon="-16.81026195175945758819580078125">
        <ele>552.79998779296875</ele>
        <time>2018-06-23T09:35:17.000Z</time>
      </trkpt>
      <trkpt lat="32.75775323621928691864013671875" lon="-16.81025608442723751068115234375">
        <ele>553</ele>
        <time>2018-06-23T09:35:18.000Z</time>
      </trkpt>
      <trkpt lat="32.75774418376386165618896484375" lon="-16.81023865006864070892333984375">
        <ele>554.20001220703125</ele>
        <time>2018-06-23T09:35:22.000Z</time>
      </trkpt>
      <trkpt lat="32.7577377296984195709228515625" lon="-16.810249127447605133056640625">
        <ele>555.4000244140625</ele>
        <time>2018-06-23T09:35:26.000Z</time>
      </trkpt>
      <trkpt lat="32.75772549211978912353515625" lon="-16.8102653883397579193115234375">
        <ele>556.5999755859375</ele>
        <time>2018-06-23T09:35:31.000Z</time>
      </trkpt>
      <trkpt lat="32.75769875384867191314697265625" lon="-16.810251809656620025634765625">
        <ele>557.79998779296875</ele>
        <time>2018-06-23T09:35:36.000Z</time>
      </trkpt>
      <trkpt lat="32.7576840855181217193603515625" lon="-16.81025474332273006439208984375">
        <ele>559</ele>
        <time>2018-06-23T09:35:40.000Z</time>
      </trkpt>
      <trkpt lat="32.7576730214059352874755859375" lon="-16.81024543941020965576171875">
        <ele>560</ele>
        <time>2018-06-23T09:35:43.000Z</time>
      </trkpt>
      <trkpt lat="32.75764913298189640045166015625" lon="-16.81022909469902515411376953125">
        <ele>561.4000244140625</ele>
        <time>2018-06-23T09:35:48.000Z</time>
      </trkpt>
      <trkpt lat="32.757639996707439422607421875" lon="-16.810231022536754608154296875">
        <ele>562.79998779296875</ele>
        <time>2018-06-23T09:35:52.000Z</time>
      </trkpt>
      <trkpt lat="32.75761443190276622772216796875" lon="-16.81022129952907562255859375">
        <ele>563.79998779296875</ele>
        <time>2018-06-23T09:35:56.000Z</time>
      </trkpt>
      <trkpt lat="32.75760739110410213470458984375" lon="-16.8102181144058704376220703125">
        <ele>564.79998779296875</ele>
        <time>2018-06-23T09:35:59.000Z</time>
      </trkpt>
      <trkpt lat="32.7575868554413318634033203125" lon="-16.81019908748567104339599609375">
        <ele>566</ele>
        <time>2018-06-23T09:36:03.000Z</time>
      </trkpt>
      <trkpt lat="32.75757771916687488555908203125" lon="-16.81019087322056293487548828125">
        <ele>566.20001220703125</ele>
        <time>2018-06-23T09:36:04.000Z</time>
      </trkpt>
      <trkpt lat="32.75755106471478939056396484375" lon="-16.81016572751104831695556640625">
        <ele>567</ele>
        <time>2018-06-23T09:36:08.000Z</time>
      </trkpt>
      <trkpt lat="32.7575372345745563507080078125" lon="-16.8101564235985279083251953125">
        <ele>567.5999755859375</ele>
        <time>2018-06-23T09:36:10.000Z</time>
      </trkpt>
      <trkpt lat="32.7575303614139556884765625" lon="-16.810149215161800384521484375">
        <ele>568</ele>
        <time>2018-06-23T09:36:11.000Z</time>
      </trkpt>
      <trkpt lat="32.7574859373271465301513671875" lon="-16.81011208333075046539306640625">
        <ele>568.5999755859375</ele>
        <time>2018-06-23T09:36:14.000Z</time>
      </trkpt>
      <trkpt lat="32.7574664913117885589599609375" lon="-16.8100937269628047943115234375">
        <ele>569</ele>
        <time>2018-06-23T09:36:16.000Z</time>
      </trkpt>
      <trkpt lat="32.7574269287288188934326171875" lon="-16.8100524879992008209228515625">
        <ele>570.20001220703125</ele>
        <time>2018-06-23T09:36:20.000Z</time>
      </trkpt>
      <trkpt lat="32.75740069337189197540283203125" lon="-16.8100260011851787567138671875">
        <ele>570.5999755859375</ele>
        <time>2018-06-23T09:36:23.000Z</time>
      </trkpt>
      <trkpt lat="32.757379822432994842529296875" lon="-16.81000194512307643890380859375">
        <ele>571.20001220703125</ele>
        <time>2018-06-23T09:36:25.000Z</time>
      </trkpt>
      <trkpt lat="32.75736481882631778717041015625" lon="-16.80998015217483043670654296875">
        <ele>572.20001220703125</ele>
        <time>2018-06-23T09:36:28.000Z</time>
      </trkpt>
      <trkpt lat="32.7573558501899242401123046875" lon="-16.80996925570070743560791015625">
        <ele>572.4000244140625</ele>
        <time>2018-06-23T09:36:29.000Z</time>
      </trkpt>
      <trkpt lat="32.75732425041496753692626953125" lon="-16.80994310416281223297119140625">
        <ele>573.20001220703125</ele>
        <time>2018-06-23T09:36:32.000Z</time>
      </trkpt>
      <trkpt lat="32.75732458569109439849853515625" lon="-16.80993941612541675567626953125">
        <ele>573.4000244140625</ele>
        <time>2018-06-23T09:36:33.000Z</time>
      </trkpt>
      <trkpt lat="32.75730648078024387359619140625" lon="-16.80993204005062580108642578125">
        <ele>574.79998779296875</ele>
        <time>2018-06-23T09:36:36.000Z</time>
      </trkpt>
      <trkpt lat="32.75729038752615451812744140625" lon="-16.80992332287132740020751953125">
        <ele>575.79998779296875</ele>
        <time>2018-06-23T09:36:39.000Z</time>
      </trkpt>
      <trkpt lat="32.7572733722627162933349609375" lon="-16.80989398621022701263427734375">
        <ele>576.79998779296875</ele>
        <time>2018-06-23T09:36:43.000Z</time>
      </trkpt>
      <trkpt lat="32.7572378329932689666748046875" lon="-16.8098182976245880126953125">
        <ele>578</ele>
        <time>2018-06-23T09:36:48.000Z</time>
      </trkpt>
      <trkpt lat="32.75715426541864871978759765625" lon="-16.80973573587834835052490234375">
        <ele>579.20001220703125</ele>
        <time>2018-06-23T09:36:55.000Z</time>
      </trkpt>
      <trkpt lat="32.75712174363434314727783203125" lon="-16.8097111769020557403564453125">
        <ele>579.79998779296875</ele>
        <time>2018-06-23T09:36:58.000Z</time>
      </trkpt>
      <trkpt lat="32.75708310306072235107421875" lon="-16.80964462459087371826171875">
        <ele>580.4000244140625</ele>
        <time>2018-06-23T09:37:02.000Z</time>
      </trkpt>
      <trkpt lat="32.75703624822199344635009765625" lon="-16.8095438741147518157958984375">
        <ele>581.4000244140625</ele>
        <time>2018-06-23T09:37:08.000Z</time>
      </trkpt>
      <trkpt lat="32.7570249326527118682861328125" lon="-16.8094446323812007904052734375">
        <ele>582.5999755859375</ele>
        <time>2018-06-23T09:37:13.000Z</time>
      </trkpt>
      <trkpt lat="32.75704597122967243194580078125" lon="-16.80936927907168865203857421875">
        <ele>583.5999755859375</ele>
        <time>2018-06-23T09:37:17.000Z</time>
      </trkpt>
      <trkpt lat="32.75704555213451385498046875" lon="-16.8092692829668521881103515625">
        <ele>584.79998779296875</ele>
        <time>2018-06-23T09:37:22.000Z</time>
      </trkpt>
      <trkpt lat="32.7570541016757488250732421875" lon="-16.8091666884720325469970703125">
        <ele>586.20001220703125</ele>
        <time>2018-06-23T09:37:27.000Z</time>
      </trkpt>
      <trkpt lat="32.75706969201564788818359375" lon="-16.8090882338583469390869140625">
        <ele>587.20001220703125</ele>
        <time>2018-06-23T09:37:31.000Z</time>
      </trkpt>
      <trkpt lat="32.75707178749144077301025390625" lon="-16.80900366045534610748291015625">
        <ele>588.4000244140625</ele>
        <time>2018-06-23T09:37:36.000Z</time>
      </trkpt>
      <trkpt lat="32.75706122629344463348388671875" lon="-16.80890978313982486724853515625">
        <ele>589.4000244140625</ele>
        <time>2018-06-23T09:37:41.000Z</time>
      </trkpt>
      <trkpt lat="32.75702811777591705322265625" lon="-16.80876460857689380645751953125">
        <ele>590.5999755859375</ele>
        <time>2018-06-23T09:37:48.000Z</time>
      </trkpt>
      <trkpt lat="32.7570121921598911285400390625" lon="-16.80854223668575286865234375">
        <ele>590</ele>
        <time>2018-06-23T09:37:57.000Z</time>
      </trkpt>
      <trkpt lat="32.7570073306560516357421875" lon="-16.80846688337624073028564453125">
        <ele>589.4000244140625</ele>
        <time>2018-06-23T09:38:00.000Z</time>
      </trkpt>
      <trkpt lat="32.7569783292710781097412109375" lon="-16.8083631992340087890625">
        <ele>588.20001220703125</ele>
        <time>2018-06-23T09:38:04.000Z</time>
      </trkpt>
      <trkpt lat="32.75695259682834148406982421875" lon="-16.8082760274410247802734375">
        <ele>587.20001220703125</ele>
        <time>2018-06-23T09:38:07.000Z</time>
      </trkpt>
      <trkpt lat="32.75693826377391815185546875" lon="-16.80818793363869190216064453125">
        <ele>586</ele>
        <time>2018-06-23T09:38:10.000Z</time>
      </trkpt>
      <trkpt lat="32.75693449191749095916748046875" lon="-16.80808014236390590667724609375">
        <ele>584.5999755859375</ele>
        <time>2018-06-23T09:38:14.000Z</time>
      </trkpt>
      <trkpt lat="32.75693868286907672882080078125" lon="-16.80799548514187335968017578125">
        <ele>584</ele>
        <time>2018-06-23T09:38:18.000Z</time>
      </trkpt>
      <trkpt lat="32.75695343501865863800048828125" lon="-16.80807410739362239837646484375">
        <ele>584</ele>
        <time>2018-06-23T09:43:07.000Z</time>
      </trkpt>
      <trkpt lat="32.75696164928376674652099609375" lon="-16.8080099858343601226806640625">
        <ele>583.4000244140625</ele>
        <time>2018-06-23T09:43:09.000Z</time>
      </trkpt>
      <trkpt lat="32.75696701370179653167724609375" lon="-16.8077759630978107452392578125">
        <ele>583.4000244140625</ele>
        <time>2018-06-23T09:43:16.000Z</time>
      </trkpt>
      <trkpt lat="32.75688453577458858489990234375" lon="-16.80761687457561492919921875">
        <ele>584.4000244140625</ele>
        <time>2018-06-23T09:43:23.000Z</time>
      </trkpt>
      <trkpt lat="32.75684765540063381195068359375" lon="-16.807558871805667877197265625">
        <ele>585.4000244140625</ele>
        <time>2018-06-23T09:43:26.000Z</time>
      </trkpt>
      <trkpt lat="32.75679367594420909881591796875" lon="-16.80748703889548778533935546875">
        <ele>586.5999755859375</ele>
        <time>2018-06-23T09:43:30.000Z</time>
      </trkpt>
      <trkpt lat="32.756746821105480194091796875" lon="-16.8074204027652740478515625">
        <ele>587.5999755859375</ele>
        <time>2018-06-23T09:43:34.000Z</time>
      </trkpt>
      <trkpt lat="32.756724692881107330322265625" lon="-16.8073518387973308563232421875">
        <ele>588.79998779296875</ele>
        <time>2018-06-23T09:43:38.000Z</time>
      </trkpt>
      <trkpt lat="32.7567023970186710357666015625" lon="-16.8072623200714588165283203125">
        <ele>590</ele>
        <time>2018-06-23T09:43:43.000Z</time>
      </trkpt>
      <trkpt lat="32.75667331181466579437255859375" lon="-16.80719534866511821746826171875">
        <ele>591.4000244140625</ele>
        <time>2018-06-23T09:43:47.000Z</time>
      </trkpt>
      <trkpt lat="32.75662553496658802032470703125" lon="-16.80713868699967861175537109375">
        <ele>592.5999755859375</ele>
        <time>2018-06-23T09:43:51.000Z</time>
      </trkpt>
      <trkpt lat="32.756566107273101806640625" lon="-16.80707381106913089752197265625">
        <ele>593.5999755859375</ele>
        <time>2018-06-23T09:43:55.000Z</time>
      </trkpt>
      <trkpt lat="32.7565156482160091400146484375" lon="-16.80702234618365764617919921875">
        <ele>594.79998779296875</ele>
        <time>2018-06-23T09:43:58.000Z</time>
      </trkpt>
      <trkpt lat="32.75647399015724658966064453125" lon="-16.806979514658451080322265625">
        <ele>595.79998779296875</ele>
        <time>2018-06-23T09:44:01.000Z</time>
      </trkpt>
      <trkpt lat="32.75639989413321018218994140625" lon="-16.80690944194793701171875">
        <ele>597</ele>
        <time>2018-06-23T09:44:06.000Z</time>
      </trkpt>
      <trkpt lat="32.75635748170316219329833984375" lon="-16.80684582330286502838134765625">
        <ele>598.20001220703125</ele>
        <time>2018-06-23T09:44:10.000Z</time>
      </trkpt>
      <trkpt lat="32.7563399635255336761474609375" lon="-16.8067711405456066131591796875">
        <ele>599.4000244140625</ele>
        <time>2018-06-23T09:44:14.000Z</time>
      </trkpt>
      <trkpt lat="32.75631205178797245025634765625" lon="-16.8066903389990329742431640625">
        <ele>600.4000244140625</ele>
        <time>2018-06-23T09:44:18.000Z</time>
      </trkpt>
      <trkpt lat="32.75628782808780670166015625" lon="-16.8066532909870147705078125">
        <ele>601</ele>
        <time>2018-06-23T09:44:20.000Z</time>
      </trkpt>
      <trkpt lat="32.75626771152019500732421875" lon="-16.8066226132214069366455078125">
        <ele>601.5999755859375</ele>
        <time>2018-06-23T09:44:22.000Z</time>
      </trkpt>
      <trkpt lat="32.75620828382670879364013671875" lon="-16.80654843337833881378173828125">
        <ele>602.79998779296875</ele>
        <time>2018-06-23T09:44:27.000Z</time>
      </trkpt>
      <trkpt lat="32.75614726357161998748779296875" lon="-16.8064896762371063232421875">
        <ele>604</ele>
        <time>2018-06-23T09:44:31.000Z</time>
      </trkpt>
      <trkpt lat="32.7560824714601039886474609375" lon="-16.80642706342041492462158203125">
        <ele>605</ele>
        <time>2018-06-23T09:44:36.000Z</time>
      </trkpt>
      <trkpt lat="32.75605070404708385467529296875" lon="-16.8063775263726711273193359375">
        <ele>606.20001220703125</ele>
        <time>2018-06-23T09:44:40.000Z</time>
      </trkpt>
      <trkpt lat="32.75601063854992389678955078125" lon="-16.806318350136280059814453125">
        <ele>607.4000244140625</ele>
        <time>2018-06-23T09:44:44.000Z</time>
      </trkpt>
      <trkpt lat="32.75600460357964038848876953125" lon="-16.80621542036533355712890625">
        <ele>608.5999755859375</ele>
        <time>2018-06-23T09:44:48.000Z</time>
      </trkpt>
      <trkpt lat="32.75600778870284557342529296875" lon="-16.80611886084079742431640625">
        <ele>609.79998779296875</ele>
        <time>2018-06-23T09:44:52.000Z</time>
      </trkpt>
      <trkpt lat="32.75601566769182682037353515625" lon="-16.80600193329155445098876953125">
        <ele>611</ele>
        <time>2018-06-23T09:44:57.000Z</time>
      </trkpt>
      <trkpt lat="32.75604802183806896209716796875" lon="-16.8058441020548343658447265625">
        <ele>612.20001220703125</ele>
        <time>2018-06-23T09:45:03.000Z</time>
      </trkpt>
      <trkpt lat="32.756056822836399078369140625" lon="-16.8057525716722011566162109375">
        <ele>613.4000244140625</ele>
        <time>2018-06-23T09:45:07.000Z</time>
      </trkpt>
      <trkpt lat="32.75604701600968837738037109375" lon="-16.80565626360476016998291015625">
        <ele>614.4000244140625</ele>
        <time>2018-06-23T09:45:11.000Z</time>
      </trkpt>
      <trkpt lat="32.7560613490641117095947265625" lon="-16.805535815656185150146484375">
        <ele>615.5999755859375</ele>
        <time>2018-06-23T09:45:16.000Z</time>
      </trkpt>
      <trkpt lat="32.75605305097997188568115234375" lon="-16.805406399071216583251953125">
        <ele>616.79998779296875</ele>
        <time>2018-06-23T09:45:22.000Z</time>
      </trkpt>
      <trkpt lat="32.7560274861752986907958984375" lon="-16.80525175295770168304443359375">
        <ele>618</ele>
        <time>2018-06-23T09:45:28.000Z</time>
      </trkpt>
      <trkpt lat="32.75602522306144237518310546875" lon="-16.80514111183583736419677734375">
        <ele>619</ele>
        <time>2018-06-23T09:45:32.000Z</time>
      </trkpt>
      <trkpt lat="32.75601935572922229766845703125" lon="-16.805048324167728424072265625">
        <ele>620.20001220703125</ele>
        <time>2018-06-23T09:45:36.000Z</time>
      </trkpt>
      <trkpt lat="32.75601617060601711273193359375" lon="-16.80491412989795207977294921875">
        <ele>621.20001220703125</ele>
        <time>2018-06-23T09:45:42.000Z</time>
      </trkpt>
      <trkpt lat="32.75605372153222560882568359375" lon="-16.80475302971899509429931640625">
        <ele>622.20001220703125</ele>
        <time>2018-06-23T09:45:49.000Z</time>
      </trkpt>
      <trkpt lat="32.7560828067362308502197265625" lon="-16.804648675024509429931640625">
        <ele>623.4000244140625</ele>
        <time>2018-06-23T09:45:54.000Z</time>
      </trkpt>
      <trkpt lat="32.756099402904510498046875" lon="-16.80440786294639110565185546875">
        <ele>623.5999755859375</ele>
        <time>2018-06-23T09:46:03.000Z</time>
      </trkpt>
      <trkpt lat="32.7561168372631072998046875" lon="-16.804179958999156951904296875">
        <ele>622.5999755859375</ele>
        <time>2018-06-23T09:46:10.000Z</time>
      </trkpt>
      <trkpt lat="32.75610535405576229095458984375" lon="-16.80408063344657421112060546875">
        <ele>622.20001220703125</ele>
        <time>2018-06-23T09:46:13.000Z</time>
      </trkpt>
      <trkpt lat="32.75604215450584888458251953125" lon="-16.80386790074408054351806640625">
        <ele>621.20001220703125</ele>
        <time>2018-06-23T09:46:20.000Z</time>
      </trkpt>
      <trkpt lat="32.75603578425943851470947265625" lon="-16.803836636245250701904296875">
        <ele>621</ele>
        <time>2018-06-23T09:46:21.000Z</time>
      </trkpt>
      <trkpt lat="32.7560502849519252777099609375" lon="-16.803616024553775787353515625">
        <ele>620.4000244140625</ele>
        <time>2018-06-23T09:46:29.000Z</time>
      </trkpt>
      <trkpt lat="32.75608322583138942718505859375" lon="-16.8035716004669666290283203125">
        <ele>620</ele>
        <time>2018-06-23T09:46:31.000Z</time>
      </trkpt>
      <trkpt lat="32.7562252990901470184326171875" lon="-16.803425252437591552734375">
        <ele>619.4000244140625</ele>
        <time>2018-06-23T09:46:38.000Z</time>
      </trkpt>
      <trkpt lat="32.75628254748880863189697265625" lon="-16.803320311009883880615234375">
        <ele>619</ele>
        <time>2018-06-23T09:46:42.000Z</time>
      </trkpt>
      <trkpt lat="32.7563689649105072021484375" lon="-16.80313289165496826171875">
        <ele>618</ele>
        <time>2018-06-23T09:46:49.000Z</time>
      </trkpt>
      <trkpt lat="32.75645638816058635711669921875" lon="-16.8029409460723400115966796875">
        <ele>616.79998779296875</ele>
        <time>2018-06-23T09:46:56.000Z</time>
      </trkpt>
      <trkpt lat="32.756495364010334014892578125" lon="-16.80270616896450519561767578125">
        <ele>616</ele>
        <time>2018-06-23T09:47:03.000Z</time>
      </trkpt>
      <trkpt lat="32.75649410672485828399658203125" lon="-16.80264565162360668182373046875">
        <ele>615.5999755859375</ele>
        <time>2018-06-23T09:47:05.000Z</time>
      </trkpt>
      <trkpt lat="32.756492681801319122314453125" lon="-16.80248505435883998870849609375">
        <ele>614.4000244140625</ele>
        <time>2018-06-23T09:47:10.000Z</time>
      </trkpt>
      <trkpt lat="32.75648253969848155975341796875" lon="-16.80234675295650959014892578125">
        <ele>613.20001220703125</ele>
        <time>2018-06-23T09:47:14.000Z</time>
      </trkpt>
      <trkpt lat="32.75639335624873638153076171875" lon="-16.8021456710994243621826171875">
        <ele>612.20001220703125</ele>
        <time>2018-06-23T09:47:21.000Z</time>
      </trkpt>
      <trkpt lat="32.75637525133788585662841796875" lon="-16.80212639272212982177734375">
        <ele>612</ele>
        <time>2018-06-23T09:47:22.000Z</time>
      </trkpt>
      <trkpt lat="32.75622546672821044921875" lon="-16.8020112253725528717041015625">
        <ele>611.5999755859375</ele>
        <time>2018-06-23T09:47:29.000Z</time>
      </trkpt>
      <trkpt lat="32.75617383420467376708984375" lon="-16.80188507772982120513916015625">
        <ele>611</ele>
        <time>2018-06-23T09:47:33.000Z</time>
      </trkpt>
      <trkpt lat="32.75610099546611309051513671875" lon="-16.80172783322632312774658203125">
        <ele>609.79998779296875</ele>
        <time>2018-06-23T09:47:39.000Z</time>
      </trkpt>
      <trkpt lat="32.756083644926548004150390625" lon="-16.80169128812849521636962890625">
        <ele>608.79998779296875</ele>
        <time>2018-06-23T09:47:43.000Z</time>
      </trkpt>
      <trkpt lat="32.75605757720768451690673828125" lon="-16.8016903661191463470458984375">
        <ele>608.79998779296875</ele>
        <time>2018-06-23T09:47:45.000Z</time>
      </trkpt>
      <trkpt lat="32.75591340847313404083251953125" lon="-16.801776699721813201904296875">
        <ele>607.5999755859375</ele>
        <time>2018-06-23T09:47:52.000Z</time>
      </trkpt>
      <trkpt lat="32.75576747953891754150390625" lon="-16.80172649212181568145751953125">
        <ele>606.4000244140625</ele>
        <time>2018-06-23T09:47:58.000Z</time>
      </trkpt>
      <trkpt lat="32.755647785961627960205078125" lon="-16.8016957305371761322021484375">
        <ele>605.4000244140625</ele>
        <time>2018-06-23T09:48:03.000Z</time>
      </trkpt>
      <trkpt lat="32.75549196638166904449462890625" lon="-16.8016648851335048675537109375">
        <ele>604.4000244140625</ele>
        <time>2018-06-23T09:48:09.000Z</time>
      </trkpt>
      <trkpt lat="32.75532667525112628936767578125" lon="-16.8016456067562103271484375">
        <ele>603</ele>
        <time>2018-06-23T09:48:15.000Z</time>
      </trkpt>
      <trkpt lat="32.7551403455436229705810546875" lon="-16.80152096785604953765869140625">
        <ele>602.4000244140625</ele>
        <time>2018-06-23T09:48:20.000Z</time>
      </trkpt>
      <trkpt lat="32.755097262561321258544921875" lon="-16.80145793594419956207275390625">
        <ele>601.79998779296875</ele>
        <time>2018-06-23T09:48:22.000Z</time>
      </trkpt>
      <trkpt lat="32.75507806800305843353271484375" lon="-16.80139155127108097076416015625">
        <ele>601.5999755859375</ele>
        <time>2018-06-23T09:48:24.000Z</time>
      </trkpt>
      <trkpt lat="32.75508611463010311126708984375" lon="-16.80128149688243865966796875">
        <ele>600.5999755859375</ele>
        <time>2018-06-23T09:48:27.000Z</time>
      </trkpt>
      <trkpt lat="32.75511394254863262176513671875" lon="-16.8011708557605743408203125">
        <ele>599.5999755859375</ele>
        <time>2018-06-23T09:48:31.000Z</time>
      </trkpt>
      <trkpt lat="32.75513456203043460845947265625" lon="-16.801084689795970916748046875">
        <ele>598.5999755859375</ele>
        <time>2018-06-23T09:48:34.000Z</time>
      </trkpt>
      <trkpt lat="32.75513405911624431610107421875" lon="-16.8010446242988109588623046875">
        <ele>598.20001220703125</ele>
        <time>2018-06-23T09:48:35.000Z</time>
      </trkpt>
      <trkpt lat="32.75504789315164089202880859375" lon="-16.8008183129131793975830078125">
        <ele>597.20001220703125</ele>
        <time>2018-06-23T09:48:41.000Z</time>
      </trkpt>
      <trkpt lat="32.75492258369922637939453125" lon="-16.8007080070674419403076171875">
        <ele>596</ele>
        <time>2018-06-23T09:48:46.000Z</time>
      </trkpt>
      <trkpt lat="32.75477061979472637176513671875" lon="-16.80057096295058727264404296875">
        <ele>595.20001220703125</ele>
        <time>2018-06-23T09:48:52.000Z</time>
      </trkpt>
      <trkpt lat="32.75475033558905124664306640625" lon="-16.80054749362170696258544921875">
        <ele>595</ele>
        <time>2018-06-23T09:48:53.000Z</time>
      </trkpt>
      <trkpt lat="32.7547504194080829620361328125" lon="-16.80032369680702686309814453125">
        <ele>594.20001220703125</ele>
        <time>2018-06-23T09:48:59.000Z</time>
      </trkpt>
      <trkpt lat="32.75476290844380855560302734375" lon="-16.80029804818332195281982421875">
        <ele>593.79998779296875</ele>
        <time>2018-06-23T09:49:00.000Z</time>
      </trkpt>
      <trkpt lat="32.7548506669700145721435546875" lon="-16.80019143037497997283935546875">
        <ele>592.5999755859375</ele>
        <time>2018-06-23T09:49:05.000Z</time>
      </trkpt>
      <trkpt lat="32.7549351565539836883544921875" lon="-16.80011549033224582672119140625">
        <ele>591.5999755859375</ele>
        <time>2018-06-23T09:49:09.000Z</time>
      </trkpt>
      <trkpt lat="32.75507672689855098724365234375" lon="-16.800014488399028778076171875">
        <ele>590.4000244140625</ele>
        <time>2018-06-23T09:49:15.000Z</time>
      </trkpt>
      <trkpt lat="32.755184434354305267333984375" lon="-16.79991231299936771392822265625">
        <ele>589.20001220703125</ele>
        <time>2018-06-23T09:49:20.000Z</time>
      </trkpt>
      <trkpt lat="32.75525811128318309783935546875" lon="-16.79985799826681613922119140625">
        <ele>588.20001220703125</ele>
        <time>2018-06-23T09:49:23.000Z</time>
      </trkpt>
      <trkpt lat="32.7553431876003742218017578125" lon="-16.7997766099870204925537109375">
        <ele>587</ele>
        <time>2018-06-23T09:49:27.000Z</time>
      </trkpt>
      <trkpt lat="32.75538652203977108001708984375" lon="-16.79955390281975269317626953125">
        <ele>585.5999755859375</ele>
        <time>2018-06-23T09:49:33.000Z</time>
      </trkpt>
      <trkpt lat="32.7553653158247470855712890625" lon="-16.79944024421274662017822265625">
        <ele>584.20001220703125</ele>
        <time>2018-06-23T09:49:36.000Z</time>
      </trkpt>
      <trkpt lat="32.755346707999706268310546875" lon="-16.7993008531630039215087890625">
        <ele>583</ele>
        <time>2018-06-23T09:49:40.000Z</time>
      </trkpt>
      <trkpt lat="32.75537294335663318634033203125" lon="-16.79918409325182437896728515625">
        <ele>582</ele>
        <time>2018-06-23T09:49:44.000Z</time>
      </trkpt>
      <trkpt lat="32.7554370649158954620361328125" lon="-16.799109242856502532958984375">
        <ele>580.79998779296875</ele>
        <time>2018-06-23T09:49:47.000Z</time>
      </trkpt>
      <trkpt lat="32.75550755672156810760498046875" lon="-16.79904981516301631927490234375">
        <ele>579.5999755859375</ele>
        <time>2018-06-23T09:49:50.000Z</time>
      </trkpt>
      <trkpt lat="32.7555755339562892913818359375" lon="-16.7989773117005825042724609375">
        <ele>578</ele>
        <time>2018-06-23T09:49:53.000Z</time>
      </trkpt>
      <trkpt lat="32.75564300827682018280029296875" lon="-16.79888502694666385650634765625">
        <ele>577</ele>
        <time>2018-06-23T09:49:57.000Z</time>
      </trkpt>
      <trkpt lat="32.75567955337464809417724609375" lon="-16.798814870417118072509765625">
        <ele>578.4000244140625</ele>
        <time>2018-06-23T09:50:02.000Z</time>
      </trkpt>
      <trkpt lat="32.75571324862539768218994140625" lon="-16.79882450960576534271240234375">
        <ele>579.4000244140625</ele>
        <time>2018-06-23T09:50:05.000Z</time>
      </trkpt>
      <trkpt lat="32.7557254023849964141845703125" lon="-16.79882333613932132720947265625">
        <ele>579.5999755859375</ele>
        <time>2018-06-23T09:50:06.000Z</time>
      </trkpt>
      <trkpt lat="32.755735628306865692138671875" lon="-16.7988163791596889495849609375">
        <ele>580</ele>
        <time>2018-06-23T09:50:07.000Z</time>
      </trkpt>
      <trkpt lat="32.7557746879756450653076171875" lon="-16.7986138723790645599365234375">
        <ele>579.5999755859375</ele>
        <time>2018-06-23T09:50:19.000Z</time>
      </trkpt>
      <trkpt lat="32.75577477179467678070068359375" lon="-16.79852024652063846588134765625">
        <ele>580.5999755859375</ele>
        <time>2018-06-23T09:50:23.000Z</time>
      </trkpt>
      <trkpt lat="32.755677290260791778564453125" lon="-16.7983536981046199798583984375">
        <ele>581.5999755859375</ele>
        <time>2018-06-23T09:50:30.000Z</time>
      </trkpt>
      <trkpt lat="32.755661867558956146240234375" lon="-16.7981478385627269744873046875">
        <ele>580.20001220703125</ele>
        <time>2018-06-23T09:50:38.000Z</time>
      </trkpt>
      <trkpt lat="32.75567620061337947845458984375" lon="-16.7980542965233325958251953125">
        <ele>580.5999755859375</ele>
        <time>2018-06-23T09:50:43.000Z</time>
      </trkpt>
      <trkpt lat="32.75563261471688747406005859375" lon="-16.79789763875305652618408203125">
        <ele>581.79998779296875</ele>
        <time>2018-06-23T09:50:49.000Z</time>
      </trkpt>
      <trkpt lat="32.75559036992490291595458984375" lon="-16.7978122271597385406494140625">
        <ele>581.5999755859375</ele>
        <time>2018-06-23T09:50:52.000Z</time>
      </trkpt>
      <trkpt lat="32.7555353008210659027099609375" lon="-16.79781147278845310211181640625">
        <ele>580.5999755859375</ele>
        <time>2018-06-23T09:50:55.000Z</time>
      </trkpt>
      <trkpt lat="32.7554028667509555816650390625" lon="-16.797969304025173187255859375">
        <ele>580.20001220703125</ele>
        <time>2018-06-23T09:51:04.000Z</time>
      </trkpt>
      <trkpt lat="32.75526188313961029052734375" lon="-16.7981102876365184783935546875">
        <ele>580.79998779296875</ele>
        <time>2018-06-23T09:51:14.000Z</time>
      </trkpt>
      <trkpt lat="32.7552271820604801177978515625" lon="-16.79812126792967319488525390625">
        <ele>580.4000244140625</ele>
        <time>2018-06-23T09:51:16.000Z</time>
      </trkpt>
      <trkpt lat="32.7551809139549732208251953125" lon="-16.798114478588104248046875">
        <ele>579.4000244140625</ele>
        <time>2018-06-23T09:51:18.000Z</time>
      </trkpt>
      <trkpt lat="32.75497513823211193084716796875" lon="-16.7981163226068019866943359375">
        <ele>580</ele>
        <time>2018-06-23T09:51:26.000Z</time>
      </trkpt>
      <trkpt lat="32.7549190632998943328857421875" lon="-16.7981169931590557098388671875">
        <ele>580.5999755859375</ele>
        <time>2018-06-23T09:51:28.000Z</time>
      </trkpt>
      <trkpt lat="32.7547252736985683441162109375" lon="-16.79810098372399806976318359375">
        <ele>581.20001220703125</ele>
        <time>2018-06-23T09:51:38.000Z</time>
      </trkpt>
      <trkpt lat="32.754543721675872802734375" lon="-16.7980626784265041351318359375">
        <ele>579.79998779296875</ele>
        <time>2018-06-23T09:51:45.000Z</time>
      </trkpt>
      <trkpt lat="32.75448446162045001983642578125" lon="-16.7980432324111461639404296875">
        <ele>579.5999755859375</ele>
        <time>2018-06-23T09:51:47.000Z</time>
      </trkpt>
      <trkpt lat="32.7544002234935760498046875" lon="-16.7980167455971240997314453125">
        <ele>580.79998779296875</ele>
        <time>2018-06-23T09:51:52.000Z</time>
      </trkpt>
      <trkpt lat="32.7543477527797222137451171875" lon="-16.79797559045255184173583984375">
        <ele>581</ele>
        <time>2018-06-23T09:51:55.000Z</time>
      </trkpt>
      <trkpt lat="32.75418053381145000457763671875" lon="-16.79790459573268890380859375">
        <ele>580.20001220703125</ele>
        <time>2018-06-23T09:52:03.000Z</time>
      </trkpt>
      <trkpt lat="32.75398506782948970794677734375" lon="-16.79789596237242221832275390625">
        <ele>579.79998779296875</ele>
        <time>2018-06-23T09:52:13.000Z</time>
      </trkpt>
      <trkpt lat="32.75380586273968219757080078125" lon="-16.7979798652231693267822265625">
        <ele>580.20001220703125</ele>
        <time>2018-06-23T09:52:20.000Z</time>
      </trkpt>
      <trkpt lat="32.753620035946369171142578125" lon="-16.79798866622149944305419921875">
        <ele>580.4000244140625</ele>
        <time>2018-06-23T09:52:27.000Z</time>
      </trkpt>
      <trkpt lat="32.7535622008144855499267578125" lon="-16.7979721538722515106201171875">
        <ele>580.5999755859375</ele>
        <time>2018-06-23T09:52:30.000Z</time>
      </trkpt>
      <trkpt lat="32.75334955193102359771728515625" lon="-16.79797290824353694915771484375">
        <ele>580.5999755859375</ele>
        <time>2018-06-23T09:52:37.000Z</time>
      </trkpt>
      <trkpt lat="32.7531528286635875701904296875" lon="-16.79793116636574268341064453125">
        <ele>580</ele>
        <time>2018-06-23T09:52:44.000Z</time>
      </trkpt>
      <trkpt lat="32.7530203945934772491455078125" lon="-16.79793007671833038330078125">
        <ele>580.79998779296875</ele>
        <time>2018-06-23T09:52:48.000Z</time>
      </trkpt>
      <trkpt lat="32.75298845954239368438720703125" lon="-16.79784298874437808990478515625">
        <ele>581</ele>
        <time>2018-06-23T09:52:52.000Z</time>
      </trkpt>
      <trkpt lat="32.7530753798782825469970703125" lon="-16.79773628711700439453125">
        <ele>579.4000244140625</ele>
        <time>2018-06-23T09:52:59.000Z</time>
      </trkpt>
      <trkpt lat="32.75324796326458454132080078125" lon="-16.797636039555072784423828125">
        <ele>580.20001220703125</ele>
        <time>2018-06-23T09:53:08.000Z</time>
      </trkpt>
      <trkpt lat="32.75330747477710247039794921875" lon="-16.79756672121584415435791015625">
        <ele>578</ele>
        <time>2018-06-23T09:53:13.000Z</time>
      </trkpt>
      <trkpt lat="32.75335005484521389007568359375" lon="-16.79746177978813648223876953125">
        <ele>577</ele>
        <time>2018-06-23T09:53:18.000Z</time>
      </trkpt>
      <trkpt lat="32.7533902041614055633544921875" lon="-16.7973616160452365875244140625">
        <ele>578.20001220703125</ele>
        <time>2018-06-23T09:53:22.000Z</time>
      </trkpt>
      <trkpt lat="32.753446362912654876708984375" lon="-16.79727293550968170166015625">
        <ele>579.20001220703125</ele>
        <time>2018-06-23T09:53:26.000Z</time>
      </trkpt>
      <trkpt lat="32.753572762012481689453125" lon="-16.797100603580474853515625">
        <ele>579</ele>
        <time>2018-06-23T09:53:34.000Z</time>
      </trkpt>
      <trkpt lat="32.75366127490997314453125" lon="-16.7970162816345691680908203125">
        <ele>578</ele>
        <time>2018-06-23T09:53:40.000Z</time>
      </trkpt>
      <trkpt lat="32.75376546196639537811279296875" lon="-16.79690673016011714935302734375">
        <ele>576.79998779296875</ele>
        <time>2018-06-23T09:53:47.000Z</time>
      </trkpt>
      <trkpt lat="32.7537958882749080657958984375" lon="-16.7968245036900043487548828125">
        <ele>575.20001220703125</ele>
        <time>2018-06-23T09:53:49.000Z</time>
      </trkpt>
      <trkpt lat="32.75383268482983112335205078125" lon="-16.79664622060954570770263671875">
        <ele>576.5999755859375</ele>
        <time>2018-06-23T09:53:55.000Z</time>
      </trkpt>
      <trkpt lat="32.7538441680371761322021484375" lon="-16.796551756560802459716796875">
        <ele>577.79998779296875</ele>
        <time>2018-06-23T09:53:58.000Z</time>
      </trkpt>
      <trkpt lat="32.75383570231497287750244140625" lon="-16.79649635218083858489990234375">
        <ele>578.20001220703125</ele>
        <time>2018-06-23T09:54:02.000Z</time>
      </trkpt>
      <trkpt lat="32.7538451738655567169189453125" lon="-16.79637305438518524169921875">
        <ele>578.79998779296875</ele>
        <time>2018-06-23T09:54:06.000Z</time>
      </trkpt>
      <trkpt lat="32.7539289928972721099853515625" lon="-16.79617616347968578338623046875">
        <ele>579</ele>
        <time>2018-06-23T09:54:14.000Z</time>
      </trkpt>
      <trkpt lat="32.75393687188625335693359375" lon="-16.7961405403912067413330078125">
        <ele>579</ele>
        <time>2018-06-23T09:54:16.000Z</time>
      </trkpt>
      <trkpt lat="32.7540104649960994720458984375" lon="-16.7959172464907169342041015625">
        <ele>578.4000244140625</ele>
        <time>2018-06-23T09:54:24.000Z</time>
      </trkpt>
      <trkpt lat="32.7540837228298187255859375" lon="-16.795703507959842681884765625">
        <ele>579</ele>
        <time>2018-06-23T09:54:33.000Z</time>
      </trkpt>
      <trkpt lat="32.75417483411729335784912109375" lon="-16.79553025402128696441650390625">
        <ele>580</ele>
        <time>2018-06-23T09:54:40.000Z</time>
      </trkpt>
      <trkpt lat="32.75432704947888851165771484375" lon="-16.79540737532079219818115234375">
        <ele>580</ele>
        <time>2018-06-23T09:54:51.000Z</time>
      </trkpt>
      <trkpt lat="32.75441304780542850494384765625" lon="-16.79527360014617443084716796875">
        <ele>578.79998779296875</ele>
        <time>2018-06-23T09:54:59.000Z</time>
      </trkpt>
      <trkpt lat="32.75445998646318912506103515625" lon="-16.795217692852020263671875">
        <ele>577.20001220703125</ele>
        <time>2018-06-23T09:55:02.000Z</time>
      </trkpt>
      <trkpt lat="32.7544999681413173675537109375" lon="-16.79515264928340911865234375">
        <ele>577.20001220703125</ele>
        <time>2018-06-23T09:55:06.000Z</time>
      </trkpt>
      <trkpt lat="32.7544459886848926544189453125" lon="-16.7950810678303241729736328125">
        <ele>578.5999755859375</ele>
        <time>2018-06-23T09:55:14.000Z</time>
      </trkpt>
      <trkpt lat="32.75441690348088741302490234375" lon="-16.7950653098523616790771484375">
        <ele>579.79998779296875</ele>
        <time>2018-06-23T09:55:17.000Z</time>
      </trkpt>
      <trkpt lat="32.7542706392705440521240234375" lon="-16.79493078030645847320556640625">
        <ele>579</ele>
        <time>2018-06-23T09:55:27.000Z</time>
      </trkpt>
      <trkpt lat="32.75425664149224758148193359375" lon="-16.7948730289936065673828125">
        <ele>579.79998779296875</ele>
        <time>2018-06-23T09:55:30.000Z</time>
      </trkpt>
      <trkpt lat="32.7542394585907459259033203125" lon="-16.7948222346603870391845703125">
        <ele>580.79998779296875</ele>
        <time>2018-06-23T09:55:34.000Z</time>
      </trkpt>
      <trkpt lat="32.75409151799976825714111328125" lon="-16.7946958355605602264404296875">
        <ele>580.79998779296875</ele>
        <time>2018-06-23T09:55:43.000Z</time>
      </trkpt>
      <trkpt lat="32.753996551036834716796875" lon="-16.79466926492750644683837890625">
        <ele>579.79998779296875</ele>
        <time>2018-06-23T09:55:47.000Z</time>
      </trkpt>
      <trkpt lat="32.7538485266268253326416015625" lon="-16.79451587609946727752685546875">
        <ele>579.20001220703125</ele>
        <time>2018-06-23T09:55:56.000Z</time>
      </trkpt>
      <trkpt lat="32.75381709448993206024169921875" lon="-16.79433734156191349029541015625">
        <ele>578.5999755859375</ele>
        <time>2018-06-23T09:56:02.000Z</time>
      </trkpt>
      <trkpt lat="32.75381139479577541351318359375" lon="-16.7941220104694366455078125">
        <ele>579.20001220703125</ele>
        <time>2018-06-23T09:56:08.000Z</time>
      </trkpt>
      <trkpt lat="32.75391004979610443115234375" lon="-16.7939391173422336578369140625">
        <ele>578</ele>
        <time>2018-06-23T09:56:17.000Z</time>
      </trkpt>
      <trkpt lat="32.75395430624485015869140625" lon="-16.7937446571886539459228515625">
        <ele>579.5999755859375</ele>
        <time>2018-06-23T09:56:25.000Z</time>
      </trkpt>
      <trkpt lat="32.75398137979209423065185546875" lon="-16.79368170909583568572998046875">
        <ele>579</ele>
        <time>2018-06-23T09:56:29.000Z</time>
      </trkpt>
      <trkpt lat="32.7539817988872528076171875" lon="-16.7936802841722965240478515625">
        <ele>578.5999755859375</ele>
        <time>2018-06-23T09:56:30.000Z</time>
      </trkpt>
      <trkpt lat="32.7537908591330051422119140625" lon="-16.7935475148260593414306640625">
        <ele>578.79998779296875</ele>
        <time>2018-06-23T09:56:42.000Z</time>
      </trkpt>
      <trkpt lat="32.75373034179210662841796875" lon="-16.79351122118532657623291015625">
        <ele>577.4000244140625</ele>
        <time>2018-06-23T09:56:45.000Z</time>
      </trkpt>
      <trkpt lat="32.75370947085320949554443359375" lon="-16.79351038299500942230224609375">
        <ele>577</ele>
        <time>2018-06-23T09:56:47.000Z</time>
      </trkpt>
      <trkpt lat="32.7536929585039615631103515625" lon="-16.7935855686664581298828125">
        <ele>578.79998779296875</ele>
        <time>2018-06-23T09:56:52.000Z</time>
      </trkpt>
      <trkpt lat="32.7536761946976184844970703125" lon="-16.7936092056334018707275390625">
        <ele>579</ele>
        <time>2018-06-23T09:56:53.000Z</time>
      </trkpt>
      <trkpt lat="32.75350394658744335174560546875" lon="-16.79371356032788753509521484375">
        <ele>578.20001220703125</ele>
        <time>2018-06-23T09:57:01.000Z</time>
      </trkpt>
      <trkpt lat="32.75332021526992321014404296875" lon="-16.79380911402404308319091796875">
        <ele>578</ele>
        <time>2018-06-23T09:57:10.000Z</time>
      </trkpt>
      <trkpt lat="32.7532924711704254150390625" lon="-16.7938029952347278594970703125">
        <ele>578</ele>
        <time>2018-06-23T09:57:11.000Z</time>
      </trkpt>
      <trkpt lat="32.75324058718979358673095703125" lon="-16.79378338158130645751953125">
        <ele>577.5999755859375</ele>
        <time>2018-06-23T09:57:13.000Z</time>
      </trkpt>
      <trkpt lat="32.7531762979924678802490234375" lon="-16.7937828786671161651611328125">
        <ele>577.79998779296875</ele>
        <time>2018-06-23T09:57:16.000Z</time>
      </trkpt>
      <trkpt lat="32.7531092427670955657958984375" lon="-16.79396535269916057586669921875">
        <ele>578.79998779296875</ele>
        <time>2018-06-23T09:57:24.000Z</time>
      </trkpt>
      <trkpt lat="32.7529982663691043853759765625" lon="-16.79410524666309356689453125">
        <ele>577.5999755859375</ele>
        <time>2018-06-23T09:57:32.000Z</time>
      </trkpt>
      <trkpt lat="32.7529798261821269989013671875" lon="-16.794115640223026275634765625">
        <ele>577.5999755859375</ele>
        <time>2018-06-23T09:57:33.000Z</time>
      </trkpt>
      <trkpt lat="32.75294822640717029571533203125" lon="-16.79416534490883350372314453125">
        <ele>578</ele>
        <time>2018-06-23T09:57:36.000Z</time>
      </trkpt>
      <trkpt lat="32.75294286198914051055908203125" lon="-16.79427749477326869964599609375">
        <ele>578.79998779296875</ele>
        <time>2018-06-23T09:57:41.000Z</time>
      </trkpt>
      <trkpt lat="32.75283037684857845306396484375" lon="-16.794471703469753265380859375">
        <ele>580</ele>
        <time>2018-06-23T09:57:48.000Z</time>
      </trkpt>
      <trkpt lat="32.7527270279824733734130859375" lon="-16.79467345587909221649169921875">
        <ele>579.4000244140625</ele>
        <time>2018-06-23T09:57:55.000Z</time>
      </trkpt>
      <trkpt lat="32.75263189338147640228271484375" lon="-16.794867999851703643798828125">
        <ele>578.4000244140625</ele>
        <time>2018-06-23T09:58:04.000Z</time>
      </trkpt>
      <trkpt lat="32.7526177279651165008544921875" lon="-16.79498576559126377105712890625">
        <ele>577.4000244140625</ele>
        <time>2018-06-23T09:58:09.000Z</time>
      </trkpt>
      <trkpt lat="32.752618901431560516357421875" lon="-16.79508500732481479644775390625">
        <ele>578.5999755859375</ele>
        <time>2018-06-23T09:58:13.000Z</time>
      </trkpt>
      <trkpt lat="32.75254203937947750091552734375" lon="-16.7952875979244709014892578125">
        <ele>579.20001220703125</ele>
        <time>2018-06-23T09:58:22.000Z</time>
      </trkpt>
      <trkpt lat="32.7523568831384181976318359375" lon="-16.7952946387231349945068359375">
        <ele>577.79998779296875</ele>
        <time>2018-06-23T09:58:30.000Z</time>
      </trkpt>
      <trkpt lat="32.75217994116246700286865234375" lon="-16.7952346242964267730712890625">
        <ele>578.79998779296875</ele>
        <time>2018-06-23T09:58:37.000Z</time>
      </trkpt>
      <trkpt lat="32.75202336721122264862060546875" lon="-16.79510344751179218292236328125">
        <ele>579.79998779296875</ele>
        <time>2018-06-23T09:58:44.000Z</time>
      </trkpt>
      <trkpt lat="32.75196888484060764312744140625" lon="-16.7950743623077869415283203125">
        <ele>581</ele>
        <time>2018-06-23T09:58:47.000Z</time>
      </trkpt>
      <trkpt lat="32.75191959924995899200439453125" lon="-16.7950420081615447998046875">
        <ele>582.4000244140625</ele>
        <time>2018-06-23T09:58:50.000Z</time>
      </trkpt>
      <trkpt lat="32.75185220874845981597900390625" lon="-16.79496615193784236907958984375">
        <ele>583.5999755859375</ele>
        <time>2018-06-23T09:58:56.000Z</time>
      </trkpt>
      <trkpt lat="32.7518440783023834228515625" lon="-16.7948782257735729217529296875">
        <ele>584.5999755859375</ele>
        <time>2018-06-23T09:59:01.000Z</time>
      </trkpt>
      <trkpt lat="32.75182195007801055908203125" lon="-16.79474788717925548553466796875">
        <ele>583.5999755859375</ele>
        <time>2018-06-23T09:59:09.000Z</time>
      </trkpt>
      <trkpt lat="32.751806862652301788330078125" lon="-16.79472877644002437591552734375">
        <ele>582.4000244140625</ele>
        <time>2018-06-23T09:59:11.000Z</time>
      </trkpt>
      <trkpt lat="32.75177878327667713165283203125" lon="-16.79466440342366695404052734375">
        <ele>581.20001220703125</ele>
        <time>2018-06-23T09:59:14.000Z</time>
      </trkpt>
      <trkpt lat="32.75176319293677806854248046875" lon="-16.79463565349578857421875">
        <ele>580</ele>
        <time>2018-06-23T09:59:16.000Z</time>
      </trkpt>
      <trkpt lat="32.75176227092742919921875" lon="-16.79460455663502216339111328125">
        <ele>578.79998779296875</ele>
        <time>2018-06-23T09:59:18.000Z</time>
      </trkpt>
      <trkpt lat="32.7517604269087314605712890625" lon="-16.79456851445138454437255859375">
        <ele>577.5999755859375</ele>
        <time>2018-06-23T09:59:20.000Z</time>
      </trkpt>
      <trkpt lat="32.7517577446997165679931640625" lon="-16.79454068653285503387451171875">
        <ele>577.20001220703125</ele>
        <time>2018-06-23T09:59:21.000Z</time>
      </trkpt>
      <trkpt lat="32.75174818933010101318359375" lon="-16.79447966627776622772216796875">
        <ele>576.4000244140625</ele>
        <time>2018-06-23T09:59:23.000Z</time>
      </trkpt>
      <trkpt lat="32.751694880425930023193359375" lon="-16.79424916394054889678955078125">
        <ele>577.5999755859375</ele>
        <time>2018-06-23T09:59:30.000Z</time>
      </trkpt>
      <trkpt lat="32.75168674997985363006591796875" lon="-16.7941728048026561737060546875">
        <ele>577.20001220703125</ele>
        <time>2018-06-23T09:59:34.000Z</time>
      </trkpt>
      <trkpt lat="32.75165758095681667327880859375" lon="-16.79408990778028964996337890625">
        <ele>578.20001220703125</ele>
        <time>2018-06-23T09:59:39.000Z</time>
      </trkpt>
      <trkpt lat="32.75163696147501468658447265625" lon="-16.79391841404139995574951171875">
        <ele>577.79998779296875</ele>
        <time>2018-06-23T09:59:47.000Z</time>
      </trkpt>
      <trkpt lat="32.75161986239254474639892578125" lon="-16.7938257940113544464111328125">
        <ele>577.4000244140625</ele>
        <time>2018-06-23T09:59:51.000Z</time>
      </trkpt>
      <trkpt lat="32.75160393677651882171630859375" lon="-16.79378983564674854278564453125">
        <ele>577.79998779296875</ele>
        <time>2018-06-23T09:59:53.000Z</time>
      </trkpt>
      <trkpt lat="32.751582898199558258056640625" lon="-16.7937476746737957000732421875">
        <ele>578</ele>
        <time>2018-06-23T09:59:56.000Z</time>
      </trkpt>
      <trkpt lat="32.7515606023371219635009765625" lon="-16.793728731572628021240234375">
        <ele>578</ele>
        <time>2018-06-23T09:59:58.000Z</time>
      </trkpt>
      <trkpt lat="32.75154191069304943084716796875" lon="-16.79369713179767131805419921875">
        <ele>578.20001220703125</ele>
        <time>2018-06-23T10:00:00.000Z</time>
      </trkpt>
      <trkpt lat="32.7514935471117496490478515625" lon="-16.7935847304761409759521484375">
        <ele>578.79998779296875</ele>
        <time>2018-06-23T10:00:03.000Z</time>
      </trkpt>
      <trkpt lat="32.7514466084539890289306640625" lon="-16.7935019172728061676025390625">
        <ele>577.79998779296875</ele>
        <time>2018-06-23T10:00:07.000Z</time>
      </trkpt>
      <trkpt lat="32.75135667063295841217041015625" lon="-16.79354340769350528717041015625">
        <ele>578.79998779296875</ele>
        <time>2018-06-23T10:00:14.000Z</time>
      </trkpt>
      <trkpt lat="32.75127050466835498809814453125" lon="-16.79364985786378383636474609375">
        <ele>577.79998779296875</ele>
        <time>2018-06-23T10:00:19.000Z</time>
      </trkpt>
      <trkpt lat="32.7511046268045902252197265625" lon="-16.79375848732888698577880859375">
        <ele>578.20001220703125</ele>
        <time>2018-06-23T10:00:27.000Z</time>
      </trkpt>
      <trkpt lat="32.751053161919116973876953125" lon="-16.79376033134758472442626953125">
        <ele>577.5999755859375</ele>
        <time>2018-06-23T10:00:29.000Z</time>
      </trkpt>
      <trkpt lat="32.75096355937421321868896484375" lon="-16.7937409691512584686279296875">
        <ele>576.4000244140625</ele>
        <time>2018-06-23T10:00:32.000Z</time>
      </trkpt>
      <trkpt lat="32.75079893879592418670654296875" lon="-16.79380777291953563690185546875">
        <ele>577.20001220703125</ele>
        <time>2018-06-23T10:00:41.000Z</time>
      </trkpt>
      <trkpt lat="32.75078301317989826202392578125" lon="-16.79384415037930011749267578125">
        <ele>577.5999755859375</ele>
        <time>2018-06-23T10:00:43.000Z</time>
      </trkpt>
      <trkpt lat="32.75072936899960041046142578125" lon="-16.7939387820661067962646484375">
        <ele>577.79998779296875</ele>
        <time>2018-06-23T10:00:48.000Z</time>
      </trkpt>
      <trkpt lat="32.750692404806613922119140625" lon="-16.793990917503833770751953125">
        <ele>577.4000244140625</ele>
        <time>2018-06-23T10:00:51.000Z</time>
      </trkpt>
      <trkpt lat="32.75056106038391590118408203125" lon="-16.794090829789638519287109375">
        <ele>578.79998779296875</ele>
        <time>2018-06-23T10:00:59.000Z</time>
      </trkpt>
      <trkpt lat="32.75038696825504302978515625" lon="-16.79416584782302379608154296875">
        <ele>578.4000244140625</ele>
        <time>2018-06-23T10:01:07.000Z</time>
      </trkpt>
      <trkpt lat="32.7503127045929431915283203125" lon="-16.794198788702487945556640625">
        <ele>577.4000244140625</ele>
        <time>2018-06-23T10:01:11.000Z</time>
      </trkpt>
      <trkpt lat="32.75021086446940898895263671875" lon="-16.79422267712652683258056640625">
        <ele>577.5999755859375</ele>
        <time>2018-06-23T10:01:17.000Z</time>
      </trkpt>
      <trkpt lat="32.750068791210651397705078125" lon="-16.79440104402601718902587890625">
        <ele>578.20001220703125</ele>
        <time>2018-06-23T10:01:24.000Z</time>
      </trkpt>
      <trkpt lat="32.75002696551382541656494140625" lon="-16.79444077424705028533935546875">
        <ele>578.4000244140625</ele>
        <time>2018-06-23T10:01:26.000Z</time>
      </trkpt>
      <trkpt lat="32.7498377859592437744140625" lon="-16.7945281974971294403076171875">
        <ele>577.5999755859375</ele>
        <time>2018-06-23T10:01:34.000Z</time>
      </trkpt>
      <trkpt lat="32.7496672980487346649169921875" lon="-16.79450280033051967620849609375">
        <ele>579.79998779296875</ele>
        <time>2018-06-23T10:01:43.000Z</time>
      </trkpt>
      <trkpt lat="32.749635614454746246337890625" lon="-16.794483773410320281982421875">
        <ele>581.20001220703125</ele>
        <time>2018-06-23T10:01:46.000Z</time>
      </trkpt>
      <trkpt lat="32.7496089600026607513427734375" lon="-16.79448251612484455108642578125">
        <ele>582.20001220703125</ele>
        <time>2018-06-23T10:01:49.000Z</time>
      </trkpt>
      <trkpt lat="32.74959026835858821868896484375" lon="-16.794479750096797943115234375">
        <ele>582.20001220703125</ele>
        <time>2018-06-23T10:01:50.000Z</time>
      </trkpt>
      <trkpt lat="32.7495784498751163482666015625" lon="-16.79449014365673065185546875">
        <ele>582.20001220703125</ele>
        <time>2018-06-23T10:01:51.000Z</time>
      </trkpt>
      <trkpt lat="32.74948440492153167724609375" lon="-16.7945201508700847625732421875">
        <ele>580.79998779296875</ele>
        <time>2018-06-23T10:01:56.000Z</time>
      </trkpt>
      <trkpt lat="32.7493072114884853363037109375" lon="-16.79459785111248493194580078125">
        <ele>581.79998779296875</ele>
        <time>2018-06-23T10:02:04.000Z</time>
      </trkpt>
      <trkpt lat="32.7492964826524257659912109375" lon="-16.7946049757301807403564453125">
        <ele>582.20001220703125</ele>
        <time>2018-06-23T10:02:05.000Z</time>
      </trkpt>
      <trkpt lat="32.7492153458297252655029296875" lon="-16.79466038011014461517333984375">
        <ele>582.79998779296875</ele>
        <time>2018-06-23T10:02:11.000Z</time>
      </trkpt>
      <trkpt lat="32.74917326867580413818359375" lon="-16.7947934009134769439697265625">
        <ele>583.4000244140625</ele>
        <time>2018-06-23T10:02:17.000Z</time>
      </trkpt>
      <trkpt lat="32.749128006398677825927734375" lon="-16.79487914778292179107666015625">
        <ele>584.5999755859375</ele>
        <time>2018-06-23T10:02:21.000Z</time>
      </trkpt>
      <trkpt lat="32.749073021113872528076171875" lon="-16.79492055438458919525146484375">
        <ele>585.79998779296875</ele>
        <time>2018-06-23T10:02:24.000Z</time>
      </trkpt>
      <trkpt lat="32.74889507330954074859619140625" lon="-16.7950044572353363037109375">
        <ele>586</ele>
        <time>2018-06-23T10:02:32.000Z</time>
      </trkpt>
      <trkpt lat="32.7487918920814990997314453125" lon="-16.79505650885403156280517578125">
        <ele>586.79998779296875</ele>
        <time>2018-06-23T10:02:38.000Z</time>
      </trkpt>
      <trkpt lat="32.7487757988274097442626953125" lon="-16.79506505839526653289794921875">
        <ele>587.5999755859375</ele>
        <time>2018-06-23T10:02:40.000Z</time>
      </trkpt>
      <trkpt lat="32.7487680874764919281005859375" lon="-16.7950673215091228485107421875">
        <ele>588</ele>
        <time>2018-06-23T10:02:41.000Z</time>
      </trkpt>
      <trkpt lat="32.7487302012741565704345703125" lon="-16.79508064873516559600830078125">
        <ele>589</ele>
        <time>2018-06-23T10:02:45.000Z</time>
      </trkpt>
      <trkpt lat="32.748716287314891815185546875" lon="-16.79507913999259471893310546875">
        <ele>589</ele>
        <time>2018-06-23T10:02:46.000Z</time>
      </trkpt>
      <trkpt lat="32.748694829642772674560546875" lon="-16.795085929334163665771484375">
        <ele>588.5999755859375</ele>
        <time>2018-06-23T10:02:48.000Z</time>
      </trkpt>
      <trkpt lat="32.74867395870387554168701171875" lon="-16.7950867675244808197021484375">
        <ele>588</ele>
        <time>2018-06-23T10:02:51.000Z</time>
      </trkpt>
      <trkpt lat="32.7486755512654781341552734375" lon="-16.79504460655152797698974609375">
        <ele>589.20001220703125</ele>
        <time>2018-06-23T10:02:56.000Z</time>
      </trkpt>
      <trkpt lat="32.74869156070053577423095703125" lon="-16.79498626850545406341552734375">
        <ele>590.20001220703125</ele>
        <time>2018-06-23T10:03:00.000Z</time>
      </trkpt>
      <trkpt lat="32.74871637113392353057861328125" lon="-16.79493941366672515869140625">
        <ele>591.20001220703125</ele>
        <time>2018-06-23T10:03:03.000Z</time>
      </trkpt>
      <trkpt lat="32.74873548187315464019775390625" lon="-16.79491502232849597930908203125">
        <ele>592.20001220703125</ele>
        <time>2018-06-23T10:03:05.000Z</time>
      </trkpt>
      <trkpt lat="32.748763896524906158447265625" lon="-16.79485668428242206573486328125">
        <ele>593.20001220703125</ele>
        <time>2018-06-23T10:03:09.000Z</time>
      </trkpt>
      <trkpt lat="32.74878568947315216064453125" lon="-16.79479415528476238250732421875">
        <ele>594.5999755859375</ele>
        <time>2018-06-23T10:03:13.000Z</time>
      </trkpt>
      <trkpt lat="32.74880002252757549285888671875" lon="-16.794751323759555816650390625">
        <ele>595.79998779296875</ele>
        <time>2018-06-23T10:03:16.000Z</time>
      </trkpt>
      <trkpt lat="32.74883539415895938873291015625" lon="-16.79469591937959194183349609375">
        <ele>597.20001220703125</ele>
        <time>2018-06-23T10:03:20.000Z</time>
      </trkpt>
      <trkpt lat="32.7488797344267368316650390625" lon="-16.79460137151181697845458984375">
        <ele>598.20001220703125</ele>
        <time>2018-06-23T10:03:25.000Z</time>
      </trkpt>
      <trkpt lat="32.74890010245144367218017578125" lon="-16.794519312679767608642578125">
        <ele>599.4000244140625</ele>
        <time>2018-06-23T10:03:30.000Z</time>
      </trkpt>
      <trkpt lat="32.748933546245098114013671875" lon="-16.7944638244807720184326171875">
        <ele>600.5999755859375</ele>
        <time>2018-06-23T10:03:34.000Z</time>
      </trkpt>
      <trkpt lat="32.74894452653825283050537109375" lon="-16.79445485584437847137451171875">
        <ele>600.79998779296875</ele>
        <time>2018-06-23T10:03:35.000Z</time>
      </trkpt>
      <trkpt lat="32.74896900169551372528076171875" lon="-16.7944296263158321380615234375">
        <ele>601.79998779296875</ele>
        <time>2018-06-23T10:03:38.000Z</time>
      </trkpt>
      <trkpt lat="32.7489928901195526123046875" lon="-16.79440163075923919677734375">
        <ele>603</ele>
        <time>2018-06-23T10:03:42.000Z</time>
      </trkpt>
      <trkpt lat="32.7489888668060302734375" lon="-16.79436449892818927764892578125">
        <ele>604</ele>
        <time>2018-06-23T10:03:45.000Z</time>
      </trkpt>
      <trkpt lat="32.74898811243474483489990234375" lon="-16.79435477592051029205322265625">
        <ele>604.20001220703125</ele>
        <time>2018-06-23T10:03:46.000Z</time>
      </trkpt>
      <trkpt lat="32.74899087846279144287109375" lon="-16.79434798657894134521484375">
        <ele>604.5999755859375</ele>
        <time>2018-06-23T10:03:47.000Z</time>
      </trkpt>
      <trkpt lat="32.748990543186664581298828125" lon="-16.79433725774288177490234375">
        <ele>605.5999755859375</ele>
        <time>2018-06-23T10:03:49.000Z</time>
      </trkpt>
      <trkpt lat="32.7490037865936756134033203125" lon="-16.79430582560598850250244140625">
        <ele>606.79998779296875</ele>
        <time>2018-06-23T10:03:53.000Z</time>
      </trkpt>
      <trkpt lat="32.74901124648749828338623046875" lon="-16.79428302682936191558837890625">
        <ele>607.4000244140625</ele>
        <time>2018-06-23T10:03:55.000Z</time>
      </trkpt>
      <trkpt lat="32.749020047485828399658203125" lon="-16.79426592774689197540283203125">
        <ele>608</ele>
        <time>2018-06-23T10:03:57.000Z</time>
      </trkpt>
      <trkpt lat="32.7490306086838245391845703125" lon="-16.7942469008266925811767578125">
        <ele>609.20001220703125</ele>
        <time>2018-06-23T10:04:01.000Z</time>
      </trkpt>
      <trkpt lat="32.7490591071546077728271484375" lon="-16.79421647451817989349365234375">
        <ele>610.5999755859375</ele>
        <time>2018-06-23T10:04:05.000Z</time>
      </trkpt>
      <trkpt lat="32.74909079074859619140625" lon="-16.7941756546497344970703125">
        <ele>611.5999755859375</ele>
        <time>2018-06-23T10:04:09.000Z</time>
      </trkpt>
      <trkpt lat="32.74910378269851207733154296875" lon="-16.794160567224025726318359375">
        <ele>612.20001220703125</ele>
        <time>2018-06-23T10:04:11.000Z</time>
      </trkpt>
      <trkpt lat="32.7491110749542713165283203125" lon="-16.79414237849414348602294921875">
        <ele>612.79998779296875</ele>
        <time>2018-06-23T10:04:13.000Z</time>
      </trkpt>
      <trkpt lat="32.74911216460168361663818359375" lon="-16.79413114674389362335205078125">
        <ele>613.20001220703125</ele>
        <time>2018-06-23T10:04:14.000Z</time>
      </trkpt>
      <trkpt lat="32.749123312532901763916015625" lon="-16.79411597549915313720703125">
        <ele>614.20001220703125</ele>
        <time>2018-06-23T10:04:17.000Z</time>
      </trkpt>
      <trkpt lat="32.74914217181503772735595703125" lon="-16.79410046897828578948974609375">
        <ele>615.4000244140625</ele>
        <time>2018-06-23T10:04:21.000Z</time>
      </trkpt>
      <trkpt lat="32.74918843992054462432861328125" lon="-16.79405604489147663116455078125">
        <ele>616.5999755859375</ele>
        <time>2018-06-23T10:04:27.000Z</time>
      </trkpt>
      <trkpt lat="32.74930092506110668182373046875" lon="-16.79397046566009521484375">
        <ele>617.79998779296875</ele>
        <time>2018-06-23T10:04:36.000Z</time>
      </trkpt>
      <trkpt lat="32.749343253672122955322265625" lon="-16.79395680315792560577392578125">
        <ele>618.79998779296875</ele>
        <time>2018-06-23T10:04:39.000Z</time>
      </trkpt>
      <trkpt lat="32.74941869080066680908203125" lon="-16.79392428137362003326416015625">
        <ele>620</ele>
        <time>2018-06-23T10:04:44.000Z</time>
      </trkpt>
      <trkpt lat="32.74951600469648838043212890625" lon="-16.79389377124607563018798828125">
        <ele>621.20001220703125</ele>
        <time>2018-06-23T10:04:50.000Z</time>
      </trkpt>
      <trkpt lat="32.74956327863037586212158203125" lon="-16.79388505406677722930908203125">
        <ele>621.79998779296875</ele>
        <time>2018-06-23T10:04:54.000Z</time>
      </trkpt>
      <trkpt lat="32.74957316927611827850341796875" lon="-16.79386108182370662689208984375">
        <ele>622.20001220703125</ele>
        <time>2018-06-23T10:04:56.000Z</time>
      </trkpt>
      <trkpt lat="32.74958456866443157196044921875" lon="-16.793842054903507232666015625">
        <ele>622.5999755859375</ele>
        <time>2018-06-23T10:04:57.000Z</time>
      </trkpt>
      <trkpt lat="32.74966503493487834930419921875" lon="-16.79363560862839221954345703125">
        <ele>622.79998779296875</ele>
        <time>2018-06-23T10:05:07.000Z</time>
      </trkpt>
      <trkpt lat="32.74971616454422473907470703125" lon="-16.7935864068567752838134765625">
        <ele>623.4000244140625</ele>
        <time>2018-06-23T10:05:10.000Z</time>
      </trkpt>
      <trkpt lat="32.7497373707592487335205078125" lon="-16.793570481240749359130859375">
        <ele>623.79998779296875</ele>
        <time>2018-06-23T10:05:12.000Z</time>
      </trkpt>
      <trkpt lat="32.74974994361400604248046875" lon="-16.79356184788048267364501953125">
        <ele>624.4000244140625</ele>
        <time>2018-06-23T10:05:14.000Z</time>
      </trkpt>
      <trkpt lat="32.74975958280265331268310546875" lon="-16.793559081852436065673828125">
        <ele>624.79998779296875</ele>
        <time>2018-06-23T10:05:15.000Z</time>
      </trkpt>
      <trkpt lat="32.74976813234388828277587890625" lon="-16.793547682464122772216796875">
        <ele>625.20001220703125</ele>
        <time>2018-06-23T10:05:16.000Z</time>
      </trkpt>
      <trkpt lat="32.74980735965073108673095703125" lon="-16.79349839687347412109375">
        <ele>626</ele>
        <time>2018-06-23T10:05:19.000Z</time>
      </trkpt>
      <trkpt lat="32.74984356947243213653564453125" lon="-16.79344953037798404693603515625">
        <ele>627</ele>
        <time>2018-06-23T10:05:22.000Z</time>
      </trkpt>
      <trkpt lat="32.74988715536892414093017578125" lon="-16.7934326827526092529296875">
        <ele>627.79998779296875</ele>
        <time>2018-06-23T10:05:24.000Z</time>
      </trkpt>
      <trkpt lat="32.74991179816424846649169921875" lon="-16.7934237979352474212646484375">
        <ele>628.20001220703125</ele>
        <time>2018-06-23T10:05:25.000Z</time>
      </trkpt>
      <trkpt lat="32.750075161457061767578125" lon="-16.7933275736868381500244140625">
        <ele>628.5999755859375</ele>
        <time>2018-06-23T10:05:33.000Z</time>
      </trkpt>
      <trkpt lat="32.75012050755321979522705078125" lon="-16.7932933755218982696533203125">
        <ele>628.5999755859375</ele>
        <time>2018-06-23T10:05:37.000Z</time>
      </trkpt>
      <trkpt lat="32.7501437254250049591064453125" lon="-16.79324157536029815673828125">
        <ele>629.20001220703125</ele>
        <time>2018-06-23T10:05:40.000Z</time>
      </trkpt>
      <trkpt lat="32.7501775883138179779052734375" lon="-16.79314895533025264739990234375">
        <ele>630.4000244140625</ele>
        <time>2018-06-23T10:05:44.000Z</time>
      </trkpt>
      <trkpt lat="32.75021069683134555816650390625" lon="-16.79307519458234310150146484375">
        <ele>631.5999755859375</ele>
        <time>2018-06-23T10:05:48.000Z</time>
      </trkpt>
      <trkpt lat="32.75030591525137424468994140625" lon="-16.7929902859032154083251953125">
        <ele>632.5999755859375</ele>
        <time>2018-06-23T10:05:53.000Z</time>
      </trkpt>
      <trkpt lat="32.75033290497958660125732421875" lon="-16.792954914271831512451171875">
        <ele>632.5999755859375</ele>
        <time>2018-06-23T10:05:55.000Z</time>
      </trkpt>
      <trkpt lat="32.75042108260095119476318359375" lon="-16.79287805221974849700927734375">
        <ele>633.79998779296875</ele>
        <time>2018-06-23T10:06:01.000Z</time>
      </trkpt>
      <trkpt lat="32.7504461444914340972900390625" lon="-16.7928613722324371337890625">
        <ele>633.79998779296875</ele>
        <time>2018-06-23T10:06:03.000Z</time>
      </trkpt>
      <trkpt lat="32.75046349503099918365478515625" lon="-16.7928571812808513641357421875">
        <ele>634</ele>
        <time>2018-06-23T10:06:05.000Z</time>
      </trkpt>
      <trkpt lat="32.75047942064702510833740234375" lon="-16.7928518168628215789794921875">
        <ele>634.20001220703125</ele>
        <time>2018-06-23T10:06:07.000Z</time>
      </trkpt>
      <trkpt lat="32.75049299933016300201416015625" lon="-16.792835891246795654296875">
        <ele>635</ele>
        <time>2018-06-23T10:06:09.000Z</time>
      </trkpt>
      <trkpt lat="32.75051395408809185028076171875" lon="-16.7928189598023891448974609375">
        <ele>636</ele>
        <time>2018-06-23T10:06:11.000Z</time>
      </trkpt>
      <trkpt lat="32.750561647117137908935546875" lon="-16.792797334492206573486328125">
        <ele>637</ele>
        <time>2018-06-23T10:06:14.000Z</time>
      </trkpt>
      <trkpt lat="32.75057363323867321014404296875" lon="-16.79278987459838390350341796875">
        <ele>637.20001220703125</ele>
        <time>2018-06-23T10:06:15.000Z</time>
      </trkpt>
      <trkpt lat="32.75061495602130889892578125" lon="-16.79274804890155792236328125">
        <ele>638.4000244140625</ele>
        <time>2018-06-23T10:06:19.000Z</time>
      </trkpt>
      <trkpt lat="32.7506660856306552886962890625" lon="-16.7926680855453014373779296875">
        <ele>639.5999755859375</ele>
        <time>2018-06-23T10:06:25.000Z</time>
      </trkpt>
      <trkpt lat="32.75073842145502567291259765625" lon="-16.7926335521042346954345703125">
        <ele>641</ele>
        <time>2018-06-23T10:06:30.000Z</time>
      </trkpt>
      <trkpt lat="32.75080941617488861083984375" lon="-16.7925423569977283477783203125">
        <ele>642</ele>
        <time>2018-06-23T10:06:37.000Z</time>
      </trkpt>
      <trkpt lat="32.7508343942463397979736328125" lon="-16.79250421933829784393310546875">
        <ele>643.20001220703125</ele>
        <time>2018-06-23T10:06:41.000Z</time>
      </trkpt>
      <trkpt lat="32.7508521638810634613037109375" lon="-16.79248661734163761138916015625">
        <ele>644</ele>
        <time>2018-06-23T10:06:43.000Z</time>
      </trkpt>
      <trkpt lat="32.75085794739425182342529296875" lon="-16.79247857071459293365478515625">
        <ele>644.20001220703125</ele>
        <time>2018-06-23T10:06:44.000Z</time>
      </trkpt>
      <trkpt lat="32.75086448527872562408447265625" lon="-16.79247387684881687164306640625">
        <ele>644.5999755859375</ele>
        <time>2018-06-23T10:06:45.000Z</time>
      </trkpt>
      <trkpt lat="32.75089130736887454986572265625" lon="-16.792444288730621337890625">
        <ele>645.4000244140625</ele>
        <time>2018-06-23T10:06:48.000Z</time>
      </trkpt>
      <trkpt lat="32.75089449249207973480224609375" lon="-16.792432554066181182861328125">
        <ele>645.79998779296875</ele>
        <time>2018-06-23T10:06:49.000Z</time>
      </trkpt>
      <trkpt lat="32.75093506090342998504638671875" lon="-16.7923874594271183013916015625">
        <ele>646.5999755859375</ele>
        <time>2018-06-23T10:06:52.000Z</time>
      </trkpt>
      <trkpt lat="32.750941850244998931884765625" lon="-16.79237949661910533905029296875">
        <ele>646.79998779296875</ele>
        <time>2018-06-23T10:06:53.000Z</time>
      </trkpt>
      <trkpt lat="32.75096305646002292633056640625" lon="-16.79236239753663539886474609375">
        <ele>647.4000244140625</ele>
        <time>2018-06-23T10:06:56.000Z</time>
      </trkpt>
      <trkpt lat="32.750971354544162750244140625" lon="-16.79235384799540042877197265625">
        <ele>647.79998779296875</ele>
        <time>2018-06-23T10:06:57.000Z</time>
      </trkpt>
      <trkpt lat="32.7509768866002559661865234375" lon="-16.792345382273197174072265625">
        <ele>647.79998779296875</ele>
        <time>2018-06-23T10:06:58.000Z</time>
      </trkpt>
      <trkpt lat="32.75099021382629871368408203125" lon="-16.79232333786785602569580078125">
        <ele>648.5999755859375</ele>
        <time>2018-06-23T10:07:01.000Z</time>
      </trkpt>
      <trkpt lat="32.750995159149169921875" lon="-16.792315542697906494140625">
        <ele>649</ele>
        <time>2018-06-23T10:07:02.000Z</time>
      </trkpt>
      <trkpt lat="32.7510072290897369384765625" lon="-16.79230338893830776214599609375">
        <ele>649.20001220703125</ele>
        <time>2018-06-23T10:07:04.000Z</time>
      </trkpt>
      <trkpt lat="32.75102709420025348663330078125" lon="-16.7922805063426494598388671875">
        <ele>649.5999755859375</ele>
        <time>2018-06-23T10:07:06.000Z</time>
      </trkpt>
      <trkpt lat="32.75103882886469364166259765625" lon="-16.79226952604949474334716796875">
        <ele>650</ele>
        <time>2018-06-23T10:07:07.000Z</time>
      </trkpt>
      <trkpt lat="32.751067914068698883056640625" lon="-16.79221956990659236907958984375">
        <ele>651</ele>
        <time>2018-06-23T10:07:11.000Z</time>
      </trkpt>
      <trkpt lat="32.75107227265834808349609375" lon="-16.79220984689891338348388671875">
        <ele>651.20001220703125</ele>
        <time>2018-06-23T10:07:12.000Z</time>
      </trkpt>
      <trkpt lat="32.75109775364398956298828125" lon="-16.7921856231987476348876953125">
        <ele>652.20001220703125</ele>
        <time>2018-06-23T10:07:16.000Z</time>
      </trkpt>
      <trkpt lat="32.75110370479524135589599609375" lon="-16.7921762354671955108642578125">
        <ele>652.5999755859375</ele>
        <time>2018-06-23T10:07:17.000Z</time>
      </trkpt>
      <trkpt lat="32.75112725794315338134765625" lon="-16.7921366728842258453369140625">
        <ele>653.4000244140625</ele>
        <time>2018-06-23T10:07:20.000Z</time>
      </trkpt>
      <trkpt lat="32.75118718855082988739013671875" lon="-16.7920776642858982086181640625">
        <ele>654.5999755859375</ele>
        <time>2018-06-23T10:07:25.000Z</time>
      </trkpt>
      <trkpt lat="32.75121367536485195159912109375" lon="-16.7920414544641971588134765625">
        <ele>655.5999755859375</ele>
        <time>2018-06-23T10:07:29.000Z</time>
      </trkpt>
      <trkpt lat="32.75122071616351604461669921875" lon="-16.792022846639156341552734375">
        <ele>656.20001220703125</ele>
        <time>2018-06-23T10:07:31.000Z</time>
      </trkpt>
      <trkpt lat="32.75122725404798984527587890625" lon="-16.791996695101261138916015625">
        <ele>656.5999755859375</ele>
        <time>2018-06-23T10:07:33.000Z</time>
      </trkpt>
      <trkpt lat="32.75124787352979183197021484375" lon="-16.79195813834667205810546875">
        <ele>657.79998779296875</ele>
        <time>2018-06-23T10:07:37.000Z</time>
      </trkpt>
      <trkpt lat="32.75126497261226177215576171875" lon="-16.7919153906404972076416015625">
        <ele>659</ele>
        <time>2018-06-23T10:07:41.000Z</time>
      </trkpt>
      <trkpt lat="32.751276791095733642578125" lon="-16.7918899096548557281494140625">
        <ele>660</ele>
        <time>2018-06-23T10:07:44.000Z</time>
      </trkpt>
      <trkpt lat="32.75128575973212718963623046875" lon="-16.7918490059673786163330078125">
        <ele>661.20001220703125</ele>
        <time>2018-06-23T10:07:48.000Z</time>
      </trkpt>
      <trkpt lat="32.75128944776952266693115234375" lon="-16.791829727590084075927734375">
        <ele>662.4000244140625</ele>
        <time>2018-06-23T10:07:51.000Z</time>
      </trkpt>
      <trkpt lat="32.7513027749955654144287109375" lon="-16.7918164841830730438232421875">
        <ele>663.5999755859375</ele>
        <time>2018-06-23T10:07:55.000Z</time>
      </trkpt>
      <trkpt lat="32.75133253075182437896728515625" lon="-16.79179318249225616455078125">
        <ele>664.79998779296875</ele>
        <time>2018-06-23T10:07:59.000Z</time>
      </trkpt>
      <trkpt lat="32.75134040974080562591552734375" lon="-16.791786141693592071533203125">
        <ele>665.20001220703125</ele>
        <time>2018-06-23T10:08:00.000Z</time>
      </trkpt>
      <trkpt lat="32.75136337615549564361572265625" lon="-16.7917563021183013916015625">
        <ele>666</ele>
        <time>2018-06-23T10:08:03.000Z</time>
      </trkpt>
      <trkpt lat="32.751403190195560455322265625" lon="-16.79169938899576663970947265625">
        <ele>666.79998779296875</ele>
        <time>2018-06-23T10:08:08.000Z</time>
      </trkpt>
      <trkpt lat="32.7514114044606685638427734375" lon="-16.791692934930324554443359375">
        <ele>667</ele>
        <time>2018-06-23T10:08:09.000Z</time>
      </trkpt>
      <trkpt lat="32.75142188183963298797607421875" lon="-16.79168463684618473052978515625">
        <ele>667.20001220703125</ele>
        <time>2018-06-23T10:08:10.000Z</time>
      </trkpt>
      <trkpt lat="32.7514435909688472747802734375" lon="-16.79167625494301319122314453125">
        <ele>667.5999755859375</ele>
        <time>2018-06-23T10:08:12.000Z</time>
      </trkpt>
      <trkpt lat="32.7514717541635036468505859375" lon="-16.7916704714298248291015625">
        <ele>668</ele>
        <time>2018-06-23T10:08:15.000Z</time>
      </trkpt>
      <trkpt lat="32.75151693262159824371337890625" lon="-16.79166200570762157440185546875">
        <ele>669.20001220703125</ele>
        <time>2018-06-23T10:08:19.000Z</time>
      </trkpt>
      <trkpt lat="32.751540653407573699951171875" lon="-16.791663430631160736083984375">
        <ele>670</ele>
        <time>2018-06-23T10:08:22.000Z</time>
      </trkpt>
      <trkpt lat="32.751556746661663055419921875" lon="-16.79165882058441638946533203125">
        <ele>670.20001220703125</ele>
        <time>2018-06-23T10:08:24.000Z</time>
      </trkpt>
      <trkpt lat="32.7515696547925472259521484375" lon="-16.7916548810899257659912109375">
        <ele>670.4000244140625</ele>
        <time>2018-06-23T10:08:25.000Z</time>
      </trkpt>
      <trkpt lat="32.75159798562526702880859375" lon="-16.79162713699042797088623046875">
        <ele>671.4000244140625</ele>
        <time>2018-06-23T10:08:29.000Z</time>
      </trkpt>
      <trkpt lat="32.75160745717585086822509765625" lon="-16.791613809764385223388671875">
        <ele>671.79998779296875</ele>
        <time>2018-06-23T10:08:31.000Z</time>
      </trkpt>
      <trkpt lat="32.75162287987768650054931640625" lon="-16.79160383529961109161376953125">
        <ele>672.4000244140625</ele>
        <time>2018-06-23T10:08:33.000Z</time>
      </trkpt>
      <trkpt lat="32.751640565693378448486328125" lon="-16.791588999330997467041015625">
        <ele>673.5999755859375</ele>
        <time>2018-06-23T10:08:37.000Z</time>
      </trkpt>
      <trkpt lat="32.75165054015815258026123046875" lon="-16.79157190024852752685546875">
        <ele>675</ele>
        <time>2018-06-23T10:08:41.000Z</time>
      </trkpt>
      <trkpt lat="32.751669399440288543701171875" lon="-16.79155086167156696319580078125">
        <ele>676.20001220703125</ele>
        <time>2018-06-23T10:08:45.000Z</time>
      </trkpt>
      <trkpt lat="32.75168742053210735321044921875" lon="-16.79154130630195140838623046875">
        <ele>677.4000244140625</ele>
        <time>2018-06-23T10:08:48.000Z</time>
      </trkpt>
      <trkpt lat="32.75169546715915203094482421875" lon="-16.7915271408855915069580078125">
        <ele>678.4000244140625</ele>
        <time>2018-06-23T10:08:51.000Z</time>
      </trkpt>
      <trkpt lat="32.75170938111841678619384765625" lon="-16.791515238583087921142578125">
        <ele>679.5999755859375</ele>
        <time>2018-06-23T10:08:54.000Z</time>
      </trkpt>
      <trkpt lat="32.75176738388836383819580078125" lon="-16.791532672941684722900390625">
        <ele>680.79998779296875</ele>
        <time>2018-06-23T10:08:58.000Z</time>
      </trkpt>
      <trkpt lat="32.75180577300488948822021484375" lon="-16.791538037359714508056640625">
        <ele>681.79998779296875</ele>
        <time>2018-06-23T10:09:01.000Z</time>
      </trkpt>
      <trkpt lat="32.75182052515447139739990234375" lon="-16.79154239594936370849609375">
        <ele>682</ele>
        <time>2018-06-23T10:09:02.000Z</time>
      </trkpt>
      <trkpt lat="32.75183267891407012939453125" lon="-16.79154449142515659332275390625">
        <ele>682.4000244140625</ele>
        <time>2018-06-23T10:09:03.000Z</time>
      </trkpt>
      <trkpt lat="32.7518620155751705169677734375" lon="-16.7915559746325016021728515625">
        <ele>683.20001220703125</ele>
        <time>2018-06-23T10:09:05.000Z</time>
      </trkpt>
      <trkpt lat="32.75188707746565341949462890625" lon="-16.7915677092969417572021484375">
        <ele>683.79998779296875</ele>
        <time>2018-06-23T10:09:07.000Z</time>
      </trkpt>
      <trkpt lat="32.7518955431878566741943359375" lon="-16.7915707267820835113525390625">
        <ele>684.20001220703125</ele>
        <time>2018-06-23T10:09:08.000Z</time>
      </trkpt>
      <trkpt lat="32.75193653069436550140380859375" lon="-16.7915693856775760650634765625">
        <ele>685.4000244140625</ele>
        <time>2018-06-23T10:09:12.000Z</time>
      </trkpt>
      <trkpt lat="32.75196947157382965087890625" lon="-16.7915616743266582489013671875">
        <ele>686.4000244140625</ele>
        <time>2018-06-23T10:09:15.000Z</time>
      </trkpt>
      <trkpt lat="32.75197458453476428985595703125" lon="-16.7915583215653896331787109375">
        <ele>686.79998779296875</ele>
        <time>2018-06-23T10:09:16.000Z</time>
      </trkpt>
      <trkpt lat="32.75199067778885364532470703125" lon="-16.79154097102582454681396484375">
        <ele>687.5999755859375</ele>
        <time>2018-06-23T10:09:19.000Z</time>
      </trkpt>
      <trkpt lat="32.75200542993843555450439453125" lon="-16.79151632823050022125244140625">
        <ele>688.5999755859375</ele>
        <time>2018-06-23T10:09:23.000Z</time>
      </trkpt>
      <trkpt lat="32.75204096920788288116455078125" lon="-16.79148967377841472625732421875">
        <ele>689.79998779296875</ele>
        <time>2018-06-23T10:09:27.000Z</time>
      </trkpt>
      <trkpt lat="32.7520802803337574005126953125" lon="-16.79148950614035129547119140625">
        <ele>691</ele>
        <time>2018-06-23T10:09:31.000Z</time>
      </trkpt>
      <trkpt lat="32.75212562642991542816162109375" lon="-16.7914867401123046875">
        <ele>692</ele>
        <time>2018-06-23T10:09:37.000Z</time>
      </trkpt>
      <trkpt lat="32.752198465168476104736328125" lon="-16.7914869077503681182861328125">
        <ele>693</ele>
        <time>2018-06-23T10:09:42.000Z</time>
      </trkpt>
      <trkpt lat="32.75220776908099651336669921875" lon="-16.79148313589394092559814453125">
        <ele>693.20001220703125</ele>
        <time>2018-06-23T10:09:43.000Z</time>
      </trkpt>
      <trkpt lat="32.752220593392848968505859375" lon="-16.79145497269928455352783203125">
        <ele>694.20001220703125</ele>
        <time>2018-06-23T10:09:47.000Z</time>
      </trkpt>
      <trkpt lat="32.75223358534276485443115234375" lon="-16.79144055582582950592041015625">
        <ele>694.79998779296875</ele>
        <time>2018-06-23T10:09:49.000Z</time>
      </trkpt>
      <trkpt lat="32.75223861448466777801513671875" lon="-16.7914366163313388824462890625">
        <ele>695.20001220703125</ele>
        <time>2018-06-23T10:09:50.000Z</time>
      </trkpt>
      <trkpt lat="32.75225378572940826416015625" lon="-16.791424714028835296630859375">
        <ele>695.79998779296875</ele>
        <time>2018-06-23T10:09:52.000Z</time>
      </trkpt>
      <trkpt lat="32.7522683702409267425537109375" lon="-16.79140870459377765655517578125">
        <ele>696.20001220703125</ele>
        <time>2018-06-23T10:09:54.000Z</time>
      </trkpt>
      <trkpt lat="32.752291671931743621826171875" lon="-16.7913668788969516754150390625">
        <ele>697.4000244140625</ele>
        <time>2018-06-23T10:09:58.000Z</time>
      </trkpt>
      <trkpt lat="32.75230818428099155426025390625" lon="-16.79134525358676910400390625">
        <ele>698</ele>
        <time>2018-06-23T10:10:00.000Z</time>
      </trkpt>
      <trkpt lat="32.7523226849734783172607421875" lon="-16.79132672958076000213623046875">
        <ele>698.5999755859375</ele>
        <time>2018-06-23T10:10:02.000Z</time>
      </trkpt>
      <trkpt lat="32.75233768858015537261962890625" lon="-16.7913172580301761627197265625">
        <ele>699.20001220703125</ele>
        <time>2018-06-23T10:10:04.000Z</time>
      </trkpt>
      <trkpt lat="32.75235042907297611236572265625" lon="-16.79130560718476772308349609375">
        <ele>699.79998779296875</ele>
        <time>2018-06-23T10:10:06.000Z</time>
      </trkpt>
      <trkpt lat="32.752356715500354766845703125" lon="-16.79129990749061107635498046875">
        <ele>700</ele>
        <time>2018-06-23T10:10:07.000Z</time>
      </trkpt>
      <trkpt lat="32.75236601941287517547607421875" lon="-16.7912880890071392059326171875">
        <ele>700.79998779296875</ele>
        <time>2018-06-23T10:10:09.000Z</time>
      </trkpt>
      <trkpt lat="32.7523867227137088775634765625" lon="-16.79127559997141361236572265625">
        <ele>701.4000244140625</ele>
        <time>2018-06-23T10:10:11.000Z</time>
      </trkpt>
      <trkpt lat="32.7523939311504364013671875" lon="-16.7912622727453708648681640625">
        <ele>702</ele>
        <time>2018-06-23T10:10:13.000Z</time>
      </trkpt>
      <trkpt lat="32.75241748429834842681884765625" lon="-16.7912398092448711395263671875">
        <ele>703.20001220703125</ele>
        <time>2018-06-23T10:10:17.000Z</time>
      </trkpt>
      <trkpt lat="32.75243173353374004364013671875" lon="-16.79121675901114940643310546875">
        <ele>704.20001220703125</ele>
        <time>2018-06-23T10:10:21.000Z</time>
      </trkpt>
      <trkpt lat="32.75244782678782939910888671875" lon="-16.7911925353109836578369140625">
        <ele>705.5999755859375</ele>
        <time>2018-06-23T10:10:25.000Z</time>
      </trkpt>
      <trkpt lat="32.75246475823223590850830078125" lon="-16.79117870517075061798095703125">
        <ele>706.5999755859375</ele>
        <time>2018-06-23T10:10:28.000Z</time>
      </trkpt>
      <trkpt lat="32.75248445570468902587890625" lon="-16.79116529412567615509033203125">
        <ele>707.5999755859375</ele>
        <time>2018-06-23T10:10:31.000Z</time>
      </trkpt>
      <trkpt lat="32.75252024643123149871826171875" lon="-16.79113914258778095245361328125">
        <ele>708.79998779296875</ele>
        <time>2018-06-23T10:10:35.000Z</time>
      </trkpt>
      <trkpt lat="32.7525285445153713226318359375" lon="-16.79113159887492656707763671875">
        <ele>709.20001220703125</ele>
        <time>2018-06-23T10:10:36.000Z</time>
      </trkpt>
      <trkpt lat="32.7525508403778076171875" lon="-16.7911194451153278350830078125">
        <ele>709.79998779296875</ele>
        <time>2018-06-23T10:10:38.000Z</time>
      </trkpt>
      <trkpt lat="32.7525654248893260955810546875" lon="-16.79111030884087085723876953125">
        <ele>710</ele>
        <time>2018-06-23T10:10:39.000Z</time>
      </trkpt>
      <trkpt lat="32.75265838019549846649169921875" lon="-16.79107644595205783843994140625">
        <ele>708.79998779296875</ele>
        <time>2018-06-23T10:10:47.000Z</time>
      </trkpt>
      <trkpt lat="32.75270246900618076324462890625" lon="-16.7910684831440448760986328125">
        <ele>707.5999755859375</ele>
        <time>2018-06-23T10:10:50.000Z</time>
      </trkpt>
      <trkpt lat="32.75277270935475826263427734375" lon="-16.79111265577375888824462890625">
        <ele>706.5999755859375</ele>
        <time>2018-06-23T10:10:58.000Z</time>
      </trkpt>
      <trkpt lat="32.75293347425758838653564453125" lon="-16.7912180162966251373291015625">
        <ele>705.79998779296875</ele>
        <time>2018-06-23T10:11:10.000Z</time>
      </trkpt>
      <trkpt lat="32.75310614146292209625244140625" lon="-16.7912250570952892303466796875">
        <ele>707.5999755859375</ele>
        <time>2018-06-23T10:11:21.000Z</time>
      </trkpt>
      <trkpt lat="32.75315693579614162445068359375" lon="-16.7912240512669086456298828125">
        <ele>708.5999755859375</ele>
        <time>2018-06-23T10:11:24.000Z</time>
      </trkpt>
      <trkpt lat="32.75318124331533908843994140625" lon="-16.7912324331700801849365234375">
        <ele>708.79998779296875</ele>
        <time>2018-06-23T10:11:25.000Z</time>
      </trkpt>
      <trkpt lat="32.75330328382551670074462890625" lon="-16.79126604460179805755615234375">
        <ele>710</ele>
        <time>2018-06-23T10:11:30.000Z</time>
      </trkpt>
      <trkpt lat="32.753428928554058074951171875" lon="-16.79131197743117809295654296875">
        <ele>708.79998779296875</ele>
        <time>2018-06-23T10:11:37.000Z</time>
      </trkpt>
      <trkpt lat="32.7535142563283443450927734375" lon="-16.7913320101797580718994140625">
        <ele>707.5999755859375</ele>
        <time>2018-06-23T10:11:40.000Z</time>
      </trkpt>
      <trkpt lat="32.75366387329995632171630859375" lon="-16.7913628555834293365478515625">
        <ele>706.5999755859375</ele>
        <time>2018-06-23T10:11:46.000Z</time>
      </trkpt>
      <trkpt lat="32.75380871258676052093505859375" lon="-16.791382133960723876953125">
        <ele>705.4000244140625</ele>
        <time>2018-06-23T10:11:54.000Z</time>
      </trkpt>
      <trkpt lat="32.75397517718374729156494140625" lon="-16.7914175055921077728271484375">
        <ele>704.4000244140625</ele>
        <time>2018-06-23T10:12:02.000Z</time>
      </trkpt>
      <trkpt lat="32.754019685089588165283203125" lon="-16.79142194800078868865966796875">
        <ele>703.20001220703125</ele>
        <time>2018-06-23T10:12:05.000Z</time>
      </trkpt>
      <trkpt lat="32.75411515496671199798583984375" lon="-16.79138238541781902313232421875">
        <ele>702</ele>
        <time>2018-06-23T10:12:11.000Z</time>
      </trkpt>
      <trkpt lat="32.7543209306895732879638671875" lon="-16.791339553892612457275390625">
        <ele>701.20001220703125</ele>
        <time>2018-06-23T10:12:18.000Z</time>
      </trkpt>
      <trkpt lat="32.75446786545217037200927734375" lon="-16.791330836713314056396484375">
        <ele>703.4000244140625</ele>
        <time>2018-06-23T10:12:24.000Z</time>
      </trkpt>
      <trkpt lat="32.75452352128922939300537109375" lon="-16.7913367040455341339111328125">
        <ele>704.5999755859375</ele>
        <time>2018-06-23T10:12:27.000Z</time>
      </trkpt>
      <trkpt lat="32.75456023402512073516845703125" lon="-16.7913390509784221649169921875">
        <ele>705.5999755859375</ele>
        <time>2018-06-23T10:12:30.000Z</time>
      </trkpt>
      <trkpt lat="32.75463667698204517364501953125" lon="-16.7913444153964519500732421875">
        <ele>706.79998779296875</ele>
        <time>2018-06-23T10:12:34.000Z</time>
      </trkpt>
      <trkpt lat="32.754828371107578277587890625" lon="-16.7913276515901088714599609375">
        <ele>707</ele>
        <time>2018-06-23T10:12:45.000Z</time>
      </trkpt>
      <trkpt lat="32.7549876272678375244140625" lon="-16.7913137376308441162109375">
        <ele>708</ele>
        <time>2018-06-23T10:12:52.000Z</time>
      </trkpt>
      <trkpt lat="32.755131460726261138916015625" lon="-16.79135506041347980499267578125">
        <ele>706.5999755859375</ele>
        <time>2018-06-23T10:13:00.000Z</time>
      </trkpt>
      <trkpt lat="32.75520731694996356964111328125" lon="-16.79137400351464748382568359375">
        <ele>705.4000244140625</ele>
        <time>2018-06-23T10:13:04.000Z</time>
      </trkpt>
      <trkpt lat="32.75524176657199859619140625" lon="-16.791387833654880523681640625">
        <ele>704.4000244140625</ele>
        <time>2018-06-23T10:13:07.000Z</time>
      </trkpt>
      <trkpt lat="32.755259536206722259521484375" lon="-16.7914074473083019256591796875">
        <ele>703.79998779296875</ele>
        <time>2018-06-23T10:13:09.000Z</time>
      </trkpt>
      <trkpt lat="32.75530069135129451751708984375" lon="-16.7914275638759136199951171875">
        <ele>703</ele>
        <time>2018-06-23T10:13:12.000Z</time>
      </trkpt>
      <trkpt lat="32.75536917150020599365234375" lon="-16.79146754555404186248779296875">
        <ele>702</ele>
        <time>2018-06-23T10:13:17.000Z</time>
      </trkpt>
      <trkpt lat="32.75547268800437450408935546875" lon="-16.79148514755070209503173828125">
        <ele>700.79998779296875</ele>
        <time>2018-06-23T10:13:23.000Z</time>
      </trkpt>
      <trkpt lat="32.755521722137928009033203125" lon="-16.791501827538013458251953125">
        <ele>700.5999755859375</ele>
        <time>2018-06-23T10:13:26.000Z</time>
      </trkpt>
      <trkpt lat="32.7555296011269092559814453125" lon="-16.79151549004018306732177734375">
        <ele>701</ele>
        <time>2018-06-23T10:13:28.000Z</time>
      </trkpt>
      <trkpt lat="32.7555919624865055084228515625" lon="-16.7915687151253223419189453125">
        <ele>701.20001220703125</ele>
        <time>2018-06-23T10:13:36.000Z</time>
      </trkpt>
      <trkpt lat="32.75564434938132762908935546875" lon="-16.7915792763233184814453125">
        <ele>702</ele>
        <time>2018-06-23T10:13:40.000Z</time>
      </trkpt>
      <trkpt lat="32.7556516416370868682861328125" lon="-16.79158891551196575164794921875">
        <ele>702.20001220703125</ele>
        <time>2018-06-23T10:13:41.000Z</time>
      </trkpt>
      <trkpt lat="32.75566312484443187713623046875" lon="-16.791643984615802764892578125">
        <ele>703</ele>
        <time>2018-06-23T10:13:46.000Z</time>
      </trkpt>
      <trkpt lat="32.75568927638232707977294921875" lon="-16.791680864989757537841796875">
        <ele>704.20001220703125</ele>
        <time>2018-06-23T10:13:52.000Z</time>
      </trkpt>
      <trkpt lat="32.75573185645043849945068359375" lon="-16.79172151722013950347900390625">
        <ele>705.20001220703125</ele>
        <time>2018-06-23T10:13:56.000Z</time>
      </trkpt>
      <trkpt lat="32.755756080150604248046875" lon="-16.79182159714400768280029296875">
        <ele>705.4000244140625</ele>
        <time>2018-06-23T10:14:02.000Z</time>
      </trkpt>
      <trkpt lat="32.755720205605030059814453125" lon="-16.79202360101044178009033203125">
        <ele>706.20001220703125</ele>
        <time>2018-06-23T10:14:14.000Z</time>
      </trkpt>
      <trkpt lat="32.75573219172656536102294921875" lon="-16.79209618829190731048583984375">
        <ele>707.4000244140625</ele>
        <time>2018-06-23T10:14:18.000Z</time>
      </trkpt>
      <trkpt lat="32.7556804753839969635009765625" lon="-16.79229953326284885406494140625">
        <ele>707.20001220703125</ele>
        <time>2018-06-23T10:14:27.000Z</time>
      </trkpt>
      <trkpt lat="32.7556147612631320953369140625" lon="-16.79235317744314670562744140625">
        <ele>706</ele>
        <time>2018-06-23T10:14:32.000Z</time>
      </trkpt>
      <trkpt lat="32.755563296377658843994140625" lon="-16.79256834089756011962890625">
        <ele>706.79998779296875</ele>
        <time>2018-06-23T10:14:46.000Z</time>
      </trkpt>
      <trkpt lat="32.75555600412189960479736328125" lon="-16.79259256459772586822509765625">
        <ele>707.20001220703125</ele>
        <time>2018-06-23T10:14:47.000Z</time>
      </trkpt>
      <trkpt lat="32.75551895610988140106201171875" lon="-16.7926878668367862701416015625">
        <ele>708.20001220703125</ele>
        <time>2018-06-23T10:14:51.000Z</time>
      </trkpt>
      <trkpt lat="32.75550621561706066131591796875" lon="-16.79276254959404468536376953125">
        <ele>709.4000244140625</ele>
        <time>2018-06-23T10:14:54.000Z</time>
      </trkpt>
      <trkpt lat="32.75549883954226970672607421875" lon="-16.7928345501422882080078125">
        <ele>710.4000244140625</ele>
        <time>2018-06-23T10:14:57.000Z</time>
      </trkpt>
      <trkpt lat="32.7555815689265727996826171875" lon="-16.79302993230521678924560546875">
        <ele>710.79998779296875</ele>
        <time>2018-06-23T10:15:06.000Z</time>
      </trkpt>
      <trkpt lat="32.7556570060551166534423828125" lon="-16.7931103147566318511962890625">
        <ele>709.20001220703125</ele>
        <time>2018-06-23T10:15:21.000Z</time>
      </trkpt>
      <trkpt lat="32.7556620351970195770263671875" lon="-16.79310721345245838165283203125">
        <ele>708.20001220703125</ele>
        <time>2018-06-23T10:15:25.000Z</time>
      </trkpt>
      <trkpt lat="32.75569614954292774200439453125" lon="-16.7931294254958629608154296875">
        <ele>707.20001220703125</ele>
        <time>2018-06-23T10:15:29.000Z</time>
      </trkpt>
      <trkpt lat="32.75572590529918670654296875" lon="-16.793159432709217071533203125">
        <ele>706</ele>
        <time>2018-06-23T10:15:33.000Z</time>
      </trkpt>
      <trkpt lat="32.755750380456447601318359375" lon="-16.793185584247112274169921875">
        <ele>704.4000244140625</ele>
        <time>2018-06-23T10:15:36.000Z</time>
      </trkpt>
      <trkpt lat="32.75575683452188968658447265625" lon="-16.79319798946380615234375">
        <ele>703.79998779296875</ele>
        <time>2018-06-23T10:15:37.000Z</time>
      </trkpt>
      <trkpt lat="32.75578902103006839752197265625" lon="-16.79322573356330394744873046875">
        <ele>703.20001220703125</ele>
        <time>2018-06-23T10:15:39.000Z</time>
      </trkpt>
      <trkpt lat="32.75582573376595973968505859375" lon="-16.79326378740370273590087890625">
        <ele>703</ele>
        <time>2018-06-23T10:15:43.000Z</time>
      </trkpt>
      <trkpt lat="32.75583864189684391021728515625" lon="-16.7932851612567901611328125">
        <ele>702.79998779296875</ele>
        <time>2018-06-23T10:15:45.000Z</time>
      </trkpt>
      <trkpt lat="32.7558531425893306732177734375" lon="-16.79334291256964206695556640625">
        <ele>702.5999755859375</ele>
        <time>2018-06-23T10:15:49.000Z</time>
      </trkpt>
      <trkpt lat="32.7558581717312335968017578125" lon="-16.793370656669139862060546875">
        <ele>702.20001220703125</ele>
        <time>2018-06-23T10:15:52.000Z</time>
      </trkpt>
      <trkpt lat="32.75588708929717540740966796875" lon="-16.7933889292180538177490234375">
        <ele>702</ele>
        <time>2018-06-23T10:15:56.000Z</time>
      </trkpt>
      <trkpt lat="32.75594718754291534423828125" lon="-16.7934231273829936981201171875">
        <ele>701.20001220703125</ele>
        <time>2018-06-23T10:16:01.000Z</time>
      </trkpt>
      <trkpt lat="32.75595682673156261444091796875" lon="-16.79342639632523059844970703125">
        <ele>701</ele>
        <time>2018-06-23T10:16:02.000Z</time>
      </trkpt>
      <trkpt lat="32.7559745125472545623779296875" lon="-16.79341533221304416656494140625">
        <ele>700.4000244140625</ele>
        <time>2018-06-23T10:16:04.000Z</time>
      </trkpt>
      <trkpt lat="32.75598918087780475616455078125" lon="-16.79343192838132381439208984375">
        <ele>699.5999755859375</ele>
        <time>2018-06-23T10:16:06.000Z</time>
      </trkpt>
      <trkpt lat="32.75599622167646884918212890625" lon="-16.79343729279935359954833984375">
        <ele>698.79998779296875</ele>
        <time>2018-06-23T10:16:07.000Z</time>
      </trkpt>
      <trkpt lat="32.7560137398540973663330078125" lon="-16.79345103912055492401123046875">
        <ele>698.5999755859375</ele>
        <time>2018-06-23T10:16:09.000Z</time>
      </trkpt>
      <trkpt lat="32.75603578425943851470947265625" lon="-16.79350568912923336029052734375">
        <ele>698.20001220703125</ele>
        <time>2018-06-23T10:16:13.000Z</time>
      </trkpt>
      <trkpt lat="32.7560476027429103851318359375" lon="-16.79352010600268840789794921875">
        <ele>697.79998779296875</ele>
        <time>2018-06-23T10:16:15.000Z</time>
      </trkpt>
      <trkpt lat="32.7560566551983356475830078125" lon="-16.79352999664843082427978515625">
        <ele>697.20001220703125</ele>
        <time>2018-06-23T10:16:18.000Z</time>
      </trkpt>
      <trkpt lat="32.7560539729893207550048828125" lon="-16.79353469051420688629150390625">
        <ele>695.5999755859375</ele>
        <time>2018-06-23T10:16:21.000Z</time>
      </trkpt>
      <trkpt lat="32.75608138181269168853759765625" lon="-16.7935505323112010955810546875">
        <ele>694.4000244140625</ele>
        <time>2018-06-23T10:16:24.000Z</time>
      </trkpt>
      <trkpt lat="32.75610267184674739837646484375" lon="-16.793557070195674896240234375">
        <ele>693.4000244140625</ele>
        <time>2018-06-23T10:16:27.000Z</time>
      </trkpt>
      <trkpt lat="32.756110467016696929931640625" lon="-16.7935605905950069427490234375">
        <ele>692.79998779296875</ele>
        <time>2018-06-23T10:16:28.000Z</time>
      </trkpt>
      <trkpt lat="32.7561213634908199310302734375" lon="-16.7935817129909992218017578125">
        <ele>692.20001220703125</ele>
        <time>2018-06-23T10:16:30.000Z</time>
      </trkpt>
      <trkpt lat="32.75612915866076946258544921875" lon="-16.79361348040401935577392578125">
        <ele>691.5999755859375</ele>
        <time>2018-06-23T10:16:32.000Z</time>
      </trkpt>
      <trkpt lat="32.756139300763607025146484375" lon="-16.7936454154551029205322265625">
        <ele>690.4000244140625</ele>
        <time>2018-06-23T10:16:35.000Z</time>
      </trkpt>
      <trkpt lat="32.75614525191485881805419921875" lon="-16.79365119896829128265380859375">
        <ele>689.79998779296875</ele>
        <time>2018-06-23T10:16:36.000Z</time>
      </trkpt>
      <trkpt lat="32.7561706490814685821533203125" lon="-16.79367651231586933135986328125">
        <ele>688.79998779296875</ele>
        <time>2018-06-23T10:16:38.000Z</time>
      </trkpt>
      <trkpt lat="32.7561776898801326751708984375" lon="-16.7937107942998409271240234375">
        <ele>687.79998779296875</ele>
        <time>2018-06-23T10:16:40.000Z</time>
      </trkpt>
      <trkpt lat="32.75618615560233592987060546875" lon="-16.79372529499232769012451171875">
        <ele>687.20001220703125</ele>
        <time>2018-06-23T10:16:41.000Z</time>
      </trkpt>
      <trkpt lat="32.75619269348680973052978515625" lon="-16.7937357723712921142578125">
        <ele>686.79998779296875</ele>
        <time>2018-06-23T10:16:42.000Z</time>
      </trkpt>
      <trkpt lat="32.756217084825038909912109375" lon="-16.79377558641135692596435546875">
        <ele>685.4000244140625</ele>
        <time>2018-06-23T10:16:45.000Z</time>
      </trkpt>
      <trkpt lat="32.75622404180467128753662109375" lon="-16.79378069937229156494140625">
        <ele>685</ele>
        <time>2018-06-23T10:16:46.000Z</time>
      </trkpt>
      <trkpt lat="32.756230495870113372802734375" lon="-16.7938108742237091064453125">
        <ele>684.4000244140625</ele>
        <time>2018-06-23T10:16:48.000Z</time>
      </trkpt>
      <trkpt lat="32.756245248019695281982421875" lon="-16.793848760426044464111328125">
        <ele>683.4000244140625</ele>
        <time>2018-06-23T10:16:52.000Z</time>
      </trkpt>
      <trkpt lat="32.75625438429415225982666015625" lon="-16.79386242292821407318115234375">
        <ele>683.20001220703125</ele>
        <time>2018-06-23T10:16:53.000Z</time>
      </trkpt>
      <trkpt lat="32.756274081766605377197265625" lon="-16.79387650452554225921630859375">
        <ele>682.79998779296875</ele>
        <time>2018-06-23T10:16:56.000Z</time>
      </trkpt>
      <trkpt lat="32.7562858164310455322265625" lon="-16.79388354532420635223388671875">
        <ele>682.20001220703125</ele>
        <time>2018-06-23T10:16:57.000Z</time>
      </trkpt>
      <trkpt lat="32.7563064359128475189208984375" lon="-16.7939045839011669158935546875">
        <ele>681.20001220703125</ele>
        <time>2018-06-23T10:16:59.000Z</time>
      </trkpt>
      <trkpt lat="32.7563198469579219818115234375" lon="-16.79391874931752681732177734375">
        <ele>680.79998779296875</ele>
        <time>2018-06-23T10:17:00.000Z</time>
      </trkpt>
      <trkpt lat="32.756343819200992584228515625" lon="-16.79395638406276702880859375">
        <ele>679.79998779296875</ele>
        <time>2018-06-23T10:17:02.000Z</time>
      </trkpt>
      <trkpt lat="32.7563500218093395233154296875" lon="-16.7939863912761211395263671875">
        <ele>679.4000244140625</ele>
        <time>2018-06-23T10:17:04.000Z</time>
      </trkpt>
      <trkpt lat="32.75635513477027416229248046875" lon="-16.79403592832386493682861328125">
        <ele>680</ele>
        <time>2018-06-23T10:17:07.000Z</time>
      </trkpt>
      <trkpt lat="32.7563453279435634613037109375" lon="-16.794078759849071502685546875">
        <ele>679.20001220703125</ele>
        <time>2018-06-23T10:17:11.000Z</time>
      </trkpt>
      <trkpt lat="32.75634624995291233062744140625" lon="-16.79408957250416278839111328125">
        <ele>679.4000244140625</ele>
        <time>2018-06-23T10:17:12.000Z</time>
      </trkpt>
      <trkpt lat="32.756380029022693634033203125" lon="-16.79418026469647884368896484375">
        <ele>680.79998779296875</ele>
        <time>2018-06-23T10:17:25.000Z</time>
      </trkpt>
      <trkpt lat="32.756384722888469696044921875" lon="-16.79421119391918182373046875">
        <ele>681.5999755859375</ele>
        <time>2018-06-23T10:17:28.000Z</time>
      </trkpt>
      <trkpt lat="32.75638438761234283447265625" lon="-16.79422703571617603302001953125">
        <ele>682</ele>
        <time>2018-06-23T10:17:29.000Z</time>
      </trkpt>
      <trkpt lat="32.75638128630816936492919921875" lon="-16.794279925525188446044921875">
        <ele>683.20001220703125</ele>
        <time>2018-06-23T10:17:33.000Z</time>
      </trkpt>
      <trkpt lat="32.75637558661401271820068359375" lon="-16.79431580007076263427734375">
        <ele>684</ele>
        <time>2018-06-23T10:17:36.000Z</time>
      </trkpt>
      <trkpt lat="32.75637340731918811798095703125" lon="-16.7943290434777736663818359375">
        <ele>684.4000244140625</ele>
        <time>2018-06-23T10:17:37.000Z</time>
      </trkpt>
      <trkpt lat="32.7563590742647647857666015625" lon="-16.7943823523819446563720703125">
        <ele>685.5999755859375</ele>
        <time>2018-06-23T10:17:42.000Z</time>
      </trkpt>
      <trkpt lat="32.75636536069214344024658203125" lon="-16.79441713728010654449462890625">
        <ele>686</ele>
        <time>2018-06-23T10:17:44.000Z</time>
      </trkpt>
      <trkpt lat="32.75638262741267681121826171875" lon="-16.79454135708510875701904296875">
        <ele>684.5999755859375</ele>
        <time>2018-06-23T10:17:51.000Z</time>
      </trkpt>
      <trkpt lat="32.75638463906943798065185546875" lon="-16.7946100048720836639404296875">
        <ele>683.4000244140625</ele>
        <time>2018-06-23T10:17:55.000Z</time>
      </trkpt>
      <trkpt lat="32.75639268569648265838623046875" lon="-16.7947176285088062286376953125">
        <ele>682.4000244140625</ele>
        <time>2018-06-23T10:18:01.000Z</time>
      </trkpt>
      <trkpt lat="32.75639503262937068939208984375" lon="-16.7947330512106418609619140625">
        <ele>682.20001220703125</ele>
        <time>2018-06-23T10:18:02.000Z</time>
      </trkpt>
      <trkpt lat="32.7564033307135105133056640625" lon="-16.79478392936289310455322265625">
        <ele>682</ele>
        <time>2018-06-23T10:18:06.000Z</time>
      </trkpt>
      <trkpt lat="32.7563738264143466949462890625" lon="-16.7948731966316699981689453125">
        <ele>682.20001220703125</ele>
        <time>2018-06-23T10:18:10.000Z</time>
      </trkpt>
      <trkpt lat="32.75633476674556732177734375" lon="-16.795087270438671112060546875">
        <ele>682.20001220703125</ele>
        <time>2018-06-23T10:18:21.000Z</time>
      </trkpt>
      <trkpt lat="32.75631255470216274261474609375" lon="-16.79513848386704921722412109375">
        <ele>683.4000244140625</ele>
        <time>2018-06-23T10:18:25.000Z</time>
      </trkpt>
      <trkpt lat="32.7563000656664371490478515625" lon="-16.79517905227839946746826171875">
        <ele>684.4000244140625</ele>
        <time>2018-06-23T10:18:28.000Z</time>
      </trkpt>
      <trkpt lat="32.75629864074289798736572265625" lon="-16.7951896972954273223876953125">
        <ele>684.5999755859375</ele>
        <time>2018-06-23T10:18:29.000Z</time>
      </trkpt>
      <trkpt lat="32.75629243813455104827880859375" lon="-16.79523252882063388824462890625">
        <ele>686</ele>
        <time>2018-06-23T10:18:33.000Z</time>
      </trkpt>
      <trkpt lat="32.75627634488046169281005859375" lon="-16.79528332315385341644287109375">
        <ele>687.20001220703125</ele>
        <time>2018-06-23T10:18:37.000Z</time>
      </trkpt>
      <trkpt lat="32.75627550669014453887939453125" lon="-16.7953167669475078582763671875">
        <ele>688.20001220703125</ele>
        <time>2018-06-23T10:18:40.000Z</time>
      </trkpt>
      <trkpt lat="32.75626846589148044586181640625" lon="-16.79533931426703929901123046875">
        <ele>689.4000244140625</ele>
        <time>2018-06-23T10:18:43.000Z</time>
      </trkpt>
      <trkpt lat="32.75626368820667266845703125" lon="-16.7953637056052684783935546875">
        <ele>690.4000244140625</ele>
        <time>2018-06-23T10:18:46.000Z</time>
      </trkpt>
      <trkpt lat="32.7562571503221988677978515625" lon="-16.7954012565314769744873046875">
        <ele>691.5999755859375</ele>
        <time>2018-06-23T10:18:51.000Z</time>
      </trkpt>
      <trkpt lat="32.75624759495258331298828125" lon="-16.79544157348573207855224609375">
        <ele>692.5999755859375</ele>
        <time>2018-06-23T10:18:54.000Z</time>
      </trkpt>
      <trkpt lat="32.75624080561101436614990234375" lon="-16.79546512663364410400390625">
        <ele>694.20001220703125</ele>
        <time>2018-06-23T10:18:56.000Z</time>
      </trkpt>
      <trkpt lat="32.75623820722103118896484375" lon="-16.79547627456486225128173828125">
        <ele>694.4000244140625</ele>
        <time>2018-06-23T10:18:58.000Z</time>
      </trkpt>
      <trkpt lat="32.75624482892453670501708984375" lon="-16.79549572058022022247314453125">
        <ele>695.4000244140625</ele>
        <time>2018-06-23T10:19:01.000Z</time>
      </trkpt>
      <trkpt lat="32.75624650530517101287841796875" lon="-16.7955269850790500640869140625">
        <ele>696.20001220703125</ele>
        <time>2018-06-23T10:19:04.000Z</time>
      </trkpt>
      <trkpt lat="32.756245248019695281982421875" lon="-16.79553813301026821136474609375">
        <ele>696.5999755859375</ele>
        <time>2018-06-23T10:19:06.000Z</time>
      </trkpt>
      <trkpt lat="32.75623057968914508819580078125" lon="-16.79561667144298553466796875">
        <ele>697.4000244140625</ele>
        <time>2018-06-23T10:19:15.000Z</time>
      </trkpt>
      <trkpt lat="32.756231166422367095947265625" lon="-16.795626394450664520263671875">
        <ele>697.5999755859375</ele>
        <time>2018-06-23T10:19:16.000Z</time>
      </trkpt>
      <trkpt lat="32.756211720407009124755859375" lon="-16.79570660926401615142822265625">
        <ele>696.4000244140625</ele>
        <time>2018-06-23T10:19:23.000Z</time>
      </trkpt>
      <trkpt lat="32.75618598796427249908447265625" lon="-16.7957311682403087615966796875">
        <ele>695</ele>
        <time>2018-06-23T10:19:26.000Z</time>
      </trkpt>
      <trkpt lat="32.75616100989282131195068359375" lon="-16.79575136862695217132568359375">
        <ele>693.5999755859375</ele>
        <time>2018-06-23T10:19:29.000Z</time>
      </trkpt>
      <trkpt lat="32.75612614117562770843505859375" lon="-16.7957697249948978424072265625">
        <ele>692.4000244140625</ele>
        <time>2018-06-23T10:19:32.000Z</time>
      </trkpt>
      <trkpt lat="32.756105773150920867919921875" lon="-16.795798055827617645263671875">
        <ele>691.20001220703125</ele>
        <time>2018-06-23T10:19:35.000Z</time>
      </trkpt>
      <trkpt lat="32.75609579868614673614501953125" lon="-16.79582596756517887115478515625">
        <ele>690</ele>
        <time>2018-06-23T10:19:38.000Z</time>
      </trkpt>
      <trkpt lat="32.756092362105846405029296875" lon="-16.79584725759923458099365234375">
        <ele>689</ele>
        <time>2018-06-23T10:19:40.000Z</time>
      </trkpt>
      <trkpt lat="32.75608506985008716583251953125" lon="-16.7958756722509860992431640625">
        <ele>687.4000244140625</ele>
        <time>2018-06-23T10:19:43.000Z</time>
      </trkpt>
      <trkpt lat="32.75608398020267486572265625" lon="-16.79591196589171886444091796875">
        <ele>686</ele>
        <time>2018-06-23T10:19:46.000Z</time>
      </trkpt>
      <trkpt lat="32.75608557276427745819091796875" lon="-16.79594113491475582122802734375">
        <ele>685</ele>
        <time>2018-06-23T10:19:48.000Z</time>
      </trkpt>
      <trkpt lat="32.75608557276427745819091796875" lon="-16.7959819547832012176513671875">
        <ele>683.20001220703125</ele>
        <time>2018-06-23T10:19:51.000Z</time>
      </trkpt>
      <trkpt lat="32.75608439929783344268798828125" lon="-16.79601204581558704376220703125">
        <ele>682.20001220703125</ele>
        <time>2018-06-23T10:19:53.000Z</time>
      </trkpt>
      <trkpt lat="32.756082974374294281005859375" lon="-16.79604984819889068603515625">
        <ele>680.79998779296875</ele>
        <time>2018-06-23T10:19:56.000Z</time>
      </trkpt>
      <trkpt lat="32.75610770098865032196044921875" lon="-16.79607558064162731170654296875">
        <ele>679.5999755859375</ele>
        <time>2018-06-23T10:19:59.000Z</time>
      </trkpt>
      <trkpt lat="32.75611960329115390777587890625" lon="-16.79610743187367916107177734375">
        <ele>678.4000244140625</ele>
        <time>2018-06-23T10:20:01.000Z</time>
      </trkpt>
      <trkpt lat="32.7561300806701183319091796875" lon="-16.7961586453020572662353515625">
        <ele>677</ele>
        <time>2018-06-23T10:20:05.000Z</time>
      </trkpt>
      <trkpt lat="32.75613385252654552459716796875" lon="-16.7961925081908702850341796875">
        <ele>676</ele>
        <time>2018-06-23T10:20:10.000Z</time>
      </trkpt>
      <trkpt lat="32.7561434917151927947998046875" lon="-16.7962065897881984710693359375">
        <ele>674.79998779296875</ele>
        <time>2018-06-23T10:20:12.000Z</time>
      </trkpt>
      <trkpt lat="32.75615246035158634185791015625" lon="-16.796253025531768798828125">
        <ele>673.79998779296875</ele>
        <time>2018-06-23T10:20:17.000Z</time>
      </trkpt>
      <trkpt lat="32.7561517059803009033203125" lon="-16.79631530307233333587646484375">
        <ele>672.5999755859375</ele>
        <time>2018-06-23T10:20:28.000Z</time>
      </trkpt>
      <trkpt lat="32.756131924688816070556640625" lon="-16.796349585056304931640625">
        <ele>671.4000244140625</ele>
        <time>2018-06-23T10:20:31.000Z</time>
      </trkpt>
      <trkpt lat="32.756127901375293731689453125" lon="-16.79637665860354900360107421875">
        <ele>669.79998779296875</ele>
        <time>2018-06-23T10:20:34.000Z</time>
      </trkpt>
      <trkpt lat="32.75611742399632930755615234375" lon="-16.79639711044728755950927734375">
        <ele>668.5999755859375</ele>
        <time>2018-06-23T10:20:37.000Z</time>
      </trkpt>
      <trkpt lat="32.75610568933188915252685546875" lon="-16.796418316662311553955078125">
        <ele>667.5999755859375</ele>
        <time>2018-06-23T10:20:40.000Z</time>
      </trkpt>
      <trkpt lat="32.75609026663005352020263671875" lon="-16.79643650539219379425048828125">
        <ele>666.5999755859375</ele>
        <time>2018-06-23T10:20:43.000Z</time>
      </trkpt>
      <trkpt lat="32.7560844831168651580810546875" lon="-16.79645217955112457275390625">
        <ele>665.4000244140625</ele>
        <time>2018-06-23T10:20:46.000Z</time>
      </trkpt>
      <trkpt lat="32.75608020834624767303466796875" lon="-16.7964664287865161895751953125">
        <ele>664.4000244140625</ele>
        <time>2018-06-23T10:20:48.000Z</time>
      </trkpt>
      <trkpt lat="32.756073586642742156982421875" lon="-16.7964966036379337310791015625">
        <ele>663</ele>
        <time>2018-06-23T10:20:52.000Z</time>
      </trkpt>
      <trkpt lat="32.75609076954424381256103515625" lon="-16.79652015678584575653076171875">
        <ele>661.5999755859375</ele>
        <time>2018-06-23T10:20:55.000Z</time>
      </trkpt>
      <trkpt lat="32.756101079285144805908203125" lon="-16.79654278792440891265869140625">
        <ele>660.5999755859375</ele>
        <time>2018-06-23T10:20:59.000Z</time>
      </trkpt>
      <trkpt lat="32.75610099546611309051513671875" lon="-16.79657983593642711639404296875">
        <ele>659.4000244140625</ele>
        <time>2018-06-23T10:21:03.000Z</time>
      </trkpt>
      <trkpt lat="32.75610501877963542938232421875" lon="-16.79661369882524013519287109375">
        <ele>658</ele>
        <time>2018-06-23T10:21:07.000Z</time>
      </trkpt>
      <trkpt lat="32.7561029233038425445556640625" lon="-16.79664337076246738433837890625">
        <ele>656.5999755859375</ele>
        <time>2018-06-23T10:21:10.000Z</time>
      </trkpt>
      <trkpt lat="32.75610409677028656005859375" lon="-16.79667153395712375640869140625">
        <ele>656</ele>
        <time>2018-06-23T10:21:12.000Z</time>
      </trkpt>
      <trkpt lat="32.7561086229979991912841796875" lon="-16.79669047705829143524169921875">
        <ele>655.5999755859375</ele>
        <time>2018-06-23T10:21:13.000Z</time>
      </trkpt>
      <trkpt lat="32.7561126463115215301513671875" lon="-16.7967701889574527740478515625">
        <ele>654.4000244140625</ele>
        <time>2018-06-23T10:21:17.000Z</time>
      </trkpt>
      <trkpt lat="32.7561196871101856231689453125" lon="-16.7968060635030269622802734375">
        <ele>653.20001220703125</ele>
        <time>2018-06-23T10:21:20.000Z</time>
      </trkpt>
      <trkpt lat="32.756125889718532562255859375" lon="-16.7968201451003551483154296875">
        <ele>653.20001220703125</ele>
        <time>2018-06-23T10:21:21.000Z</time>
      </trkpt>
      <trkpt lat="32.75615581311285495758056640625" lon="-16.79685962386429309844970703125">
        <ele>651.79998779296875</ele>
        <time>2018-06-23T10:21:25.000Z</time>
      </trkpt>
      <trkpt lat="32.75616754777729511260986328125" lon="-16.79689767770469188690185546875">
        <ele>650.5999755859375</ele>
        <time>2018-06-23T10:21:28.000Z</time>
      </trkpt>
      <trkpt lat="32.75616838596761226654052734375" lon="-16.79692466743290424346923828125">
        <ele>649.5999755859375</ele>
        <time>2018-06-23T10:21:30.000Z</time>
      </trkpt>
      <trkpt lat="32.7561746723949909210205078125" lon="-16.79698082618415355682373046875">
        <ele>648</ele>
        <time>2018-06-23T10:21:33.000Z</time>
      </trkpt>
      <trkpt lat="32.75617861188948154449462890625" lon="-16.79703379981219768524169921875">
        <ele>646.5999755859375</ele>
        <time>2018-06-23T10:21:36.000Z</time>
      </trkpt>
      <trkpt lat="32.756175510585308074951171875" lon="-16.79707135073840618133544921875">
        <ele>646.4000244140625</ele>
        <time>2018-06-23T10:21:38.000Z</time>
      </trkpt>
      <trkpt lat="32.75617257691919803619384765625" lon="-16.79711594246327877044677734375">
        <ele>645.20001220703125</ele>
        <time>2018-06-23T10:21:40.000Z</time>
      </trkpt>
      <trkpt lat="32.7561683021485805511474609375" lon="-16.7971554212272167205810546875">
        <ele>644.20001220703125</ele>
        <time>2018-06-23T10:21:42.000Z</time>
      </trkpt>
      <trkpt lat="32.7561672963201999664306640625" lon="-16.797203533351421356201171875">
        <ele>643</ele>
        <time>2018-06-23T10:21:45.000Z</time>
      </trkpt>
      <trkpt lat="32.75615966878831386566162109375" lon="-16.797274611890316009521484375">
        <ele>641.79998779296875</ele>
        <time>2018-06-23T10:21:49.000Z</time>
      </trkpt>
      <trkpt lat="32.7561543881893157958984375" lon="-16.797298081219196319580078125">
        <ele>641.20001220703125</ele>
        <time>2018-06-23T10:21:51.000Z</time>
      </trkpt>
      <trkpt lat="32.756148017942905426025390625" lon="-16.79731559939682483673095703125">
        <ele>640.79998779296875</ele>
        <time>2018-06-23T10:21:53.000Z</time>
      </trkpt>
      <trkpt lat="32.75614709593355655670166015625" lon="-16.79734627716243267059326171875">
        <ele>639.4000244140625</ele>
        <time>2018-06-23T10:22:07.000Z</time>
      </trkpt>
      <trkpt lat="32.7561475150287151336669921875" lon="-16.797377876937389373779296875">
        <ele>638.20001220703125</ele>
        <time>2018-06-23T10:22:11.000Z</time>
      </trkpt>
      <trkpt lat="32.756144665181636810302734375" lon="-16.79741752333939075469970703125">
        <ele>637</ele>
        <time>2018-06-23T10:22:15.000Z</time>
      </trkpt>
      <trkpt lat="32.75614835321903228759765625" lon="-16.797430850565433502197265625">
        <ele>636.5999755859375</ele>
        <time>2018-06-23T10:22:16.000Z</time>
      </trkpt>
      <trkpt lat="32.75615639984607696533203125" lon="-16.7974611930549144744873046875">
        <ele>635.79998779296875</ele>
        <time>2018-06-23T10:22:18.000Z</time>
      </trkpt>
      <trkpt lat="32.75617358274757862091064453125" lon="-16.7975587584078311920166015625">
        <ele>634.5999755859375</ele>
        <time>2018-06-23T10:22:23.000Z</time>
      </trkpt>
      <trkpt lat="32.756175510585308074951171875" lon="-16.7976197786629199981689453125">
        <ele>633.20001220703125</ele>
        <time>2018-06-23T10:22:26.000Z</time>
      </trkpt>
      <trkpt lat="32.75617157109081745147705078125" lon="-16.79765590466558933258056640625">
        <ele>632.20001220703125</ele>
        <time>2018-06-23T10:22:28.000Z</time>
      </trkpt>
      <trkpt lat="32.75617056526243686676025390625" lon="-16.797712482511997222900390625">
        <ele>631</ele>
        <time>2018-06-23T10:22:31.000Z</time>
      </trkpt>
      <trkpt lat="32.756161428987979888916015625" lon="-16.79774207063019275665283203125">
        <ele>630</ele>
        <time>2018-06-23T10:22:33.000Z</time>
      </trkpt>
      <trkpt lat="32.7561478503048419952392578125" lon="-16.79777693934738636016845703125">
        <ele>628.5999755859375</ele>
        <time>2018-06-23T10:22:36.000Z</time>
      </trkpt>
      <trkpt lat="32.75613871403038501739501953125" lon="-16.79778666235506534576416015625">
        <ele>628</ele>
        <time>2018-06-23T10:22:37.000Z</time>
      </trkpt>
      <trkpt lat="32.756131254136562347412109375" lon="-16.79779957048594951629638671875">
        <ele>627.4000244140625</ele>
        <time>2018-06-23T10:22:38.000Z</time>
      </trkpt>
      <trkpt lat="32.75612060911953449249267578125" lon="-16.7978273145854473114013671875">
        <ele>626.4000244140625</ele>
        <time>2018-06-23T10:22:40.000Z</time>
      </trkpt>
      <trkpt lat="32.7561114728450775146484375" lon="-16.79786570370197296142578125">
        <ele>625.20001220703125</ele>
        <time>2018-06-23T10:22:42.000Z</time>
      </trkpt>
      <trkpt lat="32.756099067628383636474609375" lon="-16.79789830930531024932861328125">
        <ele>623.79998779296875</ele>
        <time>2018-06-23T10:22:45.000Z</time>
      </trkpt>
      <trkpt lat="32.75608758442103862762451171875" lon="-16.79791524074971675872802734375">
        <ele>623.20001220703125</ele>
        <time>2018-06-23T10:22:47.000Z</time>
      </trkpt>
      <trkpt lat="32.75608666241168975830078125" lon="-16.7979242093861103057861328125">
        <ele>622.5999755859375</ele>
        <time>2018-06-23T10:22:48.000Z</time>
      </trkpt>
      <trkpt lat="32.75608691386878490447998046875" lon="-16.79794013500213623046875">
        <ele>621.4000244140625</ele>
        <time>2018-06-23T10:22:50.000Z</time>
      </trkpt>
      <trkpt lat="32.75607249699532985687255859375" lon="-16.7979604192078113555908203125">
        <ele>620.20001220703125</ele>
        <time>2018-06-23T10:22:52.000Z</time>
      </trkpt>
      <trkpt lat="32.75605908595025539398193359375" lon="-16.7979838885366916656494140625">
        <ele>619</ele>
        <time>2018-06-23T10:22:54.000Z</time>
      </trkpt>
      <trkpt lat="32.75605623610317707061767578125" lon="-16.79800928570330142974853515625">
        <ele>618</ele>
        <time>2018-06-23T10:22:56.000Z</time>
      </trkpt>
      <trkpt lat="32.7560546435415744781494140625" lon="-16.7980375327169895172119140625">
        <ele>616.79998779296875</ele>
        <time>2018-06-23T10:22:59.000Z</time>
      </trkpt>
      <trkpt lat="32.7560739219188690185546875" lon="-16.79807801730930805206298828125">
        <ele>615.79998779296875</ele>
        <time>2018-06-23T10:23:03.000Z</time>
      </trkpt>
      <trkpt lat="32.75607526302337646484375" lon="-16.798103414475917816162109375">
        <ele>614.4000244140625</ele>
        <time>2018-06-23T10:23:05.000Z</time>
      </trkpt>
      <trkpt lat="32.75607065297663211822509765625" lon="-16.798134259879589080810546875">
        <ele>613.20001220703125</ele>
        <time>2018-06-23T10:23:08.000Z</time>
      </trkpt>
      <trkpt lat="32.7560777775943279266357421875" lon="-16.79817357100546360015869140625">
        <ele>611.79998779296875</ele>
        <time>2018-06-23T10:23:12.000Z</time>
      </trkpt>
      <trkpt lat="32.75607484392821788787841796875" lon="-16.79821799509227275848388671875">
        <ele>610.79998779296875</ele>
        <time>2018-06-23T10:23:15.000Z</time>
      </trkpt>
      <trkpt lat="32.75606193579733371734619140625" lon="-16.7982628382742404937744140625">
        <ele>609.4000244140625</ele>
        <time>2018-06-23T10:23:18.000Z</time>
      </trkpt>
      <trkpt lat="32.7560566551983356475830078125" lon="-16.79830022156238555908203125">
        <ele>608</ele>
        <time>2018-06-23T10:23:21.000Z</time>
      </trkpt>
      <trkpt lat="32.75605673901736736297607421875" lon="-16.79833835922181606292724609375">
        <ele>606.5999755859375</ele>
        <time>2018-06-23T10:23:24.000Z</time>
      </trkpt>
      <trkpt lat="32.7560392208397388458251953125" lon="-16.7983862198889255523681640625">
        <ele>605.20001220703125</ele>
        <time>2018-06-23T10:23:27.000Z</time>
      </trkpt>
      <trkpt lat="32.75603234767913818359375" lon="-16.79843391291797161102294921875">
        <ele>603.5999755859375</ele>
        <time>2018-06-23T10:23:30.000Z</time>
      </trkpt>
      <trkpt lat="32.75602974928915500640869140625" lon="-16.79846408776938915252685546875">
        <ele>602.5999755859375</ele>
        <time>2018-06-23T10:23:32.000Z</time>
      </trkpt>
      <trkpt lat="32.75602304376661777496337890625" lon="-16.798503734171390533447265625">
        <ele>601.4000244140625</ele>
        <time>2018-06-23T10:23:34.000Z</time>
      </trkpt>
      <trkpt lat="32.756015248596668243408203125" lon="-16.79857556708157062530517578125">
        <ele>600.20001220703125</ele>
        <time>2018-06-23T10:23:37.000Z</time>
      </trkpt>
      <trkpt lat="32.756018936634063720703125" lon="-16.7986705340445041656494140625">
        <ele>599.20001220703125</ele>
        <time>2018-06-23T10:23:41.000Z</time>
      </trkpt>
      <trkpt lat="32.75609227828681468963623046875" lon="-16.79880439303815364837646484375">
        <ele>597.79998779296875</ele>
        <time>2018-06-23T10:23:49.000Z</time>
      </trkpt>
      <trkpt lat="32.75617341510951519012451171875" lon="-16.7988770641386508941650390625">
        <ele>596.79998779296875</ele>
        <time>2018-06-23T10:23:56.000Z</time>
      </trkpt>
      <trkpt lat="32.756310291588306427001953125" lon="-16.79903439246118068695068359375">
        <ele>596.5999755859375</ele>
        <time>2018-06-23T10:24:06.000Z</time>
      </trkpt>
      <trkpt lat="32.75637759827077388763427734375" lon="-16.79908233694732189178466796875">
        <ele>595.4000244140625</ele>
        <time>2018-06-23T10:24:10.000Z</time>
      </trkpt>
      <trkpt lat="32.756428308784961700439453125" lon="-16.7991161160171031951904296875">
        <ele>593.5999755859375</ele>
        <time>2018-06-23T10:24:13.000Z</time>
      </trkpt>
      <trkpt lat="32.75646057911217212677001953125" lon="-16.7991550080478191375732421875">
        <ele>592.4000244140625</ele>
        <time>2018-06-23T10:24:15.000Z</time>
      </trkpt>
      <trkpt lat="32.756500057876110076904296875" lon="-16.79920303635299205780029296875">
        <ele>591</ele>
        <time>2018-06-23T10:24:18.000Z</time>
      </trkpt>
      <trkpt lat="32.756524197757244110107421875" lon="-16.7992316186428070068359375">
        <ele>589.79998779296875</ele>
        <time>2018-06-23T10:24:20.000Z</time>
      </trkpt>
      <trkpt lat="32.756551690399646759033203125" lon="-16.79926003329455852508544921875">
        <ele>588.79998779296875</ele>
        <time>2018-06-23T10:24:23.000Z</time>
      </trkpt>
      <trkpt lat="32.75660273618996143341064453125" lon="-16.799303703010082244873046875">
        <ele>587.5999755859375</ele>
        <time>2018-06-23T10:24:28.000Z</time>
      </trkpt>
      <trkpt lat="32.75661011226475238800048828125" lon="-16.7993040382862091064453125">
        <ele>587.20001220703125</ele>
        <time>2018-06-23T10:24:29.000Z</time>
      </trkpt>
      <trkpt lat="32.756608687341213226318359375" lon="-16.79929121397435665130615234375">
        <ele>586.4000244140625</ele>
        <time>2018-06-23T10:24:31.000Z</time>
      </trkpt>
      <trkpt lat="32.756683118641376495361328125" lon="-16.79932407103478908538818359375">
        <ele>585.20001220703125</ele>
        <time>2018-06-23T10:24:35.000Z</time>
      </trkpt>
      <trkpt lat="32.756750844419002532958984375" lon="-16.79936380125582218170166015625">
        <ele>584</ele>
        <time>2018-06-23T10:24:38.000Z</time>
      </trkpt>
      <trkpt lat="32.75682133622467517852783203125" lon="-16.79938961751759052276611328125">
        <ele>583</ele>
        <time>2018-06-23T10:24:41.000Z</time>
      </trkpt>
      <trkpt lat="32.75684698484838008880615234375" lon="-16.79939766414463520050048828125">
        <ele>582</ele>
        <time>2018-06-23T10:24:43.000Z</time>
      </trkpt>
      <trkpt lat="32.7568777464330196380615234375" lon="-16.79942004382610321044921875">
        <ele>580.5999755859375</ele>
        <time>2018-06-23T10:24:46.000Z</time>
      </trkpt>
      <trkpt lat="32.756866849958896636962890625" lon="-16.79943605326116085052490234375">
        <ele>579.4000244140625</ele>
        <time>2018-06-23T10:24:49.000Z</time>
      </trkpt>
      <trkpt lat="32.75686995126307010650634765625" lon="-16.7994383163750171661376953125">
        <ele>578.4000244140625</ele>
        <time>2018-06-23T10:24:51.000Z</time>
      </trkpt>
      <trkpt lat="32.756877578794956207275390625" lon="-16.79945667274296283721923828125">
        <ele>577</ele>
        <time>2018-06-23T10:24:53.000Z</time>
      </trkpt>
      <trkpt lat="32.75689275003969669342041015625" lon="-16.799482740461826324462890625">
        <ele>576</ele>
        <time>2018-06-23T10:24:55.000Z</time>
      </trkpt>
      <trkpt lat="32.756908424198627471923828125" lon="-16.7994963191449642181396484375">
        <ele>575.5999755859375</ele>
        <time>2018-06-23T10:24:56.000Z</time>
      </trkpt>
      <trkpt lat="32.75693985633552074432373046875" lon="-16.799518279731273651123046875">
        <ele>574.5999755859375</ele>
        <time>2018-06-23T10:24:58.000Z</time>
      </trkpt>
      <trkpt lat="32.75698562152683734893798828125" lon="-16.79953160695731639862060546875">
        <ele>573.5999755859375</ele>
        <time>2018-06-23T10:25:00.000Z</time>
      </trkpt>
      <trkpt lat="32.75703641586005687713623046875" lon="-16.799563206732273101806640625">
        <ele>572.5999755859375</ele>
        <time>2018-06-23T10:25:03.000Z</time>
      </trkpt>
      <trkpt lat="32.75711260735988616943359375" lon="-16.7995905317366123199462890625">
        <ele>571.4000244140625</ele>
        <time>2018-06-23T10:25:07.000Z</time>
      </trkpt>
      <trkpt lat="32.7571577019989490509033203125" lon="-16.79960352368652820587158203125">
        <ele>570.20001220703125</ele>
        <time>2018-06-23T10:25:10.000Z</time>
      </trkpt>
      <trkpt lat="32.75727261789143085479736328125" lon="-16.79964476265013217926025390625">
        <ele>569</ele>
        <time>2018-06-23T10:25:14.000Z</time>
      </trkpt>
      <trkpt lat="32.7572602964937686920166015625" lon="-16.7996706627309322357177734375">
        <ele>567.5999755859375</ele>
        <time>2018-06-23T10:25:17.000Z</time>
      </trkpt>
      <trkpt lat="32.7573293633759021759033203125" lon="-16.79968499578535556793212890625">
        <ele>566.5999755859375</ele>
        <time>2018-06-23T10:25:19.000Z</time>
      </trkpt>
      <trkpt lat="32.75741829536855220794677734375" lon="-16.79973830468952655792236328125">
        <ele>565.4000244140625</ele>
        <time>2018-06-23T10:25:22.000Z</time>
      </trkpt>
      <trkpt lat="32.75762013159692287445068359375" lon="-16.79988079704344272613525390625">
        <ele>565</ele>
        <time>2018-06-23T10:25:30.000Z</time>
      </trkpt>
      <trkpt lat="32.75782850570976734161376953125" lon="-16.8002181686460971832275390625">
        <ele>555</ele>
        <time>2018-06-23T10:26:13.000Z</time>
      </trkpt>
      <trkpt lat="32.7577798068523406982421875" lon="-16.80023082531988620758056640625">
        <ele>554.5999755859375</ele>
        <time>2018-06-23T10:26:14.000Z</time>
      </trkpt>
      <trkpt lat="32.75776664726436138153076171875" lon="-16.80023870430886745452880859375">
        <ele>554.20001220703125</ele>
        <time>2018-06-23T10:26:15.000Z</time>
      </trkpt>
      <trkpt lat="32.75774904526770114898681640625" lon="-16.80025530047714710235595703125">
        <ele>553</ele>
        <time>2018-06-23T10:26:17.000Z</time>
      </trkpt>
      <trkpt lat="32.7577384002506732940673828125" lon="-16.8002687953412532806396484375">
        <ele>552.5999755859375</ele>
        <time>2018-06-23T10:26:18.000Z</time>
      </trkpt>
      <trkpt lat="32.75776362977921962738037109375" lon="-16.80027809925377368927001953125">
        <ele>551.79998779296875</ele>
        <time>2018-06-23T10:26:19.000Z</time>
      </trkpt>
      <trkpt lat="32.757769413292407989501953125" lon="-16.80032797157764434814453125">
        <ele>550.4000244140625</ele>
        <time>2018-06-23T10:26:22.000Z</time>
      </trkpt>
      <trkpt lat="32.75780872441828250885009765625" lon="-16.8003626726567745208740234375">
        <ele>548.79998779296875</ele>
        <time>2018-06-23T10:26:25.000Z</time>
      </trkpt>
      <trkpt lat="32.7578570879995822906494140625" lon="-16.8003730662167072296142578125">
        <ele>547.79998779296875</ele>
        <time>2018-06-23T10:26:27.000Z</time>
      </trkpt>
      <trkpt lat="32.75794585235416889190673828125" lon="-16.800394020974636077880859375">
        <ele>546.20001220703125</ele>
        <time>2018-06-23T10:26:30.000Z</time>
      </trkpt>
      <trkpt lat="32.7579932101070880889892578125" lon="-16.80041053332388401031494140625">
        <ele>544.79998779296875</ele>
        <time>2018-06-23T10:26:33.000Z</time>
      </trkpt>
      <trkpt lat="32.7580280788242816925048828125" lon="-16.80042310617864131927490234375">
        <ele>543.5999755859375</ele>
        <time>2018-06-23T10:26:35.000Z</time>
      </trkpt>
      <trkpt lat="32.75809035636484622955322265625" lon="-16.8004572205245494842529296875">
        <ele>542.20001220703125</ele>
        <time>2018-06-23T10:26:38.000Z</time>
      </trkpt>
      <trkpt lat="32.75812556035816669464111328125" lon="-16.80048496462404727935791015625">
        <ele>541</ele>
        <time>2018-06-23T10:26:41.000Z</time>
      </trkpt>
      <trkpt lat="32.758141569793224334716796875" lon="-16.80049032904207706451416015625">
        <ele>540</ele>
        <time>2018-06-23T10:26:43.000Z</time>
      </trkpt>
      <trkpt lat="32.7581524662673473358154296875" lon="-16.800457052886486053466796875">
        <ele>538.79998779296875</ele>
        <time>2018-06-23T10:26:46.000Z</time>
      </trkpt>
      <trkpt lat="32.75814617983996868133544921875" lon="-16.80044540204107761383056640625">
        <ele>538</ele>
        <time>2018-06-23T10:26:47.000Z</time>
      </trkpt>
      <trkpt lat="32.75815003551542758941650390625" lon="-16.80043199099600315093994140625">
        <ele>537.20001220703125</ele>
        <time>2018-06-23T10:26:49.000Z</time>
      </trkpt>
      <trkpt lat="32.75814349763095378875732421875" lon="-16.800434589385986328125">
        <ele>535.5999755859375</ele>
        <time>2018-06-23T10:26:52.000Z</time>
      </trkpt>
      <trkpt lat="32.75815959088504314422607421875" lon="-16.800459735095500946044921875">
        <ele>534.5999755859375</ele>
        <time>2018-06-23T10:26:55.000Z</time>
      </trkpt>
      <trkpt lat="32.75819160975515842437744140625" lon="-16.800464093685150146484375">
        <ele>533.5999755859375</ele>
        <time>2018-06-23T10:26:57.000Z</time>
      </trkpt>
      <trkpt lat="32.7582064457237720489501953125" lon="-16.80046753026545047760009765625">
        <ele>533</ele>
        <time>2018-06-23T10:26:58.000Z</time>
      </trkpt>
      <trkpt lat="32.75824005715548992156982421875" lon="-16.8004843778908252716064453125">
        <ele>531.79998779296875</ele>
        <time>2018-06-23T10:27:00.000Z</time>
      </trkpt>
      <trkpt lat="32.758250869810581207275390625" lon="-16.80050374008715152740478515625">
        <ele>530.5999755859375</ele>
        <time>2018-06-23T10:27:02.000Z</time>
      </trkpt>
      <trkpt lat="32.75824994780123233795166015625" lon="-16.80052553303539752960205078125">
        <ele>529.4000244140625</ele>
        <time>2018-06-23T10:27:05.000Z</time>
      </trkpt>
      <trkpt lat="32.7582634426653385162353515625" lon="-16.80054263211786746978759765625">
        <ele>528</ele>
        <time>2018-06-23T10:27:08.000Z</time>
      </trkpt>
      <trkpt lat="32.75826972909271717071533203125" lon="-16.80053710006177425384521484375">
        <ele>526.79998779296875</ele>
        <time>2018-06-23T10:27:10.000Z</time>
      </trkpt>
      <trkpt lat="32.7582952938973903656005859375" lon="-16.8005195818841457366943359375">
        <ele>525.4000244140625</ele>
        <time>2018-06-23T10:27:13.000Z</time>
      </trkpt>
      <trkpt lat="32.758289091289043426513671875" lon="-16.80050407536327838897705078125">
        <ele>524.5999755859375</ele>
        <time>2018-06-23T10:27:15.000Z</time>
      </trkpt>
      <trkpt lat="32.758283056318759918212890625" lon="-16.80049954913556575775146484375">
        <ele>524.20001220703125</ele>
        <time>2018-06-23T10:27:16.000Z</time>
      </trkpt>
      <trkpt lat="32.75829185731709003448486328125" lon="-16.80048848502337932586669921875">
        <ele>523.20001220703125</ele>
        <time>2018-06-23T10:27:18.000Z</time>
      </trkpt>
      <trkpt lat="32.758296467363834381103515625" lon="-16.80048286914825439453125">
        <ele>521.79998779296875</ele>
        <time>2018-06-23T10:27:21.000Z</time>
      </trkpt>
      <trkpt lat="32.7582842297852039337158203125" lon="-16.80047415196895599365234375">
        <ele>520.79998779296875</ele>
        <time>2018-06-23T10:27:24.000Z</time>
      </trkpt>
      <trkpt lat="32.7582879178225994110107421875" lon="-16.8004706315696239471435546875">
        <ele>519.5999755859375</ele>
        <time>2018-06-23T10:27:27.000Z</time>
      </trkpt>
      <trkpt lat="32.7583046816289424896240234375" lon="-16.80047607980668544769287109375">
        <ele>518.4000244140625</ele>
        <time>2018-06-23T10:27:30.000Z</time>
      </trkpt>
      <trkpt lat="32.75834105908870697021484375" lon="-16.800473816692829132080078125">
        <ele>517.5999755859375</ele>
        <time>2018-06-23T10:27:35.000Z</time>
      </trkpt>
      <trkpt lat="32.75835405103862285614013671875" lon="-16.80047473870217800140380859375">
        <ele>517.4000244140625</ele>
        <time>2018-06-23T10:27:37.000Z</time>
      </trkpt>
      <trkpt lat="32.75837064720690250396728515625" lon="-16.80047356523573398590087890625">
        <ele>516</ele>
        <time>2018-06-23T10:27:39.000Z</time>
      </trkpt>
      <trkpt lat="32.75838221423327922821044921875" lon="-16.80046685971319675445556640625">
        <ele>514.79998779296875</ele>
        <time>2018-06-23T10:27:42.000Z</time>
      </trkpt>
      <trkpt lat="32.75839193724095821380615234375" lon="-16.800481192767620086669921875">
        <ele>513.5999755859375</ele>
        <time>2018-06-23T10:27:45.000Z</time>
      </trkpt>
      <trkpt lat="32.758397720754146575927734375" lon="-16.80050809867680072784423828125">
        <ele>512.4000244140625</ele>
        <time>2018-06-23T10:27:48.000Z</time>
      </trkpt>
      <trkpt lat="32.75841540656983852386474609375" lon="-16.80054380558431148529052734375">
        <ele>510.79998779296875</ele>
        <time>2018-06-23T10:27:51.000Z</time>
      </trkpt>
      <trkpt lat="32.75841104798018932342529296875" lon="-16.80057465098798274993896484375">
        <ele>509.600006103515625</ele>
        <time>2018-06-23T10:27:53.000Z</time>
      </trkpt>
      <trkpt lat="32.75842362083494663238525390625" lon="-16.80063801817595958709716796875">
        <ele>508.399993896484375</ele>
        <time>2018-06-23T10:27:57.000Z</time>
      </trkpt>
      <trkpt lat="32.7584572322666645050048828125" lon="-16.8006845377385616302490234375">
        <ele>507</ele>
        <time>2018-06-23T10:28:01.000Z</time>
      </trkpt>
      <trkpt lat="32.75851096026599407196044921875" lon="-16.8007264472544193267822265625">
        <ele>506</ele>
        <time>2018-06-23T10:28:05.000Z</time>
      </trkpt>
      <trkpt lat="32.75855773128569126129150390625" lon="-16.80075402371585369110107421875">
        <ele>504.600006103515625</ele>
        <time>2018-06-23T10:28:08.000Z</time>
      </trkpt>
      <trkpt lat="32.75862830691039562225341796875" lon="-16.800768859684467315673828125">
        <ele>503.20001220703125</ele>
        <time>2018-06-23T10:28:11.000Z</time>
      </trkpt>
      <trkpt lat="32.7586543746292591094970703125" lon="-16.80079459212720394134521484375">
        <ele>501.79998779296875</ele>
        <time>2018-06-23T10:28:13.000Z</time>
      </trkpt>
      <trkpt lat="32.75870223529636859893798828125" lon="-16.80082149803638458251953125">
        <ele>500.79998779296875</ele>
        <time>2018-06-23T10:28:15.000Z</time>
      </trkpt>
      <trkpt lat="32.75869921781122684478759765625" lon="-16.80085343308746814727783203125">
        <ele>499.600006103515625</ele>
        <time>2018-06-23T10:28:17.000Z</time>
      </trkpt>
      <trkpt lat="32.75870743207633495330810546875" lon="-16.800880841910839080810546875">
        <ele>498.600006103515625</ele>
        <time>2018-06-23T10:28:19.000Z</time>
      </trkpt>
      <trkpt lat="32.75875487364828586578369140625" lon="-16.80090607143938541412353515625">
        <ele>497</ele>
        <time>2018-06-23T10:28:21.000Z</time>
      </trkpt>
      <trkpt lat="32.75881472043693065643310546875" lon="-16.80093146860599517822265625">
        <ele>495.79998779296875</ele>
        <time>2018-06-23T10:28:23.000Z</time>
      </trkpt>
      <trkpt lat="32.7588089369237422943115234375" lon="-16.8009514175355434417724609375">
        <ele>494.79998779296875</ele>
        <time>2018-06-23T10:28:25.000Z</time>
      </trkpt>
      <trkpt lat="32.7587096951901912689208984375" lon="-16.8009742163121700286865234375">
        <ele>493.600006103515625</ele>
        <time>2018-06-23T10:28:29.000Z</time>
      </trkpt>
      <trkpt lat="32.75861757807433605194091796875" lon="-16.80095301009714603424072265625">
        <ele>492.399993896484375</ele>
        <time>2018-06-23T10:28:32.000Z</time>
      </trkpt>
      <trkpt lat="32.75863073766231536865234375" lon="-16.80096893571317195892333984375">
        <ele>491.20001220703125</ele>
        <time>2018-06-23T10:28:35.000Z</time>
      </trkpt>
      <trkpt lat="32.75864004157483577728271484375" lon="-16.80099173448979854583740234375">
        <ele>490.20001220703125</ele>
        <time>2018-06-23T10:28:37.000Z</time>
      </trkpt>
      <trkpt lat="32.75866116397082805633544921875" lon="-16.801017634570598602294921875">
        <ele>489</ele>
        <time>2018-06-23T10:28:39.000Z</time>
      </trkpt>
      <trkpt lat="32.7586751617491245269775390625" lon="-16.80102794431149959564208984375">
        <ele>488.399993896484375</ele>
        <time>2018-06-23T10:28:40.000Z</time>
      </trkpt>
      <trkpt lat="32.75871648453176021575927734375" lon="-16.801045127213001251220703125">
        <ele>487.20001220703125</ele>
        <time>2018-06-23T10:28:42.000Z</time>
      </trkpt>
      <trkpt lat="32.75878823362290859222412109375" lon="-16.8010690994560718536376953125">
        <ele>485.79998779296875</ele>
        <time>2018-06-23T10:28:44.000Z</time>
      </trkpt>
      <trkpt lat="32.75884120725095272064208984375" lon="-16.801091730594635009765625">
        <ele>484.600006103515625</ele>
        <time>2018-06-23T10:28:46.000Z</time>
      </trkpt>
      <trkpt lat="32.75891228578984737396240234375" lon="-16.80112467147409915924072265625">
        <ele>483.399993896484375</ele>
        <time>2018-06-23T10:28:49.000Z</time>
      </trkpt>
      <trkpt lat="32.75899107567965984344482421875" lon="-16.80114964954555034637451171875">
        <ele>482.20001220703125</ele>
        <time>2018-06-23T10:28:52.000Z</time>
      </trkpt>
      <trkpt lat="32.75888563133776187896728515625" lon="-16.80115065537393093109130859375">
        <ele>481.20001220703125</ele>
        <time>2018-06-23T10:28:55.000Z</time>
      </trkpt>
      <trkpt lat="32.75887490250170230865478515625" lon="-16.80115518160164356231689453125">
        <ele>480.79998779296875</ele>
        <time>2018-06-23T10:28:56.000Z</time>
      </trkpt>
      <trkpt lat="32.75880801491439342498779296875" lon="-16.80116557516157627105712890625">
        <ele>479.79998779296875</ele>
        <time>2018-06-23T10:28:59.000Z</time>
      </trkpt>
      <trkpt lat="32.7587427198886871337890625" lon="-16.80116356350481510162353515625">
        <ele>478.79998779296875</ele>
        <time>2018-06-23T10:29:01.000Z</time>
      </trkpt>
      <trkpt lat="32.758695781230926513671875" lon="-16.80116423405706882476806640625">
        <ele>478.20001220703125</ele>
        <time>2018-06-23T10:29:02.000Z</time>
      </trkpt>
      <trkpt lat="32.75868547149002552032470703125" lon="-16.8011676706373691558837890625">
        <ele>477.399993896484375</ele>
        <time>2018-06-23T10:29:04.000Z</time>
      </trkpt>
      <trkpt lat="32.758762836456298828125" lon="-16.80118200369179248809814453125">
        <ele>476.600006103515625</ele>
        <time>2018-06-23T10:29:06.000Z</time>
      </trkpt>
      <trkpt lat="32.75879812426865100860595703125" lon="-16.80118803866207599639892578125">
        <ele>476</ele>
        <time>2018-06-23T10:29:07.000Z</time>
      </trkpt>
      <trkpt lat="32.75886031799018383026123046875" lon="-16.8012075684964656829833984375">
        <ele>475.20001220703125</ele>
        <time>2018-06-23T10:29:09.000Z</time>
      </trkpt>
      <trkpt lat="32.75892309844493865966796875" lon="-16.8012384139001369476318359375">
        <ele>474.600006103515625</ele>
        <time>2018-06-23T10:29:11.000Z</time>
      </trkpt>
      <trkpt lat="32.7589319832623004913330078125" lon="-16.801252327859401702880859375">
        <ele>474</ele>
        <time>2018-06-23T10:29:12.000Z</time>
      </trkpt>
      <trkpt lat="32.75897665880620479583740234375" lon="-16.801281161606311798095703125">
        <ele>472.600006103515625</ele>
        <time>2018-06-23T10:29:14.000Z</time>
      </trkpt>
      <trkpt lat="32.75900415144860744476318359375" lon="-16.80131309665739536285400390625">
        <ele>471.399993896484375</ele>
        <time>2018-06-23T10:29:16.000Z</time>
      </trkpt>
      <trkpt lat="32.75901823304593563079833984375" lon="-16.80134410969913005828857421875">
        <ele>470</ele>
        <time>2018-06-23T10:29:18.000Z</time>
      </trkpt>
      <trkpt lat="32.759021334350109100341796875" lon="-16.8013654835522174835205078125">
        <ele>468.79998779296875</ele>
        <time>2018-06-23T10:29:20.000Z</time>
      </trkpt>
      <trkpt lat="32.7590270340442657470703125" lon="-16.80138207972049713134765625">
        <ele>467.79998779296875</ele>
        <time>2018-06-23T10:29:22.000Z</time>
      </trkpt>
      <trkpt lat="32.75905452668666839599609375" lon="-16.8013973347842693328857421875">
        <ele>466.399993896484375</ele>
        <time>2018-06-23T10:29:24.000Z</time>
      </trkpt>
      <trkpt lat="32.75909920223057270050048828125" lon="-16.80142256431281566619873046875">
        <ele>465.600006103515625</ele>
        <time>2018-06-23T10:29:26.000Z</time>
      </trkpt>
      <trkpt lat="32.7591261081397533416748046875" lon="-16.8014244921505451202392578125">
        <ele>465</ele>
        <time>2018-06-23T10:29:27.000Z</time>
      </trkpt>
      <trkpt lat="32.75913390330970287322998046875" lon="-16.801416613161563873291015625">
        <ele>464.20001220703125</ele>
        <time>2018-06-23T10:29:28.000Z</time>
      </trkpt>
      <trkpt lat="32.759154103696346282958984375" lon="-16.801408566534519195556640625">
        <ele>463.600006103515625</ele>
        <time>2018-06-23T10:29:29.000Z</time>
      </trkpt>
      <trkpt lat="32.7591834403574466705322265625" lon="-16.80139523930847644805908203125">
        <ele>462.399993896484375</ele>
        <time>2018-06-23T10:29:31.000Z</time>
      </trkpt>
      <trkpt lat="32.75919525884091854095458984375" lon="-16.80137093178927898406982421875">
        <ele>460.399993896484375</ele>
        <time>2018-06-23T10:29:33.000Z</time>
      </trkpt>
      <trkpt lat="32.7591854520142078399658203125" lon="-16.80135148577392101287841796875">
        <ele>459.79998779296875</ele>
        <time>2018-06-23T10:29:34.000Z</time>
      </trkpt>
      <trkpt lat="32.75918553583323955535888671875" lon="-16.80133388377726078033447265625">
        <ele>459.20001220703125</ele>
        <time>2018-06-23T10:29:35.000Z</time>
      </trkpt>
      <trkpt lat="32.75918821804225444793701171875" lon="-16.8013084866106510162353515625">
        <ele>458</ele>
        <time>2018-06-23T10:29:38.000Z</time>
      </trkpt>
      <trkpt lat="32.7591851167380809783935546875" lon="-16.80129381828010082244873046875">
        <ele>456.600006103515625</ele>
        <time>2018-06-23T10:29:41.000Z</time>
      </trkpt>
      <trkpt lat="32.75916357524693012237548828125" lon="-16.8012652359902858734130859375">
        <ele>455.399993896484375</ele>
        <time>2018-06-23T10:29:44.000Z</time>
      </trkpt>
      <trkpt lat="32.7591318078339099884033203125" lon="-16.8012189678847789764404296875">
        <ele>454.20001220703125</ele>
        <time>2018-06-23T10:29:47.000Z</time>
      </trkpt>
      <trkpt lat="32.75908461771905422210693359375" lon="-16.801171191036701202392578125">
        <ele>452.600006103515625</ele>
        <time>2018-06-23T10:29:50.000Z</time>
      </trkpt>
      <trkpt lat="32.7590312249958515167236328125" lon="-16.8011277727782726287841796875">
        <ele>451.600006103515625</ele>
        <time>2018-06-23T10:29:52.000Z</time>
      </trkpt>
      <trkpt lat="32.75899141095578670501708984375" lon="-16.801088713109493255615234375">
        <ele>450.399993896484375</ele>
        <time>2018-06-23T10:29:54.000Z</time>
      </trkpt>
      <trkpt lat="32.75895059108734130859375" lon="-16.80104638449847698211669921875">
        <ele>449</ele>
        <time>2018-06-23T10:29:56.000Z</time>
      </trkpt>
      <trkpt lat="32.758908681571483612060546875" lon="-16.8010104261338710784912109375">
        <ele>448</ele>
        <time>2018-06-23T10:29:59.000Z</time>
      </trkpt>
      <trkpt lat="32.7589024789631366729736328125" lon="-16.80099525488913059234619140625">
        <ele>446.79998779296875</ele>
        <time>2018-06-23T10:30:01.000Z</time>
      </trkpt>
      <trkpt lat="32.75891429744660854339599609375" lon="-16.80099911056458950042724609375">
        <ele>446.20001220703125</ele>
        <time>2018-06-23T10:30:02.000Z</time>
      </trkpt>
      <trkpt lat="32.7589239366352558135986328125" lon="-16.801004223525524139404296875">
        <ele>445.79998779296875</ele>
        <time>2018-06-23T10:30:03.000Z</time>
      </trkpt>
      <trkpt lat="32.75894195772707462310791015625" lon="-16.8010151199996471405029296875">
        <ele>444.79998779296875</ele>
        <time>2018-06-23T10:30:05.000Z</time>
      </trkpt>
      <trkpt lat="32.758952267467975616455078125" lon="-16.801023669540882110595703125">
        <ele>444.399993896484375</ele>
        <time>2018-06-23T10:30:06.000Z</time>
      </trkpt>
      <trkpt lat="32.75895771570503711700439453125" lon="-16.80103481747210025787353515625">
        <ele>443.600006103515625</ele>
        <time>2018-06-23T10:30:07.000Z</time>
      </trkpt>
      <trkpt lat="32.75899476371705532073974609375" lon="-16.80104504339396953582763671875">
        <ele>443.20001220703125</ele>
        <time>2018-06-23T10:30:08.000Z</time>
      </trkpt>
      <trkpt lat="32.75900616310536861419677734375" lon="-16.8010556884109973907470703125">
        <ele>442.600006103515625</ele>
        <time>2018-06-23T10:30:09.000Z</time>
      </trkpt>
      <trkpt lat="32.75901420973241329193115234375" lon="-16.80106423795223236083984375">
        <ele>441.79998779296875</ele>
        <time>2018-06-23T10:30:10.000Z</time>
      </trkpt>
      <trkpt lat="32.759039103984832763671875" lon="-16.8010764755308628082275390625">
        <ele>440.600006103515625</ele>
        <time>2018-06-23T10:30:12.000Z</time>
      </trkpt>
      <trkpt lat="32.75908277370035648345947265625" lon="-16.8010935746133327484130859375">
        <ele>439.399993896484375</ele>
        <time>2018-06-23T10:30:14.000Z</time>
      </trkpt>
      <trkpt lat="32.75908830575644969940185546875" lon="-16.801095418632030487060546875">
        <ele>438.600006103515625</ele>
        <time>2018-06-23T10:30:15.000Z</time>
      </trkpt>
      <trkpt lat="32.75910657830536365509033203125" lon="-16.80110371671617031097412109375">
        <ele>438</ele>
        <time>2018-06-23T10:30:16.000Z</time>
      </trkpt>
      <trkpt lat="32.75912753306329250335693359375" lon="-16.8011113442480564117431640625">
        <ele>437.399993896484375</ele>
        <time>2018-06-23T10:30:17.000Z</time>
      </trkpt>
      <trkpt lat="32.75915603153407573699951171875" lon="-16.80112165398895740509033203125">
        <ele>436.79998779296875</ele>
        <time>2018-06-23T10:30:18.000Z</time>
      </trkpt>
      <trkpt lat="32.759178243577480316162109375" lon="-16.801132969558238983154296875">
        <ele>436</ele>
        <time>2018-06-23T10:30:19.000Z</time>
      </trkpt>
      <trkpt lat="32.759216465055942535400390625" lon="-16.801147051155567169189453125">
        <ele>435.399993896484375</ele>
        <time>2018-06-23T10:30:20.000Z</time>
      </trkpt>
      <trkpt lat="32.75927891023457050323486328125" lon="-16.80117764510214328765869140625">
        <ele>434.20001220703125</ele>
        <time>2018-06-23T10:30:22.000Z</time>
      </trkpt>
      <trkpt lat="32.75932031683623790740966796875" lon="-16.80119876749813556671142578125">
        <ele>432.399993896484375</ele>
        <time>2018-06-23T10:30:24.000Z</time>
      </trkpt>
      <trkpt lat="32.75936256162822246551513671875" lon="-16.80122307501733303070068359375">
        <ele>430.79998779296875</ele>
        <time>2018-06-23T10:30:26.000Z</time>
      </trkpt>
      <trkpt lat="32.75938033126294612884521484375" lon="-16.80123665370047092437744140625">
        <ele>429.20001220703125</ele>
        <time>2018-06-23T10:30:28.000Z</time>
      </trkpt>
      <trkpt lat="32.759403549134731292724609375" lon="-16.80126029066741466522216796875">
        <ele>428</ele>
        <time>2018-06-23T10:30:30.000Z</time>
      </trkpt>
      <trkpt lat="32.75943481363356113433837890625" lon="-16.8012796528637409210205078125">
        <ele>426.399993896484375</ele>
        <time>2018-06-23T10:30:32.000Z</time>
      </trkpt>
      <trkpt lat="32.75946029461920261383056640625" lon="-16.801300607621669769287109375">
        <ele>425.20001220703125</ele>
        <time>2018-06-23T10:30:34.000Z</time>
      </trkpt>
      <trkpt lat="32.75946767069399356842041015625" lon="-16.80130672641098499298095703125">
        <ele>424.79998779296875</ele>
        <time>2018-06-23T10:30:35.000Z</time>
      </trkpt>
      <trkpt lat="32.759483344852924346923828125" lon="-16.8013128452003002166748046875">
        <ele>423.79998779296875</ele>
        <time>2018-06-23T10:30:37.000Z</time>
      </trkpt>
      <trkpt lat="32.7594985999166965484619140625" lon="-16.80132566951215267181396484375">
        <ele>422.20001220703125</ele>
        <time>2018-06-23T10:30:39.000Z</time>
      </trkpt>
      <trkpt lat="32.7595167048275470733642578125" lon="-16.80134226568043231964111328125">
        <ele>420.600006103515625</ele>
        <time>2018-06-23T10:30:41.000Z</time>
      </trkpt>
      <trkpt lat="32.75952818803489208221435546875" lon="-16.80135123431682586669921875">
        <ele>420.20001220703125</ele>
        <time>2018-06-23T10:30:42.000Z</time>
      </trkpt>
      <trkpt lat="32.7595740370452404022216796875" lon="-16.80138216353952884674072265625">
        <ele>419</ele>
        <time>2018-06-23T10:30:44.000Z</time>
      </trkpt>
      <trkpt lat="32.75958535261452198028564453125" lon="-16.8013993464410305023193359375">
        <ele>417.600006103515625</ele>
        <time>2018-06-23T10:30:46.000Z</time>
      </trkpt>
      <trkpt lat="32.7595991827547550201416015625" lon="-16.8013845942914485931396484375">
        <ele>416.399993896484375</ele>
        <time>2018-06-23T10:30:49.000Z</time>
      </trkpt>
      <trkpt lat="32.75965525768697261810302734375" lon="-16.8013795651495456695556640625">
        <ele>415</ele>
        <time>2018-06-23T10:30:51.000Z</time>
      </trkpt>
      <trkpt lat="32.75968224741518497467041015625" lon="-16.80137495510280132293701171875">
        <ele>414.20001220703125</ele>
        <time>2018-06-23T10:30:52.000Z</time>
      </trkpt>
      <trkpt lat="32.75970898568630218505859375" lon="-16.8013644777238368988037109375">
        <ele>413.600006103515625</ele>
        <time>2018-06-23T10:30:53.000Z</time>
      </trkpt>
      <trkpt lat="32.759717367589473724365234375" lon="-16.80134511552751064300537109375">
        <ele>413.20001220703125</ele>
        <time>2018-06-23T10:30:54.000Z</time>
      </trkpt>
      <trkpt lat="32.75974276475608348846435546875" lon="-16.8013115040957927703857421875">
        <ele>412.20001220703125</ele>
        <time>2018-06-23T10:30:56.000Z</time>
      </trkpt>
      <trkpt lat="32.75977612473070621490478515625" lon="-16.80129247717559337615966796875">
        <ele>411</ele>
        <time>2018-06-23T10:30:59.000Z</time>
      </trkpt>
      <trkpt lat="32.75978350080549716949462890625" lon="-16.8012776412069797515869140625">
        <ele>410</ele>
        <time>2018-06-23T10:31:01.000Z</time>
      </trkpt>
      <trkpt lat="32.7597976662218570709228515625" lon="-16.80127370171248912811279296875">
        <ele>409.399993896484375</ele>
        <time>2018-06-23T10:31:02.000Z</time>
      </trkpt>
      <trkpt lat="32.759803868830204010009765625" lon="-16.8012647330760955810546875">
        <ele>408.79998779296875</ele>
        <time>2018-06-23T10:31:03.000Z</time>
      </trkpt>
      <trkpt lat="32.759819291532039642333984375" lon="-16.801257021725177764892578125">
        <ele>408</ele>
        <time>2018-06-23T10:31:04.000Z</time>
      </trkpt>
      <trkpt lat="32.75984636507928371429443359375" lon="-16.80125123821198940277099609375">
        <ele>406.79998779296875</ele>
        <time>2018-06-23T10:31:06.000Z</time>
      </trkpt>
      <trkpt lat="32.75987352244555950164794921875" lon="-16.80125844664871692657470703125">
        <ele>405.600006103515625</ele>
        <time>2018-06-23T10:31:08.000Z</time>
      </trkpt>
      <trkpt lat="32.75989498011767864227294921875" lon="-16.801252663135528564453125">
        <ele>404.20001220703125</ele>
        <time>2018-06-23T10:31:10.000Z</time>
      </trkpt>
      <trkpt lat="32.759899087250232696533203125" lon="-16.80123564787209033966064453125">
        <ele>402.79998779296875</ele>
        <time>2018-06-23T10:31:12.000Z</time>
      </trkpt>
      <trkpt lat="32.759897746145725250244140625" lon="-16.80122408084571361541748046875">
        <ele>401.79998779296875</ele>
        <time>2018-06-23T10:31:14.000Z</time>
      </trkpt>
      <trkpt lat="32.7599170245230197906494140625" lon="-16.8012229911983013153076171875">
        <ele>400.600006103515625</ele>
        <time>2018-06-23T10:31:16.000Z</time>
      </trkpt>
      <trkpt lat="32.75993906892836093902587890625" lon="-16.8012246675789356231689453125">
        <ele>399.399993896484375</ele>
        <time>2018-06-23T10:31:18.000Z</time>
      </trkpt>
      <trkpt lat="32.75994912721216678619384765625" lon="-16.8012256734073162078857421875">
        <ele>398</ele>
        <time>2018-06-23T10:31:20.000Z</time>
      </trkpt>
      <trkpt lat="32.75999606586992740631103515625" lon="-16.80123849771916866302490234375">
        <ele>396.399993896484375</ele>
        <time>2018-06-23T10:31:23.000Z</time>
      </trkpt>
      <trkpt lat="32.76002280414104461669921875" lon="-16.8012491427361965179443359375">
        <ele>395</ele>
        <time>2018-06-23T10:31:25.000Z</time>
      </trkpt>
      <trkpt lat="32.7600521408021450042724609375" lon="-16.8012511543929576873779296875">
        <ele>393.79998779296875</ele>
        <time>2018-06-23T10:31:27.000Z</time>
      </trkpt>
      <trkpt lat="32.7601010911166667938232421875" lon="-16.801261715590953826904296875">
        <ele>392.399993896484375</ele>
        <time>2018-06-23T10:31:29.000Z</time>
      </trkpt>
      <trkpt lat="32.76012967340648174285888671875" lon="-16.80128443054854869842529296875">
        <ele>391.399993896484375</ele>
        <time>2018-06-23T10:31:31.000Z</time>
      </trkpt>
      <trkpt lat="32.76017644442617893218994140625" lon="-16.80131058208644390106201171875">
        <ele>390.20001220703125</ele>
        <time>2018-06-23T10:31:34.000Z</time>
      </trkpt>
      <trkpt lat="32.76021349243819713592529296875" lon="-16.8013265915215015411376953125">
        <ele>388.600006103515625</ele>
        <time>2018-06-23T10:31:37.000Z</time>
      </trkpt>
      <trkpt lat="32.76023612357676029205322265625" lon="-16.801339499652385711669921875">
        <ele>387.399993896484375</ele>
        <time>2018-06-23T10:31:39.000Z</time>
      </trkpt>
      <trkpt lat="32.7602549828588962554931640625" lon="-16.8013520725071430206298828125">
        <ele>386.20001220703125</ele>
        <time>2018-06-23T10:31:41.000Z</time>
      </trkpt>
      <trkpt lat="32.760265879333019256591796875" lon="-16.8013612926006317138671875">
        <ele>385.79998779296875</ele>
        <time>2018-06-23T10:31:42.000Z</time>
      </trkpt>
      <trkpt lat="32.7602688968181610107421875" lon="-16.80136892013251781463623046875">
        <ele>385.399993896484375</ele>
        <time>2018-06-23T10:31:43.000Z</time>
      </trkpt>
      <trkpt lat="32.7602720819413661956787109375" lon="-16.8013792298734188079833984375">
        <ele>385</ele>
        <time>2018-06-23T10:31:44.000Z</time>
      </trkpt>
      <trkpt lat="32.76027836836874485015869140625" lon="-16.801392138004302978515625">
        <ele>384</ele>
        <time>2018-06-23T10:31:46.000Z</time>
      </trkpt>
      <trkpt lat="32.7602863311767578125" lon="-16.80140764452517032623291015625">
        <ele>383</ele>
        <time>2018-06-23T10:31:48.000Z</time>
      </trkpt>
      <trkpt lat="32.76030787266790866851806640625" lon="-16.80141921155154705047607421875">
        <ele>382</ele>
        <time>2018-06-23T10:31:50.000Z</time>
      </trkpt>
      <trkpt lat="32.76032128371298313140869140625" lon="-16.8014229834079742431640625">
        <ele>381.399993896484375</ele>
        <time>2018-06-23T10:31:51.000Z</time>
      </trkpt>
      <trkpt lat="32.7603555656969547271728515625" lon="-16.801454164087772369384765625">
        <ele>380</ele>
        <time>2018-06-23T10:31:53.000Z</time>
      </trkpt>
      <trkpt lat="32.7603709883987903594970703125" lon="-16.8014630489051342010498046875">
        <ele>379.600006103515625</ele>
        <time>2018-06-23T10:31:54.000Z</time>
      </trkpt>
      <trkpt lat="32.7603961341083049774169921875" lon="-16.801467575132846832275390625">
        <ele>378.600006103515625</ele>
        <time>2018-06-23T10:31:56.000Z</time>
      </trkpt>
      <trkpt lat="32.76042404584586620330810546875" lon="-16.8014915473759174346923828125">
        <ele>377.20001220703125</ele>
        <time>2018-06-23T10:31:58.000Z</time>
      </trkpt>
      <trkpt lat="32.76044416241347789764404296875" lon="-16.80152147077023983001708984375">
        <ele>375.79998779296875</ele>
        <time>2018-06-23T10:32:00.000Z</time>
      </trkpt>
      <trkpt lat="32.760460674762725830078125" lon="-16.80156673304736614227294921875">
        <ele>374.79998779296875</ele>
        <time>2018-06-23T10:32:02.000Z</time>
      </trkpt>
      <trkpt lat="32.7604968845844268798828125" lon="-16.801674775779247283935546875">
        <ele>373.20001220703125</ele>
        <time>2018-06-23T10:32:06.000Z</time>
      </trkpt>
      <trkpt lat="32.7605076134204864501953125" lon="-16.80172540247440338134765625">
        <ele>372.20001220703125</ele>
        <time>2018-06-23T10:32:08.000Z</time>
      </trkpt>
      <trkpt lat="32.7605000697076320648193359375" lon="-16.80175599642097949981689453125">
        <ele>371</ele>
        <time>2018-06-23T10:32:10.000Z</time>
      </trkpt>
      <trkpt lat="32.76049864478409290313720703125" lon="-16.80181718431413173675537109375">
        <ele>369.600006103515625</ele>
        <time>2018-06-23T10:32:14.000Z</time>
      </trkpt>
      <trkpt lat="32.76057173497974872589111328125" lon="-16.8019921146333217620849609375">
        <ele>368.20001220703125</ele>
        <time>2018-06-23T10:32:23.000Z</time>
      </trkpt>
      <trkpt lat="32.760600149631500244140625" lon="-16.802073419094085693359375">
        <ele>367.20001220703125</ele>
        <time>2018-06-23T10:32:26.000Z</time>
      </trkpt>
      <trkpt lat="32.7606256306171417236328125" lon="-16.80211591534316539764404296875">
        <ele>366.79998779296875</ele>
        <time>2018-06-23T10:32:28.000Z</time>
      </trkpt>
      <trkpt lat="32.76065890677273273468017578125" lon="-16.80212496779859066009521484375">
        <ele>366</ele>
        <time>2018-06-23T10:32:30.000Z</time>
      </trkpt>
      <trkpt lat="32.7606955356895923614501953125" lon="-16.80212714709341526031494140625">
        <ele>364.79998779296875</ele>
        <time>2018-06-23T10:32:32.000Z</time>
      </trkpt>
      <trkpt lat="32.7607391215860843658447265625" lon="-16.80212480016052722930908203125">
        <ele>363.20001220703125</ele>
        <time>2018-06-23T10:32:34.000Z</time>
      </trkpt>
      <trkpt lat="32.7607733197510242462158203125" lon="-16.8021144904196262359619140625">
        <ele>362.20001220703125</ele>
        <time>2018-06-23T10:32:36.000Z</time>
      </trkpt>
      <trkpt lat="32.7608246169984340667724609375" lon="-16.80209412239491939544677734375">
        <ele>360.79998779296875</ele>
        <time>2018-06-23T10:32:39.000Z</time>
      </trkpt>
      <trkpt lat="32.7608323283493518829345703125" lon="-16.80208121426403522491455078125">
        <ele>360.399993896484375</ele>
        <time>2018-06-23T10:32:40.000Z</time>
      </trkpt>
      <trkpt lat="32.76084582321345806121826171875" lon="-16.8020559847354888916015625">
        <ele>359.20001220703125</ele>
        <time>2018-06-23T10:32:42.000Z</time>
      </trkpt>
      <trkpt lat="32.76085269637405872344970703125" lon="-16.8020494468510150909423828125">
        <ele>358.399993896484375</ele>
        <time>2018-06-23T10:32:43.000Z</time>
      </trkpt>
      <trkpt lat="32.76085621677339076995849609375" lon="-16.80204215459525585174560546875">
        <ele>357.79998779296875</ele>
        <time>2018-06-23T10:32:44.000Z</time>
      </trkpt>
      <trkpt lat="32.76086694560945034027099609375" lon="-16.8020253069698810577392578125">
        <ele>356</ele>
        <time>2018-06-23T10:32:46.000Z</time>
      </trkpt>
      <trkpt lat="32.7608903311192989349365234375" lon="-16.80203209631145000457763671875">
        <ele>354.600006103515625</ele>
        <time>2018-06-23T10:32:48.000Z</time>
      </trkpt>
      <trkpt lat="32.76091388426721096038818359375" lon="-16.80204114876687526702880859375">
        <ele>353.20001220703125</ele>
        <time>2018-06-23T10:32:50.000Z</time>
      </trkpt>
      <trkpt lat="32.760939784348011016845703125" lon="-16.80205573327839374542236328125">
        <ele>351.399993896484375</ele>
        <time>2018-06-23T10:32:52.000Z</time>
      </trkpt>
      <trkpt lat="32.7609689533710479736328125" lon="-16.8020759336650371551513671875">
        <ele>349.600006103515625</ele>
        <time>2018-06-23T10:32:54.000Z</time>
      </trkpt>
      <trkpt lat="32.7610026486217975616455078125" lon="-16.80209395475685596466064453125">
        <ele>348.399993896484375</ele>
        <time>2018-06-23T10:32:56.000Z</time>
      </trkpt>
      <trkpt lat="32.761071883141994476318359375" lon="-16.80215681903064250946044921875">
        <ele>347</ele>
        <time>2018-06-23T10:32:59.000Z</time>
      </trkpt>
      <trkpt lat="32.76113483123481273651123046875" lon="-16.80221700109541416168212890625">
        <ele>345.79998779296875</ele>
        <time>2018-06-23T10:33:02.000Z</time>
      </trkpt>
      <trkpt lat="32.7611565403640270233154296875" lon="-16.80227701552212238311767578125">
        <ele>344.20001220703125</ele>
        <time>2018-06-23T10:33:05.000Z</time>
      </trkpt>
      <trkpt lat="32.7611629106104373931884765625" lon="-16.80235614068806171417236328125">
        <ele>343</ele>
        <time>2018-06-23T10:33:08.000Z</time>
      </trkpt>
      <trkpt lat="32.7611528523266315460205078125" lon="-16.80244515649974346160888671875">
        <ele>341.600006103515625</ele>
        <time>2018-06-23T10:33:11.000Z</time>
      </trkpt>
      <trkpt lat="32.76113231666386127471923828125" lon="-16.80252998135983943939208984375">
        <ele>340.399993896484375</ele>
        <time>2018-06-23T10:33:14.000Z</time>
      </trkpt>
      <trkpt lat="32.76112695224583148956298828125" lon="-16.80257272906601428985595703125">
        <ele>339.399993896484375</ele>
        <time>2018-06-23T10:33:16.000Z</time>
      </trkpt>
      <trkpt lat="32.76113550178706645965576171875" lon="-16.8025932647287845611572265625">
        <ele>339</ele>
        <time>2018-06-23T10:33:17.000Z</time>
      </trkpt>
      <trkpt lat="32.7611781656742095947265625" lon="-16.80266090668737888336181640625">
        <ele>338</ele>
        <time>2018-06-23T10:33:20.000Z</time>
      </trkpt>
      <trkpt lat="32.76124832220375537872314453125" lon="-16.8027625791728496551513671875">
        <ele>336.79998779296875</ele>
        <time>2018-06-23T10:33:24.000Z</time>
      </trkpt>
      <trkpt lat="32.76132426224648952484130859375" lon="-16.80288990028202533721923828125">
        <ele>335.399993896484375</ele>
        <time>2018-06-23T10:33:29.000Z</time>
      </trkpt>
      <trkpt lat="32.761405818164348602294921875" lon="-16.8030153773725032806396484375">
        <ele>334.20001220703125</ele>
        <time>2018-06-23T10:33:34.000Z</time>
      </trkpt>
      <trkpt lat="32.7614395134150981903076171875" lon="-16.80308084003627300262451171875">
        <ele>332.600006103515625</ele>
        <time>2018-06-23T10:33:37.000Z</time>
      </trkpt>
      <trkpt lat="32.7614760585129261016845703125" lon="-16.80324143730103969573974609375">
        <ele>331.20001220703125</ele>
        <time>2018-06-23T10:33:42.000Z</time>
      </trkpt>
      <trkpt lat="32.76148821227252483367919921875" lon="-16.80333548225462436676025390625">
        <ele>330.20001220703125</ele>
        <time>2018-06-23T10:33:45.000Z</time>
      </trkpt>
      <trkpt lat="32.76147932745516300201416015625" lon="-16.80348350666463375091552734375">
        <ele>329</ele>
        <time>2018-06-23T10:33:50.000Z</time>
      </trkpt>
      <trkpt lat="32.76148519478738307952880859375" lon="-16.80371032096445560455322265625">
        <ele>327.79998779296875</ele>
        <time>2018-06-23T10:33:57.000Z</time>
      </trkpt>
      <trkpt lat="32.76148754172027111053466796875" lon="-16.8039142526686191558837890625">
        <ele>326.399993896484375</ele>
        <time>2018-06-23T10:34:03.000Z</time>
      </trkpt>
      <trkpt lat="32.76148452423512935638427734375" lon="-16.8039826489984989166259765625">
        <ele>325.399993896484375</ele>
        <time>2018-06-23T10:34:06.000Z</time>
      </trkpt>
      <trkpt lat="32.7614810876548290252685546875" lon="-16.804023049771785736083984375">
        <ele>324.20001220703125</ele>
        <time>2018-06-23T10:34:08.000Z</time>
      </trkpt>
      <trkpt lat="32.7614794112741947174072265625" lon="-16.8040637858211994171142578125">
        <ele>323</ele>
        <time>2018-06-23T10:34:10.000Z</time>
      </trkpt>
      <trkpt lat="32.76148217730224132537841796875" lon="-16.804103851318359375">
        <ele>321.79998779296875</ele>
        <time>2018-06-23T10:34:12.000Z</time>
      </trkpt>
      <trkpt lat="32.76148787699639797210693359375" lon="-16.804138384759426116943359375">
        <ele>320.399993896484375</ele>
        <time>2018-06-23T10:34:14.000Z</time>
      </trkpt>
      <trkpt lat="32.76149122975766658782958984375" lon="-16.8041734211146831512451171875">
        <ele>319</ele>
        <time>2018-06-23T10:34:16.000Z</time>
      </trkpt>
      <trkpt lat="32.76149089448153972625732421875" lon="-16.80421172641217708587646484375">
        <ele>317.79998779296875</ele>
        <time>2018-06-23T10:34:18.000Z</time>
      </trkpt>
      <trkpt lat="32.76148770935833454132080078125" lon="-16.80425145663321018218994140625">
        <ele>316.600006103515625</ele>
        <time>2018-06-23T10:34:20.000Z</time>
      </trkpt>
      <trkpt lat="32.7614919841289520263671875" lon="-16.80428850464522838592529296875">
        <ele>315.399993896484375</ele>
        <time>2018-06-23T10:34:22.000Z</time>
      </trkpt>
      <trkpt lat="32.7614871226251125335693359375" lon="-16.80432379245758056640625">
        <ele>314.20001220703125</ele>
        <time>2018-06-23T10:34:24.000Z</time>
      </trkpt>
      <trkpt lat="32.761474214494228363037109375" lon="-16.80435606278479099273681640625">
        <ele>313</ele>
        <time>2018-06-23T10:34:26.000Z</time>
      </trkpt>
      <trkpt lat="32.76146675460040569305419921875" lon="-16.80439244024455547332763671875">
        <ele>311.600006103515625</ele>
        <time>2018-06-23T10:34:28.000Z</time>
      </trkpt>
      <trkpt lat="32.76145233772695064544677734375" lon="-16.80443602614104747772216796875">
        <ele>310.600006103515625</ele>
        <time>2018-06-23T10:34:30.000Z</time>
      </trkpt>
      <trkpt lat="32.76143624447286128997802734375" lon="-16.80452956818044185638427734375">
        <ele>309.399993896484375</ele>
        <time>2018-06-23T10:34:33.000Z</time>
      </trkpt>
      <trkpt lat="32.7614276111125946044921875" lon="-16.8045941926538944244384765625">
        <ele>308.20001220703125</ele>
        <time>2018-06-23T10:34:35.000Z</time>
      </trkpt>
      <trkpt lat="32.76142031885683536529541015625" lon="-16.80469251237809658050537109375">
        <ele>307.20001220703125</ele>
        <time>2018-06-23T10:34:38.000Z</time>
      </trkpt>
      <trkpt lat="32.76141696609556674957275390625" lon="-16.80475554428994655609130859375">
        <ele>306</ele>
        <time>2018-06-23T10:34:40.000Z</time>
      </trkpt>
      <trkpt lat="32.76140757836401462554931640625" lon="-16.8049009703099727630615234375">
        <ele>304.600006103515625</ele>
        <time>2018-06-23T10:34:44.000Z</time>
      </trkpt>
      <trkpt lat="32.76139207184314727783203125" lon="-16.8050171434879302978515625">
        <ele>303.399993896484375</ele>
        <time>2018-06-23T10:34:47.000Z</time>
      </trkpt>
      <trkpt lat="32.76138595305383205413818359375" lon="-16.80517363362014293670654296875">
        <ele>302.399993896484375</ele>
        <time>2018-06-23T10:34:51.000Z</time>
      </trkpt>
      <trkpt lat="32.761402465403079986572265625" lon="-16.805405057966709136962890625">
        <ele>302</ele>
        <time>2018-06-23T10:34:58.000Z</time>
      </trkpt>
      <trkpt lat="32.76140573434531688690185546875" lon="-16.8056345544755458831787109375">
        <ele>302</ele>
        <time>2018-06-23T10:35:05.000Z</time>
      </trkpt>
      <trkpt lat="32.76141378097236156463623046875" lon="-16.80587746202945709228515625">
        <ele>301.600006103515625</ele>
        <time>2018-06-23T10:35:12.000Z</time>
      </trkpt>
      <trkpt lat="32.761453092098236083984375" lon="-16.8061136640608310699462890625">
        <ele>301.600006103515625</ele>
        <time>2018-06-23T10:35:19.000Z</time>
      </trkpt>
      <trkpt lat="32.76145870797336101531982421875" lon="-16.8063275702297687530517578125">
        <ele>301.600006103515625</ele>
        <time>2018-06-23T10:35:25.000Z</time>
      </trkpt>
      <trkpt lat="32.76145569048821926116943359375" lon="-16.80643745698034763336181640625">
        <ele>301.20001220703125</ele>
        <time>2018-06-23T10:35:28.000Z</time>
      </trkpt>
      <trkpt lat="32.7614549361169338226318359375" lon="-16.8065837211906909942626953125">
        <ele>300.20001220703125</ele>
        <time>2018-06-23T10:35:32.000Z</time>
      </trkpt>
      <trkpt lat="32.761453427374362945556640625" lon="-16.80669159628450870513916015625">
        <ele>299.20001220703125</ele>
        <time>2018-06-23T10:35:35.000Z</time>
      </trkpt>
      <trkpt lat="32.76145434938371181488037109375" lon="-16.80679905228316783905029296875">
        <ele>297.79998779296875</ele>
        <time>2018-06-23T10:35:38.000Z</time>
      </trkpt>
      <trkpt lat="32.76146558113396167755126953125" lon="-16.80690399371087551116943359375">
        <ele>296.79998779296875</ele>
        <time>2018-06-23T10:35:41.000Z</time>
      </trkpt>
      <trkpt lat="32.76148058474063873291015625" lon="-16.80697088129818439483642578125">
        <ele>295.79998779296875</ele>
        <time>2018-06-23T10:35:43.000Z</time>
      </trkpt>
      <trkpt lat="32.7615310437977313995361328125" lon="-16.80709845386445522308349609375">
        <ele>294.399993896484375</ele>
        <time>2018-06-23T10:35:47.000Z</time>
      </trkpt>
      <trkpt lat="32.76157856918871402740478515625" lon="-16.807228624820709228515625">
        <ele>293.399993896484375</ele>
        <time>2018-06-23T10:35:51.000Z</time>
      </trkpt>
      <trkpt lat="32.76166163384914398193359375" lon="-16.807377822697162628173828125">
        <ele>292.399993896484375</ele>
        <time>2018-06-23T10:35:56.000Z</time>
      </trkpt>
      <trkpt lat="32.76178979314863681793212890625" lon="-16.8075271882116794586181640625">
        <ele>291.20001220703125</ele>
        <time>2018-06-23T10:36:02.000Z</time>
      </trkpt>
      <trkpt lat="32.76189557276666164398193359375" lon="-16.80772407911717891693115234375">
        <ele>290.600006103515625</ele>
        <time>2018-06-23T10:36:09.000Z</time>
      </trkpt>
      <trkpt lat="32.7619310282170772552490234375" lon="-16.8078567646443843841552734375">
        <ele>290.20001220703125</ele>
        <time>2018-06-23T10:36:13.000Z</time>
      </trkpt>
      <trkpt lat="32.76201560162007808685302734375" lon="-16.80799514986574649810791015625">
        <ele>288.79998779296875</ele>
        <time>2018-06-23T10:36:18.000Z</time>
      </trkpt>
      <trkpt lat="32.7621127478778362274169921875" lon="-16.80810210295021533966064453125">
        <ele>287.79998779296875</ele>
        <time>2018-06-23T10:36:22.000Z</time>
      </trkpt>
      <trkpt lat="32.76222263462841510772705078125" lon="-16.808211319148540496826171875">
        <ele>286.79998779296875</ele>
        <time>2018-06-23T10:36:27.000Z</time>
      </trkpt>
      <trkpt lat="32.76223026216030120849609375" lon="-16.8082242272794246673583984375">
        <ele>286.399993896484375</ele>
        <time>2018-06-23T10:36:28.000Z</time>
      </trkpt>
      <trkpt lat="32.76222749613225460052490234375" lon="-16.80824861861765384674072265625">
        <ele>285.20001220703125</ele>
        <time>2018-06-23T10:36:30.000Z</time>
      </trkpt>
      <trkpt lat="32.7622186951339244842529296875" lon="-16.808281727135181427001953125">
        <ele>283.79998779296875</ele>
        <time>2018-06-23T10:36:32.000Z</time>
      </trkpt>
      <trkpt lat="32.76221442036330699920654296875" lon="-16.80831399746239185333251953125">
        <ele>282.20001220703125</ele>
        <time>2018-06-23T10:36:34.000Z</time>
      </trkpt>
      <trkpt lat="32.76220134459435939788818359375" lon="-16.80834433995187282562255859375">
        <ele>280.600006103515625</ele>
        <time>2018-06-23T10:36:36.000Z</time>
      </trkpt>
      <trkpt lat="32.762182988226413726806640625" lon="-16.808376610279083251953125">
        <ele>279.20001220703125</ele>
        <time>2018-06-23T10:36:38.000Z</time>
      </trkpt>
      <trkpt lat="32.7621717564761638641357421875" lon="-16.808414496481418609619140625">
        <ele>277.79998779296875</ele>
        <time>2018-06-23T10:36:40.000Z</time>
      </trkpt>
      <trkpt lat="32.7621563337743282318115234375" lon="-16.808452717959880828857421875">
        <ele>276.600006103515625</ele>
        <time>2018-06-23T10:36:42.000Z</time>
      </trkpt>
      <trkpt lat="32.762134037911891937255859375" lon="-16.80848448537290096282958984375">
        <ele>275.20001220703125</ele>
        <time>2018-06-23T10:36:44.000Z</time>
      </trkpt>
      <trkpt lat="32.76212071068584918975830078125" lon="-16.80852404795587062835693359375">
        <ele>273.600006103515625</ele>
        <time>2018-06-23T10:36:46.000Z</time>
      </trkpt>
      <trkpt lat="32.76211400516331195831298828125" lon="-16.80857266299426555633544921875">
        <ele>272.20001220703125</ele>
        <time>2018-06-23T10:36:48.000Z</time>
      </trkpt>
      <trkpt lat="32.7621087245643138885498046875" lon="-16.8086185120046138763427734375">
        <ele>270.79998779296875</ele>
        <time>2018-06-23T10:36:50.000Z</time>
      </trkpt>
      <trkpt lat="32.7621036954224109649658203125" lon="-16.80865430273115634918212890625">
        <ele>269.600006103515625</ele>
        <time>2018-06-23T10:36:52.000Z</time>
      </trkpt>
      <trkpt lat="32.76210327632725238800048828125" lon="-16.808683387935161590576171875">
        <ele>268</ele>
        <time>2018-06-23T10:36:54.000Z</time>
      </trkpt>
      <trkpt lat="32.76211090385913848876953125" lon="-16.8087184242904186248779296875">
        <ele>266.600006103515625</ele>
        <time>2018-06-23T10:36:56.000Z</time>
      </trkpt>
      <trkpt lat="32.76215574704110622406005859375" lon="-16.80876092053949832916259765625">
        <ele>265.600006103515625</ele>
        <time>2018-06-23T10:36:59.000Z</time>
      </trkpt>
      <trkpt lat="32.7621627040207386016845703125" lon="-16.8087958730757236480712890625">
        <ele>264.399993896484375</ele>
        <time>2018-06-23T10:37:01.000Z</time>
      </trkpt>
      <trkpt lat="32.76216111145913600921630859375" lon="-16.80882831104099750518798828125">
        <ele>263.20001220703125</ele>
        <time>2018-06-23T10:37:03.000Z</time>
      </trkpt>
      <trkpt lat="32.76217955164611339569091796875" lon="-16.808830238878726959228515625">
        <ele>261.79998779296875</ele>
        <time>2018-06-23T10:37:05.000Z</time>
      </trkpt>
      <trkpt lat="32.76219480670988559722900390625" lon="-16.80883191525936126708984375">
        <ele>260.600006103515625</ele>
        <time>2018-06-23T10:37:07.000Z</time>
      </trkpt>
      <trkpt lat="32.76218709535896778106689453125" lon="-16.808854043483734130859375">
        <ele>259.600006103515625</ele>
        <time>2018-06-23T10:37:09.000Z</time>
      </trkpt>
      <trkpt lat="32.762172929942607879638671875" lon="-16.80887022055685520172119140625">
        <ele>258</ele>
        <time>2018-06-23T10:37:11.000Z</time>
      </trkpt>
      <trkpt lat="32.76215256191790103912353515625" lon="-16.80885831825435161590576171875">
        <ele>256.79998779296875</ele>
        <time>2018-06-23T10:37:26.000Z</time>
      </trkpt>
      <trkpt lat="32.762136720120906829833984375" lon="-16.808903329074382781982421875">
        <ele>255.600006103515625</ele>
        <time>2018-06-23T10:37:29.000Z</time>
      </trkpt>
      <trkpt lat="32.762127332389354705810546875" lon="-16.8089360184967517852783203125">
        <ele>254</ele>
        <time>2018-06-23T10:37:31.000Z</time>
      </trkpt>
      <trkpt lat="32.76211936958134174346923828125" lon="-16.808965690433979034423828125">
        <ele>252.399993896484375</ele>
        <time>2018-06-23T10:37:33.000Z</time>
      </trkpt>
      <trkpt lat="32.76211149059236049652099609375" lon="-16.80899293161928653717041015625">
        <ele>251</ele>
        <time>2018-06-23T10:37:35.000Z</time>
      </trkpt>
      <trkpt lat="32.7621063776314258575439453125" lon="-16.80902025662362575531005859375">
        <ele>249.600006103515625</ele>
        <time>2018-06-23T10:37:37.000Z</time>
      </trkpt>
      <trkpt lat="32.7620979957282543182373046875" lon="-16.8090449832379817962646484375">
        <ele>248.1999969482421875</ele>
        <time>2018-06-23T10:37:39.000Z</time>
      </trkpt>
      <trkpt lat="32.7621030248701572418212890625" lon="-16.80906803347170352935791015625">
        <ele>246.8000030517578125</ele>
        <time>2018-06-23T10:37:41.000Z</time>
      </trkpt>
      <trkpt lat="32.76211115531623363494873046875" lon="-16.80908664129674434661865234375">
        <ele>245.600006103515625</ele>
        <time>2018-06-23T10:37:43.000Z</time>
      </trkpt>
      <trkpt lat="32.7622134983539581298828125" lon="-16.80907624773681163787841796875">
        <ele>244.8000030517578125</ele>
        <time>2018-06-23T10:37:51.000Z</time>
      </trkpt>
      <trkpt lat="32.76237149722874164581298828125" lon="-16.80898857302963733673095703125">
        <ele>245.399993896484375</ele>
        <time>2018-06-23T10:37:58.000Z</time>
      </trkpt>
      <trkpt lat="32.7624728344380855560302734375" lon="-16.80903718806803226470947265625">
        <ele>244.600006103515625</ele>
        <time>2018-06-23T10:38:01.000Z</time>
      </trkpt>
      <trkpt lat="32.76259244419634342193603515625" lon="-16.80922351777553558349609375">
        <ele>243.600006103515625</ele>
        <time>2018-06-23T10:38:08.000Z</time>
      </trkpt>
      <trkpt lat="32.7625999040901660919189453125" lon="-16.80925746448338031768798828125">
        <ele>243.399993896484375</ele>
        <time>2018-06-23T10:38:09.000Z</time>
      </trkpt>
      <trkpt lat="32.76262915693223476409912109375" lon="-16.80947371758520603179931640625">
        <ele>243</ele>
        <time>2018-06-23T10:38:15.000Z</time>
      </trkpt>
      <trkpt lat="32.76265078224241733551025390625" lon="-16.80969516746699810028076171875">
        <ele>242.399993896484375</ele>
        <time>2018-06-23T10:38:21.000Z</time>
      </trkpt>
      <trkpt lat="32.7626582421362400054931640625" lon="-16.80972911417484283447265625">
        <ele>242.399993896484375</ele>
        <time>2018-06-23T10:38:22.000Z</time>
      </trkpt>
      <trkpt lat="32.7627252973616123199462890625" lon="-16.8099549226462841033935546875">
        <ele>242.1999969482421875</ele>
        <time>2018-06-23T10:38:29.000Z</time>
      </trkpt>
      <trkpt lat="32.76287491433322429656982421875" lon="-16.81010236032307147979736328125">
        <ele>242</ele>
        <time>2018-06-23T10:38:36.000Z</time>
      </trkpt>
      <trkpt lat="32.76306753046810626983642578125" lon="-16.8101871013641357421875">
        <ele>242</ele>
        <time>2018-06-23T10:38:43.000Z</time>
      </trkpt>
      <trkpt lat="32.7632178179919719696044921875" lon="-16.81033353321254253387451171875">
        <ele>241.600006103515625</ele>
        <time>2018-06-23T10:38:50.000Z</time>
      </trkpt>
      <trkpt lat="32.76332032866775989532470703125" lon="-16.81046403944492340087890625">
        <ele>241.1999969482421875</ele>
        <time>2018-06-23T10:38:55.000Z</time>
      </trkpt>
      <trkpt lat="32.76338361203670501708984375" lon="-16.81067987345159053802490234375">
        <ele>240.8000030517578125</ele>
        <time>2018-06-23T10:39:01.000Z</time>
      </trkpt>
      <trkpt lat="32.76348142884671688079833984375" lon="-16.81085765361785888671875">
        <ele>240.600006103515625</ele>
        <time>2018-06-23T10:39:07.000Z</time>
      </trkpt>
      <trkpt lat="32.7634789980947971343994140625" lon="-16.81089051067829132080078125">
        <ele>240.600006103515625</ele>
        <time>2018-06-23T10:39:08.000Z</time>
      </trkpt>
      <trkpt lat="32.76345494203269481658935546875" lon="-16.81110567413270473480224609375">
        <ele>240.1999969482421875</ele>
        <time>2018-06-23T10:39:14.000Z</time>
      </trkpt>
      <trkpt lat="32.76351529173552989959716796875" lon="-16.81127331219613552093505859375">
        <ele>240</ele>
        <time>2018-06-23T10:39:19.000Z</time>
      </trkpt>
      <trkpt lat="32.7634561993181705474853515625" lon="-16.81147900409996509552001953125">
        <ele>240</ele>
        <time>2018-06-23T10:39:25.000Z</time>
      </trkpt>
      <trkpt lat="32.7633888088166713714599609375" lon="-16.8116919882595539093017578125">
        <ele>240</ele>
        <time>2018-06-23T10:39:31.000Z</time>
      </trkpt>
      <trkpt lat="32.76337397284805774688720703125" lon="-16.81191570125520229339599609375">
        <ele>239.8000030517578125</ele>
        <time>2018-06-23T10:39:37.000Z</time>
      </trkpt>
      <trkpt lat="32.76327104307711124420166015625" lon="-16.8121291883289813995361328125">
        <ele>239.8000030517578125</ele>
        <time>2018-06-23T10:39:43.000Z</time>
      </trkpt>
      <trkpt lat="32.76317733339965343475341796875" lon="-16.8123283423483371734619140625">
        <ele>239.600006103515625</ele>
        <time>2018-06-23T10:39:49.000Z</time>
      </trkpt>
      <trkpt lat="32.76315051130950450897216796875" lon="-16.81247142143547534942626953125">
        <ele>239.1999969482421875</ele>
        <time>2018-06-23T10:39:53.000Z</time>
      </trkpt>
      <trkpt lat="32.763125784695148468017578125" lon="-16.8125586770474910736083984375">
        <ele>237.600006103515625</ele>
        <time>2018-06-23T10:39:56.000Z</time>
      </trkpt>
      <trkpt lat="32.76311136782169342041015625" lon="-16.81262187659740447998046875">
        <ele>236.1999969482421875</ele>
        <time>2018-06-23T10:39:58.000Z</time>
      </trkpt>
      <trkpt lat="32.76309619657695293426513671875" lon="-16.812689602375030517578125">
        <ele>235</ele>
        <time>2018-06-23T10:40:00.000Z</time>
      </trkpt>
      <trkpt lat="32.76308714412152767181396484375" lon="-16.81275187991559505462646484375">
        <ele>233.399993896484375</ele>
        <time>2018-06-23T10:40:02.000Z</time>
      </trkpt>
      <trkpt lat="32.76309183798730373382568359375" lon="-16.812812983989715576171875">
        <ele>231.8000030517578125</ele>
        <time>2018-06-23T10:40:04.000Z</time>
      </trkpt>
      <trkpt lat="32.76310256682336330413818359375" lon="-16.81287643499672412872314453125">
        <ele>230.1999969482421875</ele>
        <time>2018-06-23T10:40:06.000Z</time>
      </trkpt>
      <trkpt lat="32.7631199173629283905029296875" lon="-16.81293309666216373443603515625">
        <ele>228.600006103515625</ele>
        <time>2018-06-23T10:40:08.000Z</time>
      </trkpt>
      <trkpt lat="32.76313022710382938385009765625" lon="-16.8129564821720123291015625">
        <ele>227.600006103515625</ele>
        <time>2018-06-23T10:40:09.000Z</time>
      </trkpt>
      <trkpt lat="32.763147912919521331787109375" lon="-16.81299830786883831024169921875">
        <ele>225.8000030517578125</ele>
        <time>2018-06-23T10:40:11.000Z</time>
      </trkpt>
      <trkpt lat="32.76316995732486248016357421875" lon="-16.8130300752818584442138671875">
        <ele>223.8000030517578125</ele>
        <time>2018-06-23T10:40:13.000Z</time>
      </trkpt>
      <trkpt lat="32.7631817758083343505859375" lon="-16.8130438216030597686767578125">
        <ele>222.8000030517578125</ele>
        <time>2018-06-23T10:40:14.000Z</time>
      </trkpt>
      <trkpt lat="32.7631963603198528289794921875" lon="-16.81307315826416015625">
        <ele>221</ele>
        <time>2018-06-23T10:40:16.000Z</time>
      </trkpt>
      <trkpt lat="32.76319610886275768280029296875" lon="-16.813107021152973175048828125">
        <ele>219.399993896484375</ele>
        <time>2018-06-23T10:40:18.000Z</time>
      </trkpt>
      <trkpt lat="32.76318353600800037384033203125" lon="-16.8131695501506328582763671875">
        <ele>218.399993896484375</ele>
        <time>2018-06-23T10:40:20.000Z</time>
      </trkpt>
      <trkpt lat="32.763157300651073455810546875" lon="-16.81324976496398448944091796875">
        <ele>216.8000030517578125</ele>
        <time>2018-06-23T10:40:22.000Z</time>
      </trkpt>
      <trkpt lat="32.763135172426700592041015625" lon="-16.81333978660404682159423828125">
        <ele>215.399993896484375</ele>
        <time>2018-06-23T10:40:24.000Z</time>
      </trkpt>
      <trkpt lat="32.76311782188713550567626953125" lon="-16.81343198753893375396728515625">
        <ele>214</ele>
        <time>2018-06-23T10:40:26.000Z</time>
      </trkpt>
      <trkpt lat="32.7631080150604248046875" lon="-16.81352267973124980926513671875">
        <ele>213</ele>
        <time>2018-06-23T10:40:28.000Z</time>
      </trkpt>
      <trkpt lat="32.763088904321193695068359375" lon="-16.81374563835561275482177734375">
        <ele>213.1999969482421875</ele>
        <time>2018-06-23T10:40:34.000Z</time>
      </trkpt>
      <trkpt lat="32.763119079172611236572265625" lon="-16.8139748834073543548583984375">
        <ele>212.8000030517578125</ele>
        <time>2018-06-23T10:40:41.000Z</time>
      </trkpt>
      <trkpt lat="32.7632148005068302154541015625" lon="-16.81416389532387256622314453125">
        <ele>212.600006103515625</ele>
        <time>2018-06-23T10:40:48.000Z</time>
      </trkpt>
      <trkpt lat="32.7633292973041534423828125" lon="-16.8142895400524139404296875">
        <ele>211.8000030517578125</ele>
        <time>2018-06-23T10:40:53.000Z</time>
      </trkpt>
      <trkpt lat="32.76348687708377838134765625" lon="-16.81441493332386016845703125">
        <ele>211.1999969482421875</ele>
        <time>2018-06-23T10:40:59.000Z</time>
      </trkpt>
      <trkpt lat="32.76356072165071964263916015625" lon="-16.81454242207109928131103515625">
        <ele>210.8000030517578125</ele>
        <time>2018-06-23T10:41:03.000Z</time>
      </trkpt>
      <trkpt lat="32.7636181376874446868896484375" lon="-16.81474425829946994781494140625">
        <ele>210.8000030517578125</ele>
        <time>2018-06-23T10:41:09.000Z</time>
      </trkpt>
      <trkpt lat="32.7635319717228412628173828125" lon="-16.81494106538593769073486328125">
        <ele>210.399993896484375</ele>
        <time>2018-06-23T10:41:15.000Z</time>
      </trkpt>
      <trkpt lat="32.7634929120540618896484375" lon="-16.8150494433939456939697265625">
        <ele>209.600006103515625</ele>
        <time>2018-06-23T10:41:18.000Z</time>
      </trkpt>
      <trkpt lat="32.76349358260631561279296875" lon="-16.81522973813116550445556640625">
        <ele>208.399993896484375</ele>
        <time>2018-06-23T10:41:23.000Z</time>
      </trkpt>
      <trkpt lat="32.76354311965405941009521484375" lon="-16.8154400400817394256591796875">
        <ele>207.600006103515625</ele>
        <time>2018-06-23T10:41:29.000Z</time>
      </trkpt>
      <trkpt lat="32.76355703361332416534423828125" lon="-16.81550852023065090179443359375">
        <ele>207.399993896484375</ele>
        <time>2018-06-23T10:41:31.000Z</time>
      </trkpt>
      <trkpt lat="32.76357195340096950531005859375" lon="-16.81569057516753673553466796875">
        <ele>206.399993896484375</ele>
        <time>2018-06-23T10:41:36.000Z</time>
      </trkpt>
      <trkpt lat="32.763548232614994049072265625" lon="-16.8158839456737041473388671875">
        <ele>205.1999969482421875</ele>
        <time>2018-06-23T10:41:41.000Z</time>
      </trkpt>
      <trkpt lat="32.7635286189615726470947265625" lon="-16.8160468898713588714599609375">
        <ele>204</ele>
        <time>2018-06-23T10:41:45.000Z</time>
      </trkpt>
      <trkpt lat="32.76351445354521274566650390625" lon="-16.81616515852510929107666015625">
        <ele>202.8000030517578125</ele>
        <time>2018-06-23T10:41:48.000Z</time>
      </trkpt>
      <trkpt lat="32.76349903084337711334228515625" lon="-16.81632759980857372283935546875">
        <ele>201.600006103515625</ele>
        <time>2018-06-23T10:41:52.000Z</time>
      </trkpt>
      <trkpt lat="32.76350221596658229827880859375" lon="-16.81644578464329242706298828125">
        <ele>200.399993896484375</ele>
        <time>2018-06-23T10:41:55.000Z</time>
      </trkpt>
      <trkpt lat="32.763551585376262664794921875" lon="-16.816616356372833251953125">
        <ele>199.399993896484375</ele>
        <time>2018-06-23T10:42:00.000Z</time>
      </trkpt>
      <trkpt lat="32.7635829336941242218017578125" lon="-16.81683185510337352752685546875">
        <ele>198.1999969482421875</ele>
        <time>2018-06-23T10:42:06.000Z</time>
      </trkpt>
      <trkpt lat="32.76358385570347309112548828125" lon="-16.81686580181121826171875">
        <ele>198.1999969482421875</ele>
        <time>2018-06-23T10:42:07.000Z</time>
      </trkpt>
      <trkpt lat="32.76357430033385753631591796875" lon="-16.816973425447940826416015625">
        <ele>197.1999969482421875</ele>
        <time>2018-06-23T10:42:10.000Z</time>
      </trkpt>
      <trkpt lat="32.76356306858360767364501953125" lon="-16.81708817370235919952392578125">
        <ele>195.600006103515625</ele>
        <time>2018-06-23T10:42:13.000Z</time>
      </trkpt>
      <trkpt lat="32.7635614760220050811767578125" lon="-16.817204765975475311279296875">
        <ele>194.1999969482421875</ele>
        <time>2018-06-23T10:42:16.000Z</time>
      </trkpt>
      <trkpt lat="32.76356927119195461273193359375" lon="-16.81731498800218105316162109375">
        <ele>192.600006103515625</ele>
        <time>2018-06-23T10:42:19.000Z</time>
      </trkpt>
      <trkpt lat="32.7635822631418704986572265625" lon="-16.81738673709332942962646484375">
        <ele>191.600006103515625</ele>
        <time>2018-06-23T10:42:21.000Z</time>
      </trkpt>
      <trkpt lat="32.76360581628978252410888671875" lon="-16.81745228357613086700439453125">
        <ele>190</ele>
        <time>2018-06-23T10:42:23.000Z</time>
      </trkpt>
      <trkpt lat="32.763636074960231781005859375" lon="-16.81751280091702938079833984375">
        <ele>189.1999969482421875</ele>
        <time>2018-06-23T10:42:25.000Z</time>
      </trkpt>
      <trkpt lat="32.7636747993528842926025390625" lon="-16.81757214479148387908935546875">
        <ele>188.1999969482421875</ele>
        <time>2018-06-23T10:42:27.000Z</time>
      </trkpt>
      <trkpt lat="32.76376985013484954833984375" lon="-16.81766686029732227325439453125">
        <ele>187.1999969482421875</ele>
        <time>2018-06-23T10:42:31.000Z</time>
      </trkpt>
      <trkpt lat="32.76383816264569759368896484375" lon="-16.81773492135107517242431640625">
        <ele>186</ele>
        <time>2018-06-23T10:42:34.000Z</time>
      </trkpt>
      <trkpt lat="32.7638947404921054840087890625" lon="-16.8178171478211879730224609375">
        <ele>184.8000030517578125</ele>
        <time>2018-06-23T10:42:37.000Z</time>
      </trkpt>
      <trkpt lat="32.7640132606029510498046875" lon="-16.8179453909397125244140625">
        <ele>183.600006103515625</ele>
        <time>2018-06-23T10:42:43.000Z</time>
      </trkpt>
      <trkpt lat="32.76401937939226627349853515625" lon="-16.8179717101156711578369140625">
        <ele>182.1999969482421875</ele>
        <time>2018-06-23T10:42:45.000Z</time>
      </trkpt>
      <trkpt lat="32.76403027586638927459716796875" lon="-16.81797212921082973480224609375">
        <ele>182</ele>
        <time>2018-06-23T10:42:46.000Z</time>
      </trkpt>
      <trkpt lat="32.7640395797789096832275390625" lon="-16.8179722130298614501953125">
        <ele>181.1999969482421875</ele>
        <time>2018-06-23T10:42:47.000Z</time>
      </trkpt>
      <trkpt lat="32.76406480930745601654052734375" lon="-16.81796827353537082672119140625">
        <ele>180</ele>
        <time>2018-06-23T10:42:49.000Z</time>
      </trkpt>
      <trkpt lat="32.76408475823700428009033203125" lon="-16.81796827353537082672119140625">
        <ele>178</ele>
        <time>2018-06-23T10:42:51.000Z</time>
      </trkpt>
      <trkpt lat="32.7640979178249835968017578125" lon="-16.8179646693170070648193359375">
        <ele>176.8000030517578125</ele>
        <time>2018-06-23T10:42:53.000Z</time>
      </trkpt>
      <trkpt lat="32.76411375962197780609130859375" lon="-16.817973554134368896484375">
        <ele>175.8000030517578125</ele>
        <time>2018-06-23T10:42:55.000Z</time>
      </trkpt>
      <trkpt lat="32.76414678432047367095947265625" lon="-16.817974559962749481201171875">
        <ele>174.1999969482421875</ele>
        <time>2018-06-23T10:42:57.000Z</time>
      </trkpt>
      <trkpt lat="32.76417595334351062774658203125" lon="-16.8179804272949695587158203125">
        <ele>172.8000030517578125</ele>
        <time>2018-06-23T10:42:59.000Z</time>
      </trkpt>
      <trkpt lat="32.7642031945288181304931640625" lon="-16.81798227131366729736328125">
        <ele>171.399993896484375</ele>
        <time>2018-06-23T10:43:01.000Z</time>
      </trkpt>
      <trkpt lat="32.7642330341041088104248046875" lon="-16.817973889410495758056640625">
        <ele>170</ele>
        <time>2018-06-23T10:43:03.000Z</time>
      </trkpt>
      <trkpt lat="32.76426161639392375946044921875" lon="-16.8179650045931339263916015625">
        <ele>168.8000030517578125</ele>
        <time>2018-06-23T10:43:05.000Z</time>
      </trkpt>
      <trkpt lat="32.76428894139826297760009765625" lon="-16.8179522641003131866455078125">
        <ele>167</ele>
        <time>2018-06-23T10:43:07.000Z</time>
      </trkpt>
      <trkpt lat="32.76431878097355365753173828125" lon="-16.8179308064281940460205078125">
        <ele>165.600006103515625</ele>
        <time>2018-06-23T10:43:09.000Z</time>
      </trkpt>
      <trkpt lat="32.76432037353515625" lon="-16.81788411922752857208251953125">
        <ele>164.600006103515625</ele>
        <time>2018-06-23T10:43:11.000Z</time>
      </trkpt>
      <trkpt lat="32.7643178589642047882080078125" lon="-16.817839778959751129150390625">
        <ele>163.1999969482421875</ele>
        <time>2018-06-23T10:43:13.000Z</time>
      </trkpt>
      <trkpt lat="32.76431878097355365753173828125" lon="-16.81781270541250705718994140625">
        <ele>161.8000030517578125</ele>
        <time>2018-06-23T10:43:15.000Z</time>
      </trkpt>
      <trkpt lat="32.76434610597789287567138671875" lon="-16.817814968526363372802734375">
        <ele>160.600006103515625</ele>
        <time>2018-06-23T10:43:17.000Z</time>
      </trkpt>
      <trkpt lat="32.76435717009007930755615234375" lon="-16.81780616752803325653076171875">
        <ele>160</ele>
        <time>2018-06-23T10:43:18.000Z</time>
      </trkpt>
      <trkpt lat="32.7643594332039356231689453125" lon="-16.81778957135975360870361328125">
        <ele>159.1999969482421875</ele>
        <time>2018-06-23T10:43:19.000Z</time>
      </trkpt>
      <trkpt lat="32.76434275321662425994873046875" lon="-16.8177464045584201812744140625">
        <ele>158</ele>
        <time>2018-06-23T10:43:21.000Z</time>
      </trkpt>
      <trkpt lat="32.7643235586583614349365234375" lon="-16.81770156137645244598388671875">
        <ele>156.8000030517578125</ele>
        <time>2018-06-23T10:43:23.000Z</time>
      </trkpt>
      <trkpt lat="32.7643124945461750030517578125" lon="-16.8176558800041675567626953125">
        <ele>155.600006103515625</ele>
        <time>2018-06-23T10:43:25.000Z</time>
      </trkpt>
      <trkpt lat="32.764316014945507049560546875" lon="-16.81758170016109943389892578125">
        <ele>153.8000030517578125</ele>
        <time>2018-06-23T10:43:28.000Z</time>
      </trkpt>
      <trkpt lat="32.76430956088006496429443359375" lon="-16.81753157638013362884521484375">
        <ele>152.600006103515625</ele>
        <time>2018-06-23T10:43:30.000Z</time>
      </trkpt>
      <trkpt lat="32.7643014304339885711669921875" lon="-16.8174812011420726776123046875">
        <ele>151.600006103515625</ele>
        <time>2018-06-23T10:43:32.000Z</time>
      </trkpt>
      <trkpt lat="32.7642948925495147705078125" lon="-16.81743417866528034210205078125">
        <ele>150.399993896484375</ele>
        <time>2018-06-23T10:43:34.000Z</time>
      </trkpt>
      <trkpt lat="32.76428407989442348480224609375" lon="-16.81738682091236114501953125">
        <ele>148.8000030517578125</ele>
        <time>2018-06-23T10:43:36.000Z</time>
      </trkpt>
      <trkpt lat="32.764284498989582061767578125" lon="-16.8173598311841487884521484375">
        <ele>147.399993896484375</ele>
        <time>2018-06-23T10:43:38.000Z</time>
      </trkpt>
      <trkpt lat="32.76429279707372188568115234375" lon="-16.81735538877546787261962890625">
        <ele>146.399993896484375</ele>
        <time>2018-06-23T10:43:39.000Z</time>
      </trkpt>
      <trkpt lat="32.76430084370076656341552734375" lon="-16.8173499405384063720703125">
        <ele>145.399993896484375</ele>
        <time>2018-06-23T10:43:40.000Z</time>
      </trkpt>
      <trkpt lat="32.7643037773668766021728515625" lon="-16.8173413909971714019775390625">
        <ele>145</ele>
        <time>2018-06-23T10:43:41.000Z</time>
      </trkpt>
      <trkpt lat="32.7643037773668766021728515625" lon="-16.81733543984591960906982421875">
        <ele>144.1999969482421875</ele>
        <time>2018-06-23T10:43:42.000Z</time>
      </trkpt>
      <trkpt lat="32.764305286109447479248046875" lon="-16.81733577512204647064208984375">
        <ele>142.399993896484375</ele>
        <time>2018-06-23T10:43:44.000Z</time>
      </trkpt>
      <trkpt lat="32.76430252008140087127685546875" lon="-16.8173635192215442657470703125">
        <ele>141.1999969482421875</ele>
        <time>2018-06-23T10:43:46.000Z</time>
      </trkpt>
      <trkpt lat="32.76430771686136722564697265625" lon="-16.8174035847187042236328125">
        <ele>140.1999969482421875</ele>
        <time>2018-06-23T10:43:48.000Z</time>
      </trkpt>
      <trkpt lat="32.76432766579091548919677734375" lon="-16.81743266992270946502685546875">
        <ele>139.1999969482421875</ele>
        <time>2018-06-23T10:43:50.000Z</time>
      </trkpt>
      <trkpt lat="32.7643369697034358978271484375" lon="-16.81744608096778392791748046875">
        <ele>139</ele>
        <time>2018-06-23T10:43:51.000Z</time>
      </trkpt>
      <trkpt lat="32.76453536935150623321533203125" lon="-16.81758170016109943389892578125">
        <ele>137.600006103515625</ele>
        <time>2018-06-23T10:43:58.000Z</time>
      </trkpt>
      <trkpt lat="32.76468624360859394073486328125" lon="-16.817633248865604400634765625">
        <ele>136.8000030517578125</ele>
        <time>2018-06-23T10:44:02.000Z</time>
      </trkpt>
      <trkpt lat="32.7647567354142665863037109375" lon="-16.81769770570099353790283203125">
        <ele>135.600006103515625</ele>
        <time>2018-06-23T10:44:05.000Z</time>
      </trkpt>
      <trkpt lat="32.7647765167057514190673828125" lon="-16.8177831172943115234375">
        <ele>134.1999969482421875</ele>
        <time>2018-06-23T10:44:08.000Z</time>
      </trkpt>
      <trkpt lat="32.76477660052478313446044921875" lon="-16.81782745756208896636962890625">
        <ele>132.8000030517578125</ele>
        <time>2018-06-23T10:44:10.000Z</time>
      </trkpt>
      <trkpt lat="32.76478230021893978118896484375" lon="-16.8178359232842922210693359375">
        <ele>132.1999969482421875</ele>
        <time>2018-06-23T10:44:11.000Z</time>
      </trkpt>
      <trkpt lat="32.7647902630269527435302734375" lon="-16.81783634237945079803466796875">
        <ele>131.399993896484375</ele>
        <time>2018-06-23T10:44:12.000Z</time>
      </trkpt>
      <trkpt lat="32.7648043446242809295654296875" lon="-16.8178308941423892974853515625">
        <ele>130.399993896484375</ele>
        <time>2018-06-23T10:44:13.000Z</time>
      </trkpt>
      <trkpt lat="32.764811553061008453369140625" lon="-16.81781974621117115020751953125">
        <ele>129.8000030517578125</ele>
        <time>2018-06-23T10:44:14.000Z</time>
      </trkpt>
      <trkpt lat="32.76482932269573211669921875" lon="-16.81778370402753353118896484375">
        <ele>128.8000030517578125</ele>
        <time>2018-06-23T10:44:16.000Z</time>
      </trkpt>
      <trkpt lat="32.76484633795917034149169921875" lon="-16.81775621138513088226318359375">
        <ele>127.59999847412109375</ele>
        <time>2018-06-23T10:44:18.000Z</time>
      </trkpt>
      <trkpt lat="32.76484667323529720306396484375" lon="-16.8177366815507411956787109375">
        <ele>125.8000030517578125</ele>
        <time>2018-06-23T10:44:20.000Z</time>
      </trkpt>
      <trkpt lat="32.764855809509754180908203125" lon="-16.8177339993417263031005859375">
        <ele>125.59999847412109375</ele>
        <time>2018-06-23T10:44:21.000Z</time>
      </trkpt>
      <trkpt lat="32.76485656388103961944580078125" lon="-16.817739866673946380615234375">
        <ele>125</ele>
        <time>2018-06-23T10:44:22.000Z</time>
      </trkpt>
      <trkpt lat="32.76485170237720012664794921875" lon="-16.817764006555080413818359375">
        <ele>123.59999847412109375</ele>
        <time>2018-06-23T10:44:24.000Z</time>
      </trkpt>
      <trkpt lat="32.76484248228371143341064453125" lon="-16.81779929436743259429931640625">
        <ele>122.8000030517578125</ele>
        <time>2018-06-23T10:44:26.000Z</time>
      </trkpt>
      <trkpt lat="32.7648492716252803802490234375" lon="-16.817882359027862548828125">
        <ele>121.59999847412109375</ele>
        <time>2018-06-23T10:44:29.000Z</time>
      </trkpt>
      <trkpt lat="32.76498782448470592498779296875" lon="-16.81801957078278064727783203125">
        <ele>122.40000152587890625</ele>
        <time>2018-06-23T10:44:37.000Z</time>
      </trkpt>
      <trkpt lat="32.76501464657485485076904296875" lon="-16.8180330656468868255615234375">
        <ele>122.8000030517578125</ele>
        <time>2018-06-23T10:44:38.000Z</time>
      </trkpt>
      <trkpt lat="32.76504683308303356170654296875" lon="-16.81805410422384738922119140625">
        <ele>123.1999969482421875</ele>
        <time>2018-06-23T10:44:40.000Z</time>
      </trkpt>
      <trkpt lat="32.7650293149054050445556640625" lon="-16.81806148029863834381103515625">
        <ele>121.40000152587890625</ele>
        <time>2018-06-23T10:44:43.000Z</time>
      </trkpt>
      <trkpt lat="32.76500039733946323394775390625" lon="-16.81806273758411407470703125">
        <ele>120</ele>
        <time>2018-06-23T10:44:45.000Z</time>
      </trkpt>
      <trkpt lat="32.76498849503695964813232421875" lon="-16.81806818582117557525634765625">
        <ele>119.40000152587890625</ele>
        <time>2018-06-23T10:44:46.000Z</time>
      </trkpt>
      <trkpt lat="32.76506611146032810211181640625" lon="-16.81819056160748004913330078125">
        <ele>119</ele>
        <time>2018-06-23T10:44:51.000Z</time>
      </trkpt>
      <trkpt lat="32.765255458652973175048828125" lon="-16.8182754702866077423095703125">
        <ele>118.40000152587890625</ele>
        <time>2018-06-23T10:44:57.000Z</time>
      </trkpt>
      <trkpt lat="32.76535562239587306976318359375" lon="-16.81840740144252777099609375">
        <ele>117.8000030517578125</ele>
        <time>2018-06-23T10:45:02.000Z</time>
      </trkpt>
      <trkpt lat="32.76547062210738658905029296875" lon="-16.8186083994805812835693359375">
        <ele>117.59999847412109375</ele>
        <time>2018-06-23T10:45:09.000Z</time>
      </trkpt>
      <trkpt lat="32.7655818499624729156494140625" lon="-16.81877947412431240081787109375">
        <ele>117</ele>
        <time>2018-06-23T10:45:15.000Z</time>
      </trkpt>
      <trkpt lat="32.76560540311038494110107421875" lon="-16.818802021443843841552734375">
        <ele>116.8000030517578125</ele>
        <time>2018-06-23T10:45:16.000Z</time>
      </trkpt>
      <trkpt lat="32.76576147414743900299072265625" lon="-16.81891224347054958343505859375">
        <ele>115.8000030517578125</ele>
        <time>2018-06-23T10:45:22.000Z</time>
      </trkpt>
      <trkpt lat="32.76584780775010585784912109375" lon="-16.81894920766353607177734375">
        <ele>115.59999847412109375</ele>
        <time>2018-06-23T10:45:25.000Z</time>
      </trkpt>
      <trkpt lat="32.7659114263951778411865234375" lon="-16.8189624510705471038818359375">
        <ele>114.1999969482421875</ele>
        <time>2018-06-23T10:45:28.000Z</time>
      </trkpt>
      <trkpt lat="32.76594202034175395965576171875" lon="-16.81900410912930965423583984375">
        <ele>113</ele>
        <time>2018-06-23T10:45:30.000Z</time>
      </trkpt>
      <trkpt lat="32.76596733368933200836181640625" lon="-16.8190556578338146209716796875">
        <ele>111.40000152587890625</ele>
        <time>2018-06-23T10:45:32.000Z</time>
      </trkpt>
      <trkpt lat="32.76599071919918060302734375" lon="-16.81911106221377849578857421875">
        <ele>110.1999969482421875</ele>
        <time>2018-06-23T10:45:34.000Z</time>
      </trkpt>
      <trkpt lat="32.76601485908031463623046875" lon="-16.8191683106124401092529296875">
        <ele>108.40000152587890625</ele>
        <time>2018-06-23T10:45:36.000Z</time>
      </trkpt>
      <trkpt lat="32.7660438604652881622314453125" lon="-16.81922589428722858428955078125">
        <ele>107.1999969482421875</ele>
        <time>2018-06-23T10:45:38.000Z</time>
      </trkpt>
      <trkpt lat="32.766092307865619659423828125" lon="-16.81931373663246631622314453125">
        <ele>105.40000152587890625</ele>
        <time>2018-06-23T10:45:41.000Z</time>
      </trkpt>
      <trkpt lat="32.766121812164783477783203125" lon="-16.81937190704047679901123046875">
        <ele>104.1999969482421875</ele>
        <time>2018-06-23T10:45:43.000Z</time>
      </trkpt>
      <trkpt lat="32.76615676470100879669189453125" lon="-16.81946561671793460845947265625">
        <ele>102.8000030517578125</ele>
        <time>2018-06-23T10:45:46.000Z</time>
      </trkpt>
      <trkpt lat="32.76617604307830333709716796875" lon="-16.8195357732474803924560546875">
        <ele>101.40000152587890625</ele>
        <time>2018-06-23T10:45:48.000Z</time>
      </trkpt>
      <trkpt lat="32.76619884185492992401123046875" lon="-16.8195976316928863525390625">
        <ele>100</ele>
        <time>2018-06-23T10:45:50.000Z</time>
      </trkpt>
      <trkpt lat="32.76625567115843296051025390625" lon="-16.8196732364594936370849609375">
        <ele>98.8000030517578125</ele>
        <time>2018-06-23T10:45:53.000Z</time>
      </trkpt>
      <trkpt lat="32.7663167752325534820556640625" lon="-16.81987012736499309539794921875">
        <ele>98.1999969482421875</ele>
        <time>2018-06-23T10:45:59.000Z</time>
      </trkpt>
      <trkpt lat="32.76630495674908161163330078125" lon="-16.82000524364411830902099609375">
        <ele>97.8000030517578125</ele>
        <time>2018-06-23T10:46:03.000Z</time>
      </trkpt>
      <trkpt lat="32.7662611193954944610595703125" lon="-16.820228956639766693115234375">
        <ele>97.40000152587890625</ele>
        <time>2018-06-23T10:46:10.000Z</time>
      </trkpt>
      <trkpt lat="32.7661803178489208221435546875" lon="-16.820371113717555999755859375">
        <ele>96.59999847412109375</ele>
        <time>2018-06-23T10:46:15.000Z</time>
      </trkpt>
      <trkpt lat="32.76610462926328182220458984375" lon="-16.820580661296844482421875">
        <ele>96</ele>
        <time>2018-06-23T10:46:22.000Z</time>
      </trkpt>
      <trkpt lat="32.76620638556778430938720703125" lon="-16.8207608722150325775146484375">
        <ele>95.8000030517578125</ele>
        <time>2018-06-23T10:46:29.000Z</time>
      </trkpt>
      <trkpt lat="32.7663731016218662261962890625" lon="-16.8208456970751285552978515625">
        <ele>95.8000030517578125</ele>
        <time>2018-06-23T10:46:35.000Z</time>
      </trkpt>
      <trkpt lat="32.76642322540283203125" lon="-16.8208850920200347900390625">
        <ele>95.40000152587890625</ele>
        <time>2018-06-23T10:46:37.000Z</time>
      </trkpt>
      <trkpt lat="32.76647150516510009765625" lon="-16.82097033597528934478759765625">
        <ele>93.8000030517578125</ele>
        <time>2018-06-23T10:46:41.000Z</time>
      </trkpt>
      <trkpt lat="32.76648826897144317626953125" lon="-16.82102389633655548095703125">
        <ele>92.8000030517578125</ele>
        <time>2018-06-23T10:46:43.000Z</time>
      </trkpt>
      <trkpt lat="32.766506373882293701171875" lon="-16.82110729627311229705810546875">
        <ele>91.59999847412109375</ele>
        <time>2018-06-23T10:46:46.000Z</time>
      </trkpt>
      <trkpt lat="32.76651785708963871002197265625" lon="-16.82115540839731693267822265625">
        <ele>90.1999969482421875</ele>
        <time>2018-06-23T10:46:48.000Z</time>
      </trkpt>
      <trkpt lat="32.7665286697447299957275390625" lon="-16.82120318524539470672607421875">
        <ele>88.59999847412109375</ele>
        <time>2018-06-23T10:46:50.000Z</time>
      </trkpt>
      <trkpt lat="32.76653696782886981964111328125" lon="-16.82124962098896503448486328125">
        <ele>87.40000152587890625</ele>
        <time>2018-06-23T10:46:52.000Z</time>
      </trkpt>
      <trkpt lat="32.7665340341627597808837890625" lon="-16.8213127367198467254638671875">
        <ele>85.8000030517578125</ele>
        <time>2018-06-23T10:46:54.000Z</time>
      </trkpt>
      <trkpt lat="32.76652892120182514190673828125" lon="-16.82137920521199703216552734375">
        <ele>85</ele>
        <time>2018-06-23T10:46:56.000Z</time>
      </trkpt>
      <trkpt lat="32.76654166169464588165283203125" lon="-16.82145011611282825469970703125">
        <ele>83.59999847412109375</ele>
        <time>2018-06-23T10:46:59.000Z</time>
      </trkpt>
      <trkpt lat="32.7665742672979831695556640625" lon="-16.8214800395071506500244140625">
        <ele>82.40000152587890625</ele>
        <time>2018-06-23T10:47:01.000Z</time>
      </trkpt>
      <trkpt lat="32.76661542244255542755126953125" lon="-16.821504347026348114013671875">
        <ele>81</ele>
        <time>2018-06-23T10:47:03.000Z</time>
      </trkpt>
      <trkpt lat="32.7666570805013179779052734375" lon="-16.82152957655489444732666015625">
        <ele>80</ele>
        <time>2018-06-23T10:47:05.000Z</time>
      </trkpt>
      <trkpt lat="32.76669790036976337432861328125" lon="-16.8215501122176647186279296875">
        <ele>78.59999847412109375</ele>
        <time>2018-06-23T10:47:07.000Z</time>
      </trkpt>
      <trkpt lat="32.7667375467717647552490234375" lon="-16.8215682171285152435302734375">
        <ele>77.40000152587890625</ele>
        <time>2018-06-23T10:47:09.000Z</time>
      </trkpt>
      <trkpt lat="32.76677501387894153594970703125" lon="-16.8215878307819366455078125">
        <ele>75.8000030517578125</ele>
        <time>2018-06-23T10:47:11.000Z</time>
      </trkpt>
      <trkpt lat="32.766811810433864593505859375" lon="-16.82160551659762859344482421875">
        <ele>74.1999969482421875</ele>
        <time>2018-06-23T10:47:13.000Z</time>
      </trkpt>
      <trkpt lat="32.766846679151058197021484375" lon="-16.8216255493462085723876953125">
        <ele>73</ele>
        <time>2018-06-23T10:47:15.000Z</time>
      </trkpt>
      <trkpt lat="32.76685615070164203643798828125" lon="-16.8216414749622344970703125">
        <ele>72.59999847412109375</ele>
        <time>2018-06-23T10:47:16.000Z</time>
      </trkpt>
      <trkpt lat="32.76684357784688472747802734375" lon="-16.82168304920196533203125">
        <ele>71.40000152587890625</ele>
        <time>2018-06-23T10:47:18.000Z</time>
      </trkpt>
      <trkpt lat="32.7668099664151668548583984375" lon="-16.821722276508808135986328125">
        <ele>69.8000030517578125</ele>
        <time>2018-06-23T10:47:20.000Z</time>
      </trkpt>
      <trkpt lat="32.76677199639379978179931640625" lon="-16.8217586539685726165771484375">
        <ele>68.1999969482421875</ele>
        <time>2018-06-23T10:47:22.000Z</time>
      </trkpt>
      <trkpt lat="32.76673846878111362457275390625" lon="-16.8218008987605571746826171875">
        <ele>66.59999847412109375</ele>
        <time>2018-06-23T10:47:24.000Z</time>
      </trkpt>
      <trkpt lat="32.76671214960515499114990234375" lon="-16.8218505196273326873779296875">
        <ele>65</ele>
        <time>2018-06-23T10:47:26.000Z</time>
      </trkpt>
      <trkpt lat="32.766691781580448150634765625" lon="-16.82189988903701305389404296875">
        <ele>63.799999237060546875</ele>
        <time>2018-06-23T10:47:28.000Z</time>
      </trkpt>
      <trkpt lat="32.76668968610465526580810546875" lon="-16.82195068337023258209228515625">
        <ele>62.59999847412109375</ele>
        <time>2018-06-23T10:47:30.000Z</time>
      </trkpt>
      <trkpt lat="32.76671013794839382171630859375" lon="-16.82197876274585723876953125">
        <ele>61</ele>
        <time>2018-06-23T10:47:32.000Z</time>
      </trkpt>
      <trkpt lat="32.7667506225407123565673828125" lon="-16.82199024595320224761962890625">
        <ele>59.200000762939453125</ele>
        <time>2018-06-23T10:47:34.000Z</time>
      </trkpt>
      <trkpt lat="32.7667989023029804229736328125" lon="-16.8219950236380100250244140625">
        <ele>57.59999847412109375</ele>
        <time>2018-06-23T10:47:36.000Z</time>
      </trkpt>
      <trkpt lat="32.76684491895139217376708984375" lon="-16.82200181297957897186279296875">
        <ele>56.200000762939453125</ele>
        <time>2018-06-23T10:47:38.000Z</time>
      </trkpt>
      <trkpt lat="32.766888253390789031982421875" lon="-16.82201472111046314239501953125">
        <ele>54.40000152587890625</ele>
        <time>2018-06-23T10:47:40.000Z</time>
      </trkpt>
      <trkpt lat="32.766927145421504974365234375" lon="-16.8220308981835842132568359375">
        <ele>52.799999237060546875</ele>
        <time>2018-06-23T10:47:42.000Z</time>
      </trkpt>
      <trkpt lat="32.76696746237576007843017578125" lon="-16.82204958982765674591064453125">
        <ele>51.799999237060546875</ele>
        <time>2018-06-23T10:47:44.000Z</time>
      </trkpt>
      <trkpt lat="32.7670225314795970916748046875" lon="-16.822072304785251617431640625">
        <ele>50</ele>
        <time>2018-06-23T10:47:47.000Z</time>
      </trkpt>
      <trkpt lat="32.76703753508627414703369140625" lon="-16.8220832012593746185302734375">
        <ele>49.200000762939453125</ele>
        <time>2018-06-23T10:47:48.000Z</time>
      </trkpt>
      <trkpt lat="32.7670575678348541259765625" lon="-16.82209703139960765838623046875">
        <ele>48.59999847412109375</ele>
        <time>2018-06-23T10:47:49.000Z</time>
      </trkpt>
      <trkpt lat="32.76708212681114673614501953125" lon="-16.82210214436054229736328125">
        <ele>48.59999847412109375</ele>
        <time>2018-06-23T10:47:50.000Z</time>
      </trkpt>
      <trkpt lat="32.76712621562182903289794921875" lon="-16.8220691196620464324951171875">
        <ele>47.799999237060546875</ele>
        <time>2018-06-23T10:47:52.000Z</time>
      </trkpt>
      <trkpt lat="32.7671425603330135345458984375" lon="-16.8220389448106288909912109375">
        <ele>47.200000762939453125</ele>
        <time>2018-06-23T10:47:53.000Z</time>
      </trkpt>
      <trkpt lat="32.7671713940799236297607421875" lon="-16.82200097478926181793212890625">
        <ele>46.200000762939453125</ele>
        <time>2018-06-23T10:47:55.000Z</time>
      </trkpt>
      <trkpt lat="32.76717969216406345367431640625" lon="-16.82200684212148189544677734375">
        <ele>45.799999237060546875</ele>
        <time>2018-06-23T10:47:56.000Z</time>
      </trkpt>
      <trkpt lat="32.7671911753714084625244140625" lon="-16.82204305194318294525146484375">
        <ele>44.59999847412109375</ele>
        <time>2018-06-23T10:47:58.000Z</time>
      </trkpt>
      <trkpt lat="32.76720282621681690216064453125" lon="-16.822087727487087249755859375">
        <ele>43.40000152587890625</ele>
        <time>2018-06-23T10:48:00.000Z</time>
      </trkpt>
      <trkpt lat="32.7672211825847625732421875" lon="-16.8221296370029449462890625">
        <ele>42</ele>
        <time>2018-06-23T10:48:02.000Z</time>
      </trkpt>
      <trkpt lat="32.767238952219486236572265625" lon="-16.82217665947973728179931640625">
        <ele>40.40000152587890625</ele>
        <time>2018-06-23T10:48:04.000Z</time>
      </trkpt>
      <trkpt lat="32.7672605775296688079833984375" lon="-16.822229884564876556396484375">
        <ele>39.200000762939453125</ele>
        <time>2018-06-23T10:48:06.000Z</time>
      </trkpt>
      <trkpt lat="32.7672909200191497802734375" lon="-16.82227573357522487640380859375">
        <ele>37.59999847412109375</ele>
        <time>2018-06-23T10:48:08.000Z</time>
      </trkpt>
      <trkpt lat="32.7673266269266605377197265625" lon="-16.82231680490076541900634765625">
        <ele>36.200000762939453125</ele>
        <time>2018-06-23T10:48:10.000Z</time>
      </trkpt>
      <trkpt lat="32.7673633396625518798828125" lon="-16.82235033251345157623291015625">
        <ele>34.799999237060546875</ele>
        <time>2018-06-23T10:48:12.000Z</time>
      </trkpt>
      <trkpt lat="32.76740030385553836822509765625" lon="-16.8223826028406620025634765625">
        <ele>33.40000152587890625</ele>
        <time>2018-06-23T10:48:14.000Z</time>
      </trkpt>
      <trkpt lat="32.7674384415149688720703125" lon="-16.82241638191044330596923828125">
        <ele>32.200000762939453125</ele>
        <time>2018-06-23T10:48:16.000Z</time>
      </trkpt>
      <trkpt lat="32.7674714662134647369384765625" lon="-16.8224506638944149017333984375">
        <ele>30.799999237060546875</ele>
        <time>2018-06-23T10:48:18.000Z</time>
      </trkpt>
      <trkpt lat="32.7675029821693897247314453125" lon="-16.82248972356319427490234375">
        <ele>29.799999237060546875</ele>
        <time>2018-06-23T10:48:20.000Z</time>
      </trkpt>
      <trkpt lat="32.767530642449855804443359375" lon="-16.822533309459686279296875">
        <ele>28.6000003814697265625</ele>
        <time>2018-06-23T10:48:22.000Z</time>
      </trkpt>
      <trkpt lat="32.76755788363516330718994140625" lon="-16.82257396169006824493408203125">
        <ele>27.3999996185302734375</ele>
        <time>2018-06-23T10:48:24.000Z</time>
      </trkpt>
      <trkpt lat="32.76756693609058856964111328125" lon="-16.822606064379215240478515625">
        <ele>26</ele>
        <time>2018-06-23T10:48:26.000Z</time>
      </trkpt>
      <trkpt lat="32.76753122918307781219482421875" lon="-16.822676472365856170654296875">
        <ele>25.3999996185302734375</ele>
        <time>2018-06-23T10:48:29.000Z</time>
      </trkpt>
      <trkpt lat="32.7675645053386688232421875" lon="-16.822799853980541229248046875">
        <ele>25.200000762939453125</ele>
        <time>2018-06-23T10:48:34.000Z</time>
      </trkpt>
      <trkpt lat="32.76757716201245784759521484375" lon="-16.8228087387979030609130859375">
        <ele>24.6000003814697265625</ele>
        <time>2018-06-23T10:48:35.000Z</time>
      </trkpt>
      <trkpt lat="32.76758839376270771026611328125" lon="-16.82280999608337879180908203125">
        <ele>24.200000762939453125</ele>
        <time>2018-06-23T10:48:36.000Z</time>
      </trkpt>
      <trkpt lat="32.76760800741612911224365234375" lon="-16.8228050507605075836181640625">
        <ele>23</ele>
        <time>2018-06-23T10:48:38.000Z</time>
      </trkpt>
      <trkpt lat="32.7677012979984283447265625" lon="-16.8228228203952312469482421875">
        <ele>21.799999237060546875</ele>
        <time>2018-06-23T10:48:42.000Z</time>
      </trkpt>
      <trkpt lat="32.767896763980388641357421875" lon="-16.822789125144481658935546875">
        <ele>21</ele>
        <time>2018-06-23T10:48:49.000Z</time>
      </trkpt>
      <trkpt lat="32.76798100210726261138916015625" lon="-16.8227787315845489501953125">
        <ele>20.799999237060546875</ele>
        <time>2018-06-23T10:48:52.000Z</time>
      </trkpt>
      <trkpt lat="32.76817495934665203094482421875" lon="-16.8227980099618434906005859375">
        <ele>21.200000762939453125</ele>
        <time>2018-06-23T10:48:59.000Z</time>
      </trkpt>
      <trkpt lat="32.768201865255832672119140625" lon="-16.82280831970274448394775390625">
        <ele>21.200000762939453125</ele>
        <time>2018-06-23T10:49:00.000Z</time>
      </trkpt>
      <trkpt lat="32.7683016099035739898681640625" lon="-16.8228613771498203277587890625">
        <ele>22.3999996185302734375</ele>
        <time>2018-06-23T10:49:04.000Z</time>
      </trkpt>
      <trkpt lat="32.76836455799639225006103515625" lon="-16.82289968244731426239013671875">
        <ele>23.6000003814697265625</ele>
        <time>2018-06-23T10:49:07.000Z</time>
      </trkpt>
      <trkpt lat="32.76850529015064239501953125" lon="-16.82305323891341686248779296875">
        <ele>24.200000762939453125</ele>
        <time>2018-06-23T10:49:15.000Z</time>
      </trkpt>
      <trkpt lat="32.768597491085529327392578125" lon="-16.82316002435982227325439453125">
        <ele>24.799999237060546875</ele>
        <time>2018-06-23T10:49:20.000Z</time>
      </trkpt>
      <trkpt lat="32.7686425857245922088623046875" lon="-16.82322523556649684906005859375">
        <ele>25.799999237060546875</ele>
        <time>2018-06-23T10:49:23.000Z</time>
      </trkpt>
      <trkpt lat="32.7687471918761730194091796875" lon="-16.8234305083751678466796875">
        <ele>25.6000003814697265625</ele>
        <time>2018-06-23T10:49:31.000Z</time>
      </trkpt>
      <trkpt lat="32.7688397280871868133544921875" lon="-16.8235798738896846771240234375">
        <ele>24.6000003814697265625</ele>
        <time>2018-06-23T10:49:36.000Z</time>
      </trkpt>
      <trkpt lat="32.76894810609519481658935546875" lon="-16.8237545527517795562744140625">
        <ele>24.200000762939453125</ele>
        <time>2018-06-23T10:49:42.000Z</time>
      </trkpt>
      <trkpt lat="32.7690697275102138519287109375" lon="-16.8239275552332401275634765625">
        <ele>24.200000762939453125</ele>
        <time>2018-06-23T10:49:49.000Z</time>
      </trkpt>
      <trkpt lat="32.7691428177058696746826171875" lon="-16.8240318261086940765380859375">
        <ele>23.3999996185302734375</ele>
        <time>2018-06-23T10:49:53.000Z</time>
      </trkpt>
      <trkpt lat="32.769278772175312042236328125" lon="-16.82420901954174041748046875">
        <ele>23.3999996185302734375</ele>
        <time>2018-06-23T10:50:00.000Z</time>
      </trkpt>
      <trkpt lat="32.769428975880146026611328125" lon="-16.8243583850562572479248046875">
        <ele>23.3999996185302734375</ele>
        <time>2018-06-23T10:50:07.000Z</time>
      </trkpt>
      <trkpt lat="32.76959829032421112060546875" lon="-16.8244978599250316619873046875">
        <ele>23.3999996185302734375</ele>
        <time>2018-06-23T10:50:14.000Z</time>
      </trkpt>
      <trkpt lat="32.76974924840033054351806640625" lon="-16.8246403522789478302001953125">
        <ele>23.3999996185302734375</ele>
        <time>2018-06-23T10:50:21.000Z</time>
      </trkpt>
      <trkpt lat="32.76989400386810302734375" lon="-16.82479114271700382232666015625">
        <ele>23.799999237060546875</ele>
        <time>2018-06-23T10:50:28.000Z</time>
      </trkpt>
      <trkpt lat="32.77005502022802829742431640625" lon="-16.824942268431186676025390625">
        <ele>24</ele>
        <time>2018-06-23T10:50:35.000Z</time>
      </trkpt>
      <trkpt lat="32.77020857669413089752197265625" lon="-16.82510194368660449981689453125">
        <ele>24</ele>
        <time>2018-06-23T10:50:42.000Z</time>
      </trkpt>
      <trkpt lat="32.77036079205572605133056640625" lon="-16.82523739524185657501220703125">
        <ele>24.200000762939453125</ele>
        <time>2018-06-23T10:50:48.000Z</time>
      </trkpt>
      <trkpt lat="32.7704403363168239593505859375" lon="-16.8253273330628871917724609375">
        <ele>24.6000003814697265625</ele>
        <time>2018-06-23T10:50:52.000Z</time>
      </trkpt>
      <trkpt lat="32.77050294913351535797119140625" lon="-16.82542246766388416290283203125">
        <ele>25.799999237060546875</ele>
        <time>2018-06-23T10:50:56.000Z</time>
      </trkpt>
      <trkpt lat="32.77059515006840229034423828125" lon="-16.8255740962922573089599609375">
        <ele>26.799999237060546875</ele>
        <time>2018-06-23T10:51:02.000Z</time>
      </trkpt>
      <trkpt lat="32.77068617753684520721435546875" lon="-16.82578557170927524566650390625">
        <ele>26.6000003814697265625</ele>
        <time>2018-06-23T10:51:09.000Z</time>
      </trkpt>
      <trkpt lat="32.7708044461905956268310546875" lon="-16.8259848095476627349853515625">
        <ele>26</ele>
        <time>2018-06-23T10:51:16.000Z</time>
      </trkpt>
      <trkpt lat="32.77092070318758487701416015625" lon="-16.8261762522161006927490234375">
        <ele>25.799999237060546875</ele>
        <time>2018-06-23T10:51:23.000Z</time>
      </trkpt>
      <trkpt lat="32.7710111439228057861328125" lon="-16.826301477849483489990234375">
        <ele>25.3999996185302734375</ele>
        <time>2018-06-23T10:51:28.000Z</time>
      </trkpt>
      <trkpt lat="32.771134860813617706298828125" lon="-16.82644841261208057403564453125">
        <ele>24.200000762939453125</ele>
        <time>2018-06-23T10:51:34.000Z</time>
      </trkpt>
      <trkpt lat="32.77122278697788715362548828125" lon="-16.826558969914913177490234375">
        <ele>23.3999996185302734375</ele>
        <time>2018-06-23T10:51:38.000Z</time>
      </trkpt>
      <trkpt lat="32.77136175893247127532958984375" lon="-16.8267053179442882537841796875">
        <ele>22.799999237060546875</ele>
        <time>2018-06-23T10:51:44.000Z</time>
      </trkpt>
      <trkpt lat="32.77150676585733890533447265625" lon="-16.8268675915896892547607421875">
        <ele>22.3999996185302734375</ele>
        <time>2018-06-23T10:51:50.000Z</time>
      </trkpt>
      <trkpt lat="32.77157968841493129730224609375" lon="-16.82693925686180591583251953125">
        <ele>22.200000762939453125</ele>
        <time>2018-06-23T10:51:53.000Z</time>
      </trkpt>
      <trkpt lat="32.7717380225658416748046875" lon="-16.8270513229072093963623046875">
        <ele>22.3999996185302734375</ele>
        <time>2018-06-23T10:51:59.000Z</time>
      </trkpt>
      <trkpt lat="32.77191043831408023834228515625" lon="-16.8271431885659694671630859375">
        <ele>22.200000762939453125</ele>
        <time>2018-06-23T10:52:05.000Z</time>
      </trkpt>
      <trkpt lat="32.772087045013904571533203125" lon="-16.8272258341312408447265625">
        <ele>22.3999996185302734375</ele>
        <time>2018-06-23T10:52:12.000Z</time>
      </trkpt>
      <trkpt lat="32.77225292287766933441162109375" lon="-16.82734594680368900299072265625">
        <ele>21.799999237060546875</ele>
        <time>2018-06-23T10:52:19.000Z</time>
      </trkpt>
      <trkpt lat="32.772415615618228912353515625" lon="-16.8275015987455844879150390625">
        <ele>21.3999996185302734375</ele>
        <time>2018-06-23T10:52:26.000Z</time>
      </trkpt>
      <trkpt lat="32.77247973717749118804931640625" lon="-16.827566139400005340576171875">
        <ele>21</ele>
        <time>2018-06-23T10:52:29.000Z</time>
      </trkpt>
      <trkpt lat="32.77263396419584751129150390625" lon="-16.8277101404964923858642578125">
        <ele>21.200000762939453125</ele>
        <time>2018-06-23T10:52:36.000Z</time>
      </trkpt>
      <trkpt lat="32.7728177793323993682861328125" lon="-16.82781399227678775787353515625">
        <ele>21</ele>
        <time>2018-06-23T10:52:43.000Z</time>
      </trkpt>
      <trkpt lat="32.772946022450923919677734375" lon="-16.827853135764598846435546875">
        <ele>22.6000003814697265625</ele>
        <time>2018-06-23T10:52:48.000Z</time>
      </trkpt>
      <trkpt lat="32.77298868633806705474853515625" lon="-16.82786227203905582427978515625">
        <ele>23.799999237060546875</ele>
        <time>2018-06-23T10:52:50.000Z</time>
      </trkpt>
      <trkpt lat="32.77306311763823032379150390625" lon="-16.8278854899108409881591796875">
        <ele>24.799999237060546875</ele>
        <time>2018-06-23T10:52:54.000Z</time>
      </trkpt>
      <trkpt lat="32.77323092333972454071044921875" lon="-16.82794944383203983306884765625">
        <ele>25.799999237060546875</ele>
        <time>2018-06-23T10:53:04.000Z</time>
      </trkpt>
      <trkpt lat="32.77338146232068538665771484375" lon="-16.82811020873486995697021484375">
        <ele>25.799999237060546875</ele>
        <time>2018-06-23T10:53:11.000Z</time>
      </trkpt>
      <trkpt lat="32.77347936294972896575927734375" lon="-16.8283250369131565093994140625">
        <ele>25.6000003814697265625</ele>
        <time>2018-06-23T10:53:18.000Z</time>
      </trkpt>
      <trkpt lat="32.77362990193068981170654296875" lon="-16.82846979238092899322509765625">
        <ele>25</ele>
        <time>2018-06-23T10:53:25.000Z</time>
      </trkpt>
      <trkpt lat="32.77368103154003620147705078125" lon="-16.8285074271261692047119140625">
        <ele>24.3999996185302734375</ele>
        <time>2018-06-23T10:53:27.000Z</time>
      </trkpt>
      <trkpt lat="32.77385252527892589569091796875" lon="-16.8286311440169811248779296875">
        <ele>24.3999996185302734375</ele>
        <time>2018-06-23T10:53:34.000Z</time>
      </trkpt>
      <trkpt lat="32.77393852360546588897705078125" lon="-16.82869275100529193878173828125">
        <ele>24.3999996185302734375</ele>
        <time>2018-06-23T10:53:38.000Z</time>
      </trkpt>
    </trkseg>
  </trk>
</gpx>
